<?xml version="1.0" encoding="UTF-8"?>
<gpx xmlns="http://www.topografix.com/GPX/1/1"
     creator="GpsDumpMac 0.36"
     version="1.1"
     xmlns:xsi="http://www.w3.org/2001/XMLSchema-instance"
     xsi:schemaLocation="http://www.topografix.com/GPX/1/1 http://www.topografix.com/GPX/1/1/gpx.xsd">
  <metadata>
    <link href="http://www.gethome.no/stein.sorensen/">
      <text>GPS dump for www.flightlog.org</text>
    </link>
    <time>2015-06-08T18:05:16Z</time>
    <bounds minlat="39.974333" minlon="-6.564967" maxlat="40.252967" maxlon="-4.883417"/>
  </metadata>
  <trk>
    <name>Track 001</name>
    <trkseg>
      <trkpt lat="40.252483" lon="-4.887483">
        <ele>1012.0</ele>
        <time>2015-06-06T12:39:18Z</time>
      </trkpt>
      <trkpt lat="40.252500" lon="-4.887317">
        <ele>1010.0</ele>
        <time>2015-06-06T12:39:20Z</time>
      </trkpt>
      <trkpt lat="40.252483" lon="-4.887167">
        <ele>1009.0</ele>
        <time>2015-06-06T12:39:22Z</time>
      </trkpt>
      <trkpt lat="40.252450" lon="-4.886950">
        <ele>1008.0</ele>
        <time>2015-06-06T12:39:24Z</time>
      </trkpt>
      <trkpt lat="40.252383" lon="-4.886800">
        <ele>1010.0</ele>
        <time>2015-06-06T12:39:26Z</time>
      </trkpt>
      <trkpt lat="40.252333" lon="-4.886667">
        <ele>1011.0</ele>
        <time>2015-06-06T12:39:28Z</time>
      </trkpt>
      <trkpt lat="40.252367" lon="-4.886533">
        <ele>1011.0</ele>
        <time>2015-06-06T12:39:30Z</time>
      </trkpt>
      <trkpt lat="40.252467" lon="-4.886433">
        <ele>1010.0</ele>
        <time>2015-06-06T12:39:32Z</time>
      </trkpt>
      <trkpt lat="40.252633" lon="-4.886433">
        <ele>1009.0</ele>
        <time>2015-06-06T12:39:34Z</time>
      </trkpt>
      <trkpt lat="40.252817" lon="-4.886433">
        <ele>1008.0</ele>
        <time>2015-06-06T12:39:36Z</time>
      </trkpt>
      <trkpt lat="40.252950" lon="-4.886333">
        <ele>1007.0</ele>
        <time>2015-06-06T12:39:38Z</time>
      </trkpt>
      <trkpt lat="40.252967" lon="-4.886183">
        <ele>1008.0</ele>
        <time>2015-06-06T12:39:40Z</time>
      </trkpt>
      <trkpt lat="40.252933" lon="-4.886083">
        <ele>1007.0</ele>
        <time>2015-06-06T12:39:42Z</time>
      </trkpt>
      <trkpt lat="40.252833" lon="-4.885983">
        <ele>1003.0</ele>
        <time>2015-06-06T12:39:44Z</time>
      </trkpt>
      <trkpt lat="40.252700" lon="-4.885900">
        <ele>1000.0</ele>
        <time>2015-06-06T12:39:46Z</time>
      </trkpt>
      <trkpt lat="40.252550" lon="-4.885867">
        <ele>997.0</ele>
        <time>2015-06-06T12:39:48Z</time>
      </trkpt>
      <trkpt lat="40.252433" lon="-4.885817">
        <ele>993.0</ele>
        <time>2015-06-06T12:39:50Z</time>
      </trkpt>
      <trkpt lat="40.252283" lon="-4.885733">
        <ele>989.0</ele>
        <time>2015-06-06T12:39:52Z</time>
      </trkpt>
      <trkpt lat="40.252117" lon="-4.885667">
        <ele>986.0</ele>
        <time>2015-06-06T12:39:54Z</time>
      </trkpt>
      <trkpt lat="40.251967" lon="-4.885633">
        <ele>988.0</ele>
        <time>2015-06-06T12:39:56Z</time>
      </trkpt>
      <trkpt lat="40.251833" lon="-4.885633">
        <ele>986.0</ele>
        <time>2015-06-06T12:39:58Z</time>
      </trkpt>
      <trkpt lat="40.251683" lon="-4.885550">
        <ele>983.0</ele>
        <time>2015-06-06T12:40:00Z</time>
      </trkpt>
      <trkpt lat="40.251550" lon="-4.885517">
        <ele>983.0</ele>
        <time>2015-06-06T12:40:02Z</time>
      </trkpt>
      <trkpt lat="40.251433" lon="-4.885533">
        <ele>983.0</ele>
        <time>2015-06-06T12:40:04Z</time>
      </trkpt>
      <trkpt lat="40.251317" lon="-4.885550">
        <ele>980.0</ele>
        <time>2015-06-06T12:40:06Z</time>
      </trkpt>
      <trkpt lat="40.251167" lon="-4.885583">
        <ele>977.0</ele>
        <time>2015-06-06T12:40:08Z</time>
      </trkpt>
      <trkpt lat="40.251017" lon="-4.885667">
        <ele>977.0</ele>
        <time>2015-06-06T12:40:10Z</time>
      </trkpt>
      <trkpt lat="40.250883" lon="-4.885750">
        <ele>980.0</ele>
        <time>2015-06-06T12:40:12Z</time>
      </trkpt>
      <trkpt lat="40.250767" lon="-4.885833">
        <ele>980.0</ele>
        <time>2015-06-06T12:40:14Z</time>
      </trkpt>
      <trkpt lat="40.250667" lon="-4.885933">
        <ele>979.0</ele>
        <time>2015-06-06T12:40:16Z</time>
      </trkpt>
      <trkpt lat="40.250550" lon="-4.886033">
        <ele>975.0</ele>
        <time>2015-06-06T12:40:18Z</time>
      </trkpt>
      <trkpt lat="40.250433" lon="-4.886067">
        <ele>969.0</ele>
        <time>2015-06-06T12:40:20Z</time>
      </trkpt>
      <trkpt lat="40.250267" lon="-4.886050">
        <ele>965.0</ele>
        <time>2015-06-06T12:40:22Z</time>
      </trkpt>
      <trkpt lat="40.250117" lon="-4.886083">
        <ele>968.0</ele>
        <time>2015-06-06T12:40:24Z</time>
      </trkpt>
      <trkpt lat="40.250017" lon="-4.886117">
        <ele>969.0</ele>
        <time>2015-06-06T12:40:26Z</time>
      </trkpt>
      <trkpt lat="40.249867" lon="-4.886150">
        <ele>965.0</ele>
        <time>2015-06-06T12:40:28Z</time>
      </trkpt>
      <trkpt lat="40.249700" lon="-4.886217">
        <ele>964.0</ele>
        <time>2015-06-06T12:40:30Z</time>
      </trkpt>
      <trkpt lat="40.249600" lon="-4.886317">
        <ele>962.0</ele>
        <time>2015-06-06T12:40:32Z</time>
      </trkpt>
      <trkpt lat="40.249467" lon="-4.886383">
        <ele>957.0</ele>
        <time>2015-06-06T12:40:34Z</time>
      </trkpt>
      <trkpt lat="40.249283" lon="-4.886400">
        <ele>954.0</ele>
        <time>2015-06-06T12:40:36Z</time>
      </trkpt>
      <trkpt lat="40.249133" lon="-4.886400">
        <ele>955.0</ele>
        <time>2015-06-06T12:40:38Z</time>
      </trkpt>
      <trkpt lat="40.249050" lon="-4.886283">
        <ele>950.0</ele>
        <time>2015-06-06T12:40:40Z</time>
      </trkpt>
      <trkpt lat="40.249017" lon="-4.886033">
        <ele>946.0</ele>
        <time>2015-06-06T12:40:42Z</time>
      </trkpt>
      <trkpt lat="40.249083" lon="-4.885850">
        <ele>947.0</ele>
        <time>2015-06-06T12:40:44Z</time>
      </trkpt>
      <trkpt lat="40.249200" lon="-4.885733">
        <ele>945.0</ele>
        <time>2015-06-06T12:40:46Z</time>
      </trkpt>
      <trkpt lat="40.249350" lon="-4.885650">
        <ele>942.0</ele>
        <time>2015-06-06T12:40:48Z</time>
      </trkpt>
      <trkpt lat="40.249533" lon="-4.885533">
        <ele>939.0</ele>
        <time>2015-06-06T12:40:50Z</time>
      </trkpt>
      <trkpt lat="40.249700" lon="-4.885400">
        <ele>937.0</ele>
        <time>2015-06-06T12:40:52Z</time>
      </trkpt>
      <trkpt lat="40.249850" lon="-4.885267">
        <ele>938.0</ele>
        <time>2015-06-06T12:40:54Z</time>
      </trkpt>
      <trkpt lat="40.250000" lon="-4.885133">
        <ele>937.0</ele>
        <time>2015-06-06T12:40:56Z</time>
      </trkpt>
      <trkpt lat="40.250117" lon="-4.884950">
        <ele>936.0</ele>
        <time>2015-06-06T12:40:58Z</time>
      </trkpt>
      <trkpt lat="40.250267" lon="-4.884817">
        <ele>939.0</ele>
        <time>2015-06-06T12:41:00Z</time>
      </trkpt>
      <trkpt lat="40.250450" lon="-4.884750">
        <ele>938.0</ele>
        <time>2015-06-06T12:41:02Z</time>
      </trkpt>
      <trkpt lat="40.250650" lon="-4.884683">
        <ele>937.0</ele>
        <time>2015-06-06T12:41:04Z</time>
      </trkpt>
      <trkpt lat="40.250850" lon="-4.884617">
        <ele>938.0</ele>
        <time>2015-06-06T12:41:06Z</time>
      </trkpt>
      <trkpt lat="40.251050" lon="-4.884583">
        <ele>938.0</ele>
        <time>2015-06-06T12:41:08Z</time>
      </trkpt>
      <trkpt lat="40.251183" lon="-4.884417">
        <ele>936.0</ele>
        <time>2015-06-06T12:41:10Z</time>
      </trkpt>
      <trkpt lat="40.251117" lon="-4.884233">
        <ele>935.0</ele>
        <time>2015-06-06T12:41:12Z</time>
      </trkpt>
      <trkpt lat="40.250967" lon="-4.884167">
        <ele>937.0</ele>
        <time>2015-06-06T12:41:14Z</time>
      </trkpt>
      <trkpt lat="40.250850" lon="-4.884183">
        <ele>942.0</ele>
        <time>2015-06-06T12:41:16Z</time>
      </trkpt>
      <trkpt lat="40.250783" lon="-4.884283">
        <ele>940.0</ele>
        <time>2015-06-06T12:41:18Z</time>
      </trkpt>
      <trkpt lat="40.250667" lon="-4.884450">
        <ele>937.0</ele>
        <time>2015-06-06T12:41:20Z</time>
      </trkpt>
      <trkpt lat="40.250550" lon="-4.884567">
        <ele>936.0</ele>
        <time>2015-06-06T12:41:22Z</time>
      </trkpt>
      <trkpt lat="40.250433" lon="-4.884600">
        <ele>936.0</ele>
        <time>2015-06-06T12:41:24Z</time>
      </trkpt>
      <trkpt lat="40.250350" lon="-4.884517">
        <ele>933.0</ele>
        <time>2015-06-06T12:41:26Z</time>
      </trkpt>
      <trkpt lat="40.250350" lon="-4.884333">
        <ele>927.0</ele>
        <time>2015-06-06T12:41:28Z</time>
      </trkpt>
      <trkpt lat="40.250517" lon="-4.884150">
        <ele>925.0</ele>
        <time>2015-06-06T12:41:30Z</time>
      </trkpt>
      <trkpt lat="40.250717" lon="-4.884133">
        <ele>924.0</ele>
        <time>2015-06-06T12:41:32Z</time>
      </trkpt>
      <trkpt lat="40.250883" lon="-4.884183">
        <ele>925.0</ele>
        <time>2015-06-06T12:41:34Z</time>
      </trkpt>
      <trkpt lat="40.251050" lon="-4.884200">
        <ele>927.0</ele>
        <time>2015-06-06T12:41:36Z</time>
      </trkpt>
      <trkpt lat="40.251183" lon="-4.884217">
        <ele>927.0</ele>
        <time>2015-06-06T12:41:38Z</time>
      </trkpt>
      <trkpt lat="40.251383" lon="-4.884233">
        <ele>925.0</ele>
        <time>2015-06-06T12:41:40Z</time>
      </trkpt>
      <trkpt lat="40.251533" lon="-4.884117">
        <ele>926.0</ele>
        <time>2015-06-06T12:41:42Z</time>
      </trkpt>
      <trkpt lat="40.251600" lon="-4.884017">
        <ele>930.0</ele>
        <time>2015-06-06T12:41:44Z</time>
      </trkpt>
      <trkpt lat="40.251633" lon="-4.883900">
        <ele>930.0</ele>
        <time>2015-06-06T12:41:46Z</time>
      </trkpt>
      <trkpt lat="40.251500" lon="-4.883783">
        <ele>928.0</ele>
        <time>2015-06-06T12:41:48Z</time>
      </trkpt>
      <trkpt lat="40.251317" lon="-4.883850">
        <ele>926.0</ele>
        <time>2015-06-06T12:41:50Z</time>
      </trkpt>
      <trkpt lat="40.251200" lon="-4.884017">
        <ele>928.0</ele>
        <time>2015-06-06T12:41:52Z</time>
      </trkpt>
      <trkpt lat="40.251100" lon="-4.884200">
        <ele>929.0</ele>
        <time>2015-06-06T12:41:54Z</time>
      </trkpt>
      <trkpt lat="40.250933" lon="-4.884300">
        <ele>930.0</ele>
        <time>2015-06-06T12:41:56Z</time>
      </trkpt>
      <trkpt lat="40.250817" lon="-4.884300">
        <ele>934.0</ele>
        <time>2015-06-06T12:41:58Z</time>
      </trkpt>
      <trkpt lat="40.250717" lon="-4.884200">
        <ele>934.0</ele>
        <time>2015-06-06T12:42:00Z</time>
      </trkpt>
      <trkpt lat="40.250633" lon="-4.884033">
        <ele>934.0</ele>
        <time>2015-06-06T12:42:02Z</time>
      </trkpt>
      <trkpt lat="40.250683" lon="-4.883800">
        <ele>933.0</ele>
        <time>2015-06-06T12:42:04Z</time>
      </trkpt>
      <trkpt lat="40.250883" lon="-4.883667">
        <ele>933.0</ele>
        <time>2015-06-06T12:42:06Z</time>
      </trkpt>
      <trkpt lat="40.251083" lon="-4.883700">
        <ele>936.0</ele>
        <time>2015-06-06T12:42:08Z</time>
      </trkpt>
      <trkpt lat="40.251233" lon="-4.883883">
        <ele>938.0</ele>
        <time>2015-06-06T12:42:10Z</time>
      </trkpt>
      <trkpt lat="40.251350" lon="-4.884083">
        <ele>941.0</ele>
        <time>2015-06-06T12:42:12Z</time>
      </trkpt>
      <trkpt lat="40.251483" lon="-4.884233">
        <ele>939.0</ele>
        <time>2015-06-06T12:42:14Z</time>
      </trkpt>
      <trkpt lat="40.251650" lon="-4.884167">
        <ele>937.0</ele>
        <time>2015-06-06T12:42:16Z</time>
      </trkpt>
      <trkpt lat="40.251617" lon="-4.883983">
        <ele>937.0</ele>
        <time>2015-06-06T12:42:18Z</time>
      </trkpt>
      <trkpt lat="40.251500" lon="-4.883933">
        <ele>940.0</ele>
        <time>2015-06-06T12:42:20Z</time>
      </trkpt>
      <trkpt lat="40.251367" lon="-4.883950">
        <ele>941.0</ele>
        <time>2015-06-06T12:42:22Z</time>
      </trkpt>
      <trkpt lat="40.251183" lon="-4.884050">
        <ele>942.0</ele>
        <time>2015-06-06T12:42:24Z</time>
      </trkpt>
      <trkpt lat="40.251083" lon="-4.884250">
        <ele>948.0</ele>
        <time>2015-06-06T12:42:26Z</time>
      </trkpt>
      <trkpt lat="40.251033" lon="-4.884383">
        <ele>952.0</ele>
        <time>2015-06-06T12:42:28Z</time>
      </trkpt>
      <trkpt lat="40.250917" lon="-4.884483">
        <ele>949.0</ele>
        <time>2015-06-06T12:42:30Z</time>
      </trkpt>
      <trkpt lat="40.250750" lon="-4.884483">
        <ele>947.0</ele>
        <time>2015-06-06T12:42:32Z</time>
      </trkpt>
      <trkpt lat="40.250650" lon="-4.884350">
        <ele>948.0</ele>
        <time>2015-06-06T12:42:34Z</time>
      </trkpt>
      <trkpt lat="40.250633" lon="-4.884183">
        <ele>946.0</ele>
        <time>2015-06-06T12:42:36Z</time>
      </trkpt>
      <trkpt lat="40.250667" lon="-4.883983">
        <ele>943.0</ele>
        <time>2015-06-06T12:42:38Z</time>
      </trkpt>
      <trkpt lat="40.250850" lon="-4.883833">
        <ele>942.0</ele>
        <time>2015-06-06T12:42:40Z</time>
      </trkpt>
      <trkpt lat="40.251050" lon="-4.883850">
        <ele>943.0</ele>
        <time>2015-06-06T12:42:42Z</time>
      </trkpt>
      <trkpt lat="40.251133" lon="-4.883833">
        <ele>947.0</ele>
        <time>2015-06-06T12:42:44Z</time>
      </trkpt>
      <trkpt lat="40.251217" lon="-4.883667">
        <ele>947.0</ele>
        <time>2015-06-06T12:42:46Z</time>
      </trkpt>
      <trkpt lat="40.251200" lon="-4.883483">
        <ele>948.0</ele>
        <time>2015-06-06T12:42:48Z</time>
      </trkpt>
      <trkpt lat="40.251033" lon="-4.883417">
        <ele>949.0</ele>
        <time>2015-06-06T12:42:50Z</time>
      </trkpt>
      <trkpt lat="40.250850" lon="-4.883517">
        <ele>952.0</ele>
        <time>2015-06-06T12:42:52Z</time>
      </trkpt>
      <trkpt lat="40.250783" lon="-4.883717">
        <ele>956.0</ele>
        <time>2015-06-06T12:42:54Z</time>
      </trkpt>
      <trkpt lat="40.250800" lon="-4.883950">
        <ele>958.0</ele>
        <time>2015-06-06T12:42:56Z</time>
      </trkpt>
      <trkpt lat="40.250900" lon="-4.884133">
        <ele>961.0</ele>
        <time>2015-06-06T12:42:58Z</time>
      </trkpt>
      <trkpt lat="40.251067" lon="-4.884233">
        <ele>964.0</ele>
        <time>2015-06-06T12:43:00Z</time>
      </trkpt>
      <trkpt lat="40.251233" lon="-4.884217">
        <ele>967.0</ele>
        <time>2015-06-06T12:43:02Z</time>
      </trkpt>
      <trkpt lat="40.251333" lon="-4.884067">
        <ele>971.0</ele>
        <time>2015-06-06T12:43:04Z</time>
      </trkpt>
      <trkpt lat="40.251350" lon="-4.883883">
        <ele>976.0</ele>
        <time>2015-06-06T12:43:06Z</time>
      </trkpt>
      <trkpt lat="40.251283" lon="-4.883717">
        <ele>980.0</ele>
        <time>2015-06-06T12:43:08Z</time>
      </trkpt>
      <trkpt lat="40.251117" lon="-4.883617">
        <ele>982.0</ele>
        <time>2015-06-06T12:43:10Z</time>
      </trkpt>
      <trkpt lat="40.250933" lon="-4.883617">
        <ele>985.0</ele>
        <time>2015-06-06T12:43:12Z</time>
      </trkpt>
      <trkpt lat="40.250800" lon="-4.883733">
        <ele>988.0</ele>
        <time>2015-06-06T12:43:14Z</time>
      </trkpt>
      <trkpt lat="40.250733" lon="-4.883967">
        <ele>990.0</ele>
        <time>2015-06-06T12:43:16Z</time>
      </trkpt>
      <trkpt lat="40.250733" lon="-4.884200">
        <ele>994.0</ele>
        <time>2015-06-06T12:43:18Z</time>
      </trkpt>
      <trkpt lat="40.250817" lon="-4.884383">
        <ele>995.0</ele>
        <time>2015-06-06T12:43:20Z</time>
      </trkpt>
      <trkpt lat="40.250983" lon="-4.884467">
        <ele>992.0</ele>
        <time>2015-06-06T12:43:22Z</time>
      </trkpt>
      <trkpt lat="40.251183" lon="-4.884433">
        <ele>993.0</ele>
        <time>2015-06-06T12:43:24Z</time>
      </trkpt>
      <trkpt lat="40.251333" lon="-4.884300">
        <ele>998.0</ele>
        <time>2015-06-06T12:43:26Z</time>
      </trkpt>
      <trkpt lat="40.251400" lon="-4.884167">
        <ele>1003.0</ele>
        <time>2015-06-06T12:43:28Z</time>
      </trkpt>
      <trkpt lat="40.251400" lon="-4.883967">
        <ele>1003.0</ele>
        <time>2015-06-06T12:43:30Z</time>
      </trkpt>
      <trkpt lat="40.251300" lon="-4.883767">
        <ele>1006.0</ele>
        <time>2015-06-06T12:43:32Z</time>
      </trkpt>
      <trkpt lat="40.251150" lon="-4.883683">
        <ele>1011.0</ele>
        <time>2015-06-06T12:43:34Z</time>
      </trkpt>
      <trkpt lat="40.251017" lon="-4.883683">
        <ele>1016.0</ele>
        <time>2015-06-06T12:43:36Z</time>
      </trkpt>
      <trkpt lat="40.250883" lon="-4.883750">
        <ele>1017.0</ele>
        <time>2015-06-06T12:43:38Z</time>
      </trkpt>
      <trkpt lat="40.250800" lon="-4.884000">
        <ele>1017.0</ele>
        <time>2015-06-06T12:43:40Z</time>
      </trkpt>
      <trkpt lat="40.250817" lon="-4.884283">
        <ele>1021.0</ele>
        <time>2015-06-06T12:43:42Z</time>
      </trkpt>
      <trkpt lat="40.250900" lon="-4.884450">
        <ele>1027.0</ele>
        <time>2015-06-06T12:43:44Z</time>
      </trkpt>
      <trkpt lat="40.251000" lon="-4.884567">
        <ele>1029.0</ele>
        <time>2015-06-06T12:43:46Z</time>
      </trkpt>
      <trkpt lat="40.251167" lon="-4.884633">
        <ele>1027.0</ele>
        <time>2015-06-06T12:43:48Z</time>
      </trkpt>
      <trkpt lat="40.251367" lon="-4.884567">
        <ele>1030.0</ele>
        <time>2015-06-06T12:43:50Z</time>
      </trkpt>
      <trkpt lat="40.251483" lon="-4.884417">
        <ele>1035.0</ele>
        <time>2015-06-06T12:43:52Z</time>
      </trkpt>
      <trkpt lat="40.251500" lon="-4.884233">
        <ele>1037.0</ele>
        <time>2015-06-06T12:43:54Z</time>
      </trkpt>
      <trkpt lat="40.251467" lon="-4.884033">
        <ele>1037.0</ele>
        <time>2015-06-06T12:43:56Z</time>
      </trkpt>
      <trkpt lat="40.251367" lon="-4.883850">
        <ele>1038.0</ele>
        <time>2015-06-06T12:43:58Z</time>
      </trkpt>
      <trkpt lat="40.251183" lon="-4.883783">
        <ele>1040.0</ele>
        <time>2015-06-06T12:44:00Z</time>
      </trkpt>
      <trkpt lat="40.251017" lon="-4.883833">
        <ele>1043.0</ele>
        <time>2015-06-06T12:44:02Z</time>
      </trkpt>
      <trkpt lat="40.250867" lon="-4.883983">
        <ele>1047.0</ele>
        <time>2015-06-06T12:44:04Z</time>
      </trkpt>
      <trkpt lat="40.250767" lon="-4.884183">
        <ele>1052.0</ele>
        <time>2015-06-06T12:44:06Z</time>
      </trkpt>
      <trkpt lat="40.250700" lon="-4.884367">
        <ele>1058.0</ele>
        <time>2015-06-06T12:44:08Z</time>
      </trkpt>
      <trkpt lat="40.250700" lon="-4.884567">
        <ele>1060.0</ele>
        <time>2015-06-06T12:44:10Z</time>
      </trkpt>
      <trkpt lat="40.250783" lon="-4.884767">
        <ele>1060.0</ele>
        <time>2015-06-06T12:44:12Z</time>
      </trkpt>
      <trkpt lat="40.250933" lon="-4.884900">
        <ele>1063.0</ele>
        <time>2015-06-06T12:44:14Z</time>
      </trkpt>
      <trkpt lat="40.251100" lon="-4.884850">
        <ele>1065.0</ele>
        <time>2015-06-06T12:44:16Z</time>
      </trkpt>
      <trkpt lat="40.251200" lon="-4.884683">
        <ele>1067.0</ele>
        <time>2015-06-06T12:44:18Z</time>
      </trkpt>
      <trkpt lat="40.251233" lon="-4.884467">
        <ele>1068.0</ele>
        <time>2015-06-06T12:44:20Z</time>
      </trkpt>
      <trkpt lat="40.251167" lon="-4.884267">
        <ele>1070.0</ele>
        <time>2015-06-06T12:44:22Z</time>
      </trkpt>
      <trkpt lat="40.251033" lon="-4.884183">
        <ele>1072.0</ele>
        <time>2015-06-06T12:44:24Z</time>
      </trkpt>
      <trkpt lat="40.250883" lon="-4.884167">
        <ele>1076.0</ele>
        <time>2015-06-06T12:44:26Z</time>
      </trkpt>
      <trkpt lat="40.250733" lon="-4.884267">
        <ele>1079.0</ele>
        <time>2015-06-06T12:44:28Z</time>
      </trkpt>
      <trkpt lat="40.250617" lon="-4.884467">
        <ele>1084.0</ele>
        <time>2015-06-06T12:44:30Z</time>
      </trkpt>
      <trkpt lat="40.250567" lon="-4.884683">
        <ele>1092.0</ele>
        <time>2015-06-06T12:44:32Z</time>
      </trkpt>
      <trkpt lat="40.250583" lon="-4.884867">
        <ele>1095.0</ele>
        <time>2015-06-06T12:44:34Z</time>
      </trkpt>
      <trkpt lat="40.250667" lon="-4.885067">
        <ele>1096.0</ele>
        <time>2015-06-06T12:44:36Z</time>
      </trkpt>
      <trkpt lat="40.250817" lon="-4.885217">
        <ele>1102.0</ele>
        <time>2015-06-06T12:44:38Z</time>
      </trkpt>
      <trkpt lat="40.250950" lon="-4.885267">
        <ele>1109.0</ele>
        <time>2015-06-06T12:44:40Z</time>
      </trkpt>
      <trkpt lat="40.251100" lon="-4.885200">
        <ele>1114.0</ele>
        <time>2015-06-06T12:44:42Z</time>
      </trkpt>
      <trkpt lat="40.251183" lon="-4.885033">
        <ele>1117.0</ele>
        <time>2015-06-06T12:44:44Z</time>
      </trkpt>
      <trkpt lat="40.251183" lon="-4.884817">
        <ele>1120.0</ele>
        <time>2015-06-06T12:44:46Z</time>
      </trkpt>
      <trkpt lat="40.251067" lon="-4.884650">
        <ele>1122.0</ele>
        <time>2015-06-06T12:44:48Z</time>
      </trkpt>
      <trkpt lat="40.250917" lon="-4.884583">
        <ele>1128.0</ele>
        <time>2015-06-06T12:44:50Z</time>
      </trkpt>
      <trkpt lat="40.250800" lon="-4.884567">
        <ele>1135.0</ele>
        <time>2015-06-06T12:44:52Z</time>
      </trkpt>
      <trkpt lat="40.250667" lon="-4.884650">
        <ele>1137.0</ele>
        <time>2015-06-06T12:44:54Z</time>
      </trkpt>
      <trkpt lat="40.250550" lon="-4.884867">
        <ele>1142.0</ele>
        <time>2015-06-06T12:44:56Z</time>
      </trkpt>
      <trkpt lat="40.250517" lon="-4.885117">
        <ele>1148.0</ele>
        <time>2015-06-06T12:44:58Z</time>
      </trkpt>
      <trkpt lat="40.250533" lon="-4.885317">
        <ele>1152.0</ele>
        <time>2015-06-06T12:45:00Z</time>
      </trkpt>
      <trkpt lat="40.250617" lon="-4.885483">
        <ele>1154.0</ele>
        <time>2015-06-06T12:45:02Z</time>
      </trkpt>
      <trkpt lat="40.250750" lon="-4.885583">
        <ele>1159.0</ele>
        <time>2015-06-06T12:45:04Z</time>
      </trkpt>
      <trkpt lat="40.250900" lon="-4.885550">
        <ele>1164.0</ele>
        <time>2015-06-06T12:45:06Z</time>
      </trkpt>
      <trkpt lat="40.251000" lon="-4.885433">
        <ele>1169.0</ele>
        <time>2015-06-06T12:45:08Z</time>
      </trkpt>
      <trkpt lat="40.251033" lon="-4.885267">
        <ele>1174.0</ele>
        <time>2015-06-06T12:45:10Z</time>
      </trkpt>
      <trkpt lat="40.251017" lon="-4.885083">
        <ele>1180.0</ele>
        <time>2015-06-06T12:45:12Z</time>
      </trkpt>
      <trkpt lat="40.250950" lon="-4.884917">
        <ele>1186.0</ele>
        <time>2015-06-06T12:45:14Z</time>
      </trkpt>
      <trkpt lat="40.250800" lon="-4.884833">
        <ele>1192.0</ele>
        <time>2015-06-06T12:45:16Z</time>
      </trkpt>
      <trkpt lat="40.250617" lon="-4.884850">
        <ele>1199.0</ele>
        <time>2015-06-06T12:45:18Z</time>
      </trkpt>
      <trkpt lat="40.250450" lon="-4.884933">
        <ele>1208.0</ele>
        <time>2015-06-06T12:45:20Z</time>
      </trkpt>
      <trkpt lat="40.250350" lon="-4.885083">
        <ele>1211.0</ele>
        <time>2015-06-06T12:45:22Z</time>
      </trkpt>
      <trkpt lat="40.250300" lon="-4.885300">
        <ele>1214.0</ele>
        <time>2015-06-06T12:45:24Z</time>
      </trkpt>
      <trkpt lat="40.250300" lon="-4.885500">
        <ele>1218.0</ele>
        <time>2015-06-06T12:45:26Z</time>
      </trkpt>
      <trkpt lat="40.250383" lon="-4.885617">
        <ele>1220.0</ele>
        <time>2015-06-06T12:45:28Z</time>
      </trkpt>
      <trkpt lat="40.250517" lon="-4.885700">
        <ele>1221.0</ele>
        <time>2015-06-06T12:45:30Z</time>
      </trkpt>
      <trkpt lat="40.250650" lon="-4.885767">
        <ele>1225.0</ele>
        <time>2015-06-06T12:45:32Z</time>
      </trkpt>
      <trkpt lat="40.250783" lon="-4.885700">
        <ele>1228.0</ele>
        <time>2015-06-06T12:45:34Z</time>
      </trkpt>
      <trkpt lat="40.250883" lon="-4.885550">
        <ele>1232.0</ele>
        <time>2015-06-06T12:45:36Z</time>
      </trkpt>
      <trkpt lat="40.250933" lon="-4.885367">
        <ele>1239.0</ele>
        <time>2015-06-06T12:45:38Z</time>
      </trkpt>
      <trkpt lat="40.250883" lon="-4.885200">
        <ele>1245.0</ele>
        <time>2015-06-06T12:45:40Z</time>
      </trkpt>
      <trkpt lat="40.250767" lon="-4.885067">
        <ele>1250.0</ele>
        <time>2015-06-06T12:45:42Z</time>
      </trkpt>
      <trkpt lat="40.250583" lon="-4.885050">
        <ele>1255.0</ele>
        <time>2015-06-06T12:45:44Z</time>
      </trkpt>
      <trkpt lat="40.250400" lon="-4.885133">
        <ele>1263.0</ele>
        <time>2015-06-06T12:45:46Z</time>
      </trkpt>
      <trkpt lat="40.250300" lon="-4.885317">
        <ele>1269.0</ele>
        <time>2015-06-06T12:45:48Z</time>
      </trkpt>
      <trkpt lat="40.250250" lon="-4.885517">
        <ele>1272.0</ele>
        <time>2015-06-06T12:45:50Z</time>
      </trkpt>
      <trkpt lat="40.250267" lon="-4.885733">
        <ele>1274.0</ele>
        <time>2015-06-06T12:45:52Z</time>
      </trkpt>
      <trkpt lat="40.250333" lon="-4.885917">
        <ele>1276.0</ele>
        <time>2015-06-06T12:45:54Z</time>
      </trkpt>
      <trkpt lat="40.250433" lon="-4.886033">
        <ele>1277.0</ele>
        <time>2015-06-06T12:45:56Z</time>
      </trkpt>
      <trkpt lat="40.250583" lon="-4.886083">
        <ele>1278.0</ele>
        <time>2015-06-06T12:45:58Z</time>
      </trkpt>
      <trkpt lat="40.250717" lon="-4.886017">
        <ele>1284.0</ele>
        <time>2015-06-06T12:46:00Z</time>
      </trkpt>
      <trkpt lat="40.250783" lon="-4.885883">
        <ele>1289.0</ele>
        <time>2015-06-06T12:46:02Z</time>
      </trkpt>
      <trkpt lat="40.250817" lon="-4.885717">
        <ele>1293.0</ele>
        <time>2015-06-06T12:46:04Z</time>
      </trkpt>
      <trkpt lat="40.250783" lon="-4.885533">
        <ele>1297.0</ele>
        <time>2015-06-06T12:46:06Z</time>
      </trkpt>
      <trkpt lat="40.250700" lon="-4.885367">
        <ele>1305.0</ele>
        <time>2015-06-06T12:46:08Z</time>
      </trkpt>
      <trkpt lat="40.250617" lon="-4.885250">
        <ele>1312.0</ele>
        <time>2015-06-06T12:46:10Z</time>
      </trkpt>
      <trkpt lat="40.250467" lon="-4.885200">
        <ele>1316.0</ele>
        <time>2015-06-06T12:46:12Z</time>
      </trkpt>
      <trkpt lat="40.250283" lon="-4.885250">
        <ele>1321.0</ele>
        <time>2015-06-06T12:46:14Z</time>
      </trkpt>
      <trkpt lat="40.250150" lon="-4.885400">
        <ele>1327.0</ele>
        <time>2015-06-06T12:46:16Z</time>
      </trkpt>
      <trkpt lat="40.250100" lon="-4.885567">
        <ele>1329.0</ele>
        <time>2015-06-06T12:46:18Z</time>
      </trkpt>
      <trkpt lat="40.250050" lon="-4.885817">
        <ele>1331.0</ele>
        <time>2015-06-06T12:46:20Z</time>
      </trkpt>
      <trkpt lat="40.250083" lon="-4.886017">
        <ele>1335.0</ele>
        <time>2015-06-06T12:46:22Z</time>
      </trkpt>
      <trkpt lat="40.250167" lon="-4.886183">
        <ele>1336.0</ele>
        <time>2015-06-06T12:46:24Z</time>
      </trkpt>
      <trkpt lat="40.250300" lon="-4.886317">
        <ele>1336.0</ele>
        <time>2015-06-06T12:46:26Z</time>
      </trkpt>
      <trkpt lat="40.250450" lon="-4.886383">
        <ele>1338.0</ele>
        <time>2015-06-06T12:46:28Z</time>
      </trkpt>
      <trkpt lat="40.250583" lon="-4.886350">
        <ele>1343.0</ele>
        <time>2015-06-06T12:46:30Z</time>
      </trkpt>
      <trkpt lat="40.250683" lon="-4.886283">
        <ele>1347.0</ele>
        <time>2015-06-06T12:46:32Z</time>
      </trkpt>
      <trkpt lat="40.250750" lon="-4.886133">
        <ele>1349.0</ele>
        <time>2015-06-06T12:46:34Z</time>
      </trkpt>
      <trkpt lat="40.250733" lon="-4.885917">
        <ele>1352.0</ele>
        <time>2015-06-06T12:46:36Z</time>
      </trkpt>
      <trkpt lat="40.250633" lon="-4.885733">
        <ele>1358.0</ele>
        <time>2015-06-06T12:46:38Z</time>
      </trkpt>
      <trkpt lat="40.250517" lon="-4.885617">
        <ele>1366.0</ele>
        <time>2015-06-06T12:46:40Z</time>
      </trkpt>
      <trkpt lat="40.250383" lon="-4.885567">
        <ele>1371.0</ele>
        <time>2015-06-06T12:46:42Z</time>
      </trkpt>
      <trkpt lat="40.250233" lon="-4.885500">
        <ele>1372.0</ele>
        <time>2015-06-06T12:46:44Z</time>
      </trkpt>
      <trkpt lat="40.250050" lon="-4.885583">
        <ele>1373.0</ele>
        <time>2015-06-06T12:46:46Z</time>
      </trkpt>
      <trkpt lat="40.249933" lon="-4.885750">
        <ele>1375.0</ele>
        <time>2015-06-06T12:46:48Z</time>
      </trkpt>
      <trkpt lat="40.249867" lon="-4.885967">
        <ele>1375.0</ele>
        <time>2015-06-06T12:46:50Z</time>
      </trkpt>
      <trkpt lat="40.249867" lon="-4.886250">
        <ele>1374.0</ele>
        <time>2015-06-06T12:46:52Z</time>
      </trkpt>
      <trkpt lat="40.249917" lon="-4.886467">
        <ele>1376.0</ele>
        <time>2015-06-06T12:46:54Z</time>
      </trkpt>
      <trkpt lat="40.249983" lon="-4.886617">
        <ele>1375.0</ele>
        <time>2015-06-06T12:46:56Z</time>
      </trkpt>
      <trkpt lat="40.250133" lon="-4.886767">
        <ele>1371.0</ele>
        <time>2015-06-06T12:46:58Z</time>
      </trkpt>
      <trkpt lat="40.250300" lon="-4.886883">
        <ele>1373.0</ele>
        <time>2015-06-06T12:47:00Z</time>
      </trkpt>
      <trkpt lat="40.250450" lon="-4.886917">
        <ele>1377.0</ele>
        <time>2015-06-06T12:47:02Z</time>
      </trkpt>
      <trkpt lat="40.250583" lon="-4.886883">
        <ele>1378.0</ele>
        <time>2015-06-06T12:47:04Z</time>
      </trkpt>
      <trkpt lat="40.250717" lon="-4.886783">
        <ele>1379.0</ele>
        <time>2015-06-06T12:47:06Z</time>
      </trkpt>
      <trkpt lat="40.250850" lon="-4.886633">
        <ele>1380.0</ele>
        <time>2015-06-06T12:47:08Z</time>
      </trkpt>
      <trkpt lat="40.250933" lon="-4.886400">
        <ele>1384.0</ele>
        <time>2015-06-06T12:47:10Z</time>
      </trkpt>
      <trkpt lat="40.250983" lon="-4.886200">
        <ele>1390.0</ele>
        <time>2015-06-06T12:47:12Z</time>
      </trkpt>
      <trkpt lat="40.250967" lon="-4.886000">
        <ele>1393.0</ele>
        <time>2015-06-06T12:47:14Z</time>
      </trkpt>
      <trkpt lat="40.250883" lon="-4.885850">
        <ele>1396.0</ele>
        <time>2015-06-06T12:47:16Z</time>
      </trkpt>
      <trkpt lat="40.250750" lon="-4.885783">
        <ele>1400.0</ele>
        <time>2015-06-06T12:47:18Z</time>
      </trkpt>
      <trkpt lat="40.250600" lon="-4.885800">
        <ele>1402.0</ele>
        <time>2015-06-06T12:47:20Z</time>
      </trkpt>
      <trkpt lat="40.250433" lon="-4.885917">
        <ele>1404.0</ele>
        <time>2015-06-06T12:47:22Z</time>
      </trkpt>
      <trkpt lat="40.250317" lon="-4.886133">
        <ele>1409.0</ele>
        <time>2015-06-06T12:47:24Z</time>
      </trkpt>
      <trkpt lat="40.250250" lon="-4.886333">
        <ele>1412.0</ele>
        <time>2015-06-06T12:47:26Z</time>
      </trkpt>
      <trkpt lat="40.250250" lon="-4.886600">
        <ele>1416.0</ele>
        <time>2015-06-06T12:47:28Z</time>
      </trkpt>
      <trkpt lat="40.250300" lon="-4.886817">
        <ele>1422.0</ele>
        <time>2015-06-06T12:47:30Z</time>
      </trkpt>
      <trkpt lat="40.250400" lon="-4.886950">
        <ele>1425.0</ele>
        <time>2015-06-06T12:47:32Z</time>
      </trkpt>
      <trkpt lat="40.250550" lon="-4.887067">
        <ele>1427.0</ele>
        <time>2015-06-06T12:47:34Z</time>
      </trkpt>
      <trkpt lat="40.250733" lon="-4.887083">
        <ele>1431.0</ele>
        <time>2015-06-06T12:47:36Z</time>
      </trkpt>
      <trkpt lat="40.250917" lon="-4.887017">
        <ele>1436.0</ele>
        <time>2015-06-06T12:47:38Z</time>
      </trkpt>
      <trkpt lat="40.251033" lon="-4.886917">
        <ele>1441.0</ele>
        <time>2015-06-06T12:47:40Z</time>
      </trkpt>
      <trkpt lat="40.251117" lon="-4.886733">
        <ele>1444.0</ele>
        <time>2015-06-06T12:47:42Z</time>
      </trkpt>
      <trkpt lat="40.251117" lon="-4.886517">
        <ele>1447.0</ele>
        <time>2015-06-06T12:47:44Z</time>
      </trkpt>
      <trkpt lat="40.251050" lon="-4.886400">
        <ele>1451.0</ele>
        <time>2015-06-06T12:47:46Z</time>
      </trkpt>
      <trkpt lat="40.250900" lon="-4.886367">
        <ele>1452.0</ele>
        <time>2015-06-06T12:47:48Z</time>
      </trkpt>
      <trkpt lat="40.250717" lon="-4.886417">
        <ele>1454.0</ele>
        <time>2015-06-06T12:47:50Z</time>
      </trkpt>
      <trkpt lat="40.250567" lon="-4.886550">
        <ele>1461.0</ele>
        <time>2015-06-06T12:47:52Z</time>
      </trkpt>
      <trkpt lat="40.250450" lon="-4.886667">
        <ele>1468.0</ele>
        <time>2015-06-06T12:47:54Z</time>
      </trkpt>
      <trkpt lat="40.250367" lon="-4.886883">
        <ele>1472.0</ele>
        <time>2015-06-06T12:47:56Z</time>
      </trkpt>
      <trkpt lat="40.250383" lon="-4.887183">
        <ele>1473.0</ele>
        <time>2015-06-06T12:47:58Z</time>
      </trkpt>
      <trkpt lat="40.250483" lon="-4.887417">
        <ele>1483.0</ele>
        <time>2015-06-06T12:48:00Z</time>
      </trkpt>
      <trkpt lat="40.250583" lon="-4.887567">
        <ele>1491.0</ele>
        <time>2015-06-06T12:48:02Z</time>
      </trkpt>
      <trkpt lat="40.250733" lon="-4.887650">
        <ele>1494.0</ele>
        <time>2015-06-06T12:48:04Z</time>
      </trkpt>
      <trkpt lat="40.250917" lon="-4.887617">
        <ele>1497.0</ele>
        <time>2015-06-06T12:48:06Z</time>
      </trkpt>
      <trkpt lat="40.251033" lon="-4.887467">
        <ele>1505.0</ele>
        <time>2015-06-06T12:48:08Z</time>
      </trkpt>
      <trkpt lat="40.251100" lon="-4.887333">
        <ele>1512.0</ele>
        <time>2015-06-06T12:48:10Z</time>
      </trkpt>
      <trkpt lat="40.251117" lon="-4.887133">
        <ele>1514.0</ele>
        <time>2015-06-06T12:48:12Z</time>
      </trkpt>
      <trkpt lat="40.251050" lon="-4.886933">
        <ele>1518.0</ele>
        <time>2015-06-06T12:48:14Z</time>
      </trkpt>
      <trkpt lat="40.250950" lon="-4.886783">
        <ele>1523.0</ele>
        <time>2015-06-06T12:48:16Z</time>
      </trkpt>
      <trkpt lat="40.250800" lon="-4.886700">
        <ele>1527.0</ele>
        <time>2015-06-06T12:48:18Z</time>
      </trkpt>
      <trkpt lat="40.250633" lon="-4.886750">
        <ele>1533.0</ele>
        <time>2015-06-06T12:48:20Z</time>
      </trkpt>
      <trkpt lat="40.250500" lon="-4.886917">
        <ele>1538.0</ele>
        <time>2015-06-06T12:48:22Z</time>
      </trkpt>
      <trkpt lat="40.250417" lon="-4.887150">
        <ele>1541.0</ele>
        <time>2015-06-06T12:48:24Z</time>
      </trkpt>
      <trkpt lat="40.250417" lon="-4.887400">
        <ele>1545.0</ele>
        <time>2015-06-06T12:48:26Z</time>
      </trkpt>
      <trkpt lat="40.250533" lon="-4.887633">
        <ele>1546.0</ele>
        <time>2015-06-06T12:48:28Z</time>
      </trkpt>
      <trkpt lat="40.250717" lon="-4.887833">
        <ele>1552.0</ele>
        <time>2015-06-06T12:48:30Z</time>
      </trkpt>
      <trkpt lat="40.250850" lon="-4.887983">
        <ele>1564.0</ele>
        <time>2015-06-06T12:48:32Z</time>
      </trkpt>
      <trkpt lat="40.250967" lon="-4.888067">
        <ele>1569.0</ele>
        <time>2015-06-06T12:48:34Z</time>
      </trkpt>
      <trkpt lat="40.251133" lon="-4.888117">
        <ele>1572.0</ele>
        <time>2015-06-06T12:48:36Z</time>
      </trkpt>
      <trkpt lat="40.251300" lon="-4.888033">
        <ele>1577.0</ele>
        <time>2015-06-06T12:48:38Z</time>
      </trkpt>
      <trkpt lat="40.251417" lon="-4.887867">
        <ele>1580.0</ele>
        <time>2015-06-06T12:48:40Z</time>
      </trkpt>
      <trkpt lat="40.251450" lon="-4.887633">
        <ele>1583.0</ele>
        <time>2015-06-06T12:48:42Z</time>
      </trkpt>
      <trkpt lat="40.251367" lon="-4.887433">
        <ele>1588.0</ele>
        <time>2015-06-06T12:48:44Z</time>
      </trkpt>
      <trkpt lat="40.251267" lon="-4.887300">
        <ele>1595.0</ele>
        <time>2015-06-06T12:48:46Z</time>
      </trkpt>
      <trkpt lat="40.251150" lon="-4.887217">
        <ele>1600.0</ele>
        <time>2015-06-06T12:48:48Z</time>
      </trkpt>
      <trkpt lat="40.250983" lon="-4.887200">
        <ele>1603.0</ele>
        <time>2015-06-06T12:48:50Z</time>
      </trkpt>
      <trkpt lat="40.250817" lon="-4.887300">
        <ele>1610.0</ele>
        <time>2015-06-06T12:48:52Z</time>
      </trkpt>
      <trkpt lat="40.250700" lon="-4.887450">
        <ele>1617.0</ele>
        <time>2015-06-06T12:48:54Z</time>
      </trkpt>
      <trkpt lat="40.250633" lon="-4.887667">
        <ele>1621.0</ele>
        <time>2015-06-06T12:48:56Z</time>
      </trkpt>
      <trkpt lat="40.250617" lon="-4.887917">
        <ele>1626.0</ele>
        <time>2015-06-06T12:48:58Z</time>
      </trkpt>
      <trkpt lat="40.250683" lon="-4.888133">
        <ele>1634.0</ele>
        <time>2015-06-06T12:49:00Z</time>
      </trkpt>
      <trkpt lat="40.250783" lon="-4.888267">
        <ele>1639.0</ele>
        <time>2015-06-06T12:49:02Z</time>
      </trkpt>
      <trkpt lat="40.250950" lon="-4.888400">
        <ele>1641.0</ele>
        <time>2015-06-06T12:49:04Z</time>
      </trkpt>
      <trkpt lat="40.251150" lon="-4.888450">
        <ele>1648.0</ele>
        <time>2015-06-06T12:49:06Z</time>
      </trkpt>
      <trkpt lat="40.251300" lon="-4.888417">
        <ele>1655.0</ele>
        <time>2015-06-06T12:49:08Z</time>
      </trkpt>
      <trkpt lat="40.251467" lon="-4.888350">
        <ele>1657.0</ele>
        <time>2015-06-06T12:49:10Z</time>
      </trkpt>
      <trkpt lat="40.251650" lon="-4.888217">
        <ele>1658.0</ele>
        <time>2015-06-06T12:49:12Z</time>
      </trkpt>
      <trkpt lat="40.251750" lon="-4.887983">
        <ele>1661.0</ele>
        <time>2015-06-06T12:49:14Z</time>
      </trkpt>
      <trkpt lat="40.251733" lon="-4.887767">
        <ele>1664.0</ele>
        <time>2015-06-06T12:49:16Z</time>
      </trkpt>
      <trkpt lat="40.251667" lon="-4.887567">
        <ele>1667.0</ele>
        <time>2015-06-06T12:49:18Z</time>
      </trkpt>
      <trkpt lat="40.251533" lon="-4.887417">
        <ele>1669.0</ele>
        <time>2015-06-06T12:49:20Z</time>
      </trkpt>
      <trkpt lat="40.251367" lon="-4.887333">
        <ele>1675.0</ele>
        <time>2015-06-06T12:49:22Z</time>
      </trkpt>
      <trkpt lat="40.251250" lon="-4.887283">
        <ele>1682.0</ele>
        <time>2015-06-06T12:49:24Z</time>
      </trkpt>
      <trkpt lat="40.251100" lon="-4.887333">
        <ele>1685.0</ele>
        <time>2015-06-06T12:49:26Z</time>
      </trkpt>
      <trkpt lat="40.250967" lon="-4.887500">
        <ele>1689.0</ele>
        <time>2015-06-06T12:49:28Z</time>
      </trkpt>
      <trkpt lat="40.250917" lon="-4.887717">
        <ele>1695.0</ele>
        <time>2015-06-06T12:49:30Z</time>
      </trkpt>
      <trkpt lat="40.250917" lon="-4.887967">
        <ele>1699.0</ele>
        <time>2015-06-06T12:49:32Z</time>
      </trkpt>
      <trkpt lat="40.251000" lon="-4.888200">
        <ele>1702.0</ele>
        <time>2015-06-06T12:49:34Z</time>
      </trkpt>
      <trkpt lat="40.251167" lon="-4.888400">
        <ele>1707.0</ele>
        <time>2015-06-06T12:49:36Z</time>
      </trkpt>
      <trkpt lat="40.251333" lon="-4.888500">
        <ele>1714.0</ele>
        <time>2015-06-06T12:49:38Z</time>
      </trkpt>
      <trkpt lat="40.251517" lon="-4.888483">
        <ele>1719.0</ele>
        <time>2015-06-06T12:49:40Z</time>
      </trkpt>
      <trkpt lat="40.251700" lon="-4.888383">
        <ele>1722.0</ele>
        <time>2015-06-06T12:49:42Z</time>
      </trkpt>
      <trkpt lat="40.251800" lon="-4.888217">
        <ele>1726.0</ele>
        <time>2015-06-06T12:49:44Z</time>
      </trkpt>
      <trkpt lat="40.251817" lon="-4.888017">
        <ele>1728.0</ele>
        <time>2015-06-06T12:49:46Z</time>
      </trkpt>
      <trkpt lat="40.251750" lon="-4.887817">
        <ele>1730.0</ele>
        <time>2015-06-06T12:49:48Z</time>
      </trkpt>
      <trkpt lat="40.251633" lon="-4.887683">
        <ele>1733.0</ele>
        <time>2015-06-06T12:49:50Z</time>
      </trkpt>
      <trkpt lat="40.251483" lon="-4.887617">
        <ele>1739.0</ele>
        <time>2015-06-06T12:49:52Z</time>
      </trkpt>
      <trkpt lat="40.251350" lon="-4.887633">
        <ele>1745.0</ele>
        <time>2015-06-06T12:49:54Z</time>
      </trkpt>
      <trkpt lat="40.251217" lon="-4.887733">
        <ele>1750.0</ele>
        <time>2015-06-06T12:49:56Z</time>
      </trkpt>
      <trkpt lat="40.251100" lon="-4.887867">
        <ele>1755.0</ele>
        <time>2015-06-06T12:49:58Z</time>
      </trkpt>
      <trkpt lat="40.251050" lon="-4.888117">
        <ele>1758.0</ele>
        <time>2015-06-06T12:50:00Z</time>
      </trkpt>
      <trkpt lat="40.251083" lon="-4.888383">
        <ele>1763.0</ele>
        <time>2015-06-06T12:50:02Z</time>
      </trkpt>
      <trkpt lat="40.251183" lon="-4.888600">
        <ele>1768.0</ele>
        <time>2015-06-06T12:50:04Z</time>
      </trkpt>
      <trkpt lat="40.251350" lon="-4.888767">
        <ele>1771.0</ele>
        <time>2015-06-06T12:50:06Z</time>
      </trkpt>
      <trkpt lat="40.251533" lon="-4.888817">
        <ele>1775.0</ele>
        <time>2015-06-06T12:50:08Z</time>
      </trkpt>
      <trkpt lat="40.251733" lon="-4.888783">
        <ele>1779.0</ele>
        <time>2015-06-06T12:50:10Z</time>
      </trkpt>
      <trkpt lat="40.251883" lon="-4.888650">
        <ele>1781.0</ele>
        <time>2015-06-06T12:50:12Z</time>
      </trkpt>
      <trkpt lat="40.251983" lon="-4.888433">
        <ele>1782.0</ele>
        <time>2015-06-06T12:50:14Z</time>
      </trkpt>
      <trkpt lat="40.252017" lon="-4.888200">
        <ele>1785.0</ele>
        <time>2015-06-06T12:50:16Z</time>
      </trkpt>
      <trkpt lat="40.251983" lon="-4.887983">
        <ele>1788.0</ele>
        <time>2015-06-06T12:50:18Z</time>
      </trkpt>
      <trkpt lat="40.251900" lon="-4.887833">
        <ele>1792.0</ele>
        <time>2015-06-06T12:50:20Z</time>
      </trkpt>
      <trkpt lat="40.251783" lon="-4.887750">
        <ele>1796.0</ele>
        <time>2015-06-06T12:50:22Z</time>
      </trkpt>
      <trkpt lat="40.251633" lon="-4.887767">
        <ele>1799.0</ele>
        <time>2015-06-06T12:50:24Z</time>
      </trkpt>
      <trkpt lat="40.251500" lon="-4.887883">
        <ele>1803.0</ele>
        <time>2015-06-06T12:50:26Z</time>
      </trkpt>
      <trkpt lat="40.251417" lon="-4.888100">
        <ele>1808.0</ele>
        <time>2015-06-06T12:50:28Z</time>
      </trkpt>
      <trkpt lat="40.251383" lon="-4.888317">
        <ele>1813.0</ele>
        <time>2015-06-06T12:50:30Z</time>
      </trkpt>
      <trkpt lat="40.251417" lon="-4.888550">
        <ele>1817.0</ele>
        <time>2015-06-06T12:50:32Z</time>
      </trkpt>
      <trkpt lat="40.251533" lon="-4.888767">
        <ele>1821.0</ele>
        <time>2015-06-06T12:50:34Z</time>
      </trkpt>
      <trkpt lat="40.251700" lon="-4.888883">
        <ele>1826.0</ele>
        <time>2015-06-06T12:50:36Z</time>
      </trkpt>
      <trkpt lat="40.251883" lon="-4.888950">
        <ele>1828.0</ele>
        <time>2015-06-06T12:50:38Z</time>
      </trkpt>
      <trkpt lat="40.252067" lon="-4.888917">
        <ele>1830.0</ele>
        <time>2015-06-06T12:50:40Z</time>
      </trkpt>
      <trkpt lat="40.252200" lon="-4.888767">
        <ele>1831.0</ele>
        <time>2015-06-06T12:50:42Z</time>
      </trkpt>
      <trkpt lat="40.252267" lon="-4.888550">
        <ele>1831.0</ele>
        <time>2015-06-06T12:50:44Z</time>
      </trkpt>
      <trkpt lat="40.252283" lon="-4.888317">
        <ele>1832.0</ele>
        <time>2015-06-06T12:50:46Z</time>
      </trkpt>
      <trkpt lat="40.252200" lon="-4.888117">
        <ele>1833.0</ele>
        <time>2015-06-06T12:50:48Z</time>
      </trkpt>
      <trkpt lat="40.252067" lon="-4.888017">
        <ele>1835.0</ele>
        <time>2015-06-06T12:50:50Z</time>
      </trkpt>
      <trkpt lat="40.251917" lon="-4.887967">
        <ele>1839.0</ele>
        <time>2015-06-06T12:50:52Z</time>
      </trkpt>
      <trkpt lat="40.251800" lon="-4.887983">
        <ele>1842.0</ele>
        <time>2015-06-06T12:50:54Z</time>
      </trkpt>
      <trkpt lat="40.251667" lon="-4.888067">
        <ele>1843.0</ele>
        <time>2015-06-06T12:50:56Z</time>
      </trkpt>
      <trkpt lat="40.251550" lon="-4.888250">
        <ele>1846.0</ele>
        <time>2015-06-06T12:50:58Z</time>
      </trkpt>
      <trkpt lat="40.251533" lon="-4.888467">
        <ele>1850.0</ele>
        <time>2015-06-06T12:51:00Z</time>
      </trkpt>
      <trkpt lat="40.251583" lon="-4.888683">
        <ele>1852.0</ele>
        <time>2015-06-06T12:51:02Z</time>
      </trkpt>
      <trkpt lat="40.251700" lon="-4.888883">
        <ele>1856.0</ele>
        <time>2015-06-06T12:51:04Z</time>
      </trkpt>
      <trkpt lat="40.251867" lon="-4.888983">
        <ele>1860.0</ele>
        <time>2015-06-06T12:51:06Z</time>
      </trkpt>
      <trkpt lat="40.252033" lon="-4.889000">
        <ele>1864.0</ele>
        <time>2015-06-06T12:51:08Z</time>
      </trkpt>
      <trkpt lat="40.252200" lon="-4.888950">
        <ele>1866.0</ele>
        <time>2015-06-06T12:51:10Z</time>
      </trkpt>
      <trkpt lat="40.252367" lon="-4.888817">
        <ele>1866.0</ele>
        <time>2015-06-06T12:51:12Z</time>
      </trkpt>
      <trkpt lat="40.252450" lon="-4.888600">
        <ele>1867.0</ele>
        <time>2015-06-06T12:51:14Z</time>
      </trkpt>
      <trkpt lat="40.252467" lon="-4.888383">
        <ele>1868.0</ele>
        <time>2015-06-06T12:51:16Z</time>
      </trkpt>
      <trkpt lat="40.252433" lon="-4.888167">
        <ele>1869.0</ele>
        <time>2015-06-06T12:51:18Z</time>
      </trkpt>
      <trkpt lat="40.252333" lon="-4.887983">
        <ele>1870.0</ele>
        <time>2015-06-06T12:51:20Z</time>
      </trkpt>
      <trkpt lat="40.252200" lon="-4.887850">
        <ele>1872.0</ele>
        <time>2015-06-06T12:51:22Z</time>
      </trkpt>
      <trkpt lat="40.252050" lon="-4.887800">
        <ele>1874.0</ele>
        <time>2015-06-06T12:51:24Z</time>
      </trkpt>
      <trkpt lat="40.251900" lon="-4.887833">
        <ele>1876.0</ele>
        <time>2015-06-06T12:51:26Z</time>
      </trkpt>
      <trkpt lat="40.251783" lon="-4.887983">
        <ele>1879.0</ele>
        <time>2015-06-06T12:51:28Z</time>
      </trkpt>
      <trkpt lat="40.251717" lon="-4.888183">
        <ele>1880.0</ele>
        <time>2015-06-06T12:51:30Z</time>
      </trkpt>
      <trkpt lat="40.251733" lon="-4.888433">
        <ele>1883.0</ele>
        <time>2015-06-06T12:51:32Z</time>
      </trkpt>
      <trkpt lat="40.251800" lon="-4.888683">
        <ele>1887.0</ele>
        <time>2015-06-06T12:51:34Z</time>
      </trkpt>
      <trkpt lat="40.251850" lon="-4.888917">
        <ele>1891.0</ele>
        <time>2015-06-06T12:51:36Z</time>
      </trkpt>
      <trkpt lat="40.251967" lon="-4.889133">
        <ele>1894.0</ele>
        <time>2015-06-06T12:51:38Z</time>
      </trkpt>
      <trkpt lat="40.252117" lon="-4.889317">
        <ele>1898.0</ele>
        <time>2015-06-06T12:51:40Z</time>
      </trkpt>
      <trkpt lat="40.252300" lon="-4.889433">
        <ele>1902.0</ele>
        <time>2015-06-06T12:51:42Z</time>
      </trkpt>
      <trkpt lat="40.252517" lon="-4.889433">
        <ele>1906.0</ele>
        <time>2015-06-06T12:51:44Z</time>
      </trkpt>
      <trkpt lat="40.252683" lon="-4.889350">
        <ele>1909.0</ele>
        <time>2015-06-06T12:51:46Z</time>
      </trkpt>
      <trkpt lat="40.252800" lon="-4.889183">
        <ele>1911.0</ele>
        <time>2015-06-06T12:51:48Z</time>
      </trkpt>
      <trkpt lat="40.252850" lon="-4.888950">
        <ele>1911.0</ele>
        <time>2015-06-06T12:51:50Z</time>
      </trkpt>
      <trkpt lat="40.252833" lon="-4.888717">
        <ele>1912.0</ele>
        <time>2015-06-06T12:51:52Z</time>
      </trkpt>
      <trkpt lat="40.252733" lon="-4.888533">
        <ele>1912.0</ele>
        <time>2015-06-06T12:51:54Z</time>
      </trkpt>
      <trkpt lat="40.252583" lon="-4.888433">
        <ele>1913.0</ele>
        <time>2015-06-06T12:51:56Z</time>
      </trkpt>
      <trkpt lat="40.252433" lon="-4.888383">
        <ele>1914.0</ele>
        <time>2015-06-06T12:51:58Z</time>
      </trkpt>
      <trkpt lat="40.252267" lon="-4.888400">
        <ele>1917.0</ele>
        <time>2015-06-06T12:52:00Z</time>
      </trkpt>
      <trkpt lat="40.252133" lon="-4.888500">
        <ele>1919.0</ele>
        <time>2015-06-06T12:52:02Z</time>
      </trkpt>
      <trkpt lat="40.252017" lon="-4.888667">
        <ele>1920.0</ele>
        <time>2015-06-06T12:52:04Z</time>
      </trkpt>
      <trkpt lat="40.251933" lon="-4.888867">
        <ele>1923.0</ele>
        <time>2015-06-06T12:52:06Z</time>
      </trkpt>
      <trkpt lat="40.251867" lon="-4.889067">
        <ele>1927.0</ele>
        <time>2015-06-06T12:52:08Z</time>
      </trkpt>
      <trkpt lat="40.251833" lon="-4.889300">
        <ele>1930.0</ele>
        <time>2015-06-06T12:52:10Z</time>
      </trkpt>
      <trkpt lat="40.251783" lon="-4.889567">
        <ele>1935.0</ele>
        <time>2015-06-06T12:52:12Z</time>
      </trkpt>
      <trkpt lat="40.251817" lon="-4.889817">
        <ele>1942.0</ele>
        <time>2015-06-06T12:52:14Z</time>
      </trkpt>
      <trkpt lat="40.251917" lon="-4.890033">
        <ele>1947.0</ele>
        <time>2015-06-06T12:52:16Z</time>
      </trkpt>
      <trkpt lat="40.252100" lon="-4.890233">
        <ele>1949.0</ele>
        <time>2015-06-06T12:52:18Z</time>
      </trkpt>
      <trkpt lat="40.252300" lon="-4.890300">
        <ele>1956.0</ele>
        <time>2015-06-06T12:52:20Z</time>
      </trkpt>
      <trkpt lat="40.252433" lon="-4.890283">
        <ele>1960.0</ele>
        <time>2015-06-06T12:52:22Z</time>
      </trkpt>
      <trkpt lat="40.252600" lon="-4.890217">
        <ele>1962.0</ele>
        <time>2015-06-06T12:52:24Z</time>
      </trkpt>
      <trkpt lat="40.252750" lon="-4.890050">
        <ele>1963.0</ele>
        <time>2015-06-06T12:52:26Z</time>
      </trkpt>
      <trkpt lat="40.252817" lon="-4.889833">
        <ele>1967.0</ele>
        <time>2015-06-06T12:52:28Z</time>
      </trkpt>
      <trkpt lat="40.252817" lon="-4.889633">
        <ele>1971.0</ele>
        <time>2015-06-06T12:52:30Z</time>
      </trkpt>
      <trkpt lat="40.252750" lon="-4.889450">
        <ele>1973.0</ele>
        <time>2015-06-06T12:52:32Z</time>
      </trkpt>
      <trkpt lat="40.252600" lon="-4.889283">
        <ele>1977.0</ele>
        <time>2015-06-06T12:52:34Z</time>
      </trkpt>
      <trkpt lat="40.252433" lon="-4.889250">
        <ele>1984.0</ele>
        <time>2015-06-06T12:52:36Z</time>
      </trkpt>
      <trkpt lat="40.252300" lon="-4.889317">
        <ele>1987.0</ele>
        <time>2015-06-06T12:52:38Z</time>
      </trkpt>
      <trkpt lat="40.252150" lon="-4.889467">
        <ele>1987.0</ele>
        <time>2015-06-06T12:52:40Z</time>
      </trkpt>
      <trkpt lat="40.252033" lon="-4.889700">
        <ele>1991.0</ele>
        <time>2015-06-06T12:52:42Z</time>
      </trkpt>
      <trkpt lat="40.251950" lon="-4.889950">
        <ele>1996.0</ele>
        <time>2015-06-06T12:52:44Z</time>
      </trkpt>
      <trkpt lat="40.251867" lon="-4.890200">
        <ele>2001.0</ele>
        <time>2015-06-06T12:52:46Z</time>
      </trkpt>
      <trkpt lat="40.251867" lon="-4.890467">
        <ele>2004.0</ele>
        <time>2015-06-06T12:52:48Z</time>
      </trkpt>
      <trkpt lat="40.251883" lon="-4.890600">
        <ele>2004.0</ele>
        <time>2015-06-06T12:52:50Z</time>
      </trkpt>
      <trkpt lat="40.251900" lon="-4.890800">
        <ele>2000.0</ele>
        <time>2015-06-06T12:52:52Z</time>
      </trkpt>
      <trkpt lat="40.251867" lon="-4.891083">
        <ele>2004.0</ele>
        <time>2015-06-06T12:52:54Z</time>
      </trkpt>
      <trkpt lat="40.251800" lon="-4.891250">
        <ele>2010.0</ele>
        <time>2015-06-06T12:52:56Z</time>
      </trkpt>
      <trkpt lat="40.251717" lon="-4.891350">
        <ele>2010.0</ele>
        <time>2015-06-06T12:52:58Z</time>
      </trkpt>
      <trkpt lat="40.251633" lon="-4.891517">
        <ele>2009.0</ele>
        <time>2015-06-06T12:53:00Z</time>
      </trkpt>
      <trkpt lat="40.251533" lon="-4.891733">
        <ele>2009.0</ele>
        <time>2015-06-06T12:53:02Z</time>
      </trkpt>
      <trkpt lat="40.251383" lon="-4.891917">
        <ele>2011.0</ele>
        <time>2015-06-06T12:53:04Z</time>
      </trkpt>
      <trkpt lat="40.251217" lon="-4.892050">
        <ele>2014.0</ele>
        <time>2015-06-06T12:53:06Z</time>
      </trkpt>
      <trkpt lat="40.251100" lon="-4.892250">
        <ele>2015.0</ele>
        <time>2015-06-06T12:53:08Z</time>
      </trkpt>
      <trkpt lat="40.251050" lon="-4.892517">
        <ele>2017.0</ele>
        <time>2015-06-06T12:53:10Z</time>
      </trkpt>
      <trkpt lat="40.250967" lon="-4.892783">
        <ele>2020.0</ele>
        <time>2015-06-06T12:53:12Z</time>
      </trkpt>
      <trkpt lat="40.250850" lon="-4.893000">
        <ele>2029.0</ele>
        <time>2015-06-06T12:53:14Z</time>
      </trkpt>
      <trkpt lat="40.250833" lon="-4.893200">
        <ele>2036.0</ele>
        <time>2015-06-06T12:53:16Z</time>
      </trkpt>
      <trkpt lat="40.250933" lon="-4.893400">
        <ele>2041.0</ele>
        <time>2015-06-06T12:53:18Z</time>
      </trkpt>
      <trkpt lat="40.251133" lon="-4.893433">
        <ele>2045.0</ele>
        <time>2015-06-06T12:53:20Z</time>
      </trkpt>
      <trkpt lat="40.251267" lon="-4.893250">
        <ele>2053.0</ele>
        <time>2015-06-06T12:53:22Z</time>
      </trkpt>
      <trkpt lat="40.251350" lon="-4.893133">
        <ele>2060.0</ele>
        <time>2015-06-06T12:53:24Z</time>
      </trkpt>
      <trkpt lat="40.251433" lon="-4.893017">
        <ele>2058.0</ele>
        <time>2015-06-06T12:53:26Z</time>
      </trkpt>
      <trkpt lat="40.251517" lon="-4.892800">
        <ele>2057.0</ele>
        <time>2015-06-06T12:53:28Z</time>
      </trkpt>
      <trkpt lat="40.251517" lon="-4.892567">
        <ele>2060.0</ele>
        <time>2015-06-06T12:53:30Z</time>
      </trkpt>
      <trkpt lat="40.251383" lon="-4.892400">
        <ele>2064.0</ele>
        <time>2015-06-06T12:53:32Z</time>
      </trkpt>
      <trkpt lat="40.251217" lon="-4.892317">
        <ele>2068.0</ele>
        <time>2015-06-06T12:53:34Z</time>
      </trkpt>
      <trkpt lat="40.251050" lon="-4.892333">
        <ele>2069.0</ele>
        <time>2015-06-06T12:53:36Z</time>
      </trkpt>
      <trkpt lat="40.250817" lon="-4.892400">
        <ele>2071.0</ele>
        <time>2015-06-06T12:53:38Z</time>
      </trkpt>
      <trkpt lat="40.250617" lon="-4.892450">
        <ele>2079.0</ele>
        <time>2015-06-06T12:53:40Z</time>
      </trkpt>
      <trkpt lat="40.250433" lon="-4.892533">
        <ele>2086.0</ele>
        <time>2015-06-06T12:53:42Z</time>
      </trkpt>
      <trkpt lat="40.250250" lon="-4.892667">
        <ele>2092.0</ele>
        <time>2015-06-06T12:53:44Z</time>
      </trkpt>
      <trkpt lat="40.250117" lon="-4.892833">
        <ele>2099.0</ele>
        <time>2015-06-06T12:53:46Z</time>
      </trkpt>
      <trkpt lat="40.250050" lon="-4.893100">
        <ele>2103.0</ele>
        <time>2015-06-06T12:53:48Z</time>
      </trkpt>
      <trkpt lat="40.250067" lon="-4.893383">
        <ele>2108.0</ele>
        <time>2015-06-06T12:53:50Z</time>
      </trkpt>
      <trkpt lat="40.250167" lon="-4.893583">
        <ele>2112.0</ele>
        <time>2015-06-06T12:53:52Z</time>
      </trkpt>
      <trkpt lat="40.250333" lon="-4.893717">
        <ele>2115.0</ele>
        <time>2015-06-06T12:53:54Z</time>
      </trkpt>
      <trkpt lat="40.250500" lon="-4.893683">
        <ele>2120.0</ele>
        <time>2015-06-06T12:53:56Z</time>
      </trkpt>
      <trkpt lat="40.250583" lon="-4.893567">
        <ele>2126.0</ele>
        <time>2015-06-06T12:53:58Z</time>
      </trkpt>
      <trkpt lat="40.250633" lon="-4.893433">
        <ele>2129.0</ele>
        <time>2015-06-06T12:54:00Z</time>
      </trkpt>
      <trkpt lat="40.250600" lon="-4.893233">
        <ele>2131.0</ele>
        <time>2015-06-06T12:54:02Z</time>
      </trkpt>
      <trkpt lat="40.250467" lon="-4.893100">
        <ele>2135.0</ele>
        <time>2015-06-06T12:54:04Z</time>
      </trkpt>
      <trkpt lat="40.250300" lon="-4.893083">
        <ele>2141.0</ele>
        <time>2015-06-06T12:54:06Z</time>
      </trkpt>
      <trkpt lat="40.250117" lon="-4.893150">
        <ele>2144.0</ele>
        <time>2015-06-06T12:54:08Z</time>
      </trkpt>
      <trkpt lat="40.249933" lon="-4.893317">
        <ele>2148.0</ele>
        <time>2015-06-06T12:54:10Z</time>
      </trkpt>
      <trkpt lat="40.249817" lon="-4.893567">
        <ele>2156.0</ele>
        <time>2015-06-06T12:54:12Z</time>
      </trkpt>
      <trkpt lat="40.249767" lon="-4.893800">
        <ele>2161.0</ele>
        <time>2015-06-06T12:54:14Z</time>
      </trkpt>
      <trkpt lat="40.249783" lon="-4.894083">
        <ele>2164.0</ele>
        <time>2015-06-06T12:54:16Z</time>
      </trkpt>
      <trkpt lat="40.249883" lon="-4.894317">
        <ele>2169.0</ele>
        <time>2015-06-06T12:54:18Z</time>
      </trkpt>
      <trkpt lat="40.250017" lon="-4.894450">
        <ele>2174.0</ele>
        <time>2015-06-06T12:54:20Z</time>
      </trkpt>
      <trkpt lat="40.250183" lon="-4.894517">
        <ele>2176.0</ele>
        <time>2015-06-06T12:54:22Z</time>
      </trkpt>
      <trkpt lat="40.250350" lon="-4.894483">
        <ele>2177.0</ele>
        <time>2015-06-06T12:54:24Z</time>
      </trkpt>
      <trkpt lat="40.250450" lon="-4.894350">
        <ele>2180.0</ele>
        <time>2015-06-06T12:54:26Z</time>
      </trkpt>
      <trkpt lat="40.250450" lon="-4.894167">
        <ele>2184.0</ele>
        <time>2015-06-06T12:54:28Z</time>
      </trkpt>
      <trkpt lat="40.250417" lon="-4.894017">
        <ele>2187.0</ele>
        <time>2015-06-06T12:54:30Z</time>
      </trkpt>
      <trkpt lat="40.250317" lon="-4.893867">
        <ele>2190.0</ele>
        <time>2015-06-06T12:54:32Z</time>
      </trkpt>
      <trkpt lat="40.250150" lon="-4.893767">
        <ele>2193.0</ele>
        <time>2015-06-06T12:54:34Z</time>
      </trkpt>
      <trkpt lat="40.249983" lon="-4.893717">
        <ele>2199.0</ele>
        <time>2015-06-06T12:54:36Z</time>
      </trkpt>
      <trkpt lat="40.249817" lon="-4.893733">
        <ele>2202.0</ele>
        <time>2015-06-06T12:54:38Z</time>
      </trkpt>
      <trkpt lat="40.249617" lon="-4.893867">
        <ele>2203.0</ele>
        <time>2015-06-06T12:54:40Z</time>
      </trkpt>
      <trkpt lat="40.249483" lon="-4.894033">
        <ele>2210.0</ele>
        <time>2015-06-06T12:54:42Z</time>
      </trkpt>
      <trkpt lat="40.249417" lon="-4.894217">
        <ele>2214.0</ele>
        <time>2015-06-06T12:54:44Z</time>
      </trkpt>
      <trkpt lat="40.249367" lon="-4.894483">
        <ele>2213.0</ele>
        <time>2015-06-06T12:54:46Z</time>
      </trkpt>
      <trkpt lat="40.249383" lon="-4.894817">
        <ele>2216.0</ele>
        <time>2015-06-06T12:54:48Z</time>
      </trkpt>
      <trkpt lat="40.249400" lon="-4.895067">
        <ele>2223.0</ele>
        <time>2015-06-06T12:54:50Z</time>
      </trkpt>
      <trkpt lat="40.249450" lon="-4.895283">
        <ele>2227.0</ele>
        <time>2015-06-06T12:54:52Z</time>
      </trkpt>
      <trkpt lat="40.249550" lon="-4.895450">
        <ele>2230.0</ele>
        <time>2015-06-06T12:54:54Z</time>
      </trkpt>
      <trkpt lat="40.249733" lon="-4.895500">
        <ele>2233.0</ele>
        <time>2015-06-06T12:54:56Z</time>
      </trkpt>
      <trkpt lat="40.249917" lon="-4.895467">
        <ele>2241.0</ele>
        <time>2015-06-06T12:54:58Z</time>
      </trkpt>
      <trkpt lat="40.250017" lon="-4.895383">
        <ele>2246.0</ele>
        <time>2015-06-06T12:55:00Z</time>
      </trkpt>
      <trkpt lat="40.250100" lon="-4.895250">
        <ele>2248.0</ele>
        <time>2015-06-06T12:55:02Z</time>
      </trkpt>
      <trkpt lat="40.250133" lon="-4.895067">
        <ele>2250.0</ele>
        <time>2015-06-06T12:55:04Z</time>
      </trkpt>
      <trkpt lat="40.250050" lon="-4.894900">
        <ele>2252.0</ele>
        <time>2015-06-06T12:55:06Z</time>
      </trkpt>
      <trkpt lat="40.249867" lon="-4.894833">
        <ele>2255.0</ele>
        <time>2015-06-06T12:55:08Z</time>
      </trkpt>
      <trkpt lat="40.249683" lon="-4.894833">
        <ele>2261.0</ele>
        <time>2015-06-06T12:55:10Z</time>
      </trkpt>
      <trkpt lat="40.249533" lon="-4.894917">
        <ele>2265.0</ele>
        <time>2015-06-06T12:55:12Z</time>
      </trkpt>
      <trkpt lat="40.249383" lon="-4.895100">
        <ele>2266.0</ele>
        <time>2015-06-06T12:55:14Z</time>
      </trkpt>
      <trkpt lat="40.249283" lon="-4.895367">
        <ele>2266.0</ele>
        <time>2015-06-06T12:55:16Z</time>
      </trkpt>
      <trkpt lat="40.249233" lon="-4.895667">
        <ele>2270.0</ele>
        <time>2015-06-06T12:55:18Z</time>
      </trkpt>
      <trkpt lat="40.249217" lon="-4.895933">
        <ele>2274.0</ele>
        <time>2015-06-06T12:55:20Z</time>
      </trkpt>
      <trkpt lat="40.249317" lon="-4.896167">
        <ele>2278.0</ele>
        <time>2015-06-06T12:55:22Z</time>
      </trkpt>
      <trkpt lat="40.249467" lon="-4.896300">
        <ele>2282.0</ele>
        <time>2015-06-06T12:55:24Z</time>
      </trkpt>
      <trkpt lat="40.249650" lon="-4.896333">
        <ele>2286.0</ele>
        <time>2015-06-06T12:55:26Z</time>
      </trkpt>
      <trkpt lat="40.249800" lon="-4.896217">
        <ele>2291.0</ele>
        <time>2015-06-06T12:55:28Z</time>
      </trkpt>
      <trkpt lat="40.249867" lon="-4.896067">
        <ele>2296.0</ele>
        <time>2015-06-06T12:55:30Z</time>
      </trkpt>
      <trkpt lat="40.249867" lon="-4.895900">
        <ele>2298.0</ele>
        <time>2015-06-06T12:55:32Z</time>
      </trkpt>
      <trkpt lat="40.249800" lon="-4.895733">
        <ele>2299.0</ele>
        <time>2015-06-06T12:55:34Z</time>
      </trkpt>
      <trkpt lat="40.249700" lon="-4.895600">
        <ele>2300.0</ele>
        <time>2015-06-06T12:55:36Z</time>
      </trkpt>
      <trkpt lat="40.249533" lon="-4.895517">
        <ele>2300.0</ele>
        <time>2015-06-06T12:55:38Z</time>
      </trkpt>
      <trkpt lat="40.249333" lon="-4.895483">
        <ele>2304.0</ele>
        <time>2015-06-06T12:55:40Z</time>
      </trkpt>
      <trkpt lat="40.249183" lon="-4.895533">
        <ele>2310.0</ele>
        <time>2015-06-06T12:55:42Z</time>
      </trkpt>
      <trkpt lat="40.249033" lon="-4.895633">
        <ele>2312.0</ele>
        <time>2015-06-06T12:55:44Z</time>
      </trkpt>
      <trkpt lat="40.248867" lon="-4.895817">
        <ele>2312.0</ele>
        <time>2015-06-06T12:55:46Z</time>
      </trkpt>
      <trkpt lat="40.248750" lon="-4.896050">
        <ele>2315.0</ele>
        <time>2015-06-06T12:55:48Z</time>
      </trkpt>
      <trkpt lat="40.248683" lon="-4.896300">
        <ele>2315.0</ele>
        <time>2015-06-06T12:55:50Z</time>
      </trkpt>
      <trkpt lat="40.248717" lon="-4.896583">
        <ele>2314.0</ele>
        <time>2015-06-06T12:55:52Z</time>
      </trkpt>
      <trkpt lat="40.248817" lon="-4.896817">
        <ele>2315.0</ele>
        <time>2015-06-06T12:55:54Z</time>
      </trkpt>
      <trkpt lat="40.248950" lon="-4.896983">
        <ele>2314.0</ele>
        <time>2015-06-06T12:55:56Z</time>
      </trkpt>
      <trkpt lat="40.249167" lon="-4.897050">
        <ele>2313.0</ele>
        <time>2015-06-06T12:55:58Z</time>
      </trkpt>
      <trkpt lat="40.249350" lon="-4.897017">
        <ele>2318.0</ele>
        <time>2015-06-06T12:56:00Z</time>
      </trkpt>
      <trkpt lat="40.249483" lon="-4.896950">
        <ele>2323.0</ele>
        <time>2015-06-06T12:56:02Z</time>
      </trkpt>
      <trkpt lat="40.249600" lon="-4.896850">
        <ele>2328.0</ele>
        <time>2015-06-06T12:56:04Z</time>
      </trkpt>
      <trkpt lat="40.249617" lon="-4.896683">
        <ele>2330.0</ele>
        <time>2015-06-06T12:56:06Z</time>
      </trkpt>
      <trkpt lat="40.249533" lon="-4.896500">
        <ele>2334.0</ele>
        <time>2015-06-06T12:56:08Z</time>
      </trkpt>
      <trkpt lat="40.249417" lon="-4.896400">
        <ele>2339.0</ele>
        <time>2015-06-06T12:56:10Z</time>
      </trkpt>
      <trkpt lat="40.249250" lon="-4.896367">
        <ele>2341.0</ele>
        <time>2015-06-06T12:56:12Z</time>
      </trkpt>
      <trkpt lat="40.249050" lon="-4.896400">
        <ele>2344.0</ele>
        <time>2015-06-06T12:56:14Z</time>
      </trkpt>
      <trkpt lat="40.248883" lon="-4.896550">
        <ele>2348.0</ele>
        <time>2015-06-06T12:56:16Z</time>
      </trkpt>
      <trkpt lat="40.248767" lon="-4.896750">
        <ele>2353.0</ele>
        <time>2015-06-06T12:56:18Z</time>
      </trkpt>
      <trkpt lat="40.248700" lon="-4.896967">
        <ele>2354.0</ele>
        <time>2015-06-06T12:56:20Z</time>
      </trkpt>
      <trkpt lat="40.248717" lon="-4.897250">
        <ele>2351.0</ele>
        <time>2015-06-06T12:56:22Z</time>
      </trkpt>
      <trkpt lat="40.248817" lon="-4.897533">
        <ele>2351.0</ele>
        <time>2015-06-06T12:56:24Z</time>
      </trkpt>
      <trkpt lat="40.248933" lon="-4.897700">
        <ele>2352.0</ele>
        <time>2015-06-06T12:56:26Z</time>
      </trkpt>
      <trkpt lat="40.249117" lon="-4.897800">
        <ele>2350.0</ele>
        <time>2015-06-06T12:56:28Z</time>
      </trkpt>
      <trkpt lat="40.249300" lon="-4.897833">
        <ele>2353.0</ele>
        <time>2015-06-06T12:56:30Z</time>
      </trkpt>
      <trkpt lat="40.249450" lon="-4.897833">
        <ele>2360.0</ele>
        <time>2015-06-06T12:56:32Z</time>
      </trkpt>
      <trkpt lat="40.249567" lon="-4.897783">
        <ele>2362.0</ele>
        <time>2015-06-06T12:56:34Z</time>
      </trkpt>
      <trkpt lat="40.249667" lon="-4.897633">
        <ele>2361.0</ele>
        <time>2015-06-06T12:56:36Z</time>
      </trkpt>
      <trkpt lat="40.249717" lon="-4.897400">
        <ele>2364.0</ele>
        <time>2015-06-06T12:56:38Z</time>
      </trkpt>
      <trkpt lat="40.249717" lon="-4.897233">
        <ele>2372.0</ele>
        <time>2015-06-06T12:56:40Z</time>
      </trkpt>
      <trkpt lat="40.249667" lon="-4.897100">
        <ele>2376.0</ele>
        <time>2015-06-06T12:56:42Z</time>
      </trkpt>
      <trkpt lat="40.249533" lon="-4.896950">
        <ele>2378.0</ele>
        <time>2015-06-06T12:56:44Z</time>
      </trkpt>
      <trkpt lat="40.249350" lon="-4.896933">
        <ele>2382.0</ele>
        <time>2015-06-06T12:56:46Z</time>
      </trkpt>
      <trkpt lat="40.249167" lon="-4.897033">
        <ele>2384.0</ele>
        <time>2015-06-06T12:56:48Z</time>
      </trkpt>
      <trkpt lat="40.249017" lon="-4.897183">
        <ele>2384.0</ele>
        <time>2015-06-06T12:56:50Z</time>
      </trkpt>
      <trkpt lat="40.248850" lon="-4.897417">
        <ele>2387.0</ele>
        <time>2015-06-06T12:56:52Z</time>
      </trkpt>
      <trkpt lat="40.248733" lon="-4.897617">
        <ele>2393.0</ele>
        <time>2015-06-06T12:56:54Z</time>
      </trkpt>
      <trkpt lat="40.248667" lon="-4.897817">
        <ele>2395.0</ele>
        <time>2015-06-06T12:56:56Z</time>
      </trkpt>
      <trkpt lat="40.248667" lon="-4.898117">
        <ele>2392.0</ele>
        <time>2015-06-06T12:56:58Z</time>
      </trkpt>
      <trkpt lat="40.248700" lon="-4.898433">
        <ele>2393.0</ele>
        <time>2015-06-06T12:57:00Z</time>
      </trkpt>
      <trkpt lat="40.248683" lon="-4.898717">
        <ele>2394.0</ele>
        <time>2015-06-06T12:57:02Z</time>
      </trkpt>
      <trkpt lat="40.248600" lon="-4.899000">
        <ele>2395.0</ele>
        <time>2015-06-06T12:57:04Z</time>
      </trkpt>
      <trkpt lat="40.248517" lon="-4.899250">
        <ele>2400.0</ele>
        <time>2015-06-06T12:57:06Z</time>
      </trkpt>
      <trkpt lat="40.248400" lon="-4.899400">
        <ele>2405.0</ele>
        <time>2015-06-06T12:57:08Z</time>
      </trkpt>
      <trkpt lat="40.248233" lon="-4.899583">
        <ele>2408.0</ele>
        <time>2015-06-06T12:57:10Z</time>
      </trkpt>
      <trkpt lat="40.248167" lon="-4.899850">
        <ele>2413.0</ele>
        <time>2015-06-06T12:57:12Z</time>
      </trkpt>
      <trkpt lat="40.248200" lon="-4.900133">
        <ele>2425.0</ele>
        <time>2015-06-06T12:57:14Z</time>
      </trkpt>
      <trkpt lat="40.248217" lon="-4.900333">
        <ele>2435.0</ele>
        <time>2015-06-06T12:57:16Z</time>
      </trkpt>
      <trkpt lat="40.248300" lon="-4.900550">
        <ele>2440.0</ele>
        <time>2015-06-06T12:57:18Z</time>
      </trkpt>
      <trkpt lat="40.248483" lon="-4.900717">
        <ele>2446.0</ele>
        <time>2015-06-06T12:57:20Z</time>
      </trkpt>
      <trkpt lat="40.248667" lon="-4.900683">
        <ele>2452.0</ele>
        <time>2015-06-06T12:57:22Z</time>
      </trkpt>
      <trkpt lat="40.248783" lon="-4.900550">
        <ele>2461.0</ele>
        <time>2015-06-06T12:57:24Z</time>
      </trkpt>
      <trkpt lat="40.248833" lon="-4.900383">
        <ele>2466.0</ele>
        <time>2015-06-06T12:57:26Z</time>
      </trkpt>
      <trkpt lat="40.248783" lon="-4.900167">
        <ele>2470.0</ele>
        <time>2015-06-06T12:57:28Z</time>
      </trkpt>
      <trkpt lat="40.248633" lon="-4.900017">
        <ele>2476.0</ele>
        <time>2015-06-06T12:57:30Z</time>
      </trkpt>
      <trkpt lat="40.248483" lon="-4.899950">
        <ele>2485.0</ele>
        <time>2015-06-06T12:57:32Z</time>
      </trkpt>
      <trkpt lat="40.248317" lon="-4.899967">
        <ele>2489.0</ele>
        <time>2015-06-06T12:57:34Z</time>
      </trkpt>
      <trkpt lat="40.248117" lon="-4.900133">
        <ele>2493.0</ele>
        <time>2015-06-06T12:57:36Z</time>
      </trkpt>
      <trkpt lat="40.248033" lon="-4.900333">
        <ele>2505.0</ele>
        <time>2015-06-06T12:57:38Z</time>
      </trkpt>
      <trkpt lat="40.248000" lon="-4.900533">
        <ele>2513.0</ele>
        <time>2015-06-06T12:57:40Z</time>
      </trkpt>
      <trkpt lat="40.248000" lon="-4.900817">
        <ele>2520.0</ele>
        <time>2015-06-06T12:57:42Z</time>
      </trkpt>
      <trkpt lat="40.248083" lon="-4.901067">
        <ele>2532.0</ele>
        <time>2015-06-06T12:57:44Z</time>
      </trkpt>
      <trkpt lat="40.248200" lon="-4.901233">
        <ele>2544.0</ele>
        <time>2015-06-06T12:57:46Z</time>
      </trkpt>
      <trkpt lat="40.248383" lon="-4.901367">
        <ele>2552.0</ele>
        <time>2015-06-06T12:57:48Z</time>
      </trkpt>
      <trkpt lat="40.248567" lon="-4.901367">
        <ele>2561.0</ele>
        <time>2015-06-06T12:57:50Z</time>
      </trkpt>
      <trkpt lat="40.248700" lon="-4.901267">
        <ele>2568.0</ele>
        <time>2015-06-06T12:57:52Z</time>
      </trkpt>
      <trkpt lat="40.248767" lon="-4.901100">
        <ele>2572.0</ele>
        <time>2015-06-06T12:57:54Z</time>
      </trkpt>
      <trkpt lat="40.248750" lon="-4.900867">
        <ele>2575.0</ele>
        <time>2015-06-06T12:57:56Z</time>
      </trkpt>
      <trkpt lat="40.248617" lon="-4.900700">
        <ele>2579.0</ele>
        <time>2015-06-06T12:57:58Z</time>
      </trkpt>
      <trkpt lat="40.248450" lon="-4.900633">
        <ele>2584.0</ele>
        <time>2015-06-06T12:58:00Z</time>
      </trkpt>
      <trkpt lat="40.248233" lon="-4.900650">
        <ele>2590.0</ele>
        <time>2015-06-06T12:58:02Z</time>
      </trkpt>
      <trkpt lat="40.248050" lon="-4.900733">
        <ele>2601.0</ele>
        <time>2015-06-06T12:58:04Z</time>
      </trkpt>
      <trkpt lat="40.247917" lon="-4.900900">
        <ele>2611.0</ele>
        <time>2015-06-06T12:58:06Z</time>
      </trkpt>
      <trkpt lat="40.247850" lon="-4.901117">
        <ele>2621.0</ele>
        <time>2015-06-06T12:58:08Z</time>
      </trkpt>
      <trkpt lat="40.247850" lon="-4.901350">
        <ele>2626.0</ele>
        <time>2015-06-06T12:58:10Z</time>
      </trkpt>
      <trkpt lat="40.247933" lon="-4.901633">
        <ele>2633.0</ele>
        <time>2015-06-06T12:58:12Z</time>
      </trkpt>
      <trkpt lat="40.248083" lon="-4.901850">
        <ele>2645.0</ele>
        <time>2015-06-06T12:58:14Z</time>
      </trkpt>
      <trkpt lat="40.248250" lon="-4.901950">
        <ele>2657.0</ele>
        <time>2015-06-06T12:58:16Z</time>
      </trkpt>
      <trkpt lat="40.248417" lon="-4.902017">
        <ele>2664.0</ele>
        <time>2015-06-06T12:58:18Z</time>
      </trkpt>
      <trkpt lat="40.248583" lon="-4.901933">
        <ele>2671.0</ele>
        <time>2015-06-06T12:58:20Z</time>
      </trkpt>
      <trkpt lat="40.248667" lon="-4.901767">
        <ele>2679.0</ele>
        <time>2015-06-06T12:58:22Z</time>
      </trkpt>
      <trkpt lat="40.248667" lon="-4.901600">
        <ele>2684.0</ele>
        <time>2015-06-06T12:58:24Z</time>
      </trkpt>
      <trkpt lat="40.248550" lon="-4.901417">
        <ele>2688.0</ele>
        <time>2015-06-06T12:58:26Z</time>
      </trkpt>
      <trkpt lat="40.248333" lon="-4.901367">
        <ele>2693.0</ele>
        <time>2015-06-06T12:58:28Z</time>
      </trkpt>
      <trkpt lat="40.248150" lon="-4.901417">
        <ele>2706.0</ele>
        <time>2015-06-06T12:58:30Z</time>
      </trkpt>
      <trkpt lat="40.248000" lon="-4.901533">
        <ele>2716.0</ele>
        <time>2015-06-06T12:58:32Z</time>
      </trkpt>
      <trkpt lat="40.247867" lon="-4.901733">
        <ele>2723.0</ele>
        <time>2015-06-06T12:58:34Z</time>
      </trkpt>
      <trkpt lat="40.247750" lon="-4.902017">
        <ele>2733.0</ele>
        <time>2015-06-06T12:58:36Z</time>
      </trkpt>
      <trkpt lat="40.247650" lon="-4.902267">
        <ele>2743.0</ele>
        <time>2015-06-06T12:58:38Z</time>
      </trkpt>
      <trkpt lat="40.247600" lon="-4.902567">
        <ele>2751.0</ele>
        <time>2015-06-06T12:58:40Z</time>
      </trkpt>
      <trkpt lat="40.247633" lon="-4.902850">
        <ele>2762.0</ele>
        <time>2015-06-06T12:58:42Z</time>
      </trkpt>
      <trkpt lat="40.247717" lon="-4.903017">
        <ele>2775.0</ele>
        <time>2015-06-06T12:58:44Z</time>
      </trkpt>
      <trkpt lat="40.247833" lon="-4.903100">
        <ele>2783.0</ele>
        <time>2015-06-06T12:58:46Z</time>
      </trkpt>
      <trkpt lat="40.247983" lon="-4.903083">
        <ele>2790.0</ele>
        <time>2015-06-06T12:58:48Z</time>
      </trkpt>
      <trkpt lat="40.248083" lon="-4.902967">
        <ele>2799.0</ele>
        <time>2015-06-06T12:58:50Z</time>
      </trkpt>
      <trkpt lat="40.248100" lon="-4.902800">
        <ele>2807.0</ele>
        <time>2015-06-06T12:58:52Z</time>
      </trkpt>
      <trkpt lat="40.248033" lon="-4.902633">
        <ele>2814.0</ele>
        <time>2015-06-06T12:58:54Z</time>
      </trkpt>
      <trkpt lat="40.247867" lon="-4.902483">
        <ele>2821.0</ele>
        <time>2015-06-06T12:58:56Z</time>
      </trkpt>
      <trkpt lat="40.247667" lon="-4.902433">
        <ele>2831.0</ele>
        <time>2015-06-06T12:58:58Z</time>
      </trkpt>
      <trkpt lat="40.247500" lon="-4.902467">
        <ele>2838.0</ele>
        <time>2015-06-06T12:59:00Z</time>
      </trkpt>
      <trkpt lat="40.247317" lon="-4.902517">
        <ele>2840.0</ele>
        <time>2015-06-06T12:59:02Z</time>
      </trkpt>
      <trkpt lat="40.247117" lon="-4.902617">
        <ele>2843.0</ele>
        <time>2015-06-06T12:59:04Z</time>
      </trkpt>
      <trkpt lat="40.247000" lon="-4.902817">
        <ele>2847.0</ele>
        <time>2015-06-06T12:59:06Z</time>
      </trkpt>
      <trkpt lat="40.246917" lon="-4.903050">
        <ele>2851.0</ele>
        <time>2015-06-06T12:59:08Z</time>
      </trkpt>
      <trkpt lat="40.246900" lon="-4.903317">
        <ele>2854.0</ele>
        <time>2015-06-06T12:59:10Z</time>
      </trkpt>
      <trkpt lat="40.246950" lon="-4.903600">
        <ele>2858.0</ele>
        <time>2015-06-06T12:59:12Z</time>
      </trkpt>
      <trkpt lat="40.247050" lon="-4.903800">
        <ele>2865.0</ele>
        <time>2015-06-06T12:59:14Z</time>
      </trkpt>
      <trkpt lat="40.247183" lon="-4.903883">
        <ele>2873.0</ele>
        <time>2015-06-06T12:59:16Z</time>
      </trkpt>
      <trkpt lat="40.247300" lon="-4.903900">
        <ele>2880.0</ele>
        <time>2015-06-06T12:59:18Z</time>
      </trkpt>
      <trkpt lat="40.247400" lon="-4.903783">
        <ele>2885.0</ele>
        <time>2015-06-06T12:59:20Z</time>
      </trkpt>
      <trkpt lat="40.247433" lon="-4.903617">
        <ele>2895.0</ele>
        <time>2015-06-06T12:59:22Z</time>
      </trkpt>
      <trkpt lat="40.247383" lon="-4.903483">
        <ele>2904.0</ele>
        <time>2015-06-06T12:59:24Z</time>
      </trkpt>
      <trkpt lat="40.247267" lon="-4.903350">
        <ele>2910.0</ele>
        <time>2015-06-06T12:59:26Z</time>
      </trkpt>
      <trkpt lat="40.247100" lon="-4.903250">
        <ele>2915.0</ele>
        <time>2015-06-06T12:59:28Z</time>
      </trkpt>
      <trkpt lat="40.246917" lon="-4.903333">
        <ele>2917.0</ele>
        <time>2015-06-06T12:59:30Z</time>
      </trkpt>
      <trkpt lat="40.246750" lon="-4.903500">
        <ele>2919.0</ele>
        <time>2015-06-06T12:59:32Z</time>
      </trkpt>
      <trkpt lat="40.246617" lon="-4.903700">
        <ele>2922.0</ele>
        <time>2015-06-06T12:59:34Z</time>
      </trkpt>
      <trkpt lat="40.246517" lon="-4.903933">
        <ele>2925.0</ele>
        <time>2015-06-06T12:59:36Z</time>
      </trkpt>
      <trkpt lat="40.246450" lon="-4.904233">
        <ele>2927.0</ele>
        <time>2015-06-06T12:59:38Z</time>
      </trkpt>
      <trkpt lat="40.246417" lon="-4.904533">
        <ele>2930.0</ele>
        <time>2015-06-06T12:59:40Z</time>
      </trkpt>
      <trkpt lat="40.246350" lon="-4.904800">
        <ele>2934.0</ele>
        <time>2015-06-06T12:59:42Z</time>
      </trkpt>
      <trkpt lat="40.246267" lon="-4.905050">
        <ele>2936.0</ele>
        <time>2015-06-06T12:59:44Z</time>
      </trkpt>
      <trkpt lat="40.246150" lon="-4.905267">
        <ele>2937.0</ele>
        <time>2015-06-06T12:59:46Z</time>
      </trkpt>
      <trkpt lat="40.246017" lon="-4.905467">
        <ele>2939.0</ele>
        <time>2015-06-06T12:59:48Z</time>
      </trkpt>
      <trkpt lat="40.245900" lon="-4.905650">
        <ele>2943.0</ele>
        <time>2015-06-06T12:59:50Z</time>
      </trkpt>
      <trkpt lat="40.245767" lon="-4.905833">
        <ele>2946.0</ele>
        <time>2015-06-06T12:59:52Z</time>
      </trkpt>
      <trkpt lat="40.245667" lon="-4.906033">
        <ele>2950.0</ele>
        <time>2015-06-06T12:59:54Z</time>
      </trkpt>
      <trkpt lat="40.245567" lon="-4.906250">
        <ele>2953.0</ele>
        <time>2015-06-06T12:59:56Z</time>
      </trkpt>
      <trkpt lat="40.245467" lon="-4.906467">
        <ele>2954.0</ele>
        <time>2015-06-06T12:59:58Z</time>
      </trkpt>
      <trkpt lat="40.245367" lon="-4.906700">
        <ele>2955.0</ele>
        <time>2015-06-06T13:00:00Z</time>
      </trkpt>
      <trkpt lat="40.245283" lon="-4.906983">
        <ele>2955.0</ele>
        <time>2015-06-06T13:00:02Z</time>
      </trkpt>
      <trkpt lat="40.245200" lon="-4.907283">
        <ele>2958.0</ele>
        <time>2015-06-06T13:00:04Z</time>
      </trkpt>
      <trkpt lat="40.245133" lon="-4.907567">
        <ele>2959.0</ele>
        <time>2015-06-06T13:00:06Z</time>
      </trkpt>
      <trkpt lat="40.245067" lon="-4.907867">
        <ele>2958.0</ele>
        <time>2015-06-06T13:00:08Z</time>
      </trkpt>
      <trkpt lat="40.244983" lon="-4.908167">
        <ele>2958.0</ele>
        <time>2015-06-06T13:00:10Z</time>
      </trkpt>
      <trkpt lat="40.244883" lon="-4.908467">
        <ele>2958.0</ele>
        <time>2015-06-06T13:00:12Z</time>
      </trkpt>
      <trkpt lat="40.244783" lon="-4.908750">
        <ele>2958.0</ele>
        <time>2015-06-06T13:00:14Z</time>
      </trkpt>
      <trkpt lat="40.244650" lon="-4.909033">
        <ele>2958.0</ele>
        <time>2015-06-06T13:00:16Z</time>
      </trkpt>
      <trkpt lat="40.244517" lon="-4.909283">
        <ele>2957.0</ele>
        <time>2015-06-06T13:00:18Z</time>
      </trkpt>
      <trkpt lat="40.244367" lon="-4.909550">
        <ele>2960.0</ele>
        <time>2015-06-06T13:00:20Z</time>
      </trkpt>
      <trkpt lat="40.244233" lon="-4.909817">
        <ele>2966.0</ele>
        <time>2015-06-06T13:00:22Z</time>
      </trkpt>
      <trkpt lat="40.244100" lon="-4.910017">
        <ele>2971.0</ele>
        <time>2015-06-06T13:00:24Z</time>
      </trkpt>
      <trkpt lat="40.243950" lon="-4.910217">
        <ele>2974.0</ele>
        <time>2015-06-06T13:00:26Z</time>
      </trkpt>
      <trkpt lat="40.243767" lon="-4.910500">
        <ele>2977.0</ele>
        <time>2015-06-06T13:00:28Z</time>
      </trkpt>
      <trkpt lat="40.243617" lon="-4.910767">
        <ele>2985.0</ele>
        <time>2015-06-06T13:00:30Z</time>
      </trkpt>
      <trkpt lat="40.243467" lon="-4.910983">
        <ele>2992.0</ele>
        <time>2015-06-06T13:00:32Z</time>
      </trkpt>
      <trkpt lat="40.243367" lon="-4.911217">
        <ele>2998.0</ele>
        <time>2015-06-06T13:00:34Z</time>
      </trkpt>
      <trkpt lat="40.243317" lon="-4.911550">
        <ele>2998.0</ele>
        <time>2015-06-06T13:00:36Z</time>
      </trkpt>
      <trkpt lat="40.243283" lon="-4.911933">
        <ele>3001.0</ele>
        <time>2015-06-06T13:00:38Z</time>
      </trkpt>
      <trkpt lat="40.243200" lon="-4.912250">
        <ele>3006.0</ele>
        <time>2015-06-06T13:00:40Z</time>
      </trkpt>
      <trkpt lat="40.243133" lon="-4.912567">
        <ele>3008.0</ele>
        <time>2015-06-06T13:00:42Z</time>
      </trkpt>
      <trkpt lat="40.243083" lon="-4.912917">
        <ele>3010.0</ele>
        <time>2015-06-06T13:00:44Z</time>
      </trkpt>
      <trkpt lat="40.242983" lon="-4.913267">
        <ele>3011.0</ele>
        <time>2015-06-06T13:00:46Z</time>
      </trkpt>
      <trkpt lat="40.242867" lon="-4.913583">
        <ele>3013.0</ele>
        <time>2015-06-06T13:00:48Z</time>
      </trkpt>
      <trkpt lat="40.242750" lon="-4.913900">
        <ele>3015.0</ele>
        <time>2015-06-06T13:00:50Z</time>
      </trkpt>
      <trkpt lat="40.242633" lon="-4.914183">
        <ele>3017.0</ele>
        <time>2015-06-06T13:00:52Z</time>
      </trkpt>
      <trkpt lat="40.242517" lon="-4.914450">
        <ele>3021.0</ele>
        <time>2015-06-06T13:00:54Z</time>
      </trkpt>
      <trkpt lat="40.242400" lon="-4.914700">
        <ele>3024.0</ele>
        <time>2015-06-06T13:00:56Z</time>
      </trkpt>
      <trkpt lat="40.242250" lon="-4.914950">
        <ele>3028.0</ele>
        <time>2015-06-06T13:00:58Z</time>
      </trkpt>
      <trkpt lat="40.242100" lon="-4.915167">
        <ele>3035.0</ele>
        <time>2015-06-06T13:01:00Z</time>
      </trkpt>
      <trkpt lat="40.242000" lon="-4.915383">
        <ele>3044.0</ele>
        <time>2015-06-06T13:01:02Z</time>
      </trkpt>
      <trkpt lat="40.241967" lon="-4.915650">
        <ele>3051.0</ele>
        <time>2015-06-06T13:01:04Z</time>
      </trkpt>
      <trkpt lat="40.242000" lon="-4.915967">
        <ele>3055.0</ele>
        <time>2015-06-06T13:01:06Z</time>
      </trkpt>
      <trkpt lat="40.242117" lon="-4.916250">
        <ele>3058.0</ele>
        <time>2015-06-06T13:01:08Z</time>
      </trkpt>
      <trkpt lat="40.242317" lon="-4.916450">
        <ele>3062.0</ele>
        <time>2015-06-06T13:01:10Z</time>
      </trkpt>
      <trkpt lat="40.242483" lon="-4.916550">
        <ele>3068.0</ele>
        <time>2015-06-06T13:01:12Z</time>
      </trkpt>
      <trkpt lat="40.242633" lon="-4.916550">
        <ele>3073.0</ele>
        <time>2015-06-06T13:01:14Z</time>
      </trkpt>
      <trkpt lat="40.242783" lon="-4.916467">
        <ele>3076.0</ele>
        <time>2015-06-06T13:01:16Z</time>
      </trkpt>
      <trkpt lat="40.242883" lon="-4.916317">
        <ele>3080.0</ele>
        <time>2015-06-06T13:01:18Z</time>
      </trkpt>
      <trkpt lat="40.242883" lon="-4.916133">
        <ele>3084.0</ele>
        <time>2015-06-06T13:01:20Z</time>
      </trkpt>
      <trkpt lat="40.242783" lon="-4.916000">
        <ele>3088.0</ele>
        <time>2015-06-06T13:01:22Z</time>
      </trkpt>
      <trkpt lat="40.242617" lon="-4.915900">
        <ele>3094.0</ele>
        <time>2015-06-06T13:01:24Z</time>
      </trkpt>
      <trkpt lat="40.242417" lon="-4.915883">
        <ele>3102.0</ele>
        <time>2015-06-06T13:01:26Z</time>
      </trkpt>
      <trkpt lat="40.242250" lon="-4.916000">
        <ele>3108.0</ele>
        <time>2015-06-06T13:01:28Z</time>
      </trkpt>
      <trkpt lat="40.242083" lon="-4.916150">
        <ele>3111.0</ele>
        <time>2015-06-06T13:01:30Z</time>
      </trkpt>
      <trkpt lat="40.241883" lon="-4.916400">
        <ele>3117.0</ele>
        <time>2015-06-06T13:01:32Z</time>
      </trkpt>
      <trkpt lat="40.241750" lon="-4.916633">
        <ele>3129.0</ele>
        <time>2015-06-06T13:01:34Z</time>
      </trkpt>
      <trkpt lat="40.241667" lon="-4.916867">
        <ele>3134.0</ele>
        <time>2015-06-06T13:01:36Z</time>
      </trkpt>
      <trkpt lat="40.241600" lon="-4.917167">
        <ele>3136.0</ele>
        <time>2015-06-06T13:01:38Z</time>
      </trkpt>
      <trkpt lat="40.241533" lon="-4.917500">
        <ele>3141.0</ele>
        <time>2015-06-06T13:01:40Z</time>
      </trkpt>
      <trkpt lat="40.241417" lon="-4.917750">
        <ele>3147.0</ele>
        <time>2015-06-06T13:01:42Z</time>
      </trkpt>
      <trkpt lat="40.241283" lon="-4.917900">
        <ele>3152.0</ele>
        <time>2015-06-06T13:01:44Z</time>
      </trkpt>
      <trkpt lat="40.241167" lon="-4.917950">
        <ele>3156.0</ele>
        <time>2015-06-06T13:01:46Z</time>
      </trkpt>
      <trkpt lat="40.241083" lon="-4.917850">
        <ele>3159.0</ele>
        <time>2015-06-06T13:01:48Z</time>
      </trkpt>
      <trkpt lat="40.241050" lon="-4.917733">
        <ele>3164.0</ele>
        <time>2015-06-06T13:01:50Z</time>
      </trkpt>
      <trkpt lat="40.241083" lon="-4.917567">
        <ele>3167.0</ele>
        <time>2015-06-06T13:01:52Z</time>
      </trkpt>
      <trkpt lat="40.241233" lon="-4.917417">
        <ele>3172.0</ele>
        <time>2015-06-06T13:01:54Z</time>
      </trkpt>
      <trkpt lat="40.241433" lon="-4.917400">
        <ele>3178.0</ele>
        <time>2015-06-06T13:01:56Z</time>
      </trkpt>
      <trkpt lat="40.241617" lon="-4.917533">
        <ele>3181.0</ele>
        <time>2015-06-06T13:01:58Z</time>
      </trkpt>
      <trkpt lat="40.241783" lon="-4.917817">
        <ele>3184.0</ele>
        <time>2015-06-06T13:02:00Z</time>
      </trkpt>
      <trkpt lat="40.241850" lon="-4.918167">
        <ele>3189.0</ele>
        <time>2015-06-06T13:02:02Z</time>
      </trkpt>
      <trkpt lat="40.241800" lon="-4.918467">
        <ele>3196.0</ele>
        <time>2015-06-06T13:02:04Z</time>
      </trkpt>
      <trkpt lat="40.241683" lon="-4.918733">
        <ele>3201.0</ele>
        <time>2015-06-06T13:02:06Z</time>
      </trkpt>
      <trkpt lat="40.241567" lon="-4.918900">
        <ele>3206.0</ele>
        <time>2015-06-06T13:02:08Z</time>
      </trkpt>
      <trkpt lat="40.241417" lon="-4.919017">
        <ele>3209.0</ele>
        <time>2015-06-06T13:02:10Z</time>
      </trkpt>
      <trkpt lat="40.241267" lon="-4.919100">
        <ele>3213.0</ele>
        <time>2015-06-06T13:02:12Z</time>
      </trkpt>
      <trkpt lat="40.241133" lon="-4.919083">
        <ele>3214.0</ele>
        <time>2015-06-06T13:02:14Z</time>
      </trkpt>
      <trkpt lat="40.241000" lon="-4.919017">
        <ele>3216.0</ele>
        <time>2015-06-06T13:02:16Z</time>
      </trkpt>
      <trkpt lat="40.240850" lon="-4.919000">
        <ele>3220.0</ele>
        <time>2015-06-06T13:02:18Z</time>
      </trkpt>
      <trkpt lat="40.240717" lon="-4.919133">
        <ele>3224.0</ele>
        <time>2015-06-06T13:02:20Z</time>
      </trkpt>
      <trkpt lat="40.240617" lon="-4.919367">
        <ele>3225.0</ele>
        <time>2015-06-06T13:02:22Z</time>
      </trkpt>
      <trkpt lat="40.240550" lon="-4.919650">
        <ele>3223.0</ele>
        <time>2015-06-06T13:02:24Z</time>
      </trkpt>
      <trkpt lat="40.240467" lon="-4.919983">
        <ele>3223.0</ele>
        <time>2015-06-06T13:02:26Z</time>
      </trkpt>
      <trkpt lat="40.240367" lon="-4.920250">
        <ele>3223.0</ele>
        <time>2015-06-06T13:02:28Z</time>
      </trkpt>
      <trkpt lat="40.240267" lon="-4.920533">
        <ele>3223.0</ele>
        <time>2015-06-06T13:02:30Z</time>
      </trkpt>
      <trkpt lat="40.240150" lon="-4.920817">
        <ele>3223.0</ele>
        <time>2015-06-06T13:02:32Z</time>
      </trkpt>
      <trkpt lat="40.240033" lon="-4.921050">
        <ele>3223.0</ele>
        <time>2015-06-06T13:02:34Z</time>
      </trkpt>
      <trkpt lat="40.239933" lon="-4.921300">
        <ele>3222.0</ele>
        <time>2015-06-06T13:02:36Z</time>
      </trkpt>
      <trkpt lat="40.239833" lon="-4.921550">
        <ele>3221.0</ele>
        <time>2015-06-06T13:02:38Z</time>
      </trkpt>
      <trkpt lat="40.239750" lon="-4.921767">
        <ele>3223.0</ele>
        <time>2015-06-06T13:02:40Z</time>
      </trkpt>
      <trkpt lat="40.239700" lon="-4.921950">
        <ele>3226.0</ele>
        <time>2015-06-06T13:02:42Z</time>
      </trkpt>
      <trkpt lat="40.239650" lon="-4.922150">
        <ele>3225.0</ele>
        <time>2015-06-06T13:02:44Z</time>
      </trkpt>
      <trkpt lat="40.239600" lon="-4.922367">
        <ele>3223.0</ele>
        <time>2015-06-06T13:02:46Z</time>
      </trkpt>
      <trkpt lat="40.239550" lon="-4.922633">
        <ele>3218.0</ele>
        <time>2015-06-06T13:02:48Z</time>
      </trkpt>
      <trkpt lat="40.239483" lon="-4.922933">
        <ele>3214.0</ele>
        <time>2015-06-06T13:02:50Z</time>
      </trkpt>
      <trkpt lat="40.239433" lon="-4.923250">
        <ele>3216.0</ele>
        <time>2015-06-06T13:02:52Z</time>
      </trkpt>
      <trkpt lat="40.239333" lon="-4.923550">
        <ele>3219.0</ele>
        <time>2015-06-06T13:02:54Z</time>
      </trkpt>
      <trkpt lat="40.239200" lon="-4.923817">
        <ele>3225.0</ele>
        <time>2015-06-06T13:02:56Z</time>
      </trkpt>
      <trkpt lat="40.239083" lon="-4.924033">
        <ele>3231.0</ele>
        <time>2015-06-06T13:02:58Z</time>
      </trkpt>
      <trkpt lat="40.238983" lon="-4.924167">
        <ele>3236.0</ele>
        <time>2015-06-06T13:03:00Z</time>
      </trkpt>
      <trkpt lat="40.238917" lon="-4.924300">
        <ele>3237.0</ele>
        <time>2015-06-06T13:03:02Z</time>
      </trkpt>
      <trkpt lat="40.238833" lon="-4.924533">
        <ele>3234.0</ele>
        <time>2015-06-06T13:03:04Z</time>
      </trkpt>
      <trkpt lat="40.238717" lon="-4.924767">
        <ele>3231.0</ele>
        <time>2015-06-06T13:03:06Z</time>
      </trkpt>
      <trkpt lat="40.238617" lon="-4.925000">
        <ele>3228.0</ele>
        <time>2015-06-06T13:03:08Z</time>
      </trkpt>
      <trkpt lat="40.238500" lon="-4.925217">
        <ele>3225.0</ele>
        <time>2015-06-06T13:03:10Z</time>
      </trkpt>
      <trkpt lat="40.238383" lon="-4.925433">
        <ele>3221.0</ele>
        <time>2015-06-06T13:03:12Z</time>
      </trkpt>
      <trkpt lat="40.238283" lon="-4.925667">
        <ele>3220.0</ele>
        <time>2015-06-06T13:03:14Z</time>
      </trkpt>
      <trkpt lat="40.238167" lon="-4.925867">
        <ele>3219.0</ele>
        <time>2015-06-06T13:03:16Z</time>
      </trkpt>
      <trkpt lat="40.238067" lon="-4.926067">
        <ele>3217.0</ele>
        <time>2015-06-06T13:03:18Z</time>
      </trkpt>
      <trkpt lat="40.237950" lon="-4.926283">
        <ele>3215.0</ele>
        <time>2015-06-06T13:03:20Z</time>
      </trkpt>
      <trkpt lat="40.237850" lon="-4.926533">
        <ele>3213.0</ele>
        <time>2015-06-06T13:03:22Z</time>
      </trkpt>
      <trkpt lat="40.237733" lon="-4.926750">
        <ele>3211.0</ele>
        <time>2015-06-06T13:03:24Z</time>
      </trkpt>
      <trkpt lat="40.237617" lon="-4.926983">
        <ele>3207.0</ele>
        <time>2015-06-06T13:03:26Z</time>
      </trkpt>
      <trkpt lat="40.237533" lon="-4.927200">
        <ele>3203.0</ele>
        <time>2015-06-06T13:03:28Z</time>
      </trkpt>
      <trkpt lat="40.237433" lon="-4.927433">
        <ele>3197.0</ele>
        <time>2015-06-06T13:03:30Z</time>
      </trkpt>
      <trkpt lat="40.237350" lon="-4.927683">
        <ele>3190.0</ele>
        <time>2015-06-06T13:03:32Z</time>
      </trkpt>
      <trkpt lat="40.237250" lon="-4.927933">
        <ele>3183.0</ele>
        <time>2015-06-06T13:03:34Z</time>
      </trkpt>
      <trkpt lat="40.237133" lon="-4.928183">
        <ele>3177.0</ele>
        <time>2015-06-06T13:03:36Z</time>
      </trkpt>
      <trkpt lat="40.237017" lon="-4.928417">
        <ele>3170.0</ele>
        <time>2015-06-06T13:03:38Z</time>
      </trkpt>
      <trkpt lat="40.236917" lon="-4.928650">
        <ele>3162.0</ele>
        <time>2015-06-06T13:03:40Z</time>
      </trkpt>
      <trkpt lat="40.236800" lon="-4.928933">
        <ele>3151.0</ele>
        <time>2015-06-06T13:03:42Z</time>
      </trkpt>
      <trkpt lat="40.236717" lon="-4.929250">
        <ele>3145.0</ele>
        <time>2015-06-06T13:03:44Z</time>
      </trkpt>
      <trkpt lat="40.236633" lon="-4.929533">
        <ele>3141.0</ele>
        <time>2015-06-06T13:03:46Z</time>
      </trkpt>
      <trkpt lat="40.236550" lon="-4.929817">
        <ele>3134.0</ele>
        <time>2015-06-06T13:03:48Z</time>
      </trkpt>
      <trkpt lat="40.236433" lon="-4.930117">
        <ele>3128.0</ele>
        <time>2015-06-06T13:03:50Z</time>
      </trkpt>
      <trkpt lat="40.236317" lon="-4.930383">
        <ele>3123.0</ele>
        <time>2015-06-06T13:03:52Z</time>
      </trkpt>
      <trkpt lat="40.236200" lon="-4.930633">
        <ele>3118.0</ele>
        <time>2015-06-06T13:03:54Z</time>
      </trkpt>
      <trkpt lat="40.236100" lon="-4.930900">
        <ele>3113.0</ele>
        <time>2015-06-06T13:03:56Z</time>
      </trkpt>
      <trkpt lat="40.235983" lon="-4.931167">
        <ele>3107.0</ele>
        <time>2015-06-06T13:03:58Z</time>
      </trkpt>
      <trkpt lat="40.235867" lon="-4.931433">
        <ele>3102.0</ele>
        <time>2015-06-06T13:04:00Z</time>
      </trkpt>
      <trkpt lat="40.235750" lon="-4.931700">
        <ele>3096.0</ele>
        <time>2015-06-06T13:04:02Z</time>
      </trkpt>
      <trkpt lat="40.235617" lon="-4.931950">
        <ele>3089.0</ele>
        <time>2015-06-06T13:04:04Z</time>
      </trkpt>
      <trkpt lat="40.235483" lon="-4.932200">
        <ele>3082.0</ele>
        <time>2015-06-06T13:04:06Z</time>
      </trkpt>
      <trkpt lat="40.235350" lon="-4.932467">
        <ele>3075.0</ele>
        <time>2015-06-06T13:04:08Z</time>
      </trkpt>
      <trkpt lat="40.235250" lon="-4.932750">
        <ele>3068.0</ele>
        <time>2015-06-06T13:04:10Z</time>
      </trkpt>
      <trkpt lat="40.235133" lon="-4.933050">
        <ele>3062.0</ele>
        <time>2015-06-06T13:04:12Z</time>
      </trkpt>
      <trkpt lat="40.235033" lon="-4.933333">
        <ele>3056.0</ele>
        <time>2015-06-06T13:04:14Z</time>
      </trkpt>
      <trkpt lat="40.234933" lon="-4.933617">
        <ele>3050.0</ele>
        <time>2015-06-06T13:04:16Z</time>
      </trkpt>
      <trkpt lat="40.234850" lon="-4.933917">
        <ele>3044.0</ele>
        <time>2015-06-06T13:04:18Z</time>
      </trkpt>
      <trkpt lat="40.234750" lon="-4.934233">
        <ele>3038.0</ele>
        <time>2015-06-06T13:04:20Z</time>
      </trkpt>
      <trkpt lat="40.234633" lon="-4.934550">
        <ele>3033.0</ele>
        <time>2015-06-06T13:04:22Z</time>
      </trkpt>
      <trkpt lat="40.234517" lon="-4.934833">
        <ele>3027.0</ele>
        <time>2015-06-06T13:04:24Z</time>
      </trkpt>
      <trkpt lat="40.234383" lon="-4.935117">
        <ele>3021.0</ele>
        <time>2015-06-06T13:04:26Z</time>
      </trkpt>
      <trkpt lat="40.234250" lon="-4.935417">
        <ele>3015.0</ele>
        <time>2015-06-06T13:04:28Z</time>
      </trkpt>
      <trkpt lat="40.234100" lon="-4.935717">
        <ele>3010.0</ele>
        <time>2015-06-06T13:04:30Z</time>
      </trkpt>
      <trkpt lat="40.233950" lon="-4.935967">
        <ele>3005.0</ele>
        <time>2015-06-06T13:04:32Z</time>
      </trkpt>
      <trkpt lat="40.233800" lon="-4.936233">
        <ele>2997.0</ele>
        <time>2015-06-06T13:04:34Z</time>
      </trkpt>
      <trkpt lat="40.233633" lon="-4.936517">
        <ele>2991.0</ele>
        <time>2015-06-06T13:04:36Z</time>
      </trkpt>
      <trkpt lat="40.233483" lon="-4.936800">
        <ele>2986.0</ele>
        <time>2015-06-06T13:04:38Z</time>
      </trkpt>
      <trkpt lat="40.233383" lon="-4.937050">
        <ele>2980.0</ele>
        <time>2015-06-06T13:04:40Z</time>
      </trkpt>
      <trkpt lat="40.233250" lon="-4.937317">
        <ele>2972.0</ele>
        <time>2015-06-06T13:04:42Z</time>
      </trkpt>
      <trkpt lat="40.233117" lon="-4.937617">
        <ele>2968.0</ele>
        <time>2015-06-06T13:04:44Z</time>
      </trkpt>
      <trkpt lat="40.233000" lon="-4.937883">
        <ele>2965.0</ele>
        <time>2015-06-06T13:04:46Z</time>
      </trkpt>
      <trkpt lat="40.232867" lon="-4.938117">
        <ele>2961.0</ele>
        <time>2015-06-06T13:04:48Z</time>
      </trkpt>
      <trkpt lat="40.232717" lon="-4.938367">
        <ele>2956.0</ele>
        <time>2015-06-06T13:04:50Z</time>
      </trkpt>
      <trkpt lat="40.232567" lon="-4.938617">
        <ele>2953.0</ele>
        <time>2015-06-06T13:04:52Z</time>
      </trkpt>
      <trkpt lat="40.232417" lon="-4.938850">
        <ele>2949.0</ele>
        <time>2015-06-06T13:04:54Z</time>
      </trkpt>
      <trkpt lat="40.232250" lon="-4.939067">
        <ele>2946.0</ele>
        <time>2015-06-06T13:04:56Z</time>
      </trkpt>
      <trkpt lat="40.232083" lon="-4.939283">
        <ele>2943.0</ele>
        <time>2015-06-06T13:04:58Z</time>
      </trkpt>
      <trkpt lat="40.231933" lon="-4.939483">
        <ele>2939.0</ele>
        <time>2015-06-06T13:05:00Z</time>
      </trkpt>
      <trkpt lat="40.231783" lon="-4.939733">
        <ele>2936.0</ele>
        <time>2015-06-06T13:05:02Z</time>
      </trkpt>
      <trkpt lat="40.231617" lon="-4.939967">
        <ele>2933.0</ele>
        <time>2015-06-06T13:05:04Z</time>
      </trkpt>
      <trkpt lat="40.231450" lon="-4.940200">
        <ele>2930.0</ele>
        <time>2015-06-06T13:05:06Z</time>
      </trkpt>
      <trkpt lat="40.231300" lon="-4.940450">
        <ele>2926.0</ele>
        <time>2015-06-06T13:05:08Z</time>
      </trkpt>
      <trkpt lat="40.231167" lon="-4.940717">
        <ele>2923.0</ele>
        <time>2015-06-06T13:05:10Z</time>
      </trkpt>
      <trkpt lat="40.231033" lon="-4.940967">
        <ele>2919.0</ele>
        <time>2015-06-06T13:05:12Z</time>
      </trkpt>
      <trkpt lat="40.230900" lon="-4.941233">
        <ele>2916.0</ele>
        <time>2015-06-06T13:05:14Z</time>
      </trkpt>
      <trkpt lat="40.230783" lon="-4.941500">
        <ele>2912.0</ele>
        <time>2015-06-06T13:05:16Z</time>
      </trkpt>
      <trkpt lat="40.230650" lon="-4.941767">
        <ele>2910.0</ele>
        <time>2015-06-06T13:05:18Z</time>
      </trkpt>
      <trkpt lat="40.230517" lon="-4.942067">
        <ele>2911.0</ele>
        <time>2015-06-06T13:05:20Z</time>
      </trkpt>
      <trkpt lat="40.230417" lon="-4.942350">
        <ele>2912.0</ele>
        <time>2015-06-06T13:05:22Z</time>
      </trkpt>
      <trkpt lat="40.230333" lon="-4.942600">
        <ele>2912.0</ele>
        <time>2015-06-06T13:05:24Z</time>
      </trkpt>
      <trkpt lat="40.230283" lon="-4.942850">
        <ele>2910.0</ele>
        <time>2015-06-06T13:05:26Z</time>
      </trkpt>
      <trkpt lat="40.230200" lon="-4.943150">
        <ele>2905.0</ele>
        <time>2015-06-06T13:05:28Z</time>
      </trkpt>
      <trkpt lat="40.230083" lon="-4.943467">
        <ele>2902.0</ele>
        <time>2015-06-06T13:05:30Z</time>
      </trkpt>
      <trkpt lat="40.229983" lon="-4.943733">
        <ele>2901.0</ele>
        <time>2015-06-06T13:05:32Z</time>
      </trkpt>
      <trkpt lat="40.229883" lon="-4.944000">
        <ele>2900.0</ele>
        <time>2015-06-06T13:05:34Z</time>
      </trkpt>
      <trkpt lat="40.229767" lon="-4.944283">
        <ele>2896.0</ele>
        <time>2015-06-06T13:05:36Z</time>
      </trkpt>
      <trkpt lat="40.229650" lon="-4.944550">
        <ele>2894.0</ele>
        <time>2015-06-06T13:05:38Z</time>
      </trkpt>
      <trkpt lat="40.229567" lon="-4.944817">
        <ele>2891.0</ele>
        <time>2015-06-06T13:05:40Z</time>
      </trkpt>
      <trkpt lat="40.229467" lon="-4.945083">
        <ele>2885.0</ele>
        <time>2015-06-06T13:05:42Z</time>
      </trkpt>
      <trkpt lat="40.229317" lon="-4.945400">
        <ele>2880.0</ele>
        <time>2015-06-06T13:05:44Z</time>
      </trkpt>
      <trkpt lat="40.229200" lon="-4.945683">
        <ele>2879.0</ele>
        <time>2015-06-06T13:05:46Z</time>
      </trkpt>
      <trkpt lat="40.229067" lon="-4.945900">
        <ele>2876.0</ele>
        <time>2015-06-06T13:05:48Z</time>
      </trkpt>
      <trkpt lat="40.228933" lon="-4.946150">
        <ele>2871.0</ele>
        <time>2015-06-06T13:05:50Z</time>
      </trkpt>
      <trkpt lat="40.228783" lon="-4.946433">
        <ele>2868.0</ele>
        <time>2015-06-06T13:05:52Z</time>
      </trkpt>
      <trkpt lat="40.228667" lon="-4.946650">
        <ele>2867.0</ele>
        <time>2015-06-06T13:05:54Z</time>
      </trkpt>
      <trkpt lat="40.228550" lon="-4.946867">
        <ele>2863.0</ele>
        <time>2015-06-06T13:05:56Z</time>
      </trkpt>
      <trkpt lat="40.228417" lon="-4.947117">
        <ele>2858.0</ele>
        <time>2015-06-06T13:05:58Z</time>
      </trkpt>
      <trkpt lat="40.228283" lon="-4.947367">
        <ele>2856.0</ele>
        <time>2015-06-06T13:06:00Z</time>
      </trkpt>
      <trkpt lat="40.228183" lon="-4.947600">
        <ele>2854.0</ele>
        <time>2015-06-06T13:06:02Z</time>
      </trkpt>
      <trkpt lat="40.228100" lon="-4.947867">
        <ele>2849.0</ele>
        <time>2015-06-06T13:06:04Z</time>
      </trkpt>
      <trkpt lat="40.227983" lon="-4.948133">
        <ele>2845.0</ele>
        <time>2015-06-06T13:06:06Z</time>
      </trkpt>
      <trkpt lat="40.227850" lon="-4.948367">
        <ele>2842.0</ele>
        <time>2015-06-06T13:06:08Z</time>
      </trkpt>
      <trkpt lat="40.227717" lon="-4.948583">
        <ele>2839.0</ele>
        <time>2015-06-06T13:06:10Z</time>
      </trkpt>
      <trkpt lat="40.227600" lon="-4.948817">
        <ele>2836.0</ele>
        <time>2015-06-06T13:06:12Z</time>
      </trkpt>
      <trkpt lat="40.227483" lon="-4.949083">
        <ele>2833.0</ele>
        <time>2015-06-06T13:06:14Z</time>
      </trkpt>
      <trkpt lat="40.227367" lon="-4.949350">
        <ele>2830.0</ele>
        <time>2015-06-06T13:06:16Z</time>
      </trkpt>
      <trkpt lat="40.227233" lon="-4.949617">
        <ele>2827.0</ele>
        <time>2015-06-06T13:06:18Z</time>
      </trkpt>
      <trkpt lat="40.227100" lon="-4.949867">
        <ele>2827.0</ele>
        <time>2015-06-06T13:06:20Z</time>
      </trkpt>
      <trkpt lat="40.227017" lon="-4.950133">
        <ele>2825.0</ele>
        <time>2015-06-06T13:06:22Z</time>
      </trkpt>
      <trkpt lat="40.226917" lon="-4.950417">
        <ele>2822.0</ele>
        <time>2015-06-06T13:06:24Z</time>
      </trkpt>
      <trkpt lat="40.226817" lon="-4.950700">
        <ele>2819.0</ele>
        <time>2015-06-06T13:06:26Z</time>
      </trkpt>
      <trkpt lat="40.226717" lon="-4.951000">
        <ele>2817.0</ele>
        <time>2015-06-06T13:06:28Z</time>
      </trkpt>
      <trkpt lat="40.226633" lon="-4.951300">
        <ele>2813.0</ele>
        <time>2015-06-06T13:06:30Z</time>
      </trkpt>
      <trkpt lat="40.226550" lon="-4.951600">
        <ele>2810.0</ele>
        <time>2015-06-06T13:06:32Z</time>
      </trkpt>
      <trkpt lat="40.226450" lon="-4.951867">
        <ele>2806.0</ele>
        <time>2015-06-06T13:06:34Z</time>
      </trkpt>
      <trkpt lat="40.226333" lon="-4.952167">
        <ele>2800.0</ele>
        <time>2015-06-06T13:06:36Z</time>
      </trkpt>
      <trkpt lat="40.226200" lon="-4.952433">
        <ele>2797.0</ele>
        <time>2015-06-06T13:06:38Z</time>
      </trkpt>
      <trkpt lat="40.226083" lon="-4.952717">
        <ele>2793.0</ele>
        <time>2015-06-06T13:06:40Z</time>
      </trkpt>
      <trkpt lat="40.225967" lon="-4.952983">
        <ele>2789.0</ele>
        <time>2015-06-06T13:06:42Z</time>
      </trkpt>
      <trkpt lat="40.225817" lon="-4.953250">
        <ele>2785.0</ele>
        <time>2015-06-06T13:06:44Z</time>
      </trkpt>
      <trkpt lat="40.225683" lon="-4.953533">
        <ele>2786.0</ele>
        <time>2015-06-06T13:06:46Z</time>
      </trkpt>
      <trkpt lat="40.225600" lon="-4.953800">
        <ele>2785.0</ele>
        <time>2015-06-06T13:06:48Z</time>
      </trkpt>
      <trkpt lat="40.225517" lon="-4.954083">
        <ele>2782.0</ele>
        <time>2015-06-06T13:06:50Z</time>
      </trkpt>
      <trkpt lat="40.225417" lon="-4.954383">
        <ele>2781.0</ele>
        <time>2015-06-06T13:06:52Z</time>
      </trkpt>
      <trkpt lat="40.225333" lon="-4.954667">
        <ele>2782.0</ele>
        <time>2015-06-06T13:06:54Z</time>
      </trkpt>
      <trkpt lat="40.225267" lon="-4.954917">
        <ele>2781.0</ele>
        <time>2015-06-06T13:06:56Z</time>
      </trkpt>
      <trkpt lat="40.225167" lon="-4.955200">
        <ele>2778.0</ele>
        <time>2015-06-06T13:06:58Z</time>
      </trkpt>
      <trkpt lat="40.225067" lon="-4.955483">
        <ele>2777.0</ele>
        <time>2015-06-06T13:07:00Z</time>
      </trkpt>
      <trkpt lat="40.224983" lon="-4.955750">
        <ele>2776.0</ele>
        <time>2015-06-06T13:07:02Z</time>
      </trkpt>
      <trkpt lat="40.224900" lon="-4.956033">
        <ele>2774.0</ele>
        <time>2015-06-06T13:07:04Z</time>
      </trkpt>
      <trkpt lat="40.224800" lon="-4.956333">
        <ele>2772.0</ele>
        <time>2015-06-06T13:07:06Z</time>
      </trkpt>
      <trkpt lat="40.224717" lon="-4.956600">
        <ele>2771.0</ele>
        <time>2015-06-06T13:07:08Z</time>
      </trkpt>
      <trkpt lat="40.224633" lon="-4.956883">
        <ele>2768.0</ele>
        <time>2015-06-06T13:07:10Z</time>
      </trkpt>
      <trkpt lat="40.224533" lon="-4.957167">
        <ele>2766.0</ele>
        <time>2015-06-06T13:07:12Z</time>
      </trkpt>
      <trkpt lat="40.224450" lon="-4.957433">
        <ele>2764.0</ele>
        <time>2015-06-06T13:07:14Z</time>
      </trkpt>
      <trkpt lat="40.224367" lon="-4.957700">
        <ele>2760.0</ele>
        <time>2015-06-06T13:07:16Z</time>
      </trkpt>
      <trkpt lat="40.224267" lon="-4.957967">
        <ele>2755.0</ele>
        <time>2015-06-06T13:07:18Z</time>
      </trkpt>
      <trkpt lat="40.224167" lon="-4.958250">
        <ele>2751.0</ele>
        <time>2015-06-06T13:07:20Z</time>
      </trkpt>
      <trkpt lat="40.224067" lon="-4.958517">
        <ele>2747.0</ele>
        <time>2015-06-06T13:07:22Z</time>
      </trkpt>
      <trkpt lat="40.223967" lon="-4.958800">
        <ele>2743.0</ele>
        <time>2015-06-06T13:07:24Z</time>
      </trkpt>
      <trkpt lat="40.223867" lon="-4.959067">
        <ele>2740.0</ele>
        <time>2015-06-06T13:07:26Z</time>
      </trkpt>
      <trkpt lat="40.223750" lon="-4.959333">
        <ele>2737.0</ele>
        <time>2015-06-06T13:07:28Z</time>
      </trkpt>
      <trkpt lat="40.223650" lon="-4.959617">
        <ele>2734.0</ele>
        <time>2015-06-06T13:07:30Z</time>
      </trkpt>
      <trkpt lat="40.223583" lon="-4.959883">
        <ele>2732.0</ele>
        <time>2015-06-06T13:07:32Z</time>
      </trkpt>
      <trkpt lat="40.223533" lon="-4.960183">
        <ele>2727.0</ele>
        <time>2015-06-06T13:07:34Z</time>
      </trkpt>
      <trkpt lat="40.223467" lon="-4.960483">
        <ele>2722.0</ele>
        <time>2015-06-06T13:07:36Z</time>
      </trkpt>
      <trkpt lat="40.223367" lon="-4.960783">
        <ele>2718.0</ele>
        <time>2015-06-06T13:07:38Z</time>
      </trkpt>
      <trkpt lat="40.223267" lon="-4.961033">
        <ele>2714.0</ele>
        <time>2015-06-06T13:07:40Z</time>
      </trkpt>
      <trkpt lat="40.223167" lon="-4.961300">
        <ele>2709.0</ele>
        <time>2015-06-06T13:07:42Z</time>
      </trkpt>
      <trkpt lat="40.223067" lon="-4.961550">
        <ele>2705.0</ele>
        <time>2015-06-06T13:07:44Z</time>
      </trkpt>
      <trkpt lat="40.222950" lon="-4.961800">
        <ele>2700.0</ele>
        <time>2015-06-06T13:07:46Z</time>
      </trkpt>
      <trkpt lat="40.222833" lon="-4.962033">
        <ele>2696.0</ele>
        <time>2015-06-06T13:07:48Z</time>
      </trkpt>
      <trkpt lat="40.222717" lon="-4.962250">
        <ele>2693.0</ele>
        <time>2015-06-06T13:07:50Z</time>
      </trkpt>
      <trkpt lat="40.222650" lon="-4.962517">
        <ele>2689.0</ele>
        <time>2015-06-06T13:07:52Z</time>
      </trkpt>
      <trkpt lat="40.222617" lon="-4.962817">
        <ele>2684.0</ele>
        <time>2015-06-06T13:07:54Z</time>
      </trkpt>
      <trkpt lat="40.222567" lon="-4.963133">
        <ele>2680.0</ele>
        <time>2015-06-06T13:07:56Z</time>
      </trkpt>
      <trkpt lat="40.222483" lon="-4.963433">
        <ele>2677.0</ele>
        <time>2015-06-06T13:07:58Z</time>
      </trkpt>
      <trkpt lat="40.222400" lon="-4.963717">
        <ele>2674.0</ele>
        <time>2015-06-06T13:08:00Z</time>
      </trkpt>
      <trkpt lat="40.222317" lon="-4.964000">
        <ele>2670.0</ele>
        <time>2015-06-06T13:08:02Z</time>
      </trkpt>
      <trkpt lat="40.222233" lon="-4.964283">
        <ele>2666.0</ele>
        <time>2015-06-06T13:08:04Z</time>
      </trkpt>
      <trkpt lat="40.222133" lon="-4.964550">
        <ele>2663.0</ele>
        <time>2015-06-06T13:08:06Z</time>
      </trkpt>
      <trkpt lat="40.222050" lon="-4.964800">
        <ele>2660.0</ele>
        <time>2015-06-06T13:08:08Z</time>
      </trkpt>
      <trkpt lat="40.221933" lon="-4.965067">
        <ele>2655.0</ele>
        <time>2015-06-06T13:08:10Z</time>
      </trkpt>
      <trkpt lat="40.221783" lon="-4.965283">
        <ele>2650.0</ele>
        <time>2015-06-06T13:08:12Z</time>
      </trkpt>
      <trkpt lat="40.221683" lon="-4.965500">
        <ele>2647.0</ele>
        <time>2015-06-06T13:08:14Z</time>
      </trkpt>
      <trkpt lat="40.221617" lon="-4.965767">
        <ele>2641.0</ele>
        <time>2015-06-06T13:08:16Z</time>
      </trkpt>
      <trkpt lat="40.221533" lon="-4.966050">
        <ele>2635.0</ele>
        <time>2015-06-06T13:08:18Z</time>
      </trkpt>
      <trkpt lat="40.221483" lon="-4.966350">
        <ele>2630.0</ele>
        <time>2015-06-06T13:08:20Z</time>
      </trkpt>
      <trkpt lat="40.221450" lon="-4.966667">
        <ele>2624.0</ele>
        <time>2015-06-06T13:08:22Z</time>
      </trkpt>
      <trkpt lat="40.221400" lon="-4.966967">
        <ele>2620.0</ele>
        <time>2015-06-06T13:08:24Z</time>
      </trkpt>
      <trkpt lat="40.221350" lon="-4.967267">
        <ele>2616.0</ele>
        <time>2015-06-06T13:08:26Z</time>
      </trkpt>
      <trkpt lat="40.221300" lon="-4.967583">
        <ele>2613.0</ele>
        <time>2015-06-06T13:08:28Z</time>
      </trkpt>
      <trkpt lat="40.221233" lon="-4.967883">
        <ele>2610.0</ele>
        <time>2015-06-06T13:08:30Z</time>
      </trkpt>
      <trkpt lat="40.221167" lon="-4.968167">
        <ele>2607.0</ele>
        <time>2015-06-06T13:08:32Z</time>
      </trkpt>
      <trkpt lat="40.221117" lon="-4.968467">
        <ele>2603.0</ele>
        <time>2015-06-06T13:08:34Z</time>
      </trkpt>
      <trkpt lat="40.221033" lon="-4.968767">
        <ele>2599.0</ele>
        <time>2015-06-06T13:08:36Z</time>
      </trkpt>
      <trkpt lat="40.220950" lon="-4.969050">
        <ele>2597.0</ele>
        <time>2015-06-06T13:08:38Z</time>
      </trkpt>
      <trkpt lat="40.220850" lon="-4.969333">
        <ele>2595.0</ele>
        <time>2015-06-06T13:08:40Z</time>
      </trkpt>
      <trkpt lat="40.220783" lon="-4.969617">
        <ele>2593.0</ele>
        <time>2015-06-06T13:08:42Z</time>
      </trkpt>
      <trkpt lat="40.220717" lon="-4.969917">
        <ele>2590.0</ele>
        <time>2015-06-06T13:08:44Z</time>
      </trkpt>
      <trkpt lat="40.220667" lon="-4.970233">
        <ele>2587.0</ele>
        <time>2015-06-06T13:08:46Z</time>
      </trkpt>
      <trkpt lat="40.220617" lon="-4.970550">
        <ele>2584.0</ele>
        <time>2015-06-06T13:08:48Z</time>
      </trkpt>
      <trkpt lat="40.220550" lon="-4.970867">
        <ele>2581.0</ele>
        <time>2015-06-06T13:08:50Z</time>
      </trkpt>
      <trkpt lat="40.220467" lon="-4.971183">
        <ele>2577.0</ele>
        <time>2015-06-06T13:08:52Z</time>
      </trkpt>
      <trkpt lat="40.220383" lon="-4.971483">
        <ele>2575.0</ele>
        <time>2015-06-06T13:08:54Z</time>
      </trkpt>
      <trkpt lat="40.220317" lon="-4.971767">
        <ele>2573.0</ele>
        <time>2015-06-06T13:08:56Z</time>
      </trkpt>
      <trkpt lat="40.220250" lon="-4.972067">
        <ele>2570.0</ele>
        <time>2015-06-06T13:08:58Z</time>
      </trkpt>
      <trkpt lat="40.220150" lon="-4.972350">
        <ele>2566.0</ele>
        <time>2015-06-06T13:09:00Z</time>
      </trkpt>
      <trkpt lat="40.220067" lon="-4.972633">
        <ele>2562.0</ele>
        <time>2015-06-06T13:09:02Z</time>
      </trkpt>
      <trkpt lat="40.219967" lon="-4.972933">
        <ele>2558.0</ele>
        <time>2015-06-06T13:09:04Z</time>
      </trkpt>
      <trkpt lat="40.219883" lon="-4.973250">
        <ele>2554.0</ele>
        <time>2015-06-06T13:09:06Z</time>
      </trkpt>
      <trkpt lat="40.219817" lon="-4.973567">
        <ele>2553.0</ele>
        <time>2015-06-06T13:09:08Z</time>
      </trkpt>
      <trkpt lat="40.219783" lon="-4.973850">
        <ele>2552.0</ele>
        <time>2015-06-06T13:09:10Z</time>
      </trkpt>
      <trkpt lat="40.219750" lon="-4.974167">
        <ele>2549.0</ele>
        <time>2015-06-06T13:09:12Z</time>
      </trkpt>
      <trkpt lat="40.219700" lon="-4.974500">
        <ele>2546.0</ele>
        <time>2015-06-06T13:09:14Z</time>
      </trkpt>
      <trkpt lat="40.219650" lon="-4.974800">
        <ele>2544.0</ele>
        <time>2015-06-06T13:09:16Z</time>
      </trkpt>
      <trkpt lat="40.219583" lon="-4.975117">
        <ele>2542.0</ele>
        <time>2015-06-06T13:09:18Z</time>
      </trkpt>
      <trkpt lat="40.219517" lon="-4.975433">
        <ele>2540.0</ele>
        <time>2015-06-06T13:09:20Z</time>
      </trkpt>
      <trkpt lat="40.219433" lon="-4.975733">
        <ele>2538.0</ele>
        <time>2015-06-06T13:09:22Z</time>
      </trkpt>
      <trkpt lat="40.219367" lon="-4.976033">
        <ele>2536.0</ele>
        <time>2015-06-06T13:09:24Z</time>
      </trkpt>
      <trkpt lat="40.219317" lon="-4.976350">
        <ele>2534.0</ele>
        <time>2015-06-06T13:09:26Z</time>
      </trkpt>
      <trkpt lat="40.219250" lon="-4.976667">
        <ele>2532.0</ele>
        <time>2015-06-06T13:09:28Z</time>
      </trkpt>
      <trkpt lat="40.219167" lon="-4.976950">
        <ele>2529.0</ele>
        <time>2015-06-06T13:09:30Z</time>
      </trkpt>
      <trkpt lat="40.219067" lon="-4.977250">
        <ele>2527.0</ele>
        <time>2015-06-06T13:09:32Z</time>
      </trkpt>
      <trkpt lat="40.218983" lon="-4.977533">
        <ele>2525.0</ele>
        <time>2015-06-06T13:09:34Z</time>
      </trkpt>
      <trkpt lat="40.218867" lon="-4.977800">
        <ele>2521.0</ele>
        <time>2015-06-06T13:09:36Z</time>
      </trkpt>
      <trkpt lat="40.218733" lon="-4.978067">
        <ele>2518.0</ele>
        <time>2015-06-06T13:09:38Z</time>
      </trkpt>
      <trkpt lat="40.218650" lon="-4.978317">
        <ele>2516.0</ele>
        <time>2015-06-06T13:09:40Z</time>
      </trkpt>
      <trkpt lat="40.218550" lon="-4.978583">
        <ele>2510.0</ele>
        <time>2015-06-06T13:09:42Z</time>
      </trkpt>
      <trkpt lat="40.218400" lon="-4.978833">
        <ele>2504.0</ele>
        <time>2015-06-06T13:09:44Z</time>
      </trkpt>
      <trkpt lat="40.218250" lon="-4.979050">
        <ele>2502.0</ele>
        <time>2015-06-06T13:09:46Z</time>
      </trkpt>
      <trkpt lat="40.218133" lon="-4.979267">
        <ele>2498.0</ele>
        <time>2015-06-06T13:09:48Z</time>
      </trkpt>
      <trkpt lat="40.217983" lon="-4.979467">
        <ele>2492.0</ele>
        <time>2015-06-06T13:09:50Z</time>
      </trkpt>
      <trkpt lat="40.217850" lon="-4.979700">
        <ele>2489.0</ele>
        <time>2015-06-06T13:09:52Z</time>
      </trkpt>
      <trkpt lat="40.217783" lon="-4.979950">
        <ele>2485.0</ele>
        <time>2015-06-06T13:09:54Z</time>
      </trkpt>
      <trkpt lat="40.217700" lon="-4.980233">
        <ele>2479.0</ele>
        <time>2015-06-06T13:09:56Z</time>
      </trkpt>
      <trkpt lat="40.217600" lon="-4.980550">
        <ele>2475.0</ele>
        <time>2015-06-06T13:09:58Z</time>
      </trkpt>
      <trkpt lat="40.217483" lon="-4.980817">
        <ele>2473.0</ele>
        <time>2015-06-06T13:10:00Z</time>
      </trkpt>
      <trkpt lat="40.217400" lon="-4.981083">
        <ele>2468.0</ele>
        <time>2015-06-06T13:10:02Z</time>
      </trkpt>
      <trkpt lat="40.217300" lon="-4.981350">
        <ele>2463.0</ele>
        <time>2015-06-06T13:10:04Z</time>
      </trkpt>
      <trkpt lat="40.217200" lon="-4.981617">
        <ele>2460.0</ele>
        <time>2015-06-06T13:10:06Z</time>
      </trkpt>
      <trkpt lat="40.217117" lon="-4.981883">
        <ele>2457.0</ele>
        <time>2015-06-06T13:10:08Z</time>
      </trkpt>
      <trkpt lat="40.217033" lon="-4.982183">
        <ele>2452.0</ele>
        <time>2015-06-06T13:10:10Z</time>
      </trkpt>
      <trkpt lat="40.216950" lon="-4.982483">
        <ele>2449.0</ele>
        <time>2015-06-06T13:10:12Z</time>
      </trkpt>
      <trkpt lat="40.216867" lon="-4.982767">
        <ele>2447.0</ele>
        <time>2015-06-06T13:10:14Z</time>
      </trkpt>
      <trkpt lat="40.216783" lon="-4.983017">
        <ele>2444.0</ele>
        <time>2015-06-06T13:10:16Z</time>
      </trkpt>
      <trkpt lat="40.216733" lon="-4.983317">
        <ele>2439.0</ele>
        <time>2015-06-06T13:10:18Z</time>
      </trkpt>
      <trkpt lat="40.216650" lon="-4.983617">
        <ele>2434.0</ele>
        <time>2015-06-06T13:10:20Z</time>
      </trkpt>
      <trkpt lat="40.216550" lon="-4.983900">
        <ele>2431.0</ele>
        <time>2015-06-06T13:10:22Z</time>
      </trkpt>
      <trkpt lat="40.216450" lon="-4.984183">
        <ele>2426.0</ele>
        <time>2015-06-06T13:10:24Z</time>
      </trkpt>
      <trkpt lat="40.216333" lon="-4.984483">
        <ele>2423.0</ele>
        <time>2015-06-06T13:10:26Z</time>
      </trkpt>
      <trkpt lat="40.216250" lon="-4.984733">
        <ele>2421.0</ele>
        <time>2015-06-06T13:10:28Z</time>
      </trkpt>
      <trkpt lat="40.216167" lon="-4.985000">
        <ele>2416.0</ele>
        <time>2015-06-06T13:10:30Z</time>
      </trkpt>
      <trkpt lat="40.216067" lon="-4.985300">
        <ele>2409.0</ele>
        <time>2015-06-06T13:10:32Z</time>
      </trkpt>
      <trkpt lat="40.215933" lon="-4.985583">
        <ele>2407.0</ele>
        <time>2015-06-06T13:10:34Z</time>
      </trkpt>
      <trkpt lat="40.215833" lon="-4.985850">
        <ele>2406.0</ele>
        <time>2015-06-06T13:10:36Z</time>
      </trkpt>
      <trkpt lat="40.215750" lon="-4.986150">
        <ele>2401.0</ele>
        <time>2015-06-06T13:10:38Z</time>
      </trkpt>
      <trkpt lat="40.215650" lon="-4.986483">
        <ele>2397.0</ele>
        <time>2015-06-06T13:10:40Z</time>
      </trkpt>
      <trkpt lat="40.215533" lon="-4.986783">
        <ele>2396.0</ele>
        <time>2015-06-06T13:10:42Z</time>
      </trkpt>
      <trkpt lat="40.215433" lon="-4.987050">
        <ele>2393.0</ele>
        <time>2015-06-06T13:10:44Z</time>
      </trkpt>
      <trkpt lat="40.215300" lon="-4.987333">
        <ele>2388.0</ele>
        <time>2015-06-06T13:10:46Z</time>
      </trkpt>
      <trkpt lat="40.215167" lon="-4.987633">
        <ele>2385.0</ele>
        <time>2015-06-06T13:10:48Z</time>
      </trkpt>
      <trkpt lat="40.215067" lon="-4.987900">
        <ele>2383.0</ele>
        <time>2015-06-06T13:10:50Z</time>
      </trkpt>
      <trkpt lat="40.214967" lon="-4.988183">
        <ele>2377.0</ele>
        <time>2015-06-06T13:10:52Z</time>
      </trkpt>
      <trkpt lat="40.214833" lon="-4.988483">
        <ele>2373.0</ele>
        <time>2015-06-06T13:10:54Z</time>
      </trkpt>
      <trkpt lat="40.214717" lon="-4.988733">
        <ele>2372.0</ele>
        <time>2015-06-06T13:10:56Z</time>
      </trkpt>
      <trkpt lat="40.214583" lon="-4.988967">
        <ele>2367.0</ele>
        <time>2015-06-06T13:10:58Z</time>
      </trkpt>
      <trkpt lat="40.214433" lon="-4.989233">
        <ele>2361.0</ele>
        <time>2015-06-06T13:11:00Z</time>
      </trkpt>
      <trkpt lat="40.214283" lon="-4.989483">
        <ele>2358.0</ele>
        <time>2015-06-06T13:11:02Z</time>
      </trkpt>
      <trkpt lat="40.214167" lon="-4.989717">
        <ele>2355.0</ele>
        <time>2015-06-06T13:11:04Z</time>
      </trkpt>
      <trkpt lat="40.214067" lon="-4.990000">
        <ele>2349.0</ele>
        <time>2015-06-06T13:11:06Z</time>
      </trkpt>
      <trkpt lat="40.213933" lon="-4.990300">
        <ele>2346.0</ele>
        <time>2015-06-06T13:11:08Z</time>
      </trkpt>
      <trkpt lat="40.213800" lon="-4.990567">
        <ele>2343.0</ele>
        <time>2015-06-06T13:11:10Z</time>
      </trkpt>
      <trkpt lat="40.213683" lon="-4.990850">
        <ele>2341.0</ele>
        <time>2015-06-06T13:11:12Z</time>
      </trkpt>
      <trkpt lat="40.213583" lon="-4.991167">
        <ele>2339.0</ele>
        <time>2015-06-06T13:11:14Z</time>
      </trkpt>
      <trkpt lat="40.213483" lon="-4.991450">
        <ele>2336.0</ele>
        <time>2015-06-06T13:11:16Z</time>
      </trkpt>
      <trkpt lat="40.213350" lon="-4.991750">
        <ele>2332.0</ele>
        <time>2015-06-06T13:11:18Z</time>
      </trkpt>
      <trkpt lat="40.213233" lon="-4.992033">
        <ele>2329.0</ele>
        <time>2015-06-06T13:11:20Z</time>
      </trkpt>
      <trkpt lat="40.213100" lon="-4.992267">
        <ele>2327.0</ele>
        <time>2015-06-06T13:11:22Z</time>
      </trkpt>
      <trkpt lat="40.213017" lon="-4.992533">
        <ele>2323.0</ele>
        <time>2015-06-06T13:11:24Z</time>
      </trkpt>
      <trkpt lat="40.212950" lon="-4.992833">
        <ele>2318.0</ele>
        <time>2015-06-06T13:11:26Z</time>
      </trkpt>
      <trkpt lat="40.212850" lon="-4.993133">
        <ele>2313.0</ele>
        <time>2015-06-06T13:11:28Z</time>
      </trkpt>
      <trkpt lat="40.212733" lon="-4.993400">
        <ele>2309.0</ele>
        <time>2015-06-06T13:11:30Z</time>
      </trkpt>
      <trkpt lat="40.212617" lon="-4.993650">
        <ele>2304.0</ele>
        <time>2015-06-06T13:11:32Z</time>
      </trkpt>
      <trkpt lat="40.212500" lon="-4.993883">
        <ele>2300.0</ele>
        <time>2015-06-06T13:11:34Z</time>
      </trkpt>
      <trkpt lat="40.212400" lon="-4.994117">
        <ele>2296.0</ele>
        <time>2015-06-06T13:11:36Z</time>
      </trkpt>
      <trkpt lat="40.212317" lon="-4.994350">
        <ele>2290.0</ele>
        <time>2015-06-06T13:11:38Z</time>
      </trkpt>
      <trkpt lat="40.212233" lon="-4.994633">
        <ele>2283.0</ele>
        <time>2015-06-06T13:11:40Z</time>
      </trkpt>
      <trkpt lat="40.212133" lon="-4.994900">
        <ele>2279.0</ele>
        <time>2015-06-06T13:11:42Z</time>
      </trkpt>
      <trkpt lat="40.212033" lon="-4.995133">
        <ele>2275.0</ele>
        <time>2015-06-06T13:11:44Z</time>
      </trkpt>
      <trkpt lat="40.211933" lon="-4.995367">
        <ele>2269.0</ele>
        <time>2015-06-06T13:11:46Z</time>
      </trkpt>
      <trkpt lat="40.211817" lon="-4.995633">
        <ele>2263.0</ele>
        <time>2015-06-06T13:11:48Z</time>
      </trkpt>
      <trkpt lat="40.211717" lon="-4.995867">
        <ele>2261.0</ele>
        <time>2015-06-06T13:11:50Z</time>
      </trkpt>
      <trkpt lat="40.211650" lon="-4.996083">
        <ele>2256.0</ele>
        <time>2015-06-06T13:11:52Z</time>
      </trkpt>
      <trkpt lat="40.211600" lon="-4.996350">
        <ele>2249.0</ele>
        <time>2015-06-06T13:11:54Z</time>
      </trkpt>
      <trkpt lat="40.211533" lon="-4.996633">
        <ele>2243.0</ele>
        <time>2015-06-06T13:11:56Z</time>
      </trkpt>
      <trkpt lat="40.211467" lon="-4.996900">
        <ele>2238.0</ele>
        <time>2015-06-06T13:11:58Z</time>
      </trkpt>
      <trkpt lat="40.211400" lon="-4.997150">
        <ele>2232.0</ele>
        <time>2015-06-06T13:12:00Z</time>
      </trkpt>
      <trkpt lat="40.211300" lon="-4.997400">
        <ele>2225.0</ele>
        <time>2015-06-06T13:12:02Z</time>
      </trkpt>
      <trkpt lat="40.211183" lon="-4.997650">
        <ele>2220.0</ele>
        <time>2015-06-06T13:12:04Z</time>
      </trkpt>
      <trkpt lat="40.211067" lon="-4.997883">
        <ele>2215.0</ele>
        <time>2015-06-06T13:12:06Z</time>
      </trkpt>
      <trkpt lat="40.210950" lon="-4.998083">
        <ele>2209.0</ele>
        <time>2015-06-06T13:12:08Z</time>
      </trkpt>
      <trkpt lat="40.210817" lon="-4.998317">
        <ele>2202.0</ele>
        <time>2015-06-06T13:12:10Z</time>
      </trkpt>
      <trkpt lat="40.210683" lon="-4.998533">
        <ele>2196.0</ele>
        <time>2015-06-06T13:12:12Z</time>
      </trkpt>
      <trkpt lat="40.210567" lon="-4.998733">
        <ele>2189.0</ele>
        <time>2015-06-06T13:12:14Z</time>
      </trkpt>
      <trkpt lat="40.210417" lon="-4.998950">
        <ele>2182.0</ele>
        <time>2015-06-06T13:12:16Z</time>
      </trkpt>
      <trkpt lat="40.210283" lon="-4.999167">
        <ele>2176.0</ele>
        <time>2015-06-06T13:12:18Z</time>
      </trkpt>
      <trkpt lat="40.210183" lon="-4.999400">
        <ele>2170.0</ele>
        <time>2015-06-06T13:12:20Z</time>
      </trkpt>
      <trkpt lat="40.210117" lon="-4.999667">
        <ele>2163.0</ele>
        <time>2015-06-06T13:12:22Z</time>
      </trkpt>
      <trkpt lat="40.210050" lon="-4.999967">
        <ele>2156.0</ele>
        <time>2015-06-06T13:12:24Z</time>
      </trkpt>
      <trkpt lat="40.210017" lon="-5.000250">
        <ele>2150.0</ele>
        <time>2015-06-06T13:12:26Z</time>
      </trkpt>
      <trkpt lat="40.209967" lon="-5.000550">
        <ele>2144.0</ele>
        <time>2015-06-06T13:12:28Z</time>
      </trkpt>
      <trkpt lat="40.209900" lon="-5.000833">
        <ele>2138.0</ele>
        <time>2015-06-06T13:12:30Z</time>
      </trkpt>
      <trkpt lat="40.209817" lon="-5.001100">
        <ele>2133.0</ele>
        <time>2015-06-06T13:12:32Z</time>
      </trkpt>
      <trkpt lat="40.209717" lon="-5.001317">
        <ele>2128.0</ele>
        <time>2015-06-06T13:12:34Z</time>
      </trkpt>
      <trkpt lat="40.209583" lon="-5.001550">
        <ele>2122.0</ele>
        <time>2015-06-06T13:12:36Z</time>
      </trkpt>
      <trkpt lat="40.209433" lon="-5.001767">
        <ele>2117.0</ele>
        <time>2015-06-06T13:12:38Z</time>
      </trkpt>
      <trkpt lat="40.209283" lon="-5.001950">
        <ele>2114.0</ele>
        <time>2015-06-06T13:12:40Z</time>
      </trkpt>
      <trkpt lat="40.209133" lon="-5.002150">
        <ele>2110.0</ele>
        <time>2015-06-06T13:12:42Z</time>
      </trkpt>
      <trkpt lat="40.208983" lon="-5.002367">
        <ele>2105.0</ele>
        <time>2015-06-06T13:12:44Z</time>
      </trkpt>
      <trkpt lat="40.208833" lon="-5.002550">
        <ele>2102.0</ele>
        <time>2015-06-06T13:12:46Z</time>
      </trkpt>
      <trkpt lat="40.208700" lon="-5.002767">
        <ele>2097.0</ele>
        <time>2015-06-06T13:12:48Z</time>
      </trkpt>
      <trkpt lat="40.208567" lon="-5.002983">
        <ele>2091.0</ele>
        <time>2015-06-06T13:12:50Z</time>
      </trkpt>
      <trkpt lat="40.208417" lon="-5.003183">
        <ele>2087.0</ele>
        <time>2015-06-06T13:12:52Z</time>
      </trkpt>
      <trkpt lat="40.208283" lon="-5.003383">
        <ele>2081.0</ele>
        <time>2015-06-06T13:12:54Z</time>
      </trkpt>
      <trkpt lat="40.208150" lon="-5.003583">
        <ele>2075.0</ele>
        <time>2015-06-06T13:12:56Z</time>
      </trkpt>
      <trkpt lat="40.208000" lon="-5.003783">
        <ele>2069.0</ele>
        <time>2015-06-06T13:12:58Z</time>
      </trkpt>
      <trkpt lat="40.207867" lon="-5.003967">
        <ele>2064.0</ele>
        <time>2015-06-06T13:13:00Z</time>
      </trkpt>
      <trkpt lat="40.207700" lon="-5.004150">
        <ele>2057.0</ele>
        <time>2015-06-06T13:13:02Z</time>
      </trkpt>
      <trkpt lat="40.207550" lon="-5.004317">
        <ele>2051.0</ele>
        <time>2015-06-06T13:13:04Z</time>
      </trkpt>
      <trkpt lat="40.207383" lon="-5.004467">
        <ele>2045.0</ele>
        <time>2015-06-06T13:13:06Z</time>
      </trkpt>
      <trkpt lat="40.207233" lon="-5.004600">
        <ele>2037.0</ele>
        <time>2015-06-06T13:13:08Z</time>
      </trkpt>
      <trkpt lat="40.207067" lon="-5.004750">
        <ele>2028.0</ele>
        <time>2015-06-06T13:13:10Z</time>
      </trkpt>
      <trkpt lat="40.206900" lon="-5.004933">
        <ele>2020.0</ele>
        <time>2015-06-06T13:13:12Z</time>
      </trkpt>
      <trkpt lat="40.206700" lon="-5.005100">
        <ele>2013.0</ele>
        <time>2015-06-06T13:13:14Z</time>
      </trkpt>
      <trkpt lat="40.206517" lon="-5.005267">
        <ele>2006.0</ele>
        <time>2015-06-06T13:13:16Z</time>
      </trkpt>
      <trkpt lat="40.206317" lon="-5.005467">
        <ele>2000.0</ele>
        <time>2015-06-06T13:13:18Z</time>
      </trkpt>
      <trkpt lat="40.206150" lon="-5.005667">
        <ele>1993.0</ele>
        <time>2015-06-06T13:13:20Z</time>
      </trkpt>
      <trkpt lat="40.205967" lon="-5.005900">
        <ele>1986.0</ele>
        <time>2015-06-06T13:13:22Z</time>
      </trkpt>
      <trkpt lat="40.205783" lon="-5.006150">
        <ele>1980.0</ele>
        <time>2015-06-06T13:13:24Z</time>
      </trkpt>
      <trkpt lat="40.205617" lon="-5.006400">
        <ele>1975.0</ele>
        <time>2015-06-06T13:13:26Z</time>
      </trkpt>
      <trkpt lat="40.205433" lon="-5.006650">
        <ele>1969.0</ele>
        <time>2015-06-06T13:13:28Z</time>
      </trkpt>
      <trkpt lat="40.205283" lon="-5.006900">
        <ele>1965.0</ele>
        <time>2015-06-06T13:13:30Z</time>
      </trkpt>
      <trkpt lat="40.205133" lon="-5.007133">
        <ele>1961.0</ele>
        <time>2015-06-06T13:13:32Z</time>
      </trkpt>
      <trkpt lat="40.204983" lon="-5.007383">
        <ele>1954.0</ele>
        <time>2015-06-06T13:13:34Z</time>
      </trkpt>
      <trkpt lat="40.204817" lon="-5.007650">
        <ele>1947.0</ele>
        <time>2015-06-06T13:13:36Z</time>
      </trkpt>
      <trkpt lat="40.204667" lon="-5.007933">
        <ele>1943.0</ele>
        <time>2015-06-06T13:13:38Z</time>
      </trkpt>
      <trkpt lat="40.204533" lon="-5.008200">
        <ele>1937.0</ele>
        <time>2015-06-06T13:13:40Z</time>
      </trkpt>
      <trkpt lat="40.204400" lon="-5.008467">
        <ele>1931.0</ele>
        <time>2015-06-06T13:13:42Z</time>
      </trkpt>
      <trkpt lat="40.204250" lon="-5.008750">
        <ele>1926.0</ele>
        <time>2015-06-06T13:13:44Z</time>
      </trkpt>
      <trkpt lat="40.204133" lon="-5.009033">
        <ele>1922.0</ele>
        <time>2015-06-06T13:13:46Z</time>
      </trkpt>
      <trkpt lat="40.204000" lon="-5.009350">
        <ele>1917.0</ele>
        <time>2015-06-06T13:13:48Z</time>
      </trkpt>
      <trkpt lat="40.203900" lon="-5.009667">
        <ele>1912.0</ele>
        <time>2015-06-06T13:13:50Z</time>
      </trkpt>
      <trkpt lat="40.203783" lon="-5.010017">
        <ele>1907.0</ele>
        <time>2015-06-06T13:13:52Z</time>
      </trkpt>
      <trkpt lat="40.203667" lon="-5.010367">
        <ele>1904.0</ele>
        <time>2015-06-06T13:13:54Z</time>
      </trkpt>
      <trkpt lat="40.203567" lon="-5.010683">
        <ele>1903.0</ele>
        <time>2015-06-06T13:13:56Z</time>
      </trkpt>
      <trkpt lat="40.203483" lon="-5.010983">
        <ele>1901.0</ele>
        <time>2015-06-06T13:13:58Z</time>
      </trkpt>
      <trkpt lat="40.203383" lon="-5.011283">
        <ele>1898.0</ele>
        <time>2015-06-06T13:14:00Z</time>
      </trkpt>
      <trkpt lat="40.203283" lon="-5.011567">
        <ele>1895.0</ele>
        <time>2015-06-06T13:14:02Z</time>
      </trkpt>
      <trkpt lat="40.203183" lon="-5.011850">
        <ele>1894.0</ele>
        <time>2015-06-06T13:14:04Z</time>
      </trkpt>
      <trkpt lat="40.203083" lon="-5.012150">
        <ele>1891.0</ele>
        <time>2015-06-06T13:14:06Z</time>
      </trkpt>
      <trkpt lat="40.202967" lon="-5.012450">
        <ele>1887.0</ele>
        <time>2015-06-06T13:14:08Z</time>
      </trkpt>
      <trkpt lat="40.202867" lon="-5.012733">
        <ele>1885.0</ele>
        <time>2015-06-06T13:14:10Z</time>
      </trkpt>
      <trkpt lat="40.202767" lon="-5.012983">
        <ele>1881.0</ele>
        <time>2015-06-06T13:14:12Z</time>
      </trkpt>
      <trkpt lat="40.202650" lon="-5.013283">
        <ele>1876.0</ele>
        <time>2015-06-06T13:14:14Z</time>
      </trkpt>
      <trkpt lat="40.202533" lon="-5.013567">
        <ele>1873.0</ele>
        <time>2015-06-06T13:14:16Z</time>
      </trkpt>
      <trkpt lat="40.202383" lon="-5.013817">
        <ele>1870.0</ele>
        <time>2015-06-06T13:14:18Z</time>
      </trkpt>
      <trkpt lat="40.202267" lon="-5.014050">
        <ele>1867.0</ele>
        <time>2015-06-06T13:14:20Z</time>
      </trkpt>
      <trkpt lat="40.202133" lon="-5.014317">
        <ele>1864.0</ele>
        <time>2015-06-06T13:14:22Z</time>
      </trkpt>
      <trkpt lat="40.202000" lon="-5.014600">
        <ele>1862.0</ele>
        <time>2015-06-06T13:14:24Z</time>
      </trkpt>
      <trkpt lat="40.201883" lon="-5.014867">
        <ele>1860.0</ele>
        <time>2015-06-06T13:14:26Z</time>
      </trkpt>
      <trkpt lat="40.201750" lon="-5.015100">
        <ele>1858.0</ele>
        <time>2015-06-06T13:14:28Z</time>
      </trkpt>
      <trkpt lat="40.201617" lon="-5.015350">
        <ele>1854.0</ele>
        <time>2015-06-06T13:14:30Z</time>
      </trkpt>
      <trkpt lat="40.201500" lon="-5.015600">
        <ele>1850.0</ele>
        <time>2015-06-06T13:14:32Z</time>
      </trkpt>
      <trkpt lat="40.201367" lon="-5.015883">
        <ele>1847.0</ele>
        <time>2015-06-06T13:14:34Z</time>
      </trkpt>
      <trkpt lat="40.201250" lon="-5.016150">
        <ele>1844.0</ele>
        <time>2015-06-06T13:14:36Z</time>
      </trkpt>
      <trkpt lat="40.201117" lon="-5.016400">
        <ele>1842.0</ele>
        <time>2015-06-06T13:14:38Z</time>
      </trkpt>
      <trkpt lat="40.200983" lon="-5.016650">
        <ele>1839.0</ele>
        <time>2015-06-06T13:14:40Z</time>
      </trkpt>
      <trkpt lat="40.200850" lon="-5.016883">
        <ele>1837.0</ele>
        <time>2015-06-06T13:14:42Z</time>
      </trkpt>
      <trkpt lat="40.200733" lon="-5.017067">
        <ele>1839.0</ele>
        <time>2015-06-06T13:14:44Z</time>
      </trkpt>
      <trkpt lat="40.200617" lon="-5.017233">
        <ele>1839.0</ele>
        <time>2015-06-06T13:14:46Z</time>
      </trkpt>
      <trkpt lat="40.200417" lon="-5.017383">
        <ele>1839.0</ele>
        <time>2015-06-06T13:14:48Z</time>
      </trkpt>
      <trkpt lat="40.200217" lon="-5.017500">
        <ele>1846.0</ele>
        <time>2015-06-06T13:14:50Z</time>
      </trkpt>
      <trkpt lat="40.200067" lon="-5.017600">
        <ele>1855.0</ele>
        <time>2015-06-06T13:14:52Z</time>
      </trkpt>
      <trkpt lat="40.199950" lon="-5.017783">
        <ele>1861.0</ele>
        <time>2015-06-06T13:14:54Z</time>
      </trkpt>
      <trkpt lat="40.199833" lon="-5.018083">
        <ele>1864.0</ele>
        <time>2015-06-06T13:14:56Z</time>
      </trkpt>
      <trkpt lat="40.199783" lon="-5.018450">
        <ele>1869.0</ele>
        <time>2015-06-06T13:14:58Z</time>
      </trkpt>
      <trkpt lat="40.199833" lon="-5.018833">
        <ele>1875.0</ele>
        <time>2015-06-06T13:15:00Z</time>
      </trkpt>
      <trkpt lat="40.199950" lon="-5.019133">
        <ele>1881.0</ele>
        <time>2015-06-06T13:15:02Z</time>
      </trkpt>
      <trkpt lat="40.200150" lon="-5.019317">
        <ele>1884.0</ele>
        <time>2015-06-06T13:15:04Z</time>
      </trkpt>
      <trkpt lat="40.200317" lon="-5.019350">
        <ele>1891.0</ele>
        <time>2015-06-06T13:15:06Z</time>
      </trkpt>
      <trkpt lat="40.200383" lon="-5.019283">
        <ele>1900.0</ele>
        <time>2015-06-06T13:15:08Z</time>
      </trkpt>
      <trkpt lat="40.200367" lon="-5.019233">
        <ele>1907.0</ele>
        <time>2015-06-06T13:15:10Z</time>
      </trkpt>
      <trkpt lat="40.200250" lon="-5.019217">
        <ele>1913.0</ele>
        <time>2015-06-06T13:15:12Z</time>
      </trkpt>
      <trkpt lat="40.200067" lon="-5.019267">
        <ele>1921.0</ele>
        <time>2015-06-06T13:15:14Z</time>
      </trkpt>
      <trkpt lat="40.199950" lon="-5.019433">
        <ele>1929.0</ele>
        <time>2015-06-06T13:15:16Z</time>
      </trkpt>
      <trkpt lat="40.199833" lon="-5.019633">
        <ele>1930.0</ele>
        <time>2015-06-06T13:15:18Z</time>
      </trkpt>
      <trkpt lat="40.199650" lon="-5.019850">
        <ele>1932.0</ele>
        <time>2015-06-06T13:15:20Z</time>
      </trkpt>
      <trkpt lat="40.199483" lon="-5.020167">
        <ele>1939.0</ele>
        <time>2015-06-06T13:15:22Z</time>
      </trkpt>
      <trkpt lat="40.199417" lon="-5.020517">
        <ele>1946.0</ele>
        <time>2015-06-06T13:15:24Z</time>
      </trkpt>
      <trkpt lat="40.199433" lon="-5.020867">
        <ele>1951.0</ele>
        <time>2015-06-06T13:15:26Z</time>
      </trkpt>
      <trkpt lat="40.199550" lon="-5.021233">
        <ele>1954.0</ele>
        <time>2015-06-06T13:15:28Z</time>
      </trkpt>
      <trkpt lat="40.199733" lon="-5.021450">
        <ele>1961.0</ele>
        <time>2015-06-06T13:15:30Z</time>
      </trkpt>
      <trkpt lat="40.199900" lon="-5.021533">
        <ele>1969.0</ele>
        <time>2015-06-06T13:15:32Z</time>
      </trkpt>
      <trkpt lat="40.200033" lon="-5.021550">
        <ele>1975.0</ele>
        <time>2015-06-06T13:15:34Z</time>
      </trkpt>
      <trkpt lat="40.200100" lon="-5.021450">
        <ele>1981.0</ele>
        <time>2015-06-06T13:15:36Z</time>
      </trkpt>
      <trkpt lat="40.200067" lon="-5.021350">
        <ele>1988.0</ele>
        <time>2015-06-06T13:15:38Z</time>
      </trkpt>
      <trkpt lat="40.199967" lon="-5.021350">
        <ele>1996.0</ele>
        <time>2015-06-06T13:15:40Z</time>
      </trkpt>
      <trkpt lat="40.199817" lon="-5.021433">
        <ele>2002.0</ele>
        <time>2015-06-06T13:15:42Z</time>
      </trkpt>
      <trkpt lat="40.199633" lon="-5.021600">
        <ele>2008.0</ele>
        <time>2015-06-06T13:15:44Z</time>
      </trkpt>
      <trkpt lat="40.199467" lon="-5.021867">
        <ele>2017.0</ele>
        <time>2015-06-06T13:15:46Z</time>
      </trkpt>
      <trkpt lat="40.199350" lon="-5.022150">
        <ele>2025.0</ele>
        <time>2015-06-06T13:15:48Z</time>
      </trkpt>
      <trkpt lat="40.199283" lon="-5.022517">
        <ele>2030.0</ele>
        <time>2015-06-06T13:15:50Z</time>
      </trkpt>
      <trkpt lat="40.199317" lon="-5.022917">
        <ele>2036.0</ele>
        <time>2015-06-06T13:15:52Z</time>
      </trkpt>
      <trkpt lat="40.199450" lon="-5.023267">
        <ele>2043.0</ele>
        <time>2015-06-06T13:15:54Z</time>
      </trkpt>
      <trkpt lat="40.199617" lon="-5.023517">
        <ele>2049.0</ele>
        <time>2015-06-06T13:15:56Z</time>
      </trkpt>
      <trkpt lat="40.199817" lon="-5.023650">
        <ele>2054.0</ele>
        <time>2015-06-06T13:15:58Z</time>
      </trkpt>
      <trkpt lat="40.199983" lon="-5.023650">
        <ele>2060.0</ele>
        <time>2015-06-06T13:16:00Z</time>
      </trkpt>
      <trkpt lat="40.200050" lon="-5.023567">
        <ele>2066.0</ele>
        <time>2015-06-06T13:16:02Z</time>
      </trkpt>
      <trkpt lat="40.200033" lon="-5.023483">
        <ele>2073.0</ele>
        <time>2015-06-06T13:16:04Z</time>
      </trkpt>
      <trkpt lat="40.199917" lon="-5.023467">
        <ele>2080.0</ele>
        <time>2015-06-06T13:16:06Z</time>
      </trkpt>
      <trkpt lat="40.199750" lon="-5.023550">
        <ele>2086.0</ele>
        <time>2015-06-06T13:16:08Z</time>
      </trkpt>
      <trkpt lat="40.199567" lon="-5.023750">
        <ele>2096.0</ele>
        <time>2015-06-06T13:16:10Z</time>
      </trkpt>
      <trkpt lat="40.199433" lon="-5.024017">
        <ele>2105.0</ele>
        <time>2015-06-06T13:16:12Z</time>
      </trkpt>
      <trkpt lat="40.199317" lon="-5.024333">
        <ele>2111.0</ele>
        <time>2015-06-06T13:16:14Z</time>
      </trkpt>
      <trkpt lat="40.199283" lon="-5.024733">
        <ele>2119.0</ele>
        <time>2015-06-06T13:16:16Z</time>
      </trkpt>
      <trkpt lat="40.199300" lon="-5.025083">
        <ele>2129.0</ele>
        <time>2015-06-06T13:16:18Z</time>
      </trkpt>
      <trkpt lat="40.199317" lon="-5.025400">
        <ele>2133.0</ele>
        <time>2015-06-06T13:16:20Z</time>
      </trkpt>
      <trkpt lat="40.199400" lon="-5.025717">
        <ele>2136.0</ele>
        <time>2015-06-06T13:16:22Z</time>
      </trkpt>
      <trkpt lat="40.199550" lon="-5.025950">
        <ele>2140.0</ele>
        <time>2015-06-06T13:16:24Z</time>
      </trkpt>
      <trkpt lat="40.199717" lon="-5.026100">
        <ele>2143.0</ele>
        <time>2015-06-06T13:16:26Z</time>
      </trkpt>
      <trkpt lat="40.199900" lon="-5.026233">
        <ele>2148.0</ele>
        <time>2015-06-06T13:16:28Z</time>
      </trkpt>
      <trkpt lat="40.200033" lon="-5.026200">
        <ele>2152.0</ele>
        <time>2015-06-06T13:16:30Z</time>
      </trkpt>
      <trkpt lat="40.200100" lon="-5.026117">
        <ele>2158.0</ele>
        <time>2015-06-06T13:16:32Z</time>
      </trkpt>
      <trkpt lat="40.200083" lon="-5.026017">
        <ele>2164.0</ele>
        <time>2015-06-06T13:16:34Z</time>
      </trkpt>
      <trkpt lat="40.200000" lon="-5.025983">
        <ele>2172.0</ele>
        <time>2015-06-06T13:16:36Z</time>
      </trkpt>
      <trkpt lat="40.199850" lon="-5.026050">
        <ele>2181.0</ele>
        <time>2015-06-06T13:16:38Z</time>
      </trkpt>
      <trkpt lat="40.199700" lon="-5.026217">
        <ele>2188.0</ele>
        <time>2015-06-06T13:16:40Z</time>
      </trkpt>
      <trkpt lat="40.199533" lon="-5.026483">
        <ele>2193.0</ele>
        <time>2015-06-06T13:16:42Z</time>
      </trkpt>
      <trkpt lat="40.199417" lon="-5.026850">
        <ele>2200.0</ele>
        <time>2015-06-06T13:16:44Z</time>
      </trkpt>
      <trkpt lat="40.199400" lon="-5.027200">
        <ele>2208.0</ele>
        <time>2015-06-06T13:16:46Z</time>
      </trkpt>
      <trkpt lat="40.199467" lon="-5.027533">
        <ele>2212.0</ele>
        <time>2015-06-06T13:16:48Z</time>
      </trkpt>
      <trkpt lat="40.199583" lon="-5.027817">
        <ele>2216.0</ele>
        <time>2015-06-06T13:16:50Z</time>
      </trkpt>
      <trkpt lat="40.199733" lon="-5.028000">
        <ele>2219.0</ele>
        <time>2015-06-06T13:16:52Z</time>
      </trkpt>
      <trkpt lat="40.199917" lon="-5.028083">
        <ele>2222.0</ele>
        <time>2015-06-06T13:16:54Z</time>
      </trkpt>
      <trkpt lat="40.200033" lon="-5.028083">
        <ele>2229.0</ele>
        <time>2015-06-06T13:16:56Z</time>
      </trkpt>
      <trkpt lat="40.200050" lon="-5.028017">
        <ele>2233.0</ele>
        <time>2015-06-06T13:16:58Z</time>
      </trkpt>
      <trkpt lat="40.200017" lon="-5.027900">
        <ele>2238.0</ele>
        <time>2015-06-06T13:17:00Z</time>
      </trkpt>
      <trkpt lat="40.199900" lon="-5.027833">
        <ele>2245.0</ele>
        <time>2015-06-06T13:17:02Z</time>
      </trkpt>
      <trkpt lat="40.199733" lon="-5.027917">
        <ele>2252.0</ele>
        <time>2015-06-06T13:17:04Z</time>
      </trkpt>
      <trkpt lat="40.199567" lon="-5.028117">
        <ele>2260.0</ele>
        <time>2015-06-06T13:17:06Z</time>
      </trkpt>
      <trkpt lat="40.199433" lon="-5.028383">
        <ele>2269.0</ele>
        <time>2015-06-06T13:17:08Z</time>
      </trkpt>
      <trkpt lat="40.199350" lon="-5.028733">
        <ele>2273.0</ele>
        <time>2015-06-06T13:17:10Z</time>
      </trkpt>
      <trkpt lat="40.199350" lon="-5.029117">
        <ele>2278.0</ele>
        <time>2015-06-06T13:17:12Z</time>
      </trkpt>
      <trkpt lat="40.199450" lon="-5.029417">
        <ele>2284.0</ele>
        <time>2015-06-06T13:17:14Z</time>
      </trkpt>
      <trkpt lat="40.199600" lon="-5.029633">
        <ele>2288.0</ele>
        <time>2015-06-06T13:17:16Z</time>
      </trkpt>
      <trkpt lat="40.199767" lon="-5.029700">
        <ele>2290.0</ele>
        <time>2015-06-06T13:17:18Z</time>
      </trkpt>
      <trkpt lat="40.199883" lon="-5.029633">
        <ele>2295.0</ele>
        <time>2015-06-06T13:17:20Z</time>
      </trkpt>
      <trkpt lat="40.199900" lon="-5.029533">
        <ele>2305.0</ele>
        <time>2015-06-06T13:17:22Z</time>
      </trkpt>
      <trkpt lat="40.199850" lon="-5.029500">
        <ele>2313.0</ele>
        <time>2015-06-06T13:17:24Z</time>
      </trkpt>
      <trkpt lat="40.199750" lon="-5.029483">
        <ele>2317.0</ele>
        <time>2015-06-06T13:17:26Z</time>
      </trkpt>
      <trkpt lat="40.199583" lon="-5.029533">
        <ele>2321.0</ele>
        <time>2015-06-06T13:17:28Z</time>
      </trkpt>
      <trkpt lat="40.199400" lon="-5.029717">
        <ele>2329.0</ele>
        <time>2015-06-06T13:17:30Z</time>
      </trkpt>
      <trkpt lat="40.199267" lon="-5.030000">
        <ele>2337.0</ele>
        <time>2015-06-06T13:17:32Z</time>
      </trkpt>
      <trkpt lat="40.199200" lon="-5.030350">
        <ele>2342.0</ele>
        <time>2015-06-06T13:17:34Z</time>
      </trkpt>
      <trkpt lat="40.199233" lon="-5.030717">
        <ele>2346.0</ele>
        <time>2015-06-06T13:17:36Z</time>
      </trkpt>
      <trkpt lat="40.199350" lon="-5.031017">
        <ele>2353.0</ele>
        <time>2015-06-06T13:17:38Z</time>
      </trkpt>
      <trkpt lat="40.199483" lon="-5.031217">
        <ele>2359.0</ele>
        <time>2015-06-06T13:17:40Z</time>
      </trkpt>
      <trkpt lat="40.199633" lon="-5.031317">
        <ele>2363.0</ele>
        <time>2015-06-06T13:17:42Z</time>
      </trkpt>
      <trkpt lat="40.199750" lon="-5.031267">
        <ele>2367.0</ele>
        <time>2015-06-06T13:17:44Z</time>
      </trkpt>
      <trkpt lat="40.199717" lon="-5.031167">
        <ele>2372.0</ele>
        <time>2015-06-06T13:17:46Z</time>
      </trkpt>
      <trkpt lat="40.199583" lon="-5.031150">
        <ele>2380.0</ele>
        <time>2015-06-06T13:17:48Z</time>
      </trkpt>
      <trkpt lat="40.199433" lon="-5.031233">
        <ele>2389.0</ele>
        <time>2015-06-06T13:17:50Z</time>
      </trkpt>
      <trkpt lat="40.199267" lon="-5.031367">
        <ele>2394.0</ele>
        <time>2015-06-06T13:17:52Z</time>
      </trkpt>
      <trkpt lat="40.199083" lon="-5.031617">
        <ele>2398.0</ele>
        <time>2015-06-06T13:17:54Z</time>
      </trkpt>
      <trkpt lat="40.198950" lon="-5.031950">
        <ele>2404.0</ele>
        <time>2015-06-06T13:17:56Z</time>
      </trkpt>
      <trkpt lat="40.198867" lon="-5.032333">
        <ele>2409.0</ele>
        <time>2015-06-06T13:17:58Z</time>
      </trkpt>
      <trkpt lat="40.198850" lon="-5.032733">
        <ele>2412.0</ele>
        <time>2015-06-06T13:18:00Z</time>
      </trkpt>
      <trkpt lat="40.198967" lon="-5.033100">
        <ele>2415.0</ele>
        <time>2015-06-06T13:18:02Z</time>
      </trkpt>
      <trkpt lat="40.199133" lon="-5.033333">
        <ele>2422.0</ele>
        <time>2015-06-06T13:18:04Z</time>
      </trkpt>
      <trkpt lat="40.199267" lon="-5.033500">
        <ele>2426.0</ele>
        <time>2015-06-06T13:18:06Z</time>
      </trkpt>
      <trkpt lat="40.199433" lon="-5.033533">
        <ele>2427.0</ele>
        <time>2015-06-06T13:18:08Z</time>
      </trkpt>
      <trkpt lat="40.199533" lon="-5.033467">
        <ele>2430.0</ele>
        <time>2015-06-06T13:18:10Z</time>
      </trkpt>
      <trkpt lat="40.199517" lon="-5.033350">
        <ele>2433.0</ele>
        <time>2015-06-06T13:18:12Z</time>
      </trkpt>
      <trkpt lat="40.199417" lon="-5.033267">
        <ele>2442.0</ele>
        <time>2015-06-06T13:18:14Z</time>
      </trkpt>
      <trkpt lat="40.199333" lon="-5.033267">
        <ele>2451.0</ele>
        <time>2015-06-06T13:18:16Z</time>
      </trkpt>
      <trkpt lat="40.199200" lon="-5.033317">
        <ele>2456.0</ele>
        <time>2015-06-06T13:18:18Z</time>
      </trkpt>
      <trkpt lat="40.199017" lon="-5.033450">
        <ele>2461.0</ele>
        <time>2015-06-06T13:18:20Z</time>
      </trkpt>
      <trkpt lat="40.198867" lon="-5.033683">
        <ele>2469.0</ele>
        <time>2015-06-06T13:18:22Z</time>
      </trkpt>
      <trkpt lat="40.198767" lon="-5.033967">
        <ele>2474.0</ele>
        <time>2015-06-06T13:18:24Z</time>
      </trkpt>
      <trkpt lat="40.198650" lon="-5.034317">
        <ele>2477.0</ele>
        <time>2015-06-06T13:18:26Z</time>
      </trkpt>
      <trkpt lat="40.198600" lon="-5.034667">
        <ele>2482.0</ele>
        <time>2015-06-06T13:18:28Z</time>
      </trkpt>
      <trkpt lat="40.198633" lon="-5.035017">
        <ele>2484.0</ele>
        <time>2015-06-06T13:18:30Z</time>
      </trkpt>
      <trkpt lat="40.198750" lon="-5.035350">
        <ele>2487.0</ele>
        <time>2015-06-06T13:18:32Z</time>
      </trkpt>
      <trkpt lat="40.198933" lon="-5.035567">
        <ele>2491.0</ele>
        <time>2015-06-06T13:18:34Z</time>
      </trkpt>
      <trkpt lat="40.199100" lon="-5.035683">
        <ele>2496.0</ele>
        <time>2015-06-06T13:18:36Z</time>
      </trkpt>
      <trkpt lat="40.199183" lon="-5.035700">
        <ele>2502.0</ele>
        <time>2015-06-06T13:18:38Z</time>
      </trkpt>
      <trkpt lat="40.199183" lon="-5.035650">
        <ele>2504.0</ele>
        <time>2015-06-06T13:18:40Z</time>
      </trkpt>
      <trkpt lat="40.199133" lon="-5.035600">
        <ele>2509.0</ele>
        <time>2015-06-06T13:18:42Z</time>
      </trkpt>
      <trkpt lat="40.198967" lon="-5.035633">
        <ele>2512.0</ele>
        <time>2015-06-06T13:18:44Z</time>
      </trkpt>
      <trkpt lat="40.198783" lon="-5.035783">
        <ele>2519.0</ele>
        <time>2015-06-06T13:18:46Z</time>
      </trkpt>
      <trkpt lat="40.198650" lon="-5.036033">
        <ele>2525.0</ele>
        <time>2015-06-06T13:18:48Z</time>
      </trkpt>
      <trkpt lat="40.198550" lon="-5.036367">
        <ele>2530.0</ele>
        <time>2015-06-06T13:18:50Z</time>
      </trkpt>
      <trkpt lat="40.198517" lon="-5.036717">
        <ele>2534.0</ele>
        <time>2015-06-06T13:18:52Z</time>
      </trkpt>
      <trkpt lat="40.198583" lon="-5.037067">
        <ele>2536.0</ele>
        <time>2015-06-06T13:18:54Z</time>
      </trkpt>
      <trkpt lat="40.198733" lon="-5.037350">
        <ele>2540.0</ele>
        <time>2015-06-06T13:18:56Z</time>
      </trkpt>
      <trkpt lat="40.198900" lon="-5.037533">
        <ele>2545.0</ele>
        <time>2015-06-06T13:18:58Z</time>
      </trkpt>
      <trkpt lat="40.199050" lon="-5.037650">
        <ele>2548.0</ele>
        <time>2015-06-06T13:19:00Z</time>
      </trkpt>
      <trkpt lat="40.199183" lon="-5.037700">
        <ele>2551.0</ele>
        <time>2015-06-06T13:19:02Z</time>
      </trkpt>
      <trkpt lat="40.199267" lon="-5.037683">
        <ele>2553.0</ele>
        <time>2015-06-06T13:19:04Z</time>
      </trkpt>
      <trkpt lat="40.199200" lon="-5.037617">
        <ele>2556.0</ele>
        <time>2015-06-06T13:19:06Z</time>
      </trkpt>
      <trkpt lat="40.199083" lon="-5.037600">
        <ele>2561.0</ele>
        <time>2015-06-06T13:19:08Z</time>
      </trkpt>
      <trkpt lat="40.198933" lon="-5.037667">
        <ele>2565.0</ele>
        <time>2015-06-06T13:19:10Z</time>
      </trkpt>
      <trkpt lat="40.198750" lon="-5.037867">
        <ele>2568.0</ele>
        <time>2015-06-06T13:19:12Z</time>
      </trkpt>
      <trkpt lat="40.198583" lon="-5.038150">
        <ele>2572.0</ele>
        <time>2015-06-06T13:19:14Z</time>
      </trkpt>
      <trkpt lat="40.198483" lon="-5.038500">
        <ele>2576.0</ele>
        <time>2015-06-06T13:19:16Z</time>
      </trkpt>
      <trkpt lat="40.198433" lon="-5.038867">
        <ele>2580.0</ele>
        <time>2015-06-06T13:19:18Z</time>
      </trkpt>
      <trkpt lat="40.198483" lon="-5.039217">
        <ele>2581.0</ele>
        <time>2015-06-06T13:19:20Z</time>
      </trkpt>
      <trkpt lat="40.198617" lon="-5.039533">
        <ele>2583.0</ele>
        <time>2015-06-06T13:19:22Z</time>
      </trkpt>
      <trkpt lat="40.198767" lon="-5.039733">
        <ele>2585.0</ele>
        <time>2015-06-06T13:19:24Z</time>
      </trkpt>
      <trkpt lat="40.198933" lon="-5.039800">
        <ele>2586.0</ele>
        <time>2015-06-06T13:19:26Z</time>
      </trkpt>
      <trkpt lat="40.199067" lon="-5.039767">
        <ele>2588.0</ele>
        <time>2015-06-06T13:19:28Z</time>
      </trkpt>
      <trkpt lat="40.199133" lon="-5.039733">
        <ele>2594.0</ele>
        <time>2015-06-06T13:19:30Z</time>
      </trkpt>
      <trkpt lat="40.199133" lon="-5.039683">
        <ele>2598.0</ele>
        <time>2015-06-06T13:19:32Z</time>
      </trkpt>
      <trkpt lat="40.199067" lon="-5.039633">
        <ele>2601.0</ele>
        <time>2015-06-06T13:19:34Z</time>
      </trkpt>
      <trkpt lat="40.198917" lon="-5.039633">
        <ele>2605.0</ele>
        <time>2015-06-06T13:19:36Z</time>
      </trkpt>
      <trkpt lat="40.198750" lon="-5.039733">
        <ele>2610.0</ele>
        <time>2015-06-06T13:19:38Z</time>
      </trkpt>
      <trkpt lat="40.198567" lon="-5.039933">
        <ele>2614.0</ele>
        <time>2015-06-06T13:19:40Z</time>
      </trkpt>
      <trkpt lat="40.198433" lon="-5.040233">
        <ele>2618.0</ele>
        <time>2015-06-06T13:19:42Z</time>
      </trkpt>
      <trkpt lat="40.198367" lon="-5.040600">
        <ele>2621.0</ele>
        <time>2015-06-06T13:19:44Z</time>
      </trkpt>
      <trkpt lat="40.198350" lon="-5.040983">
        <ele>2625.0</ele>
        <time>2015-06-06T13:19:46Z</time>
      </trkpt>
      <trkpt lat="40.198433" lon="-5.041350">
        <ele>2625.0</ele>
        <time>2015-06-06T13:19:48Z</time>
      </trkpt>
      <trkpt lat="40.198567" lon="-5.041633">
        <ele>2626.0</ele>
        <time>2015-06-06T13:19:50Z</time>
      </trkpt>
      <trkpt lat="40.198717" lon="-5.041800">
        <ele>2628.0</ele>
        <time>2015-06-06T13:19:52Z</time>
      </trkpt>
      <trkpt lat="40.198883" lon="-5.041833">
        <ele>2629.0</ele>
        <time>2015-06-06T13:19:54Z</time>
      </trkpt>
      <trkpt lat="40.199000" lon="-5.041800">
        <ele>2632.0</ele>
        <time>2015-06-06T13:19:56Z</time>
      </trkpt>
      <trkpt lat="40.199033" lon="-5.041717">
        <ele>2636.0</ele>
        <time>2015-06-06T13:19:58Z</time>
      </trkpt>
      <trkpt lat="40.199000" lon="-5.041650">
        <ele>2640.0</ele>
        <time>2015-06-06T13:20:00Z</time>
      </trkpt>
      <trkpt lat="40.198900" lon="-5.041633">
        <ele>2642.0</ele>
        <time>2015-06-06T13:20:02Z</time>
      </trkpt>
      <trkpt lat="40.198750" lon="-5.041650">
        <ele>2646.0</ele>
        <time>2015-06-06T13:20:04Z</time>
      </trkpt>
      <trkpt lat="40.198583" lon="-5.041783">
        <ele>2650.0</ele>
        <time>2015-06-06T13:20:06Z</time>
      </trkpt>
      <trkpt lat="40.198417" lon="-5.042017">
        <ele>2653.0</ele>
        <time>2015-06-06T13:20:08Z</time>
      </trkpt>
      <trkpt lat="40.198300" lon="-5.042317">
        <ele>2658.0</ele>
        <time>2015-06-06T13:20:10Z</time>
      </trkpt>
      <trkpt lat="40.198250" lon="-5.042650">
        <ele>2660.0</ele>
        <time>2015-06-06T13:20:12Z</time>
      </trkpt>
      <trkpt lat="40.198233" lon="-5.043017">
        <ele>2658.0</ele>
        <time>2015-06-06T13:20:14Z</time>
      </trkpt>
      <trkpt lat="40.198300" lon="-5.043400">
        <ele>2657.0</ele>
        <time>2015-06-06T13:20:16Z</time>
      </trkpt>
      <trkpt lat="40.198417" lon="-5.043700">
        <ele>2659.0</ele>
        <time>2015-06-06T13:20:18Z</time>
      </trkpt>
      <trkpt lat="40.198500" lon="-5.044033">
        <ele>2659.0</ele>
        <time>2015-06-06T13:20:20Z</time>
      </trkpt>
      <trkpt lat="40.198517" lon="-5.044417">
        <ele>2658.0</ele>
        <time>2015-06-06T13:20:22Z</time>
      </trkpt>
      <trkpt lat="40.198483" lon="-5.044833">
        <ele>2659.0</ele>
        <time>2015-06-06T13:20:24Z</time>
      </trkpt>
      <trkpt lat="40.198417" lon="-5.045217">
        <ele>2660.0</ele>
        <time>2015-06-06T13:20:26Z</time>
      </trkpt>
      <trkpt lat="40.198317" lon="-5.045583">
        <ele>2661.0</ele>
        <time>2015-06-06T13:20:28Z</time>
      </trkpt>
      <trkpt lat="40.198200" lon="-5.045900">
        <ele>2659.0</ele>
        <time>2015-06-06T13:20:30Z</time>
      </trkpt>
      <trkpt lat="40.198100" lon="-5.046217">
        <ele>2656.0</ele>
        <time>2015-06-06T13:20:32Z</time>
      </trkpt>
      <trkpt lat="40.198017" lon="-5.046567">
        <ele>2653.0</ele>
        <time>2015-06-06T13:20:34Z</time>
      </trkpt>
      <trkpt lat="40.197917" lon="-5.046933">
        <ele>2650.0</ele>
        <time>2015-06-06T13:20:36Z</time>
      </trkpt>
      <trkpt lat="40.197833" lon="-5.047250">
        <ele>2647.0</ele>
        <time>2015-06-06T13:20:38Z</time>
      </trkpt>
      <trkpt lat="40.197750" lon="-5.047583">
        <ele>2643.0</ele>
        <time>2015-06-06T13:20:40Z</time>
      </trkpt>
      <trkpt lat="40.197633" lon="-5.047883">
        <ele>2641.0</ele>
        <time>2015-06-06T13:20:42Z</time>
      </trkpt>
      <trkpt lat="40.197517" lon="-5.048133">
        <ele>2641.0</ele>
        <time>2015-06-06T13:20:44Z</time>
      </trkpt>
      <trkpt lat="40.197417" lon="-5.048367">
        <ele>2639.0</ele>
        <time>2015-06-06T13:20:46Z</time>
      </trkpt>
      <trkpt lat="40.197333" lon="-5.048600">
        <ele>2634.0</ele>
        <time>2015-06-06T13:20:48Z</time>
      </trkpt>
      <trkpt lat="40.197250" lon="-5.048867">
        <ele>2629.0</ele>
        <time>2015-06-06T13:20:50Z</time>
      </trkpt>
      <trkpt lat="40.197200" lon="-5.049133">
        <ele>2623.0</ele>
        <time>2015-06-06T13:20:52Z</time>
      </trkpt>
      <trkpt lat="40.197117" lon="-5.049400">
        <ele>2617.0</ele>
        <time>2015-06-06T13:20:54Z</time>
      </trkpt>
      <trkpt lat="40.197017" lon="-5.049633">
        <ele>2611.0</ele>
        <time>2015-06-06T13:20:56Z</time>
      </trkpt>
      <trkpt lat="40.196933" lon="-5.049867">
        <ele>2605.0</ele>
        <time>2015-06-06T13:20:58Z</time>
      </trkpt>
      <trkpt lat="40.196850" lon="-5.050117">
        <ele>2597.0</ele>
        <time>2015-06-06T13:21:00Z</time>
      </trkpt>
      <trkpt lat="40.196733" lon="-5.050350">
        <ele>2589.0</ele>
        <time>2015-06-06T13:21:02Z</time>
      </trkpt>
      <trkpt lat="40.196617" lon="-5.050567">
        <ele>2583.0</ele>
        <time>2015-06-06T13:21:04Z</time>
      </trkpt>
      <trkpt lat="40.196483" lon="-5.050750">
        <ele>2575.0</ele>
        <time>2015-06-06T13:21:06Z</time>
      </trkpt>
      <trkpt lat="40.196350" lon="-5.050917">
        <ele>2567.0</ele>
        <time>2015-06-06T13:21:08Z</time>
      </trkpt>
      <trkpt lat="40.196200" lon="-5.051067">
        <ele>2558.0</ele>
        <time>2015-06-06T13:21:10Z</time>
      </trkpt>
      <trkpt lat="40.196050" lon="-5.051233">
        <ele>2550.0</ele>
        <time>2015-06-06T13:21:12Z</time>
      </trkpt>
      <trkpt lat="40.195933" lon="-5.051467">
        <ele>2543.0</ele>
        <time>2015-06-06T13:21:14Z</time>
      </trkpt>
      <trkpt lat="40.195883" lon="-5.051733">
        <ele>2536.0</ele>
        <time>2015-06-06T13:21:16Z</time>
      </trkpt>
      <trkpt lat="40.195783" lon="-5.051950">
        <ele>2529.0</ele>
        <time>2015-06-06T13:21:18Z</time>
      </trkpt>
      <trkpt lat="40.195700" lon="-5.052183">
        <ele>2522.0</ele>
        <time>2015-06-06T13:21:20Z</time>
      </trkpt>
      <trkpt lat="40.195600" lon="-5.052400">
        <ele>2514.0</ele>
        <time>2015-06-06T13:21:22Z</time>
      </trkpt>
      <trkpt lat="40.195483" lon="-5.052633">
        <ele>2508.0</ele>
        <time>2015-06-06T13:21:24Z</time>
      </trkpt>
      <trkpt lat="40.195383" lon="-5.052833">
        <ele>2503.0</ele>
        <time>2015-06-06T13:21:26Z</time>
      </trkpt>
      <trkpt lat="40.195250" lon="-5.053050">
        <ele>2497.0</ele>
        <time>2015-06-06T13:21:28Z</time>
      </trkpt>
      <trkpt lat="40.195117" lon="-5.053267">
        <ele>2491.0</ele>
        <time>2015-06-06T13:21:30Z</time>
      </trkpt>
      <trkpt lat="40.195000" lon="-5.053450">
        <ele>2484.0</ele>
        <time>2015-06-06T13:21:32Z</time>
      </trkpt>
      <trkpt lat="40.194883" lon="-5.053650">
        <ele>2475.0</ele>
        <time>2015-06-06T13:21:34Z</time>
      </trkpt>
      <trkpt lat="40.194767" lon="-5.053867">
        <ele>2467.0</ele>
        <time>2015-06-06T13:21:36Z</time>
      </trkpt>
      <trkpt lat="40.194633" lon="-5.054050">
        <ele>2457.0</ele>
        <time>2015-06-06T13:21:38Z</time>
      </trkpt>
      <trkpt lat="40.194500" lon="-5.054250">
        <ele>2448.0</ele>
        <time>2015-06-06T13:21:40Z</time>
      </trkpt>
      <trkpt lat="40.194350" lon="-5.054467">
        <ele>2440.0</ele>
        <time>2015-06-06T13:21:42Z</time>
      </trkpt>
      <trkpt lat="40.194217" lon="-5.054633">
        <ele>2432.0</ele>
        <time>2015-06-06T13:21:44Z</time>
      </trkpt>
      <trkpt lat="40.194050" lon="-5.054800">
        <ele>2422.0</ele>
        <time>2015-06-06T13:21:46Z</time>
      </trkpt>
      <trkpt lat="40.193900" lon="-5.055000">
        <ele>2413.0</ele>
        <time>2015-06-06T13:21:48Z</time>
      </trkpt>
      <trkpt lat="40.193767" lon="-5.055200">
        <ele>2406.0</ele>
        <time>2015-06-06T13:21:50Z</time>
      </trkpt>
      <trkpt lat="40.193633" lon="-5.055417">
        <ele>2397.0</ele>
        <time>2015-06-06T13:21:52Z</time>
      </trkpt>
      <trkpt lat="40.193483" lon="-5.055683">
        <ele>2389.0</ele>
        <time>2015-06-06T13:21:54Z</time>
      </trkpt>
      <trkpt lat="40.193333" lon="-5.055917">
        <ele>2386.0</ele>
        <time>2015-06-06T13:21:56Z</time>
      </trkpt>
      <trkpt lat="40.193200" lon="-5.056150">
        <ele>2382.0</ele>
        <time>2015-06-06T13:21:58Z</time>
      </trkpt>
      <trkpt lat="40.193067" lon="-5.056417">
        <ele>2378.0</ele>
        <time>2015-06-06T13:22:00Z</time>
      </trkpt>
      <trkpt lat="40.192967" lon="-5.056683">
        <ele>2376.0</ele>
        <time>2015-06-06T13:22:02Z</time>
      </trkpt>
      <trkpt lat="40.192867" lon="-5.056917">
        <ele>2370.0</ele>
        <time>2015-06-06T13:22:04Z</time>
      </trkpt>
      <trkpt lat="40.192750" lon="-5.057217">
        <ele>2363.0</ele>
        <time>2015-06-06T13:22:06Z</time>
      </trkpt>
      <trkpt lat="40.192633" lon="-5.057533">
        <ele>2358.0</ele>
        <time>2015-06-06T13:22:08Z</time>
      </trkpt>
      <trkpt lat="40.192533" lon="-5.057800">
        <ele>2355.0</ele>
        <time>2015-06-06T13:22:10Z</time>
      </trkpt>
      <trkpt lat="40.192433" lon="-5.058100">
        <ele>2349.0</ele>
        <time>2015-06-06T13:22:12Z</time>
      </trkpt>
      <trkpt lat="40.192317" lon="-5.058417">
        <ele>2345.0</ele>
        <time>2015-06-06T13:22:14Z</time>
      </trkpt>
      <trkpt lat="40.192200" lon="-5.058683">
        <ele>2345.0</ele>
        <time>2015-06-06T13:22:16Z</time>
      </trkpt>
      <trkpt lat="40.192133" lon="-5.058967">
        <ele>2342.0</ele>
        <time>2015-06-06T13:22:18Z</time>
      </trkpt>
      <trkpt lat="40.192067" lon="-5.059300">
        <ele>2337.0</ele>
        <time>2015-06-06T13:22:20Z</time>
      </trkpt>
      <trkpt lat="40.191950" lon="-5.059633">
        <ele>2335.0</ele>
        <time>2015-06-06T13:22:22Z</time>
      </trkpt>
      <trkpt lat="40.191833" lon="-5.059950">
        <ele>2334.0</ele>
        <time>2015-06-06T13:22:24Z</time>
      </trkpt>
      <trkpt lat="40.191750" lon="-5.060267">
        <ele>2332.0</ele>
        <time>2015-06-06T13:22:26Z</time>
      </trkpt>
      <trkpt lat="40.191633" lon="-5.060567">
        <ele>2331.0</ele>
        <time>2015-06-06T13:22:28Z</time>
      </trkpt>
      <trkpt lat="40.191517" lon="-5.060850">
        <ele>2330.0</ele>
        <time>2015-06-06T13:22:30Z</time>
      </trkpt>
      <trkpt lat="40.191400" lon="-5.061183">
        <ele>2326.0</ele>
        <time>2015-06-06T13:22:32Z</time>
      </trkpt>
      <trkpt lat="40.191283" lon="-5.061483">
        <ele>2326.0</ele>
        <time>2015-06-06T13:22:34Z</time>
      </trkpt>
      <trkpt lat="40.191183" lon="-5.061750">
        <ele>2325.0</ele>
        <time>2015-06-06T13:22:36Z</time>
      </trkpt>
      <trkpt lat="40.191050" lon="-5.062050">
        <ele>2320.0</ele>
        <time>2015-06-06T13:22:38Z</time>
      </trkpt>
      <trkpt lat="40.190917" lon="-5.062367">
        <ele>2319.0</ele>
        <time>2015-06-06T13:22:40Z</time>
      </trkpt>
      <trkpt lat="40.190783" lon="-5.062667">
        <ele>2319.0</ele>
        <time>2015-06-06T13:22:42Z</time>
      </trkpt>
      <trkpt lat="40.190683" lon="-5.062967">
        <ele>2321.0</ele>
        <time>2015-06-06T13:22:44Z</time>
      </trkpt>
      <trkpt lat="40.190617" lon="-5.063283">
        <ele>2323.0</ele>
        <time>2015-06-06T13:22:46Z</time>
      </trkpt>
      <trkpt lat="40.190583" lon="-5.063617">
        <ele>2325.0</ele>
        <time>2015-06-06T13:22:48Z</time>
      </trkpt>
      <trkpt lat="40.190550" lon="-5.063967">
        <ele>2326.0</ele>
        <time>2015-06-06T13:22:50Z</time>
      </trkpt>
      <trkpt lat="40.190467" lon="-5.064300">
        <ele>2329.0</ele>
        <time>2015-06-06T13:22:52Z</time>
      </trkpt>
      <trkpt lat="40.190367" lon="-5.064583">
        <ele>2332.0</ele>
        <time>2015-06-06T13:22:54Z</time>
      </trkpt>
      <trkpt lat="40.190233" lon="-5.064817">
        <ele>2334.0</ele>
        <time>2015-06-06T13:22:56Z</time>
      </trkpt>
      <trkpt lat="40.190067" lon="-5.065000">
        <ele>2335.0</ele>
        <time>2015-06-06T13:22:58Z</time>
      </trkpt>
      <trkpt lat="40.189883" lon="-5.065133">
        <ele>2334.0</ele>
        <time>2015-06-06T13:23:00Z</time>
      </trkpt>
      <trkpt lat="40.189700" lon="-5.065300">
        <ele>2336.0</ele>
        <time>2015-06-06T13:23:02Z</time>
      </trkpt>
      <trkpt lat="40.189550" lon="-5.065500">
        <ele>2337.0</ele>
        <time>2015-06-06T13:23:04Z</time>
      </trkpt>
      <trkpt lat="40.189433" lon="-5.065750">
        <ele>2337.0</ele>
        <time>2015-06-06T13:23:06Z</time>
      </trkpt>
      <trkpt lat="40.189317" lon="-5.066033">
        <ele>2339.0</ele>
        <time>2015-06-06T13:23:08Z</time>
      </trkpt>
      <trkpt lat="40.189250" lon="-5.066333">
        <ele>2345.0</ele>
        <time>2015-06-06T13:23:10Z</time>
      </trkpt>
      <trkpt lat="40.189200" lon="-5.066617">
        <ele>2351.0</ele>
        <time>2015-06-06T13:23:12Z</time>
      </trkpt>
      <trkpt lat="40.189250" lon="-5.066883">
        <ele>2357.0</ele>
        <time>2015-06-06T13:23:14Z</time>
      </trkpt>
      <trkpt lat="40.189383" lon="-5.067117">
        <ele>2361.0</ele>
        <time>2015-06-06T13:23:16Z</time>
      </trkpt>
      <trkpt lat="40.189567" lon="-5.067233">
        <ele>2366.0</ele>
        <time>2015-06-06T13:23:18Z</time>
      </trkpt>
      <trkpt lat="40.189733" lon="-5.067200">
        <ele>2370.0</ele>
        <time>2015-06-06T13:23:20Z</time>
      </trkpt>
      <trkpt lat="40.189833" lon="-5.067050">
        <ele>2375.0</ele>
        <time>2015-06-06T13:23:22Z</time>
      </trkpt>
      <trkpt lat="40.189850" lon="-5.066900">
        <ele>2383.0</ele>
        <time>2015-06-06T13:23:24Z</time>
      </trkpt>
      <trkpt lat="40.189800" lon="-5.066800">
        <ele>2388.0</ele>
        <time>2015-06-06T13:23:26Z</time>
      </trkpt>
      <trkpt lat="40.189683" lon="-5.066717">
        <ele>2387.0</ele>
        <time>2015-06-06T13:23:28Z</time>
      </trkpt>
      <trkpt lat="40.189467" lon="-5.066733">
        <ele>2388.0</ele>
        <time>2015-06-06T13:23:30Z</time>
      </trkpt>
      <trkpt lat="40.189283" lon="-5.066883">
        <ele>2394.0</ele>
        <time>2015-06-06T13:23:32Z</time>
      </trkpt>
      <trkpt lat="40.189150" lon="-5.067050">
        <ele>2399.0</ele>
        <time>2015-06-06T13:23:34Z</time>
      </trkpt>
      <trkpt lat="40.189000" lon="-5.067267">
        <ele>2402.0</ele>
        <time>2015-06-06T13:23:36Z</time>
      </trkpt>
      <trkpt lat="40.188900" lon="-5.067533">
        <ele>2406.0</ele>
        <time>2015-06-06T13:23:38Z</time>
      </trkpt>
      <trkpt lat="40.188900" lon="-5.067850">
        <ele>2407.0</ele>
        <time>2015-06-06T13:23:40Z</time>
      </trkpt>
      <trkpt lat="40.188967" lon="-5.068117">
        <ele>2411.0</ele>
        <time>2015-06-06T13:23:42Z</time>
      </trkpt>
      <trkpt lat="40.189100" lon="-5.068300">
        <ele>2414.0</ele>
        <time>2015-06-06T13:23:44Z</time>
      </trkpt>
      <trkpt lat="40.189267" lon="-5.068417">
        <ele>2414.0</ele>
        <time>2015-06-06T13:23:46Z</time>
      </trkpt>
      <trkpt lat="40.189467" lon="-5.068500">
        <ele>2417.0</ele>
        <time>2015-06-06T13:23:48Z</time>
      </trkpt>
      <trkpt lat="40.189617" lon="-5.068433">
        <ele>2420.0</ele>
        <time>2015-06-06T13:23:50Z</time>
      </trkpt>
      <trkpt lat="40.189683" lon="-5.068283">
        <ele>2423.0</ele>
        <time>2015-06-06T13:23:52Z</time>
      </trkpt>
      <trkpt lat="40.189667" lon="-5.068133">
        <ele>2427.0</ele>
        <time>2015-06-06T13:23:54Z</time>
      </trkpt>
      <trkpt lat="40.189583" lon="-5.067967">
        <ele>2429.0</ele>
        <time>2015-06-06T13:23:56Z</time>
      </trkpt>
      <trkpt lat="40.189433" lon="-5.067883">
        <ele>2434.0</ele>
        <time>2015-06-06T13:23:58Z</time>
      </trkpt>
      <trkpt lat="40.189250" lon="-5.067833">
        <ele>2440.0</ele>
        <time>2015-06-06T13:24:00Z</time>
      </trkpt>
      <trkpt lat="40.189083" lon="-5.067833">
        <ele>2444.0</ele>
        <time>2015-06-06T13:24:02Z</time>
      </trkpt>
      <trkpt lat="40.188883" lon="-5.067950">
        <ele>2446.0</ele>
        <time>2015-06-06T13:24:04Z</time>
      </trkpt>
      <trkpt lat="40.188717" lon="-5.068167">
        <ele>2449.0</ele>
        <time>2015-06-06T13:24:06Z</time>
      </trkpt>
      <trkpt lat="40.188650" lon="-5.068433">
        <ele>2452.0</ele>
        <time>2015-06-06T13:24:08Z</time>
      </trkpt>
      <trkpt lat="40.188650" lon="-5.068683">
        <ele>2453.0</ele>
        <time>2015-06-06T13:24:10Z</time>
      </trkpt>
      <trkpt lat="40.188700" lon="-5.068933">
        <ele>2450.0</ele>
        <time>2015-06-06T13:24:12Z</time>
      </trkpt>
      <trkpt lat="40.188850" lon="-5.069150">
        <ele>2449.0</ele>
        <time>2015-06-06T13:24:14Z</time>
      </trkpt>
      <trkpt lat="40.189017" lon="-5.069250">
        <ele>2451.0</ele>
        <time>2015-06-06T13:24:16Z</time>
      </trkpt>
      <trkpt lat="40.189150" lon="-5.069250">
        <ele>2452.0</ele>
        <time>2015-06-06T13:24:18Z</time>
      </trkpt>
      <trkpt lat="40.189300" lon="-5.069183">
        <ele>2453.0</ele>
        <time>2015-06-06T13:24:20Z</time>
      </trkpt>
      <trkpt lat="40.189367" lon="-5.069050">
        <ele>2455.0</ele>
        <time>2015-06-06T13:24:22Z</time>
      </trkpt>
      <trkpt lat="40.189367" lon="-5.068867">
        <ele>2458.0</ele>
        <time>2015-06-06T13:24:24Z</time>
      </trkpt>
      <trkpt lat="40.189300" lon="-5.068700">
        <ele>2462.0</ele>
        <time>2015-06-06T13:24:26Z</time>
      </trkpt>
      <trkpt lat="40.189183" lon="-5.068583">
        <ele>2466.0</ele>
        <time>2015-06-06T13:24:28Z</time>
      </trkpt>
      <trkpt lat="40.189033" lon="-5.068550">
        <ele>2469.0</ele>
        <time>2015-06-06T13:24:30Z</time>
      </trkpt>
      <trkpt lat="40.188867" lon="-5.068600">
        <ele>2472.0</ele>
        <time>2015-06-06T13:24:32Z</time>
      </trkpt>
      <trkpt lat="40.188717" lon="-5.068750">
        <ele>2474.0</ele>
        <time>2015-06-06T13:24:34Z</time>
      </trkpt>
      <trkpt lat="40.188600" lon="-5.068967">
        <ele>2476.0</ele>
        <time>2015-06-06T13:24:36Z</time>
      </trkpt>
      <trkpt lat="40.188550" lon="-5.069183">
        <ele>2476.0</ele>
        <time>2015-06-06T13:24:38Z</time>
      </trkpt>
      <trkpt lat="40.188550" lon="-5.069450">
        <ele>2473.0</ele>
        <time>2015-06-06T13:24:40Z</time>
      </trkpt>
      <trkpt lat="40.188650" lon="-5.069700">
        <ele>2473.0</ele>
        <time>2015-06-06T13:24:42Z</time>
      </trkpt>
      <trkpt lat="40.188800" lon="-5.069850">
        <ele>2472.0</ele>
        <time>2015-06-06T13:24:44Z</time>
      </trkpt>
      <trkpt lat="40.188983" lon="-5.069917">
        <ele>2470.0</ele>
        <time>2015-06-06T13:24:46Z</time>
      </trkpt>
      <trkpt lat="40.189167" lon="-5.069917">
        <ele>2468.0</ele>
        <time>2015-06-06T13:24:48Z</time>
      </trkpt>
      <trkpt lat="40.189350" lon="-5.069817">
        <ele>2468.0</ele>
        <time>2015-06-06T13:24:50Z</time>
      </trkpt>
      <trkpt lat="40.189483" lon="-5.069683">
        <ele>2470.0</ele>
        <time>2015-06-06T13:24:52Z</time>
      </trkpt>
      <trkpt lat="40.189567" lon="-5.069550">
        <ele>2471.0</ele>
        <time>2015-06-06T13:24:54Z</time>
      </trkpt>
      <trkpt lat="40.189617" lon="-5.069350">
        <ele>2472.0</ele>
        <time>2015-06-06T13:24:56Z</time>
      </trkpt>
      <trkpt lat="40.189583" lon="-5.069167">
        <ele>2474.0</ele>
        <time>2015-06-06T13:24:58Z</time>
      </trkpt>
      <trkpt lat="40.189483" lon="-5.069017">
        <ele>2476.0</ele>
        <time>2015-06-06T13:25:00Z</time>
      </trkpt>
      <trkpt lat="40.189333" lon="-5.068933">
        <ele>2478.0</ele>
        <time>2015-06-06T13:25:02Z</time>
      </trkpt>
      <trkpt lat="40.189150" lon="-5.068933">
        <ele>2481.0</ele>
        <time>2015-06-06T13:25:04Z</time>
      </trkpt>
      <trkpt lat="40.188967" lon="-5.069033">
        <ele>2483.0</ele>
        <time>2015-06-06T13:25:06Z</time>
      </trkpt>
      <trkpt lat="40.188817" lon="-5.069217">
        <ele>2484.0</ele>
        <time>2015-06-06T13:25:08Z</time>
      </trkpt>
      <trkpt lat="40.188717" lon="-5.069450">
        <ele>2485.0</ele>
        <time>2015-06-06T13:25:10Z</time>
      </trkpt>
      <trkpt lat="40.188650" lon="-5.069717">
        <ele>2487.0</ele>
        <time>2015-06-06T13:25:12Z</time>
      </trkpt>
      <trkpt lat="40.188667" lon="-5.069967">
        <ele>2487.0</ele>
        <time>2015-06-06T13:25:14Z</time>
      </trkpt>
      <trkpt lat="40.188733" lon="-5.070217">
        <ele>2485.0</ele>
        <time>2015-06-06T13:25:16Z</time>
      </trkpt>
      <trkpt lat="40.188850" lon="-5.070417">
        <ele>2485.0</ele>
        <time>2015-06-06T13:25:18Z</time>
      </trkpt>
      <trkpt lat="40.189017" lon="-5.070550">
        <ele>2484.0</ele>
        <time>2015-06-06T13:25:20Z</time>
      </trkpt>
      <trkpt lat="40.189217" lon="-5.070633">
        <ele>2484.0</ele>
        <time>2015-06-06T13:25:22Z</time>
      </trkpt>
      <trkpt lat="40.189400" lon="-5.070617">
        <ele>2486.0</ele>
        <time>2015-06-06T13:25:24Z</time>
      </trkpt>
      <trkpt lat="40.189550" lon="-5.070483">
        <ele>2486.0</ele>
        <time>2015-06-06T13:25:26Z</time>
      </trkpt>
      <trkpt lat="40.189617" lon="-5.070283">
        <ele>2486.0</ele>
        <time>2015-06-06T13:25:28Z</time>
      </trkpt>
      <trkpt lat="40.189600" lon="-5.070083">
        <ele>2487.0</ele>
        <time>2015-06-06T13:25:30Z</time>
      </trkpt>
      <trkpt lat="40.189517" lon="-5.069933">
        <ele>2487.0</ele>
        <time>2015-06-06T13:25:32Z</time>
      </trkpt>
      <trkpt lat="40.189367" lon="-5.069833">
        <ele>2486.0</ele>
        <time>2015-06-06T13:25:34Z</time>
      </trkpt>
      <trkpt lat="40.189183" lon="-5.069833">
        <ele>2487.0</ele>
        <time>2015-06-06T13:25:36Z</time>
      </trkpt>
      <trkpt lat="40.189033" lon="-5.069933">
        <ele>2488.0</ele>
        <time>2015-06-06T13:25:38Z</time>
      </trkpt>
      <trkpt lat="40.188883" lon="-5.070083">
        <ele>2487.0</ele>
        <time>2015-06-06T13:25:40Z</time>
      </trkpt>
      <trkpt lat="40.188767" lon="-5.070300">
        <ele>2487.0</ele>
        <time>2015-06-06T13:25:42Z</time>
      </trkpt>
      <trkpt lat="40.188683" lon="-5.070567">
        <ele>2487.0</ele>
        <time>2015-06-06T13:25:44Z</time>
      </trkpt>
      <trkpt lat="40.188617" lon="-5.070833">
        <ele>2486.0</ele>
        <time>2015-06-06T13:25:46Z</time>
      </trkpt>
      <trkpt lat="40.188567" lon="-5.071100">
        <ele>2484.0</ele>
        <time>2015-06-06T13:25:48Z</time>
      </trkpt>
      <trkpt lat="40.188483" lon="-5.071383">
        <ele>2482.0</ele>
        <time>2015-06-06T13:25:50Z</time>
      </trkpt>
      <trkpt lat="40.188383" lon="-5.071633">
        <ele>2485.0</ele>
        <time>2015-06-06T13:25:52Z</time>
      </trkpt>
      <trkpt lat="40.188283" lon="-5.071833">
        <ele>2489.0</ele>
        <time>2015-06-06T13:25:54Z</time>
      </trkpt>
      <trkpt lat="40.188250" lon="-5.072067">
        <ele>2491.0</ele>
        <time>2015-06-06T13:25:56Z</time>
      </trkpt>
      <trkpt lat="40.188250" lon="-5.072350">
        <ele>2489.0</ele>
        <time>2015-06-06T13:25:58Z</time>
      </trkpt>
      <trkpt lat="40.188250" lon="-5.072633">
        <ele>2489.0</ele>
        <time>2015-06-06T13:26:00Z</time>
      </trkpt>
      <trkpt lat="40.188233" lon="-5.072900">
        <ele>2488.0</ele>
        <time>2015-06-06T13:26:02Z</time>
      </trkpt>
      <trkpt lat="40.188183" lon="-5.073183">
        <ele>2487.0</ele>
        <time>2015-06-06T13:26:04Z</time>
      </trkpt>
      <trkpt lat="40.188133" lon="-5.073450">
        <ele>2486.0</ele>
        <time>2015-06-06T13:26:06Z</time>
      </trkpt>
      <trkpt lat="40.188083" lon="-5.073700">
        <ele>2488.0</ele>
        <time>2015-06-06T13:26:08Z</time>
      </trkpt>
      <trkpt lat="40.188050" lon="-5.073950">
        <ele>2486.0</ele>
        <time>2015-06-06T13:26:10Z</time>
      </trkpt>
      <trkpt lat="40.187983" lon="-5.074233">
        <ele>2486.0</ele>
        <time>2015-06-06T13:26:12Z</time>
      </trkpt>
      <trkpt lat="40.187950" lon="-5.074533">
        <ele>2493.0</ele>
        <time>2015-06-06T13:26:14Z</time>
      </trkpt>
      <trkpt lat="40.187983" lon="-5.074750">
        <ele>2502.0</ele>
        <time>2015-06-06T13:26:16Z</time>
      </trkpt>
      <trkpt lat="40.188067" lon="-5.074967">
        <ele>2505.0</ele>
        <time>2015-06-06T13:26:18Z</time>
      </trkpt>
      <trkpt lat="40.188250" lon="-5.075183">
        <ele>2507.0</ele>
        <time>2015-06-06T13:26:20Z</time>
      </trkpt>
      <trkpt lat="40.188467" lon="-5.075250">
        <ele>2513.0</ele>
        <time>2015-06-06T13:26:22Z</time>
      </trkpt>
      <trkpt lat="40.188650" lon="-5.075200">
        <ele>2518.0</ele>
        <time>2015-06-06T13:26:24Z</time>
      </trkpt>
      <trkpt lat="40.188783" lon="-5.075083">
        <ele>2522.0</ele>
        <time>2015-06-06T13:26:26Z</time>
      </trkpt>
      <trkpt lat="40.188817" lon="-5.074900">
        <ele>2524.0</ele>
        <time>2015-06-06T13:26:28Z</time>
      </trkpt>
      <trkpt lat="40.188767" lon="-5.074750">
        <ele>2529.0</ele>
        <time>2015-06-06T13:26:30Z</time>
      </trkpt>
      <trkpt lat="40.188717" lon="-5.074700">
        <ele>2533.0</ele>
        <time>2015-06-06T13:26:32Z</time>
      </trkpt>
      <trkpt lat="40.188617" lon="-5.074600">
        <ele>2533.0</ele>
        <time>2015-06-06T13:26:34Z</time>
      </trkpt>
      <trkpt lat="40.188500" lon="-5.074550">
        <ele>2536.0</ele>
        <time>2015-06-06T13:26:36Z</time>
      </trkpt>
      <trkpt lat="40.188383" lon="-5.074633">
        <ele>2538.0</ele>
        <time>2015-06-06T13:26:38Z</time>
      </trkpt>
      <trkpt lat="40.188250" lon="-5.074767">
        <ele>2542.0</ele>
        <time>2015-06-06T13:26:40Z</time>
      </trkpt>
      <trkpt lat="40.188183" lon="-5.074933">
        <ele>2548.0</ele>
        <time>2015-06-06T13:26:42Z</time>
      </trkpt>
      <trkpt lat="40.188217" lon="-5.075133">
        <ele>2551.0</ele>
        <time>2015-06-06T13:26:44Z</time>
      </trkpt>
      <trkpt lat="40.188283" lon="-5.075400">
        <ele>2553.0</ele>
        <time>2015-06-06T13:26:46Z</time>
      </trkpt>
      <trkpt lat="40.188383" lon="-5.075633">
        <ele>2558.0</ele>
        <time>2015-06-06T13:26:48Z</time>
      </trkpt>
      <trkpt lat="40.188567" lon="-5.075800">
        <ele>2561.0</ele>
        <time>2015-06-06T13:26:50Z</time>
      </trkpt>
      <trkpt lat="40.188783" lon="-5.075800">
        <ele>2565.0</ele>
        <time>2015-06-06T13:26:52Z</time>
      </trkpt>
      <trkpt lat="40.188950" lon="-5.075667">
        <ele>2569.0</ele>
        <time>2015-06-06T13:26:54Z</time>
      </trkpt>
      <trkpt lat="40.189017" lon="-5.075483">
        <ele>2573.0</ele>
        <time>2015-06-06T13:26:56Z</time>
      </trkpt>
      <trkpt lat="40.189000" lon="-5.075300">
        <ele>2579.0</ele>
        <time>2015-06-06T13:26:58Z</time>
      </trkpt>
      <trkpt lat="40.188950" lon="-5.075200">
        <ele>2583.0</ele>
        <time>2015-06-06T13:27:00Z</time>
      </trkpt>
      <trkpt lat="40.188850" lon="-5.075117">
        <ele>2586.0</ele>
        <time>2015-06-06T13:27:02Z</time>
      </trkpt>
      <trkpt lat="40.188733" lon="-5.075100">
        <ele>2590.0</ele>
        <time>2015-06-06T13:27:04Z</time>
      </trkpt>
      <trkpt lat="40.188600" lon="-5.075183">
        <ele>2593.0</ele>
        <time>2015-06-06T13:27:06Z</time>
      </trkpt>
      <trkpt lat="40.188467" lon="-5.075333">
        <ele>2597.0</ele>
        <time>2015-06-06T13:27:08Z</time>
      </trkpt>
      <trkpt lat="40.188317" lon="-5.075483">
        <ele>2599.0</ele>
        <time>2015-06-06T13:27:10Z</time>
      </trkpt>
      <trkpt lat="40.188467" lon="-5.076350">
        <ele>2609.0</ele>
        <time>2015-06-06T13:27:16Z</time>
      </trkpt>
      <trkpt lat="40.188733" lon="-5.076550">
        <ele>2623.0</ele>
        <time>2015-06-06T13:27:18Z</time>
      </trkpt>
      <trkpt lat="40.188900" lon="-5.076667">
        <ele>2626.0</ele>
        <time>2015-06-06T13:27:20Z</time>
      </trkpt>
      <trkpt lat="40.189133" lon="-5.076683">
        <ele>2628.0</ele>
        <time>2015-06-06T13:27:22Z</time>
      </trkpt>
      <trkpt lat="40.189367" lon="-5.076583">
        <ele>2633.0</ele>
        <time>2015-06-06T13:27:24Z</time>
      </trkpt>
      <trkpt lat="40.189450" lon="-5.076433">
        <ele>2638.0</ele>
        <time>2015-06-06T13:27:26Z</time>
      </trkpt>
      <trkpt lat="40.189483" lon="-5.076233">
        <ele>2641.0</ele>
        <time>2015-06-06T13:27:28Z</time>
      </trkpt>
      <trkpt lat="40.189467" lon="-5.076017">
        <ele>2644.0</ele>
        <time>2015-06-06T13:27:30Z</time>
      </trkpt>
      <trkpt lat="40.189350" lon="-5.075900">
        <ele>2647.0</ele>
        <time>2015-06-06T13:27:32Z</time>
      </trkpt>
      <trkpt lat="40.189267" lon="-5.075883">
        <ele>2652.0</ele>
        <time>2015-06-06T13:27:34Z</time>
      </trkpt>
      <trkpt lat="40.189133" lon="-5.075917">
        <ele>2657.0</ele>
        <time>2015-06-06T13:27:36Z</time>
      </trkpt>
      <trkpt lat="40.188967" lon="-5.076017">
        <ele>2660.0</ele>
        <time>2015-06-06T13:27:38Z</time>
      </trkpt>
      <trkpt lat="40.188867" lon="-5.076183">
        <ele>2668.0</ele>
        <time>2015-06-06T13:27:40Z</time>
      </trkpt>
      <trkpt lat="40.188850" lon="-5.076383">
        <ele>2674.0</ele>
        <time>2015-06-06T13:27:42Z</time>
      </trkpt>
      <trkpt lat="40.188900" lon="-5.076600">
        <ele>2677.0</ele>
        <time>2015-06-06T13:27:44Z</time>
      </trkpt>
      <trkpt lat="40.189033" lon="-5.076817">
        <ele>2681.0</ele>
        <time>2015-06-06T13:27:46Z</time>
      </trkpt>
      <trkpt lat="40.189233" lon="-5.076917">
        <ele>2685.0</ele>
        <time>2015-06-06T13:27:48Z</time>
      </trkpt>
      <trkpt lat="40.189433" lon="-5.076900">
        <ele>2689.0</ele>
        <time>2015-06-06T13:27:50Z</time>
      </trkpt>
      <trkpt lat="40.189567" lon="-5.076767">
        <ele>2694.0</ele>
        <time>2015-06-06T13:27:52Z</time>
      </trkpt>
      <trkpt lat="40.189600" lon="-5.076567">
        <ele>2697.0</ele>
        <time>2015-06-06T13:27:54Z</time>
      </trkpt>
      <trkpt lat="40.189517" lon="-5.076383">
        <ele>2701.0</ele>
        <time>2015-06-06T13:27:56Z</time>
      </trkpt>
      <trkpt lat="40.189383" lon="-5.076317">
        <ele>2706.0</ele>
        <time>2015-06-06T13:27:58Z</time>
      </trkpt>
      <trkpt lat="40.189250" lon="-5.076367">
        <ele>2712.0</ele>
        <time>2015-06-06T13:28:00Z</time>
      </trkpt>
      <trkpt lat="40.189150" lon="-5.076500">
        <ele>2717.0</ele>
        <time>2015-06-06T13:28:02Z</time>
      </trkpt>
      <trkpt lat="40.189117" lon="-5.076733">
        <ele>2721.0</ele>
        <time>2015-06-06T13:28:04Z</time>
      </trkpt>
      <trkpt lat="40.189183" lon="-5.076983">
        <ele>2724.0</ele>
        <time>2015-06-06T13:28:06Z</time>
      </trkpt>
      <trkpt lat="40.189333" lon="-5.077200">
        <ele>2730.0</ele>
        <time>2015-06-06T13:28:08Z</time>
      </trkpt>
      <trkpt lat="40.189517" lon="-5.077317">
        <ele>2735.0</ele>
        <time>2015-06-06T13:28:10Z</time>
      </trkpt>
      <trkpt lat="40.189700" lon="-5.077300">
        <ele>2739.0</ele>
        <time>2015-06-06T13:28:12Z</time>
      </trkpt>
      <trkpt lat="40.189833" lon="-5.077167">
        <ele>2742.0</ele>
        <time>2015-06-06T13:28:14Z</time>
      </trkpt>
      <trkpt lat="40.189883" lon="-5.076967">
        <ele>2744.0</ele>
        <time>2015-06-06T13:28:16Z</time>
      </trkpt>
      <trkpt lat="40.189817" lon="-5.076767">
        <ele>2747.0</ele>
        <time>2015-06-06T13:28:18Z</time>
      </trkpt>
      <trkpt lat="40.189683" lon="-5.076650">
        <ele>2753.0</ele>
        <time>2015-06-06T13:28:20Z</time>
      </trkpt>
      <trkpt lat="40.189550" lon="-5.076667">
        <ele>2760.0</ele>
        <time>2015-06-06T13:28:22Z</time>
      </trkpt>
      <trkpt lat="40.189417" lon="-5.076750">
        <ele>2765.0</ele>
        <time>2015-06-06T13:28:24Z</time>
      </trkpt>
      <trkpt lat="40.189350" lon="-5.076950">
        <ele>2770.0</ele>
        <time>2015-06-06T13:28:26Z</time>
      </trkpt>
      <trkpt lat="40.189333" lon="-5.077183">
        <ele>2775.0</ele>
        <time>2015-06-06T13:28:28Z</time>
      </trkpt>
      <trkpt lat="40.189333" lon="-5.077433">
        <ele>2779.0</ele>
        <time>2015-06-06T13:28:30Z</time>
      </trkpt>
      <trkpt lat="40.189433" lon="-5.077683">
        <ele>2782.0</ele>
        <time>2015-06-06T13:28:32Z</time>
      </trkpt>
      <trkpt lat="40.189617" lon="-5.077833">
        <ele>2788.0</ele>
        <time>2015-06-06T13:28:34Z</time>
      </trkpt>
      <trkpt lat="40.189783" lon="-5.077883">
        <ele>2793.0</ele>
        <time>2015-06-06T13:28:36Z</time>
      </trkpt>
      <trkpt lat="40.189950" lon="-5.077833">
        <ele>2795.0</ele>
        <time>2015-06-06T13:28:38Z</time>
      </trkpt>
      <trkpt lat="40.190083" lon="-5.077683">
        <ele>2798.0</ele>
        <time>2015-06-06T13:28:40Z</time>
      </trkpt>
      <trkpt lat="40.190117" lon="-5.077467">
        <ele>2802.0</ele>
        <time>2015-06-06T13:28:42Z</time>
      </trkpt>
      <trkpt lat="40.190050" lon="-5.077267">
        <ele>2805.0</ele>
        <time>2015-06-06T13:28:44Z</time>
      </trkpt>
      <trkpt lat="40.189933" lon="-5.077117">
        <ele>2810.0</ele>
        <time>2015-06-06T13:28:46Z</time>
      </trkpt>
      <trkpt lat="40.189783" lon="-5.077083">
        <ele>2816.0</ele>
        <time>2015-06-06T13:28:48Z</time>
      </trkpt>
      <trkpt lat="40.189633" lon="-5.077150">
        <ele>2821.0</ele>
        <time>2015-06-06T13:28:50Z</time>
      </trkpt>
      <trkpt lat="40.189517" lon="-5.077283">
        <ele>2824.0</ele>
        <time>2015-06-06T13:28:52Z</time>
      </trkpt>
      <trkpt lat="40.189450" lon="-5.077517">
        <ele>2825.0</ele>
        <time>2015-06-06T13:28:54Z</time>
      </trkpt>
      <trkpt lat="40.189483" lon="-5.077783">
        <ele>2828.0</ele>
        <time>2015-06-06T13:28:56Z</time>
      </trkpt>
      <trkpt lat="40.189583" lon="-5.078033">
        <ele>2833.0</ele>
        <time>2015-06-06T13:28:58Z</time>
      </trkpt>
      <trkpt lat="40.189733" lon="-5.078167">
        <ele>2837.0</ele>
        <time>2015-06-06T13:29:00Z</time>
      </trkpt>
      <trkpt lat="40.189917" lon="-5.078167">
        <ele>2840.0</ele>
        <time>2015-06-06T13:29:02Z</time>
      </trkpt>
      <trkpt lat="40.190083" lon="-5.078050">
        <ele>2844.0</ele>
        <time>2015-06-06T13:29:04Z</time>
      </trkpt>
      <trkpt lat="40.190183" lon="-5.077850">
        <ele>2849.0</ele>
        <time>2015-06-06T13:29:06Z</time>
      </trkpt>
      <trkpt lat="40.190183" lon="-5.077633">
        <ele>2853.0</ele>
        <time>2015-06-06T13:29:08Z</time>
      </trkpt>
      <trkpt lat="40.190117" lon="-5.077450">
        <ele>2856.0</ele>
        <time>2015-06-06T13:29:10Z</time>
      </trkpt>
      <trkpt lat="40.189950" lon="-5.077350">
        <ele>2859.0</ele>
        <time>2015-06-06T13:29:12Z</time>
      </trkpt>
      <trkpt lat="40.189783" lon="-5.077383">
        <ele>2863.0</ele>
        <time>2015-06-06T13:29:14Z</time>
      </trkpt>
      <trkpt lat="40.189650" lon="-5.077517">
        <ele>2866.0</ele>
        <time>2015-06-06T13:29:16Z</time>
      </trkpt>
      <trkpt lat="40.189583" lon="-5.077717">
        <ele>2867.0</ele>
        <time>2015-06-06T13:29:18Z</time>
      </trkpt>
      <trkpt lat="40.189583" lon="-5.077983">
        <ele>2867.0</ele>
        <time>2015-06-06T13:29:20Z</time>
      </trkpt>
      <trkpt lat="40.189700" lon="-5.078233">
        <ele>2868.0</ele>
        <time>2015-06-06T13:29:22Z</time>
      </trkpt>
      <trkpt lat="40.189883" lon="-5.078367">
        <ele>2872.0</ele>
        <time>2015-06-06T13:29:24Z</time>
      </trkpt>
      <trkpt lat="40.190067" lon="-5.078417">
        <ele>2875.0</ele>
        <time>2015-06-06T13:29:26Z</time>
      </trkpt>
      <trkpt lat="40.190250" lon="-5.078333">
        <ele>2878.0</ele>
        <time>2015-06-06T13:29:28Z</time>
      </trkpt>
      <trkpt lat="40.190367" lon="-5.078167">
        <ele>2881.0</ele>
        <time>2015-06-06T13:29:30Z</time>
      </trkpt>
      <trkpt lat="40.190367" lon="-5.077967">
        <ele>2885.0</ele>
        <time>2015-06-06T13:29:32Z</time>
      </trkpt>
      <trkpt lat="40.190317" lon="-5.077800">
        <ele>2887.0</ele>
        <time>2015-06-06T13:29:34Z</time>
      </trkpt>
      <trkpt lat="40.190133" lon="-5.077683">
        <ele>2890.0</ele>
        <time>2015-06-06T13:29:36Z</time>
      </trkpt>
      <trkpt lat="40.189950" lon="-5.077700">
        <ele>2895.0</ele>
        <time>2015-06-06T13:29:38Z</time>
      </trkpt>
      <trkpt lat="40.189817" lon="-5.077817">
        <ele>2899.0</ele>
        <time>2015-06-06T13:29:40Z</time>
      </trkpt>
      <trkpt lat="40.189717" lon="-5.077967">
        <ele>2899.0</ele>
        <time>2015-06-06T13:29:42Z</time>
      </trkpt>
      <trkpt lat="40.189667" lon="-5.078233">
        <ele>2898.0</ele>
        <time>2015-06-06T13:29:44Z</time>
      </trkpt>
      <trkpt lat="40.189683" lon="-5.078517">
        <ele>2899.0</ele>
        <time>2015-06-06T13:29:46Z</time>
      </trkpt>
      <trkpt lat="40.189783" lon="-5.078750">
        <ele>2903.0</ele>
        <time>2015-06-06T13:29:48Z</time>
      </trkpt>
      <trkpt lat="40.189933" lon="-5.078883">
        <ele>2905.0</ele>
        <time>2015-06-06T13:29:50Z</time>
      </trkpt>
      <trkpt lat="40.190100" lon="-5.078917">
        <ele>2906.0</ele>
        <time>2015-06-06T13:29:52Z</time>
      </trkpt>
      <trkpt lat="40.190283" lon="-5.078833">
        <ele>2908.0</ele>
        <time>2015-06-06T13:29:54Z</time>
      </trkpt>
      <trkpt lat="40.190417" lon="-5.078683">
        <ele>2911.0</ele>
        <time>2015-06-06T13:29:56Z</time>
      </trkpt>
      <trkpt lat="40.190450" lon="-5.078500">
        <ele>2914.0</ele>
        <time>2015-06-06T13:29:58Z</time>
      </trkpt>
      <trkpt lat="40.190400" lon="-5.078317">
        <ele>2914.0</ele>
        <time>2015-06-06T13:30:00Z</time>
      </trkpt>
      <trkpt lat="40.190267" lon="-5.078133">
        <ele>2914.0</ele>
        <time>2015-06-06T13:30:02Z</time>
      </trkpt>
      <trkpt lat="40.190133" lon="-5.078050">
        <ele>2919.0</ele>
        <time>2015-06-06T13:30:04Z</time>
      </trkpt>
      <trkpt lat="40.190033" lon="-5.078017">
        <ele>2921.0</ele>
        <time>2015-06-06T13:30:06Z</time>
      </trkpt>
      <trkpt lat="40.189900" lon="-5.078033">
        <ele>2919.0</ele>
        <time>2015-06-06T13:30:08Z</time>
      </trkpt>
      <trkpt lat="40.189717" lon="-5.078150">
        <ele>2919.0</ele>
        <time>2015-06-06T13:30:10Z</time>
      </trkpt>
      <trkpt lat="40.189633" lon="-5.078317">
        <ele>2924.0</ele>
        <time>2015-06-06T13:30:12Z</time>
      </trkpt>
      <trkpt lat="40.189550" lon="-5.078467">
        <ele>2922.0</ele>
        <time>2015-06-06T13:30:14Z</time>
      </trkpt>
      <trkpt lat="40.189467" lon="-5.078733">
        <ele>2917.0</ele>
        <time>2015-06-06T13:30:16Z</time>
      </trkpt>
      <trkpt lat="40.189433" lon="-5.079050">
        <ele>2918.0</ele>
        <time>2015-06-06T13:30:18Z</time>
      </trkpt>
      <trkpt lat="40.189350" lon="-5.079267">
        <ele>2923.0</ele>
        <time>2015-06-06T13:30:20Z</time>
      </trkpt>
      <trkpt lat="40.189317" lon="-5.079450">
        <ele>2926.0</ele>
        <time>2015-06-06T13:30:22Z</time>
      </trkpt>
      <trkpt lat="40.189350" lon="-5.079633">
        <ele>2925.0</ele>
        <time>2015-06-06T13:30:24Z</time>
      </trkpt>
      <trkpt lat="40.189400" lon="-5.079817">
        <ele>2922.0</ele>
        <time>2015-06-06T13:30:26Z</time>
      </trkpt>
      <trkpt lat="40.189433" lon="-5.080050">
        <ele>2922.0</ele>
        <time>2015-06-06T13:30:28Z</time>
      </trkpt>
      <trkpt lat="40.189417" lon="-5.080250">
        <ele>2926.0</ele>
        <time>2015-06-06T13:30:30Z</time>
      </trkpt>
      <trkpt lat="40.189350" lon="-5.080383">
        <ele>2928.0</ele>
        <time>2015-06-06T13:30:32Z</time>
      </trkpt>
      <trkpt lat="40.189233" lon="-5.080533">
        <ele>2926.0</ele>
        <time>2015-06-06T13:30:34Z</time>
      </trkpt>
      <trkpt lat="40.189083" lon="-5.080750">
        <ele>2929.0</ele>
        <time>2015-06-06T13:30:36Z</time>
      </trkpt>
      <trkpt lat="40.188983" lon="-5.080950">
        <ele>2943.0</ele>
        <time>2015-06-06T13:30:38Z</time>
      </trkpt>
      <trkpt lat="40.188900" lon="-5.081033">
        <ele>2950.0</ele>
        <time>2015-06-06T13:30:40Z</time>
      </trkpt>
      <trkpt lat="40.188850" lon="-5.081200">
        <ele>2952.0</ele>
        <time>2015-06-06T13:30:42Z</time>
      </trkpt>
      <trkpt lat="40.188867" lon="-5.081483">
        <ele>2952.0</ele>
        <time>2015-06-06T13:30:44Z</time>
      </trkpt>
      <trkpt lat="40.189017" lon="-5.081700">
        <ele>2959.0</ele>
        <time>2015-06-06T13:30:46Z</time>
      </trkpt>
      <trkpt lat="40.189200" lon="-5.081783">
        <ele>2964.0</ele>
        <time>2015-06-06T13:30:48Z</time>
      </trkpt>
      <trkpt lat="40.189400" lon="-5.081833">
        <ele>2966.0</ele>
        <time>2015-06-06T13:30:50Z</time>
      </trkpt>
      <trkpt lat="40.189633" lon="-5.081767">
        <ele>2967.0</ele>
        <time>2015-06-06T13:30:52Z</time>
      </trkpt>
      <trkpt lat="40.189850" lon="-5.081600">
        <ele>2971.0</ele>
        <time>2015-06-06T13:30:54Z</time>
      </trkpt>
      <trkpt lat="40.189967" lon="-5.081400">
        <ele>2973.0</ele>
        <time>2015-06-06T13:30:56Z</time>
      </trkpt>
      <trkpt lat="40.190050" lon="-5.081117">
        <ele>2973.0</ele>
        <time>2015-06-06T13:30:58Z</time>
      </trkpt>
      <trkpt lat="40.190050" lon="-5.080817">
        <ele>2976.0</ele>
        <time>2015-06-06T13:31:00Z</time>
      </trkpt>
      <trkpt lat="40.189983" lon="-5.080600">
        <ele>2979.0</ele>
        <time>2015-06-06T13:31:02Z</time>
      </trkpt>
      <trkpt lat="40.189883" lon="-5.080400">
        <ele>2980.0</ele>
        <time>2015-06-06T13:31:04Z</time>
      </trkpt>
      <trkpt lat="40.189733" lon="-5.080283">
        <ele>2980.0</ele>
        <time>2015-06-06T13:31:06Z</time>
      </trkpt>
      <trkpt lat="40.189533" lon="-5.080267">
        <ele>2980.0</ele>
        <time>2015-06-06T13:31:08Z</time>
      </trkpt>
      <trkpt lat="40.189333" lon="-5.080333">
        <ele>2981.0</ele>
        <time>2015-06-06T13:31:10Z</time>
      </trkpt>
      <trkpt lat="40.189183" lon="-5.080500">
        <ele>2983.0</ele>
        <time>2015-06-06T13:31:12Z</time>
      </trkpt>
      <trkpt lat="40.189050" lon="-5.080700">
        <ele>2987.0</ele>
        <time>2015-06-06T13:31:14Z</time>
      </trkpt>
      <trkpt lat="40.188917" lon="-5.080883">
        <ele>2992.0</ele>
        <time>2015-06-06T13:31:16Z</time>
      </trkpt>
      <trkpt lat="40.188817" lon="-5.081067">
        <ele>2997.0</ele>
        <time>2015-06-06T13:31:18Z</time>
      </trkpt>
      <trkpt lat="40.188783" lon="-5.081267">
        <ele>3001.0</ele>
        <time>2015-06-06T13:31:20Z</time>
      </trkpt>
      <trkpt lat="40.188800" lon="-5.081483">
        <ele>3003.0</ele>
        <time>2015-06-06T13:31:22Z</time>
      </trkpt>
      <trkpt lat="40.188933" lon="-5.081700">
        <ele>3004.0</ele>
        <time>2015-06-06T13:31:24Z</time>
      </trkpt>
      <trkpt lat="40.189133" lon="-5.081800">
        <ele>3008.0</ele>
        <time>2015-06-06T13:31:26Z</time>
      </trkpt>
      <trkpt lat="40.189367" lon="-5.081800">
        <ele>3011.0</ele>
        <time>2015-06-06T13:31:28Z</time>
      </trkpt>
      <trkpt lat="40.189567" lon="-5.081650">
        <ele>3014.0</ele>
        <time>2015-06-06T13:31:30Z</time>
      </trkpt>
      <trkpt lat="40.189700" lon="-5.081400">
        <ele>3018.0</ele>
        <time>2015-06-06T13:31:32Z</time>
      </trkpt>
      <trkpt lat="40.189767" lon="-5.081150">
        <ele>3023.0</ele>
        <time>2015-06-06T13:31:34Z</time>
      </trkpt>
      <trkpt lat="40.189750" lon="-5.080917">
        <ele>3025.0</ele>
        <time>2015-06-06T13:31:36Z</time>
      </trkpt>
      <trkpt lat="40.189633" lon="-5.080700">
        <ele>3026.0</ele>
        <time>2015-06-06T13:31:38Z</time>
      </trkpt>
      <trkpt lat="40.189467" lon="-5.080567">
        <ele>3026.0</ele>
        <time>2015-06-06T13:31:40Z</time>
      </trkpt>
      <trkpt lat="40.189267" lon="-5.080533">
        <ele>3027.0</ele>
        <time>2015-06-06T13:31:42Z</time>
      </trkpt>
      <trkpt lat="40.189067" lon="-5.080600">
        <ele>3030.0</ele>
        <time>2015-06-06T13:31:44Z</time>
      </trkpt>
      <trkpt lat="40.188900" lon="-5.080717">
        <ele>3034.0</ele>
        <time>2015-06-06T13:31:46Z</time>
      </trkpt>
      <trkpt lat="40.188750" lon="-5.080850">
        <ele>3037.0</ele>
        <time>2015-06-06T13:31:48Z</time>
      </trkpt>
      <trkpt lat="40.188617" lon="-5.081000">
        <ele>3038.0</ele>
        <time>2015-06-06T13:31:50Z</time>
      </trkpt>
      <trkpt lat="40.188483" lon="-5.081200">
        <ele>3039.0</ele>
        <time>2015-06-06T13:31:52Z</time>
      </trkpt>
      <trkpt lat="40.188400" lon="-5.081400">
        <ele>3040.0</ele>
        <time>2015-06-06T13:31:54Z</time>
      </trkpt>
      <trkpt lat="40.188333" lon="-5.081600">
        <ele>3040.0</ele>
        <time>2015-06-06T13:31:56Z</time>
      </trkpt>
      <trkpt lat="40.188300" lon="-5.081817">
        <ele>3036.0</ele>
        <time>2015-06-06T13:31:58Z</time>
      </trkpt>
      <trkpt lat="40.188233" lon="-5.082083">
        <ele>3034.0</ele>
        <time>2015-06-06T13:32:00Z</time>
      </trkpt>
      <trkpt lat="40.188117" lon="-5.082317">
        <ele>3032.0</ele>
        <time>2015-06-06T13:32:02Z</time>
      </trkpt>
      <trkpt lat="40.188017" lon="-5.082517">
        <ele>3030.0</ele>
        <time>2015-06-06T13:32:04Z</time>
      </trkpt>
      <trkpt lat="40.187933" lon="-5.082733">
        <ele>3028.0</ele>
        <time>2015-06-06T13:32:06Z</time>
      </trkpt>
      <trkpt lat="40.187833" lon="-5.082967">
        <ele>3026.0</ele>
        <time>2015-06-06T13:32:08Z</time>
      </trkpt>
      <trkpt lat="40.187783" lon="-5.083200">
        <ele>3025.0</ele>
        <time>2015-06-06T13:32:10Z</time>
      </trkpt>
      <trkpt lat="40.187733" lon="-5.083450">
        <ele>3022.0</ele>
        <time>2015-06-06T13:32:12Z</time>
      </trkpt>
      <trkpt lat="40.187683" lon="-5.083700">
        <ele>3019.0</ele>
        <time>2015-06-06T13:32:14Z</time>
      </trkpt>
      <trkpt lat="40.187633" lon="-5.083900">
        <ele>3019.0</ele>
        <time>2015-06-06T13:32:16Z</time>
      </trkpt>
      <trkpt lat="40.187583" lon="-5.084083">
        <ele>3014.0</ele>
        <time>2015-06-06T13:32:18Z</time>
      </trkpt>
      <trkpt lat="40.187533" lon="-5.084317">
        <ele>3010.0</ele>
        <time>2015-06-06T13:32:20Z</time>
      </trkpt>
      <trkpt lat="40.187483" lon="-5.084567">
        <ele>3009.0</ele>
        <time>2015-06-06T13:32:22Z</time>
      </trkpt>
      <trkpt lat="40.187450" lon="-5.084783">
        <ele>3006.0</ele>
        <time>2015-06-06T13:32:24Z</time>
      </trkpt>
      <trkpt lat="40.187400" lon="-5.085050">
        <ele>2999.0</ele>
        <time>2015-06-06T13:32:26Z</time>
      </trkpt>
      <trkpt lat="40.187367" lon="-5.085367">
        <ele>2994.0</ele>
        <time>2015-06-06T13:32:28Z</time>
      </trkpt>
      <trkpt lat="40.187333" lon="-5.085633">
        <ele>2995.0</ele>
        <time>2015-06-06T13:32:30Z</time>
      </trkpt>
      <trkpt lat="40.187317" lon="-5.085850">
        <ele>2993.0</ele>
        <time>2015-06-06T13:32:32Z</time>
      </trkpt>
      <trkpt lat="40.187267" lon="-5.086100">
        <ele>2989.0</ele>
        <time>2015-06-06T13:32:34Z</time>
      </trkpt>
      <trkpt lat="40.187217" lon="-5.086383">
        <ele>2986.0</ele>
        <time>2015-06-06T13:32:36Z</time>
      </trkpt>
      <trkpt lat="40.187183" lon="-5.086650">
        <ele>2984.0</ele>
        <time>2015-06-06T13:32:38Z</time>
      </trkpt>
      <trkpt lat="40.187133" lon="-5.086917">
        <ele>2979.0</ele>
        <time>2015-06-06T13:32:40Z</time>
      </trkpt>
      <trkpt lat="40.187067" lon="-5.087217">
        <ele>2975.0</ele>
        <time>2015-06-06T13:32:42Z</time>
      </trkpt>
      <trkpt lat="40.187017" lon="-5.087517">
        <ele>2972.0</ele>
        <time>2015-06-06T13:32:44Z</time>
      </trkpt>
      <trkpt lat="40.186967" lon="-5.087783">
        <ele>2970.0</ele>
        <time>2015-06-06T13:32:46Z</time>
      </trkpt>
      <trkpt lat="40.186933" lon="-5.088067">
        <ele>2966.0</ele>
        <time>2015-06-06T13:32:48Z</time>
      </trkpt>
      <trkpt lat="40.186883" lon="-5.088367">
        <ele>2961.0</ele>
        <time>2015-06-06T13:32:50Z</time>
      </trkpt>
      <trkpt lat="40.186833" lon="-5.088650">
        <ele>2957.0</ele>
        <time>2015-06-06T13:32:52Z</time>
      </trkpt>
      <trkpt lat="40.186750" lon="-5.088883">
        <ele>2953.0</ele>
        <time>2015-06-06T13:32:54Z</time>
      </trkpt>
      <trkpt lat="40.186683" lon="-5.089133">
        <ele>2948.0</ele>
        <time>2015-06-06T13:32:56Z</time>
      </trkpt>
      <trkpt lat="40.186617" lon="-5.089400">
        <ele>2942.0</ele>
        <time>2015-06-06T13:32:58Z</time>
      </trkpt>
      <trkpt lat="40.186583" lon="-5.089683">
        <ele>2937.0</ele>
        <time>2015-06-06T13:33:00Z</time>
      </trkpt>
      <trkpt lat="40.186567" lon="-5.090000">
        <ele>2932.0</ele>
        <time>2015-06-06T13:33:02Z</time>
      </trkpt>
      <trkpt lat="40.186533" lon="-5.090300">
        <ele>2928.0</ele>
        <time>2015-06-06T13:33:04Z</time>
      </trkpt>
      <trkpt lat="40.186517" lon="-5.090600">
        <ele>2924.0</ele>
        <time>2015-06-06T13:33:06Z</time>
      </trkpt>
      <trkpt lat="40.186483" lon="-5.090933">
        <ele>2921.0</ele>
        <time>2015-06-06T13:33:08Z</time>
      </trkpt>
      <trkpt lat="40.186467" lon="-5.091250">
        <ele>2919.0</ele>
        <time>2015-06-06T13:33:10Z</time>
      </trkpt>
      <trkpt lat="40.186467" lon="-5.091567">
        <ele>2917.0</ele>
        <time>2015-06-06T13:33:12Z</time>
      </trkpt>
      <trkpt lat="40.186433" lon="-5.091850">
        <ele>2916.0</ele>
        <time>2015-06-06T13:33:14Z</time>
      </trkpt>
      <trkpt lat="40.186383" lon="-5.092150">
        <ele>2915.0</ele>
        <time>2015-06-06T13:33:16Z</time>
      </trkpt>
      <trkpt lat="40.186333" lon="-5.092467">
        <ele>2915.0</ele>
        <time>2015-06-06T13:33:18Z</time>
      </trkpt>
      <trkpt lat="40.186283" lon="-5.092750">
        <ele>2917.0</ele>
        <time>2015-06-06T13:33:20Z</time>
      </trkpt>
      <trkpt lat="40.186267" lon="-5.093067">
        <ele>2918.0</ele>
        <time>2015-06-06T13:33:22Z</time>
      </trkpt>
      <trkpt lat="40.186283" lon="-5.093383">
        <ele>2920.0</ele>
        <time>2015-06-06T13:33:24Z</time>
      </trkpt>
      <trkpt lat="40.186317" lon="-5.093683">
        <ele>2922.0</ele>
        <time>2015-06-06T13:33:26Z</time>
      </trkpt>
      <trkpt lat="40.186350" lon="-5.094033">
        <ele>2922.0</ele>
        <time>2015-06-06T13:33:28Z</time>
      </trkpt>
      <trkpt lat="40.186367" lon="-5.094400">
        <ele>2928.0</ele>
        <time>2015-06-06T13:33:30Z</time>
      </trkpt>
      <trkpt lat="40.186383" lon="-5.094717">
        <ele>2935.0</ele>
        <time>2015-06-06T13:33:32Z</time>
      </trkpt>
      <trkpt lat="40.186433" lon="-5.095017">
        <ele>2941.0</ele>
        <time>2015-06-06T13:33:34Z</time>
      </trkpt>
      <trkpt lat="40.186600" lon="-5.095300">
        <ele>2945.0</ele>
        <time>2015-06-06T13:33:36Z</time>
      </trkpt>
      <trkpt lat="40.186833" lon="-5.095450">
        <ele>2955.0</ele>
        <time>2015-06-06T13:33:38Z</time>
      </trkpt>
      <trkpt lat="40.187000" lon="-5.095517">
        <ele>2966.0</ele>
        <time>2015-06-06T13:33:40Z</time>
      </trkpt>
      <trkpt lat="40.187167" lon="-5.095517">
        <ele>2973.0</ele>
        <time>2015-06-06T13:33:42Z</time>
      </trkpt>
      <trkpt lat="40.187333" lon="-5.095383">
        <ele>2977.0</ele>
        <time>2015-06-06T13:33:44Z</time>
      </trkpt>
      <trkpt lat="40.187383" lon="-5.095150">
        <ele>2986.0</ele>
        <time>2015-06-06T13:33:46Z</time>
      </trkpt>
      <trkpt lat="40.187350" lon="-5.095000">
        <ele>2995.0</ele>
        <time>2015-06-06T13:33:48Z</time>
      </trkpt>
      <trkpt lat="40.187317" lon="-5.094883">
        <ele>2999.0</ele>
        <time>2015-06-06T13:33:50Z</time>
      </trkpt>
      <trkpt lat="40.187217" lon="-5.094717">
        <ele>3003.0</ele>
        <time>2015-06-06T13:33:52Z</time>
      </trkpt>
      <trkpt lat="40.187050" lon="-5.094683">
        <ele>3009.0</ele>
        <time>2015-06-06T13:33:54Z</time>
      </trkpt>
      <trkpt lat="40.186917" lon="-5.094750">
        <ele>3017.0</ele>
        <time>2015-06-06T13:33:56Z</time>
      </trkpt>
      <trkpt lat="40.186833" lon="-5.094850">
        <ele>3022.0</ele>
        <time>2015-06-06T13:33:58Z</time>
      </trkpt>
      <trkpt lat="40.186700" lon="-5.095033">
        <ele>3022.0</ele>
        <time>2015-06-06T13:34:00Z</time>
      </trkpt>
      <trkpt lat="40.186583" lon="-5.095300">
        <ele>3026.0</ele>
        <time>2015-06-06T13:34:02Z</time>
      </trkpt>
      <trkpt lat="40.186567" lon="-5.095600">
        <ele>3032.0</ele>
        <time>2015-06-06T13:34:04Z</time>
      </trkpt>
      <trkpt lat="40.186617" lon="-5.095900">
        <ele>3034.0</ele>
        <time>2015-06-06T13:34:06Z</time>
      </trkpt>
      <trkpt lat="40.186750" lon="-5.096183">
        <ele>3036.0</ele>
        <time>2015-06-06T13:34:08Z</time>
      </trkpt>
      <trkpt lat="40.186950" lon="-5.096400">
        <ele>3041.0</ele>
        <time>2015-06-06T13:34:10Z</time>
      </trkpt>
      <trkpt lat="40.187150" lon="-5.096517">
        <ele>3050.0</ele>
        <time>2015-06-06T13:34:12Z</time>
      </trkpt>
      <trkpt lat="40.187317" lon="-5.096517">
        <ele>3057.0</ele>
        <time>2015-06-06T13:34:14Z</time>
      </trkpt>
      <trkpt lat="40.187433" lon="-5.096417">
        <ele>3063.0</ele>
        <time>2015-06-06T13:34:16Z</time>
      </trkpt>
      <trkpt lat="40.187500" lon="-5.096200">
        <ele>3068.0</ele>
        <time>2015-06-06T13:34:18Z</time>
      </trkpt>
      <trkpt lat="40.187500" lon="-5.096017">
        <ele>3078.0</ele>
        <time>2015-06-06T13:34:20Z</time>
      </trkpt>
      <trkpt lat="40.187417" lon="-5.095917">
        <ele>3085.0</ele>
        <time>2015-06-06T13:34:22Z</time>
      </trkpt>
      <trkpt lat="40.187267" lon="-5.095883">
        <ele>3090.0</ele>
        <time>2015-06-06T13:34:24Z</time>
      </trkpt>
      <trkpt lat="40.187083" lon="-5.095950">
        <ele>3096.0</ele>
        <time>2015-06-06T13:34:26Z</time>
      </trkpt>
      <trkpt lat="40.186950" lon="-5.096133">
        <ele>3102.0</ele>
        <time>2015-06-06T13:34:28Z</time>
      </trkpt>
      <trkpt lat="40.186867" lon="-5.096383">
        <ele>3107.0</ele>
        <time>2015-06-06T13:34:30Z</time>
      </trkpt>
      <trkpt lat="40.186883" lon="-5.096683">
        <ele>3108.0</ele>
        <time>2015-06-06T13:34:32Z</time>
      </trkpt>
      <trkpt lat="40.186983" lon="-5.096983">
        <ele>3113.0</ele>
        <time>2015-06-06T13:34:34Z</time>
      </trkpt>
      <trkpt lat="40.187133" lon="-5.097200">
        <ele>3120.0</ele>
        <time>2015-06-06T13:34:36Z</time>
      </trkpt>
      <trkpt lat="40.187333" lon="-5.097300">
        <ele>3125.0</ele>
        <time>2015-06-06T13:34:38Z</time>
      </trkpt>
      <trkpt lat="40.187517" lon="-5.097283">
        <ele>3128.0</ele>
        <time>2015-06-06T13:34:40Z</time>
      </trkpt>
      <trkpt lat="40.187700" lon="-5.097100">
        <ele>3133.0</ele>
        <time>2015-06-06T13:34:42Z</time>
      </trkpt>
      <trkpt lat="40.187783" lon="-5.096950">
        <ele>3141.0</ele>
        <time>2015-06-06T13:34:44Z</time>
      </trkpt>
      <trkpt lat="40.187783" lon="-5.096800">
        <ele>3148.0</ele>
        <time>2015-06-06T13:34:46Z</time>
      </trkpt>
      <trkpt lat="40.187717" lon="-5.096617">
        <ele>3149.0</ele>
        <time>2015-06-06T13:34:48Z</time>
      </trkpt>
      <trkpt lat="40.187583" lon="-5.096483">
        <ele>3154.0</ele>
        <time>2015-06-06T13:34:50Z</time>
      </trkpt>
      <trkpt lat="40.187400" lon="-5.096517">
        <ele>3159.0</ele>
        <time>2015-06-06T13:34:52Z</time>
      </trkpt>
      <trkpt lat="40.187217" lon="-5.096633">
        <ele>3166.0</ele>
        <time>2015-06-06T13:34:54Z</time>
      </trkpt>
      <trkpt lat="40.187117" lon="-5.096850">
        <ele>3172.0</ele>
        <time>2015-06-06T13:34:56Z</time>
      </trkpt>
      <trkpt lat="40.187050" lon="-5.097117">
        <ele>3175.0</ele>
        <time>2015-06-06T13:34:58Z</time>
      </trkpt>
      <trkpt lat="40.187050" lon="-5.097433">
        <ele>3180.0</ele>
        <time>2015-06-06T13:35:00Z</time>
      </trkpt>
      <trkpt lat="40.187133" lon="-5.097700">
        <ele>3185.0</ele>
        <time>2015-06-06T13:35:02Z</time>
      </trkpt>
      <trkpt lat="40.187300" lon="-5.097883">
        <ele>3187.0</ele>
        <time>2015-06-06T13:35:04Z</time>
      </trkpt>
      <trkpt lat="40.187517" lon="-5.098000">
        <ele>3191.0</ele>
        <time>2015-06-06T13:35:06Z</time>
      </trkpt>
      <trkpt lat="40.187750" lon="-5.097983">
        <ele>3197.0</ele>
        <time>2015-06-06T13:35:08Z</time>
      </trkpt>
      <trkpt lat="40.187917" lon="-5.097883">
        <ele>3204.0</ele>
        <time>2015-06-06T13:35:10Z</time>
      </trkpt>
      <trkpt lat="40.188017" lon="-5.097717">
        <ele>3210.0</ele>
        <time>2015-06-06T13:35:12Z</time>
      </trkpt>
      <trkpt lat="40.188017" lon="-5.097500">
        <ele>3217.0</ele>
        <time>2015-06-06T13:35:14Z</time>
      </trkpt>
      <trkpt lat="40.187933" lon="-5.097367">
        <ele>3224.0</ele>
        <time>2015-06-06T13:35:16Z</time>
      </trkpt>
      <trkpt lat="40.187817" lon="-5.097317">
        <ele>3229.0</ele>
        <time>2015-06-06T13:35:18Z</time>
      </trkpt>
      <trkpt lat="40.187667" lon="-5.097350">
        <ele>3233.0</ele>
        <time>2015-06-06T13:35:20Z</time>
      </trkpt>
      <trkpt lat="40.187467" lon="-5.097483">
        <ele>3236.0</ele>
        <time>2015-06-06T13:35:22Z</time>
      </trkpt>
      <trkpt lat="40.187333" lon="-5.097683">
        <ele>3242.0</ele>
        <time>2015-06-06T13:35:24Z</time>
      </trkpt>
      <trkpt lat="40.187250" lon="-5.097917">
        <ele>3244.0</ele>
        <time>2015-06-06T13:35:26Z</time>
      </trkpt>
      <trkpt lat="40.187233" lon="-5.098233">
        <ele>3247.0</ele>
        <time>2015-06-06T13:35:28Z</time>
      </trkpt>
      <trkpt lat="40.187317" lon="-5.098483">
        <ele>3252.0</ele>
        <time>2015-06-06T13:35:30Z</time>
      </trkpt>
      <trkpt lat="40.187483" lon="-5.098667">
        <ele>3255.0</ele>
        <time>2015-06-06T13:35:32Z</time>
      </trkpt>
      <trkpt lat="40.187683" lon="-5.098750">
        <ele>3259.0</ele>
        <time>2015-06-06T13:35:34Z</time>
      </trkpt>
      <trkpt lat="40.187900" lon="-5.098700">
        <ele>3263.0</ele>
        <time>2015-06-06T13:35:36Z</time>
      </trkpt>
      <trkpt lat="40.188033" lon="-5.098533">
        <ele>3269.0</ele>
        <time>2015-06-06T13:35:38Z</time>
      </trkpt>
      <trkpt lat="40.188100" lon="-5.098350">
        <ele>3275.0</ele>
        <time>2015-06-06T13:35:40Z</time>
      </trkpt>
      <trkpt lat="40.188067" lon="-5.098133">
        <ele>3278.0</ele>
        <time>2015-06-06T13:35:42Z</time>
      </trkpt>
      <trkpt lat="40.187933" lon="-5.098000">
        <ele>3281.0</ele>
        <time>2015-06-06T13:35:44Z</time>
      </trkpt>
      <trkpt lat="40.187750" lon="-5.098000">
        <ele>3285.0</ele>
        <time>2015-06-06T13:35:46Z</time>
      </trkpt>
      <trkpt lat="40.187583" lon="-5.098083">
        <ele>3291.0</ele>
        <time>2015-06-06T13:35:48Z</time>
      </trkpt>
      <trkpt lat="40.187467" lon="-5.098250">
        <ele>3291.0</ele>
        <time>2015-06-06T13:35:50Z</time>
      </trkpt>
      <trkpt lat="40.187350" lon="-5.098517">
        <ele>3293.0</ele>
        <time>2015-06-06T13:35:52Z</time>
      </trkpt>
      <trkpt lat="40.187333" lon="-5.098833">
        <ele>3297.0</ele>
        <time>2015-06-06T13:35:54Z</time>
      </trkpt>
      <trkpt lat="40.187383" lon="-5.099083">
        <ele>3302.0</ele>
        <time>2015-06-06T13:35:56Z</time>
      </trkpt>
      <trkpt lat="40.187500" lon="-5.099317">
        <ele>3303.0</ele>
        <time>2015-06-06T13:35:58Z</time>
      </trkpt>
      <trkpt lat="40.187700" lon="-5.099517">
        <ele>3306.0</ele>
        <time>2015-06-06T13:36:00Z</time>
      </trkpt>
      <trkpt lat="40.187933" lon="-5.099600">
        <ele>3315.0</ele>
        <time>2015-06-06T13:36:02Z</time>
      </trkpt>
      <trkpt lat="40.188117" lon="-5.099567">
        <ele>3322.0</ele>
        <time>2015-06-06T13:36:04Z</time>
      </trkpt>
      <trkpt lat="40.188267" lon="-5.099467">
        <ele>3326.0</ele>
        <time>2015-06-06T13:36:06Z</time>
      </trkpt>
      <trkpt lat="40.188367" lon="-5.099250">
        <ele>3328.0</ele>
        <time>2015-06-06T13:36:08Z</time>
      </trkpt>
      <trkpt lat="40.188367" lon="-5.099033">
        <ele>3334.0</ele>
        <time>2015-06-06T13:36:10Z</time>
      </trkpt>
      <trkpt lat="40.188267" lon="-5.098917">
        <ele>3339.0</ele>
        <time>2015-06-06T13:36:12Z</time>
      </trkpt>
      <trkpt lat="40.188133" lon="-5.098850">
        <ele>3342.0</ele>
        <time>2015-06-06T13:36:14Z</time>
      </trkpt>
      <trkpt lat="40.187967" lon="-5.098867">
        <ele>3345.0</ele>
        <time>2015-06-06T13:36:16Z</time>
      </trkpt>
      <trkpt lat="40.187817" lon="-5.099000">
        <ele>3348.0</ele>
        <time>2015-06-06T13:36:18Z</time>
      </trkpt>
      <trkpt lat="40.187700" lon="-5.099250">
        <ele>3351.0</ele>
        <time>2015-06-06T13:36:20Z</time>
      </trkpt>
      <trkpt lat="40.187667" lon="-5.099517">
        <ele>3356.0</ele>
        <time>2015-06-06T13:36:22Z</time>
      </trkpt>
      <trkpt lat="40.187700" lon="-5.099800">
        <ele>3358.0</ele>
        <time>2015-06-06T13:36:24Z</time>
      </trkpt>
      <trkpt lat="40.187817" lon="-5.100100">
        <ele>3360.0</ele>
        <time>2015-06-06T13:36:26Z</time>
      </trkpt>
      <trkpt lat="40.188000" lon="-5.100283">
        <ele>3367.0</ele>
        <time>2015-06-06T13:36:28Z</time>
      </trkpt>
      <trkpt lat="40.188183" lon="-5.100317">
        <ele>3376.0</ele>
        <time>2015-06-06T13:36:30Z</time>
      </trkpt>
      <trkpt lat="40.188350" lon="-5.100250">
        <ele>3381.0</ele>
        <time>2015-06-06T13:36:32Z</time>
      </trkpt>
      <trkpt lat="40.188500" lon="-5.100083">
        <ele>3384.0</ele>
        <time>2015-06-06T13:36:34Z</time>
      </trkpt>
      <trkpt lat="40.188567" lon="-5.099833">
        <ele>3387.0</ele>
        <time>2015-06-06T13:36:36Z</time>
      </trkpt>
      <trkpt lat="40.188533" lon="-5.099633">
        <ele>3395.0</ele>
        <time>2015-06-06T13:36:38Z</time>
      </trkpt>
      <trkpt lat="40.188450" lon="-5.099533">
        <ele>3398.0</ele>
        <time>2015-06-06T13:36:40Z</time>
      </trkpt>
      <trkpt lat="40.188333" lon="-5.099450">
        <ele>3399.0</ele>
        <time>2015-06-06T13:36:42Z</time>
      </trkpt>
      <trkpt lat="40.188150" lon="-5.099433">
        <ele>3401.0</ele>
        <time>2015-06-06T13:36:44Z</time>
      </trkpt>
      <trkpt lat="40.187983" lon="-5.099550">
        <ele>3405.0</ele>
        <time>2015-06-06T13:36:46Z</time>
      </trkpt>
      <trkpt lat="40.187850" lon="-5.099717">
        <ele>3408.0</ele>
        <time>2015-06-06T13:36:48Z</time>
      </trkpt>
      <trkpt lat="40.187750" lon="-5.099950">
        <ele>3410.0</ele>
        <time>2015-06-06T13:36:50Z</time>
      </trkpt>
      <trkpt lat="40.187717" lon="-5.100217">
        <ele>3415.0</ele>
        <time>2015-06-06T13:36:52Z</time>
      </trkpt>
      <trkpt lat="40.187750" lon="-5.100450">
        <ele>3421.0</ele>
        <time>2015-06-06T13:36:54Z</time>
      </trkpt>
      <trkpt lat="40.187833" lon="-5.100667">
        <ele>3424.0</ele>
        <time>2015-06-06T13:36:56Z</time>
      </trkpt>
      <trkpt lat="40.188000" lon="-5.100850">
        <ele>3427.0</ele>
        <time>2015-06-06T13:36:58Z</time>
      </trkpt>
      <trkpt lat="40.188183" lon="-5.100933">
        <ele>3433.0</ele>
        <time>2015-06-06T13:37:00Z</time>
      </trkpt>
      <trkpt lat="40.188367" lon="-5.100883">
        <ele>3436.0</ele>
        <time>2015-06-06T13:37:02Z</time>
      </trkpt>
      <trkpt lat="40.188517" lon="-5.100733">
        <ele>3439.0</ele>
        <time>2015-06-06T13:37:04Z</time>
      </trkpt>
      <trkpt lat="40.188550" lon="-5.100517">
        <ele>3442.0</ele>
        <time>2015-06-06T13:37:06Z</time>
      </trkpt>
      <trkpt lat="40.188483" lon="-5.100317">
        <ele>3445.0</ele>
        <time>2015-06-06T13:37:08Z</time>
      </trkpt>
      <trkpt lat="40.188367" lon="-5.100150">
        <ele>3449.0</ele>
        <time>2015-06-06T13:37:10Z</time>
      </trkpt>
      <trkpt lat="40.188200" lon="-5.100050">
        <ele>3453.0</ele>
        <time>2015-06-06T13:37:12Z</time>
      </trkpt>
      <trkpt lat="40.188033" lon="-5.100067">
        <ele>3457.0</ele>
        <time>2015-06-06T13:37:14Z</time>
      </trkpt>
      <trkpt lat="40.187867" lon="-5.100183">
        <ele>3460.0</ele>
        <time>2015-06-06T13:37:16Z</time>
      </trkpt>
      <trkpt lat="40.187733" lon="-5.100383">
        <ele>3460.0</ele>
        <time>2015-06-06T13:37:18Z</time>
      </trkpt>
      <trkpt lat="40.187617" lon="-5.100650">
        <ele>3463.0</ele>
        <time>2015-06-06T13:37:20Z</time>
      </trkpt>
      <trkpt lat="40.187550" lon="-5.100917">
        <ele>3469.0</ele>
        <time>2015-06-06T13:37:22Z</time>
      </trkpt>
      <trkpt lat="40.187533" lon="-5.101150">
        <ele>3473.0</ele>
        <time>2015-06-06T13:37:24Z</time>
      </trkpt>
      <trkpt lat="40.187600" lon="-5.101400">
        <ele>3473.0</ele>
        <time>2015-06-06T13:37:26Z</time>
      </trkpt>
      <trkpt lat="40.187733" lon="-5.101667">
        <ele>3476.0</ele>
        <time>2015-06-06T13:37:28Z</time>
      </trkpt>
      <trkpt lat="40.187767" lon="-5.101917">
        <ele>3483.0</ele>
        <time>2015-06-06T13:37:30Z</time>
      </trkpt>
      <trkpt lat="40.187750" lon="-5.102117">
        <ele>3488.0</ele>
        <time>2015-06-06T13:37:32Z</time>
      </trkpt>
      <trkpt lat="40.187700" lon="-5.102350">
        <ele>3488.0</ele>
        <time>2015-06-06T13:37:34Z</time>
      </trkpt>
      <trkpt lat="40.187617" lon="-5.102617">
        <ele>3491.0</ele>
        <time>2015-06-06T13:37:36Z</time>
      </trkpt>
      <trkpt lat="40.187583" lon="-5.102883">
        <ele>3495.0</ele>
        <time>2015-06-06T13:37:38Z</time>
      </trkpt>
      <trkpt lat="40.187550" lon="-5.103150">
        <ele>3496.0</ele>
        <time>2015-06-06T13:37:40Z</time>
      </trkpt>
      <trkpt lat="40.187500" lon="-5.103433">
        <ele>3498.0</ele>
        <time>2015-06-06T13:37:42Z</time>
      </trkpt>
      <trkpt lat="40.187433" lon="-5.103717">
        <ele>3500.0</ele>
        <time>2015-06-06T13:37:44Z</time>
      </trkpt>
      <trkpt lat="40.187350" lon="-5.104000">
        <ele>3503.0</ele>
        <time>2015-06-06T13:37:46Z</time>
      </trkpt>
      <trkpt lat="40.187233" lon="-5.104283">
        <ele>3508.0</ele>
        <time>2015-06-06T13:37:48Z</time>
      </trkpt>
      <trkpt lat="40.187117" lon="-5.104517">
        <ele>3513.0</ele>
        <time>2015-06-06T13:37:50Z</time>
      </trkpt>
      <trkpt lat="40.187000" lon="-5.104767">
        <ele>3516.0</ele>
        <time>2015-06-06T13:37:52Z</time>
      </trkpt>
      <trkpt lat="40.186900" lon="-5.105083">
        <ele>3520.0</ele>
        <time>2015-06-06T13:37:54Z</time>
      </trkpt>
      <trkpt lat="40.186783" lon="-5.105350">
        <ele>3530.0</ele>
        <time>2015-06-06T13:37:56Z</time>
      </trkpt>
      <trkpt lat="40.186667" lon="-5.105600">
        <ele>3538.0</ele>
        <time>2015-06-06T13:37:58Z</time>
      </trkpt>
      <trkpt lat="40.186550" lon="-5.105867">
        <ele>3543.0</ele>
        <time>2015-06-06T13:38:00Z</time>
      </trkpt>
      <trkpt lat="40.186450" lon="-5.106133">
        <ele>3550.0</ele>
        <time>2015-06-06T13:38:02Z</time>
      </trkpt>
      <trkpt lat="40.186350" lon="-5.106383">
        <ele>3557.0</ele>
        <time>2015-06-06T13:38:04Z</time>
      </trkpt>
      <trkpt lat="40.186267" lon="-5.106633">
        <ele>3561.0</ele>
        <time>2015-06-06T13:38:06Z</time>
      </trkpt>
      <trkpt lat="40.186183" lon="-5.106900">
        <ele>3564.0</ele>
        <time>2015-06-06T13:38:08Z</time>
      </trkpt>
      <trkpt lat="40.186083" lon="-5.107183">
        <ele>3567.0</ele>
        <time>2015-06-06T13:38:10Z</time>
      </trkpt>
      <trkpt lat="40.185983" lon="-5.107467">
        <ele>3571.0</ele>
        <time>2015-06-06T13:38:12Z</time>
      </trkpt>
      <trkpt lat="40.185917" lon="-5.107750">
        <ele>3571.0</ele>
        <time>2015-06-06T13:38:14Z</time>
      </trkpt>
      <trkpt lat="40.185850" lon="-5.108083">
        <ele>3569.0</ele>
        <time>2015-06-06T13:38:16Z</time>
      </trkpt>
      <trkpt lat="40.185767" lon="-5.108433">
        <ele>3570.0</ele>
        <time>2015-06-06T13:38:18Z</time>
      </trkpt>
      <trkpt lat="40.185700" lon="-5.108733">
        <ele>3571.0</ele>
        <time>2015-06-06T13:38:20Z</time>
      </trkpt>
      <trkpt lat="40.185617" lon="-5.109033">
        <ele>3568.0</ele>
        <time>2015-06-06T13:38:22Z</time>
      </trkpt>
      <trkpt lat="40.185517" lon="-5.109350">
        <ele>3565.0</ele>
        <time>2015-06-06T13:38:24Z</time>
      </trkpt>
      <trkpt lat="40.185433" lon="-5.109667">
        <ele>3566.0</ele>
        <time>2015-06-06T13:38:26Z</time>
      </trkpt>
      <trkpt lat="40.185367" lon="-5.109967">
        <ele>3572.0</ele>
        <time>2015-06-06T13:38:28Z</time>
      </trkpt>
      <trkpt lat="40.185300" lon="-5.110233">
        <ele>3574.0</ele>
        <time>2015-06-06T13:38:30Z</time>
      </trkpt>
      <trkpt lat="40.185233" lon="-5.110567">
        <ele>3574.0</ele>
        <time>2015-06-06T13:38:32Z</time>
      </trkpt>
      <trkpt lat="40.185167" lon="-5.110917">
        <ele>3576.0</ele>
        <time>2015-06-06T13:38:34Z</time>
      </trkpt>
      <trkpt lat="40.185083" lon="-5.111233">
        <ele>3580.0</ele>
        <time>2015-06-06T13:38:36Z</time>
      </trkpt>
      <trkpt lat="40.185000" lon="-5.111550">
        <ele>3581.0</ele>
        <time>2015-06-06T13:38:38Z</time>
      </trkpt>
      <trkpt lat="40.184900" lon="-5.111900">
        <ele>3583.0</ele>
        <time>2015-06-06T13:38:40Z</time>
      </trkpt>
      <trkpt lat="40.184817" lon="-5.112250">
        <ele>3585.0</ele>
        <time>2015-06-06T13:38:42Z</time>
      </trkpt>
      <trkpt lat="40.184733" lon="-5.112617">
        <ele>3589.0</ele>
        <time>2015-06-06T13:38:44Z</time>
      </trkpt>
      <trkpt lat="40.184650" lon="-5.112967">
        <ele>3592.0</ele>
        <time>2015-06-06T13:38:46Z</time>
      </trkpt>
      <trkpt lat="40.184550" lon="-5.113317">
        <ele>3595.0</ele>
        <time>2015-06-06T13:38:48Z</time>
      </trkpt>
      <trkpt lat="40.184467" lon="-5.113683">
        <ele>3597.0</ele>
        <time>2015-06-06T13:38:50Z</time>
      </trkpt>
      <trkpt lat="40.184400" lon="-5.114050">
        <ele>3600.0</ele>
        <time>2015-06-06T13:38:52Z</time>
      </trkpt>
      <trkpt lat="40.184333" lon="-5.114450">
        <ele>3605.0</ele>
        <time>2015-06-06T13:38:54Z</time>
      </trkpt>
      <trkpt lat="40.184283" lon="-5.114800">
        <ele>3611.0</ele>
        <time>2015-06-06T13:38:56Z</time>
      </trkpt>
      <trkpt lat="40.184233" lon="-5.115117">
        <ele>3615.0</ele>
        <time>2015-06-06T13:38:58Z</time>
      </trkpt>
      <trkpt lat="40.184200" lon="-5.115433">
        <ele>3616.0</ele>
        <time>2015-06-06T13:39:00Z</time>
      </trkpt>
      <trkpt lat="40.184200" lon="-5.115783">
        <ele>3617.0</ele>
        <time>2015-06-06T13:39:02Z</time>
      </trkpt>
      <trkpt lat="40.184183" lon="-5.116100">
        <ele>3620.0</ele>
        <time>2015-06-06T13:39:04Z</time>
      </trkpt>
      <trkpt lat="40.184133" lon="-5.116383">
        <ele>3622.0</ele>
        <time>2015-06-06T13:39:06Z</time>
      </trkpt>
      <trkpt lat="40.184067" lon="-5.116700">
        <ele>3620.0</ele>
        <time>2015-06-06T13:39:08Z</time>
      </trkpt>
      <trkpt lat="40.183967" lon="-5.117033">
        <ele>3621.0</ele>
        <time>2015-06-06T13:39:10Z</time>
      </trkpt>
      <trkpt lat="40.183833" lon="-5.117300">
        <ele>3624.0</ele>
        <time>2015-06-06T13:39:12Z</time>
      </trkpt>
      <trkpt lat="40.183700" lon="-5.117550">
        <ele>3623.0</ele>
        <time>2015-06-06T13:39:14Z</time>
      </trkpt>
      <trkpt lat="40.183567" lon="-5.117867">
        <ele>3621.0</ele>
        <time>2015-06-06T13:39:16Z</time>
      </trkpt>
      <trkpt lat="40.183417" lon="-5.118167">
        <ele>3621.0</ele>
        <time>2015-06-06T13:39:18Z</time>
      </trkpt>
      <trkpt lat="40.183267" lon="-5.118433">
        <ele>3623.0</ele>
        <time>2015-06-06T13:39:20Z</time>
      </trkpt>
      <trkpt lat="40.183117" lon="-5.118700">
        <ele>3623.0</ele>
        <time>2015-06-06T13:39:22Z</time>
      </trkpt>
      <trkpt lat="40.182950" lon="-5.118967">
        <ele>3624.0</ele>
        <time>2015-06-06T13:39:24Z</time>
      </trkpt>
      <trkpt lat="40.182783" lon="-5.119233">
        <ele>3629.0</ele>
        <time>2015-06-06T13:39:26Z</time>
      </trkpt>
      <trkpt lat="40.182633" lon="-5.119483">
        <ele>3634.0</ele>
        <time>2015-06-06T13:39:28Z</time>
      </trkpt>
      <trkpt lat="40.182467" lon="-5.119733">
        <ele>3636.0</ele>
        <time>2015-06-06T13:39:30Z</time>
      </trkpt>
      <trkpt lat="40.182283" lon="-5.119967">
        <ele>3639.0</ele>
        <time>2015-06-06T13:39:32Z</time>
      </trkpt>
      <trkpt lat="40.182117" lon="-5.120183">
        <ele>3642.0</ele>
        <time>2015-06-06T13:39:34Z</time>
      </trkpt>
      <trkpt lat="40.181950" lon="-5.120383">
        <ele>3642.0</ele>
        <time>2015-06-06T13:39:36Z</time>
      </trkpt>
      <trkpt lat="40.181733" lon="-5.120567">
        <ele>3639.0</ele>
        <time>2015-06-06T13:39:38Z</time>
      </trkpt>
      <trkpt lat="40.181517" lon="-5.120717">
        <ele>3639.0</ele>
        <time>2015-06-06T13:39:40Z</time>
      </trkpt>
      <trkpt lat="40.181333" lon="-5.120867">
        <ele>3640.0</ele>
        <time>2015-06-06T13:39:42Z</time>
      </trkpt>
      <trkpt lat="40.181167" lon="-5.121100">
        <ele>3639.0</ele>
        <time>2015-06-06T13:39:44Z</time>
      </trkpt>
      <trkpt lat="40.181000" lon="-5.121350">
        <ele>3637.0</ele>
        <time>2015-06-06T13:39:46Z</time>
      </trkpt>
      <trkpt lat="40.180867" lon="-5.121650">
        <ele>3636.0</ele>
        <time>2015-06-06T13:39:48Z</time>
      </trkpt>
      <trkpt lat="40.180767" lon="-5.121900">
        <ele>3632.0</ele>
        <time>2015-06-06T13:39:50Z</time>
      </trkpt>
      <trkpt lat="40.180650" lon="-5.122133">
        <ele>3621.0</ele>
        <time>2015-06-06T13:39:52Z</time>
      </trkpt>
      <trkpt lat="40.180517" lon="-5.122417">
        <ele>3610.0</ele>
        <time>2015-06-06T13:39:54Z</time>
      </trkpt>
      <trkpt lat="40.180417" lon="-5.122700">
        <ele>3599.0</ele>
        <time>2015-06-06T13:39:56Z</time>
      </trkpt>
      <trkpt lat="40.180267" lon="-5.123000">
        <ele>3590.0</ele>
        <time>2015-06-06T13:39:58Z</time>
      </trkpt>
      <trkpt lat="40.180133" lon="-5.123283">
        <ele>3581.0</ele>
        <time>2015-06-06T13:40:00Z</time>
      </trkpt>
      <trkpt lat="40.180000" lon="-5.123583">
        <ele>3572.0</ele>
        <time>2015-06-06T13:40:02Z</time>
      </trkpt>
      <trkpt lat="40.179817" lon="-5.123850">
        <ele>3564.0</ele>
        <time>2015-06-06T13:40:04Z</time>
      </trkpt>
      <trkpt lat="40.179617" lon="-5.124067">
        <ele>3558.0</ele>
        <time>2015-06-06T13:40:06Z</time>
      </trkpt>
      <trkpt lat="40.179400" lon="-5.124250">
        <ele>3550.0</ele>
        <time>2015-06-06T13:40:08Z</time>
      </trkpt>
      <trkpt lat="40.179150" lon="-5.124467">
        <ele>3544.0</ele>
        <time>2015-06-06T13:40:10Z</time>
      </trkpt>
      <trkpt lat="40.178917" lon="-5.124617">
        <ele>3544.0</ele>
        <time>2015-06-06T13:40:12Z</time>
      </trkpt>
      <trkpt lat="40.178717" lon="-5.124750">
        <ele>3540.0</ele>
        <time>2015-06-06T13:40:14Z</time>
      </trkpt>
      <trkpt lat="40.178533" lon="-5.125000">
        <ele>3534.0</ele>
        <time>2015-06-06T13:40:16Z</time>
      </trkpt>
      <trkpt lat="40.178367" lon="-5.125267">
        <ele>3531.0</ele>
        <time>2015-06-06T13:40:18Z</time>
      </trkpt>
      <trkpt lat="40.178233" lon="-5.125517">
        <ele>3526.0</ele>
        <time>2015-06-06T13:40:20Z</time>
      </trkpt>
      <trkpt lat="40.178117" lon="-5.125833">
        <ele>3519.0</ele>
        <time>2015-06-06T13:40:22Z</time>
      </trkpt>
      <trkpt lat="40.177967" lon="-5.126117">
        <ele>3513.0</ele>
        <time>2015-06-06T13:40:24Z</time>
      </trkpt>
      <trkpt lat="40.177833" lon="-5.126400">
        <ele>3507.0</ele>
        <time>2015-06-06T13:40:26Z</time>
      </trkpt>
      <trkpt lat="40.177683" lon="-5.126683">
        <ele>3501.0</ele>
        <time>2015-06-06T13:40:28Z</time>
      </trkpt>
      <trkpt lat="40.177517" lon="-5.126950">
        <ele>3496.0</ele>
        <time>2015-06-06T13:40:30Z</time>
      </trkpt>
      <trkpt lat="40.177350" lon="-5.127200">
        <ele>3491.0</ele>
        <time>2015-06-06T13:40:32Z</time>
      </trkpt>
      <trkpt lat="40.177217" lon="-5.127450">
        <ele>3485.0</ele>
        <time>2015-06-06T13:40:34Z</time>
      </trkpt>
      <trkpt lat="40.177083" lon="-5.127717">
        <ele>3479.0</ele>
        <time>2015-06-06T13:40:36Z</time>
      </trkpt>
      <trkpt lat="40.176967" lon="-5.127983">
        <ele>3474.0</ele>
        <time>2015-06-06T13:40:38Z</time>
      </trkpt>
      <trkpt lat="40.176883" lon="-5.128250">
        <ele>3467.0</ele>
        <time>2015-06-06T13:40:40Z</time>
      </trkpt>
      <trkpt lat="40.176783" lon="-5.128550">
        <ele>3460.0</ele>
        <time>2015-06-06T13:40:42Z</time>
      </trkpt>
      <trkpt lat="40.176683" lon="-5.128833">
        <ele>3454.0</ele>
        <time>2015-06-06T13:40:44Z</time>
      </trkpt>
      <trkpt lat="40.176583" lon="-5.129117">
        <ele>3447.0</ele>
        <time>2015-06-06T13:40:46Z</time>
      </trkpt>
      <trkpt lat="40.176467" lon="-5.129400">
        <ele>3440.0</ele>
        <time>2015-06-06T13:40:48Z</time>
      </trkpt>
      <trkpt lat="40.176350" lon="-5.129683">
        <ele>3434.0</ele>
        <time>2015-06-06T13:40:50Z</time>
      </trkpt>
      <trkpt lat="40.176217" lon="-5.129967">
        <ele>3428.0</ele>
        <time>2015-06-06T13:40:52Z</time>
      </trkpt>
      <trkpt lat="40.176100" lon="-5.130300">
        <ele>3424.0</ele>
        <time>2015-06-06T13:40:54Z</time>
      </trkpt>
      <trkpt lat="40.176000" lon="-5.130633">
        <ele>3424.0</ele>
        <time>2015-06-06T13:40:56Z</time>
      </trkpt>
      <trkpt lat="40.175883" lon="-5.130933">
        <ele>3422.0</ele>
        <time>2015-06-06T13:40:58Z</time>
      </trkpt>
      <trkpt lat="40.175750" lon="-5.131250">
        <ele>3419.0</ele>
        <time>2015-06-06T13:41:00Z</time>
      </trkpt>
      <trkpt lat="40.175633" lon="-5.131567">
        <ele>3417.0</ele>
        <time>2015-06-06T13:41:02Z</time>
      </trkpt>
      <trkpt lat="40.175533" lon="-5.131867">
        <ele>3414.0</ele>
        <time>2015-06-06T13:41:04Z</time>
      </trkpt>
      <trkpt lat="40.175433" lon="-5.132200">
        <ele>3408.0</ele>
        <time>2015-06-06T13:41:06Z</time>
      </trkpt>
      <trkpt lat="40.175317" lon="-5.132550">
        <ele>3405.0</ele>
        <time>2015-06-06T13:41:08Z</time>
      </trkpt>
      <trkpt lat="40.175200" lon="-5.132850">
        <ele>3402.0</ele>
        <time>2015-06-06T13:41:10Z</time>
      </trkpt>
      <trkpt lat="40.175083" lon="-5.133150">
        <ele>3397.0</ele>
        <time>2015-06-06T13:41:12Z</time>
      </trkpt>
      <trkpt lat="40.174983" lon="-5.133483">
        <ele>3393.0</ele>
        <time>2015-06-06T13:41:14Z</time>
      </trkpt>
      <trkpt lat="40.174867" lon="-5.133800">
        <ele>3391.0</ele>
        <time>2015-06-06T13:41:16Z</time>
      </trkpt>
      <trkpt lat="40.174767" lon="-5.134117">
        <ele>3388.0</ele>
        <time>2015-06-06T13:41:18Z</time>
      </trkpt>
      <trkpt lat="40.174650" lon="-5.134400">
        <ele>3384.0</ele>
        <time>2015-06-06T13:41:20Z</time>
      </trkpt>
      <trkpt lat="40.174550" lon="-5.134717">
        <ele>3378.0</ele>
        <time>2015-06-06T13:41:22Z</time>
      </trkpt>
      <trkpt lat="40.174433" lon="-5.135050">
        <ele>3373.0</ele>
        <time>2015-06-06T13:41:24Z</time>
      </trkpt>
      <trkpt lat="40.174317" lon="-5.135367">
        <ele>3370.0</ele>
        <time>2015-06-06T13:41:26Z</time>
      </trkpt>
      <trkpt lat="40.174200" lon="-5.135650">
        <ele>3365.0</ele>
        <time>2015-06-06T13:41:28Z</time>
      </trkpt>
      <trkpt lat="40.174083" lon="-5.135950">
        <ele>3360.0</ele>
        <time>2015-06-06T13:41:30Z</time>
      </trkpt>
      <trkpt lat="40.174000" lon="-5.136267">
        <ele>3355.0</ele>
        <time>2015-06-06T13:41:32Z</time>
      </trkpt>
      <trkpt lat="40.173917" lon="-5.136583">
        <ele>3349.0</ele>
        <time>2015-06-06T13:41:34Z</time>
      </trkpt>
      <trkpt lat="40.173817" lon="-5.136900">
        <ele>3343.0</ele>
        <time>2015-06-06T13:41:36Z</time>
      </trkpt>
      <trkpt lat="40.173733" lon="-5.137217">
        <ele>3338.0</ele>
        <time>2015-06-06T13:41:38Z</time>
      </trkpt>
      <trkpt lat="40.173617" lon="-5.137533">
        <ele>3334.0</ele>
        <time>2015-06-06T13:41:40Z</time>
      </trkpt>
      <trkpt lat="40.173500" lon="-5.137800">
        <ele>3330.0</ele>
        <time>2015-06-06T13:41:42Z</time>
      </trkpt>
      <trkpt lat="40.173383" lon="-5.138067">
        <ele>3327.0</ele>
        <time>2015-06-06T13:41:44Z</time>
      </trkpt>
      <trkpt lat="40.173300" lon="-5.138367">
        <ele>3324.0</ele>
        <time>2015-06-06T13:41:46Z</time>
      </trkpt>
      <trkpt lat="40.173250" lon="-5.138650">
        <ele>3321.0</ele>
        <time>2015-06-06T13:41:48Z</time>
      </trkpt>
      <trkpt lat="40.173183" lon="-5.138950">
        <ele>3317.0</ele>
        <time>2015-06-06T13:41:50Z</time>
      </trkpt>
      <trkpt lat="40.173117" lon="-5.139267">
        <ele>3313.0</ele>
        <time>2015-06-06T13:41:52Z</time>
      </trkpt>
      <trkpt lat="40.173067" lon="-5.139583">
        <ele>3310.0</ele>
        <time>2015-06-06T13:41:54Z</time>
      </trkpt>
      <trkpt lat="40.173017" lon="-5.139900">
        <ele>3307.0</ele>
        <time>2015-06-06T13:41:56Z</time>
      </trkpt>
      <trkpt lat="40.172950" lon="-5.140217">
        <ele>3303.0</ele>
        <time>2015-06-06T13:41:58Z</time>
      </trkpt>
      <trkpt lat="40.172883" lon="-5.140533">
        <ele>3302.0</ele>
        <time>2015-06-06T13:42:00Z</time>
      </trkpt>
      <trkpt lat="40.172817" lon="-5.140850">
        <ele>3302.0</ele>
        <time>2015-06-06T13:42:02Z</time>
      </trkpt>
      <trkpt lat="40.172750" lon="-5.141150">
        <ele>3302.0</ele>
        <time>2015-06-06T13:42:04Z</time>
      </trkpt>
      <trkpt lat="40.172683" lon="-5.141433">
        <ele>3302.0</ele>
        <time>2015-06-06T13:42:06Z</time>
      </trkpt>
      <trkpt lat="40.172617" lon="-5.141750">
        <ele>3300.0</ele>
        <time>2015-06-06T13:42:08Z</time>
      </trkpt>
      <trkpt lat="40.172550" lon="-5.142067">
        <ele>3299.0</ele>
        <time>2015-06-06T13:42:10Z</time>
      </trkpt>
      <trkpt lat="40.172467" lon="-5.142383">
        <ele>3294.0</ele>
        <time>2015-06-06T13:42:12Z</time>
      </trkpt>
      <trkpt lat="40.172417" lon="-5.142750">
        <ele>3292.0</ele>
        <time>2015-06-06T13:42:14Z</time>
      </trkpt>
      <trkpt lat="40.172350" lon="-5.143083">
        <ele>3293.0</ele>
        <time>2015-06-06T13:42:16Z</time>
      </trkpt>
      <trkpt lat="40.172300" lon="-5.143383">
        <ele>3291.0</ele>
        <time>2015-06-06T13:42:18Z</time>
      </trkpt>
      <trkpt lat="40.172250" lon="-5.143733">
        <ele>3287.0</ele>
        <time>2015-06-06T13:42:20Z</time>
      </trkpt>
      <trkpt lat="40.172217" lon="-5.144083">
        <ele>3284.0</ele>
        <time>2015-06-06T13:42:22Z</time>
      </trkpt>
      <trkpt lat="40.172167" lon="-5.144417">
        <ele>3281.0</ele>
        <time>2015-06-06T13:42:24Z</time>
      </trkpt>
      <trkpt lat="40.172117" lon="-5.144750">
        <ele>3277.0</ele>
        <time>2015-06-06T13:42:26Z</time>
      </trkpt>
      <trkpt lat="40.172067" lon="-5.145083">
        <ele>3274.0</ele>
        <time>2015-06-06T13:42:28Z</time>
      </trkpt>
      <trkpt lat="40.172000" lon="-5.145417">
        <ele>3272.0</ele>
        <time>2015-06-06T13:42:30Z</time>
      </trkpt>
      <trkpt lat="40.171933" lon="-5.145733">
        <ele>3267.0</ele>
        <time>2015-06-06T13:42:32Z</time>
      </trkpt>
      <trkpt lat="40.171833" lon="-5.146083">
        <ele>3263.0</ele>
        <time>2015-06-06T13:42:34Z</time>
      </trkpt>
      <trkpt lat="40.171750" lon="-5.146400">
        <ele>3262.0</ele>
        <time>2015-06-06T13:42:36Z</time>
      </trkpt>
      <trkpt lat="40.171667" lon="-5.146700">
        <ele>3257.0</ele>
        <time>2015-06-06T13:42:38Z</time>
      </trkpt>
      <trkpt lat="40.171583" lon="-5.147017">
        <ele>3251.0</ele>
        <time>2015-06-06T13:42:40Z</time>
      </trkpt>
      <trkpt lat="40.171533" lon="-5.147383">
        <ele>3245.0</ele>
        <time>2015-06-06T13:42:42Z</time>
      </trkpt>
      <trkpt lat="40.171467" lon="-5.147733">
        <ele>3242.0</ele>
        <time>2015-06-06T13:42:44Z</time>
      </trkpt>
      <trkpt lat="40.171417" lon="-5.148083">
        <ele>3240.0</ele>
        <time>2015-06-06T13:42:46Z</time>
      </trkpt>
      <trkpt lat="40.171350" lon="-5.148417">
        <ele>3237.0</ele>
        <time>2015-06-06T13:42:48Z</time>
      </trkpt>
      <trkpt lat="40.171283" lon="-5.148767">
        <ele>3232.0</ele>
        <time>2015-06-06T13:42:50Z</time>
      </trkpt>
      <trkpt lat="40.171183" lon="-5.149117">
        <ele>3229.0</ele>
        <time>2015-06-06T13:42:52Z</time>
      </trkpt>
      <trkpt lat="40.171100" lon="-5.149433">
        <ele>3227.0</ele>
        <time>2015-06-06T13:42:54Z</time>
      </trkpt>
      <trkpt lat="40.171000" lon="-5.149750">
        <ele>3225.0</ele>
        <time>2015-06-06T13:42:56Z</time>
      </trkpt>
      <trkpt lat="40.170883" lon="-5.150083">
        <ele>3225.0</ele>
        <time>2015-06-06T13:42:58Z</time>
      </trkpt>
      <trkpt lat="40.170800" lon="-5.150383">
        <ele>3226.0</ele>
        <time>2015-06-06T13:43:00Z</time>
      </trkpt>
      <trkpt lat="40.170767" lon="-5.150683">
        <ele>3226.0</ele>
        <time>2015-06-06T13:43:02Z</time>
      </trkpt>
      <trkpt lat="40.170717" lon="-5.150983">
        <ele>3225.0</ele>
        <time>2015-06-06T13:43:04Z</time>
      </trkpt>
      <trkpt lat="40.170667" lon="-5.151300">
        <ele>3226.0</ele>
        <time>2015-06-06T13:43:06Z</time>
      </trkpt>
      <trkpt lat="40.170617" lon="-5.151600">
        <ele>3226.0</ele>
        <time>2015-06-06T13:43:08Z</time>
      </trkpt>
      <trkpt lat="40.170517" lon="-5.151933">
        <ele>3225.0</ele>
        <time>2015-06-06T13:43:10Z</time>
      </trkpt>
      <trkpt lat="40.170433" lon="-5.152283">
        <ele>3225.0</ele>
        <time>2015-06-06T13:43:12Z</time>
      </trkpt>
      <trkpt lat="40.170350" lon="-5.152633">
        <ele>3226.0</ele>
        <time>2015-06-06T13:43:14Z</time>
      </trkpt>
      <trkpt lat="40.170283" lon="-5.152950">
        <ele>3224.0</ele>
        <time>2015-06-06T13:43:16Z</time>
      </trkpt>
      <trkpt lat="40.170217" lon="-5.153283">
        <ele>3219.0</ele>
        <time>2015-06-06T13:43:18Z</time>
      </trkpt>
      <trkpt lat="40.170167" lon="-5.153650">
        <ele>3214.0</ele>
        <time>2015-06-06T13:43:20Z</time>
      </trkpt>
      <trkpt lat="40.170133" lon="-5.154017">
        <ele>3212.0</ele>
        <time>2015-06-06T13:43:22Z</time>
      </trkpt>
      <trkpt lat="40.170100" lon="-5.154350">
        <ele>3210.0</ele>
        <time>2015-06-06T13:43:24Z</time>
      </trkpt>
      <trkpt lat="40.170050" lon="-5.154700">
        <ele>3204.0</ele>
        <time>2015-06-06T13:43:26Z</time>
      </trkpt>
      <trkpt lat="40.169983" lon="-5.155067">
        <ele>3202.0</ele>
        <time>2015-06-06T13:43:28Z</time>
      </trkpt>
      <trkpt lat="40.169933" lon="-5.155400">
        <ele>3199.0</ele>
        <time>2015-06-06T13:43:30Z</time>
      </trkpt>
      <trkpt lat="40.169883" lon="-5.155767">
        <ele>3193.0</ele>
        <time>2015-06-06T13:43:32Z</time>
      </trkpt>
      <trkpt lat="40.169817" lon="-5.156150">
        <ele>3189.0</ele>
        <time>2015-06-06T13:43:34Z</time>
      </trkpt>
      <trkpt lat="40.169733" lon="-5.156483">
        <ele>3184.0</ele>
        <time>2015-06-06T13:43:36Z</time>
      </trkpt>
      <trkpt lat="40.169633" lon="-5.156817">
        <ele>3178.0</ele>
        <time>2015-06-06T13:43:38Z</time>
      </trkpt>
      <trkpt lat="40.169517" lon="-5.157167">
        <ele>3172.0</ele>
        <time>2015-06-06T13:43:40Z</time>
      </trkpt>
      <trkpt lat="40.169400" lon="-5.157500">
        <ele>3168.0</ele>
        <time>2015-06-06T13:43:42Z</time>
      </trkpt>
      <trkpt lat="40.169267" lon="-5.157800">
        <ele>3164.0</ele>
        <time>2015-06-06T13:43:44Z</time>
      </trkpt>
      <trkpt lat="40.169117" lon="-5.158117">
        <ele>3160.0</ele>
        <time>2015-06-06T13:43:46Z</time>
      </trkpt>
      <trkpt lat="40.168950" lon="-5.158417">
        <ele>3158.0</ele>
        <time>2015-06-06T13:43:48Z</time>
      </trkpt>
      <trkpt lat="40.168817" lon="-5.158733">
        <ele>3154.0</ele>
        <time>2015-06-06T13:43:50Z</time>
      </trkpt>
      <trkpt lat="40.168717" lon="-5.159067">
        <ele>3150.0</ele>
        <time>2015-06-06T13:43:52Z</time>
      </trkpt>
      <trkpt lat="40.168650" lon="-5.159400">
        <ele>3146.0</ele>
        <time>2015-06-06T13:43:54Z</time>
      </trkpt>
      <trkpt lat="40.168600" lon="-5.159783">
        <ele>3140.0</ele>
        <time>2015-06-06T13:43:56Z</time>
      </trkpt>
      <trkpt lat="40.168533" lon="-5.160167">
        <ele>3136.0</ele>
        <time>2015-06-06T13:43:58Z</time>
      </trkpt>
      <trkpt lat="40.168467" lon="-5.160550">
        <ele>3132.0</ele>
        <time>2015-06-06T13:44:00Z</time>
      </trkpt>
      <trkpt lat="40.168400" lon="-5.160933">
        <ele>3127.0</ele>
        <time>2015-06-06T13:44:02Z</time>
      </trkpt>
      <trkpt lat="40.168333" lon="-5.161367">
        <ele>3128.0</ele>
        <time>2015-06-06T13:44:04Z</time>
      </trkpt>
      <trkpt lat="40.168267" lon="-5.161717">
        <ele>3132.0</ele>
        <time>2015-06-06T13:44:06Z</time>
      </trkpt>
      <trkpt lat="40.168200" lon="-5.162050">
        <ele>3129.0</ele>
        <time>2015-06-06T13:44:08Z</time>
      </trkpt>
      <trkpt lat="40.168117" lon="-5.162450">
        <ele>3123.0</ele>
        <time>2015-06-06T13:44:10Z</time>
      </trkpt>
      <trkpt lat="40.168017" lon="-5.162833">
        <ele>3121.0</ele>
        <time>2015-06-06T13:44:12Z</time>
      </trkpt>
      <trkpt lat="40.167933" lon="-5.163167">
        <ele>3118.0</ele>
        <time>2015-06-06T13:44:14Z</time>
      </trkpt>
      <trkpt lat="40.167850" lon="-5.163533">
        <ele>3113.0</ele>
        <time>2015-06-06T13:44:16Z</time>
      </trkpt>
      <trkpt lat="40.167750" lon="-5.163900">
        <ele>3108.0</ele>
        <time>2015-06-06T13:44:18Z</time>
      </trkpt>
      <trkpt lat="40.167650" lon="-5.164250">
        <ele>3103.0</ele>
        <time>2015-06-06T13:44:20Z</time>
      </trkpt>
      <trkpt lat="40.167550" lon="-5.164567">
        <ele>3098.0</ele>
        <time>2015-06-06T13:44:22Z</time>
      </trkpt>
      <trkpt lat="40.167433" lon="-5.164900">
        <ele>3089.0</ele>
        <time>2015-06-06T13:44:24Z</time>
      </trkpt>
      <trkpt lat="40.167317" lon="-5.165250">
        <ele>3083.0</ele>
        <time>2015-06-06T13:44:26Z</time>
      </trkpt>
      <trkpt lat="40.167200" lon="-5.165567">
        <ele>3079.0</ele>
        <time>2015-06-06T13:44:28Z</time>
      </trkpt>
      <trkpt lat="40.167100" lon="-5.165900">
        <ele>3072.0</ele>
        <time>2015-06-06T13:44:30Z</time>
      </trkpt>
      <trkpt lat="40.167017" lon="-5.166283">
        <ele>3069.0</ele>
        <time>2015-06-06T13:44:32Z</time>
      </trkpt>
      <trkpt lat="40.166967" lon="-5.166617">
        <ele>3067.0</ele>
        <time>2015-06-06T13:44:34Z</time>
      </trkpt>
      <trkpt lat="40.166950" lon="-5.166933">
        <ele>3064.0</ele>
        <time>2015-06-06T13:44:36Z</time>
      </trkpt>
      <trkpt lat="40.166933" lon="-5.167283">
        <ele>3058.0</ele>
        <time>2015-06-06T13:44:38Z</time>
      </trkpt>
      <trkpt lat="40.166883" lon="-5.167633">
        <ele>3056.0</ele>
        <time>2015-06-06T13:44:40Z</time>
      </trkpt>
      <trkpt lat="40.166817" lon="-5.167950">
        <ele>3055.0</ele>
        <time>2015-06-06T13:44:42Z</time>
      </trkpt>
      <trkpt lat="40.166750" lon="-5.168267">
        <ele>3050.0</ele>
        <time>2015-06-06T13:44:44Z</time>
      </trkpt>
      <trkpt lat="40.166667" lon="-5.168617">
        <ele>3045.0</ele>
        <time>2015-06-06T13:44:46Z</time>
      </trkpt>
      <trkpt lat="40.166583" lon="-5.168950">
        <ele>3043.0</ele>
        <time>2015-06-06T13:44:48Z</time>
      </trkpt>
      <trkpt lat="40.166483" lon="-5.169267">
        <ele>3039.0</ele>
        <time>2015-06-06T13:44:50Z</time>
      </trkpt>
      <trkpt lat="40.166383" lon="-5.169600">
        <ele>3034.0</ele>
        <time>2015-06-06T13:44:52Z</time>
      </trkpt>
      <trkpt lat="40.166267" lon="-5.169933">
        <ele>3032.0</ele>
        <time>2015-06-06T13:44:54Z</time>
      </trkpt>
      <trkpt lat="40.166167" lon="-5.170250">
        <ele>3029.0</ele>
        <time>2015-06-06T13:44:56Z</time>
      </trkpt>
      <trkpt lat="40.166050" lon="-5.170550">
        <ele>3024.0</ele>
        <time>2015-06-06T13:44:58Z</time>
      </trkpt>
      <trkpt lat="40.165950" lon="-5.170900">
        <ele>3019.0</ele>
        <time>2015-06-06T13:45:00Z</time>
      </trkpt>
      <trkpt lat="40.165850" lon="-5.171233">
        <ele>3017.0</ele>
        <time>2015-06-06T13:45:02Z</time>
      </trkpt>
      <trkpt lat="40.165767" lon="-5.171533">
        <ele>3014.0</ele>
        <time>2015-06-06T13:45:04Z</time>
      </trkpt>
      <trkpt lat="40.165683" lon="-5.171867">
        <ele>3010.0</ele>
        <time>2015-06-06T13:45:06Z</time>
      </trkpt>
      <trkpt lat="40.165567" lon="-5.172200">
        <ele>3006.0</ele>
        <time>2015-06-06T13:45:08Z</time>
      </trkpt>
      <trkpt lat="40.165467" lon="-5.172533">
        <ele>3004.0</ele>
        <time>2015-06-06T13:45:10Z</time>
      </trkpt>
      <trkpt lat="40.165383" lon="-5.172850">
        <ele>3001.0</ele>
        <time>2015-06-06T13:45:12Z</time>
      </trkpt>
      <trkpt lat="40.165283" lon="-5.173183">
        <ele>2997.0</ele>
        <time>2015-06-06T13:45:14Z</time>
      </trkpt>
      <trkpt lat="40.165183" lon="-5.173517">
        <ele>2995.0</ele>
        <time>2015-06-06T13:45:16Z</time>
      </trkpt>
      <trkpt lat="40.165100" lon="-5.173833">
        <ele>2992.0</ele>
        <time>2015-06-06T13:45:18Z</time>
      </trkpt>
      <trkpt lat="40.165033" lon="-5.174200">
        <ele>2989.0</ele>
        <time>2015-06-06T13:45:20Z</time>
      </trkpt>
      <trkpt lat="40.164950" lon="-5.174517">
        <ele>2989.0</ele>
        <time>2015-06-06T13:45:22Z</time>
      </trkpt>
      <trkpt lat="40.164900" lon="-5.174783">
        <ele>2988.0</ele>
        <time>2015-06-06T13:45:24Z</time>
      </trkpt>
      <trkpt lat="40.164883" lon="-5.175083">
        <ele>2983.0</ele>
        <time>2015-06-06T13:45:26Z</time>
      </trkpt>
      <trkpt lat="40.164850" lon="-5.175433">
        <ele>2979.0</ele>
        <time>2015-06-06T13:45:28Z</time>
      </trkpt>
      <trkpt lat="40.164800" lon="-5.175783">
        <ele>2978.0</ele>
        <time>2015-06-06T13:45:30Z</time>
      </trkpt>
      <trkpt lat="40.164767" lon="-5.176117">
        <ele>2977.0</ele>
        <time>2015-06-06T13:45:32Z</time>
      </trkpt>
      <trkpt lat="40.164700" lon="-5.176450">
        <ele>2977.0</ele>
        <time>2015-06-06T13:45:34Z</time>
      </trkpt>
      <trkpt lat="40.164633" lon="-5.176767">
        <ele>2979.0</ele>
        <time>2015-06-06T13:45:36Z</time>
      </trkpt>
      <trkpt lat="40.164633" lon="-5.177083">
        <ele>2980.0</ele>
        <time>2015-06-06T13:45:38Z</time>
      </trkpt>
      <trkpt lat="40.164650" lon="-5.177367">
        <ele>2977.0</ele>
        <time>2015-06-06T13:45:40Z</time>
      </trkpt>
      <trkpt lat="40.164633" lon="-5.177650">
        <ele>2970.0</ele>
        <time>2015-06-06T13:45:42Z</time>
      </trkpt>
      <trkpt lat="40.164550" lon="-5.177967">
        <ele>2963.0</ele>
        <time>2015-06-06T13:45:44Z</time>
      </trkpt>
      <trkpt lat="40.164483" lon="-5.178250">
        <ele>2959.0</ele>
        <time>2015-06-06T13:45:46Z</time>
      </trkpt>
      <trkpt lat="40.164400" lon="-5.178500">
        <ele>2953.0</ele>
        <time>2015-06-06T13:45:48Z</time>
      </trkpt>
      <trkpt lat="40.164317" lon="-5.178783">
        <ele>2946.0</ele>
        <time>2015-06-06T13:45:50Z</time>
      </trkpt>
      <trkpt lat="40.164233" lon="-5.179100">
        <ele>2938.0</ele>
        <time>2015-06-06T13:45:52Z</time>
      </trkpt>
      <trkpt lat="40.164133" lon="-5.179417">
        <ele>2933.0</ele>
        <time>2015-06-06T13:45:54Z</time>
      </trkpt>
      <trkpt lat="40.164050" lon="-5.179683">
        <ele>2929.0</ele>
        <time>2015-06-06T13:45:56Z</time>
      </trkpt>
      <trkpt lat="40.163967" lon="-5.179950">
        <ele>2921.0</ele>
        <time>2015-06-06T13:45:58Z</time>
      </trkpt>
      <trkpt lat="40.163917" lon="-5.180250">
        <ele>2913.0</ele>
        <time>2015-06-06T13:46:00Z</time>
      </trkpt>
      <trkpt lat="40.163850" lon="-5.180550">
        <ele>2908.0</ele>
        <time>2015-06-06T13:46:02Z</time>
      </trkpt>
      <trkpt lat="40.163783" lon="-5.180817">
        <ele>2902.0</ele>
        <time>2015-06-06T13:46:04Z</time>
      </trkpt>
      <trkpt lat="40.163700" lon="-5.181100">
        <ele>2893.0</ele>
        <time>2015-06-06T13:46:06Z</time>
      </trkpt>
      <trkpt lat="40.163600" lon="-5.181417">
        <ele>2888.0</ele>
        <time>2015-06-06T13:46:08Z</time>
      </trkpt>
      <trkpt lat="40.163483" lon="-5.181633">
        <ele>2887.0</ele>
        <time>2015-06-06T13:46:10Z</time>
      </trkpt>
      <trkpt lat="40.163383" lon="-5.181833">
        <ele>2882.0</ele>
        <time>2015-06-06T13:46:12Z</time>
      </trkpt>
      <trkpt lat="40.163333" lon="-5.182083">
        <ele>2874.0</ele>
        <time>2015-06-06T13:46:14Z</time>
      </trkpt>
      <trkpt lat="40.163267" lon="-5.182383">
        <ele>2867.0</ele>
        <time>2015-06-06T13:46:16Z</time>
      </trkpt>
      <trkpt lat="40.163150" lon="-5.182633">
        <ele>2865.0</ele>
        <time>2015-06-06T13:46:18Z</time>
      </trkpt>
      <trkpt lat="40.163067" lon="-5.182883">
        <ele>2860.0</ele>
        <time>2015-06-06T13:46:20Z</time>
      </trkpt>
      <trkpt lat="40.163033" lon="-5.183183">
        <ele>2853.0</ele>
        <time>2015-06-06T13:46:22Z</time>
      </trkpt>
      <trkpt lat="40.163000" lon="-5.183483">
        <ele>2846.0</ele>
        <time>2015-06-06T13:46:24Z</time>
      </trkpt>
      <trkpt lat="40.162933" lon="-5.183767">
        <ele>2839.0</ele>
        <time>2015-06-06T13:46:26Z</time>
      </trkpt>
      <trkpt lat="40.162850" lon="-5.184067">
        <ele>2832.0</ele>
        <time>2015-06-06T13:46:28Z</time>
      </trkpt>
      <trkpt lat="40.162750" lon="-5.184367">
        <ele>2827.0</ele>
        <time>2015-06-06T13:46:30Z</time>
      </trkpt>
      <trkpt lat="40.162650" lon="-5.184650">
        <ele>2824.0</ele>
        <time>2015-06-06T13:46:32Z</time>
      </trkpt>
      <trkpt lat="40.162600" lon="-5.184917">
        <ele>2820.0</ele>
        <time>2015-06-06T13:46:34Z</time>
      </trkpt>
      <trkpt lat="40.162550" lon="-5.185217">
        <ele>2814.0</ele>
        <time>2015-06-06T13:46:36Z</time>
      </trkpt>
      <trkpt lat="40.162533" lon="-5.185500">
        <ele>2810.0</ele>
        <time>2015-06-06T13:46:38Z</time>
      </trkpt>
      <trkpt lat="40.162467" lon="-5.185783">
        <ele>2806.0</ele>
        <time>2015-06-06T13:46:40Z</time>
      </trkpt>
      <trkpt lat="40.162400" lon="-5.186083">
        <ele>2804.0</ele>
        <time>2015-06-06T13:46:42Z</time>
      </trkpt>
      <trkpt lat="40.162333" lon="-5.186367">
        <ele>2802.0</ele>
        <time>2015-06-06T13:46:44Z</time>
      </trkpt>
      <trkpt lat="40.162267" lon="-5.186617">
        <ele>2800.0</ele>
        <time>2015-06-06T13:46:46Z</time>
      </trkpt>
      <trkpt lat="40.162217" lon="-5.186883">
        <ele>2797.0</ele>
        <time>2015-06-06T13:46:48Z</time>
      </trkpt>
      <trkpt lat="40.162217" lon="-5.187150">
        <ele>2796.0</ele>
        <time>2015-06-06T13:46:50Z</time>
      </trkpt>
      <trkpt lat="40.162200" lon="-5.187433">
        <ele>2792.0</ele>
        <time>2015-06-06T13:46:52Z</time>
      </trkpt>
      <trkpt lat="40.162150" lon="-5.187733">
        <ele>2786.0</ele>
        <time>2015-06-06T13:46:54Z</time>
      </trkpt>
      <trkpt lat="40.162133" lon="-5.188067">
        <ele>2784.0</ele>
        <time>2015-06-06T13:46:56Z</time>
      </trkpt>
      <trkpt lat="40.162083" lon="-5.188367">
        <ele>2782.0</ele>
        <time>2015-06-06T13:46:58Z</time>
      </trkpt>
      <trkpt lat="40.162033" lon="-5.188667">
        <ele>2778.0</ele>
        <time>2015-06-06T13:47:00Z</time>
      </trkpt>
      <trkpt lat="40.161967" lon="-5.188967">
        <ele>2775.0</ele>
        <time>2015-06-06T13:47:02Z</time>
      </trkpt>
      <trkpt lat="40.161883" lon="-5.189283">
        <ele>2771.0</ele>
        <time>2015-06-06T13:47:04Z</time>
      </trkpt>
      <trkpt lat="40.161833" lon="-5.189583">
        <ele>2768.0</ele>
        <time>2015-06-06T13:47:06Z</time>
      </trkpt>
      <trkpt lat="40.161767" lon="-5.189883">
        <ele>2765.0</ele>
        <time>2015-06-06T13:47:08Z</time>
      </trkpt>
      <trkpt lat="40.161700" lon="-5.190200">
        <ele>2762.0</ele>
        <time>2015-06-06T13:47:10Z</time>
      </trkpt>
      <trkpt lat="40.161633" lon="-5.190500">
        <ele>2758.0</ele>
        <time>2015-06-06T13:47:12Z</time>
      </trkpt>
      <trkpt lat="40.161567" lon="-5.190800">
        <ele>2755.0</ele>
        <time>2015-06-06T13:47:14Z</time>
      </trkpt>
      <trkpt lat="40.161500" lon="-5.191083">
        <ele>2750.0</ele>
        <time>2015-06-06T13:47:16Z</time>
      </trkpt>
      <trkpt lat="40.161433" lon="-5.191417">
        <ele>2744.0</ele>
        <time>2015-06-06T13:47:18Z</time>
      </trkpt>
      <trkpt lat="40.161383" lon="-5.191750">
        <ele>2738.0</ele>
        <time>2015-06-06T13:47:20Z</time>
      </trkpt>
      <trkpt lat="40.161300" lon="-5.192050">
        <ele>2732.0</ele>
        <time>2015-06-06T13:47:22Z</time>
      </trkpt>
      <trkpt lat="40.161233" lon="-5.192367">
        <ele>2726.0</ele>
        <time>2015-06-06T13:47:24Z</time>
      </trkpt>
      <trkpt lat="40.161150" lon="-5.192700">
        <ele>2720.0</ele>
        <time>2015-06-06T13:47:26Z</time>
      </trkpt>
      <trkpt lat="40.161050" lon="-5.193000">
        <ele>2714.0</ele>
        <time>2015-06-06T13:47:28Z</time>
      </trkpt>
      <trkpt lat="40.160950" lon="-5.193283">
        <ele>2708.0</ele>
        <time>2015-06-06T13:47:30Z</time>
      </trkpt>
      <trkpt lat="40.160850" lon="-5.193583">
        <ele>2700.0</ele>
        <time>2015-06-06T13:47:32Z</time>
      </trkpt>
      <trkpt lat="40.160767" lon="-5.193917">
        <ele>2693.0</ele>
        <time>2015-06-06T13:47:34Z</time>
      </trkpt>
      <trkpt lat="40.160633" lon="-5.194217">
        <ele>2690.0</ele>
        <time>2015-06-06T13:47:36Z</time>
      </trkpt>
      <trkpt lat="40.160550" lon="-5.194467">
        <ele>2688.0</ele>
        <time>2015-06-06T13:47:38Z</time>
      </trkpt>
      <trkpt lat="40.160500" lon="-5.194700">
        <ele>2682.0</ele>
        <time>2015-06-06T13:47:40Z</time>
      </trkpt>
      <trkpt lat="40.160483" lon="-5.194983">
        <ele>2674.0</ele>
        <time>2015-06-06T13:47:42Z</time>
      </trkpt>
      <trkpt lat="40.160417" lon="-5.195283">
        <ele>2668.0</ele>
        <time>2015-06-06T13:47:44Z</time>
      </trkpt>
      <trkpt lat="40.160350" lon="-5.195583">
        <ele>2663.0</ele>
        <time>2015-06-06T13:47:46Z</time>
      </trkpt>
      <trkpt lat="40.160267" lon="-5.195867">
        <ele>2656.0</ele>
        <time>2015-06-06T13:47:48Z</time>
      </trkpt>
      <trkpt lat="40.160167" lon="-5.196167">
        <ele>2647.0</ele>
        <time>2015-06-06T13:47:50Z</time>
      </trkpt>
      <trkpt lat="40.160067" lon="-5.196450">
        <ele>2641.0</ele>
        <time>2015-06-06T13:47:52Z</time>
      </trkpt>
      <trkpt lat="40.160000" lon="-5.196733">
        <ele>2636.0</ele>
        <time>2015-06-06T13:47:54Z</time>
      </trkpt>
      <trkpt lat="40.159933" lon="-5.196983">
        <ele>2631.0</ele>
        <time>2015-06-06T13:47:56Z</time>
      </trkpt>
      <trkpt lat="40.159850" lon="-5.197250">
        <ele>2625.0</ele>
        <time>2015-06-06T13:47:58Z</time>
      </trkpt>
      <trkpt lat="40.159783" lon="-5.197500">
        <ele>2619.0</ele>
        <time>2015-06-06T13:48:00Z</time>
      </trkpt>
      <trkpt lat="40.159733" lon="-5.197767">
        <ele>2613.0</ele>
        <time>2015-06-06T13:48:02Z</time>
      </trkpt>
      <trkpt lat="40.159650" lon="-5.198050">
        <ele>2606.0</ele>
        <time>2015-06-06T13:48:04Z</time>
      </trkpt>
      <trkpt lat="40.159583" lon="-5.198367">
        <ele>2601.0</ele>
        <time>2015-06-06T13:48:06Z</time>
      </trkpt>
      <trkpt lat="40.159533" lon="-5.198700">
        <ele>2598.0</ele>
        <time>2015-06-06T13:48:08Z</time>
      </trkpt>
      <trkpt lat="40.159467" lon="-5.198967">
        <ele>2595.0</ele>
        <time>2015-06-06T13:48:10Z</time>
      </trkpt>
      <trkpt lat="40.159433" lon="-5.199217">
        <ele>2590.0</ele>
        <time>2015-06-06T13:48:12Z</time>
      </trkpt>
      <trkpt lat="40.159483" lon="-5.199533">
        <ele>2580.0</ele>
        <time>2015-06-06T13:48:14Z</time>
      </trkpt>
      <trkpt lat="40.159467" lon="-5.199867">
        <ele>2576.0</ele>
        <time>2015-06-06T13:48:16Z</time>
      </trkpt>
      <trkpt lat="40.159417" lon="-5.200150">
        <ele>2571.0</ele>
        <time>2015-06-06T13:48:18Z</time>
      </trkpt>
      <trkpt lat="40.159383" lon="-5.200450">
        <ele>2563.0</ele>
        <time>2015-06-06T13:48:20Z</time>
      </trkpt>
      <trkpt lat="40.159333" lon="-5.200767">
        <ele>2556.0</ele>
        <time>2015-06-06T13:48:22Z</time>
      </trkpt>
      <trkpt lat="40.159267" lon="-5.201067">
        <ele>2548.0</ele>
        <time>2015-06-06T13:48:24Z</time>
      </trkpt>
      <trkpt lat="40.159167" lon="-5.201367">
        <ele>2541.0</ele>
        <time>2015-06-06T13:48:26Z</time>
      </trkpt>
      <trkpt lat="40.159050" lon="-5.201633">
        <ele>2534.0</ele>
        <time>2015-06-06T13:48:28Z</time>
      </trkpt>
      <trkpt lat="40.158933" lon="-5.201900">
        <ele>2526.0</ele>
        <time>2015-06-06T13:48:30Z</time>
      </trkpt>
      <trkpt lat="40.158817" lon="-5.202183">
        <ele>2521.0</ele>
        <time>2015-06-06T13:48:32Z</time>
      </trkpt>
      <trkpt lat="40.158750" lon="-5.202433">
        <ele>2517.0</ele>
        <time>2015-06-06T13:48:34Z</time>
      </trkpt>
      <trkpt lat="40.158717" lon="-5.202683">
        <ele>2508.0</ele>
        <time>2015-06-06T13:48:36Z</time>
      </trkpt>
      <trkpt lat="40.158650" lon="-5.203000">
        <ele>2499.0</ele>
        <time>2015-06-06T13:48:38Z</time>
      </trkpt>
      <trkpt lat="40.158533" lon="-5.203317">
        <ele>2494.0</ele>
        <time>2015-06-06T13:48:40Z</time>
      </trkpt>
      <trkpt lat="40.158417" lon="-5.203550">
        <ele>2489.0</ele>
        <time>2015-06-06T13:48:42Z</time>
      </trkpt>
      <trkpt lat="40.158333" lon="-5.203833">
        <ele>2478.0</ele>
        <time>2015-06-06T13:48:44Z</time>
      </trkpt>
      <trkpt lat="40.158283" lon="-5.204183">
        <ele>2470.0</ele>
        <time>2015-06-06T13:48:46Z</time>
      </trkpt>
      <trkpt lat="40.158217" lon="-5.204500">
        <ele>2465.0</ele>
        <time>2015-06-06T13:48:48Z</time>
      </trkpt>
      <trkpt lat="40.158150" lon="-5.204783">
        <ele>2457.0</ele>
        <time>2015-06-06T13:48:50Z</time>
      </trkpt>
      <trkpt lat="40.158083" lon="-5.205083">
        <ele>2448.0</ele>
        <time>2015-06-06T13:48:52Z</time>
      </trkpt>
      <trkpt lat="40.157983" lon="-5.205383">
        <ele>2442.0</ele>
        <time>2015-06-06T13:48:54Z</time>
      </trkpt>
      <trkpt lat="40.157883" lon="-5.205683">
        <ele>2436.0</ele>
        <time>2015-06-06T13:48:56Z</time>
      </trkpt>
      <trkpt lat="40.157783" lon="-5.205950">
        <ele>2433.0</ele>
        <time>2015-06-06T13:48:58Z</time>
      </trkpt>
      <trkpt lat="40.157717" lon="-5.206200">
        <ele>2430.0</ele>
        <time>2015-06-06T13:49:00Z</time>
      </trkpt>
      <trkpt lat="40.157683" lon="-5.206483">
        <ele>2422.0</ele>
        <time>2015-06-06T13:49:02Z</time>
      </trkpt>
      <trkpt lat="40.157600" lon="-5.206817">
        <ele>2415.0</ele>
        <time>2015-06-06T13:49:04Z</time>
      </trkpt>
      <trkpt lat="40.157467" lon="-5.207133">
        <ele>2417.0</ele>
        <time>2015-06-06T13:49:06Z</time>
      </trkpt>
      <trkpt lat="40.157400" lon="-5.207433">
        <ele>2422.0</ele>
        <time>2015-06-06T13:49:08Z</time>
      </trkpt>
      <trkpt lat="40.157383" lon="-5.207733">
        <ele>2426.0</ele>
        <time>2015-06-06T13:49:10Z</time>
      </trkpt>
      <trkpt lat="40.157417" lon="-5.208083">
        <ele>2426.0</ele>
        <time>2015-06-06T13:49:12Z</time>
      </trkpt>
      <trkpt lat="40.157583" lon="-5.208400">
        <ele>2427.0</ele>
        <time>2015-06-06T13:49:14Z</time>
      </trkpt>
      <trkpt lat="40.157783" lon="-5.208600">
        <ele>2431.0</ele>
        <time>2015-06-06T13:49:16Z</time>
      </trkpt>
      <trkpt lat="40.158000" lon="-5.208717">
        <ele>2434.0</ele>
        <time>2015-06-06T13:49:18Z</time>
      </trkpt>
      <trkpt lat="40.158200" lon="-5.208683">
        <ele>2435.0</ele>
        <time>2015-06-06T13:49:20Z</time>
      </trkpt>
      <trkpt lat="40.158317" lon="-5.208567">
        <ele>2439.0</ele>
        <time>2015-06-06T13:49:22Z</time>
      </trkpt>
      <trkpt lat="40.158300" lon="-5.208467">
        <ele>2441.0</ele>
        <time>2015-06-06T13:49:24Z</time>
      </trkpt>
      <trkpt lat="40.158183" lon="-5.208450">
        <ele>2439.0</ele>
        <time>2015-06-06T13:49:26Z</time>
      </trkpt>
      <trkpt lat="40.158017" lon="-5.208517">
        <ele>2437.0</ele>
        <time>2015-06-06T13:49:28Z</time>
      </trkpt>
      <trkpt lat="40.157833" lon="-5.208583">
        <ele>2440.0</ele>
        <time>2015-06-06T13:49:30Z</time>
      </trkpt>
      <trkpt lat="40.157667" lon="-5.208733">
        <ele>2445.0</ele>
        <time>2015-06-06T13:49:32Z</time>
      </trkpt>
      <trkpt lat="40.157517" lon="-5.208917">
        <ele>2448.0</ele>
        <time>2015-06-06T13:49:34Z</time>
      </trkpt>
      <trkpt lat="40.157383" lon="-5.209167">
        <ele>2452.0</ele>
        <time>2015-06-06T13:49:36Z</time>
      </trkpt>
      <trkpt lat="40.157333" lon="-5.209417">
        <ele>2454.0</ele>
        <time>2015-06-06T13:49:38Z</time>
      </trkpt>
      <trkpt lat="40.157350" lon="-5.209700">
        <ele>2450.0</ele>
        <time>2015-06-06T13:49:40Z</time>
      </trkpt>
      <trkpt lat="40.157400" lon="-5.210067">
        <ele>2447.0</ele>
        <time>2015-06-06T13:49:42Z</time>
      </trkpt>
      <trkpt lat="40.157450" lon="-5.210433">
        <ele>2450.0</ele>
        <time>2015-06-06T13:49:44Z</time>
      </trkpt>
      <trkpt lat="40.157550" lon="-5.210717">
        <ele>2452.0</ele>
        <time>2015-06-06T13:49:46Z</time>
      </trkpt>
      <trkpt lat="40.157700" lon="-5.210967">
        <ele>2452.0</ele>
        <time>2015-06-06T13:49:48Z</time>
      </trkpt>
      <trkpt lat="40.157900" lon="-5.211183">
        <ele>2451.0</ele>
        <time>2015-06-06T13:49:50Z</time>
      </trkpt>
      <trkpt lat="40.158100" lon="-5.211300">
        <ele>2455.0</ele>
        <time>2015-06-06T13:49:52Z</time>
      </trkpt>
      <trkpt lat="40.158300" lon="-5.211317">
        <ele>2458.0</ele>
        <time>2015-06-06T13:49:54Z</time>
      </trkpt>
      <trkpt lat="40.158483" lon="-5.211233">
        <ele>2461.0</ele>
        <time>2015-06-06T13:49:56Z</time>
      </trkpt>
      <trkpt lat="40.158617" lon="-5.211083">
        <ele>2464.0</ele>
        <time>2015-06-06T13:49:58Z</time>
      </trkpt>
      <trkpt lat="40.158650" lon="-5.210883">
        <ele>2467.0</ele>
        <time>2015-06-06T13:50:00Z</time>
      </trkpt>
      <trkpt lat="40.158617" lon="-5.210733">
        <ele>2471.0</ele>
        <time>2015-06-06T13:50:02Z</time>
      </trkpt>
      <trkpt lat="40.158550" lon="-5.210667">
        <ele>2474.0</ele>
        <time>2015-06-06T13:50:04Z</time>
      </trkpt>
      <trkpt lat="40.158450" lon="-5.210700">
        <ele>2477.0</ele>
        <time>2015-06-06T13:50:06Z</time>
      </trkpt>
      <trkpt lat="40.158300" lon="-5.210817">
        <ele>2477.0</ele>
        <time>2015-06-06T13:50:08Z</time>
      </trkpt>
      <trkpt lat="40.158150" lon="-5.210983">
        <ele>2479.0</ele>
        <time>2015-06-06T13:50:10Z</time>
      </trkpt>
      <trkpt lat="40.158033" lon="-5.211217">
        <ele>2480.0</ele>
        <time>2015-06-06T13:50:12Z</time>
      </trkpt>
      <trkpt lat="40.157950" lon="-5.211467">
        <ele>2481.0</ele>
        <time>2015-06-06T13:50:14Z</time>
      </trkpt>
      <trkpt lat="40.157867" lon="-5.211783">
        <ele>2481.0</ele>
        <time>2015-06-06T13:50:16Z</time>
      </trkpt>
      <trkpt lat="40.157817" lon="-5.212100">
        <ele>2482.0</ele>
        <time>2015-06-06T13:50:18Z</time>
      </trkpt>
      <trkpt lat="40.157833" lon="-5.212433">
        <ele>2482.0</ele>
        <time>2015-06-06T13:50:20Z</time>
      </trkpt>
      <trkpt lat="40.157883" lon="-5.212817">
        <ele>2482.0</ele>
        <time>2015-06-06T13:50:22Z</time>
      </trkpt>
      <trkpt lat="40.157917" lon="-5.213167">
        <ele>2487.0</ele>
        <time>2015-06-06T13:50:24Z</time>
      </trkpt>
      <trkpt lat="40.157967" lon="-5.213467">
        <ele>2493.0</ele>
        <time>2015-06-06T13:50:26Z</time>
      </trkpt>
      <trkpt lat="40.158017" lon="-5.213783">
        <ele>2495.0</ele>
        <time>2015-06-06T13:50:28Z</time>
      </trkpt>
      <trkpt lat="40.158150" lon="-5.214133">
        <ele>2501.0</ele>
        <time>2015-06-06T13:50:30Z</time>
      </trkpt>
      <trkpt lat="40.158333" lon="-5.214367">
        <ele>2513.0</ele>
        <time>2015-06-06T13:50:32Z</time>
      </trkpt>
      <trkpt lat="40.158500" lon="-5.214483">
        <ele>2525.0</ele>
        <time>2015-06-06T13:50:34Z</time>
      </trkpt>
      <trkpt lat="40.158683" lon="-5.214550">
        <ele>2536.0</ele>
        <time>2015-06-06T13:50:36Z</time>
      </trkpt>
      <trkpt lat="40.158817" lon="-5.214467">
        <ele>2546.0</ele>
        <time>2015-06-06T13:50:38Z</time>
      </trkpt>
      <trkpt lat="40.158867" lon="-5.214350">
        <ele>2558.0</ele>
        <time>2015-06-06T13:50:40Z</time>
      </trkpt>
      <trkpt lat="40.158850" lon="-5.214267">
        <ele>2566.0</ele>
        <time>2015-06-06T13:50:42Z</time>
      </trkpt>
      <trkpt lat="40.158783" lon="-5.214183">
        <ele>2571.0</ele>
        <time>2015-06-06T13:50:44Z</time>
      </trkpt>
      <trkpt lat="40.158650" lon="-5.214200">
        <ele>2577.0</ele>
        <time>2015-06-06T13:50:46Z</time>
      </trkpt>
      <trkpt lat="40.158517" lon="-5.214367">
        <ele>2583.0</ele>
        <time>2015-06-06T13:50:48Z</time>
      </trkpt>
      <trkpt lat="40.158400" lon="-5.214583">
        <ele>2589.0</ele>
        <time>2015-06-06T13:50:50Z</time>
      </trkpt>
      <trkpt lat="40.158333" lon="-5.214917">
        <ele>2595.0</ele>
        <time>2015-06-06T13:50:52Z</time>
      </trkpt>
      <trkpt lat="40.158317" lon="-5.215283">
        <ele>2605.0</ele>
        <time>2015-06-06T13:50:54Z</time>
      </trkpt>
      <trkpt lat="40.158350" lon="-5.215600">
        <ele>2617.0</ele>
        <time>2015-06-06T13:50:56Z</time>
      </trkpt>
      <trkpt lat="40.158450" lon="-5.215867">
        <ele>2627.0</ele>
        <time>2015-06-06T13:50:58Z</time>
      </trkpt>
      <trkpt lat="40.158600" lon="-5.216033">
        <ele>2637.0</ele>
        <time>2015-06-06T13:51:00Z</time>
      </trkpt>
      <trkpt lat="40.158767" lon="-5.216133">
        <ele>2643.0</ele>
        <time>2015-06-06T13:51:02Z</time>
      </trkpt>
      <trkpt lat="40.158967" lon="-5.216150">
        <ele>2651.0</ele>
        <time>2015-06-06T13:51:04Z</time>
      </trkpt>
      <trkpt lat="40.159100" lon="-5.216033">
        <ele>2655.0</ele>
        <time>2015-06-06T13:51:06Z</time>
      </trkpt>
      <trkpt lat="40.159183" lon="-5.215833">
        <ele>2658.0</ele>
        <time>2015-06-06T13:51:08Z</time>
      </trkpt>
      <trkpt lat="40.159183" lon="-5.215583">
        <ele>2666.0</ele>
        <time>2015-06-06T13:51:10Z</time>
      </trkpt>
      <trkpt lat="40.159133" lon="-5.215433">
        <ele>2682.0</ele>
        <time>2015-06-06T13:51:12Z</time>
      </trkpt>
      <trkpt lat="40.159133" lon="-5.215367">
        <ele>2695.0</ele>
        <time>2015-06-06T13:51:14Z</time>
      </trkpt>
      <trkpt lat="40.159083" lon="-5.215250">
        <ele>2701.0</ele>
        <time>2015-06-06T13:51:16Z</time>
      </trkpt>
      <trkpt lat="40.158950" lon="-5.215217">
        <ele>2705.0</ele>
        <time>2015-06-06T13:51:18Z</time>
      </trkpt>
      <trkpt lat="40.158817" lon="-5.215283">
        <ele>2709.0</ele>
        <time>2015-06-06T13:51:20Z</time>
      </trkpt>
      <trkpt lat="40.158733" lon="-5.215450">
        <ele>2708.0</ele>
        <time>2015-06-06T13:51:22Z</time>
      </trkpt>
      <trkpt lat="40.158633" lon="-5.215717">
        <ele>2706.0</ele>
        <time>2015-06-06T13:51:24Z</time>
      </trkpt>
      <trkpt lat="40.158550" lon="-5.216050">
        <ele>2710.0</ele>
        <time>2015-06-06T13:51:26Z</time>
      </trkpt>
      <trkpt lat="40.158483" lon="-5.216400">
        <ele>2718.0</ele>
        <time>2015-06-06T13:51:28Z</time>
      </trkpt>
      <trkpt lat="40.158417" lon="-5.216683">
        <ele>2728.0</ele>
        <time>2015-06-06T13:51:30Z</time>
      </trkpt>
      <trkpt lat="40.158467" lon="-5.217017">
        <ele>2732.0</ele>
        <time>2015-06-06T13:51:32Z</time>
      </trkpt>
      <trkpt lat="40.158600" lon="-5.217333">
        <ele>2739.0</ele>
        <time>2015-06-06T13:51:34Z</time>
      </trkpt>
      <trkpt lat="40.158767" lon="-5.217533">
        <ele>2750.0</ele>
        <time>2015-06-06T13:51:36Z</time>
      </trkpt>
      <trkpt lat="40.158917" lon="-5.217700">
        <ele>2761.0</ele>
        <time>2015-06-06T13:51:38Z</time>
      </trkpt>
      <trkpt lat="40.159083" lon="-5.217783">
        <ele>2771.0</ele>
        <time>2015-06-06T13:51:40Z</time>
      </trkpt>
      <trkpt lat="40.159250" lon="-5.217700">
        <ele>2778.0</ele>
        <time>2015-06-06T13:51:42Z</time>
      </trkpt>
      <trkpt lat="40.159317" lon="-5.217533">
        <ele>2788.0</ele>
        <time>2015-06-06T13:51:44Z</time>
      </trkpt>
      <trkpt lat="40.159267" lon="-5.217400">
        <ele>2798.0</ele>
        <time>2015-06-06T13:51:46Z</time>
      </trkpt>
      <trkpt lat="40.159133" lon="-5.217333">
        <ele>2804.0</ele>
        <time>2015-06-06T13:51:48Z</time>
      </trkpt>
      <trkpt lat="40.158967" lon="-5.217383">
        <ele>2811.0</ele>
        <time>2015-06-06T13:51:50Z</time>
      </trkpt>
      <trkpt lat="40.158817" lon="-5.217600">
        <ele>2816.0</ele>
        <time>2015-06-06T13:51:52Z</time>
      </trkpt>
      <trkpt lat="40.158750" lon="-5.217900">
        <ele>2825.0</ele>
        <time>2015-06-06T13:51:54Z</time>
      </trkpt>
      <trkpt lat="40.158800" lon="-5.218150">
        <ele>2833.0</ele>
        <time>2015-06-06T13:51:56Z</time>
      </trkpt>
      <trkpt lat="40.158917" lon="-5.218400">
        <ele>2840.0</ele>
        <time>2015-06-06T13:51:58Z</time>
      </trkpt>
      <trkpt lat="40.159083" lon="-5.218533">
        <ele>2847.0</ele>
        <time>2015-06-06T13:52:00Z</time>
      </trkpt>
      <trkpt lat="40.159233" lon="-5.218517">
        <ele>2854.0</ele>
        <time>2015-06-06T13:52:02Z</time>
      </trkpt>
      <trkpt lat="40.159350" lon="-5.218400">
        <ele>2861.0</ele>
        <time>2015-06-06T13:52:04Z</time>
      </trkpt>
      <trkpt lat="40.159350" lon="-5.218250">
        <ele>2869.0</ele>
        <time>2015-06-06T13:52:06Z</time>
      </trkpt>
      <trkpt lat="40.159267" lon="-5.218150">
        <ele>2876.0</ele>
        <time>2015-06-06T13:52:08Z</time>
      </trkpt>
      <trkpt lat="40.159100" lon="-5.218133">
        <ele>2883.0</ele>
        <time>2015-06-06T13:52:10Z</time>
      </trkpt>
      <trkpt lat="40.158917" lon="-5.218250">
        <ele>2889.0</ele>
        <time>2015-06-06T13:52:12Z</time>
      </trkpt>
      <trkpt lat="40.158767" lon="-5.218483">
        <ele>2896.0</ele>
        <time>2015-06-06T13:52:14Z</time>
      </trkpt>
      <trkpt lat="40.158683" lon="-5.218783">
        <ele>2903.0</ele>
        <time>2015-06-06T13:52:16Z</time>
      </trkpt>
      <trkpt lat="40.158667" lon="-5.219083">
        <ele>2908.0</ele>
        <time>2015-06-06T13:52:18Z</time>
      </trkpt>
      <trkpt lat="40.158683" lon="-5.219383">
        <ele>2913.0</ele>
        <time>2015-06-06T13:52:20Z</time>
      </trkpt>
      <trkpt lat="40.158800" lon="-5.219683">
        <ele>2920.0</ele>
        <time>2015-06-06T13:52:22Z</time>
      </trkpt>
      <trkpt lat="40.158967" lon="-5.219850">
        <ele>2930.0</ele>
        <time>2015-06-06T13:52:24Z</time>
      </trkpt>
      <trkpt lat="40.159117" lon="-5.219867">
        <ele>2939.0</ele>
        <time>2015-06-06T13:52:26Z</time>
      </trkpt>
      <trkpt lat="40.159250" lon="-5.219800">
        <ele>2948.0</ele>
        <time>2015-06-06T13:52:28Z</time>
      </trkpt>
      <trkpt lat="40.159267" lon="-5.219667">
        <ele>2957.0</ele>
        <time>2015-06-06T13:52:30Z</time>
      </trkpt>
      <trkpt lat="40.159183" lon="-5.219550">
        <ele>2965.0</ele>
        <time>2015-06-06T13:52:32Z</time>
      </trkpt>
      <trkpt lat="40.159017" lon="-5.219500">
        <ele>2973.0</ele>
        <time>2015-06-06T13:52:34Z</time>
      </trkpt>
      <trkpt lat="40.158833" lon="-5.219633">
        <ele>2980.0</ele>
        <time>2015-06-06T13:52:36Z</time>
      </trkpt>
      <trkpt lat="40.158700" lon="-5.219850">
        <ele>2986.0</ele>
        <time>2015-06-06T13:52:38Z</time>
      </trkpt>
      <trkpt lat="40.158600" lon="-5.220150">
        <ele>2991.0</ele>
        <time>2015-06-06T13:52:40Z</time>
      </trkpt>
      <trkpt lat="40.158533" lon="-5.220500">
        <ele>2998.0</ele>
        <time>2015-06-06T13:52:42Z</time>
      </trkpt>
      <trkpt lat="40.158600" lon="-5.220783">
        <ele>3009.0</ele>
        <time>2015-06-06T13:52:44Z</time>
      </trkpt>
      <trkpt lat="40.158717" lon="-5.220983">
        <ele>3017.0</ele>
        <time>2015-06-06T13:52:46Z</time>
      </trkpt>
      <trkpt lat="40.158900" lon="-5.221083">
        <ele>3023.0</ele>
        <time>2015-06-06T13:52:48Z</time>
      </trkpt>
      <trkpt lat="40.159083" lon="-5.221033">
        <ele>3030.0</ele>
        <time>2015-06-06T13:52:50Z</time>
      </trkpt>
      <trkpt lat="40.159150" lon="-5.220883">
        <ele>3037.0</ele>
        <time>2015-06-06T13:52:52Z</time>
      </trkpt>
      <trkpt lat="40.159117" lon="-5.220717">
        <ele>3045.0</ele>
        <time>2015-06-06T13:52:54Z</time>
      </trkpt>
      <trkpt lat="40.159000" lon="-5.220583">
        <ele>3054.0</ele>
        <time>2015-06-06T13:52:56Z</time>
      </trkpt>
      <trkpt lat="40.158800" lon="-5.220600">
        <ele>3060.0</ele>
        <time>2015-06-06T13:52:58Z</time>
      </trkpt>
      <trkpt lat="40.158583" lon="-5.220767">
        <ele>3065.0</ele>
        <time>2015-06-06T13:53:00Z</time>
      </trkpt>
      <trkpt lat="40.158450" lon="-5.221033">
        <ele>3071.0</ele>
        <time>2015-06-06T13:53:02Z</time>
      </trkpt>
      <trkpt lat="40.158417" lon="-5.221300">
        <ele>3078.0</ele>
        <time>2015-06-06T13:53:04Z</time>
      </trkpt>
      <trkpt lat="40.158467" lon="-5.221550">
        <ele>3082.0</ele>
        <time>2015-06-06T13:53:06Z</time>
      </trkpt>
      <trkpt lat="40.158567" lon="-5.221817">
        <ele>3087.0</ele>
        <time>2015-06-06T13:53:08Z</time>
      </trkpt>
      <trkpt lat="40.158767" lon="-5.221950">
        <ele>3093.0</ele>
        <time>2015-06-06T13:53:10Z</time>
      </trkpt>
      <trkpt lat="40.158950" lon="-5.221967">
        <ele>3100.0</ele>
        <time>2015-06-06T13:53:12Z</time>
      </trkpt>
      <trkpt lat="40.159067" lon="-5.221883">
        <ele>3107.0</ele>
        <time>2015-06-06T13:53:14Z</time>
      </trkpt>
      <trkpt lat="40.159100" lon="-5.221750">
        <ele>3109.0</ele>
        <time>2015-06-06T13:53:16Z</time>
      </trkpt>
      <trkpt lat="40.159050" lon="-5.221533">
        <ele>3110.0</ele>
        <time>2015-06-06T13:53:18Z</time>
      </trkpt>
      <trkpt lat="40.158867" lon="-5.221383">
        <ele>3118.0</ele>
        <time>2015-06-06T13:53:20Z</time>
      </trkpt>
      <trkpt lat="40.158700" lon="-5.221383">
        <ele>3126.0</ele>
        <time>2015-06-06T13:53:22Z</time>
      </trkpt>
      <trkpt lat="40.158550" lon="-5.221400">
        <ele>3129.0</ele>
        <time>2015-06-06T13:53:24Z</time>
      </trkpt>
      <trkpt lat="40.158350" lon="-5.221433">
        <ele>3128.0</ele>
        <time>2015-06-06T13:53:26Z</time>
      </trkpt>
      <trkpt lat="40.158167" lon="-5.221583">
        <ele>3129.0</ele>
        <time>2015-06-06T13:53:28Z</time>
      </trkpt>
      <trkpt lat="40.158050" lon="-5.221833">
        <ele>3132.0</ele>
        <time>2015-06-06T13:53:30Z</time>
      </trkpt>
      <trkpt lat="40.158000" lon="-5.222100">
        <ele>3136.0</ele>
        <time>2015-06-06T13:53:32Z</time>
      </trkpt>
      <trkpt lat="40.158000" lon="-5.222350">
        <ele>3135.0</ele>
        <time>2015-06-06T13:53:34Z</time>
      </trkpt>
      <trkpt lat="40.158050" lon="-5.222650">
        <ele>3131.0</ele>
        <time>2015-06-06T13:53:36Z</time>
      </trkpt>
      <trkpt lat="40.158117" lon="-5.222983">
        <ele>3130.0</ele>
        <time>2015-06-06T13:53:38Z</time>
      </trkpt>
      <trkpt lat="40.158150" lon="-5.223283">
        <ele>3133.0</ele>
        <time>2015-06-06T13:53:40Z</time>
      </trkpt>
      <trkpt lat="40.158150" lon="-5.223567">
        <ele>3135.0</ele>
        <time>2015-06-06T13:53:42Z</time>
      </trkpt>
      <trkpt lat="40.158167" lon="-5.223867">
        <ele>3136.0</ele>
        <time>2015-06-06T13:53:44Z</time>
      </trkpt>
      <trkpt lat="40.158183" lon="-5.224167">
        <ele>3137.0</ele>
        <time>2015-06-06T13:53:46Z</time>
      </trkpt>
      <trkpt lat="40.158183" lon="-5.224517">
        <ele>3137.0</ele>
        <time>2015-06-06T13:53:48Z</time>
      </trkpt>
      <trkpt lat="40.158150" lon="-5.224900">
        <ele>3143.0</ele>
        <time>2015-06-06T13:53:50Z</time>
      </trkpt>
      <trkpt lat="40.158117" lon="-5.225250">
        <ele>3153.0</ele>
        <time>2015-06-06T13:53:52Z</time>
      </trkpt>
      <trkpt lat="40.158083" lon="-5.225550">
        <ele>3155.0</ele>
        <time>2015-06-06T13:53:54Z</time>
      </trkpt>
      <trkpt lat="40.158133" lon="-5.225900">
        <ele>3155.0</ele>
        <time>2015-06-06T13:53:56Z</time>
      </trkpt>
      <trkpt lat="40.158217" lon="-5.226233">
        <ele>3159.0</ele>
        <time>2015-06-06T13:53:58Z</time>
      </trkpt>
      <trkpt lat="40.158350" lon="-5.226483">
        <ele>3163.0</ele>
        <time>2015-06-06T13:54:00Z</time>
      </trkpt>
      <trkpt lat="40.158550" lon="-5.226583">
        <ele>3164.0</ele>
        <time>2015-06-06T13:54:02Z</time>
      </trkpt>
      <trkpt lat="40.158717" lon="-5.226567">
        <ele>3168.0</ele>
        <time>2015-06-06T13:54:04Z</time>
      </trkpt>
      <trkpt lat="40.158817" lon="-5.226483">
        <ele>3171.0</ele>
        <time>2015-06-06T13:54:06Z</time>
      </trkpt>
      <trkpt lat="40.158850" lon="-5.226350">
        <ele>3171.0</ele>
        <time>2015-06-06T13:54:08Z</time>
      </trkpt>
      <trkpt lat="40.158750" lon="-5.226217">
        <ele>3172.0</ele>
        <time>2015-06-06T13:54:10Z</time>
      </trkpt>
      <trkpt lat="40.158600" lon="-5.226150">
        <ele>3177.0</ele>
        <time>2015-06-06T13:54:12Z</time>
      </trkpt>
      <trkpt lat="40.158433" lon="-5.226200">
        <ele>3181.0</ele>
        <time>2015-06-06T13:54:14Z</time>
      </trkpt>
      <trkpt lat="40.158233" lon="-5.226317">
        <ele>3183.0</ele>
        <time>2015-06-06T13:54:16Z</time>
      </trkpt>
      <trkpt lat="40.158067" lon="-5.226517">
        <ele>3187.0</ele>
        <time>2015-06-06T13:54:18Z</time>
      </trkpt>
      <trkpt lat="40.157933" lon="-5.226767">
        <ele>3190.0</ele>
        <time>2015-06-06T13:54:20Z</time>
      </trkpt>
      <trkpt lat="40.157833" lon="-5.227050">
        <ele>3190.0</ele>
        <time>2015-06-06T13:54:22Z</time>
      </trkpt>
      <trkpt lat="40.157767" lon="-5.227400">
        <ele>3192.0</ele>
        <time>2015-06-06T13:54:24Z</time>
      </trkpt>
      <trkpt lat="40.157733" lon="-5.227717">
        <ele>3197.0</ele>
        <time>2015-06-06T13:54:26Z</time>
      </trkpt>
      <trkpt lat="40.157750" lon="-5.228017">
        <ele>3201.0</ele>
        <time>2015-06-06T13:54:28Z</time>
      </trkpt>
      <trkpt lat="40.157817" lon="-5.228350">
        <ele>3204.0</ele>
        <time>2015-06-06T13:54:30Z</time>
      </trkpt>
      <trkpt lat="40.157983" lon="-5.228617">
        <ele>3209.0</ele>
        <time>2015-06-06T13:54:32Z</time>
      </trkpt>
      <trkpt lat="40.158167" lon="-5.228733">
        <ele>3213.0</ele>
        <time>2015-06-06T13:54:34Z</time>
      </trkpt>
      <trkpt lat="40.158317" lon="-5.228800">
        <ele>3214.0</ele>
        <time>2015-06-06T13:54:36Z</time>
      </trkpt>
      <trkpt lat="40.158467" lon="-5.228767">
        <ele>3210.0</ele>
        <time>2015-06-06T13:54:38Z</time>
      </trkpt>
      <trkpt lat="40.158583" lon="-5.228617">
        <ele>3210.0</ele>
        <time>2015-06-06T13:54:40Z</time>
      </trkpt>
      <trkpt lat="40.158583" lon="-5.228450">
        <ele>3212.0</ele>
        <time>2015-06-06T13:54:42Z</time>
      </trkpt>
      <trkpt lat="40.158483" lon="-5.228350">
        <ele>3214.0</ele>
        <time>2015-06-06T13:54:44Z</time>
      </trkpt>
      <trkpt lat="40.158333" lon="-5.228317">
        <ele>3214.0</ele>
        <time>2015-06-06T13:54:46Z</time>
      </trkpt>
      <trkpt lat="40.158117" lon="-5.228400">
        <ele>3215.0</ele>
        <time>2015-06-06T13:54:48Z</time>
      </trkpt>
      <trkpt lat="40.157900" lon="-5.228583">
        <ele>3219.0</ele>
        <time>2015-06-06T13:54:50Z</time>
      </trkpt>
      <trkpt lat="40.157733" lon="-5.228817">
        <ele>3224.0</ele>
        <time>2015-06-06T13:54:52Z</time>
      </trkpt>
      <trkpt lat="40.157633" lon="-5.229100">
        <ele>3230.0</ele>
        <time>2015-06-06T13:54:54Z</time>
      </trkpt>
      <trkpt lat="40.157600" lon="-5.229433">
        <ele>3234.0</ele>
        <time>2015-06-06T13:54:56Z</time>
      </trkpt>
      <trkpt lat="40.157600" lon="-5.229783">
        <ele>3237.0</ele>
        <time>2015-06-06T13:54:58Z</time>
      </trkpt>
      <trkpt lat="40.157700" lon="-5.230133">
        <ele>3239.0</ele>
        <time>2015-06-06T13:55:00Z</time>
      </trkpt>
      <trkpt lat="40.157850" lon="-5.230400">
        <ele>3244.0</ele>
        <time>2015-06-06T13:55:02Z</time>
      </trkpt>
      <trkpt lat="40.158000" lon="-5.230567">
        <ele>3249.0</ele>
        <time>2015-06-06T13:55:04Z</time>
      </trkpt>
      <trkpt lat="40.158150" lon="-5.230683">
        <ele>3248.0</ele>
        <time>2015-06-06T13:55:06Z</time>
      </trkpt>
      <trkpt lat="40.158317" lon="-5.230667">
        <ele>3246.0</ele>
        <time>2015-06-06T13:55:08Z</time>
      </trkpt>
      <trkpt lat="40.158383" lon="-5.230533">
        <ele>3244.0</ele>
        <time>2015-06-06T13:55:10Z</time>
      </trkpt>
      <trkpt lat="40.158350" lon="-5.230400">
        <ele>3246.0</ele>
        <time>2015-06-06T13:55:12Z</time>
      </trkpt>
      <trkpt lat="40.158233" lon="-5.230317">
        <ele>3248.0</ele>
        <time>2015-06-06T13:55:14Z</time>
      </trkpt>
      <trkpt lat="40.158033" lon="-5.230333">
        <ele>3251.0</ele>
        <time>2015-06-06T13:55:16Z</time>
      </trkpt>
      <trkpt lat="40.157850" lon="-5.230467">
        <ele>3256.0</ele>
        <time>2015-06-06T13:55:18Z</time>
      </trkpt>
      <trkpt lat="40.157717" lon="-5.230700">
        <ele>3258.0</ele>
        <time>2015-06-06T13:55:20Z</time>
      </trkpt>
      <trkpt lat="40.157600" lon="-5.230983">
        <ele>3258.0</ele>
        <time>2015-06-06T13:55:22Z</time>
      </trkpt>
      <trkpt lat="40.157450" lon="-5.231317">
        <ele>3260.0</ele>
        <time>2015-06-06T13:55:24Z</time>
      </trkpt>
      <trkpt lat="40.157317" lon="-5.231600">
        <ele>3266.0</ele>
        <time>2015-06-06T13:55:26Z</time>
      </trkpt>
      <trkpt lat="40.157200" lon="-5.231833">
        <ele>3268.0</ele>
        <time>2015-06-06T13:55:28Z</time>
      </trkpt>
      <trkpt lat="40.157100" lon="-5.232133">
        <ele>3266.0</ele>
        <time>2015-06-06T13:55:30Z</time>
      </trkpt>
      <trkpt lat="40.156983" lon="-5.232467">
        <ele>3265.0</ele>
        <time>2015-06-06T13:55:32Z</time>
      </trkpt>
      <trkpt lat="40.156817" lon="-5.232683">
        <ele>3267.0</ele>
        <time>2015-06-06T13:55:34Z</time>
      </trkpt>
      <trkpt lat="40.156650" lon="-5.232867">
        <ele>3271.0</ele>
        <time>2015-06-06T13:55:36Z</time>
      </trkpt>
      <trkpt lat="40.156517" lon="-5.233050">
        <ele>3275.0</ele>
        <time>2015-06-06T13:55:38Z</time>
      </trkpt>
      <trkpt lat="40.156350" lon="-5.233217">
        <ele>3278.0</ele>
        <time>2015-06-06T13:55:40Z</time>
      </trkpt>
      <trkpt lat="40.156150" lon="-5.233333">
        <ele>3281.0</ele>
        <time>2015-06-06T13:55:42Z</time>
      </trkpt>
      <trkpt lat="40.156050" lon="-5.233417">
        <ele>3280.0</ele>
        <time>2015-06-06T13:55:44Z</time>
      </trkpt>
      <trkpt lat="40.155883" lon="-5.233517">
        <ele>3274.0</ele>
        <time>2015-06-06T13:55:46Z</time>
      </trkpt>
      <trkpt lat="40.155717" lon="-5.233683">
        <ele>3274.0</ele>
        <time>2015-06-06T13:55:48Z</time>
      </trkpt>
      <trkpt lat="40.155600" lon="-5.233967">
        <ele>3274.0</ele>
        <time>2015-06-06T13:55:50Z</time>
      </trkpt>
      <trkpt lat="40.155467" lon="-5.234267">
        <ele>3275.0</ele>
        <time>2015-06-06T13:55:52Z</time>
      </trkpt>
      <trkpt lat="40.155317" lon="-5.234550">
        <ele>3275.0</ele>
        <time>2015-06-06T13:55:54Z</time>
      </trkpt>
      <trkpt lat="40.154933" lon="-5.235167">
        <ele>3276.0</ele>
        <time>2015-06-06T13:55:59Z</time>
      </trkpt>
      <trkpt lat="40.154783" lon="-5.235367">
        <ele>3279.0</ele>
        <time>2015-06-06T13:56:01Z</time>
      </trkpt>
      <trkpt lat="40.154667" lon="-5.235650">
        <ele>3282.0</ele>
        <time>2015-06-06T13:56:03Z</time>
      </trkpt>
      <trkpt lat="40.154583" lon="-5.235983">
        <ele>3284.0</ele>
        <time>2015-06-06T13:56:05Z</time>
      </trkpt>
      <trkpt lat="40.154567" lon="-5.236367">
        <ele>3285.0</ele>
        <time>2015-06-06T13:56:07Z</time>
      </trkpt>
      <trkpt lat="40.154600" lon="-5.236783">
        <ele>3287.0</ele>
        <time>2015-06-06T13:56:09Z</time>
      </trkpt>
      <trkpt lat="40.154617" lon="-5.237150">
        <ele>3290.0</ele>
        <time>2015-06-06T13:56:11Z</time>
      </trkpt>
      <trkpt lat="40.154650" lon="-5.237500">
        <ele>3290.0</ele>
        <time>2015-06-06T13:56:13Z</time>
      </trkpt>
      <trkpt lat="40.154667" lon="-5.237883">
        <ele>3291.0</ele>
        <time>2015-06-06T13:56:15Z</time>
      </trkpt>
      <trkpt lat="40.154683" lon="-5.238283">
        <ele>3291.0</ele>
        <time>2015-06-06T13:56:17Z</time>
      </trkpt>
      <trkpt lat="40.154667" lon="-5.238667">
        <ele>3293.0</ele>
        <time>2015-06-06T13:56:19Z</time>
      </trkpt>
      <trkpt lat="40.154617" lon="-5.238983">
        <ele>3294.0</ele>
        <time>2015-06-06T13:56:21Z</time>
      </trkpt>
      <trkpt lat="40.154533" lon="-5.239317">
        <ele>3292.0</ele>
        <time>2015-06-06T13:56:23Z</time>
      </trkpt>
      <trkpt lat="40.154433" lon="-5.239683">
        <ele>3290.0</ele>
        <time>2015-06-06T13:56:25Z</time>
      </trkpt>
      <trkpt lat="40.154333" lon="-5.239967">
        <ele>3293.0</ele>
        <time>2015-06-06T13:56:27Z</time>
      </trkpt>
      <trkpt lat="40.154250" lon="-5.240183">
        <ele>3291.0</ele>
        <time>2015-06-06T13:56:29Z</time>
      </trkpt>
      <trkpt lat="40.154150" lon="-5.240467">
        <ele>3283.0</ele>
        <time>2015-06-06T13:56:31Z</time>
      </trkpt>
      <trkpt lat="40.153983" lon="-5.240767">
        <ele>3281.0</ele>
        <time>2015-06-06T13:56:33Z</time>
      </trkpt>
      <trkpt lat="40.153867" lon="-5.241017">
        <ele>3282.0</ele>
        <time>2015-06-06T13:56:35Z</time>
      </trkpt>
      <trkpt lat="40.153783" lon="-5.241267">
        <ele>3278.0</ele>
        <time>2015-06-06T13:56:37Z</time>
      </trkpt>
      <trkpt lat="40.153700" lon="-5.241583">
        <ele>3274.0</ele>
        <time>2015-06-06T13:56:39Z</time>
      </trkpt>
      <trkpt lat="40.153617" lon="-5.241883">
        <ele>3273.0</ele>
        <time>2015-06-06T13:56:41Z</time>
      </trkpt>
      <trkpt lat="40.153550" lon="-5.242150">
        <ele>3270.0</ele>
        <time>2015-06-06T13:56:43Z</time>
      </trkpt>
      <trkpt lat="40.153467" lon="-5.242433">
        <ele>3265.0</ele>
        <time>2015-06-06T13:56:45Z</time>
      </trkpt>
      <trkpt lat="40.153367" lon="-5.242750">
        <ele>3261.0</ele>
        <time>2015-06-06T13:56:47Z</time>
      </trkpt>
      <trkpt lat="40.153267" lon="-5.243033">
        <ele>3260.0</ele>
        <time>2015-06-06T13:56:49Z</time>
      </trkpt>
      <trkpt lat="40.153117" lon="-5.243300">
        <ele>3256.0</ele>
        <time>2015-06-06T13:56:51Z</time>
      </trkpt>
      <trkpt lat="40.153000" lon="-5.243567">
        <ele>3252.0</ele>
        <time>2015-06-06T13:56:53Z</time>
      </trkpt>
      <trkpt lat="40.152917" lon="-5.243850">
        <ele>3249.0</ele>
        <time>2015-06-06T13:56:55Z</time>
      </trkpt>
      <trkpt lat="40.152833" lon="-5.244117">
        <ele>3242.0</ele>
        <time>2015-06-06T13:56:57Z</time>
      </trkpt>
      <trkpt lat="40.152750" lon="-5.244450">
        <ele>3235.0</ele>
        <time>2015-06-06T13:56:59Z</time>
      </trkpt>
      <trkpt lat="40.152683" lon="-5.244750">
        <ele>3232.0</ele>
        <time>2015-06-06T13:57:01Z</time>
      </trkpt>
      <trkpt lat="40.152583" lon="-5.245033">
        <ele>3227.0</ele>
        <time>2015-06-06T13:57:03Z</time>
      </trkpt>
      <trkpt lat="40.152483" lon="-5.245350">
        <ele>3220.0</ele>
        <time>2015-06-06T13:57:05Z</time>
      </trkpt>
      <trkpt lat="40.152383" lon="-5.245683">
        <ele>3213.0</ele>
        <time>2015-06-06T13:57:07Z</time>
      </trkpt>
      <trkpt lat="40.152217" lon="-5.246017">
        <ele>3208.0</ele>
        <time>2015-06-06T13:57:09Z</time>
      </trkpt>
      <trkpt lat="40.152050" lon="-5.246300">
        <ele>3205.0</ele>
        <time>2015-06-06T13:57:11Z</time>
      </trkpt>
      <trkpt lat="40.151900" lon="-5.246550">
        <ele>3198.0</ele>
        <time>2015-06-06T13:57:13Z</time>
      </trkpt>
      <trkpt lat="40.151733" lon="-5.246833">
        <ele>3191.0</ele>
        <time>2015-06-06T13:57:15Z</time>
      </trkpt>
      <trkpt lat="40.151600" lon="-5.247133">
        <ele>3187.0</ele>
        <time>2015-06-06T13:57:17Z</time>
      </trkpt>
      <trkpt lat="40.151500" lon="-5.247433">
        <ele>3184.0</ele>
        <time>2015-06-06T13:57:19Z</time>
      </trkpt>
      <trkpt lat="40.151400" lon="-5.247717">
        <ele>3180.0</ele>
        <time>2015-06-06T13:57:21Z</time>
      </trkpt>
      <trkpt lat="40.151317" lon="-5.248033">
        <ele>3175.0</ele>
        <time>2015-06-06T13:57:23Z</time>
      </trkpt>
      <trkpt lat="40.151233" lon="-5.248350">
        <ele>3171.0</ele>
        <time>2015-06-06T13:57:25Z</time>
      </trkpt>
      <trkpt lat="40.151167" lon="-5.248650">
        <ele>3169.0</ele>
        <time>2015-06-06T13:57:27Z</time>
      </trkpt>
      <trkpt lat="40.151100" lon="-5.248967">
        <ele>3164.0</ele>
        <time>2015-06-06T13:57:29Z</time>
      </trkpt>
      <trkpt lat="40.151033" lon="-5.249317">
        <ele>3159.0</ele>
        <time>2015-06-06T13:57:31Z</time>
      </trkpt>
      <trkpt lat="40.150917" lon="-5.249633">
        <ele>3155.0</ele>
        <time>2015-06-06T13:57:33Z</time>
      </trkpt>
      <trkpt lat="40.150767" lon="-5.249917">
        <ele>3151.0</ele>
        <time>2015-06-06T13:57:35Z</time>
      </trkpt>
      <trkpt lat="40.150600" lon="-5.250183">
        <ele>3148.0</ele>
        <time>2015-06-06T13:57:37Z</time>
      </trkpt>
      <trkpt lat="40.150433" lon="-5.250433">
        <ele>3144.0</ele>
        <time>2015-06-06T13:57:39Z</time>
      </trkpt>
      <trkpt lat="40.150267" lon="-5.250683">
        <ele>3140.0</ele>
        <time>2015-06-06T13:57:41Z</time>
      </trkpt>
      <trkpt lat="40.150117" lon="-5.250950">
        <ele>3136.0</ele>
        <time>2015-06-06T13:57:43Z</time>
      </trkpt>
      <trkpt lat="40.149900" lon="-5.251150">
        <ele>3133.0</ele>
        <time>2015-06-06T13:57:45Z</time>
      </trkpt>
      <trkpt lat="40.149683" lon="-5.251283">
        <ele>3134.0</ele>
        <time>2015-06-06T13:57:47Z</time>
      </trkpt>
      <trkpt lat="40.149500" lon="-5.251433">
        <ele>3134.0</ele>
        <time>2015-06-06T13:57:49Z</time>
      </trkpt>
      <trkpt lat="40.149317" lon="-5.251617">
        <ele>3130.0</ele>
        <time>2015-06-06T13:57:51Z</time>
      </trkpt>
      <trkpt lat="40.149150" lon="-5.251850">
        <ele>3127.0</ele>
        <time>2015-06-06T13:57:53Z</time>
      </trkpt>
      <trkpt lat="40.149017" lon="-5.252117">
        <ele>3126.0</ele>
        <time>2015-06-06T13:57:55Z</time>
      </trkpt>
      <trkpt lat="40.148900" lon="-5.252400">
        <ele>3124.0</ele>
        <time>2015-06-06T13:57:57Z</time>
      </trkpt>
      <trkpt lat="40.148817" lon="-5.252717">
        <ele>3120.0</ele>
        <time>2015-06-06T13:57:59Z</time>
      </trkpt>
      <trkpt lat="40.148733" lon="-5.253033">
        <ele>3117.0</ele>
        <time>2015-06-06T13:58:01Z</time>
      </trkpt>
      <trkpt lat="40.148633" lon="-5.253350">
        <ele>3115.0</ele>
        <time>2015-06-06T13:58:03Z</time>
      </trkpt>
      <trkpt lat="40.148517" lon="-5.253650">
        <ele>3112.0</ele>
        <time>2015-06-06T13:58:05Z</time>
      </trkpt>
      <trkpt lat="40.148367" lon="-5.253967">
        <ele>3108.0</ele>
        <time>2015-06-06T13:58:07Z</time>
      </trkpt>
      <trkpt lat="40.148200" lon="-5.254250">
        <ele>3105.0</ele>
        <time>2015-06-06T13:58:09Z</time>
      </trkpt>
      <trkpt lat="40.148017" lon="-5.254517">
        <ele>3101.0</ele>
        <time>2015-06-06T13:58:11Z</time>
      </trkpt>
      <trkpt lat="40.147833" lon="-5.254767">
        <ele>3098.0</ele>
        <time>2015-06-06T13:58:13Z</time>
      </trkpt>
      <trkpt lat="40.147683" lon="-5.255050">
        <ele>3096.0</ele>
        <time>2015-06-06T13:58:15Z</time>
      </trkpt>
      <trkpt lat="40.147567" lon="-5.255367">
        <ele>3092.0</ele>
        <time>2015-06-06T13:58:17Z</time>
      </trkpt>
      <trkpt lat="40.147467" lon="-5.255700">
        <ele>3089.0</ele>
        <time>2015-06-06T13:58:19Z</time>
      </trkpt>
      <trkpt lat="40.147383" lon="-5.256033">
        <ele>3085.0</ele>
        <time>2015-06-06T13:58:21Z</time>
      </trkpt>
      <trkpt lat="40.147300" lon="-5.256383">
        <ele>3081.0</ele>
        <time>2015-06-06T13:58:23Z</time>
      </trkpt>
      <trkpt lat="40.147217" lon="-5.256700">
        <ele>3077.0</ele>
        <time>2015-06-06T13:58:25Z</time>
      </trkpt>
      <trkpt lat="40.147117" lon="-5.256983">
        <ele>3070.0</ele>
        <time>2015-06-06T13:58:27Z</time>
      </trkpt>
      <trkpt lat="40.147017" lon="-5.257283">
        <ele>3062.0</ele>
        <time>2015-06-06T13:58:29Z</time>
      </trkpt>
      <trkpt lat="40.146950" lon="-5.257600">
        <ele>3055.0</ele>
        <time>2015-06-06T13:58:31Z</time>
      </trkpt>
      <trkpt lat="40.146900" lon="-5.257917">
        <ele>3049.0</ele>
        <time>2015-06-06T13:58:33Z</time>
      </trkpt>
      <trkpt lat="40.146850" lon="-5.258233">
        <ele>3041.0</ele>
        <time>2015-06-06T13:58:35Z</time>
      </trkpt>
      <trkpt lat="40.146817" lon="-5.258550">
        <ele>3035.0</ele>
        <time>2015-06-06T13:58:37Z</time>
      </trkpt>
      <trkpt lat="40.146750" lon="-5.258867">
        <ele>3029.0</ele>
        <time>2015-06-06T13:58:39Z</time>
      </trkpt>
      <trkpt lat="40.146683" lon="-5.259183">
        <ele>3021.0</ele>
        <time>2015-06-06T13:58:41Z</time>
      </trkpt>
      <trkpt lat="40.146617" lon="-5.259533">
        <ele>3015.0</ele>
        <time>2015-06-06T13:58:43Z</time>
      </trkpt>
      <trkpt lat="40.146550" lon="-5.259833">
        <ele>3011.0</ele>
        <time>2015-06-06T13:58:45Z</time>
      </trkpt>
      <trkpt lat="40.146483" lon="-5.260133">
        <ele>3006.0</ele>
        <time>2015-06-06T13:58:47Z</time>
      </trkpt>
      <trkpt lat="40.146417" lon="-5.260433">
        <ele>3000.0</ele>
        <time>2015-06-06T13:58:49Z</time>
      </trkpt>
      <trkpt lat="40.146367" lon="-5.260750">
        <ele>2995.0</ele>
        <time>2015-06-06T13:58:51Z</time>
      </trkpt>
      <trkpt lat="40.146300" lon="-5.261050">
        <ele>2990.0</ele>
        <time>2015-06-06T13:58:53Z</time>
      </trkpt>
      <trkpt lat="40.146217" lon="-5.261350">
        <ele>2985.0</ele>
        <time>2015-06-06T13:58:55Z</time>
      </trkpt>
      <trkpt lat="40.146100" lon="-5.261650">
        <ele>2980.0</ele>
        <time>2015-06-06T13:58:57Z</time>
      </trkpt>
      <trkpt lat="40.145967" lon="-5.261933">
        <ele>2976.0</ele>
        <time>2015-06-06T13:58:59Z</time>
      </trkpt>
      <trkpt lat="40.145817" lon="-5.262183">
        <ele>2972.0</ele>
        <time>2015-06-06T13:59:01Z</time>
      </trkpt>
      <trkpt lat="40.145700" lon="-5.262450">
        <ele>2968.0</ele>
        <time>2015-06-06T13:59:03Z</time>
      </trkpt>
      <trkpt lat="40.145617" lon="-5.262750">
        <ele>2963.0</ele>
        <time>2015-06-06T13:59:05Z</time>
      </trkpt>
      <trkpt lat="40.145550" lon="-5.263050">
        <ele>2959.0</ele>
        <time>2015-06-06T13:59:07Z</time>
      </trkpt>
      <trkpt lat="40.145500" lon="-5.263350">
        <ele>2954.0</ele>
        <time>2015-06-06T13:59:09Z</time>
      </trkpt>
      <trkpt lat="40.145467" lon="-5.263650">
        <ele>2949.0</ele>
        <time>2015-06-06T13:59:11Z</time>
      </trkpt>
      <trkpt lat="40.145417" lon="-5.263967">
        <ele>2944.0</ele>
        <time>2015-06-06T13:59:13Z</time>
      </trkpt>
      <trkpt lat="40.145350" lon="-5.264283">
        <ele>2940.0</ele>
        <time>2015-06-06T13:59:15Z</time>
      </trkpt>
      <trkpt lat="40.145300" lon="-5.264583">
        <ele>2935.0</ele>
        <time>2015-06-06T13:59:17Z</time>
      </trkpt>
      <trkpt lat="40.145250" lon="-5.264883">
        <ele>2929.0</ele>
        <time>2015-06-06T13:59:19Z</time>
      </trkpt>
      <trkpt lat="40.145183" lon="-5.265200">
        <ele>2924.0</ele>
        <time>2015-06-06T13:59:21Z</time>
      </trkpt>
      <trkpt lat="40.145117" lon="-5.265517">
        <ele>2922.0</ele>
        <time>2015-06-06T13:59:23Z</time>
      </trkpt>
      <trkpt lat="40.145033" lon="-5.265817">
        <ele>2920.0</ele>
        <time>2015-06-06T13:59:25Z</time>
      </trkpt>
      <trkpt lat="40.144950" lon="-5.266100">
        <ele>2917.0</ele>
        <time>2015-06-06T13:59:27Z</time>
      </trkpt>
      <trkpt lat="40.144850" lon="-5.266383">
        <ele>2915.0</ele>
        <time>2015-06-06T13:59:29Z</time>
      </trkpt>
      <trkpt lat="40.144767" lon="-5.266683">
        <ele>2913.0</ele>
        <time>2015-06-06T13:59:31Z</time>
      </trkpt>
      <trkpt lat="40.144683" lon="-5.266967">
        <ele>2912.0</ele>
        <time>2015-06-06T13:59:33Z</time>
      </trkpt>
      <trkpt lat="40.144633" lon="-5.267250">
        <ele>2910.0</ele>
        <time>2015-06-06T13:59:35Z</time>
      </trkpt>
      <trkpt lat="40.144583" lon="-5.267550">
        <ele>2909.0</ele>
        <time>2015-06-06T13:59:37Z</time>
      </trkpt>
      <trkpt lat="40.144550" lon="-5.267850">
        <ele>2909.0</ele>
        <time>2015-06-06T13:59:39Z</time>
      </trkpt>
      <trkpt lat="40.144483" lon="-5.268167">
        <ele>2908.0</ele>
        <time>2015-06-06T13:59:41Z</time>
      </trkpt>
      <trkpt lat="40.144433" lon="-5.268483">
        <ele>2904.0</ele>
        <time>2015-06-06T13:59:43Z</time>
      </trkpt>
      <trkpt lat="40.144383" lon="-5.268783">
        <ele>2899.0</ele>
        <time>2015-06-06T13:59:45Z</time>
      </trkpt>
      <trkpt lat="40.144317" lon="-5.269050">
        <ele>2893.0</ele>
        <time>2015-06-06T13:59:47Z</time>
      </trkpt>
      <trkpt lat="40.144267" lon="-5.269350">
        <ele>2885.0</ele>
        <time>2015-06-06T13:59:49Z</time>
      </trkpt>
      <trkpt lat="40.144250" lon="-5.269700">
        <ele>2881.0</ele>
        <time>2015-06-06T13:59:51Z</time>
      </trkpt>
      <trkpt lat="40.144217" lon="-5.270000">
        <ele>2878.0</ele>
        <time>2015-06-06T13:59:53Z</time>
      </trkpt>
      <trkpt lat="40.144150" lon="-5.270300">
        <ele>2871.0</ele>
        <time>2015-06-06T13:59:55Z</time>
      </trkpt>
      <trkpt lat="40.144100" lon="-5.270650">
        <ele>2866.0</ele>
        <time>2015-06-06T13:59:57Z</time>
      </trkpt>
      <trkpt lat="40.144050" lon="-5.270950">
        <ele>2864.0</ele>
        <time>2015-06-06T13:59:59Z</time>
      </trkpt>
      <trkpt lat="40.143967" lon="-5.271233">
        <ele>2859.0</ele>
        <time>2015-06-06T14:00:01Z</time>
      </trkpt>
      <trkpt lat="40.143917" lon="-5.271567">
        <ele>2852.0</ele>
        <time>2015-06-06T14:00:03Z</time>
      </trkpt>
      <trkpt lat="40.143867" lon="-5.271900">
        <ele>2848.0</ele>
        <time>2015-06-06T14:00:05Z</time>
      </trkpt>
      <trkpt lat="40.143800" lon="-5.272200">
        <ele>2844.0</ele>
        <time>2015-06-06T14:00:07Z</time>
      </trkpt>
      <trkpt lat="40.143750" lon="-5.272517">
        <ele>2837.0</ele>
        <time>2015-06-06T14:00:09Z</time>
      </trkpt>
      <trkpt lat="40.143700" lon="-5.272867">
        <ele>2832.0</ele>
        <time>2015-06-06T14:00:11Z</time>
      </trkpt>
      <trkpt lat="40.143650" lon="-5.273183">
        <ele>2829.0</ele>
        <time>2015-06-06T14:00:13Z</time>
      </trkpt>
      <trkpt lat="40.143600" lon="-5.273517">
        <ele>2824.0</ele>
        <time>2015-06-06T14:00:15Z</time>
      </trkpt>
      <trkpt lat="40.143550" lon="-5.273850">
        <ele>2820.0</ele>
        <time>2015-06-06T14:00:17Z</time>
      </trkpt>
      <trkpt lat="40.143483" lon="-5.274167">
        <ele>2816.0</ele>
        <time>2015-06-06T14:00:19Z</time>
      </trkpt>
      <trkpt lat="40.143383" lon="-5.274483">
        <ele>2812.0</ele>
        <time>2015-06-06T14:00:21Z</time>
      </trkpt>
      <trkpt lat="40.143317" lon="-5.274783">
        <ele>2808.0</ele>
        <time>2015-06-06T14:00:23Z</time>
      </trkpt>
      <trkpt lat="40.143250" lon="-5.275100">
        <ele>2803.0</ele>
        <time>2015-06-06T14:00:25Z</time>
      </trkpt>
      <trkpt lat="40.143183" lon="-5.275433">
        <ele>2799.0</ele>
        <time>2015-06-06T14:00:27Z</time>
      </trkpt>
      <trkpt lat="40.143100" lon="-5.275767">
        <ele>2797.0</ele>
        <time>2015-06-06T14:00:29Z</time>
      </trkpt>
      <trkpt lat="40.143000" lon="-5.276083">
        <ele>2793.0</ele>
        <time>2015-06-06T14:00:31Z</time>
      </trkpt>
      <trkpt lat="40.142900" lon="-5.276417">
        <ele>2789.0</ele>
        <time>2015-06-06T14:00:33Z</time>
      </trkpt>
      <trkpt lat="40.142817" lon="-5.276767">
        <ele>2786.0</ele>
        <time>2015-06-06T14:00:35Z</time>
      </trkpt>
      <trkpt lat="40.142717" lon="-5.277067">
        <ele>2784.0</ele>
        <time>2015-06-06T14:00:37Z</time>
      </trkpt>
      <trkpt lat="40.142633" lon="-5.277333">
        <ele>2779.0</ele>
        <time>2015-06-06T14:00:39Z</time>
      </trkpt>
      <trkpt lat="40.142550" lon="-5.277633">
        <ele>2772.0</ele>
        <time>2015-06-06T14:00:41Z</time>
      </trkpt>
      <trkpt lat="40.142467" lon="-5.277933">
        <ele>2768.0</ele>
        <time>2015-06-06T14:00:43Z</time>
      </trkpt>
      <trkpt lat="40.142383" lon="-5.278200">
        <ele>2764.0</ele>
        <time>2015-06-06T14:00:45Z</time>
      </trkpt>
      <trkpt lat="40.142317" lon="-5.278483">
        <ele>2758.0</ele>
        <time>2015-06-06T14:00:47Z</time>
      </trkpt>
      <trkpt lat="40.142233" lon="-5.278767">
        <ele>2754.0</ele>
        <time>2015-06-06T14:00:49Z</time>
      </trkpt>
      <trkpt lat="40.142167" lon="-5.279050">
        <ele>2749.0</ele>
        <time>2015-06-06T14:00:51Z</time>
      </trkpt>
      <trkpt lat="40.142100" lon="-5.279367">
        <ele>2743.0</ele>
        <time>2015-06-06T14:00:53Z</time>
      </trkpt>
      <trkpt lat="40.142033" lon="-5.279683">
        <ele>2739.0</ele>
        <time>2015-06-06T14:00:55Z</time>
      </trkpt>
      <trkpt lat="40.141933" lon="-5.279983">
        <ele>2736.0</ele>
        <time>2015-06-06T14:00:57Z</time>
      </trkpt>
      <trkpt lat="40.141867" lon="-5.280283">
        <ele>2731.0</ele>
        <time>2015-06-06T14:00:59Z</time>
      </trkpt>
      <trkpt lat="40.141817" lon="-5.280633">
        <ele>2726.0</ele>
        <time>2015-06-06T14:01:01Z</time>
      </trkpt>
      <trkpt lat="40.141767" lon="-5.280967">
        <ele>2723.0</ele>
        <time>2015-06-06T14:01:03Z</time>
      </trkpt>
      <trkpt lat="40.141717" lon="-5.281300">
        <ele>2719.0</ele>
        <time>2015-06-06T14:01:05Z</time>
      </trkpt>
      <trkpt lat="40.141667" lon="-5.281650">
        <ele>2715.0</ele>
        <time>2015-06-06T14:01:07Z</time>
      </trkpt>
      <trkpt lat="40.141617" lon="-5.281983">
        <ele>2711.0</ele>
        <time>2015-06-06T14:01:09Z</time>
      </trkpt>
      <trkpt lat="40.141567" lon="-5.282317">
        <ele>2708.0</ele>
        <time>2015-06-06T14:01:11Z</time>
      </trkpt>
      <trkpt lat="40.141500" lon="-5.282650">
        <ele>2705.0</ele>
        <time>2015-06-06T14:01:13Z</time>
      </trkpt>
      <trkpt lat="40.141417" lon="-5.282983">
        <ele>2702.0</ele>
        <time>2015-06-06T14:01:15Z</time>
      </trkpt>
      <trkpt lat="40.141367" lon="-5.283300">
        <ele>2701.0</ele>
        <time>2015-06-06T14:01:17Z</time>
      </trkpt>
      <trkpt lat="40.141333" lon="-5.283583">
        <ele>2699.0</ele>
        <time>2015-06-06T14:01:19Z</time>
      </trkpt>
      <trkpt lat="40.141350" lon="-5.283867">
        <ele>2694.0</ele>
        <time>2015-06-06T14:01:21Z</time>
      </trkpt>
      <trkpt lat="40.141367" lon="-5.284200">
        <ele>2692.0</ele>
        <time>2015-06-06T14:01:23Z</time>
      </trkpt>
      <trkpt lat="40.141317" lon="-5.284483">
        <ele>2694.0</ele>
        <time>2015-06-06T14:01:25Z</time>
      </trkpt>
      <trkpt lat="40.141250" lon="-5.284767">
        <ele>2693.0</ele>
        <time>2015-06-06T14:01:27Z</time>
      </trkpt>
      <trkpt lat="40.141183" lon="-5.285067">
        <ele>2690.0</ele>
        <time>2015-06-06T14:01:29Z</time>
      </trkpt>
      <trkpt lat="40.141167" lon="-5.285400">
        <ele>2689.0</ele>
        <time>2015-06-06T14:01:31Z</time>
      </trkpt>
      <trkpt lat="40.141183" lon="-5.285683">
        <ele>2686.0</ele>
        <time>2015-06-06T14:01:33Z</time>
      </trkpt>
      <trkpt lat="40.141167" lon="-5.286000">
        <ele>2682.0</ele>
        <time>2015-06-06T14:01:35Z</time>
      </trkpt>
      <trkpt lat="40.141150" lon="-5.286333">
        <ele>2678.0</ele>
        <time>2015-06-06T14:01:37Z</time>
      </trkpt>
      <trkpt lat="40.141133" lon="-5.286650">
        <ele>2674.0</ele>
        <time>2015-06-06T14:01:39Z</time>
      </trkpt>
      <trkpt lat="40.141083" lon="-5.286950">
        <ele>2669.0</ele>
        <time>2015-06-06T14:01:41Z</time>
      </trkpt>
      <trkpt lat="40.141033" lon="-5.287283">
        <ele>2663.0</ele>
        <time>2015-06-06T14:01:43Z</time>
      </trkpt>
      <trkpt lat="40.141000" lon="-5.287617">
        <ele>2660.0</ele>
        <time>2015-06-06T14:01:45Z</time>
      </trkpt>
      <trkpt lat="40.140950" lon="-5.287917">
        <ele>2657.0</ele>
        <time>2015-06-06T14:01:47Z</time>
      </trkpt>
      <trkpt lat="40.140900" lon="-5.288250">
        <ele>2652.0</ele>
        <time>2015-06-06T14:01:49Z</time>
      </trkpt>
      <trkpt lat="40.140850" lon="-5.288583">
        <ele>2650.0</ele>
        <time>2015-06-06T14:01:51Z</time>
      </trkpt>
      <trkpt lat="40.140767" lon="-5.288867">
        <ele>2649.0</ele>
        <time>2015-06-06T14:01:53Z</time>
      </trkpt>
      <trkpt lat="40.140700" lon="-5.289133">
        <ele>2645.0</ele>
        <time>2015-06-06T14:01:55Z</time>
      </trkpt>
      <trkpt lat="40.140633" lon="-5.289433">
        <ele>2638.0</ele>
        <time>2015-06-06T14:01:57Z</time>
      </trkpt>
      <trkpt lat="40.140600" lon="-5.289733">
        <ele>2633.0</ele>
        <time>2015-06-06T14:01:59Z</time>
      </trkpt>
      <trkpt lat="40.140533" lon="-5.290050">
        <ele>2630.0</ele>
        <time>2015-06-06T14:02:01Z</time>
      </trkpt>
      <trkpt lat="40.140483" lon="-5.290333">
        <ele>2628.0</ele>
        <time>2015-06-06T14:02:03Z</time>
      </trkpt>
      <trkpt lat="40.140450" lon="-5.290633">
        <ele>2624.0</ele>
        <time>2015-06-06T14:02:05Z</time>
      </trkpt>
      <trkpt lat="40.140417" lon="-5.290950">
        <ele>2622.0</ele>
        <time>2015-06-06T14:02:07Z</time>
      </trkpt>
      <trkpt lat="40.140400" lon="-5.291283">
        <ele>2620.0</ele>
        <time>2015-06-06T14:02:09Z</time>
      </trkpt>
      <trkpt lat="40.140350" lon="-5.291600">
        <ele>2619.0</ele>
        <time>2015-06-06T14:02:11Z</time>
      </trkpt>
      <trkpt lat="40.140300" lon="-5.291933">
        <ele>2618.0</ele>
        <time>2015-06-06T14:02:13Z</time>
      </trkpt>
      <trkpt lat="40.140267" lon="-5.292267">
        <ele>2616.0</ele>
        <time>2015-06-06T14:02:15Z</time>
      </trkpt>
      <trkpt lat="40.140217" lon="-5.292600">
        <ele>2616.0</ele>
        <time>2015-06-06T14:02:17Z</time>
      </trkpt>
      <trkpt lat="40.140183" lon="-5.292900">
        <ele>2617.0</ele>
        <time>2015-06-06T14:02:19Z</time>
      </trkpt>
      <trkpt lat="40.140200" lon="-5.293217">
        <ele>2616.0</ele>
        <time>2015-06-06T14:02:21Z</time>
      </trkpt>
      <trkpt lat="40.140233" lon="-5.293533">
        <ele>2613.0</ele>
        <time>2015-06-06T14:02:23Z</time>
      </trkpt>
      <trkpt lat="40.140283" lon="-5.293867">
        <ele>2611.0</ele>
        <time>2015-06-06T14:02:25Z</time>
      </trkpt>
      <trkpt lat="40.140300" lon="-5.294200">
        <ele>2609.0</ele>
        <time>2015-06-06T14:02:27Z</time>
      </trkpt>
      <trkpt lat="40.140333" lon="-5.294533">
        <ele>2607.0</ele>
        <time>2015-06-06T14:02:29Z</time>
      </trkpt>
      <trkpt lat="40.140350" lon="-5.294883">
        <ele>2606.0</ele>
        <time>2015-06-06T14:02:31Z</time>
      </trkpt>
      <trkpt lat="40.140367" lon="-5.295200">
        <ele>2604.0</ele>
        <time>2015-06-06T14:02:33Z</time>
      </trkpt>
      <trkpt lat="40.140383" lon="-5.295500">
        <ele>2600.0</ele>
        <time>2015-06-06T14:02:35Z</time>
      </trkpt>
      <trkpt lat="40.140417" lon="-5.295833">
        <ele>2594.0</ele>
        <time>2015-06-06T14:02:37Z</time>
      </trkpt>
      <trkpt lat="40.140433" lon="-5.296167">
        <ele>2591.0</ele>
        <time>2015-06-06T14:02:39Z</time>
      </trkpt>
      <trkpt lat="40.140433" lon="-5.296467">
        <ele>2588.0</ele>
        <time>2015-06-06T14:02:41Z</time>
      </trkpt>
      <trkpt lat="40.140450" lon="-5.296783">
        <ele>2583.0</ele>
        <time>2015-06-06T14:02:43Z</time>
      </trkpt>
      <trkpt lat="40.140450" lon="-5.297117">
        <ele>2576.0</ele>
        <time>2015-06-06T14:02:45Z</time>
      </trkpt>
      <trkpt lat="40.140433" lon="-5.297450">
        <ele>2573.0</ele>
        <time>2015-06-06T14:02:47Z</time>
      </trkpt>
      <trkpt lat="40.140433" lon="-5.297767">
        <ele>2568.0</ele>
        <time>2015-06-06T14:02:49Z</time>
      </trkpt>
      <trkpt lat="40.140417" lon="-5.298117">
        <ele>2563.0</ele>
        <time>2015-06-06T14:02:51Z</time>
      </trkpt>
      <trkpt lat="40.140400" lon="-5.298467">
        <ele>2558.0</ele>
        <time>2015-06-06T14:02:53Z</time>
      </trkpt>
      <trkpt lat="40.140367" lon="-5.298817">
        <ele>2554.0</ele>
        <time>2015-06-06T14:02:55Z</time>
      </trkpt>
      <trkpt lat="40.140333" lon="-5.299167">
        <ele>2550.0</ele>
        <time>2015-06-06T14:02:57Z</time>
      </trkpt>
      <trkpt lat="40.140300" lon="-5.299533">
        <ele>2544.0</ele>
        <time>2015-06-06T14:02:59Z</time>
      </trkpt>
      <trkpt lat="40.140267" lon="-5.299900">
        <ele>2539.0</ele>
        <time>2015-06-06T14:03:01Z</time>
      </trkpt>
      <trkpt lat="40.140250" lon="-5.300267">
        <ele>2534.0</ele>
        <time>2015-06-06T14:03:03Z</time>
      </trkpt>
      <trkpt lat="40.140267" lon="-5.300617">
        <ele>2529.0</ele>
        <time>2015-06-06T14:03:05Z</time>
      </trkpt>
      <trkpt lat="40.140283" lon="-5.300983">
        <ele>2522.0</ele>
        <time>2015-06-06T14:03:07Z</time>
      </trkpt>
      <trkpt lat="40.140317" lon="-5.301367">
        <ele>2515.0</ele>
        <time>2015-06-06T14:03:09Z</time>
      </trkpt>
      <trkpt lat="40.140333" lon="-5.301733">
        <ele>2511.0</ele>
        <time>2015-06-06T14:03:11Z</time>
      </trkpt>
      <trkpt lat="40.140333" lon="-5.302067">
        <ele>2505.0</ele>
        <time>2015-06-06T14:03:13Z</time>
      </trkpt>
      <trkpt lat="40.140333" lon="-5.302467">
        <ele>2498.0</ele>
        <time>2015-06-06T14:03:15Z</time>
      </trkpt>
      <trkpt lat="40.140367" lon="-5.302867">
        <ele>2495.0</ele>
        <time>2015-06-06T14:03:17Z</time>
      </trkpt>
      <trkpt lat="40.140367" lon="-5.303217">
        <ele>2493.0</ele>
        <time>2015-06-06T14:03:19Z</time>
      </trkpt>
      <trkpt lat="40.140383" lon="-5.303583">
        <ele>2487.0</ele>
        <time>2015-06-06T14:03:21Z</time>
      </trkpt>
      <trkpt lat="40.140450" lon="-5.303967">
        <ele>2483.0</ele>
        <time>2015-06-06T14:03:23Z</time>
      </trkpt>
      <trkpt lat="40.140467" lon="-5.304300">
        <ele>2482.0</ele>
        <time>2015-06-06T14:03:25Z</time>
      </trkpt>
      <trkpt lat="40.140450" lon="-5.304633">
        <ele>2478.0</ele>
        <time>2015-06-06T14:03:27Z</time>
      </trkpt>
      <trkpt lat="40.140433" lon="-5.304967">
        <ele>2474.0</ele>
        <time>2015-06-06T14:03:29Z</time>
      </trkpt>
      <trkpt lat="40.140417" lon="-5.305283">
        <ele>2470.0</ele>
        <time>2015-06-06T14:03:31Z</time>
      </trkpt>
      <trkpt lat="40.140383" lon="-5.305600">
        <ele>2465.0</ele>
        <time>2015-06-06T14:03:33Z</time>
      </trkpt>
      <trkpt lat="40.140400" lon="-5.305950">
        <ele>2459.0</ele>
        <time>2015-06-06T14:03:35Z</time>
      </trkpt>
      <trkpt lat="40.140417" lon="-5.306267">
        <ele>2453.0</ele>
        <time>2015-06-06T14:03:37Z</time>
      </trkpt>
      <trkpt lat="40.140433" lon="-5.306617">
        <ele>2445.0</ele>
        <time>2015-06-06T14:03:39Z</time>
      </trkpt>
      <trkpt lat="40.140433" lon="-5.306983">
        <ele>2438.0</ele>
        <time>2015-06-06T14:03:41Z</time>
      </trkpt>
      <trkpt lat="40.140433" lon="-5.307317">
        <ele>2433.0</ele>
        <time>2015-06-06T14:03:43Z</time>
      </trkpt>
      <trkpt lat="40.140433" lon="-5.307633">
        <ele>2427.0</ele>
        <time>2015-06-06T14:03:45Z</time>
      </trkpt>
      <trkpt lat="40.140467" lon="-5.307950">
        <ele>2418.0</ele>
        <time>2015-06-06T14:03:47Z</time>
      </trkpt>
      <trkpt lat="40.140483" lon="-5.308300">
        <ele>2410.0</ele>
        <time>2015-06-06T14:03:49Z</time>
      </trkpt>
      <trkpt lat="40.140500" lon="-5.308633">
        <ele>2404.0</ele>
        <time>2015-06-06T14:03:51Z</time>
      </trkpt>
      <trkpt lat="40.140483" lon="-5.308967">
        <ele>2397.0</ele>
        <time>2015-06-06T14:03:53Z</time>
      </trkpt>
      <trkpt lat="40.140483" lon="-5.309300">
        <ele>2391.0</ele>
        <time>2015-06-06T14:03:55Z</time>
      </trkpt>
      <trkpt lat="40.140483" lon="-5.309633">
        <ele>2385.0</ele>
        <time>2015-06-06T14:03:57Z</time>
      </trkpt>
      <trkpt lat="40.140483" lon="-5.309967">
        <ele>2379.0</ele>
        <time>2015-06-06T14:03:59Z</time>
      </trkpt>
      <trkpt lat="40.140500" lon="-5.310300">
        <ele>2372.0</ele>
        <time>2015-06-06T14:04:01Z</time>
      </trkpt>
      <trkpt lat="40.140533" lon="-5.310650">
        <ele>2366.0</ele>
        <time>2015-06-06T14:04:03Z</time>
      </trkpt>
      <trkpt lat="40.140583" lon="-5.310967">
        <ele>2363.0</ele>
        <time>2015-06-06T14:04:05Z</time>
      </trkpt>
      <trkpt lat="40.140650" lon="-5.311267">
        <ele>2358.0</ele>
        <time>2015-06-06T14:04:07Z</time>
      </trkpt>
      <trkpt lat="40.140733" lon="-5.311600">
        <ele>2352.0</ele>
        <time>2015-06-06T14:04:09Z</time>
      </trkpt>
      <trkpt lat="40.140800" lon="-5.311933">
        <ele>2348.0</ele>
        <time>2015-06-06T14:04:11Z</time>
      </trkpt>
      <trkpt lat="40.140850" lon="-5.312283">
        <ele>2343.0</ele>
        <time>2015-06-06T14:04:13Z</time>
      </trkpt>
      <trkpt lat="40.140883" lon="-5.312633">
        <ele>2337.0</ele>
        <time>2015-06-06T14:04:15Z</time>
      </trkpt>
      <trkpt lat="40.140900" lon="-5.313000">
        <ele>2333.0</ele>
        <time>2015-06-06T14:04:17Z</time>
      </trkpt>
      <trkpt lat="40.140933" lon="-5.313333">
        <ele>2330.0</ele>
        <time>2015-06-06T14:04:19Z</time>
      </trkpt>
      <trkpt lat="40.140967" lon="-5.313650">
        <ele>2326.0</ele>
        <time>2015-06-06T14:04:21Z</time>
      </trkpt>
      <trkpt lat="40.141000" lon="-5.314000">
        <ele>2322.0</ele>
        <time>2015-06-06T14:04:23Z</time>
      </trkpt>
      <trkpt lat="40.141050" lon="-5.314333">
        <ele>2319.0</ele>
        <time>2015-06-06T14:04:25Z</time>
      </trkpt>
      <trkpt lat="40.141067" lon="-5.314650">
        <ele>2316.0</ele>
        <time>2015-06-06T14:04:27Z</time>
      </trkpt>
      <trkpt lat="40.141100" lon="-5.314967">
        <ele>2310.0</ele>
        <time>2015-06-06T14:04:29Z</time>
      </trkpt>
      <trkpt lat="40.141133" lon="-5.315333">
        <ele>2305.0</ele>
        <time>2015-06-06T14:04:31Z</time>
      </trkpt>
      <trkpt lat="40.141150" lon="-5.315667">
        <ele>2303.0</ele>
        <time>2015-06-06T14:04:33Z</time>
      </trkpt>
      <trkpt lat="40.141200" lon="-5.315950">
        <ele>2302.0</ele>
        <time>2015-06-06T14:04:35Z</time>
      </trkpt>
      <trkpt lat="40.141267" lon="-5.316217">
        <ele>2295.0</ele>
        <time>2015-06-06T14:04:37Z</time>
      </trkpt>
      <trkpt lat="40.141317" lon="-5.316567">
        <ele>2287.0</ele>
        <time>2015-06-06T14:04:39Z</time>
      </trkpt>
      <trkpt lat="40.141350" lon="-5.316917">
        <ele>2282.0</ele>
        <time>2015-06-06T14:04:41Z</time>
      </trkpt>
      <trkpt lat="40.141367" lon="-5.317250">
        <ele>2278.0</ele>
        <time>2015-06-06T14:04:43Z</time>
      </trkpt>
      <trkpt lat="40.141383" lon="-5.317583">
        <ele>2271.0</ele>
        <time>2015-06-06T14:04:45Z</time>
      </trkpt>
      <trkpt lat="40.141383" lon="-5.317950">
        <ele>2264.0</ele>
        <time>2015-06-06T14:04:47Z</time>
      </trkpt>
      <trkpt lat="40.141367" lon="-5.318283">
        <ele>2259.0</ele>
        <time>2015-06-06T14:04:49Z</time>
      </trkpt>
      <trkpt lat="40.141367" lon="-5.318617">
        <ele>2253.0</ele>
        <time>2015-06-06T14:04:51Z</time>
      </trkpt>
      <trkpt lat="40.141350" lon="-5.318967">
        <ele>2246.0</ele>
        <time>2015-06-06T14:04:53Z</time>
      </trkpt>
      <trkpt lat="40.141317" lon="-5.319300">
        <ele>2240.0</ele>
        <time>2015-06-06T14:04:55Z</time>
      </trkpt>
      <trkpt lat="40.141283" lon="-5.319617">
        <ele>2234.0</ele>
        <time>2015-06-06T14:04:57Z</time>
      </trkpt>
      <trkpt lat="40.141267" lon="-5.319933">
        <ele>2228.0</ele>
        <time>2015-06-06T14:04:59Z</time>
      </trkpt>
      <trkpt lat="40.141267" lon="-5.320283">
        <ele>2220.0</ele>
        <time>2015-06-06T14:05:01Z</time>
      </trkpt>
      <trkpt lat="40.141267" lon="-5.320650">
        <ele>2213.0</ele>
        <time>2015-06-06T14:05:03Z</time>
      </trkpt>
      <trkpt lat="40.141233" lon="-5.321017">
        <ele>2207.0</ele>
        <time>2015-06-06T14:05:05Z</time>
      </trkpt>
      <trkpt lat="40.141233" lon="-5.321383">
        <ele>2201.0</ele>
        <time>2015-06-06T14:05:07Z</time>
      </trkpt>
      <trkpt lat="40.141217" lon="-5.321783">
        <ele>2195.0</ele>
        <time>2015-06-06T14:05:09Z</time>
      </trkpt>
      <trkpt lat="40.141183" lon="-5.322133">
        <ele>2193.0</ele>
        <time>2015-06-06T14:05:11Z</time>
      </trkpt>
      <trkpt lat="40.141167" lon="-5.322483">
        <ele>2188.0</ele>
        <time>2015-06-06T14:05:13Z</time>
      </trkpt>
      <trkpt lat="40.141117" lon="-5.322833">
        <ele>2182.0</ele>
        <time>2015-06-06T14:05:15Z</time>
      </trkpt>
      <trkpt lat="40.141067" lon="-5.323200">
        <ele>2176.0</ele>
        <time>2015-06-06T14:05:17Z</time>
      </trkpt>
      <trkpt lat="40.141033" lon="-5.323567">
        <ele>2169.0</ele>
        <time>2015-06-06T14:05:19Z</time>
      </trkpt>
      <trkpt lat="40.140983" lon="-5.323933">
        <ele>2162.0</ele>
        <time>2015-06-06T14:05:21Z</time>
      </trkpt>
      <trkpt lat="40.140950" lon="-5.324300">
        <ele>2155.0</ele>
        <time>2015-06-06T14:05:23Z</time>
      </trkpt>
      <trkpt lat="40.140883" lon="-5.324633">
        <ele>2148.0</ele>
        <time>2015-06-06T14:05:25Z</time>
      </trkpt>
      <trkpt lat="40.140833" lon="-5.324967">
        <ele>2140.0</ele>
        <time>2015-06-06T14:05:27Z</time>
      </trkpt>
      <trkpt lat="40.140800" lon="-5.325300">
        <ele>2131.0</ele>
        <time>2015-06-06T14:05:29Z</time>
      </trkpt>
      <trkpt lat="40.140767" lon="-5.325650">
        <ele>2122.0</ele>
        <time>2015-06-06T14:05:31Z</time>
      </trkpt>
      <trkpt lat="40.140717" lon="-5.325983">
        <ele>2114.0</ele>
        <time>2015-06-06T14:05:33Z</time>
      </trkpt>
      <trkpt lat="40.140683" lon="-5.326333">
        <ele>2107.0</ele>
        <time>2015-06-06T14:05:35Z</time>
      </trkpt>
      <trkpt lat="40.140633" lon="-5.326667">
        <ele>2100.0</ele>
        <time>2015-06-06T14:05:37Z</time>
      </trkpt>
      <trkpt lat="40.140600" lon="-5.327000">
        <ele>2094.0</ele>
        <time>2015-06-06T14:05:39Z</time>
      </trkpt>
      <trkpt lat="40.140567" lon="-5.327317">
        <ele>2087.0</ele>
        <time>2015-06-06T14:05:41Z</time>
      </trkpt>
      <trkpt lat="40.140533" lon="-5.327617">
        <ele>2080.0</ele>
        <time>2015-06-06T14:05:43Z</time>
      </trkpt>
      <trkpt lat="40.140500" lon="-5.327933">
        <ele>2072.0</ele>
        <time>2015-06-06T14:05:45Z</time>
      </trkpt>
      <trkpt lat="40.140400" lon="-5.328233">
        <ele>2065.0</ele>
        <time>2015-06-06T14:05:47Z</time>
      </trkpt>
      <trkpt lat="40.140283" lon="-5.328517">
        <ele>2058.0</ele>
        <time>2015-06-06T14:05:49Z</time>
      </trkpt>
      <trkpt lat="40.140167" lon="-5.328817">
        <ele>2051.0</ele>
        <time>2015-06-06T14:05:51Z</time>
      </trkpt>
      <trkpt lat="40.140067" lon="-5.329133">
        <ele>2046.0</ele>
        <time>2015-06-06T14:05:53Z</time>
      </trkpt>
      <trkpt lat="40.139950" lon="-5.329433">
        <ele>2041.0</ele>
        <time>2015-06-06T14:05:55Z</time>
      </trkpt>
      <trkpt lat="40.139850" lon="-5.329750">
        <ele>2036.0</ele>
        <time>2015-06-06T14:05:57Z</time>
      </trkpt>
      <trkpt lat="40.139750" lon="-5.330067">
        <ele>2031.0</ele>
        <time>2015-06-06T14:05:59Z</time>
      </trkpt>
      <trkpt lat="40.139667" lon="-5.330400">
        <ele>2028.0</ele>
        <time>2015-06-06T14:06:01Z</time>
      </trkpt>
      <trkpt lat="40.139600" lon="-5.330700">
        <ele>2026.0</ele>
        <time>2015-06-06T14:06:03Z</time>
      </trkpt>
      <trkpt lat="40.139517" lon="-5.330983">
        <ele>2022.0</ele>
        <time>2015-06-06T14:06:05Z</time>
      </trkpt>
      <trkpt lat="40.139417" lon="-5.331300">
        <ele>2017.0</ele>
        <time>2015-06-06T14:06:07Z</time>
      </trkpt>
      <trkpt lat="40.139333" lon="-5.331600">
        <ele>2013.0</ele>
        <time>2015-06-06T14:06:09Z</time>
      </trkpt>
      <trkpt lat="40.139233" lon="-5.331900">
        <ele>2008.0</ele>
        <time>2015-06-06T14:06:11Z</time>
      </trkpt>
      <trkpt lat="40.139150" lon="-5.332217">
        <ele>2004.0</ele>
        <time>2015-06-06T14:06:13Z</time>
      </trkpt>
      <trkpt lat="40.139083" lon="-5.332533">
        <ele>1999.0</ele>
        <time>2015-06-06T14:06:15Z</time>
      </trkpt>
      <trkpt lat="40.138983" lon="-5.332867">
        <ele>1994.0</ele>
        <time>2015-06-06T14:06:17Z</time>
      </trkpt>
      <trkpt lat="40.138900" lon="-5.333183">
        <ele>1989.0</ele>
        <time>2015-06-06T14:06:19Z</time>
      </trkpt>
      <trkpt lat="40.138817" lon="-5.333500">
        <ele>1984.0</ele>
        <time>2015-06-06T14:06:21Z</time>
      </trkpt>
      <trkpt lat="40.138767" lon="-5.333817">
        <ele>1979.0</ele>
        <time>2015-06-06T14:06:23Z</time>
      </trkpt>
      <trkpt lat="40.138700" lon="-5.334133">
        <ele>1973.0</ele>
        <time>2015-06-06T14:06:25Z</time>
      </trkpt>
      <trkpt lat="40.138633" lon="-5.334450">
        <ele>1967.0</ele>
        <time>2015-06-06T14:06:27Z</time>
      </trkpt>
      <trkpt lat="40.138567" lon="-5.334750">
        <ele>1961.0</ele>
        <time>2015-06-06T14:06:29Z</time>
      </trkpt>
      <trkpt lat="40.138500" lon="-5.335050">
        <ele>1954.0</ele>
        <time>2015-06-06T14:06:31Z</time>
      </trkpt>
      <trkpt lat="40.138417" lon="-5.335350">
        <ele>1948.0</ele>
        <time>2015-06-06T14:06:33Z</time>
      </trkpt>
      <trkpt lat="40.138333" lon="-5.335633">
        <ele>1942.0</ele>
        <time>2015-06-06T14:06:35Z</time>
      </trkpt>
      <trkpt lat="40.138300" lon="-5.335917">
        <ele>1937.0</ele>
        <time>2015-06-06T14:06:37Z</time>
      </trkpt>
      <trkpt lat="40.138267" lon="-5.336217">
        <ele>1930.0</ele>
        <time>2015-06-06T14:06:39Z</time>
      </trkpt>
      <trkpt lat="40.138250" lon="-5.336533">
        <ele>1923.0</ele>
        <time>2015-06-06T14:06:41Z</time>
      </trkpt>
      <trkpt lat="40.138200" lon="-5.336850">
        <ele>1916.0</ele>
        <time>2015-06-06T14:06:43Z</time>
      </trkpt>
      <trkpt lat="40.138133" lon="-5.337150">
        <ele>1911.0</ele>
        <time>2015-06-06T14:06:45Z</time>
      </trkpt>
      <trkpt lat="40.138083" lon="-5.337450">
        <ele>1908.0</ele>
        <time>2015-06-06T14:06:47Z</time>
      </trkpt>
      <trkpt lat="40.138083" lon="-5.337733">
        <ele>1904.0</ele>
        <time>2015-06-06T14:06:49Z</time>
      </trkpt>
      <trkpt lat="40.138117" lon="-5.338033">
        <ele>1897.0</ele>
        <time>2015-06-06T14:06:51Z</time>
      </trkpt>
      <trkpt lat="40.138167" lon="-5.338350">
        <ele>1891.0</ele>
        <time>2015-06-06T14:06:53Z</time>
      </trkpt>
      <trkpt lat="40.138217" lon="-5.338683">
        <ele>1885.0</ele>
        <time>2015-06-06T14:06:55Z</time>
      </trkpt>
      <trkpt lat="40.138217" lon="-5.339000">
        <ele>1881.0</ele>
        <time>2015-06-06T14:06:57Z</time>
      </trkpt>
      <trkpt lat="40.138183" lon="-5.339283">
        <ele>1877.0</ele>
        <time>2015-06-06T14:06:59Z</time>
      </trkpt>
      <trkpt lat="40.138117" lon="-5.339533">
        <ele>1872.0</ele>
        <time>2015-06-06T14:07:01Z</time>
      </trkpt>
      <trkpt lat="40.138017" lon="-5.339783">
        <ele>1866.0</ele>
        <time>2015-06-06T14:07:03Z</time>
      </trkpt>
      <trkpt lat="40.137917" lon="-5.340033">
        <ele>1862.0</ele>
        <time>2015-06-06T14:07:05Z</time>
      </trkpt>
      <trkpt lat="40.137833" lon="-5.340300">
        <ele>1857.0</ele>
        <time>2015-06-06T14:07:07Z</time>
      </trkpt>
      <trkpt lat="40.137750" lon="-5.340600">
        <ele>1851.0</ele>
        <time>2015-06-06T14:07:09Z</time>
      </trkpt>
      <trkpt lat="40.137683" lon="-5.340883">
        <ele>1848.0</ele>
        <time>2015-06-06T14:07:11Z</time>
      </trkpt>
      <trkpt lat="40.137667" lon="-5.341150">
        <ele>1847.0</ele>
        <time>2015-06-06T14:07:13Z</time>
      </trkpt>
      <trkpt lat="40.137683" lon="-5.341433">
        <ele>1843.0</ele>
        <time>2015-06-06T14:07:15Z</time>
      </trkpt>
      <trkpt lat="40.137733" lon="-5.341750">
        <ele>1839.0</ele>
        <time>2015-06-06T14:07:17Z</time>
      </trkpt>
      <trkpt lat="40.137767" lon="-5.342050">
        <ele>1837.0</ele>
        <time>2015-06-06T14:07:19Z</time>
      </trkpt>
      <trkpt lat="40.137750" lon="-5.342317">
        <ele>1835.0</ele>
        <time>2015-06-06T14:07:21Z</time>
      </trkpt>
      <trkpt lat="40.137733" lon="-5.342600">
        <ele>1832.0</ele>
        <time>2015-06-06T14:07:23Z</time>
      </trkpt>
      <trkpt lat="40.137683" lon="-5.342883">
        <ele>1827.0</ele>
        <time>2015-06-06T14:07:25Z</time>
      </trkpt>
      <trkpt lat="40.137667" lon="-5.343167">
        <ele>1822.0</ele>
        <time>2015-06-06T14:07:27Z</time>
      </trkpt>
      <trkpt lat="40.137633" lon="-5.343467">
        <ele>1817.0</ele>
        <time>2015-06-06T14:07:29Z</time>
      </trkpt>
      <trkpt lat="40.137617" lon="-5.343783">
        <ele>1812.0</ele>
        <time>2015-06-06T14:07:31Z</time>
      </trkpt>
      <trkpt lat="40.137650" lon="-5.344083">
        <ele>1808.0</ele>
        <time>2015-06-06T14:07:33Z</time>
      </trkpt>
      <trkpt lat="40.137700" lon="-5.344400">
        <ele>1801.0</ele>
        <time>2015-06-06T14:07:35Z</time>
      </trkpt>
      <trkpt lat="40.137717" lon="-5.344733">
        <ele>1796.0</ele>
        <time>2015-06-06T14:07:37Z</time>
      </trkpt>
      <trkpt lat="40.137717" lon="-5.345033">
        <ele>1793.0</ele>
        <time>2015-06-06T14:07:39Z</time>
      </trkpt>
      <trkpt lat="40.137717" lon="-5.345317">
        <ele>1787.0</ele>
        <time>2015-06-06T14:07:41Z</time>
      </trkpt>
      <trkpt lat="40.137683" lon="-5.345650">
        <ele>1781.0</ele>
        <time>2015-06-06T14:07:43Z</time>
      </trkpt>
      <trkpt lat="40.137667" lon="-5.345967">
        <ele>1777.0</ele>
        <time>2015-06-06T14:07:45Z</time>
      </trkpt>
      <trkpt lat="40.137633" lon="-5.346250">
        <ele>1774.0</ele>
        <time>2015-06-06T14:07:47Z</time>
      </trkpt>
      <trkpt lat="40.137600" lon="-5.346567">
        <ele>1769.0</ele>
        <time>2015-06-06T14:07:49Z</time>
      </trkpt>
      <trkpt lat="40.137567" lon="-5.346867">
        <ele>1766.0</ele>
        <time>2015-06-06T14:07:51Z</time>
      </trkpt>
      <trkpt lat="40.137517" lon="-5.347150">
        <ele>1763.0</ele>
        <time>2015-06-06T14:07:53Z</time>
      </trkpt>
      <trkpt lat="40.137467" lon="-5.347450">
        <ele>1758.0</ele>
        <time>2015-06-06T14:07:55Z</time>
      </trkpt>
      <trkpt lat="40.137400" lon="-5.347750">
        <ele>1753.0</ele>
        <time>2015-06-06T14:07:57Z</time>
      </trkpt>
      <trkpt lat="40.137317" lon="-5.348050">
        <ele>1751.0</ele>
        <time>2015-06-06T14:07:59Z</time>
      </trkpt>
      <trkpt lat="40.137267" lon="-5.348317">
        <ele>1749.0</ele>
        <time>2015-06-06T14:08:01Z</time>
      </trkpt>
      <trkpt lat="40.137250" lon="-5.348583">
        <ele>1744.0</ele>
        <time>2015-06-06T14:08:03Z</time>
      </trkpt>
      <trkpt lat="40.137233" lon="-5.348917">
        <ele>1741.0</ele>
        <time>2015-06-06T14:08:05Z</time>
      </trkpt>
      <trkpt lat="40.137200" lon="-5.349233">
        <ele>1740.0</ele>
        <time>2015-06-06T14:08:07Z</time>
      </trkpt>
      <trkpt lat="40.137117" lon="-5.349533">
        <ele>1738.0</ele>
        <time>2015-06-06T14:08:09Z</time>
      </trkpt>
      <trkpt lat="40.137033" lon="-5.349850">
        <ele>1735.0</ele>
        <time>2015-06-06T14:08:11Z</time>
      </trkpt>
      <trkpt lat="40.136933" lon="-5.350233">
        <ele>1736.0</ele>
        <time>2015-06-06T14:08:13Z</time>
      </trkpt>
      <trkpt lat="40.136833" lon="-5.350517">
        <ele>1740.0</ele>
        <time>2015-06-06T14:08:15Z</time>
      </trkpt>
      <trkpt lat="40.136817" lon="-5.350817">
        <ele>1738.0</ele>
        <time>2015-06-06T14:08:17Z</time>
      </trkpt>
      <trkpt lat="40.136817" lon="-5.351183">
        <ele>1736.0</ele>
        <time>2015-06-06T14:08:19Z</time>
      </trkpt>
      <trkpt lat="40.136867" lon="-5.351500">
        <ele>1738.0</ele>
        <time>2015-06-06T14:08:21Z</time>
      </trkpt>
      <trkpt lat="40.136967" lon="-5.351783">
        <ele>1736.0</ele>
        <time>2015-06-06T14:08:23Z</time>
      </trkpt>
      <trkpt lat="40.137133" lon="-5.352067">
        <ele>1734.0</ele>
        <time>2015-06-06T14:08:25Z</time>
      </trkpt>
      <trkpt lat="40.137300" lon="-5.352283">
        <ele>1734.0</ele>
        <time>2015-06-06T14:08:27Z</time>
      </trkpt>
      <trkpt lat="40.137467" lon="-5.352450">
        <ele>1734.0</ele>
        <time>2015-06-06T14:08:29Z</time>
      </trkpt>
      <trkpt lat="40.137650" lon="-5.352583">
        <ele>1732.0</ele>
        <time>2015-06-06T14:08:31Z</time>
      </trkpt>
      <trkpt lat="40.137817" lon="-5.352650">
        <ele>1731.0</ele>
        <time>2015-06-06T14:08:33Z</time>
      </trkpt>
      <trkpt lat="40.138000" lon="-5.352683">
        <ele>1731.0</ele>
        <time>2015-06-06T14:08:35Z</time>
      </trkpt>
      <trkpt lat="40.138117" lon="-5.352700">
        <ele>1732.0</ele>
        <time>2015-06-06T14:08:37Z</time>
      </trkpt>
      <trkpt lat="40.138167" lon="-5.352633">
        <ele>1727.0</ele>
        <time>2015-06-06T14:08:39Z</time>
      </trkpt>
      <trkpt lat="40.138167" lon="-5.352500">
        <ele>1723.0</ele>
        <time>2015-06-06T14:08:41Z</time>
      </trkpt>
      <trkpt lat="40.138100" lon="-5.352417">
        <ele>1721.0</ele>
        <time>2015-06-06T14:08:43Z</time>
      </trkpt>
      <trkpt lat="40.137950" lon="-5.352417">
        <ele>1718.0</ele>
        <time>2015-06-06T14:08:45Z</time>
      </trkpt>
      <trkpt lat="40.137783" lon="-5.352433">
        <ele>1716.0</ele>
        <time>2015-06-06T14:08:47Z</time>
      </trkpt>
      <trkpt lat="40.137600" lon="-5.352500">
        <ele>1714.0</ele>
        <time>2015-06-06T14:08:49Z</time>
      </trkpt>
      <trkpt lat="40.137400" lon="-5.352617">
        <ele>1713.0</ele>
        <time>2015-06-06T14:08:51Z</time>
      </trkpt>
      <trkpt lat="40.137233" lon="-5.352767">
        <ele>1713.0</ele>
        <time>2015-06-06T14:08:53Z</time>
      </trkpt>
      <trkpt lat="40.137117" lon="-5.352967">
        <ele>1711.0</ele>
        <time>2015-06-06T14:08:55Z</time>
      </trkpt>
      <trkpt lat="40.137000" lon="-5.353217">
        <ele>1708.0</ele>
        <time>2015-06-06T14:08:57Z</time>
      </trkpt>
      <trkpt lat="40.136883" lon="-5.353483">
        <ele>1710.0</ele>
        <time>2015-06-06T14:08:59Z</time>
      </trkpt>
      <trkpt lat="40.136817" lon="-5.353700">
        <ele>1713.0</ele>
        <time>2015-06-06T14:09:01Z</time>
      </trkpt>
      <trkpt lat="40.136767" lon="-5.353933">
        <ele>1713.0</ele>
        <time>2015-06-06T14:09:03Z</time>
      </trkpt>
      <trkpt lat="40.136733" lon="-5.354217">
        <ele>1711.0</ele>
        <time>2015-06-06T14:09:05Z</time>
      </trkpt>
      <trkpt lat="40.136750" lon="-5.354533">
        <ele>1711.0</ele>
        <time>2015-06-06T14:09:07Z</time>
      </trkpt>
      <trkpt lat="40.136800" lon="-5.354833">
        <ele>1710.0</ele>
        <time>2015-06-06T14:09:09Z</time>
      </trkpt>
      <trkpt lat="40.136883" lon="-5.355117">
        <ele>1707.0</ele>
        <time>2015-06-06T14:09:11Z</time>
      </trkpt>
      <trkpt lat="40.137000" lon="-5.355450">
        <ele>1706.0</ele>
        <time>2015-06-06T14:09:13Z</time>
      </trkpt>
      <trkpt lat="40.137083" lon="-5.355767">
        <ele>1705.0</ele>
        <time>2015-06-06T14:09:15Z</time>
      </trkpt>
      <trkpt lat="40.137133" lon="-5.356100">
        <ele>1705.0</ele>
        <time>2015-06-06T14:09:17Z</time>
      </trkpt>
      <trkpt lat="40.137167" lon="-5.356433">
        <ele>1703.0</ele>
        <time>2015-06-06T14:09:19Z</time>
      </trkpt>
      <trkpt lat="40.137250" lon="-5.356783">
        <ele>1703.0</ele>
        <time>2015-06-06T14:09:21Z</time>
      </trkpt>
      <trkpt lat="40.137350" lon="-5.357100">
        <ele>1704.0</ele>
        <time>2015-06-06T14:09:23Z</time>
      </trkpt>
      <trkpt lat="40.137467" lon="-5.357400">
        <ele>1703.0</ele>
        <time>2015-06-06T14:09:25Z</time>
      </trkpt>
      <trkpt lat="40.137583" lon="-5.357700">
        <ele>1701.0</ele>
        <time>2015-06-06T14:09:27Z</time>
      </trkpt>
      <trkpt lat="40.137700" lon="-5.358017">
        <ele>1697.0</ele>
        <time>2015-06-06T14:09:29Z</time>
      </trkpt>
      <trkpt lat="40.137833" lon="-5.358333">
        <ele>1695.0</ele>
        <time>2015-06-06T14:09:31Z</time>
      </trkpt>
      <trkpt lat="40.137933" lon="-5.358633">
        <ele>1694.0</ele>
        <time>2015-06-06T14:09:33Z</time>
      </trkpt>
      <trkpt lat="40.138000" lon="-5.358983">
        <ele>1691.0</ele>
        <time>2015-06-06T14:09:35Z</time>
      </trkpt>
      <trkpt lat="40.138083" lon="-5.359300">
        <ele>1689.0</ele>
        <time>2015-06-06T14:09:37Z</time>
      </trkpt>
      <trkpt lat="40.138217" lon="-5.359600">
        <ele>1687.0</ele>
        <time>2015-06-06T14:09:39Z</time>
      </trkpt>
      <trkpt lat="40.138367" lon="-5.359900">
        <ele>1685.0</ele>
        <time>2015-06-06T14:09:41Z</time>
      </trkpt>
      <trkpt lat="40.138483" lon="-5.360217">
        <ele>1684.0</ele>
        <time>2015-06-06T14:09:43Z</time>
      </trkpt>
      <trkpt lat="40.138567" lon="-5.360533">
        <ele>1682.0</ele>
        <time>2015-06-06T14:09:45Z</time>
      </trkpt>
      <trkpt lat="40.138650" lon="-5.360867">
        <ele>1680.0</ele>
        <time>2015-06-06T14:09:47Z</time>
      </trkpt>
      <trkpt lat="40.138750" lon="-5.361200">
        <ele>1678.0</ele>
        <time>2015-06-06T14:09:49Z</time>
      </trkpt>
      <trkpt lat="40.138883" lon="-5.361500">
        <ele>1674.0</ele>
        <time>2015-06-06T14:09:51Z</time>
      </trkpt>
      <trkpt lat="40.139033" lon="-5.361817">
        <ele>1672.0</ele>
        <time>2015-06-06T14:09:53Z</time>
      </trkpt>
      <trkpt lat="40.139133" lon="-5.362150">
        <ele>1671.0</ele>
        <time>2015-06-06T14:09:55Z</time>
      </trkpt>
      <trkpt lat="40.139200" lon="-5.362500">
        <ele>1669.0</ele>
        <time>2015-06-06T14:09:57Z</time>
      </trkpt>
      <trkpt lat="40.139283" lon="-5.362800">
        <ele>1668.0</ele>
        <time>2015-06-06T14:09:59Z</time>
      </trkpt>
      <trkpt lat="40.139400" lon="-5.363117">
        <ele>1666.0</ele>
        <time>2015-06-06T14:10:01Z</time>
      </trkpt>
      <trkpt lat="40.139533" lon="-5.363417">
        <ele>1664.0</ele>
        <time>2015-06-06T14:10:03Z</time>
      </trkpt>
      <trkpt lat="40.139700" lon="-5.363667">
        <ele>1664.0</ele>
        <time>2015-06-06T14:10:05Z</time>
      </trkpt>
      <trkpt lat="40.139867" lon="-5.363917">
        <ele>1664.0</ele>
        <time>2015-06-06T14:10:07Z</time>
      </trkpt>
      <trkpt lat="40.140033" lon="-5.364167">
        <ele>1662.0</ele>
        <time>2015-06-06T14:10:09Z</time>
      </trkpt>
      <trkpt lat="40.140200" lon="-5.364450">
        <ele>1660.0</ele>
        <time>2015-06-06T14:10:11Z</time>
      </trkpt>
      <trkpt lat="40.140367" lon="-5.364700">
        <ele>1656.0</ele>
        <time>2015-06-06T14:10:13Z</time>
      </trkpt>
      <trkpt lat="40.140600" lon="-5.364917">
        <ele>1654.0</ele>
        <time>2015-06-06T14:10:15Z</time>
      </trkpt>
      <trkpt lat="40.140800" lon="-5.365117">
        <ele>1656.0</ele>
        <time>2015-06-06T14:10:17Z</time>
      </trkpt>
      <trkpt lat="40.141000" lon="-5.365333">
        <ele>1656.0</ele>
        <time>2015-06-06T14:10:19Z</time>
      </trkpt>
      <trkpt lat="40.141217" lon="-5.365467">
        <ele>1656.0</ele>
        <time>2015-06-06T14:10:21Z</time>
      </trkpt>
      <trkpt lat="40.141450" lon="-5.365633">
        <ele>1657.0</ele>
        <time>2015-06-06T14:10:23Z</time>
      </trkpt>
      <trkpt lat="40.141650" lon="-5.365850">
        <ele>1661.0</ele>
        <time>2015-06-06T14:10:25Z</time>
      </trkpt>
      <trkpt lat="40.141817" lon="-5.366083">
        <ele>1664.0</ele>
        <time>2015-06-06T14:10:27Z</time>
      </trkpt>
      <trkpt lat="40.141983" lon="-5.366317">
        <ele>1664.0</ele>
        <time>2015-06-06T14:10:29Z</time>
      </trkpt>
      <trkpt lat="40.142200" lon="-5.366483">
        <ele>1664.0</ele>
        <time>2015-06-06T14:10:31Z</time>
      </trkpt>
      <trkpt lat="40.142417" lon="-5.366567">
        <ele>1668.0</ele>
        <time>2015-06-06T14:10:33Z</time>
      </trkpt>
      <trkpt lat="40.142600" lon="-5.366600">
        <ele>1672.0</ele>
        <time>2015-06-06T14:10:35Z</time>
      </trkpt>
      <trkpt lat="40.142767" lon="-5.366517">
        <ele>1672.0</ele>
        <time>2015-06-06T14:10:37Z</time>
      </trkpt>
      <trkpt lat="40.142850" lon="-5.366333">
        <ele>1675.0</ele>
        <time>2015-06-06T14:10:39Z</time>
      </trkpt>
      <trkpt lat="40.142850" lon="-5.366183">
        <ele>1677.0</ele>
        <time>2015-06-06T14:10:41Z</time>
      </trkpt>
      <trkpt lat="40.142800" lon="-5.366050">
        <ele>1678.0</ele>
        <time>2015-06-06T14:10:43Z</time>
      </trkpt>
      <trkpt lat="40.142667" lon="-5.365950">
        <ele>1680.0</ele>
        <time>2015-06-06T14:10:45Z</time>
      </trkpt>
      <trkpt lat="40.142500" lon="-5.365983">
        <ele>1685.0</ele>
        <time>2015-06-06T14:10:47Z</time>
      </trkpt>
      <trkpt lat="40.142367" lon="-5.366100">
        <ele>1691.0</ele>
        <time>2015-06-06T14:10:49Z</time>
      </trkpt>
      <trkpt lat="40.142267" lon="-5.366300">
        <ele>1693.0</ele>
        <time>2015-06-06T14:10:51Z</time>
      </trkpt>
      <trkpt lat="40.142200" lon="-5.366583">
        <ele>1695.0</ele>
        <time>2015-06-06T14:10:53Z</time>
      </trkpt>
      <trkpt lat="40.142233" lon="-5.366883">
        <ele>1699.0</ele>
        <time>2015-06-06T14:10:55Z</time>
      </trkpt>
      <trkpt lat="40.142350" lon="-5.367150">
        <ele>1703.0</ele>
        <time>2015-06-06T14:10:57Z</time>
      </trkpt>
      <trkpt lat="40.142517" lon="-5.367333">
        <ele>1705.0</ele>
        <time>2015-06-06T14:10:59Z</time>
      </trkpt>
      <trkpt lat="40.142733" lon="-5.367383">
        <ele>1704.0</ele>
        <time>2015-06-06T14:11:01Z</time>
      </trkpt>
      <trkpt lat="40.142933" lon="-5.367317">
        <ele>1705.0</ele>
        <time>2015-06-06T14:11:03Z</time>
      </trkpt>
      <trkpt lat="40.143000" lon="-5.367133">
        <ele>1707.0</ele>
        <time>2015-06-06T14:11:05Z</time>
      </trkpt>
      <trkpt lat="40.143000" lon="-5.366933">
        <ele>1711.0</ele>
        <time>2015-06-06T14:11:07Z</time>
      </trkpt>
      <trkpt lat="40.142950" lon="-5.366800">
        <ele>1715.0</ele>
        <time>2015-06-06T14:11:09Z</time>
      </trkpt>
      <trkpt lat="40.142833" lon="-5.366700">
        <ele>1715.0</ele>
        <time>2015-06-06T14:11:11Z</time>
      </trkpt>
      <trkpt lat="40.142650" lon="-5.366700">
        <ele>1718.0</ele>
        <time>2015-06-06T14:11:13Z</time>
      </trkpt>
      <trkpt lat="40.142500" lon="-5.366833">
        <ele>1724.0</ele>
        <time>2015-06-06T14:11:15Z</time>
      </trkpt>
      <trkpt lat="40.142400" lon="-5.367000">
        <ele>1729.0</ele>
        <time>2015-06-06T14:11:17Z</time>
      </trkpt>
      <trkpt lat="40.142333" lon="-5.367233">
        <ele>1730.0</ele>
        <time>2015-06-06T14:11:19Z</time>
      </trkpt>
      <trkpt lat="40.142367" lon="-5.367567">
        <ele>1730.0</ele>
        <time>2015-06-06T14:11:21Z</time>
      </trkpt>
      <trkpt lat="40.142500" lon="-5.367833">
        <ele>1732.0</ele>
        <time>2015-06-06T14:11:23Z</time>
      </trkpt>
      <trkpt lat="40.142700" lon="-5.368017">
        <ele>1734.0</ele>
        <time>2015-06-06T14:11:25Z</time>
      </trkpt>
      <trkpt lat="40.142917" lon="-5.368133">
        <ele>1736.0</ele>
        <time>2015-06-06T14:11:27Z</time>
      </trkpt>
      <trkpt lat="40.143117" lon="-5.368150">
        <ele>1741.0</ele>
        <time>2015-06-06T14:11:29Z</time>
      </trkpt>
      <trkpt lat="40.143250" lon="-5.368050">
        <ele>1747.0</ele>
        <time>2015-06-06T14:11:31Z</time>
      </trkpt>
      <trkpt lat="40.143333" lon="-5.367917">
        <ele>1751.0</ele>
        <time>2015-06-06T14:11:33Z</time>
      </trkpt>
      <trkpt lat="40.143317" lon="-5.367733">
        <ele>1755.0</ele>
        <time>2015-06-06T14:11:35Z</time>
      </trkpt>
      <trkpt lat="40.143233" lon="-5.367567">
        <ele>1758.0</ele>
        <time>2015-06-06T14:11:37Z</time>
      </trkpt>
      <trkpt lat="40.143083" lon="-5.367483">
        <ele>1762.0</ele>
        <time>2015-06-06T14:11:39Z</time>
      </trkpt>
      <trkpt lat="40.142900" lon="-5.367483">
        <ele>1766.0</ele>
        <time>2015-06-06T14:11:41Z</time>
      </trkpt>
      <trkpt lat="40.142750" lon="-5.367583">
        <ele>1770.0</ele>
        <time>2015-06-06T14:11:43Z</time>
      </trkpt>
      <trkpt lat="40.142633" lon="-5.367783">
        <ele>1772.0</ele>
        <time>2015-06-06T14:11:45Z</time>
      </trkpt>
      <trkpt lat="40.142567" lon="-5.368067">
        <ele>1773.0</ele>
        <time>2015-06-06T14:11:47Z</time>
      </trkpt>
      <trkpt lat="40.142633" lon="-5.368367">
        <ele>1777.0</ele>
        <time>2015-06-06T14:11:49Z</time>
      </trkpt>
      <trkpt lat="40.142750" lon="-5.368583">
        <ele>1781.0</ele>
        <time>2015-06-06T14:11:51Z</time>
      </trkpt>
      <trkpt lat="40.142950" lon="-5.368717">
        <ele>1782.0</ele>
        <time>2015-06-06T14:11:53Z</time>
      </trkpt>
      <trkpt lat="40.143167" lon="-5.368750">
        <ele>1783.0</ele>
        <time>2015-06-06T14:11:55Z</time>
      </trkpt>
      <trkpt lat="40.143350" lon="-5.368667">
        <ele>1787.0</ele>
        <time>2015-06-06T14:11:57Z</time>
      </trkpt>
      <trkpt lat="40.143467" lon="-5.368517">
        <ele>1791.0</ele>
        <time>2015-06-06T14:11:59Z</time>
      </trkpt>
      <trkpt lat="40.143483" lon="-5.368333">
        <ele>1796.0</ele>
        <time>2015-06-06T14:12:01Z</time>
      </trkpt>
      <trkpt lat="40.143417" lon="-5.368167">
        <ele>1800.0</ele>
        <time>2015-06-06T14:12:03Z</time>
      </trkpt>
      <trkpt lat="40.143283" lon="-5.368067">
        <ele>1803.0</ele>
        <time>2015-06-06T14:12:05Z</time>
      </trkpt>
      <trkpt lat="40.143100" lon="-5.368017">
        <ele>1807.0</ele>
        <time>2015-06-06T14:12:07Z</time>
      </trkpt>
      <trkpt lat="40.142917" lon="-5.368083">
        <ele>1812.0</ele>
        <time>2015-06-06T14:12:09Z</time>
      </trkpt>
      <trkpt lat="40.142767" lon="-5.368217">
        <ele>1816.0</ele>
        <time>2015-06-06T14:12:11Z</time>
      </trkpt>
      <trkpt lat="40.142683" lon="-5.368467">
        <ele>1818.0</ele>
        <time>2015-06-06T14:12:13Z</time>
      </trkpt>
      <trkpt lat="40.142700" lon="-5.368767">
        <ele>1821.0</ele>
        <time>2015-06-06T14:12:15Z</time>
      </trkpt>
      <trkpt lat="40.142783" lon="-5.369050">
        <ele>1827.0</ele>
        <time>2015-06-06T14:12:17Z</time>
      </trkpt>
      <trkpt lat="40.142950" lon="-5.369233">
        <ele>1830.0</ele>
        <time>2015-06-06T14:12:19Z</time>
      </trkpt>
      <trkpt lat="40.143150" lon="-5.369300">
        <ele>1833.0</ele>
        <time>2015-06-06T14:12:21Z</time>
      </trkpt>
      <trkpt lat="40.143300" lon="-5.369217">
        <ele>1836.0</ele>
        <time>2015-06-06T14:12:23Z</time>
      </trkpt>
      <trkpt lat="40.143383" lon="-5.369050">
        <ele>1839.0</ele>
        <time>2015-06-06T14:12:25Z</time>
      </trkpt>
      <trkpt lat="40.143383" lon="-5.368867">
        <ele>1841.0</ele>
        <time>2015-06-06T14:12:27Z</time>
      </trkpt>
      <trkpt lat="40.143300" lon="-5.368683">
        <ele>1845.0</ele>
        <time>2015-06-06T14:12:29Z</time>
      </trkpt>
      <trkpt lat="40.143167" lon="-5.368583">
        <ele>1850.0</ele>
        <time>2015-06-06T14:12:31Z</time>
      </trkpt>
      <trkpt lat="40.143017" lon="-5.368550">
        <ele>1854.0</ele>
        <time>2015-06-06T14:12:33Z</time>
      </trkpt>
      <trkpt lat="40.142833" lon="-5.368617">
        <ele>1856.0</ele>
        <time>2015-06-06T14:12:35Z</time>
      </trkpt>
      <trkpt lat="40.142633" lon="-5.368750">
        <ele>1859.0</ele>
        <time>2015-06-06T14:12:37Z</time>
      </trkpt>
      <trkpt lat="40.142500" lon="-5.368983">
        <ele>1865.0</ele>
        <time>2015-06-06T14:12:39Z</time>
      </trkpt>
      <trkpt lat="40.142433" lon="-5.369233">
        <ele>1868.0</ele>
        <time>2015-06-06T14:12:41Z</time>
      </trkpt>
      <trkpt lat="40.142400" lon="-5.369567">
        <ele>1870.0</ele>
        <time>2015-06-06T14:12:43Z</time>
      </trkpt>
      <trkpt lat="40.142417" lon="-5.369883">
        <ele>1876.0</ele>
        <time>2015-06-06T14:12:45Z</time>
      </trkpt>
      <trkpt lat="40.142533" lon="-5.370150">
        <ele>1879.0</ele>
        <time>2015-06-06T14:12:47Z</time>
      </trkpt>
      <trkpt lat="40.142700" lon="-5.370367">
        <ele>1880.0</ele>
        <time>2015-06-06T14:12:49Z</time>
      </trkpt>
      <trkpt lat="40.142933" lon="-5.370467">
        <ele>1880.0</ele>
        <time>2015-06-06T14:12:51Z</time>
      </trkpt>
      <trkpt lat="40.143150" lon="-5.370400">
        <ele>1883.0</ele>
        <time>2015-06-06T14:12:53Z</time>
      </trkpt>
      <trkpt lat="40.143283" lon="-5.370300">
        <ele>1892.0</ele>
        <time>2015-06-06T14:12:55Z</time>
      </trkpt>
      <trkpt lat="40.143367" lon="-5.370217">
        <ele>1896.0</ele>
        <time>2015-06-06T14:12:57Z</time>
      </trkpt>
      <trkpt lat="40.143400" lon="-5.370017">
        <ele>1896.0</ele>
        <time>2015-06-06T14:12:59Z</time>
      </trkpt>
      <trkpt lat="40.143317" lon="-5.369817">
        <ele>1899.0</ele>
        <time>2015-06-06T14:13:01Z</time>
      </trkpt>
      <trkpt lat="40.143167" lon="-5.369717">
        <ele>1905.0</ele>
        <time>2015-06-06T14:13:03Z</time>
      </trkpt>
      <trkpt lat="40.143000" lon="-5.369700">
        <ele>1909.0</ele>
        <time>2015-06-06T14:13:05Z</time>
      </trkpt>
      <trkpt lat="40.142800" lon="-5.369767">
        <ele>1912.0</ele>
        <time>2015-06-06T14:13:07Z</time>
      </trkpt>
      <trkpt lat="40.142633" lon="-5.369950">
        <ele>1916.0</ele>
        <time>2015-06-06T14:13:09Z</time>
      </trkpt>
      <trkpt lat="40.142533" lon="-5.370200">
        <ele>1921.0</ele>
        <time>2015-06-06T14:13:11Z</time>
      </trkpt>
      <trkpt lat="40.142483" lon="-5.370483">
        <ele>1923.0</ele>
        <time>2015-06-06T14:13:13Z</time>
      </trkpt>
      <trkpt lat="40.142550" lon="-5.370817">
        <ele>1925.0</ele>
        <time>2015-06-06T14:13:15Z</time>
      </trkpt>
      <trkpt lat="40.142717" lon="-5.371067">
        <ele>1929.0</ele>
        <time>2015-06-06T14:13:17Z</time>
      </trkpt>
      <trkpt lat="40.142917" lon="-5.371167">
        <ele>1933.0</ele>
        <time>2015-06-06T14:13:19Z</time>
      </trkpt>
      <trkpt lat="40.143083" lon="-5.371150">
        <ele>1938.0</ele>
        <time>2015-06-06T14:13:21Z</time>
      </trkpt>
      <trkpt lat="40.143200" lon="-5.371017">
        <ele>1940.0</ele>
        <time>2015-06-06T14:13:23Z</time>
      </trkpt>
      <trkpt lat="40.143217" lon="-5.370833">
        <ele>1945.0</ele>
        <time>2015-06-06T14:13:25Z</time>
      </trkpt>
      <trkpt lat="40.143133" lon="-5.370667">
        <ele>1949.0</ele>
        <time>2015-06-06T14:13:27Z</time>
      </trkpt>
      <trkpt lat="40.142983" lon="-5.370583">
        <ele>1952.0</ele>
        <time>2015-06-06T14:13:29Z</time>
      </trkpt>
      <trkpt lat="40.142783" lon="-5.370617">
        <ele>1956.0</ele>
        <time>2015-06-06T14:13:31Z</time>
      </trkpt>
      <trkpt lat="40.142600" lon="-5.370733">
        <ele>1961.0</ele>
        <time>2015-06-06T14:13:33Z</time>
      </trkpt>
      <trkpt lat="40.142450" lon="-5.370933">
        <ele>1965.0</ele>
        <time>2015-06-06T14:13:35Z</time>
      </trkpt>
      <trkpt lat="40.142367" lon="-5.371217">
        <ele>1967.0</ele>
        <time>2015-06-06T14:13:37Z</time>
      </trkpt>
      <trkpt lat="40.142350" lon="-5.371550">
        <ele>1970.0</ele>
        <time>2015-06-06T14:13:39Z</time>
      </trkpt>
      <trkpt lat="40.142433" lon="-5.371883">
        <ele>1976.0</ele>
        <time>2015-06-06T14:13:41Z</time>
      </trkpt>
      <trkpt lat="40.142583" lon="-5.372117">
        <ele>1980.0</ele>
        <time>2015-06-06T14:13:43Z</time>
      </trkpt>
      <trkpt lat="40.142767" lon="-5.372267">
        <ele>1983.0</ele>
        <time>2015-06-06T14:13:45Z</time>
      </trkpt>
      <trkpt lat="40.142967" lon="-5.372267">
        <ele>1986.0</ele>
        <time>2015-06-06T14:13:47Z</time>
      </trkpt>
      <trkpt lat="40.143117" lon="-5.372133">
        <ele>1992.0</ele>
        <time>2015-06-06T14:13:49Z</time>
      </trkpt>
      <trkpt lat="40.143150" lon="-5.372000">
        <ele>1997.0</ele>
        <time>2015-06-06T14:13:51Z</time>
      </trkpt>
      <trkpt lat="40.143100" lon="-5.371850">
        <ele>2000.0</ele>
        <time>2015-06-06T14:13:53Z</time>
      </trkpt>
      <trkpt lat="40.142950" lon="-5.371717">
        <ele>2004.0</ele>
        <time>2015-06-06T14:13:55Z</time>
      </trkpt>
      <trkpt lat="40.142783" lon="-5.371700">
        <ele>2011.0</ele>
        <time>2015-06-06T14:13:57Z</time>
      </trkpt>
      <trkpt lat="40.142617" lon="-5.371783">
        <ele>2018.0</ele>
        <time>2015-06-06T14:13:59Z</time>
      </trkpt>
      <trkpt lat="40.142467" lon="-5.371933">
        <ele>2022.0</ele>
        <time>2015-06-06T14:14:01Z</time>
      </trkpt>
      <trkpt lat="40.142383" lon="-5.372217">
        <ele>2026.0</ele>
        <time>2015-06-06T14:14:03Z</time>
      </trkpt>
      <trkpt lat="40.142350" lon="-5.372550">
        <ele>2029.0</ele>
        <time>2015-06-06T14:14:05Z</time>
      </trkpt>
      <trkpt lat="40.142400" lon="-5.372900">
        <ele>2035.0</ele>
        <time>2015-06-06T14:14:07Z</time>
      </trkpt>
      <trkpt lat="40.142533" lon="-5.373150">
        <ele>2039.0</ele>
        <time>2015-06-06T14:14:09Z</time>
      </trkpt>
      <trkpt lat="40.142733" lon="-5.373267">
        <ele>2043.0</ele>
        <time>2015-06-06T14:14:11Z</time>
      </trkpt>
      <trkpt lat="40.142917" lon="-5.373283">
        <ele>2048.0</ele>
        <time>2015-06-06T14:14:13Z</time>
      </trkpt>
      <trkpt lat="40.143033" lon="-5.373200">
        <ele>2051.0</ele>
        <time>2015-06-06T14:14:15Z</time>
      </trkpt>
      <trkpt lat="40.143067" lon="-5.373017">
        <ele>2052.0</ele>
        <time>2015-06-06T14:14:17Z</time>
      </trkpt>
      <trkpt lat="40.142983" lon="-5.372850">
        <ele>2056.0</ele>
        <time>2015-06-06T14:14:19Z</time>
      </trkpt>
      <trkpt lat="40.142800" lon="-5.372817">
        <ele>2061.0</ele>
        <time>2015-06-06T14:14:21Z</time>
      </trkpt>
      <trkpt lat="40.142617" lon="-5.372833">
        <ele>2068.0</ele>
        <time>2015-06-06T14:14:23Z</time>
      </trkpt>
      <trkpt lat="40.142450" lon="-5.372967">
        <ele>2074.0</ele>
        <time>2015-06-06T14:14:25Z</time>
      </trkpt>
      <trkpt lat="40.142300" lon="-5.373167">
        <ele>2079.0</ele>
        <time>2015-06-06T14:14:27Z</time>
      </trkpt>
      <trkpt lat="40.142183" lon="-5.373450">
        <ele>2083.0</ele>
        <time>2015-06-06T14:14:29Z</time>
      </trkpt>
      <trkpt lat="40.142167" lon="-5.373800">
        <ele>2085.0</ele>
        <time>2015-06-06T14:14:31Z</time>
      </trkpt>
      <trkpt lat="40.142267" lon="-5.374133">
        <ele>2089.0</ele>
        <time>2015-06-06T14:14:33Z</time>
      </trkpt>
      <trkpt lat="40.142450" lon="-5.374333">
        <ele>2093.0</ele>
        <time>2015-06-06T14:14:35Z</time>
      </trkpt>
      <trkpt lat="40.142633" lon="-5.374383">
        <ele>2097.0</ele>
        <time>2015-06-06T14:14:37Z</time>
      </trkpt>
      <trkpt lat="40.142750" lon="-5.374317">
        <ele>2101.0</ele>
        <time>2015-06-06T14:14:39Z</time>
      </trkpt>
      <trkpt lat="40.142800" lon="-5.374183">
        <ele>2105.0</ele>
        <time>2015-06-06T14:14:41Z</time>
      </trkpt>
      <trkpt lat="40.142750" lon="-5.374067">
        <ele>2110.0</ele>
        <time>2015-06-06T14:14:43Z</time>
      </trkpt>
      <trkpt lat="40.142633" lon="-5.374017">
        <ele>2114.0</ele>
        <time>2015-06-06T14:14:45Z</time>
      </trkpt>
      <trkpt lat="40.142450" lon="-5.374083">
        <ele>2118.0</ele>
        <time>2015-06-06T14:14:47Z</time>
      </trkpt>
      <trkpt lat="40.142267" lon="-5.374250">
        <ele>2123.0</ele>
        <time>2015-06-06T14:14:49Z</time>
      </trkpt>
      <trkpt lat="40.142150" lon="-5.374533">
        <ele>2128.0</ele>
        <time>2015-06-06T14:14:51Z</time>
      </trkpt>
      <trkpt lat="40.142100" lon="-5.374850">
        <ele>2132.0</ele>
        <time>2015-06-06T14:14:53Z</time>
      </trkpt>
      <trkpt lat="40.142133" lon="-5.375217">
        <ele>2133.0</ele>
        <time>2015-06-06T14:14:55Z</time>
      </trkpt>
      <trkpt lat="40.142250" lon="-5.375567">
        <ele>2137.0</ele>
        <time>2015-06-06T14:14:57Z</time>
      </trkpt>
      <trkpt lat="40.142417" lon="-5.375800">
        <ele>2142.0</ele>
        <time>2015-06-06T14:14:59Z</time>
      </trkpt>
      <trkpt lat="40.142600" lon="-5.375950">
        <ele>2146.0</ele>
        <time>2015-06-06T14:15:01Z</time>
      </trkpt>
      <trkpt lat="40.142783" lon="-5.376000">
        <ele>2149.0</ele>
        <time>2015-06-06T14:15:03Z</time>
      </trkpt>
      <trkpt lat="40.142950" lon="-5.375950">
        <ele>2154.0</ele>
        <time>2015-06-06T14:15:05Z</time>
      </trkpt>
      <trkpt lat="40.143017" lon="-5.375800">
        <ele>2157.0</ele>
        <time>2015-06-06T14:15:07Z</time>
      </trkpt>
      <trkpt lat="40.142983" lon="-5.375633">
        <ele>2160.0</ele>
        <time>2015-06-06T14:15:09Z</time>
      </trkpt>
      <trkpt lat="40.142867" lon="-5.375567">
        <ele>2164.0</ele>
        <time>2015-06-06T14:15:11Z</time>
      </trkpt>
      <trkpt lat="40.142700" lon="-5.375600">
        <ele>2169.0</ele>
        <time>2015-06-06T14:15:13Z</time>
      </trkpt>
      <trkpt lat="40.142533" lon="-5.375733">
        <ele>2174.0</ele>
        <time>2015-06-06T14:15:15Z</time>
      </trkpt>
      <trkpt lat="40.142400" lon="-5.376000">
        <ele>2178.0</ele>
        <time>2015-06-06T14:15:17Z</time>
      </trkpt>
      <trkpt lat="40.142333" lon="-5.376333">
        <ele>2182.0</ele>
        <time>2015-06-06T14:15:19Z</time>
      </trkpt>
      <trkpt lat="40.142383" lon="-5.376700">
        <ele>2185.0</ele>
        <time>2015-06-06T14:15:21Z</time>
      </trkpt>
      <trkpt lat="40.142533" lon="-5.377000">
        <ele>2189.0</ele>
        <time>2015-06-06T14:15:23Z</time>
      </trkpt>
      <trkpt lat="40.142717" lon="-5.377200">
        <ele>2193.0</ele>
        <time>2015-06-06T14:15:25Z</time>
      </trkpt>
      <trkpt lat="40.142917" lon="-5.377283">
        <ele>2196.0</ele>
        <time>2015-06-06T14:15:27Z</time>
      </trkpt>
      <trkpt lat="40.143083" lon="-5.377250">
        <ele>2199.0</ele>
        <time>2015-06-06T14:15:29Z</time>
      </trkpt>
      <trkpt lat="40.143200" lon="-5.377117">
        <ele>2204.0</ele>
        <time>2015-06-06T14:15:31Z</time>
      </trkpt>
      <trkpt lat="40.143200" lon="-5.376983">
        <ele>2208.0</ele>
        <time>2015-06-06T14:15:33Z</time>
      </trkpt>
      <trkpt lat="40.143117" lon="-5.376850">
        <ele>2210.0</ele>
        <time>2015-06-06T14:15:35Z</time>
      </trkpt>
      <trkpt lat="40.142950" lon="-5.376833">
        <ele>2214.0</ele>
        <time>2015-06-06T14:15:37Z</time>
      </trkpt>
      <trkpt lat="40.142800" lon="-5.376933">
        <ele>2218.0</ele>
        <time>2015-06-06T14:15:39Z</time>
      </trkpt>
      <trkpt lat="40.142683" lon="-5.377133">
        <ele>2220.0</ele>
        <time>2015-06-06T14:15:41Z</time>
      </trkpt>
      <trkpt lat="40.142583" lon="-5.377467">
        <ele>2223.0</ele>
        <time>2015-06-06T14:15:43Z</time>
      </trkpt>
      <trkpt lat="40.142567" lon="-5.377850">
        <ele>2229.0</ele>
        <time>2015-06-06T14:15:45Z</time>
      </trkpt>
      <trkpt lat="40.142633" lon="-5.378150">
        <ele>2232.0</ele>
        <time>2015-06-06T14:15:47Z</time>
      </trkpt>
      <trkpt lat="40.142767" lon="-5.378467">
        <ele>2232.0</ele>
        <time>2015-06-06T14:15:49Z</time>
      </trkpt>
      <trkpt lat="40.142967" lon="-5.378700">
        <ele>2235.0</ele>
        <time>2015-06-06T14:15:51Z</time>
      </trkpt>
      <trkpt lat="40.143183" lon="-5.378767">
        <ele>2238.0</ele>
        <time>2015-06-06T14:15:53Z</time>
      </trkpt>
      <trkpt lat="40.143367" lon="-5.378733">
        <ele>2241.0</ele>
        <time>2015-06-06T14:15:55Z</time>
      </trkpt>
      <trkpt lat="40.143450" lon="-5.378633">
        <ele>2243.0</ele>
        <time>2015-06-06T14:15:57Z</time>
      </trkpt>
      <trkpt lat="40.143433" lon="-5.378483">
        <ele>2245.0</ele>
        <time>2015-06-06T14:15:59Z</time>
      </trkpt>
      <trkpt lat="40.143333" lon="-5.378383">
        <ele>2250.0</ele>
        <time>2015-06-06T14:16:01Z</time>
      </trkpt>
      <trkpt lat="40.143217" lon="-5.378350">
        <ele>2256.0</ele>
        <time>2015-06-06T14:16:03Z</time>
      </trkpt>
      <trkpt lat="40.143050" lon="-5.378433">
        <ele>2261.0</ele>
        <time>2015-06-06T14:16:05Z</time>
      </trkpt>
      <trkpt lat="40.142917" lon="-5.378650">
        <ele>2266.0</ele>
        <time>2015-06-06T14:16:07Z</time>
      </trkpt>
      <trkpt lat="40.142867" lon="-5.378950">
        <ele>2272.0</ele>
        <time>2015-06-06T14:16:09Z</time>
      </trkpt>
      <trkpt lat="40.142900" lon="-5.379250">
        <ele>2275.0</ele>
        <time>2015-06-06T14:16:11Z</time>
      </trkpt>
      <trkpt lat="40.143033" lon="-5.379533">
        <ele>2275.0</ele>
        <time>2015-06-06T14:16:13Z</time>
      </trkpt>
      <trkpt lat="40.143250" lon="-5.379750">
        <ele>2277.0</ele>
        <time>2015-06-06T14:16:15Z</time>
      </trkpt>
      <trkpt lat="40.143467" lon="-5.379833">
        <ele>2281.0</ele>
        <time>2015-06-06T14:16:17Z</time>
      </trkpt>
      <trkpt lat="40.143667" lon="-5.379833">
        <ele>2284.0</ele>
        <time>2015-06-06T14:16:19Z</time>
      </trkpt>
      <trkpt lat="40.143833" lon="-5.379767">
        <ele>2287.0</ele>
        <time>2015-06-06T14:16:21Z</time>
      </trkpt>
      <trkpt lat="40.143933" lon="-5.379633">
        <ele>2289.0</ele>
        <time>2015-06-06T14:16:23Z</time>
      </trkpt>
      <trkpt lat="40.143950" lon="-5.379467">
        <ele>2292.0</ele>
        <time>2015-06-06T14:16:25Z</time>
      </trkpt>
      <trkpt lat="40.143867" lon="-5.379317">
        <ele>2296.0</ele>
        <time>2015-06-06T14:16:27Z</time>
      </trkpt>
      <trkpt lat="40.143717" lon="-5.379250">
        <ele>2301.0</ele>
        <time>2015-06-06T14:16:29Z</time>
      </trkpt>
      <trkpt lat="40.143567" lon="-5.379267">
        <ele>2305.0</ele>
        <time>2015-06-06T14:16:31Z</time>
      </trkpt>
      <trkpt lat="40.143400" lon="-5.379417">
        <ele>2306.0</ele>
        <time>2015-06-06T14:16:33Z</time>
      </trkpt>
      <trkpt lat="40.143317" lon="-5.379717">
        <ele>2310.0</ele>
        <time>2015-06-06T14:16:35Z</time>
      </trkpt>
      <trkpt lat="40.143333" lon="-5.380050">
        <ele>2315.0</ele>
        <time>2015-06-06T14:16:37Z</time>
      </trkpt>
      <trkpt lat="40.143433" lon="-5.380350">
        <ele>2320.0</ele>
        <time>2015-06-06T14:16:39Z</time>
      </trkpt>
      <trkpt lat="40.143583" lon="-5.380600">
        <ele>2323.0</ele>
        <time>2015-06-06T14:16:41Z</time>
      </trkpt>
      <trkpt lat="40.143783" lon="-5.380783">
        <ele>2326.0</ele>
        <time>2015-06-06T14:16:43Z</time>
      </trkpt>
      <trkpt lat="40.144000" lon="-5.380833">
        <ele>2329.0</ele>
        <time>2015-06-06T14:16:45Z</time>
      </trkpt>
      <trkpt lat="40.144167" lon="-5.380767">
        <ele>2334.0</ele>
        <time>2015-06-06T14:16:47Z</time>
      </trkpt>
      <trkpt lat="40.144250" lon="-5.380667">
        <ele>2338.0</ele>
        <time>2015-06-06T14:16:49Z</time>
      </trkpt>
      <trkpt lat="40.144233" lon="-5.380483">
        <ele>2340.0</ele>
        <time>2015-06-06T14:16:51Z</time>
      </trkpt>
      <trkpt lat="40.144133" lon="-5.380350">
        <ele>2344.0</ele>
        <time>2015-06-06T14:16:53Z</time>
      </trkpt>
      <trkpt lat="40.143967" lon="-5.380317">
        <ele>2349.0</ele>
        <time>2015-06-06T14:16:55Z</time>
      </trkpt>
      <trkpt lat="40.143817" lon="-5.380383">
        <ele>2353.0</ele>
        <time>2015-06-06T14:16:57Z</time>
      </trkpt>
      <trkpt lat="40.143667" lon="-5.380583">
        <ele>2356.0</ele>
        <time>2015-06-06T14:16:59Z</time>
      </trkpt>
      <trkpt lat="40.143567" lon="-5.380850">
        <ele>2360.0</ele>
        <time>2015-06-06T14:17:01Z</time>
      </trkpt>
      <trkpt lat="40.143533" lon="-5.381150">
        <ele>2364.0</ele>
        <time>2015-06-06T14:17:03Z</time>
      </trkpt>
      <trkpt lat="40.143600" lon="-5.381467">
        <ele>2363.0</ele>
        <time>2015-06-06T14:17:05Z</time>
      </trkpt>
      <trkpt lat="40.143783" lon="-5.381733">
        <ele>2362.0</ele>
        <time>2015-06-06T14:17:07Z</time>
      </trkpt>
      <trkpt lat="40.144017" lon="-5.381883">
        <ele>2366.0</ele>
        <time>2015-06-06T14:17:09Z</time>
      </trkpt>
      <trkpt lat="40.144217" lon="-5.381983">
        <ele>2371.0</ele>
        <time>2015-06-06T14:17:11Z</time>
      </trkpt>
      <trkpt lat="40.144383" lon="-5.382000">
        <ele>2372.0</ele>
        <time>2015-06-06T14:17:13Z</time>
      </trkpt>
      <trkpt lat="40.144583" lon="-5.381883">
        <ele>2371.0</ele>
        <time>2015-06-06T14:17:15Z</time>
      </trkpt>
      <trkpt lat="40.144683" lon="-5.381717">
        <ele>2379.0</ele>
        <time>2015-06-06T14:17:17Z</time>
      </trkpt>
      <trkpt lat="40.144700" lon="-5.381633">
        <ele>2385.0</ele>
        <time>2015-06-06T14:17:19Z</time>
      </trkpt>
      <trkpt lat="40.144717" lon="-5.381500">
        <ele>2385.0</ele>
        <time>2015-06-06T14:17:21Z</time>
      </trkpt>
      <trkpt lat="40.144667" lon="-5.381300">
        <ele>2385.0</ele>
        <time>2015-06-06T14:17:23Z</time>
      </trkpt>
      <trkpt lat="40.144500" lon="-5.381200">
        <ele>2387.0</ele>
        <time>2015-06-06T14:17:25Z</time>
      </trkpt>
      <trkpt lat="40.144350" lon="-5.381233">
        <ele>2390.0</ele>
        <time>2015-06-06T14:17:27Z</time>
      </trkpt>
      <trkpt lat="40.144183" lon="-5.381317">
        <ele>2391.0</ele>
        <time>2015-06-06T14:17:29Z</time>
      </trkpt>
      <trkpt lat="40.144000" lon="-5.381517">
        <ele>2391.0</ele>
        <time>2015-06-06T14:17:31Z</time>
      </trkpt>
      <trkpt lat="40.143867" lon="-5.381817">
        <ele>2398.0</ele>
        <time>2015-06-06T14:17:33Z</time>
      </trkpt>
      <trkpt lat="40.143783" lon="-5.382033">
        <ele>2408.0</ele>
        <time>2015-06-06T14:17:35Z</time>
      </trkpt>
      <trkpt lat="40.143717" lon="-5.382233">
        <ele>2410.0</ele>
        <time>2015-06-06T14:17:37Z</time>
      </trkpt>
      <trkpt lat="40.143700" lon="-5.382567">
        <ele>2410.0</ele>
        <time>2015-06-06T14:17:39Z</time>
      </trkpt>
      <trkpt lat="40.143767" lon="-5.382883">
        <ele>2411.0</ele>
        <time>2015-06-06T14:17:41Z</time>
      </trkpt>
      <trkpt lat="40.143900" lon="-5.383167">
        <ele>2412.0</ele>
        <time>2015-06-06T14:17:43Z</time>
      </trkpt>
      <trkpt lat="40.144117" lon="-5.383333">
        <ele>2409.0</ele>
        <time>2015-06-06T14:17:45Z</time>
      </trkpt>
      <trkpt lat="40.144367" lon="-5.383350">
        <ele>2412.0</ele>
        <time>2015-06-06T14:17:47Z</time>
      </trkpt>
      <trkpt lat="40.144533" lon="-5.383350">
        <ele>2420.0</ele>
        <time>2015-06-06T14:17:49Z</time>
      </trkpt>
      <trkpt lat="40.144633" lon="-5.383267">
        <ele>2421.0</ele>
        <time>2015-06-06T14:17:51Z</time>
      </trkpt>
      <trkpt lat="40.144717" lon="-5.383083">
        <ele>2419.0</ele>
        <time>2015-06-06T14:17:53Z</time>
      </trkpt>
      <trkpt lat="40.144650" lon="-5.382900">
        <ele>2421.0</ele>
        <time>2015-06-06T14:17:55Z</time>
      </trkpt>
      <trkpt lat="40.144517" lon="-5.382833">
        <ele>2426.0</ele>
        <time>2015-06-06T14:17:57Z</time>
      </trkpt>
      <trkpt lat="40.144367" lon="-5.382833">
        <ele>2431.0</ele>
        <time>2015-06-06T14:17:59Z</time>
      </trkpt>
      <trkpt lat="40.144217" lon="-5.382883">
        <ele>2433.0</ele>
        <time>2015-06-06T14:18:01Z</time>
      </trkpt>
      <trkpt lat="40.144050" lon="-5.383033">
        <ele>2437.0</ele>
        <time>2015-06-06T14:18:03Z</time>
      </trkpt>
      <trkpt lat="40.143967" lon="-5.383267">
        <ele>2440.0</ele>
        <time>2015-06-06T14:18:05Z</time>
      </trkpt>
      <trkpt lat="40.143933" lon="-5.383533">
        <ele>2440.0</ele>
        <time>2015-06-06T14:18:07Z</time>
      </trkpt>
      <trkpt lat="40.143967" lon="-5.383867">
        <ele>2440.0</ele>
        <time>2015-06-06T14:18:09Z</time>
      </trkpt>
      <trkpt lat="40.144083" lon="-5.384133">
        <ele>2441.0</ele>
        <time>2015-06-06T14:18:11Z</time>
      </trkpt>
      <trkpt lat="40.144233" lon="-5.384350">
        <ele>2444.0</ele>
        <time>2015-06-06T14:18:13Z</time>
      </trkpt>
      <trkpt lat="40.144417" lon="-5.384500">
        <ele>2446.0</ele>
        <time>2015-06-06T14:18:15Z</time>
      </trkpt>
      <trkpt lat="40.144633" lon="-5.384550">
        <ele>2447.0</ele>
        <time>2015-06-06T14:18:17Z</time>
      </trkpt>
      <trkpt lat="40.144817" lon="-5.384517">
        <ele>2450.0</ele>
        <time>2015-06-06T14:18:19Z</time>
      </trkpt>
      <trkpt lat="40.144933" lon="-5.384417">
        <ele>2455.0</ele>
        <time>2015-06-06T14:18:21Z</time>
      </trkpt>
      <trkpt lat="40.145000" lon="-5.384283">
        <ele>2457.0</ele>
        <time>2015-06-06T14:18:23Z</time>
      </trkpt>
      <trkpt lat="40.145017" lon="-5.384117">
        <ele>2457.0</ele>
        <time>2015-06-06T14:18:25Z</time>
      </trkpt>
      <trkpt lat="40.144933" lon="-5.383967">
        <ele>2459.0</ele>
        <time>2015-06-06T14:18:27Z</time>
      </trkpt>
      <trkpt lat="40.144817" lon="-5.383867">
        <ele>2463.0</ele>
        <time>2015-06-06T14:18:29Z</time>
      </trkpt>
      <trkpt lat="40.144650" lon="-5.383850">
        <ele>2465.0</ele>
        <time>2015-06-06T14:18:31Z</time>
      </trkpt>
      <trkpt lat="40.144467" lon="-5.383933">
        <ele>2468.0</ele>
        <time>2015-06-06T14:18:33Z</time>
      </trkpt>
      <trkpt lat="40.144333" lon="-5.384083">
        <ele>2472.0</ele>
        <time>2015-06-06T14:18:35Z</time>
      </trkpt>
      <trkpt lat="40.144233" lon="-5.384300">
        <ele>2473.0</ele>
        <time>2015-06-06T14:18:37Z</time>
      </trkpt>
      <trkpt lat="40.144167" lon="-5.384567">
        <ele>2472.0</ele>
        <time>2015-06-06T14:18:39Z</time>
      </trkpt>
      <trkpt lat="40.144150" lon="-5.384883">
        <ele>2472.0</ele>
        <time>2015-06-06T14:18:41Z</time>
      </trkpt>
      <trkpt lat="40.144150" lon="-5.385150">
        <ele>2475.0</ele>
        <time>2015-06-06T14:18:43Z</time>
      </trkpt>
      <trkpt lat="40.144167" lon="-5.385417">
        <ele>2474.0</ele>
        <time>2015-06-06T14:18:45Z</time>
      </trkpt>
      <trkpt lat="40.144250" lon="-5.385717">
        <ele>2475.0</ele>
        <time>2015-06-06T14:18:47Z</time>
      </trkpt>
      <trkpt lat="40.144350" lon="-5.386000">
        <ele>2478.0</ele>
        <time>2015-06-06T14:18:49Z</time>
      </trkpt>
      <trkpt lat="40.144483" lon="-5.386250">
        <ele>2481.0</ele>
        <time>2015-06-06T14:18:51Z</time>
      </trkpt>
      <trkpt lat="40.144633" lon="-5.386450">
        <ele>2483.0</ele>
        <time>2015-06-06T14:18:53Z</time>
      </trkpt>
      <trkpt lat="40.144817" lon="-5.386583">
        <ele>2484.0</ele>
        <time>2015-06-06T14:18:55Z</time>
      </trkpt>
      <trkpt lat="40.145017" lon="-5.386633">
        <ele>2485.0</ele>
        <time>2015-06-06T14:18:57Z</time>
      </trkpt>
      <trkpt lat="40.145183" lon="-5.386583">
        <ele>2486.0</ele>
        <time>2015-06-06T14:18:59Z</time>
      </trkpt>
      <trkpt lat="40.145283" lon="-5.386433">
        <ele>2489.0</ele>
        <time>2015-06-06T14:19:01Z</time>
      </trkpt>
      <trkpt lat="40.145283" lon="-5.386267">
        <ele>2492.0</ele>
        <time>2015-06-06T14:19:03Z</time>
      </trkpt>
      <trkpt lat="40.145217" lon="-5.386117">
        <ele>2496.0</ele>
        <time>2015-06-06T14:19:05Z</time>
      </trkpt>
      <trkpt lat="40.145117" lon="-5.385983">
        <ele>2500.0</ele>
        <time>2015-06-06T14:19:07Z</time>
      </trkpt>
      <trkpt lat="40.144967" lon="-5.385950">
        <ele>2501.0</ele>
        <time>2015-06-06T14:19:09Z</time>
      </trkpt>
      <trkpt lat="40.144783" lon="-5.385983">
        <ele>2503.0</ele>
        <time>2015-06-06T14:19:11Z</time>
      </trkpt>
      <trkpt lat="40.144633" lon="-5.386100">
        <ele>2506.0</ele>
        <time>2015-06-06T14:19:13Z</time>
      </trkpt>
      <trkpt lat="40.144517" lon="-5.386267">
        <ele>2509.0</ele>
        <time>2015-06-06T14:19:15Z</time>
      </trkpt>
      <trkpt lat="40.144433" lon="-5.386517">
        <ele>2510.0</ele>
        <time>2015-06-06T14:19:17Z</time>
      </trkpt>
      <trkpt lat="40.144400" lon="-5.386850">
        <ele>2510.0</ele>
        <time>2015-06-06T14:19:19Z</time>
      </trkpt>
      <trkpt lat="40.144433" lon="-5.387133">
        <ele>2513.0</ele>
        <time>2015-06-06T14:19:21Z</time>
      </trkpt>
      <trkpt lat="40.144517" lon="-5.387367">
        <ele>2514.0</ele>
        <time>2015-06-06T14:19:23Z</time>
      </trkpt>
      <trkpt lat="40.144633" lon="-5.387600">
        <ele>2513.0</ele>
        <time>2015-06-06T14:19:25Z</time>
      </trkpt>
      <trkpt lat="40.144800" lon="-5.387817">
        <ele>2515.0</ele>
        <time>2015-06-06T14:19:27Z</time>
      </trkpt>
      <trkpt lat="40.144983" lon="-5.387900">
        <ele>2517.0</ele>
        <time>2015-06-06T14:19:29Z</time>
      </trkpt>
      <trkpt lat="40.145183" lon="-5.387933">
        <ele>2517.0</ele>
        <time>2015-06-06T14:19:31Z</time>
      </trkpt>
      <trkpt lat="40.145350" lon="-5.387883">
        <ele>2519.0</ele>
        <time>2015-06-06T14:19:33Z</time>
      </trkpt>
      <trkpt lat="40.145467" lon="-5.387767">
        <ele>2524.0</ele>
        <time>2015-06-06T14:19:35Z</time>
      </trkpt>
      <trkpt lat="40.145533" lon="-5.387650">
        <ele>2527.0</ele>
        <time>2015-06-06T14:19:37Z</time>
      </trkpt>
      <trkpt lat="40.145550" lon="-5.387483">
        <ele>2530.0</ele>
        <time>2015-06-06T14:19:39Z</time>
      </trkpt>
      <trkpt lat="40.145467" lon="-5.387350">
        <ele>2534.0</ele>
        <time>2015-06-06T14:19:41Z</time>
      </trkpt>
      <trkpt lat="40.145333" lon="-5.387283">
        <ele>2536.0</ele>
        <time>2015-06-06T14:19:43Z</time>
      </trkpt>
      <trkpt lat="40.145167" lon="-5.387300">
        <ele>2538.0</ele>
        <time>2015-06-06T14:19:45Z</time>
      </trkpt>
      <trkpt lat="40.145000" lon="-5.387417">
        <ele>2538.0</ele>
        <time>2015-06-06T14:19:47Z</time>
      </trkpt>
      <trkpt lat="40.144850" lon="-5.387600">
        <ele>2542.0</ele>
        <time>2015-06-06T14:19:49Z</time>
      </trkpt>
      <trkpt lat="40.144750" lon="-5.387817">
        <ele>2544.0</ele>
        <time>2015-06-06T14:19:51Z</time>
      </trkpt>
      <trkpt lat="40.144683" lon="-5.388100">
        <ele>2544.0</ele>
        <time>2015-06-06T14:19:53Z</time>
      </trkpt>
      <trkpt lat="40.144667" lon="-5.388433">
        <ele>2545.0</ele>
        <time>2015-06-06T14:19:55Z</time>
      </trkpt>
      <trkpt lat="40.144717" lon="-5.388733">
        <ele>2548.0</ele>
        <time>2015-06-06T14:19:57Z</time>
      </trkpt>
      <trkpt lat="40.144833" lon="-5.388983">
        <ele>2550.0</ele>
        <time>2015-06-06T14:19:59Z</time>
      </trkpt>
      <trkpt lat="40.144983" lon="-5.389167">
        <ele>2552.0</ele>
        <time>2015-06-06T14:20:01Z</time>
      </trkpt>
      <trkpt lat="40.145167" lon="-5.389267">
        <ele>2552.0</ele>
        <time>2015-06-06T14:20:03Z</time>
      </trkpt>
      <trkpt lat="40.145350" lon="-5.389300">
        <ele>2554.0</ele>
        <time>2015-06-06T14:20:05Z</time>
      </trkpt>
      <trkpt lat="40.145500" lon="-5.389217">
        <ele>2554.0</ele>
        <time>2015-06-06T14:20:07Z</time>
      </trkpt>
      <trkpt lat="40.145617" lon="-5.389083">
        <ele>2556.0</ele>
        <time>2015-06-06T14:20:09Z</time>
      </trkpt>
      <trkpt lat="40.145633" lon="-5.388900">
        <ele>2560.0</ele>
        <time>2015-06-06T14:20:11Z</time>
      </trkpt>
      <trkpt lat="40.145567" lon="-5.388767">
        <ele>2564.0</ele>
        <time>2015-06-06T14:20:13Z</time>
      </trkpt>
      <trkpt lat="40.145450" lon="-5.388683">
        <ele>2567.0</ele>
        <time>2015-06-06T14:20:15Z</time>
      </trkpt>
      <trkpt lat="40.145300" lon="-5.388667">
        <ele>2567.0</ele>
        <time>2015-06-06T14:20:17Z</time>
      </trkpt>
      <trkpt lat="40.145133" lon="-5.388717">
        <ele>2568.0</ele>
        <time>2015-06-06T14:20:19Z</time>
      </trkpt>
      <trkpt lat="40.144967" lon="-5.388817">
        <ele>2571.0</ele>
        <time>2015-06-06T14:20:21Z</time>
      </trkpt>
      <trkpt lat="40.144817" lon="-5.389000">
        <ele>2572.0</ele>
        <time>2015-06-06T14:20:23Z</time>
      </trkpt>
      <trkpt lat="40.144717" lon="-5.389250">
        <ele>2573.0</ele>
        <time>2015-06-06T14:20:25Z</time>
      </trkpt>
      <trkpt lat="40.144667" lon="-5.389533">
        <ele>2574.0</ele>
        <time>2015-06-06T14:20:27Z</time>
      </trkpt>
      <trkpt lat="40.144683" lon="-5.389817">
        <ele>2574.0</ele>
        <time>2015-06-06T14:20:29Z</time>
      </trkpt>
      <trkpt lat="40.144767" lon="-5.390100">
        <ele>2576.0</ele>
        <time>2015-06-06T14:20:31Z</time>
      </trkpt>
      <trkpt lat="40.144867" lon="-5.390317">
        <ele>2579.0</ele>
        <time>2015-06-06T14:20:33Z</time>
      </trkpt>
      <trkpt lat="40.145017" lon="-5.390500">
        <ele>2581.0</ele>
        <time>2015-06-06T14:20:35Z</time>
      </trkpt>
      <trkpt lat="40.145183" lon="-5.390617">
        <ele>2582.0</ele>
        <time>2015-06-06T14:20:37Z</time>
      </trkpt>
      <trkpt lat="40.145367" lon="-5.390633">
        <ele>2585.0</ele>
        <time>2015-06-06T14:20:39Z</time>
      </trkpt>
      <trkpt lat="40.145517" lon="-5.390567">
        <ele>2588.0</ele>
        <time>2015-06-06T14:20:41Z</time>
      </trkpt>
      <trkpt lat="40.145617" lon="-5.390467">
        <ele>2590.0</ele>
        <time>2015-06-06T14:20:43Z</time>
      </trkpt>
      <trkpt lat="40.145683" lon="-5.390317">
        <ele>2591.0</ele>
        <time>2015-06-06T14:20:45Z</time>
      </trkpt>
      <trkpt lat="40.145683" lon="-5.390133">
        <ele>2593.0</ele>
        <time>2015-06-06T14:20:47Z</time>
      </trkpt>
      <trkpt lat="40.145617" lon="-5.389933">
        <ele>2596.0</ele>
        <time>2015-06-06T14:20:49Z</time>
      </trkpt>
      <trkpt lat="40.145533" lon="-5.389783">
        <ele>2600.0</ele>
        <time>2015-06-06T14:20:51Z</time>
      </trkpt>
      <trkpt lat="40.145383" lon="-5.389667">
        <ele>2600.0</ele>
        <time>2015-06-06T14:20:53Z</time>
      </trkpt>
      <trkpt lat="40.145200" lon="-5.389633">
        <ele>2602.0</ele>
        <time>2015-06-06T14:20:55Z</time>
      </trkpt>
      <trkpt lat="40.145033" lon="-5.389683">
        <ele>2605.0</ele>
        <time>2015-06-06T14:20:57Z</time>
      </trkpt>
      <trkpt lat="40.144883" lon="-5.389817">
        <ele>2605.0</ele>
        <time>2015-06-06T14:20:59Z</time>
      </trkpt>
      <trkpt lat="40.144750" lon="-5.390017">
        <ele>2605.0</ele>
        <time>2015-06-06T14:21:01Z</time>
      </trkpt>
      <trkpt lat="40.144667" lon="-5.390283">
        <ele>2606.0</ele>
        <time>2015-06-06T14:21:03Z</time>
      </trkpt>
      <trkpt lat="40.144633" lon="-5.390567">
        <ele>2606.0</ele>
        <time>2015-06-06T14:21:05Z</time>
      </trkpt>
      <trkpt lat="40.144667" lon="-5.390850">
        <ele>2604.0</ele>
        <time>2015-06-06T14:21:07Z</time>
      </trkpt>
      <trkpt lat="40.144750" lon="-5.391133">
        <ele>2604.0</ele>
        <time>2015-06-06T14:21:09Z</time>
      </trkpt>
      <trkpt lat="40.144883" lon="-5.391350">
        <ele>2606.0</ele>
        <time>2015-06-06T14:21:11Z</time>
      </trkpt>
      <trkpt lat="40.145050" lon="-5.391500">
        <ele>2607.0</ele>
        <time>2015-06-06T14:21:13Z</time>
      </trkpt>
      <trkpt lat="40.145217" lon="-5.391583">
        <ele>2608.0</ele>
        <time>2015-06-06T14:21:15Z</time>
      </trkpt>
      <trkpt lat="40.145383" lon="-5.391617">
        <ele>2611.0</ele>
        <time>2015-06-06T14:21:17Z</time>
      </trkpt>
      <trkpt lat="40.145517" lon="-5.391567">
        <ele>2612.0</ele>
        <time>2015-06-06T14:21:19Z</time>
      </trkpt>
      <trkpt lat="40.145633" lon="-5.391467">
        <ele>2617.0</ele>
        <time>2015-06-06T14:21:21Z</time>
      </trkpt>
      <trkpt lat="40.145733" lon="-5.391367">
        <ele>2624.0</ele>
        <time>2015-06-06T14:21:23Z</time>
      </trkpt>
      <trkpt lat="40.145783" lon="-5.391233">
        <ele>2627.0</ele>
        <time>2015-06-06T14:21:25Z</time>
      </trkpt>
      <trkpt lat="40.145750" lon="-5.391033">
        <ele>2628.0</ele>
        <time>2015-06-06T14:21:27Z</time>
      </trkpt>
      <trkpt lat="40.145667" lon="-5.390867">
        <ele>2632.0</ele>
        <time>2015-06-06T14:21:29Z</time>
      </trkpt>
      <trkpt lat="40.145517" lon="-5.390767">
        <ele>2634.0</ele>
        <time>2015-06-06T14:21:31Z</time>
      </trkpt>
      <trkpt lat="40.145333" lon="-5.390783">
        <ele>2633.0</ele>
        <time>2015-06-06T14:21:33Z</time>
      </trkpt>
      <trkpt lat="40.145133" lon="-5.390850">
        <ele>2635.0</ele>
        <time>2015-06-06T14:21:35Z</time>
      </trkpt>
      <trkpt lat="40.144983" lon="-5.390983">
        <ele>2636.0</ele>
        <time>2015-06-06T14:21:37Z</time>
      </trkpt>
      <trkpt lat="40.144850" lon="-5.391183">
        <ele>2634.0</ele>
        <time>2015-06-06T14:21:39Z</time>
      </trkpt>
      <trkpt lat="40.144733" lon="-5.391417">
        <ele>2632.0</ele>
        <time>2015-06-06T14:21:41Z</time>
      </trkpt>
      <trkpt lat="40.144667" lon="-5.391683">
        <ele>2629.0</ele>
        <time>2015-06-06T14:21:43Z</time>
      </trkpt>
      <trkpt lat="40.144633" lon="-5.391983">
        <ele>2624.0</ele>
        <time>2015-06-06T14:21:45Z</time>
      </trkpt>
      <trkpt lat="40.144600" lon="-5.392317">
        <ele>2619.0</ele>
        <time>2015-06-06T14:21:47Z</time>
      </trkpt>
      <trkpt lat="40.144567" lon="-5.392667">
        <ele>2618.0</ele>
        <time>2015-06-06T14:21:49Z</time>
      </trkpt>
      <trkpt lat="40.144517" lon="-5.392983">
        <ele>2617.0</ele>
        <time>2015-06-06T14:21:51Z</time>
      </trkpt>
      <trkpt lat="40.144467" lon="-5.393283">
        <ele>2616.0</ele>
        <time>2015-06-06T14:21:53Z</time>
      </trkpt>
      <trkpt lat="40.144400" lon="-5.393617">
        <ele>2615.0</ele>
        <time>2015-06-06T14:21:55Z</time>
      </trkpt>
      <trkpt lat="40.144333" lon="-5.393950">
        <ele>2616.0</ele>
        <time>2015-06-06T14:21:57Z</time>
      </trkpt>
      <trkpt lat="40.144267" lon="-5.394250">
        <ele>2614.0</ele>
        <time>2015-06-06T14:21:59Z</time>
      </trkpt>
      <trkpt lat="40.144200" lon="-5.394600">
        <ele>2610.0</ele>
        <time>2015-06-06T14:22:01Z</time>
      </trkpt>
      <trkpt lat="40.144117" lon="-5.394967">
        <ele>2607.0</ele>
        <time>2015-06-06T14:22:03Z</time>
      </trkpt>
      <trkpt lat="40.144033" lon="-5.395300">
        <ele>2607.0</ele>
        <time>2015-06-06T14:22:05Z</time>
      </trkpt>
      <trkpt lat="40.143967" lon="-5.395650">
        <ele>2605.0</ele>
        <time>2015-06-06T14:22:07Z</time>
      </trkpt>
      <trkpt lat="40.143900" lon="-5.395983">
        <ele>2604.0</ele>
        <time>2015-06-06T14:22:09Z</time>
      </trkpt>
      <trkpt lat="40.143833" lon="-5.396300">
        <ele>2602.0</ele>
        <time>2015-06-06T14:22:11Z</time>
      </trkpt>
      <trkpt lat="40.143750" lon="-5.396617">
        <ele>2598.0</ele>
        <time>2015-06-06T14:22:13Z</time>
      </trkpt>
      <trkpt lat="40.143650" lon="-5.396933">
        <ele>2594.0</ele>
        <time>2015-06-06T14:22:15Z</time>
      </trkpt>
      <trkpt lat="40.143517" lon="-5.397217">
        <ele>2591.0</ele>
        <time>2015-06-06T14:22:17Z</time>
      </trkpt>
      <trkpt lat="40.143383" lon="-5.397467">
        <ele>2588.0</ele>
        <time>2015-06-06T14:22:19Z</time>
      </trkpt>
      <trkpt lat="40.143233" lon="-5.397717">
        <ele>2584.0</ele>
        <time>2015-06-06T14:22:21Z</time>
      </trkpt>
      <trkpt lat="40.143067" lon="-5.397967">
        <ele>2581.0</ele>
        <time>2015-06-06T14:22:23Z</time>
      </trkpt>
      <trkpt lat="40.142900" lon="-5.398167">
        <ele>2580.0</ele>
        <time>2015-06-06T14:22:25Z</time>
      </trkpt>
      <trkpt lat="40.142767" lon="-5.398400">
        <ele>2578.0</ele>
        <time>2015-06-06T14:22:27Z</time>
      </trkpt>
      <trkpt lat="40.142683" lon="-5.398700">
        <ele>2575.0</ele>
        <time>2015-06-06T14:22:29Z</time>
      </trkpt>
      <trkpt lat="40.142617" lon="-5.399050">
        <ele>2572.0</ele>
        <time>2015-06-06T14:22:31Z</time>
      </trkpt>
      <trkpt lat="40.142567" lon="-5.399400">
        <ele>2571.0</ele>
        <time>2015-06-06T14:22:33Z</time>
      </trkpt>
      <trkpt lat="40.142517" lon="-5.399733">
        <ele>2567.0</ele>
        <time>2015-06-06T14:22:35Z</time>
      </trkpt>
      <trkpt lat="40.142450" lon="-5.400083">
        <ele>2563.0</ele>
        <time>2015-06-06T14:22:37Z</time>
      </trkpt>
      <trkpt lat="40.142383" lon="-5.400433">
        <ele>2560.0</ele>
        <time>2015-06-06T14:22:39Z</time>
      </trkpt>
      <trkpt lat="40.142333" lon="-5.400750">
        <ele>2556.0</ele>
        <time>2015-06-06T14:22:41Z</time>
      </trkpt>
      <trkpt lat="40.142250" lon="-5.401067">
        <ele>2550.0</ele>
        <time>2015-06-06T14:22:43Z</time>
      </trkpt>
      <trkpt lat="40.142183" lon="-5.401417">
        <ele>2544.0</ele>
        <time>2015-06-06T14:22:45Z</time>
      </trkpt>
      <trkpt lat="40.142133" lon="-5.401783">
        <ele>2537.0</ele>
        <time>2015-06-06T14:22:47Z</time>
      </trkpt>
      <trkpt lat="40.142067" lon="-5.402150">
        <ele>2529.0</ele>
        <time>2015-06-06T14:22:49Z</time>
      </trkpt>
      <trkpt lat="40.142000" lon="-5.402517">
        <ele>2521.0</ele>
        <time>2015-06-06T14:22:51Z</time>
      </trkpt>
      <trkpt lat="40.141950" lon="-5.402867">
        <ele>2515.0</ele>
        <time>2015-06-06T14:22:53Z</time>
      </trkpt>
      <trkpt lat="40.141900" lon="-5.403233">
        <ele>2506.0</ele>
        <time>2015-06-06T14:22:55Z</time>
      </trkpt>
      <trkpt lat="40.141817" lon="-5.403633">
        <ele>2498.0</ele>
        <time>2015-06-06T14:22:57Z</time>
      </trkpt>
      <trkpt lat="40.141733" lon="-5.403967">
        <ele>2495.0</ele>
        <time>2015-06-06T14:22:59Z</time>
      </trkpt>
      <trkpt lat="40.141667" lon="-5.404283">
        <ele>2490.0</ele>
        <time>2015-06-06T14:23:01Z</time>
      </trkpt>
      <trkpt lat="40.141583" lon="-5.404617">
        <ele>2482.0</ele>
        <time>2015-06-06T14:23:03Z</time>
      </trkpt>
      <trkpt lat="40.141483" lon="-5.404967">
        <ele>2475.0</ele>
        <time>2015-06-06T14:23:05Z</time>
      </trkpt>
      <trkpt lat="40.141417" lon="-5.405267">
        <ele>2471.0</ele>
        <time>2015-06-06T14:23:07Z</time>
      </trkpt>
      <trkpt lat="40.141383" lon="-5.405600">
        <ele>2462.0</ele>
        <time>2015-06-06T14:23:09Z</time>
      </trkpt>
      <trkpt lat="40.141350" lon="-5.405950">
        <ele>2455.0</ele>
        <time>2015-06-06T14:23:11Z</time>
      </trkpt>
      <trkpt lat="40.141317" lon="-5.406267">
        <ele>2452.0</ele>
        <time>2015-06-06T14:23:13Z</time>
      </trkpt>
      <trkpt lat="40.141367" lon="-5.406567">
        <ele>2445.0</ele>
        <time>2015-06-06T14:23:15Z</time>
      </trkpt>
      <trkpt lat="40.141433" lon="-5.406917">
        <ele>2437.0</ele>
        <time>2015-06-06T14:23:17Z</time>
      </trkpt>
      <trkpt lat="40.141450" lon="-5.407267">
        <ele>2435.0</ele>
        <time>2015-06-06T14:23:19Z</time>
      </trkpt>
      <trkpt lat="40.141450" lon="-5.407567">
        <ele>2431.0</ele>
        <time>2015-06-06T14:23:21Z</time>
      </trkpt>
      <trkpt lat="40.141483" lon="-5.407883">
        <ele>2425.0</ele>
        <time>2015-06-06T14:23:23Z</time>
      </trkpt>
      <trkpt lat="40.141550" lon="-5.408233">
        <ele>2421.0</ele>
        <time>2015-06-06T14:23:25Z</time>
      </trkpt>
      <trkpt lat="40.141633" lon="-5.408567">
        <ele>2421.0</ele>
        <time>2015-06-06T14:23:27Z</time>
      </trkpt>
      <trkpt lat="40.141783" lon="-5.408783">
        <ele>2419.0</ele>
        <time>2015-06-06T14:23:29Z</time>
      </trkpt>
      <trkpt lat="40.141967" lon="-5.408950">
        <ele>2415.0</ele>
        <time>2015-06-06T14:23:31Z</time>
      </trkpt>
      <trkpt lat="40.142167" lon="-5.409133">
        <ele>2411.0</ele>
        <time>2015-06-06T14:23:33Z</time>
      </trkpt>
      <trkpt lat="40.142333" lon="-5.409367">
        <ele>2408.0</ele>
        <time>2015-06-06T14:23:35Z</time>
      </trkpt>
      <trkpt lat="40.142483" lon="-5.409617">
        <ele>2403.0</ele>
        <time>2015-06-06T14:23:37Z</time>
      </trkpt>
      <trkpt lat="40.142650" lon="-5.409917">
        <ele>2399.0</ele>
        <time>2015-06-06T14:23:39Z</time>
      </trkpt>
      <trkpt lat="40.142800" lon="-5.410200">
        <ele>2399.0</ele>
        <time>2015-06-06T14:23:41Z</time>
      </trkpt>
      <trkpt lat="40.142967" lon="-5.410400">
        <ele>2397.0</ele>
        <time>2015-06-06T14:23:43Z</time>
      </trkpt>
      <trkpt lat="40.143167" lon="-5.410567">
        <ele>2392.0</ele>
        <time>2015-06-06T14:23:45Z</time>
      </trkpt>
      <trkpt lat="40.143367" lon="-5.410767">
        <ele>2389.0</ele>
        <time>2015-06-06T14:23:47Z</time>
      </trkpt>
      <trkpt lat="40.143517" lon="-5.411033">
        <ele>2388.0</ele>
        <time>2015-06-06T14:23:49Z</time>
      </trkpt>
      <trkpt lat="40.143617" lon="-5.411333">
        <ele>2385.0</ele>
        <time>2015-06-06T14:23:51Z</time>
      </trkpt>
      <trkpt lat="40.143717" lon="-5.411650">
        <ele>2381.0</ele>
        <time>2015-06-06T14:23:53Z</time>
      </trkpt>
      <trkpt lat="40.143767" lon="-5.412000">
        <ele>2378.0</ele>
        <time>2015-06-06T14:23:55Z</time>
      </trkpt>
      <trkpt lat="40.143800" lon="-5.412333">
        <ele>2374.0</ele>
        <time>2015-06-06T14:23:57Z</time>
      </trkpt>
      <trkpt lat="40.143817" lon="-5.412683">
        <ele>2369.0</ele>
        <time>2015-06-06T14:23:59Z</time>
      </trkpt>
      <trkpt lat="40.143783" lon="-5.413050">
        <ele>2365.0</ele>
        <time>2015-06-06T14:24:01Z</time>
      </trkpt>
      <trkpt lat="40.143750" lon="-5.413367">
        <ele>2361.0</ele>
        <time>2015-06-06T14:24:03Z</time>
      </trkpt>
      <trkpt lat="40.143733" lon="-5.413700">
        <ele>2355.0</ele>
        <time>2015-06-06T14:24:05Z</time>
      </trkpt>
      <trkpt lat="40.143700" lon="-5.414050">
        <ele>2349.0</ele>
        <time>2015-06-06T14:24:07Z</time>
      </trkpt>
      <trkpt lat="40.143683" lon="-5.414383">
        <ele>2345.0</ele>
        <time>2015-06-06T14:24:09Z</time>
      </trkpt>
      <trkpt lat="40.143650" lon="-5.414733">
        <ele>2338.0</ele>
        <time>2015-06-06T14:24:11Z</time>
      </trkpt>
      <trkpt lat="40.143600" lon="-5.415100">
        <ele>2332.0</ele>
        <time>2015-06-06T14:24:13Z</time>
      </trkpt>
      <trkpt lat="40.143517" lon="-5.415450">
        <ele>2326.0</ele>
        <time>2015-06-06T14:24:15Z</time>
      </trkpt>
      <trkpt lat="40.143433" lon="-5.415783">
        <ele>2320.0</ele>
        <time>2015-06-06T14:24:17Z</time>
      </trkpt>
      <trkpt lat="40.143350" lon="-5.416133">
        <ele>2313.0</ele>
        <time>2015-06-06T14:24:19Z</time>
      </trkpt>
      <trkpt lat="40.143250" lon="-5.416450">
        <ele>2309.0</ele>
        <time>2015-06-06T14:24:21Z</time>
      </trkpt>
      <trkpt lat="40.143167" lon="-5.416733">
        <ele>2304.0</ele>
        <time>2015-06-06T14:24:23Z</time>
      </trkpt>
      <trkpt lat="40.143083" lon="-5.417050">
        <ele>2295.0</ele>
        <time>2015-06-06T14:24:25Z</time>
      </trkpt>
      <trkpt lat="40.142983" lon="-5.417417">
        <ele>2288.0</ele>
        <time>2015-06-06T14:24:27Z</time>
      </trkpt>
      <trkpt lat="40.142867" lon="-5.417750">
        <ele>2284.0</ele>
        <time>2015-06-06T14:24:29Z</time>
      </trkpt>
      <trkpt lat="40.142750" lon="-5.418067">
        <ele>2280.0</ele>
        <time>2015-06-06T14:24:31Z</time>
      </trkpt>
      <trkpt lat="40.142617" lon="-5.418367">
        <ele>2273.0</ele>
        <time>2015-06-06T14:24:33Z</time>
      </trkpt>
      <trkpt lat="40.142483" lon="-5.418683">
        <ele>2267.0</ele>
        <time>2015-06-06T14:24:35Z</time>
      </trkpt>
      <trkpt lat="40.142367" lon="-5.418967">
        <ele>2266.0</ele>
        <time>2015-06-06T14:24:37Z</time>
      </trkpt>
      <trkpt lat="40.142283" lon="-5.419233">
        <ele>2259.0</ele>
        <time>2015-06-06T14:24:39Z</time>
      </trkpt>
      <trkpt lat="40.142200" lon="-5.419550">
        <ele>2250.0</ele>
        <time>2015-06-06T14:24:41Z</time>
      </trkpt>
      <trkpt lat="40.142083" lon="-5.419867">
        <ele>2246.0</ele>
        <time>2015-06-06T14:24:43Z</time>
      </trkpt>
      <trkpt lat="40.141967" lon="-5.420133">
        <ele>2241.0</ele>
        <time>2015-06-06T14:24:45Z</time>
      </trkpt>
      <trkpt lat="40.141833" lon="-5.420400">
        <ele>2232.0</ele>
        <time>2015-06-06T14:24:47Z</time>
      </trkpt>
      <trkpt lat="40.141683" lon="-5.420667">
        <ele>2225.0</ele>
        <time>2015-06-06T14:24:49Z</time>
      </trkpt>
      <trkpt lat="40.141533" lon="-5.420933">
        <ele>2218.0</ele>
        <time>2015-06-06T14:24:51Z</time>
      </trkpt>
      <trkpt lat="40.141400" lon="-5.421200">
        <ele>2211.0</ele>
        <time>2015-06-06T14:24:53Z</time>
      </trkpt>
      <trkpt lat="40.141250" lon="-5.421467">
        <ele>2205.0</ele>
        <time>2015-06-06T14:24:55Z</time>
      </trkpt>
      <trkpt lat="40.141117" lon="-5.421767">
        <ele>2198.0</ele>
        <time>2015-06-06T14:24:57Z</time>
      </trkpt>
      <trkpt lat="40.141000" lon="-5.422050">
        <ele>2192.0</ele>
        <time>2015-06-06T14:24:59Z</time>
      </trkpt>
      <trkpt lat="40.140883" lon="-5.422333">
        <ele>2187.0</ele>
        <time>2015-06-06T14:25:01Z</time>
      </trkpt>
      <trkpt lat="40.140783" lon="-5.422633">
        <ele>2182.0</ele>
        <time>2015-06-06T14:25:03Z</time>
      </trkpt>
      <trkpt lat="40.140667" lon="-5.422917">
        <ele>2178.0</ele>
        <time>2015-06-06T14:25:05Z</time>
      </trkpt>
      <trkpt lat="40.140567" lon="-5.423200">
        <ele>2173.0</ele>
        <time>2015-06-06T14:25:07Z</time>
      </trkpt>
      <trkpt lat="40.140483" lon="-5.423483">
        <ele>2167.0</ele>
        <time>2015-06-06T14:25:09Z</time>
      </trkpt>
      <trkpt lat="40.140400" lon="-5.423783">
        <ele>2162.0</ele>
        <time>2015-06-06T14:25:11Z</time>
      </trkpt>
      <trkpt lat="40.140317" lon="-5.424100">
        <ele>2156.0</ele>
        <time>2015-06-06T14:25:13Z</time>
      </trkpt>
      <trkpt lat="40.140200" lon="-5.424383">
        <ele>2152.0</ele>
        <time>2015-06-06T14:25:15Z</time>
      </trkpt>
      <trkpt lat="40.140100" lon="-5.424667">
        <ele>2146.0</ele>
        <time>2015-06-06T14:25:17Z</time>
      </trkpt>
      <trkpt lat="40.139983" lon="-5.424950">
        <ele>2140.0</ele>
        <time>2015-06-06T14:25:19Z</time>
      </trkpt>
      <trkpt lat="40.139883" lon="-5.425233">
        <ele>2137.0</ele>
        <time>2015-06-06T14:25:21Z</time>
      </trkpt>
      <trkpt lat="40.139783" lon="-5.425483">
        <ele>2135.0</ele>
        <time>2015-06-06T14:25:23Z</time>
      </trkpt>
      <trkpt lat="40.139717" lon="-5.425750">
        <ele>2129.0</ele>
        <time>2015-06-06T14:25:25Z</time>
      </trkpt>
      <trkpt lat="40.139650" lon="-5.426067">
        <ele>2121.0</ele>
        <time>2015-06-06T14:25:27Z</time>
      </trkpt>
      <trkpt lat="40.139550" lon="-5.426400">
        <ele>2116.0</ele>
        <time>2015-06-06T14:25:29Z</time>
      </trkpt>
      <trkpt lat="40.139467" lon="-5.426700">
        <ele>2112.0</ele>
        <time>2015-06-06T14:25:31Z</time>
      </trkpt>
      <trkpt lat="40.139400" lon="-5.427000">
        <ele>2107.0</ele>
        <time>2015-06-06T14:25:33Z</time>
      </trkpt>
      <trkpt lat="40.139300" lon="-5.427300">
        <ele>2101.0</ele>
        <time>2015-06-06T14:25:35Z</time>
      </trkpt>
      <trkpt lat="40.139200" lon="-5.427650">
        <ele>2097.0</ele>
        <time>2015-06-06T14:25:37Z</time>
      </trkpt>
      <trkpt lat="40.139083" lon="-5.427967">
        <ele>2096.0</ele>
        <time>2015-06-06T14:25:39Z</time>
      </trkpt>
      <trkpt lat="40.138983" lon="-5.428267">
        <ele>2092.0</ele>
        <time>2015-06-06T14:25:41Z</time>
      </trkpt>
      <trkpt lat="40.138850" lon="-5.428600">
        <ele>2088.0</ele>
        <time>2015-06-06T14:25:43Z</time>
      </trkpt>
      <trkpt lat="40.138733" lon="-5.428950">
        <ele>2086.0</ele>
        <time>2015-06-06T14:25:45Z</time>
      </trkpt>
      <trkpt lat="40.138633" lon="-5.429300">
        <ele>2084.0</ele>
        <time>2015-06-06T14:25:47Z</time>
      </trkpt>
      <trkpt lat="40.138517" lon="-5.429650">
        <ele>2083.0</ele>
        <time>2015-06-06T14:25:49Z</time>
      </trkpt>
      <trkpt lat="40.138450" lon="-5.430017">
        <ele>2083.0</ele>
        <time>2015-06-06T14:25:51Z</time>
      </trkpt>
      <trkpt lat="40.138433" lon="-5.430383">
        <ele>2081.0</ele>
        <time>2015-06-06T14:25:53Z</time>
      </trkpt>
      <trkpt lat="40.138417" lon="-5.430750">
        <ele>2080.0</ele>
        <time>2015-06-06T14:25:55Z</time>
      </trkpt>
      <trkpt lat="40.138383" lon="-5.431133">
        <ele>2078.0</ele>
        <time>2015-06-06T14:25:57Z</time>
      </trkpt>
      <trkpt lat="40.138367" lon="-5.431500">
        <ele>2077.0</ele>
        <time>2015-06-06T14:25:59Z</time>
      </trkpt>
      <trkpt lat="40.138350" lon="-5.431833">
        <ele>2076.0</ele>
        <time>2015-06-06T14:26:01Z</time>
      </trkpt>
      <trkpt lat="40.138350" lon="-5.432167">
        <ele>2074.0</ele>
        <time>2015-06-06T14:26:03Z</time>
      </trkpt>
      <trkpt lat="40.138333" lon="-5.432500">
        <ele>2070.0</ele>
        <time>2015-06-06T14:26:05Z</time>
      </trkpt>
      <trkpt lat="40.138317" lon="-5.432833">
        <ele>2068.0</ele>
        <time>2015-06-06T14:26:07Z</time>
      </trkpt>
      <trkpt lat="40.138317" lon="-5.433183">
        <ele>2065.0</ele>
        <time>2015-06-06T14:26:09Z</time>
      </trkpt>
      <trkpt lat="40.138333" lon="-5.433533">
        <ele>2062.0</ele>
        <time>2015-06-06T14:26:11Z</time>
      </trkpt>
      <trkpt lat="40.138333" lon="-5.433883">
        <ele>2060.0</ele>
        <time>2015-06-06T14:26:13Z</time>
      </trkpt>
      <trkpt lat="40.138350" lon="-5.434217">
        <ele>2057.0</ele>
        <time>2015-06-06T14:26:15Z</time>
      </trkpt>
      <trkpt lat="40.138333" lon="-5.434567">
        <ele>2053.0</ele>
        <time>2015-06-06T14:26:17Z</time>
      </trkpt>
      <trkpt lat="40.138317" lon="-5.434933">
        <ele>2049.0</ele>
        <time>2015-06-06T14:26:19Z</time>
      </trkpt>
      <trkpt lat="40.138300" lon="-5.435283">
        <ele>2045.0</ele>
        <time>2015-06-06T14:26:21Z</time>
      </trkpt>
      <trkpt lat="40.138300" lon="-5.435633">
        <ele>2040.0</ele>
        <time>2015-06-06T14:26:23Z</time>
      </trkpt>
      <trkpt lat="40.138267" lon="-5.436000">
        <ele>2034.0</ele>
        <time>2015-06-06T14:26:25Z</time>
      </trkpt>
      <trkpt lat="40.138250" lon="-5.436350">
        <ele>2030.0</ele>
        <time>2015-06-06T14:26:27Z</time>
      </trkpt>
      <trkpt lat="40.138200" lon="-5.436683">
        <ele>2024.0</ele>
        <time>2015-06-06T14:26:29Z</time>
      </trkpt>
      <trkpt lat="40.138133" lon="-5.437050">
        <ele>2017.0</ele>
        <time>2015-06-06T14:26:31Z</time>
      </trkpt>
      <trkpt lat="40.137633" lon="-5.438867">
        <ele>1984.0</ele>
        <time>2015-06-06T14:26:42Z</time>
      </trkpt>
      <trkpt lat="40.137483" lon="-5.439117">
        <ele>1977.0</ele>
        <time>2015-06-06T14:26:44Z</time>
      </trkpt>
      <trkpt lat="40.137350" lon="-5.439400">
        <ele>1972.0</ele>
        <time>2015-06-06T14:26:46Z</time>
      </trkpt>
      <trkpt lat="40.137233" lon="-5.439683">
        <ele>1964.0</ele>
        <time>2015-06-06T14:26:48Z</time>
      </trkpt>
      <trkpt lat="40.137117" lon="-5.440000">
        <ele>1957.0</ele>
        <time>2015-06-06T14:26:50Z</time>
      </trkpt>
      <trkpt lat="40.137000" lon="-5.440317">
        <ele>1952.0</ele>
        <time>2015-06-06T14:26:52Z</time>
      </trkpt>
      <trkpt lat="40.136883" lon="-5.440617">
        <ele>1946.0</ele>
        <time>2015-06-06T14:26:54Z</time>
      </trkpt>
      <trkpt lat="40.136767" lon="-5.440950">
        <ele>1940.0</ele>
        <time>2015-06-06T14:26:56Z</time>
      </trkpt>
      <trkpt lat="40.136650" lon="-5.441283">
        <ele>1935.0</ele>
        <time>2015-06-06T14:26:58Z</time>
      </trkpt>
      <trkpt lat="40.136533" lon="-5.441600">
        <ele>1930.0</ele>
        <time>2015-06-06T14:27:00Z</time>
      </trkpt>
      <trkpt lat="40.136433" lon="-5.441933">
        <ele>1924.0</ele>
        <time>2015-06-06T14:27:02Z</time>
      </trkpt>
      <trkpt lat="40.136317" lon="-5.442267">
        <ele>1917.0</ele>
        <time>2015-06-06T14:27:04Z</time>
      </trkpt>
      <trkpt lat="40.136200" lon="-5.442600">
        <ele>1912.0</ele>
        <time>2015-06-06T14:27:06Z</time>
      </trkpt>
      <trkpt lat="40.136083" lon="-5.442933">
        <ele>1906.0</ele>
        <time>2015-06-06T14:27:08Z</time>
      </trkpt>
      <trkpt lat="40.135967" lon="-5.443267">
        <ele>1899.0</ele>
        <time>2015-06-06T14:27:10Z</time>
      </trkpt>
      <trkpt lat="40.135567" lon="-5.444433">
        <ele>1880.0</ele>
        <time>2015-06-06T14:27:17Z</time>
      </trkpt>
      <trkpt lat="40.135467" lon="-5.444783">
        <ele>1873.0</ele>
        <time>2015-06-06T14:27:19Z</time>
      </trkpt>
      <trkpt lat="40.135350" lon="-5.445100">
        <ele>1862.0</ele>
        <time>2015-06-06T14:27:21Z</time>
      </trkpt>
      <trkpt lat="40.135217" lon="-5.445433">
        <ele>1856.0</ele>
        <time>2015-06-06T14:27:23Z</time>
      </trkpt>
      <trkpt lat="40.135117" lon="-5.445800">
        <ele>1849.0</ele>
        <time>2015-06-06T14:27:25Z</time>
      </trkpt>
      <trkpt lat="40.135067" lon="-5.446183">
        <ele>1847.0</ele>
        <time>2015-06-06T14:27:27Z</time>
      </trkpt>
      <trkpt lat="40.135033" lon="-5.446567">
        <ele>1844.0</ele>
        <time>2015-06-06T14:27:29Z</time>
      </trkpt>
      <trkpt lat="40.134983" lon="-5.446933">
        <ele>1841.0</ele>
        <time>2015-06-06T14:27:31Z</time>
      </trkpt>
      <trkpt lat="40.134917" lon="-5.447317">
        <ele>1837.0</ele>
        <time>2015-06-06T14:27:33Z</time>
      </trkpt>
      <trkpt lat="40.134867" lon="-5.447683">
        <ele>1833.0</ele>
        <time>2015-06-06T14:27:35Z</time>
      </trkpt>
      <trkpt lat="40.134783" lon="-5.448067">
        <ele>1830.0</ele>
        <time>2015-06-06T14:27:37Z</time>
      </trkpt>
      <trkpt lat="40.134700" lon="-5.448417">
        <ele>1826.0</ele>
        <time>2015-06-06T14:27:39Z</time>
      </trkpt>
      <trkpt lat="40.134617" lon="-5.448783">
        <ele>1823.0</ele>
        <time>2015-06-06T14:27:41Z</time>
      </trkpt>
      <trkpt lat="40.134517" lon="-5.449150">
        <ele>1820.0</ele>
        <time>2015-06-06T14:27:43Z</time>
      </trkpt>
      <trkpt lat="40.134450" lon="-5.449500">
        <ele>1819.0</ele>
        <time>2015-06-06T14:27:45Z</time>
      </trkpt>
      <trkpt lat="40.134383" lon="-5.449850">
        <ele>1817.0</ele>
        <time>2015-06-06T14:27:47Z</time>
      </trkpt>
      <trkpt lat="40.134317" lon="-5.450217">
        <ele>1813.0</ele>
        <time>2015-06-06T14:27:49Z</time>
      </trkpt>
      <trkpt lat="40.134267" lon="-5.450583">
        <ele>1810.0</ele>
        <time>2015-06-06T14:27:51Z</time>
      </trkpt>
      <trkpt lat="40.134217" lon="-5.450950">
        <ele>1807.0</ele>
        <time>2015-06-06T14:27:53Z</time>
      </trkpt>
      <trkpt lat="40.134150" lon="-5.451317">
        <ele>1803.0</ele>
        <time>2015-06-06T14:27:55Z</time>
      </trkpt>
      <trkpt lat="40.134067" lon="-5.451667">
        <ele>1799.0</ele>
        <time>2015-06-06T14:27:57Z</time>
      </trkpt>
      <trkpt lat="40.134000" lon="-5.452033">
        <ele>1795.0</ele>
        <time>2015-06-06T14:27:59Z</time>
      </trkpt>
      <trkpt lat="40.133933" lon="-5.452400">
        <ele>1791.0</ele>
        <time>2015-06-06T14:28:01Z</time>
      </trkpt>
      <trkpt lat="40.133867" lon="-5.452750">
        <ele>1787.0</ele>
        <time>2015-06-06T14:28:03Z</time>
      </trkpt>
      <trkpt lat="40.133800" lon="-5.453117">
        <ele>1782.0</ele>
        <time>2015-06-06T14:28:05Z</time>
      </trkpt>
      <trkpt lat="40.133750" lon="-5.453483">
        <ele>1777.0</ele>
        <time>2015-06-06T14:28:07Z</time>
      </trkpt>
      <trkpt lat="40.133667" lon="-5.453850">
        <ele>1772.0</ele>
        <time>2015-06-06T14:28:09Z</time>
      </trkpt>
      <trkpt lat="40.133600" lon="-5.454233">
        <ele>1768.0</ele>
        <time>2015-06-06T14:28:11Z</time>
      </trkpt>
      <trkpt lat="40.133533" lon="-5.454583">
        <ele>1764.0</ele>
        <time>2015-06-06T14:28:13Z</time>
      </trkpt>
      <trkpt lat="40.133450" lon="-5.454950">
        <ele>1759.0</ele>
        <time>2015-06-06T14:28:15Z</time>
      </trkpt>
      <trkpt lat="40.133367" lon="-5.455300">
        <ele>1754.0</ele>
        <time>2015-06-06T14:28:17Z</time>
      </trkpt>
      <trkpt lat="40.133283" lon="-5.455650">
        <ele>1747.0</ele>
        <time>2015-06-06T14:28:19Z</time>
      </trkpt>
      <trkpt lat="40.133200" lon="-5.455983">
        <ele>1738.0</ele>
        <time>2015-06-06T14:28:21Z</time>
      </trkpt>
      <trkpt lat="40.133117" lon="-5.456367">
        <ele>1730.0</ele>
        <time>2015-06-06T14:28:23Z</time>
      </trkpt>
      <trkpt lat="40.133033" lon="-5.456700">
        <ele>1725.0</ele>
        <time>2015-06-06T14:28:25Z</time>
      </trkpt>
      <trkpt lat="40.132933" lon="-5.457033">
        <ele>1719.0</ele>
        <time>2015-06-06T14:28:27Z</time>
      </trkpt>
      <trkpt lat="40.132867" lon="-5.457400">
        <ele>1712.0</ele>
        <time>2015-06-06T14:28:29Z</time>
      </trkpt>
      <trkpt lat="40.132783" lon="-5.457767">
        <ele>1707.0</ele>
        <time>2015-06-06T14:28:31Z</time>
      </trkpt>
      <trkpt lat="40.132683" lon="-5.458100">
        <ele>1702.0</ele>
        <time>2015-06-06T14:28:33Z</time>
      </trkpt>
      <trkpt lat="40.132600" lon="-5.458450">
        <ele>1696.0</ele>
        <time>2015-06-06T14:28:35Z</time>
      </trkpt>
      <trkpt lat="40.132517" lon="-5.458800">
        <ele>1690.0</ele>
        <time>2015-06-06T14:28:37Z</time>
      </trkpt>
      <trkpt lat="40.132433" lon="-5.459133">
        <ele>1685.0</ele>
        <time>2015-06-06T14:28:39Z</time>
      </trkpt>
      <trkpt lat="40.132350" lon="-5.459467">
        <ele>1680.0</ele>
        <time>2015-06-06T14:28:41Z</time>
      </trkpt>
      <trkpt lat="40.132300" lon="-5.459833">
        <ele>1676.0</ele>
        <time>2015-06-06T14:28:43Z</time>
      </trkpt>
      <trkpt lat="40.132250" lon="-5.460183">
        <ele>1671.0</ele>
        <time>2015-06-06T14:28:45Z</time>
      </trkpt>
      <trkpt lat="40.132200" lon="-5.460533">
        <ele>1665.0</ele>
        <time>2015-06-06T14:28:47Z</time>
      </trkpt>
      <trkpt lat="40.132133" lon="-5.460900">
        <ele>1661.0</ele>
        <time>2015-06-06T14:28:49Z</time>
      </trkpt>
      <trkpt lat="40.132067" lon="-5.461233">
        <ele>1658.0</ele>
        <time>2015-06-06T14:28:51Z</time>
      </trkpt>
      <trkpt lat="40.132000" lon="-5.461567">
        <ele>1654.0</ele>
        <time>2015-06-06T14:28:53Z</time>
      </trkpt>
      <trkpt lat="40.131950" lon="-5.461900">
        <ele>1650.0</ele>
        <time>2015-06-06T14:28:55Z</time>
      </trkpt>
      <trkpt lat="40.131883" lon="-5.462250">
        <ele>1646.0</ele>
        <time>2015-06-06T14:28:57Z</time>
      </trkpt>
      <trkpt lat="40.131817" lon="-5.462583">
        <ele>1642.0</ele>
        <time>2015-06-06T14:28:59Z</time>
      </trkpt>
      <trkpt lat="40.131750" lon="-5.462917">
        <ele>1640.0</ele>
        <time>2015-06-06T14:29:01Z</time>
      </trkpt>
      <trkpt lat="40.131717" lon="-5.463233">
        <ele>1638.0</ele>
        <time>2015-06-06T14:29:03Z</time>
      </trkpt>
      <trkpt lat="40.131700" lon="-5.463583">
        <ele>1631.0</ele>
        <time>2015-06-06T14:29:05Z</time>
      </trkpt>
      <trkpt lat="40.131650" lon="-5.463933">
        <ele>1627.0</ele>
        <time>2015-06-06T14:29:07Z</time>
      </trkpt>
      <trkpt lat="40.131550" lon="-5.464250">
        <ele>1622.0</ele>
        <time>2015-06-06T14:29:09Z</time>
      </trkpt>
      <trkpt lat="40.131450" lon="-5.464583">
        <ele>1615.0</ele>
        <time>2015-06-06T14:29:11Z</time>
      </trkpt>
      <trkpt lat="40.131350" lon="-5.464900">
        <ele>1614.0</ele>
        <time>2015-06-06T14:29:13Z</time>
      </trkpt>
      <trkpt lat="40.131333" lon="-5.465133">
        <ele>1609.0</ele>
        <time>2015-06-06T14:29:15Z</time>
      </trkpt>
      <trkpt lat="40.131300" lon="-5.465433">
        <ele>1601.0</ele>
        <time>2015-06-06T14:29:17Z</time>
      </trkpt>
      <trkpt lat="40.131233" lon="-5.465733">
        <ele>1594.0</ele>
        <time>2015-06-06T14:29:19Z</time>
      </trkpt>
      <trkpt lat="40.131167" lon="-5.466017">
        <ele>1588.0</ele>
        <time>2015-06-06T14:29:21Z</time>
      </trkpt>
      <trkpt lat="40.131150" lon="-5.466333">
        <ele>1579.0</ele>
        <time>2015-06-06T14:29:23Z</time>
      </trkpt>
      <trkpt lat="40.131133" lon="-5.466683">
        <ele>1572.0</ele>
        <time>2015-06-06T14:29:25Z</time>
      </trkpt>
      <trkpt lat="40.131117" lon="-5.467017">
        <ele>1567.0</ele>
        <time>2015-06-06T14:29:27Z</time>
      </trkpt>
      <trkpt lat="40.131117" lon="-5.467333">
        <ele>1561.0</ele>
        <time>2015-06-06T14:29:29Z</time>
      </trkpt>
      <trkpt lat="40.131150" lon="-5.467650">
        <ele>1553.0</ele>
        <time>2015-06-06T14:29:31Z</time>
      </trkpt>
      <trkpt lat="40.131217" lon="-5.468000">
        <ele>1544.0</ele>
        <time>2015-06-06T14:29:33Z</time>
      </trkpt>
      <trkpt lat="40.131250" lon="-5.468400">
        <ele>1537.0</ele>
        <time>2015-06-06T14:29:35Z</time>
      </trkpt>
      <trkpt lat="40.131267" lon="-5.468767">
        <ele>1532.0</ele>
        <time>2015-06-06T14:29:37Z</time>
      </trkpt>
      <trkpt lat="40.131283" lon="-5.469117">
        <ele>1524.0</ele>
        <time>2015-06-06T14:29:39Z</time>
      </trkpt>
      <trkpt lat="40.131333" lon="-5.469517">
        <ele>1517.0</ele>
        <time>2015-06-06T14:29:41Z</time>
      </trkpt>
      <trkpt lat="40.131383" lon="-5.469900">
        <ele>1511.0</ele>
        <time>2015-06-06T14:29:43Z</time>
      </trkpt>
      <trkpt lat="40.131433" lon="-5.470283">
        <ele>1508.0</ele>
        <time>2015-06-06T14:29:45Z</time>
      </trkpt>
      <trkpt lat="40.131450" lon="-5.470650">
        <ele>1506.0</ele>
        <time>2015-06-06T14:29:47Z</time>
      </trkpt>
      <trkpt lat="40.131433" lon="-5.470983">
        <ele>1506.0</ele>
        <time>2015-06-06T14:29:49Z</time>
      </trkpt>
      <trkpt lat="40.131350" lon="-5.471300">
        <ele>1503.0</ele>
        <time>2015-06-06T14:29:51Z</time>
      </trkpt>
      <trkpt lat="40.131233" lon="-5.471600">
        <ele>1501.0</ele>
        <time>2015-06-06T14:29:53Z</time>
      </trkpt>
      <trkpt lat="40.131083" lon="-5.471833">
        <ele>1498.0</ele>
        <time>2015-06-06T14:29:55Z</time>
      </trkpt>
      <trkpt lat="40.130917" lon="-5.472033">
        <ele>1497.0</ele>
        <time>2015-06-06T14:29:57Z</time>
      </trkpt>
      <trkpt lat="40.130783" lon="-5.472250">
        <ele>1499.0</ele>
        <time>2015-06-06T14:29:59Z</time>
      </trkpt>
      <trkpt lat="40.130667" lon="-5.472517">
        <ele>1498.0</ele>
        <time>2015-06-06T14:30:01Z</time>
      </trkpt>
      <trkpt lat="40.130517" lon="-5.472783">
        <ele>1498.0</ele>
        <time>2015-06-06T14:30:03Z</time>
      </trkpt>
      <trkpt lat="40.130350" lon="-5.473067">
        <ele>1504.0</ele>
        <time>2015-06-06T14:30:05Z</time>
      </trkpt>
      <trkpt lat="40.130250" lon="-5.473300">
        <ele>1514.0</ele>
        <time>2015-06-06T14:30:07Z</time>
      </trkpt>
      <trkpt lat="40.130200" lon="-5.473533">
        <ele>1519.0</ele>
        <time>2015-06-06T14:30:09Z</time>
      </trkpt>
      <trkpt lat="40.130133" lon="-5.473850">
        <ele>1522.0</ele>
        <time>2015-06-06T14:30:11Z</time>
      </trkpt>
      <trkpt lat="40.130150" lon="-5.474200">
        <ele>1529.0</ele>
        <time>2015-06-06T14:30:13Z</time>
      </trkpt>
      <trkpt lat="40.130250" lon="-5.474467">
        <ele>1539.0</ele>
        <time>2015-06-06T14:30:15Z</time>
      </trkpt>
      <trkpt lat="40.130367" lon="-5.474667">
        <ele>1546.0</ele>
        <time>2015-06-06T14:30:17Z</time>
      </trkpt>
      <trkpt lat="40.130550" lon="-5.474800">
        <ele>1549.0</ele>
        <time>2015-06-06T14:30:19Z</time>
      </trkpt>
      <trkpt lat="40.130767" lon="-5.474817">
        <ele>1556.0</ele>
        <time>2015-06-06T14:30:21Z</time>
      </trkpt>
      <trkpt lat="40.130900" lon="-5.474783">
        <ele>1563.0</ele>
        <time>2015-06-06T14:30:23Z</time>
      </trkpt>
      <trkpt lat="40.131000" lon="-5.474733">
        <ele>1567.0</ele>
        <time>2015-06-06T14:30:25Z</time>
      </trkpt>
      <trkpt lat="40.131100" lon="-5.474583">
        <ele>1570.0</ele>
        <time>2015-06-06T14:30:27Z</time>
      </trkpt>
      <trkpt lat="40.131083" lon="-5.474517">
        <ele>1578.0</ele>
        <time>2015-06-06T14:30:29Z</time>
      </trkpt>
      <trkpt lat="40.131050" lon="-5.474467">
        <ele>1582.0</ele>
        <time>2015-06-06T14:30:31Z</time>
      </trkpt>
      <trkpt lat="40.130950" lon="-5.474400">
        <ele>1583.0</ele>
        <time>2015-06-06T14:30:33Z</time>
      </trkpt>
      <trkpt lat="40.130817" lon="-5.474383">
        <ele>1590.0</ele>
        <time>2015-06-06T14:30:35Z</time>
      </trkpt>
      <trkpt lat="40.130717" lon="-5.474433">
        <ele>1597.0</ele>
        <time>2015-06-06T14:30:37Z</time>
      </trkpt>
      <trkpt lat="40.130600" lon="-5.474533">
        <ele>1600.0</ele>
        <time>2015-06-06T14:30:39Z</time>
      </trkpt>
      <trkpt lat="40.130450" lon="-5.474750">
        <ele>1604.0</ele>
        <time>2015-06-06T14:30:41Z</time>
      </trkpt>
      <trkpt lat="40.130383" lon="-5.475000">
        <ele>1607.0</ele>
        <time>2015-06-06T14:30:43Z</time>
      </trkpt>
      <trkpt lat="40.130317" lon="-5.475300">
        <ele>1607.0</ele>
        <time>2015-06-06T14:30:45Z</time>
      </trkpt>
      <trkpt lat="40.130267" lon="-5.475667">
        <ele>1613.0</ele>
        <time>2015-06-06T14:30:47Z</time>
      </trkpt>
      <trkpt lat="40.130300" lon="-5.475967">
        <ele>1624.0</ele>
        <time>2015-06-06T14:30:49Z</time>
      </trkpt>
      <trkpt lat="40.130317" lon="-5.476200">
        <ele>1628.0</ele>
        <time>2015-06-06T14:30:51Z</time>
      </trkpt>
      <trkpt lat="40.130433" lon="-5.476467">
        <ele>1626.0</ele>
        <time>2015-06-06T14:30:53Z</time>
      </trkpt>
      <trkpt lat="40.130667" lon="-5.476667">
        <ele>1631.0</ele>
        <time>2015-06-06T14:30:55Z</time>
      </trkpt>
      <trkpt lat="40.130833" lon="-5.476733">
        <ele>1639.0</ele>
        <time>2015-06-06T14:30:57Z</time>
      </trkpt>
      <trkpt lat="40.130983" lon="-5.476767">
        <ele>1641.0</ele>
        <time>2015-06-06T14:30:59Z</time>
      </trkpt>
      <trkpt lat="40.131150" lon="-5.476700">
        <ele>1645.0</ele>
        <time>2015-06-06T14:31:01Z</time>
      </trkpt>
      <trkpt lat="40.131183" lon="-5.476550">
        <ele>1648.0</ele>
        <time>2015-06-06T14:31:03Z</time>
      </trkpt>
      <trkpt lat="40.131133" lon="-5.476433">
        <ele>1652.0</ele>
        <time>2015-06-06T14:31:05Z</time>
      </trkpt>
      <trkpt lat="40.131033" lon="-5.476417">
        <ele>1659.0</ele>
        <time>2015-06-06T14:31:07Z</time>
      </trkpt>
      <trkpt lat="40.130917" lon="-5.476483">
        <ele>1663.0</ele>
        <time>2015-06-06T14:31:09Z</time>
      </trkpt>
      <trkpt lat="40.130783" lon="-5.476617">
        <ele>1667.0</ele>
        <time>2015-06-06T14:31:11Z</time>
      </trkpt>
      <trkpt lat="40.130683" lon="-5.476883">
        <ele>1672.0</ele>
        <time>2015-06-06T14:31:13Z</time>
      </trkpt>
      <trkpt lat="40.130700" lon="-5.477150">
        <ele>1680.0</ele>
        <time>2015-06-06T14:31:15Z</time>
      </trkpt>
      <trkpt lat="40.130800" lon="-5.477383">
        <ele>1684.0</ele>
        <time>2015-06-06T14:31:17Z</time>
      </trkpt>
      <trkpt lat="40.130950" lon="-5.477650">
        <ele>1687.0</ele>
        <time>2015-06-06T14:31:19Z</time>
      </trkpt>
      <trkpt lat="40.131133" lon="-5.477850">
        <ele>1692.0</ele>
        <time>2015-06-06T14:31:21Z</time>
      </trkpt>
      <trkpt lat="40.131350" lon="-5.477883">
        <ele>1695.0</ele>
        <time>2015-06-06T14:31:23Z</time>
      </trkpt>
      <trkpt lat="40.131517" lon="-5.477817">
        <ele>1702.0</ele>
        <time>2015-06-06T14:31:25Z</time>
      </trkpt>
      <trkpt lat="40.131600" lon="-5.477733">
        <ele>1707.0</ele>
        <time>2015-06-06T14:31:27Z</time>
      </trkpt>
      <trkpt lat="40.131600" lon="-5.477617">
        <ele>1710.0</ele>
        <time>2015-06-06T14:31:29Z</time>
      </trkpt>
      <trkpt lat="40.131533" lon="-5.477533">
        <ele>1714.0</ele>
        <time>2015-06-06T14:31:31Z</time>
      </trkpt>
      <trkpt lat="40.131433" lon="-5.477533">
        <ele>1718.0</ele>
        <time>2015-06-06T14:31:33Z</time>
      </trkpt>
      <trkpt lat="40.131317" lon="-5.477567">
        <ele>1721.0</ele>
        <time>2015-06-06T14:31:35Z</time>
      </trkpt>
      <trkpt lat="40.131183" lon="-5.477717">
        <ele>1720.0</ele>
        <time>2015-06-06T14:31:37Z</time>
      </trkpt>
      <trkpt lat="40.131083" lon="-5.477967">
        <ele>1722.0</ele>
        <time>2015-06-06T14:31:39Z</time>
      </trkpt>
      <trkpt lat="40.131000" lon="-5.478200">
        <ele>1725.0</ele>
        <time>2015-06-06T14:31:41Z</time>
      </trkpt>
      <trkpt lat="40.130917" lon="-5.478500">
        <ele>1725.0</ele>
        <time>2015-06-06T14:31:43Z</time>
      </trkpt>
      <trkpt lat="40.130917" lon="-5.478867">
        <ele>1731.0</ele>
        <time>2015-06-06T14:31:45Z</time>
      </trkpt>
      <trkpt lat="40.130983" lon="-5.479200">
        <ele>1739.0</ele>
        <time>2015-06-06T14:31:47Z</time>
      </trkpt>
      <trkpt lat="40.131100" lon="-5.479467">
        <ele>1745.0</ele>
        <time>2015-06-06T14:31:49Z</time>
      </trkpt>
      <trkpt lat="40.131267" lon="-5.479683">
        <ele>1748.0</ele>
        <time>2015-06-06T14:31:51Z</time>
      </trkpt>
      <trkpt lat="40.131500" lon="-5.479783">
        <ele>1753.0</ele>
        <time>2015-06-06T14:31:53Z</time>
      </trkpt>
      <trkpt lat="40.131667" lon="-5.479750">
        <ele>1759.0</ele>
        <time>2015-06-06T14:31:55Z</time>
      </trkpt>
      <trkpt lat="40.131783" lon="-5.479650">
        <ele>1764.0</ele>
        <time>2015-06-06T14:31:57Z</time>
      </trkpt>
      <trkpt lat="40.131800" lon="-5.479533">
        <ele>1768.0</ele>
        <time>2015-06-06T14:31:59Z</time>
      </trkpt>
      <trkpt lat="40.131733" lon="-5.479450">
        <ele>1772.0</ele>
        <time>2015-06-06T14:32:01Z</time>
      </trkpt>
      <trkpt lat="40.131617" lon="-5.479450">
        <ele>1777.0</ele>
        <time>2015-06-06T14:32:03Z</time>
      </trkpt>
      <trkpt lat="40.131483" lon="-5.479583">
        <ele>1783.0</ele>
        <time>2015-06-06T14:32:05Z</time>
      </trkpt>
      <trkpt lat="40.131383" lon="-5.479800">
        <ele>1788.0</ele>
        <time>2015-06-06T14:32:07Z</time>
      </trkpt>
      <trkpt lat="40.131317" lon="-5.480117">
        <ele>1791.0</ele>
        <time>2015-06-06T14:32:09Z</time>
      </trkpt>
      <trkpt lat="40.131300" lon="-5.480483">
        <ele>1797.0</ele>
        <time>2015-06-06T14:32:11Z</time>
      </trkpt>
      <trkpt lat="40.131367" lon="-5.480817">
        <ele>1804.0</ele>
        <time>2015-06-06T14:32:13Z</time>
      </trkpt>
      <trkpt lat="40.131517" lon="-5.481100">
        <ele>1808.0</ele>
        <time>2015-06-06T14:32:15Z</time>
      </trkpt>
      <trkpt lat="40.131733" lon="-5.481267">
        <ele>1813.0</ele>
        <time>2015-06-06T14:32:17Z</time>
      </trkpt>
      <trkpt lat="40.131917" lon="-5.481300">
        <ele>1818.0</ele>
        <time>2015-06-06T14:32:19Z</time>
      </trkpt>
      <trkpt lat="40.132083" lon="-5.481267">
        <ele>1822.0</ele>
        <time>2015-06-06T14:32:21Z</time>
      </trkpt>
      <trkpt lat="40.132183" lon="-5.481117">
        <ele>1827.0</ele>
        <time>2015-06-06T14:32:23Z</time>
      </trkpt>
      <trkpt lat="40.132183" lon="-5.480983">
        <ele>1831.0</ele>
        <time>2015-06-06T14:32:25Z</time>
      </trkpt>
      <trkpt lat="40.132117" lon="-5.480917">
        <ele>1836.0</ele>
        <time>2015-06-06T14:32:27Z</time>
      </trkpt>
      <trkpt lat="40.132017" lon="-5.480933">
        <ele>1840.0</ele>
        <time>2015-06-06T14:32:29Z</time>
      </trkpt>
      <trkpt lat="40.131867" lon="-5.481050">
        <ele>1844.0</ele>
        <time>2015-06-06T14:32:31Z</time>
      </trkpt>
      <trkpt lat="40.131733" lon="-5.481283">
        <ele>1850.0</ele>
        <time>2015-06-06T14:32:33Z</time>
      </trkpt>
      <trkpt lat="40.131667" lon="-5.481567">
        <ele>1856.0</ele>
        <time>2015-06-06T14:32:35Z</time>
      </trkpt>
      <trkpt lat="40.131650" lon="-5.481883">
        <ele>1859.0</ele>
        <time>2015-06-06T14:32:37Z</time>
      </trkpt>
      <trkpt lat="40.131700" lon="-5.482233">
        <ele>1864.0</ele>
        <time>2015-06-06T14:32:39Z</time>
      </trkpt>
      <trkpt lat="40.131850" lon="-5.482533">
        <ele>1870.0</ele>
        <time>2015-06-06T14:32:41Z</time>
      </trkpt>
      <trkpt lat="40.132050" lon="-5.482700">
        <ele>1874.0</ele>
        <time>2015-06-06T14:32:43Z</time>
      </trkpt>
      <trkpt lat="40.132267" lon="-5.482733">
        <ele>1878.0</ele>
        <time>2015-06-06T14:32:45Z</time>
      </trkpt>
      <trkpt lat="40.132417" lon="-5.482683">
        <ele>1882.0</ele>
        <time>2015-06-06T14:32:47Z</time>
      </trkpt>
      <trkpt lat="40.132483" lon="-5.482550">
        <ele>1886.0</ele>
        <time>2015-06-06T14:32:49Z</time>
      </trkpt>
      <trkpt lat="40.132483" lon="-5.482433">
        <ele>1890.0</ele>
        <time>2015-06-06T14:32:51Z</time>
      </trkpt>
      <trkpt lat="40.132400" lon="-5.482400">
        <ele>1894.0</ele>
        <time>2015-06-06T14:32:53Z</time>
      </trkpt>
      <trkpt lat="40.132267" lon="-5.482467">
        <ele>1898.0</ele>
        <time>2015-06-06T14:32:55Z</time>
      </trkpt>
      <trkpt lat="40.132133" lon="-5.482650">
        <ele>1903.0</ele>
        <time>2015-06-06T14:32:57Z</time>
      </trkpt>
      <trkpt lat="40.132067" lon="-5.482917">
        <ele>1908.0</ele>
        <time>2015-06-06T14:32:59Z</time>
      </trkpt>
      <trkpt lat="40.132050" lon="-5.483250">
        <ele>1912.0</ele>
        <time>2015-06-06T14:33:01Z</time>
      </trkpt>
      <trkpt lat="40.132133" lon="-5.483600">
        <ele>1915.0</ele>
        <time>2015-06-06T14:33:03Z</time>
      </trkpt>
      <trkpt lat="40.132317" lon="-5.483883">
        <ele>1921.0</ele>
        <time>2015-06-06T14:33:05Z</time>
      </trkpt>
      <trkpt lat="40.132517" lon="-5.484067">
        <ele>1928.0</ele>
        <time>2015-06-06T14:33:07Z</time>
      </trkpt>
      <trkpt lat="40.132700" lon="-5.484217">
        <ele>1933.0</ele>
        <time>2015-06-06T14:33:09Z</time>
      </trkpt>
      <trkpt lat="40.132917" lon="-5.484250">
        <ele>1935.0</ele>
        <time>2015-06-06T14:33:11Z</time>
      </trkpt>
      <trkpt lat="40.133067" lon="-5.484150">
        <ele>1937.0</ele>
        <time>2015-06-06T14:33:13Z</time>
      </trkpt>
      <trkpt lat="40.133133" lon="-5.484000">
        <ele>1941.0</ele>
        <time>2015-06-06T14:33:15Z</time>
      </trkpt>
      <trkpt lat="40.133150" lon="-5.483900">
        <ele>1947.0</ele>
        <time>2015-06-06T14:33:17Z</time>
      </trkpt>
      <trkpt lat="40.133083" lon="-5.483817">
        <ele>1950.0</ele>
        <time>2015-06-06T14:33:19Z</time>
      </trkpt>
      <trkpt lat="40.132967" lon="-5.483817">
        <ele>1953.0</ele>
        <time>2015-06-06T14:33:21Z</time>
      </trkpt>
      <trkpt lat="40.132833" lon="-5.483917">
        <ele>1958.0</ele>
        <time>2015-06-06T14:33:23Z</time>
      </trkpt>
      <trkpt lat="40.132717" lon="-5.484117">
        <ele>1963.0</ele>
        <time>2015-06-06T14:33:25Z</time>
      </trkpt>
      <trkpt lat="40.132617" lon="-5.484367">
        <ele>1968.0</ele>
        <time>2015-06-06T14:33:27Z</time>
      </trkpt>
      <trkpt lat="40.132567" lon="-5.484683">
        <ele>1972.0</ele>
        <time>2015-06-06T14:33:29Z</time>
      </trkpt>
      <trkpt lat="40.132600" lon="-5.485050">
        <ele>1976.0</ele>
        <time>2015-06-06T14:33:31Z</time>
      </trkpt>
      <trkpt lat="40.132683" lon="-5.485400">
        <ele>1980.0</ele>
        <time>2015-06-06T14:33:33Z</time>
      </trkpt>
      <trkpt lat="40.132867" lon="-5.485667">
        <ele>1982.0</ele>
        <time>2015-06-06T14:33:35Z</time>
      </trkpt>
      <trkpt lat="40.133100" lon="-5.485850">
        <ele>1984.0</ele>
        <time>2015-06-06T14:33:37Z</time>
      </trkpt>
      <trkpt lat="40.133317" lon="-5.485883">
        <ele>1988.0</ele>
        <time>2015-06-06T14:33:39Z</time>
      </trkpt>
      <trkpt lat="40.133450" lon="-5.485800">
        <ele>1992.0</ele>
        <time>2015-06-06T14:33:41Z</time>
      </trkpt>
      <trkpt lat="40.133500" lon="-5.485683">
        <ele>1994.0</ele>
        <time>2015-06-06T14:33:43Z</time>
      </trkpt>
      <trkpt lat="40.133500" lon="-5.485583">
        <ele>1998.0</ele>
        <time>2015-06-06T14:33:45Z</time>
      </trkpt>
      <trkpt lat="40.133433" lon="-5.485567">
        <ele>2001.0</ele>
        <time>2015-06-06T14:33:47Z</time>
      </trkpt>
      <trkpt lat="40.133300" lon="-5.485600">
        <ele>2005.0</ele>
        <time>2015-06-06T14:33:49Z</time>
      </trkpt>
      <trkpt lat="40.133167" lon="-5.485733">
        <ele>2010.0</ele>
        <time>2015-06-06T14:33:51Z</time>
      </trkpt>
      <trkpt lat="40.133050" lon="-5.485933">
        <ele>2015.0</ele>
        <time>2015-06-06T14:33:53Z</time>
      </trkpt>
      <trkpt lat="40.132983" lon="-5.486217">
        <ele>2019.0</ele>
        <time>2015-06-06T14:33:55Z</time>
      </trkpt>
      <trkpt lat="40.132967" lon="-5.486567">
        <ele>2021.0</ele>
        <time>2015-06-06T14:33:57Z</time>
      </trkpt>
      <trkpt lat="40.133033" lon="-5.486933">
        <ele>2024.0</ele>
        <time>2015-06-06T14:33:59Z</time>
      </trkpt>
      <trkpt lat="40.133200" lon="-5.487250">
        <ele>2029.0</ele>
        <time>2015-06-06T14:34:01Z</time>
      </trkpt>
      <trkpt lat="40.133383" lon="-5.487500">
        <ele>2033.0</ele>
        <time>2015-06-06T14:34:03Z</time>
      </trkpt>
      <trkpt lat="40.133600" lon="-5.487633">
        <ele>2033.0</ele>
        <time>2015-06-06T14:34:05Z</time>
      </trkpt>
      <trkpt lat="40.133800" lon="-5.487617">
        <ele>2034.0</ele>
        <time>2015-06-06T14:34:07Z</time>
      </trkpt>
      <trkpt lat="40.133900" lon="-5.487517">
        <ele>2038.0</ele>
        <time>2015-06-06T14:34:09Z</time>
      </trkpt>
      <trkpt lat="40.133917" lon="-5.487433">
        <ele>2041.0</ele>
        <time>2015-06-06T14:34:11Z</time>
      </trkpt>
      <trkpt lat="40.133850" lon="-5.487383">
        <ele>2043.0</ele>
        <time>2015-06-06T14:34:13Z</time>
      </trkpt>
      <trkpt lat="40.133717" lon="-5.487383">
        <ele>2048.0</ele>
        <time>2015-06-06T14:34:15Z</time>
      </trkpt>
      <trkpt lat="40.133617" lon="-5.487483">
        <ele>2055.0</ele>
        <time>2015-06-06T14:34:17Z</time>
      </trkpt>
      <trkpt lat="40.133517" lon="-5.487667">
        <ele>2058.0</ele>
        <time>2015-06-06T14:34:19Z</time>
      </trkpt>
      <trkpt lat="40.133433" lon="-5.487933">
        <ele>2059.0</ele>
        <time>2015-06-06T14:34:21Z</time>
      </trkpt>
      <trkpt lat="40.133433" lon="-5.488300">
        <ele>2058.0</ele>
        <time>2015-06-06T14:34:23Z</time>
      </trkpt>
      <trkpt lat="40.133517" lon="-5.488683">
        <ele>2061.0</ele>
        <time>2015-06-06T14:34:25Z</time>
      </trkpt>
      <trkpt lat="40.133650" lon="-5.489017">
        <ele>2064.0</ele>
        <time>2015-06-06T14:34:27Z</time>
      </trkpt>
      <trkpt lat="40.133833" lon="-5.489283">
        <ele>2065.0</ele>
        <time>2015-06-06T14:34:29Z</time>
      </trkpt>
      <trkpt lat="40.134050" lon="-5.489483">
        <ele>2066.0</ele>
        <time>2015-06-06T14:34:31Z</time>
      </trkpt>
      <trkpt lat="40.134267" lon="-5.489583">
        <ele>2067.0</ele>
        <time>2015-06-06T14:34:33Z</time>
      </trkpt>
      <trkpt lat="40.134433" lon="-5.489567">
        <ele>2069.0</ele>
        <time>2015-06-06T14:34:35Z</time>
      </trkpt>
      <trkpt lat="40.134517" lon="-5.489483">
        <ele>2069.0</ele>
        <time>2015-06-06T14:34:37Z</time>
      </trkpt>
      <trkpt lat="40.134500" lon="-5.489367">
        <ele>2069.0</ele>
        <time>2015-06-06T14:34:39Z</time>
      </trkpt>
      <trkpt lat="40.134383" lon="-5.489350">
        <ele>2072.0</ele>
        <time>2015-06-06T14:34:41Z</time>
      </trkpt>
      <trkpt lat="40.134283" lon="-5.489450">
        <ele>2077.0</ele>
        <time>2015-06-06T14:34:43Z</time>
      </trkpt>
      <trkpt lat="40.134200" lon="-5.489600">
        <ele>2079.0</ele>
        <time>2015-06-06T14:34:45Z</time>
      </trkpt>
      <trkpt lat="40.134083" lon="-5.489833">
        <ele>2078.0</ele>
        <time>2015-06-06T14:34:47Z</time>
      </trkpt>
      <trkpt lat="40.134017" lon="-5.490183">
        <ele>2080.0</ele>
        <time>2015-06-06T14:34:49Z</time>
      </trkpt>
      <trkpt lat="40.134017" lon="-5.490533">
        <ele>2085.0</ele>
        <time>2015-06-06T14:34:51Z</time>
      </trkpt>
      <trkpt lat="40.134033" lon="-5.490883">
        <ele>2085.0</ele>
        <time>2015-06-06T14:34:53Z</time>
      </trkpt>
      <trkpt lat="40.134133" lon="-5.491300">
        <ele>2084.0</ele>
        <time>2015-06-06T14:34:55Z</time>
      </trkpt>
      <trkpt lat="40.134267" lon="-5.491667">
        <ele>2089.0</ele>
        <time>2015-06-06T14:34:57Z</time>
      </trkpt>
      <trkpt lat="40.134400" lon="-5.492000">
        <ele>2092.0</ele>
        <time>2015-06-06T14:34:59Z</time>
      </trkpt>
      <trkpt lat="40.134583" lon="-5.492300">
        <ele>2091.0</ele>
        <time>2015-06-06T14:35:01Z</time>
      </trkpt>
      <trkpt lat="40.134817" lon="-5.492517">
        <ele>2092.0</ele>
        <time>2015-06-06T14:35:03Z</time>
      </trkpt>
      <trkpt lat="40.135017" lon="-5.492600">
        <ele>2094.0</ele>
        <time>2015-06-06T14:35:05Z</time>
      </trkpt>
      <trkpt lat="40.135217" lon="-5.492600">
        <ele>2094.0</ele>
        <time>2015-06-06T14:35:07Z</time>
      </trkpt>
      <trkpt lat="40.135350" lon="-5.492533">
        <ele>2095.0</ele>
        <time>2015-06-06T14:35:09Z</time>
      </trkpt>
      <trkpt lat="40.135433" lon="-5.492433">
        <ele>2098.0</ele>
        <time>2015-06-06T14:35:11Z</time>
      </trkpt>
      <trkpt lat="40.135450" lon="-5.492333">
        <ele>2100.0</ele>
        <time>2015-06-06T14:35:13Z</time>
      </trkpt>
      <trkpt lat="40.135383" lon="-5.492267">
        <ele>2102.0</ele>
        <time>2015-06-06T14:35:15Z</time>
      </trkpt>
      <trkpt lat="40.135250" lon="-5.492300">
        <ele>2105.0</ele>
        <time>2015-06-06T14:35:17Z</time>
      </trkpt>
      <trkpt lat="40.135133" lon="-5.492433">
        <ele>2107.0</ele>
        <time>2015-06-06T14:35:19Z</time>
      </trkpt>
      <trkpt lat="40.135017" lon="-5.492667">
        <ele>2108.0</ele>
        <time>2015-06-06T14:35:21Z</time>
      </trkpt>
      <trkpt lat="40.134950" lon="-5.492983">
        <ele>2109.0</ele>
        <time>2015-06-06T14:35:23Z</time>
      </trkpt>
      <trkpt lat="40.134950" lon="-5.493317">
        <ele>2110.0</ele>
        <time>2015-06-06T14:35:25Z</time>
      </trkpt>
      <trkpt lat="40.135017" lon="-5.493700">
        <ele>2111.0</ele>
        <time>2015-06-06T14:35:27Z</time>
      </trkpt>
      <trkpt lat="40.135150" lon="-5.494033">
        <ele>2113.0</ele>
        <time>2015-06-06T14:35:29Z</time>
      </trkpt>
      <trkpt lat="40.135350" lon="-5.494250">
        <ele>2115.0</ele>
        <time>2015-06-06T14:35:31Z</time>
      </trkpt>
      <trkpt lat="40.135550" lon="-5.494383">
        <ele>2114.0</ele>
        <time>2015-06-06T14:35:33Z</time>
      </trkpt>
      <trkpt lat="40.135750" lon="-5.494383">
        <ele>2113.0</ele>
        <time>2015-06-06T14:35:35Z</time>
      </trkpt>
      <trkpt lat="40.135900" lon="-5.494283">
        <ele>2113.0</ele>
        <time>2015-06-06T14:35:37Z</time>
      </trkpt>
      <trkpt lat="40.136000" lon="-5.494183">
        <ele>2116.0</ele>
        <time>2015-06-06T14:35:39Z</time>
      </trkpt>
      <trkpt lat="40.136033" lon="-5.494100">
        <ele>2117.0</ele>
        <time>2015-06-06T14:35:41Z</time>
      </trkpt>
      <trkpt lat="40.136000" lon="-5.494000">
        <ele>2117.0</ele>
        <time>2015-06-06T14:35:43Z</time>
      </trkpt>
      <trkpt lat="40.135900" lon="-5.493950">
        <ele>2118.0</ele>
        <time>2015-06-06T14:35:45Z</time>
      </trkpt>
      <trkpt lat="40.135783" lon="-5.493983">
        <ele>2120.0</ele>
        <time>2015-06-06T14:35:47Z</time>
      </trkpt>
      <trkpt lat="40.135650" lon="-5.494083">
        <ele>2120.0</ele>
        <time>2015-06-06T14:35:49Z</time>
      </trkpt>
      <trkpt lat="40.135517" lon="-5.494267">
        <ele>2119.0</ele>
        <time>2015-06-06T14:35:51Z</time>
      </trkpt>
      <trkpt lat="40.135400" lon="-5.494517">
        <ele>2122.0</ele>
        <time>2015-06-06T14:35:53Z</time>
      </trkpt>
      <trkpt lat="40.135333" lon="-5.494783">
        <ele>2123.0</ele>
        <time>2015-06-06T14:35:55Z</time>
      </trkpt>
      <trkpt lat="40.135283" lon="-5.495117">
        <ele>2124.0</ele>
        <time>2015-06-06T14:35:57Z</time>
      </trkpt>
      <trkpt lat="40.135250" lon="-5.495467">
        <ele>2127.0</ele>
        <time>2015-06-06T14:35:59Z</time>
      </trkpt>
      <trkpt lat="40.135233" lon="-5.495767">
        <ele>2131.0</ele>
        <time>2015-06-06T14:36:01Z</time>
      </trkpt>
      <trkpt lat="40.135250" lon="-5.496100">
        <ele>2133.0</ele>
        <time>2015-06-06T14:36:03Z</time>
      </trkpt>
      <trkpt lat="40.135367" lon="-5.496450">
        <ele>2135.0</ele>
        <time>2015-06-06T14:36:05Z</time>
      </trkpt>
      <trkpt lat="40.135517" lon="-5.496750">
        <ele>2138.0</ele>
        <time>2015-06-06T14:36:07Z</time>
      </trkpt>
      <trkpt lat="40.135667" lon="-5.496950">
        <ele>2137.0</ele>
        <time>2015-06-06T14:36:09Z</time>
      </trkpt>
      <trkpt lat="40.135883" lon="-5.497050">
        <ele>2132.0</ele>
        <time>2015-06-06T14:36:11Z</time>
      </trkpt>
      <trkpt lat="40.136100" lon="-5.497017">
        <ele>2131.0</ele>
        <time>2015-06-06T14:36:13Z</time>
      </trkpt>
      <trkpt lat="40.136283" lon="-5.496983">
        <ele>2136.0</ele>
        <time>2015-06-06T14:36:15Z</time>
      </trkpt>
      <trkpt lat="40.136450" lon="-5.496950">
        <ele>2136.0</ele>
        <time>2015-06-06T14:36:17Z</time>
      </trkpt>
      <trkpt lat="40.136583" lon="-5.496817">
        <ele>2136.0</ele>
        <time>2015-06-06T14:36:19Z</time>
      </trkpt>
      <trkpt lat="40.136667" lon="-5.496683">
        <ele>2139.0</ele>
        <time>2015-06-06T14:36:21Z</time>
      </trkpt>
      <trkpt lat="40.136700" lon="-5.496600">
        <ele>2141.0</ele>
        <time>2015-06-06T14:36:23Z</time>
      </trkpt>
      <trkpt lat="40.136667" lon="-5.496483">
        <ele>2140.0</ele>
        <time>2015-06-06T14:36:25Z</time>
      </trkpt>
      <trkpt lat="40.136550" lon="-5.496450">
        <ele>2141.0</ele>
        <time>2015-06-06T14:36:27Z</time>
      </trkpt>
      <trkpt lat="40.136400" lon="-5.496550">
        <ele>2142.0</ele>
        <time>2015-06-06T14:36:29Z</time>
      </trkpt>
      <trkpt lat="40.136283" lon="-5.496667">
        <ele>2143.0</ele>
        <time>2015-06-06T14:36:31Z</time>
      </trkpt>
      <trkpt lat="40.136167" lon="-5.496883">
        <ele>2143.0</ele>
        <time>2015-06-06T14:36:33Z</time>
      </trkpt>
      <trkpt lat="40.136083" lon="-5.497183">
        <ele>2146.0</ele>
        <time>2015-06-06T14:36:35Z</time>
      </trkpt>
      <trkpt lat="40.136033" lon="-5.497450">
        <ele>2149.0</ele>
        <time>2015-06-06T14:36:37Z</time>
      </trkpt>
      <trkpt lat="40.136033" lon="-5.497783">
        <ele>2149.0</ele>
        <time>2015-06-06T14:36:39Z</time>
      </trkpt>
      <trkpt lat="40.136050" lon="-5.498117">
        <ele>2153.0</ele>
        <time>2015-06-06T14:36:41Z</time>
      </trkpt>
      <trkpt lat="40.136133" lon="-5.498383">
        <ele>2156.0</ele>
        <time>2015-06-06T14:36:43Z</time>
      </trkpt>
      <trkpt lat="40.136233" lon="-5.498667">
        <ele>2155.0</ele>
        <time>2015-06-06T14:36:45Z</time>
      </trkpt>
      <trkpt lat="40.136417" lon="-5.498900">
        <ele>2154.0</ele>
        <time>2015-06-06T14:36:47Z</time>
      </trkpt>
      <trkpt lat="40.136667" lon="-5.499000">
        <ele>2154.0</ele>
        <time>2015-06-06T14:36:49Z</time>
      </trkpt>
      <trkpt lat="40.136900" lon="-5.499050">
        <ele>2158.0</ele>
        <time>2015-06-06T14:36:51Z</time>
      </trkpt>
      <trkpt lat="40.137083" lon="-5.499067">
        <ele>2159.0</ele>
        <time>2015-06-06T14:36:53Z</time>
      </trkpt>
      <trkpt lat="40.137267" lon="-5.499000">
        <ele>2158.0</ele>
        <time>2015-06-06T14:36:55Z</time>
      </trkpt>
      <trkpt lat="40.137433" lon="-5.498883">
        <ele>2159.0</ele>
        <time>2015-06-06T14:36:57Z</time>
      </trkpt>
      <trkpt lat="40.137500" lon="-5.498783">
        <ele>2161.0</ele>
        <time>2015-06-06T14:36:59Z</time>
      </trkpt>
      <trkpt lat="40.137517" lon="-5.498683">
        <ele>2160.0</ele>
        <time>2015-06-06T14:37:01Z</time>
      </trkpt>
      <trkpt lat="40.137450" lon="-5.498600">
        <ele>2160.0</ele>
        <time>2015-06-06T14:37:03Z</time>
      </trkpt>
      <trkpt lat="40.137333" lon="-5.498633">
        <ele>2161.0</ele>
        <time>2015-06-06T14:37:05Z</time>
      </trkpt>
      <trkpt lat="40.137217" lon="-5.498733">
        <ele>2163.0</ele>
        <time>2015-06-06T14:37:07Z</time>
      </trkpt>
      <trkpt lat="40.137117" lon="-5.498883">
        <ele>2162.0</ele>
        <time>2015-06-06T14:37:09Z</time>
      </trkpt>
      <trkpt lat="40.137017" lon="-5.499117">
        <ele>2160.0</ele>
        <time>2015-06-06T14:37:11Z</time>
      </trkpt>
      <trkpt lat="40.136983" lon="-5.499400">
        <ele>2162.0</ele>
        <time>2015-06-06T14:37:13Z</time>
      </trkpt>
      <trkpt lat="40.136983" lon="-5.499717">
        <ele>2162.0</ele>
        <time>2015-06-06T14:37:15Z</time>
      </trkpt>
      <trkpt lat="40.136983" lon="-5.500050">
        <ele>2161.0</ele>
        <time>2015-06-06T14:37:17Z</time>
      </trkpt>
      <trkpt lat="40.137033" lon="-5.500400">
        <ele>2163.0</ele>
        <time>2015-06-06T14:37:19Z</time>
      </trkpt>
      <trkpt lat="40.137083" lon="-5.500717">
        <ele>2165.0</ele>
        <time>2015-06-06T14:37:21Z</time>
      </trkpt>
      <trkpt lat="40.137167" lon="-5.501033">
        <ele>2165.0</ele>
        <time>2015-06-06T14:37:23Z</time>
      </trkpt>
      <trkpt lat="40.137283" lon="-5.501367">
        <ele>2165.0</ele>
        <time>2015-06-06T14:37:25Z</time>
      </trkpt>
      <trkpt lat="40.137450" lon="-5.501650">
        <ele>2168.0</ele>
        <time>2015-06-06T14:37:27Z</time>
      </trkpt>
      <trkpt lat="40.137617" lon="-5.501867">
        <ele>2169.0</ele>
        <time>2015-06-06T14:37:29Z</time>
      </trkpt>
      <trkpt lat="40.137800" lon="-5.502100">
        <ele>2167.0</ele>
        <time>2015-06-06T14:37:31Z</time>
      </trkpt>
      <trkpt lat="40.138000" lon="-5.502267">
        <ele>2166.0</ele>
        <time>2015-06-06T14:37:33Z</time>
      </trkpt>
      <trkpt lat="40.138200" lon="-5.502283">
        <ele>2164.0</ele>
        <time>2015-06-06T14:37:35Z</time>
      </trkpt>
      <trkpt lat="40.138367" lon="-5.502267">
        <ele>2160.0</ele>
        <time>2015-06-06T14:37:37Z</time>
      </trkpt>
      <trkpt lat="40.138500" lon="-5.502183">
        <ele>2156.0</ele>
        <time>2015-06-06T14:37:39Z</time>
      </trkpt>
      <trkpt lat="40.138567" lon="-5.502033">
        <ele>2154.0</ele>
        <time>2015-06-06T14:37:41Z</time>
      </trkpt>
      <trkpt lat="40.138617" lon="-5.501950">
        <ele>2156.0</ele>
        <time>2015-06-06T14:37:43Z</time>
      </trkpt>
      <trkpt lat="40.138600" lon="-5.501883">
        <ele>2155.0</ele>
        <time>2015-06-06T14:37:45Z</time>
      </trkpt>
      <trkpt lat="40.138533" lon="-5.501833">
        <ele>2153.0</ele>
        <time>2015-06-06T14:37:47Z</time>
      </trkpt>
      <trkpt lat="40.138417" lon="-5.501833">
        <ele>2154.0</ele>
        <time>2015-06-06T14:37:49Z</time>
      </trkpt>
      <trkpt lat="40.138317" lon="-5.501917">
        <ele>2154.0</ele>
        <time>2015-06-06T14:37:51Z</time>
      </trkpt>
      <trkpt lat="40.138200" lon="-5.502050">
        <ele>2153.0</ele>
        <time>2015-06-06T14:37:53Z</time>
      </trkpt>
      <trkpt lat="40.138100" lon="-5.502267">
        <ele>2153.0</ele>
        <time>2015-06-06T14:37:55Z</time>
      </trkpt>
      <trkpt lat="40.138033" lon="-5.502500">
        <ele>2155.0</ele>
        <time>2015-06-06T14:37:57Z</time>
      </trkpt>
      <trkpt lat="40.137950" lon="-5.502733">
        <ele>2155.0</ele>
        <time>2015-06-06T14:37:59Z</time>
      </trkpt>
      <trkpt lat="40.137867" lon="-5.503017">
        <ele>2154.0</ele>
        <time>2015-06-06T14:38:01Z</time>
      </trkpt>
      <trkpt lat="40.137817" lon="-5.503317">
        <ele>2154.0</ele>
        <time>2015-06-06T14:38:03Z</time>
      </trkpt>
      <trkpt lat="40.137783" lon="-5.503600">
        <ele>2153.0</ele>
        <time>2015-06-06T14:38:05Z</time>
      </trkpt>
      <trkpt lat="40.137733" lon="-5.503900">
        <ele>2151.0</ele>
        <time>2015-06-06T14:38:07Z</time>
      </trkpt>
      <trkpt lat="40.137667" lon="-5.504200">
        <ele>2149.0</ele>
        <time>2015-06-06T14:38:09Z</time>
      </trkpt>
      <trkpt lat="40.137583" lon="-5.504500">
        <ele>2148.0</ele>
        <time>2015-06-06T14:38:11Z</time>
      </trkpt>
      <trkpt lat="40.137517" lon="-5.504783">
        <ele>2146.0</ele>
        <time>2015-06-06T14:38:13Z</time>
      </trkpt>
      <trkpt lat="40.137450" lon="-5.505100">
        <ele>2145.0</ele>
        <time>2015-06-06T14:38:15Z</time>
      </trkpt>
      <trkpt lat="40.137417" lon="-5.505417">
        <ele>2145.0</ele>
        <time>2015-06-06T14:38:17Z</time>
      </trkpt>
      <trkpt lat="40.137350" lon="-5.505717">
        <ele>2143.0</ele>
        <time>2015-06-06T14:38:19Z</time>
      </trkpt>
      <trkpt lat="40.137267" lon="-5.506017">
        <ele>2140.0</ele>
        <time>2015-06-06T14:38:21Z</time>
      </trkpt>
      <trkpt lat="40.137183" lon="-5.506300">
        <ele>2138.0</ele>
        <time>2015-06-06T14:38:23Z</time>
      </trkpt>
      <trkpt lat="40.137133" lon="-5.506617">
        <ele>2135.0</ele>
        <time>2015-06-06T14:38:25Z</time>
      </trkpt>
      <trkpt lat="40.137117" lon="-5.506967">
        <ele>2132.0</ele>
        <time>2015-06-06T14:38:27Z</time>
      </trkpt>
      <trkpt lat="40.137100" lon="-5.507333">
        <ele>2130.0</ele>
        <time>2015-06-06T14:38:29Z</time>
      </trkpt>
      <trkpt lat="40.137083" lon="-5.507700">
        <ele>2129.0</ele>
        <time>2015-06-06T14:38:31Z</time>
      </trkpt>
      <trkpt lat="40.137033" lon="-5.508050">
        <ele>2128.0</ele>
        <time>2015-06-06T14:38:33Z</time>
      </trkpt>
      <trkpt lat="40.136967" lon="-5.508400">
        <ele>2127.0</ele>
        <time>2015-06-06T14:38:35Z</time>
      </trkpt>
      <trkpt lat="40.136867" lon="-5.508733">
        <ele>2127.0</ele>
        <time>2015-06-06T14:38:37Z</time>
      </trkpt>
      <trkpt lat="40.136733" lon="-5.509033">
        <ele>2129.0</ele>
        <time>2015-06-06T14:38:39Z</time>
      </trkpt>
      <trkpt lat="40.136600" lon="-5.509283">
        <ele>2132.0</ele>
        <time>2015-06-06T14:38:41Z</time>
      </trkpt>
      <trkpt lat="40.136467" lon="-5.509600">
        <ele>2136.0</ele>
        <time>2015-06-06T14:38:43Z</time>
      </trkpt>
      <trkpt lat="40.136417" lon="-5.509983">
        <ele>2139.0</ele>
        <time>2015-06-06T14:38:45Z</time>
      </trkpt>
      <trkpt lat="40.136467" lon="-5.510383">
        <ele>2141.0</ele>
        <time>2015-06-06T14:38:47Z</time>
      </trkpt>
      <trkpt lat="40.136633" lon="-5.510667">
        <ele>2146.0</ele>
        <time>2015-06-06T14:38:49Z</time>
      </trkpt>
      <trkpt lat="40.136800" lon="-5.510867">
        <ele>2150.0</ele>
        <time>2015-06-06T14:38:51Z</time>
      </trkpt>
      <trkpt lat="40.136983" lon="-5.510950">
        <ele>2150.0</ele>
        <time>2015-06-06T14:38:53Z</time>
      </trkpt>
      <trkpt lat="40.137117" lon="-5.510883">
        <ele>2152.0</ele>
        <time>2015-06-06T14:38:55Z</time>
      </trkpt>
      <trkpt lat="40.137150" lon="-5.510833">
        <ele>2153.0</ele>
        <time>2015-06-06T14:38:57Z</time>
      </trkpt>
      <trkpt lat="40.137117" lon="-5.510750">
        <ele>2151.0</ele>
        <time>2015-06-06T14:38:59Z</time>
      </trkpt>
      <trkpt lat="40.137017" lon="-5.510700">
        <ele>2149.0</ele>
        <time>2015-06-06T14:39:01Z</time>
      </trkpt>
      <trkpt lat="40.136883" lon="-5.510700">
        <ele>2154.0</ele>
        <time>2015-06-06T14:39:03Z</time>
      </trkpt>
      <trkpt lat="40.136783" lon="-5.510733">
        <ele>2157.0</ele>
        <time>2015-06-06T14:39:05Z</time>
      </trkpt>
      <trkpt lat="40.136633" lon="-5.510833">
        <ele>2157.0</ele>
        <time>2015-06-06T14:39:07Z</time>
      </trkpt>
      <trkpt lat="40.136450" lon="-5.511033">
        <ele>2158.0</ele>
        <time>2015-06-06T14:39:09Z</time>
      </trkpt>
      <trkpt lat="40.136317" lon="-5.511300">
        <ele>2167.0</ele>
        <time>2015-06-06T14:39:11Z</time>
      </trkpt>
      <trkpt lat="40.136217" lon="-5.511567">
        <ele>2173.0</ele>
        <time>2015-06-06T14:39:13Z</time>
      </trkpt>
      <trkpt lat="40.136167" lon="-5.511933">
        <ele>2176.0</ele>
        <time>2015-06-06T14:39:15Z</time>
      </trkpt>
      <trkpt lat="40.136217" lon="-5.512317">
        <ele>2182.0</ele>
        <time>2015-06-06T14:39:17Z</time>
      </trkpt>
      <trkpt lat="40.136333" lon="-5.512617">
        <ele>2189.0</ele>
        <time>2015-06-06T14:39:19Z</time>
      </trkpt>
      <trkpt lat="40.136500" lon="-5.512800">
        <ele>2192.0</ele>
        <time>2015-06-06T14:39:21Z</time>
      </trkpt>
      <trkpt lat="40.136667" lon="-5.512883">
        <ele>2192.0</ele>
        <time>2015-06-06T14:39:23Z</time>
      </trkpt>
      <trkpt lat="40.136783" lon="-5.512833">
        <ele>2193.0</ele>
        <time>2015-06-06T14:39:25Z</time>
      </trkpt>
      <trkpt lat="40.136817" lon="-5.512733">
        <ele>2195.0</ele>
        <time>2015-06-06T14:39:27Z</time>
      </trkpt>
      <trkpt lat="40.136783" lon="-5.512667">
        <ele>2197.0</ele>
        <time>2015-06-06T14:39:29Z</time>
      </trkpt>
      <trkpt lat="40.136650" lon="-5.512633">
        <ele>2199.0</ele>
        <time>2015-06-06T14:39:31Z</time>
      </trkpt>
      <trkpt lat="40.136483" lon="-5.512733">
        <ele>2205.0</ele>
        <time>2015-06-06T14:39:33Z</time>
      </trkpt>
      <trkpt lat="40.136333" lon="-5.512883">
        <ele>2210.0</ele>
        <time>2015-06-06T14:39:35Z</time>
      </trkpt>
      <trkpt lat="40.136167" lon="-5.513100">
        <ele>2212.0</ele>
        <time>2015-06-06T14:39:37Z</time>
      </trkpt>
      <trkpt lat="40.136050" lon="-5.513483">
        <ele>2215.0</ele>
        <time>2015-06-06T14:39:39Z</time>
      </trkpt>
      <trkpt lat="40.135983" lon="-5.513867">
        <ele>2224.0</ele>
        <time>2015-06-06T14:39:41Z</time>
      </trkpt>
      <trkpt lat="40.135983" lon="-5.514233">
        <ele>2230.0</ele>
        <time>2015-06-06T14:39:43Z</time>
      </trkpt>
      <trkpt lat="40.136033" lon="-5.514617">
        <ele>2234.0</ele>
        <time>2015-06-06T14:39:45Z</time>
      </trkpt>
      <trkpt lat="40.136150" lon="-5.514950">
        <ele>2242.0</ele>
        <time>2015-06-06T14:39:47Z</time>
      </trkpt>
      <trkpt lat="40.136283" lon="-5.515150">
        <ele>2247.0</ele>
        <time>2015-06-06T14:39:49Z</time>
      </trkpt>
      <trkpt lat="40.136450" lon="-5.515283">
        <ele>2247.0</ele>
        <time>2015-06-06T14:39:51Z</time>
      </trkpt>
      <trkpt lat="40.136633" lon="-5.515367">
        <ele>2249.0</ele>
        <time>2015-06-06T14:39:53Z</time>
      </trkpt>
      <trkpt lat="40.136733" lon="-5.515317">
        <ele>2251.0</ele>
        <time>2015-06-06T14:39:55Z</time>
      </trkpt>
      <trkpt lat="40.136733" lon="-5.515250">
        <ele>2253.0</ele>
        <time>2015-06-06T14:39:57Z</time>
      </trkpt>
      <trkpt lat="40.136667" lon="-5.515183">
        <ele>2256.0</ele>
        <time>2015-06-06T14:39:59Z</time>
      </trkpt>
      <trkpt lat="40.136517" lon="-5.515183">
        <ele>2260.0</ele>
        <time>2015-06-06T14:40:01Z</time>
      </trkpt>
      <trkpt lat="40.136333" lon="-5.515300">
        <ele>2264.0</ele>
        <time>2015-06-06T14:40:03Z</time>
      </trkpt>
      <trkpt lat="40.136183" lon="-5.515550">
        <ele>2269.0</ele>
        <time>2015-06-06T14:40:05Z</time>
      </trkpt>
      <trkpt lat="40.136067" lon="-5.515883">
        <ele>2274.0</ele>
        <time>2015-06-06T14:40:07Z</time>
      </trkpt>
      <trkpt lat="40.136017" lon="-5.516283">
        <ele>2279.0</ele>
        <time>2015-06-06T14:40:09Z</time>
      </trkpt>
      <trkpt lat="40.136050" lon="-5.516667">
        <ele>2283.0</ele>
        <time>2015-06-06T14:40:11Z</time>
      </trkpt>
      <trkpt lat="40.136167" lon="-5.517000">
        <ele>2287.0</ele>
        <time>2015-06-06T14:40:13Z</time>
      </trkpt>
      <trkpt lat="40.136317" lon="-5.517250">
        <ele>2291.0</ele>
        <time>2015-06-06T14:40:15Z</time>
      </trkpt>
      <trkpt lat="40.136500" lon="-5.517400">
        <ele>2293.0</ele>
        <time>2015-06-06T14:40:17Z</time>
      </trkpt>
      <trkpt lat="40.136633" lon="-5.517433">
        <ele>2295.0</ele>
        <time>2015-06-06T14:40:19Z</time>
      </trkpt>
      <trkpt lat="40.136683" lon="-5.517383">
        <ele>2299.0</ele>
        <time>2015-06-06T14:40:21Z</time>
      </trkpt>
      <trkpt lat="40.136650" lon="-5.517317">
        <ele>2302.0</ele>
        <time>2015-06-06T14:40:23Z</time>
      </trkpt>
      <trkpt lat="40.136533" lon="-5.517317">
        <ele>2305.0</ele>
        <time>2015-06-06T14:40:25Z</time>
      </trkpt>
      <trkpt lat="40.136367" lon="-5.517400">
        <ele>2312.0</ele>
        <time>2015-06-06T14:40:27Z</time>
      </trkpt>
      <trkpt lat="40.136217" lon="-5.517550">
        <ele>2320.0</ele>
        <time>2015-06-06T14:40:29Z</time>
      </trkpt>
      <trkpt lat="40.136083" lon="-5.517750">
        <ele>2323.0</ele>
        <time>2015-06-06T14:40:31Z</time>
      </trkpt>
      <trkpt lat="40.135917" lon="-5.518050">
        <ele>2324.0</ele>
        <time>2015-06-06T14:40:33Z</time>
      </trkpt>
      <trkpt lat="40.135850" lon="-5.518417">
        <ele>2327.0</ele>
        <time>2015-06-06T14:40:35Z</time>
      </trkpt>
      <trkpt lat="40.135867" lon="-5.518750">
        <ele>2328.0</ele>
        <time>2015-06-06T14:40:37Z</time>
      </trkpt>
      <trkpt lat="40.135933" lon="-5.519100">
        <ele>2329.0</ele>
        <time>2015-06-06T14:40:39Z</time>
      </trkpt>
      <trkpt lat="40.136067" lon="-5.519367">
        <ele>2330.0</ele>
        <time>2015-06-06T14:40:41Z</time>
      </trkpt>
      <trkpt lat="40.136250" lon="-5.519500">
        <ele>2332.0</ele>
        <time>2015-06-06T14:40:43Z</time>
      </trkpt>
      <trkpt lat="40.136367" lon="-5.519500">
        <ele>2334.0</ele>
        <time>2015-06-06T14:40:45Z</time>
      </trkpt>
      <trkpt lat="40.136433" lon="-5.519467">
        <ele>2337.0</ele>
        <time>2015-06-06T14:40:47Z</time>
      </trkpt>
      <trkpt lat="40.136433" lon="-5.519417">
        <ele>2341.0</ele>
        <time>2015-06-06T14:40:49Z</time>
      </trkpt>
      <trkpt lat="40.136383" lon="-5.519350">
        <ele>2345.0</ele>
        <time>2015-06-06T14:40:51Z</time>
      </trkpt>
      <trkpt lat="40.136267" lon="-5.519300">
        <ele>2348.0</ele>
        <time>2015-06-06T14:40:53Z</time>
      </trkpt>
      <trkpt lat="40.136100" lon="-5.519367">
        <ele>2352.0</ele>
        <time>2015-06-06T14:40:55Z</time>
      </trkpt>
      <trkpt lat="40.135950" lon="-5.519533">
        <ele>2356.0</ele>
        <time>2015-06-06T14:40:57Z</time>
      </trkpt>
      <trkpt lat="40.135817" lon="-5.519783">
        <ele>2360.0</ele>
        <time>2015-06-06T14:40:59Z</time>
      </trkpt>
      <trkpt lat="40.135750" lon="-5.520117">
        <ele>2361.0</ele>
        <time>2015-06-06T14:41:01Z</time>
      </trkpt>
      <trkpt lat="40.135767" lon="-5.520483">
        <ele>2362.0</ele>
        <time>2015-06-06T14:41:03Z</time>
      </trkpt>
      <trkpt lat="40.135833" lon="-5.520800">
        <ele>2364.0</ele>
        <time>2015-06-06T14:41:05Z</time>
      </trkpt>
      <trkpt lat="40.135950" lon="-5.521067">
        <ele>2365.0</ele>
        <time>2015-06-06T14:41:07Z</time>
      </trkpt>
      <trkpt lat="40.136100" lon="-5.521233">
        <ele>2366.0</ele>
        <time>2015-06-06T14:41:09Z</time>
      </trkpt>
      <trkpt lat="40.136267" lon="-5.521300">
        <ele>2367.0</ele>
        <time>2015-06-06T14:41:11Z</time>
      </trkpt>
      <trkpt lat="40.136400" lon="-5.521300">
        <ele>2369.0</ele>
        <time>2015-06-06T14:41:13Z</time>
      </trkpt>
      <trkpt lat="40.136467" lon="-5.521250">
        <ele>2372.0</ele>
        <time>2015-06-06T14:41:15Z</time>
      </trkpt>
      <trkpt lat="40.136467" lon="-5.521167">
        <ele>2376.0</ele>
        <time>2015-06-06T14:41:17Z</time>
      </trkpt>
      <trkpt lat="40.136367" lon="-5.521117">
        <ele>2380.0</ele>
        <time>2015-06-06T14:41:19Z</time>
      </trkpt>
      <trkpt lat="40.136250" lon="-5.521117">
        <ele>2384.0</ele>
        <time>2015-06-06T14:41:21Z</time>
      </trkpt>
      <trkpt lat="40.136067" lon="-5.521217">
        <ele>2387.0</ele>
        <time>2015-06-06T14:41:23Z</time>
      </trkpt>
      <trkpt lat="40.135883" lon="-5.521450">
        <ele>2390.0</ele>
        <time>2015-06-06T14:41:25Z</time>
      </trkpt>
      <trkpt lat="40.135767" lon="-5.521767">
        <ele>2394.0</ele>
        <time>2015-06-06T14:41:27Z</time>
      </trkpt>
      <trkpt lat="40.135717" lon="-5.522067">
        <ele>2396.0</ele>
        <time>2015-06-06T14:41:29Z</time>
      </trkpt>
      <trkpt lat="40.135717" lon="-5.522383">
        <ele>2394.0</ele>
        <time>2015-06-06T14:41:31Z</time>
      </trkpt>
      <trkpt lat="40.135767" lon="-5.522733">
        <ele>2393.0</ele>
        <time>2015-06-06T14:41:33Z</time>
      </trkpt>
      <trkpt lat="40.135900" lon="-5.523000">
        <ele>2395.0</ele>
        <time>2015-06-06T14:41:35Z</time>
      </trkpt>
      <trkpt lat="40.136050" lon="-5.523167">
        <ele>2397.0</ele>
        <time>2015-06-06T14:41:37Z</time>
      </trkpt>
      <trkpt lat="40.136200" lon="-5.523250">
        <ele>2397.0</ele>
        <time>2015-06-06T14:41:39Z</time>
      </trkpt>
      <trkpt lat="40.136350" lon="-5.523233">
        <ele>2398.0</ele>
        <time>2015-06-06T14:41:41Z</time>
      </trkpt>
      <trkpt lat="40.136400" lon="-5.523167">
        <ele>2400.0</ele>
        <time>2015-06-06T14:41:43Z</time>
      </trkpt>
      <trkpt lat="40.136383" lon="-5.523083">
        <ele>2402.0</ele>
        <time>2015-06-06T14:41:45Z</time>
      </trkpt>
      <trkpt lat="40.136283" lon="-5.523017">
        <ele>2403.0</ele>
        <time>2015-06-06T14:41:47Z</time>
      </trkpt>
      <trkpt lat="40.136100" lon="-5.523017">
        <ele>2404.0</ele>
        <time>2015-06-06T14:41:49Z</time>
      </trkpt>
      <trkpt lat="40.135917" lon="-5.523100">
        <ele>2408.0</ele>
        <time>2015-06-06T14:41:51Z</time>
      </trkpt>
      <trkpt lat="40.135750" lon="-5.523217">
        <ele>2411.0</ele>
        <time>2015-06-06T14:41:53Z</time>
      </trkpt>
      <trkpt lat="40.135583" lon="-5.523417">
        <ele>2411.0</ele>
        <time>2015-06-06T14:41:55Z</time>
      </trkpt>
      <trkpt lat="40.135433" lon="-5.523683">
        <ele>2410.0</ele>
        <time>2015-06-06T14:41:57Z</time>
      </trkpt>
      <trkpt lat="40.135350" lon="-5.524017">
        <ele>2409.0</ele>
        <time>2015-06-06T14:41:59Z</time>
      </trkpt>
      <trkpt lat="40.135350" lon="-5.524383">
        <ele>2411.0</ele>
        <time>2015-06-06T14:42:01Z</time>
      </trkpt>
      <trkpt lat="40.135417" lon="-5.524683">
        <ele>2414.0</ele>
        <time>2015-06-06T14:42:03Z</time>
      </trkpt>
      <trkpt lat="40.135500" lon="-5.524950">
        <ele>2417.0</ele>
        <time>2015-06-06T14:42:05Z</time>
      </trkpt>
      <trkpt lat="40.135633" lon="-5.525217">
        <ele>2419.0</ele>
        <time>2015-06-06T14:42:07Z</time>
      </trkpt>
      <trkpt lat="40.135783" lon="-5.525400">
        <ele>2422.0</ele>
        <time>2015-06-06T14:42:09Z</time>
      </trkpt>
      <trkpt lat="40.135950" lon="-5.525483">
        <ele>2425.0</ele>
        <time>2015-06-06T14:42:11Z</time>
      </trkpt>
      <trkpt lat="40.136083" lon="-5.525467">
        <ele>2424.0</ele>
        <time>2015-06-06T14:42:13Z</time>
      </trkpt>
      <trkpt lat="40.136200" lon="-5.525367">
        <ele>2424.0</ele>
        <time>2015-06-06T14:42:15Z</time>
      </trkpt>
      <trkpt lat="40.136200" lon="-5.525233">
        <ele>2426.0</ele>
        <time>2015-06-06T14:42:17Z</time>
      </trkpt>
      <trkpt lat="40.136150" lon="-5.525150">
        <ele>2429.0</ele>
        <time>2015-06-06T14:42:19Z</time>
      </trkpt>
      <trkpt lat="40.136067" lon="-5.525083">
        <ele>2430.0</ele>
        <time>2015-06-06T14:42:21Z</time>
      </trkpt>
      <trkpt lat="40.135933" lon="-5.525050">
        <ele>2432.0</ele>
        <time>2015-06-06T14:42:23Z</time>
      </trkpt>
      <trkpt lat="40.135767" lon="-5.525133">
        <ele>2436.0</ele>
        <time>2015-06-06T14:42:25Z</time>
      </trkpt>
      <trkpt lat="40.135617" lon="-5.525267">
        <ele>2436.0</ele>
        <time>2015-06-06T14:42:27Z</time>
      </trkpt>
      <trkpt lat="40.135450" lon="-5.525467">
        <ele>2435.0</ele>
        <time>2015-06-06T14:42:29Z</time>
      </trkpt>
      <trkpt lat="40.135300" lon="-5.525750">
        <ele>2435.0</ele>
        <time>2015-06-06T14:42:31Z</time>
      </trkpt>
      <trkpt lat="40.135233" lon="-5.526067">
        <ele>2437.0</ele>
        <time>2015-06-06T14:42:33Z</time>
      </trkpt>
      <trkpt lat="40.135183" lon="-5.526400">
        <ele>2437.0</ele>
        <time>2015-06-06T14:42:35Z</time>
      </trkpt>
      <trkpt lat="40.135183" lon="-5.526733">
        <ele>2439.0</ele>
        <time>2015-06-06T14:42:37Z</time>
      </trkpt>
      <trkpt lat="40.135233" lon="-5.527050">
        <ele>2440.0</ele>
        <time>2015-06-06T14:42:39Z</time>
      </trkpt>
      <trkpt lat="40.135333" lon="-5.527317">
        <ele>2439.0</ele>
        <time>2015-06-06T14:42:41Z</time>
      </trkpt>
      <trkpt lat="40.135517" lon="-5.527550">
        <ele>2438.0</ele>
        <time>2015-06-06T14:42:43Z</time>
      </trkpt>
      <trkpt lat="40.135733" lon="-5.527683">
        <ele>2436.0</ele>
        <time>2015-06-06T14:42:45Z</time>
      </trkpt>
      <trkpt lat="40.135967" lon="-5.527717">
        <ele>2437.0</ele>
        <time>2015-06-06T14:42:47Z</time>
      </trkpt>
      <trkpt lat="40.136117" lon="-5.527717">
        <ele>2441.0</ele>
        <time>2015-06-06T14:42:49Z</time>
      </trkpt>
      <trkpt lat="40.136233" lon="-5.527700">
        <ele>2441.0</ele>
        <time>2015-06-06T14:42:51Z</time>
      </trkpt>
      <trkpt lat="40.136333" lon="-5.527617">
        <ele>2439.0</ele>
        <time>2015-06-06T14:42:53Z</time>
      </trkpt>
      <trkpt lat="40.136367" lon="-5.527467">
        <ele>2440.0</ele>
        <time>2015-06-06T14:42:55Z</time>
      </trkpt>
      <trkpt lat="40.136350" lon="-5.527350">
        <ele>2442.0</ele>
        <time>2015-06-06T14:42:57Z</time>
      </trkpt>
      <trkpt lat="40.136250" lon="-5.527217">
        <ele>2443.0</ele>
        <time>2015-06-06T14:42:59Z</time>
      </trkpt>
      <trkpt lat="40.136100" lon="-5.527167">
        <ele>2446.0</ele>
        <time>2015-06-06T14:43:01Z</time>
      </trkpt>
      <trkpt lat="40.135950" lon="-5.527233">
        <ele>2450.0</ele>
        <time>2015-06-06T14:43:03Z</time>
      </trkpt>
      <trkpt lat="40.135800" lon="-5.527383">
        <ele>2452.0</ele>
        <time>2015-06-06T14:43:05Z</time>
      </trkpt>
      <trkpt lat="40.135633" lon="-5.527600">
        <ele>2452.0</ele>
        <time>2015-06-06T14:43:07Z</time>
      </trkpt>
      <trkpt lat="40.135533" lon="-5.527883">
        <ele>2453.0</ele>
        <time>2015-06-06T14:43:09Z</time>
      </trkpt>
      <trkpt lat="40.135467" lon="-5.528200">
        <ele>2455.0</ele>
        <time>2015-06-06T14:43:11Z</time>
      </trkpt>
      <trkpt lat="40.135450" lon="-5.528533">
        <ele>2456.0</ele>
        <time>2015-06-06T14:43:13Z</time>
      </trkpt>
      <trkpt lat="40.135500" lon="-5.528850">
        <ele>2459.0</ele>
        <time>2015-06-06T14:43:15Z</time>
      </trkpt>
      <trkpt lat="40.135600" lon="-5.529100">
        <ele>2458.0</ele>
        <time>2015-06-06T14:43:17Z</time>
      </trkpt>
      <trkpt lat="40.135750" lon="-5.529350">
        <ele>2456.0</ele>
        <time>2015-06-06T14:43:19Z</time>
      </trkpt>
      <trkpt lat="40.135967" lon="-5.529483">
        <ele>2455.0</ele>
        <time>2015-06-06T14:43:21Z</time>
      </trkpt>
      <trkpt lat="40.136167" lon="-5.529483">
        <ele>2455.0</ele>
        <time>2015-06-06T14:43:23Z</time>
      </trkpt>
      <trkpt lat="40.136317" lon="-5.529417">
        <ele>2455.0</ele>
        <time>2015-06-06T14:43:25Z</time>
      </trkpt>
      <trkpt lat="40.136417" lon="-5.529317">
        <ele>2454.0</ele>
        <time>2015-06-06T14:43:27Z</time>
      </trkpt>
      <trkpt lat="40.136483" lon="-5.529183">
        <ele>2454.0</ele>
        <time>2015-06-06T14:43:29Z</time>
      </trkpt>
      <trkpt lat="40.136483" lon="-5.529050">
        <ele>2456.0</ele>
        <time>2015-06-06T14:43:31Z</time>
      </trkpt>
      <trkpt lat="40.136450" lon="-5.528917">
        <ele>2457.0</ele>
        <time>2015-06-06T14:43:33Z</time>
      </trkpt>
      <trkpt lat="40.136383" lon="-5.528800">
        <ele>2459.0</ele>
        <time>2015-06-06T14:43:35Z</time>
      </trkpt>
      <trkpt lat="40.136267" lon="-5.528750">
        <ele>2460.0</ele>
        <time>2015-06-06T14:43:37Z</time>
      </trkpt>
      <trkpt lat="40.136117" lon="-5.528750">
        <ele>2462.0</ele>
        <time>2015-06-06T14:43:39Z</time>
      </trkpt>
      <trkpt lat="40.135967" lon="-5.528850">
        <ele>2464.0</ele>
        <time>2015-06-06T14:43:41Z</time>
      </trkpt>
      <trkpt lat="40.135833" lon="-5.529050">
        <ele>2465.0</ele>
        <time>2015-06-06T14:43:43Z</time>
      </trkpt>
      <trkpt lat="40.135683" lon="-5.529317">
        <ele>2466.0</ele>
        <time>2015-06-06T14:43:45Z</time>
      </trkpt>
      <trkpt lat="40.135583" lon="-5.529617">
        <ele>2467.0</ele>
        <time>2015-06-06T14:43:47Z</time>
      </trkpt>
      <trkpt lat="40.135517" lon="-5.529933">
        <ele>2470.0</ele>
        <time>2015-06-06T14:43:49Z</time>
      </trkpt>
      <trkpt lat="40.135517" lon="-5.530267">
        <ele>2470.0</ele>
        <time>2015-06-06T14:43:51Z</time>
      </trkpt>
      <trkpt lat="40.135600" lon="-5.530617">
        <ele>2470.0</ele>
        <time>2015-06-06T14:43:53Z</time>
      </trkpt>
      <trkpt lat="40.135717" lon="-5.530917">
        <ele>2473.0</ele>
        <time>2015-06-06T14:43:55Z</time>
      </trkpt>
      <trkpt lat="40.135900" lon="-5.531117">
        <ele>2474.0</ele>
        <time>2015-06-06T14:43:57Z</time>
      </trkpt>
      <trkpt lat="40.136083" lon="-5.531233">
        <ele>2474.0</ele>
        <time>2015-06-06T14:43:59Z</time>
      </trkpt>
      <trkpt lat="40.136267" lon="-5.531217">
        <ele>2474.0</ele>
        <time>2015-06-06T14:44:01Z</time>
      </trkpt>
      <trkpt lat="40.136367" lon="-5.531100">
        <ele>2474.0</ele>
        <time>2015-06-06T14:44:03Z</time>
      </trkpt>
      <trkpt lat="40.136400" lon="-5.530967">
        <ele>2476.0</ele>
        <time>2015-06-06T14:44:05Z</time>
      </trkpt>
      <trkpt lat="40.136333" lon="-5.530867">
        <ele>2477.0</ele>
        <time>2015-06-06T14:44:07Z</time>
      </trkpt>
      <trkpt lat="40.136200" lon="-5.530800">
        <ele>2478.0</ele>
        <time>2015-06-06T14:44:09Z</time>
      </trkpt>
      <trkpt lat="40.136033" lon="-5.530833">
        <ele>2479.0</ele>
        <time>2015-06-06T14:44:11Z</time>
      </trkpt>
      <trkpt lat="40.135867" lon="-5.530983">
        <ele>2481.0</ele>
        <time>2015-06-06T14:44:13Z</time>
      </trkpt>
      <trkpt lat="40.135717" lon="-5.531200">
        <ele>2484.0</ele>
        <time>2015-06-06T14:44:15Z</time>
      </trkpt>
      <trkpt lat="40.135600" lon="-5.531483">
        <ele>2486.0</ele>
        <time>2015-06-06T14:44:17Z</time>
      </trkpt>
      <trkpt lat="40.135500" lon="-5.531800">
        <ele>2489.0</ele>
        <time>2015-06-06T14:44:19Z</time>
      </trkpt>
      <trkpt lat="40.135467" lon="-5.532150">
        <ele>2493.0</ele>
        <time>2015-06-06T14:44:21Z</time>
      </trkpt>
      <trkpt lat="40.135550" lon="-5.532500">
        <ele>2494.0</ele>
        <time>2015-06-06T14:44:23Z</time>
      </trkpt>
      <trkpt lat="40.135700" lon="-5.532800">
        <ele>2497.0</ele>
        <time>2015-06-06T14:44:25Z</time>
      </trkpt>
      <trkpt lat="40.135900" lon="-5.532967">
        <ele>2501.0</ele>
        <time>2015-06-06T14:44:27Z</time>
      </trkpt>
      <trkpt lat="40.136067" lon="-5.533033">
        <ele>2505.0</ele>
        <time>2015-06-06T14:44:29Z</time>
      </trkpt>
      <trkpt lat="40.136183" lon="-5.532983">
        <ele>2505.0</ele>
        <time>2015-06-06T14:44:31Z</time>
      </trkpt>
      <trkpt lat="40.136283" lon="-5.532867">
        <ele>2506.0</ele>
        <time>2015-06-06T14:44:33Z</time>
      </trkpt>
      <trkpt lat="40.136300" lon="-5.532733">
        <ele>2508.0</ele>
        <time>2015-06-06T14:44:35Z</time>
      </trkpt>
      <trkpt lat="40.136200" lon="-5.532633">
        <ele>2508.0</ele>
        <time>2015-06-06T14:44:37Z</time>
      </trkpt>
      <trkpt lat="40.136083" lon="-5.532567">
        <ele>2511.0</ele>
        <time>2015-06-06T14:44:39Z</time>
      </trkpt>
      <trkpt lat="40.135967" lon="-5.532583">
        <ele>2515.0</ele>
        <time>2015-06-06T14:44:41Z</time>
      </trkpt>
      <trkpt lat="40.135783" lon="-5.532683">
        <ele>2514.0</ele>
        <time>2015-06-06T14:44:43Z</time>
      </trkpt>
      <trkpt lat="40.135600" lon="-5.532850">
        <ele>2515.0</ele>
        <time>2015-06-06T14:44:45Z</time>
      </trkpt>
      <trkpt lat="40.135467" lon="-5.533067">
        <ele>2520.0</ele>
        <time>2015-06-06T14:44:47Z</time>
      </trkpt>
      <trkpt lat="40.135350" lon="-5.533333">
        <ele>2521.0</ele>
        <time>2015-06-06T14:44:49Z</time>
      </trkpt>
      <trkpt lat="40.135283" lon="-5.533667">
        <ele>2521.0</ele>
        <time>2015-06-06T14:44:51Z</time>
      </trkpt>
      <trkpt lat="40.135300" lon="-5.534017">
        <ele>2523.0</ele>
        <time>2015-06-06T14:44:53Z</time>
      </trkpt>
      <trkpt lat="40.135367" lon="-5.534317">
        <ele>2524.0</ele>
        <time>2015-06-06T14:44:55Z</time>
      </trkpt>
      <trkpt lat="40.135500" lon="-5.534617">
        <ele>2523.0</ele>
        <time>2015-06-06T14:44:57Z</time>
      </trkpt>
      <trkpt lat="40.135700" lon="-5.534833">
        <ele>2524.0</ele>
        <time>2015-06-06T14:44:59Z</time>
      </trkpt>
      <trkpt lat="40.135900" lon="-5.534983">
        <ele>2528.0</ele>
        <time>2015-06-06T14:45:01Z</time>
      </trkpt>
      <trkpt lat="40.136067" lon="-5.535050">
        <ele>2530.0</ele>
        <time>2015-06-06T14:45:03Z</time>
      </trkpt>
      <trkpt lat="40.136217" lon="-5.535017">
        <ele>2531.0</ele>
        <time>2015-06-06T14:45:05Z</time>
      </trkpt>
      <trkpt lat="40.136317" lon="-5.534917">
        <ele>2534.0</ele>
        <time>2015-06-06T14:45:07Z</time>
      </trkpt>
      <trkpt lat="40.136317" lon="-5.534800">
        <ele>2537.0</ele>
        <time>2015-06-06T14:45:09Z</time>
      </trkpt>
      <trkpt lat="40.136250" lon="-5.534733">
        <ele>2539.0</ele>
        <time>2015-06-06T14:45:11Z</time>
      </trkpt>
      <trkpt lat="40.136150" lon="-5.534700">
        <ele>2540.0</ele>
        <time>2015-06-06T14:45:13Z</time>
      </trkpt>
      <trkpt lat="40.136000" lon="-5.534750">
        <ele>2540.0</ele>
        <time>2015-06-06T14:45:15Z</time>
      </trkpt>
      <trkpt lat="40.135833" lon="-5.534883">
        <ele>2541.0</ele>
        <time>2015-06-06T14:45:17Z</time>
      </trkpt>
      <trkpt lat="40.135667" lon="-5.535083">
        <ele>2543.0</ele>
        <time>2015-06-06T14:45:19Z</time>
      </trkpt>
      <trkpt lat="40.135533" lon="-5.535350">
        <ele>2544.0</ele>
        <time>2015-06-06T14:45:21Z</time>
      </trkpt>
      <trkpt lat="40.135433" lon="-5.535633">
        <ele>2547.0</ele>
        <time>2015-06-06T14:45:23Z</time>
      </trkpt>
      <trkpt lat="40.135383" lon="-5.535933">
        <ele>2547.0</ele>
        <time>2015-06-06T14:45:25Z</time>
      </trkpt>
      <trkpt lat="40.135383" lon="-5.536267">
        <ele>2545.0</ele>
        <time>2015-06-06T14:45:27Z</time>
      </trkpt>
      <trkpt lat="40.135417" lon="-5.536633">
        <ele>2544.0</ele>
        <time>2015-06-06T14:45:29Z</time>
      </trkpt>
      <trkpt lat="40.135450" lon="-5.537017">
        <ele>2545.0</ele>
        <time>2015-06-06T14:45:31Z</time>
      </trkpt>
      <trkpt lat="40.135450" lon="-5.537383">
        <ele>2545.0</ele>
        <time>2015-06-06T14:45:33Z</time>
      </trkpt>
      <trkpt lat="40.135433" lon="-5.537733">
        <ele>2544.0</ele>
        <time>2015-06-06T14:45:35Z</time>
      </trkpt>
      <trkpt lat="40.135383" lon="-5.538083">
        <ele>2542.0</ele>
        <time>2015-06-06T14:45:37Z</time>
      </trkpt>
      <trkpt lat="40.135317" lon="-5.538433">
        <ele>2540.0</ele>
        <time>2015-06-06T14:45:39Z</time>
      </trkpt>
      <trkpt lat="40.135267" lon="-5.538767">
        <ele>2538.0</ele>
        <time>2015-06-06T14:45:41Z</time>
      </trkpt>
      <trkpt lat="40.135200" lon="-5.539117">
        <ele>2536.0</ele>
        <time>2015-06-06T14:45:43Z</time>
      </trkpt>
      <trkpt lat="40.135133" lon="-5.539450">
        <ele>2534.0</ele>
        <time>2015-06-06T14:45:45Z</time>
      </trkpt>
      <trkpt lat="40.135050" lon="-5.539783">
        <ele>2531.0</ele>
        <time>2015-06-06T14:45:47Z</time>
      </trkpt>
      <trkpt lat="40.134950" lon="-5.540117">
        <ele>2528.0</ele>
        <time>2015-06-06T14:45:49Z</time>
      </trkpt>
      <trkpt lat="40.134817" lon="-5.540417">
        <ele>2525.0</ele>
        <time>2015-06-06T14:45:51Z</time>
      </trkpt>
      <trkpt lat="40.134700" lon="-5.540733">
        <ele>2522.0</ele>
        <time>2015-06-06T14:45:53Z</time>
      </trkpt>
      <trkpt lat="40.134600" lon="-5.541033">
        <ele>2519.0</ele>
        <time>2015-06-06T14:45:55Z</time>
      </trkpt>
      <trkpt lat="40.134467" lon="-5.541350">
        <ele>2514.0</ele>
        <time>2015-06-06T14:45:57Z</time>
      </trkpt>
      <trkpt lat="40.134367" lon="-5.541683">
        <ele>2512.0</ele>
        <time>2015-06-06T14:45:59Z</time>
      </trkpt>
      <trkpt lat="40.134267" lon="-5.542017">
        <ele>2507.0</ele>
        <time>2015-06-06T14:46:01Z</time>
      </trkpt>
      <trkpt lat="40.134150" lon="-5.542350">
        <ele>2503.0</ele>
        <time>2015-06-06T14:46:03Z</time>
      </trkpt>
      <trkpt lat="40.134083" lon="-5.542683">
        <ele>2499.0</ele>
        <time>2015-06-06T14:46:05Z</time>
      </trkpt>
      <trkpt lat="40.134067" lon="-5.543050">
        <ele>2494.0</ele>
        <time>2015-06-06T14:46:07Z</time>
      </trkpt>
      <trkpt lat="40.134050" lon="-5.543417">
        <ele>2490.0</ele>
        <time>2015-06-06T14:46:09Z</time>
      </trkpt>
      <trkpt lat="40.134017" lon="-5.543783">
        <ele>2486.0</ele>
        <time>2015-06-06T14:46:11Z</time>
      </trkpt>
      <trkpt lat="40.133950" lon="-5.544133">
        <ele>2481.0</ele>
        <time>2015-06-06T14:46:13Z</time>
      </trkpt>
      <trkpt lat="40.133850" lon="-5.544467">
        <ele>2475.0</ele>
        <time>2015-06-06T14:46:15Z</time>
      </trkpt>
      <trkpt lat="40.133733" lon="-5.544800">
        <ele>2473.0</ele>
        <time>2015-06-06T14:46:17Z</time>
      </trkpt>
      <trkpt lat="40.133683" lon="-5.545150">
        <ele>2473.0</ele>
        <time>2015-06-06T14:46:19Z</time>
      </trkpt>
      <trkpt lat="40.133683" lon="-5.545533">
        <ele>2473.0</ele>
        <time>2015-06-06T14:46:21Z</time>
      </trkpt>
      <trkpt lat="40.133683" lon="-5.545933">
        <ele>2473.0</ele>
        <time>2015-06-06T14:46:23Z</time>
      </trkpt>
      <trkpt lat="40.133717" lon="-5.546317">
        <ele>2475.0</ele>
        <time>2015-06-06T14:46:25Z</time>
      </trkpt>
      <trkpt lat="40.133783" lon="-5.546683">
        <ele>2475.0</ele>
        <time>2015-06-06T14:46:27Z</time>
      </trkpt>
      <trkpt lat="40.133833" lon="-5.547050">
        <ele>2474.0</ele>
        <time>2015-06-06T14:46:29Z</time>
      </trkpt>
      <trkpt lat="40.133867" lon="-5.547450">
        <ele>2472.0</ele>
        <time>2015-06-06T14:46:31Z</time>
      </trkpt>
      <trkpt lat="40.133850" lon="-5.547833">
        <ele>2472.0</ele>
        <time>2015-06-06T14:46:33Z</time>
      </trkpt>
      <trkpt lat="40.133833" lon="-5.548200">
        <ele>2469.0</ele>
        <time>2015-06-06T14:46:35Z</time>
      </trkpt>
      <trkpt lat="40.133800" lon="-5.548583">
        <ele>2465.0</ele>
        <time>2015-06-06T14:46:37Z</time>
      </trkpt>
      <trkpt lat="40.133767" lon="-5.548967">
        <ele>2463.0</ele>
        <time>2015-06-06T14:46:39Z</time>
      </trkpt>
      <trkpt lat="40.133717" lon="-5.549317">
        <ele>2457.0</ele>
        <time>2015-06-06T14:46:41Z</time>
      </trkpt>
      <trkpt lat="40.133650" lon="-5.549700">
        <ele>2448.0</ele>
        <time>2015-06-06T14:46:43Z</time>
      </trkpt>
      <trkpt lat="40.133583" lon="-5.550083">
        <ele>2440.0</ele>
        <time>2015-06-06T14:46:45Z</time>
      </trkpt>
      <trkpt lat="40.133533" lon="-5.550467">
        <ele>2434.0</ele>
        <time>2015-06-06T14:46:47Z</time>
      </trkpt>
      <trkpt lat="40.133467" lon="-5.550850">
        <ele>2427.0</ele>
        <time>2015-06-06T14:46:49Z</time>
      </trkpt>
      <trkpt lat="40.133383" lon="-5.551233">
        <ele>2421.0</ele>
        <time>2015-06-06T14:46:51Z</time>
      </trkpt>
      <trkpt lat="40.133283" lon="-5.551583">
        <ele>2416.0</ele>
        <time>2015-06-06T14:46:53Z</time>
      </trkpt>
      <trkpt lat="40.133200" lon="-5.551950">
        <ele>2410.0</ele>
        <time>2015-06-06T14:46:55Z</time>
      </trkpt>
      <trkpt lat="40.133100" lon="-5.552333">
        <ele>2404.0</ele>
        <time>2015-06-06T14:46:57Z</time>
      </trkpt>
      <trkpt lat="40.133000" lon="-5.552717">
        <ele>2399.0</ele>
        <time>2015-06-06T14:46:59Z</time>
      </trkpt>
      <trkpt lat="40.132900" lon="-5.553083">
        <ele>2395.0</ele>
        <time>2015-06-06T14:47:01Z</time>
      </trkpt>
      <trkpt lat="40.132783" lon="-5.553400">
        <ele>2391.0</ele>
        <time>2015-06-06T14:47:03Z</time>
      </trkpt>
      <trkpt lat="40.132683" lon="-5.553750">
        <ele>2386.0</ele>
        <time>2015-06-06T14:47:05Z</time>
      </trkpt>
      <trkpt lat="40.132567" lon="-5.554083">
        <ele>2382.0</ele>
        <time>2015-06-06T14:47:07Z</time>
      </trkpt>
      <trkpt lat="40.132467" lon="-5.554400">
        <ele>2377.0</ele>
        <time>2015-06-06T14:47:09Z</time>
      </trkpt>
      <trkpt lat="40.132367" lon="-5.554717">
        <ele>2369.0</ele>
        <time>2015-06-06T14:47:11Z</time>
      </trkpt>
      <trkpt lat="40.132250" lon="-5.555050">
        <ele>2362.0</ele>
        <time>2015-06-06T14:47:13Z</time>
      </trkpt>
      <trkpt lat="40.132150" lon="-5.555417">
        <ele>2356.0</ele>
        <time>2015-06-06T14:47:15Z</time>
      </trkpt>
      <trkpt lat="40.132067" lon="-5.555783">
        <ele>2352.0</ele>
        <time>2015-06-06T14:47:17Z</time>
      </trkpt>
      <trkpt lat="40.131650" lon="-5.557383">
        <ele>2331.0</ele>
        <time>2015-06-06T14:47:27Z</time>
      </trkpt>
      <trkpt lat="40.131600" lon="-5.557717">
        <ele>2321.0</ele>
        <time>2015-06-06T14:47:29Z</time>
      </trkpt>
      <trkpt lat="40.131550" lon="-5.558100">
        <ele>2314.0</ele>
        <time>2015-06-06T14:47:31Z</time>
      </trkpt>
      <trkpt lat="40.131500" lon="-5.558450">
        <ele>2313.0</ele>
        <time>2015-06-06T14:47:33Z</time>
      </trkpt>
      <trkpt lat="40.131450" lon="-5.558783">
        <ele>2307.0</ele>
        <time>2015-06-06T14:47:35Z</time>
      </trkpt>
      <trkpt lat="40.131383" lon="-5.559150">
        <ele>2301.0</ele>
        <time>2015-06-06T14:47:37Z</time>
      </trkpt>
      <trkpt lat="40.131300" lon="-5.559500">
        <ele>2295.0</ele>
        <time>2015-06-06T14:47:39Z</time>
      </trkpt>
      <trkpt lat="40.131167" lon="-5.560733">
        <ele>2287.0</ele>
        <time>2015-06-06T14:47:46Z</time>
      </trkpt>
      <trkpt lat="40.131150" lon="-5.561167">
        <ele>2276.0</ele>
        <time>2015-06-06T14:47:48Z</time>
      </trkpt>
      <trkpt lat="40.131117" lon="-5.561567">
        <ele>2271.0</ele>
        <time>2015-06-06T14:47:50Z</time>
      </trkpt>
      <trkpt lat="40.131117" lon="-5.561967">
        <ele>2266.0</ele>
        <time>2015-06-06T14:47:52Z</time>
      </trkpt>
      <trkpt lat="40.131067" lon="-5.562333">
        <ele>2260.0</ele>
        <time>2015-06-06T14:47:54Z</time>
      </trkpt>
      <trkpt lat="40.130933" lon="-5.563983">
        <ele>2237.0</ele>
        <time>2015-06-06T14:48:03Z</time>
      </trkpt>
      <trkpt lat="40.130950" lon="-5.564333">
        <ele>2226.0</ele>
        <time>2015-06-06T14:48:05Z</time>
      </trkpt>
      <trkpt lat="40.130917" lon="-5.564700">
        <ele>2218.0</ele>
        <time>2015-06-06T14:48:07Z</time>
      </trkpt>
      <trkpt lat="40.130900" lon="-5.565083">
        <ele>2213.0</ele>
        <time>2015-06-06T14:48:09Z</time>
      </trkpt>
      <trkpt lat="40.130867" lon="-5.565433">
        <ele>2208.0</ele>
        <time>2015-06-06T14:48:11Z</time>
      </trkpt>
      <trkpt lat="40.130850" lon="-5.565800">
        <ele>2200.0</ele>
        <time>2015-06-06T14:48:13Z</time>
      </trkpt>
      <trkpt lat="40.130817" lon="-5.566183">
        <ele>2192.0</ele>
        <time>2015-06-06T14:48:15Z</time>
      </trkpt>
      <trkpt lat="40.130783" lon="-5.566567">
        <ele>2184.0</ele>
        <time>2015-06-06T14:48:17Z</time>
      </trkpt>
      <trkpt lat="40.130717" lon="-5.567483">
        <ele>2168.0</ele>
        <time>2015-06-06T14:48:22Z</time>
      </trkpt>
      <trkpt lat="40.130683" lon="-5.567850">
        <ele>2165.0</ele>
        <time>2015-06-06T14:48:24Z</time>
      </trkpt>
      <trkpt lat="40.130650" lon="-5.568183">
        <ele>2160.0</ele>
        <time>2015-06-06T14:48:26Z</time>
      </trkpt>
      <trkpt lat="40.130617" lon="-5.568533">
        <ele>2151.0</ele>
        <time>2015-06-06T14:48:28Z</time>
      </trkpt>
      <trkpt lat="40.130567" lon="-5.568900">
        <ele>2149.0</ele>
        <time>2015-06-06T14:48:30Z</time>
      </trkpt>
      <trkpt lat="40.130517" lon="-5.569217">
        <ele>2146.0</ele>
        <time>2015-06-06T14:48:32Z</time>
      </trkpt>
      <trkpt lat="40.130433" lon="-5.569567">
        <ele>2140.0</ele>
        <time>2015-06-06T14:48:34Z</time>
      </trkpt>
      <trkpt lat="40.130367" lon="-5.569950">
        <ele>2134.0</ele>
        <time>2015-06-06T14:48:36Z</time>
      </trkpt>
      <trkpt lat="40.130300" lon="-5.570317">
        <ele>2130.0</ele>
        <time>2015-06-06T14:48:38Z</time>
      </trkpt>
      <trkpt lat="40.130200" lon="-5.570650">
        <ele>2127.0</ele>
        <time>2015-06-06T14:48:40Z</time>
      </trkpt>
      <trkpt lat="40.130150" lon="-5.570983">
        <ele>2124.0</ele>
        <time>2015-06-06T14:48:42Z</time>
      </trkpt>
      <trkpt lat="40.130133" lon="-5.571317">
        <ele>2118.0</ele>
        <time>2015-06-06T14:48:44Z</time>
      </trkpt>
      <trkpt lat="40.130100" lon="-5.571633">
        <ele>2112.0</ele>
        <time>2015-06-06T14:48:46Z</time>
      </trkpt>
      <trkpt lat="40.130067" lon="-5.571967">
        <ele>2105.0</ele>
        <time>2015-06-06T14:48:48Z</time>
      </trkpt>
      <trkpt lat="40.130033" lon="-5.572317">
        <ele>2099.0</ele>
        <time>2015-06-06T14:48:50Z</time>
      </trkpt>
      <trkpt lat="40.129967" lon="-5.572650">
        <ele>2093.0</ele>
        <time>2015-06-06T14:48:52Z</time>
      </trkpt>
      <trkpt lat="40.129900" lon="-5.572967">
        <ele>2087.0</ele>
        <time>2015-06-06T14:48:54Z</time>
      </trkpt>
      <trkpt lat="40.129850" lon="-5.573300">
        <ele>2081.0</ele>
        <time>2015-06-06T14:48:56Z</time>
      </trkpt>
      <trkpt lat="40.129800" lon="-5.573617">
        <ele>2076.0</ele>
        <time>2015-06-06T14:48:58Z</time>
      </trkpt>
      <trkpt lat="40.129783" lon="-5.573933">
        <ele>2070.0</ele>
        <time>2015-06-06T14:49:00Z</time>
      </trkpt>
      <trkpt lat="40.129817" lon="-5.574283">
        <ele>2062.0</ele>
        <time>2015-06-06T14:49:02Z</time>
      </trkpt>
      <trkpt lat="40.129817" lon="-5.574650">
        <ele>2055.0</ele>
        <time>2015-06-06T14:49:04Z</time>
      </trkpt>
      <trkpt lat="40.129800" lon="-5.575000">
        <ele>2050.0</ele>
        <time>2015-06-06T14:49:06Z</time>
      </trkpt>
      <trkpt lat="40.129783" lon="-5.575333">
        <ele>2044.0</ele>
        <time>2015-06-06T14:49:08Z</time>
      </trkpt>
      <trkpt lat="40.129783" lon="-5.575667">
        <ele>2038.0</ele>
        <time>2015-06-06T14:49:10Z</time>
      </trkpt>
      <trkpt lat="40.129767" lon="-5.576017">
        <ele>2033.0</ele>
        <time>2015-06-06T14:49:12Z</time>
      </trkpt>
      <trkpt lat="40.129767" lon="-5.576333">
        <ele>2030.0</ele>
        <time>2015-06-06T14:49:14Z</time>
      </trkpt>
      <trkpt lat="40.129750" lon="-5.576650">
        <ele>2024.0</ele>
        <time>2015-06-06T14:49:16Z</time>
      </trkpt>
      <trkpt lat="40.129750" lon="-5.576983">
        <ele>2020.0</ele>
        <time>2015-06-06T14:49:18Z</time>
      </trkpt>
      <trkpt lat="40.129750" lon="-5.577283">
        <ele>2018.0</ele>
        <time>2015-06-06T14:49:20Z</time>
      </trkpt>
      <trkpt lat="40.129767" lon="-5.577583">
        <ele>2012.0</ele>
        <time>2015-06-06T14:49:22Z</time>
      </trkpt>
      <trkpt lat="40.129783" lon="-5.577917">
        <ele>2007.0</ele>
        <time>2015-06-06T14:49:24Z</time>
      </trkpt>
      <trkpt lat="40.129850" lon="-5.578233">
        <ele>2005.0</ele>
        <time>2015-06-06T14:49:26Z</time>
      </trkpt>
      <trkpt lat="40.129950" lon="-5.578500">
        <ele>1999.0</ele>
        <time>2015-06-06T14:49:28Z</time>
      </trkpt>
      <trkpt lat="40.130050" lon="-5.578833">
        <ele>1992.0</ele>
        <time>2015-06-06T14:49:30Z</time>
      </trkpt>
      <trkpt lat="40.130133" lon="-5.579167">
        <ele>1988.0</ele>
        <time>2015-06-06T14:49:32Z</time>
      </trkpt>
      <trkpt lat="40.130183" lon="-5.579483">
        <ele>1984.0</ele>
        <time>2015-06-06T14:49:34Z</time>
      </trkpt>
      <trkpt lat="40.130250" lon="-5.579800">
        <ele>1979.0</ele>
        <time>2015-06-06T14:49:36Z</time>
      </trkpt>
      <trkpt lat="40.130300" lon="-5.580150">
        <ele>1975.0</ele>
        <time>2015-06-06T14:49:38Z</time>
      </trkpt>
      <trkpt lat="40.130350" lon="-5.580467">
        <ele>1973.0</ele>
        <time>2015-06-06T14:49:40Z</time>
      </trkpt>
      <trkpt lat="40.130400" lon="-5.580800">
        <ele>1969.0</ele>
        <time>2015-06-06T14:49:42Z</time>
      </trkpt>
      <trkpt lat="40.130450" lon="-5.581133">
        <ele>1966.0</ele>
        <time>2015-06-06T14:49:44Z</time>
      </trkpt>
      <trkpt lat="40.130500" lon="-5.581467">
        <ele>1963.0</ele>
        <time>2015-06-06T14:49:46Z</time>
      </trkpt>
      <trkpt lat="40.130533" lon="-5.581800">
        <ele>1960.0</ele>
        <time>2015-06-06T14:49:48Z</time>
      </trkpt>
      <trkpt lat="40.130550" lon="-5.582133">
        <ele>1959.0</ele>
        <time>2015-06-06T14:49:50Z</time>
      </trkpt>
      <trkpt lat="40.130617" lon="-5.582450">
        <ele>1957.0</ele>
        <time>2015-06-06T14:49:52Z</time>
      </trkpt>
      <trkpt lat="40.130717" lon="-5.582767">
        <ele>1955.0</ele>
        <time>2015-06-06T14:49:54Z</time>
      </trkpt>
      <trkpt lat="40.130817" lon="-5.583067">
        <ele>1952.0</ele>
        <time>2015-06-06T14:49:56Z</time>
      </trkpt>
      <trkpt lat="40.130917" lon="-5.583367">
        <ele>1949.0</ele>
        <time>2015-06-06T14:49:58Z</time>
      </trkpt>
      <trkpt lat="40.131017" lon="-5.583700">
        <ele>1946.0</ele>
        <time>2015-06-06T14:50:00Z</time>
      </trkpt>
      <trkpt lat="40.131100" lon="-5.584033">
        <ele>1945.0</ele>
        <time>2015-06-06T14:50:02Z</time>
      </trkpt>
      <trkpt lat="40.131200" lon="-5.584367">
        <ele>1943.0</ele>
        <time>2015-06-06T14:50:04Z</time>
      </trkpt>
      <trkpt lat="40.131283" lon="-5.584700">
        <ele>1942.0</ele>
        <time>2015-06-06T14:50:06Z</time>
      </trkpt>
      <trkpt lat="40.131383" lon="-5.585033">
        <ele>1943.0</ele>
        <time>2015-06-06T14:50:08Z</time>
      </trkpt>
      <trkpt lat="40.131500" lon="-5.585350">
        <ele>1949.0</ele>
        <time>2015-06-06T14:50:10Z</time>
      </trkpt>
      <trkpt lat="40.131650" lon="-5.585583">
        <ele>1953.0</ele>
        <time>2015-06-06T14:50:12Z</time>
      </trkpt>
      <trkpt lat="40.131867" lon="-5.585733">
        <ele>1952.0</ele>
        <time>2015-06-06T14:50:14Z</time>
      </trkpt>
      <trkpt lat="40.132117" lon="-5.585817">
        <ele>1953.0</ele>
        <time>2015-06-06T14:50:16Z</time>
      </trkpt>
      <trkpt lat="40.132283" lon="-5.585783">
        <ele>1952.0</ele>
        <time>2015-06-06T14:50:18Z</time>
      </trkpt>
      <trkpt lat="40.132400" lon="-5.585700">
        <ele>1949.0</ele>
        <time>2015-06-06T14:50:20Z</time>
      </trkpt>
      <trkpt lat="40.132450" lon="-5.585583">
        <ele>1946.0</ele>
        <time>2015-06-06T14:50:22Z</time>
      </trkpt>
      <trkpt lat="40.132417" lon="-5.585500">
        <ele>1943.0</ele>
        <time>2015-06-06T14:50:24Z</time>
      </trkpt>
      <trkpt lat="40.132300" lon="-5.585483">
        <ele>1939.0</ele>
        <time>2015-06-06T14:50:26Z</time>
      </trkpt>
      <trkpt lat="40.132167" lon="-5.585550">
        <ele>1936.0</ele>
        <time>2015-06-06T14:50:28Z</time>
      </trkpt>
      <trkpt lat="40.132050" lon="-5.585700">
        <ele>1933.0</ele>
        <time>2015-06-06T14:50:30Z</time>
      </trkpt>
      <trkpt lat="40.131933" lon="-5.585967">
        <ele>1931.0</ele>
        <time>2015-06-06T14:50:32Z</time>
      </trkpt>
      <trkpt lat="40.131850" lon="-5.586250">
        <ele>1935.0</ele>
        <time>2015-06-06T14:50:34Z</time>
      </trkpt>
      <trkpt lat="40.131783" lon="-5.586500">
        <ele>1939.0</ele>
        <time>2015-06-06T14:50:36Z</time>
      </trkpt>
      <trkpt lat="40.131750" lon="-5.586833">
        <ele>1940.0</ele>
        <time>2015-06-06T14:50:38Z</time>
      </trkpt>
      <trkpt lat="40.131767" lon="-5.587183">
        <ele>1942.0</ele>
        <time>2015-06-06T14:50:40Z</time>
      </trkpt>
      <trkpt lat="40.131833" lon="-5.587533">
        <ele>1945.0</ele>
        <time>2015-06-06T14:50:42Z</time>
      </trkpt>
      <trkpt lat="40.131967" lon="-5.587900">
        <ele>1947.0</ele>
        <time>2015-06-06T14:50:44Z</time>
      </trkpt>
      <trkpt lat="40.132133" lon="-5.588233">
        <ele>1952.0</ele>
        <time>2015-06-06T14:50:46Z</time>
      </trkpt>
      <trkpt lat="40.132333" lon="-5.588483">
        <ele>1955.0</ele>
        <time>2015-06-06T14:50:48Z</time>
      </trkpt>
      <trkpt lat="40.132583" lon="-5.588650">
        <ele>1956.0</ele>
        <time>2015-06-06T14:50:50Z</time>
      </trkpt>
      <trkpt lat="40.132817" lon="-5.588700">
        <ele>1960.0</ele>
        <time>2015-06-06T14:50:52Z</time>
      </trkpt>
      <trkpt lat="40.132983" lon="-5.588650">
        <ele>1961.0</ele>
        <time>2015-06-06T14:50:54Z</time>
      </trkpt>
      <trkpt lat="40.133083" lon="-5.588533">
        <ele>1960.0</ele>
        <time>2015-06-06T14:50:56Z</time>
      </trkpt>
      <trkpt lat="40.133117" lon="-5.588400">
        <ele>1960.0</ele>
        <time>2015-06-06T14:50:58Z</time>
      </trkpt>
      <trkpt lat="40.133067" lon="-5.588333">
        <ele>1961.0</ele>
        <time>2015-06-06T14:51:00Z</time>
      </trkpt>
      <trkpt lat="40.132950" lon="-5.588367">
        <ele>1961.0</ele>
        <time>2015-06-06T14:51:02Z</time>
      </trkpt>
      <trkpt lat="40.132833" lon="-5.588467">
        <ele>1964.0</ele>
        <time>2015-06-06T14:51:04Z</time>
      </trkpt>
      <trkpt lat="40.132733" lon="-5.588650">
        <ele>1968.0</ele>
        <time>2015-06-06T14:51:06Z</time>
      </trkpt>
      <trkpt lat="40.132667" lon="-5.588883">
        <ele>1974.0</ele>
        <time>2015-06-06T14:51:08Z</time>
      </trkpt>
      <trkpt lat="40.132650" lon="-5.589150">
        <ele>1979.0</ele>
        <time>2015-06-06T14:51:10Z</time>
      </trkpt>
      <trkpt lat="40.132683" lon="-5.589467">
        <ele>1982.0</ele>
        <time>2015-06-06T14:51:12Z</time>
      </trkpt>
      <trkpt lat="40.132800" lon="-5.589817">
        <ele>1983.0</ele>
        <time>2015-06-06T14:51:14Z</time>
      </trkpt>
      <trkpt lat="40.132983" lon="-5.590117">
        <ele>1986.0</ele>
        <time>2015-06-06T14:51:16Z</time>
      </trkpt>
      <trkpt lat="40.133217" lon="-5.590283">
        <ele>1988.0</ele>
        <time>2015-06-06T14:51:18Z</time>
      </trkpt>
      <trkpt lat="40.133450" lon="-5.590333">
        <ele>1989.0</ele>
        <time>2015-06-06T14:51:20Z</time>
      </trkpt>
      <trkpt lat="40.133683" lon="-5.590300">
        <ele>1990.0</ele>
        <time>2015-06-06T14:51:22Z</time>
      </trkpt>
      <trkpt lat="40.133817" lon="-5.590217">
        <ele>1993.0</ele>
        <time>2015-06-06T14:51:24Z</time>
      </trkpt>
      <trkpt lat="40.133917" lon="-5.590133">
        <ele>1994.0</ele>
        <time>2015-06-06T14:51:26Z</time>
      </trkpt>
      <trkpt lat="40.133933" lon="-5.590033">
        <ele>1994.0</ele>
        <time>2015-06-06T14:51:28Z</time>
      </trkpt>
      <trkpt lat="40.133850" lon="-5.590000">
        <ele>1994.0</ele>
        <time>2015-06-06T14:51:30Z</time>
      </trkpt>
      <trkpt lat="40.133750" lon="-5.590083">
        <ele>1995.0</ele>
        <time>2015-06-06T14:51:32Z</time>
      </trkpt>
      <trkpt lat="40.133650" lon="-5.590250">
        <ele>1997.0</ele>
        <time>2015-06-06T14:51:34Z</time>
      </trkpt>
      <trkpt lat="40.133567" lon="-5.590500">
        <ele>2000.0</ele>
        <time>2015-06-06T14:51:36Z</time>
      </trkpt>
      <trkpt lat="40.133533" lon="-5.590800">
        <ele>2001.0</ele>
        <time>2015-06-06T14:51:38Z</time>
      </trkpt>
      <trkpt lat="40.133550" lon="-5.591200">
        <ele>2003.0</ele>
        <time>2015-06-06T14:51:40Z</time>
      </trkpt>
      <trkpt lat="40.133617" lon="-5.591533">
        <ele>2012.0</ele>
        <time>2015-06-06T14:51:42Z</time>
      </trkpt>
      <trkpt lat="40.133700" lon="-5.591800">
        <ele>2013.0</ele>
        <time>2015-06-06T14:51:44Z</time>
      </trkpt>
      <trkpt lat="40.133867" lon="-5.592133">
        <ele>2010.0</ele>
        <time>2015-06-06T14:51:46Z</time>
      </trkpt>
      <trkpt lat="40.134100" lon="-5.592417">
        <ele>2010.0</ele>
        <time>2015-06-06T14:51:48Z</time>
      </trkpt>
      <trkpt lat="40.134350" lon="-5.592567">
        <ele>2012.0</ele>
        <time>2015-06-06T14:51:50Z</time>
      </trkpt>
      <trkpt lat="40.134567" lon="-5.592617">
        <ele>2015.0</ele>
        <time>2015-06-06T14:51:52Z</time>
      </trkpt>
      <trkpt lat="40.134733" lon="-5.592583">
        <ele>2013.0</ele>
        <time>2015-06-06T14:51:54Z</time>
      </trkpt>
      <trkpt lat="40.134800" lon="-5.592483">
        <ele>2009.0</ele>
        <time>2015-06-06T14:51:56Z</time>
      </trkpt>
      <trkpt lat="40.134767" lon="-5.592383">
        <ele>2008.0</ele>
        <time>2015-06-06T14:51:58Z</time>
      </trkpt>
      <trkpt lat="40.134683" lon="-5.592400">
        <ele>2011.0</ele>
        <time>2015-06-06T14:52:00Z</time>
      </trkpt>
      <trkpt lat="40.134583" lon="-5.592467">
        <ele>2013.0</ele>
        <time>2015-06-06T14:52:02Z</time>
      </trkpt>
      <trkpt lat="40.134467" lon="-5.592600">
        <ele>2012.0</ele>
        <time>2015-06-06T14:52:04Z</time>
      </trkpt>
      <trkpt lat="40.134367" lon="-5.592817">
        <ele>2013.0</ele>
        <time>2015-06-06T14:52:06Z</time>
      </trkpt>
      <trkpt lat="40.134300" lon="-5.593050">
        <ele>2017.0</ele>
        <time>2015-06-06T14:52:08Z</time>
      </trkpt>
      <trkpt lat="40.134267" lon="-5.593300">
        <ele>2017.0</ele>
        <time>2015-06-06T14:52:10Z</time>
      </trkpt>
      <trkpt lat="40.134267" lon="-5.593633">
        <ele>2016.0</ele>
        <time>2015-06-06T14:52:12Z</time>
      </trkpt>
      <trkpt lat="40.134300" lon="-5.593967">
        <ele>2018.0</ele>
        <time>2015-06-06T14:52:14Z</time>
      </trkpt>
      <trkpt lat="40.134350" lon="-5.594317">
        <ele>2018.0</ele>
        <time>2015-06-06T14:52:16Z</time>
      </trkpt>
      <trkpt lat="40.134450" lon="-5.594650">
        <ele>2018.0</ele>
        <time>2015-06-06T14:52:18Z</time>
      </trkpt>
      <trkpt lat="40.134583" lon="-5.594900">
        <ele>2023.0</ele>
        <time>2015-06-06T14:52:20Z</time>
      </trkpt>
      <trkpt lat="40.134717" lon="-5.595100">
        <ele>2023.0</ele>
        <time>2015-06-06T14:52:22Z</time>
      </trkpt>
      <trkpt lat="40.134917" lon="-5.595233">
        <ele>2021.0</ele>
        <time>2015-06-06T14:52:24Z</time>
      </trkpt>
      <trkpt lat="40.135117" lon="-5.595333">
        <ele>2024.0</ele>
        <time>2015-06-06T14:52:26Z</time>
      </trkpt>
      <trkpt lat="40.135283" lon="-5.595383">
        <ele>2027.0</ele>
        <time>2015-06-06T14:52:28Z</time>
      </trkpt>
      <trkpt lat="40.135417" lon="-5.595333">
        <ele>2025.0</ele>
        <time>2015-06-06T14:52:30Z</time>
      </trkpt>
      <trkpt lat="40.135517" lon="-5.595233">
        <ele>2022.0</ele>
        <time>2015-06-06T14:52:32Z</time>
      </trkpt>
      <trkpt lat="40.135517" lon="-5.595117">
        <ele>2020.0</ele>
        <time>2015-06-06T14:52:34Z</time>
      </trkpt>
      <trkpt lat="40.135433" lon="-5.595067">
        <ele>2018.0</ele>
        <time>2015-06-06T14:52:36Z</time>
      </trkpt>
      <trkpt lat="40.135317" lon="-5.595067">
        <ele>2017.0</ele>
        <time>2015-06-06T14:52:38Z</time>
      </trkpt>
      <trkpt lat="40.135183" lon="-5.595150">
        <ele>2016.0</ele>
        <time>2015-06-06T14:52:40Z</time>
      </trkpt>
      <trkpt lat="40.135050" lon="-5.595333">
        <ele>2016.0</ele>
        <time>2015-06-06T14:52:42Z</time>
      </trkpt>
      <trkpt lat="40.134950" lon="-5.595550">
        <ele>2019.0</ele>
        <time>2015-06-06T14:52:44Z</time>
      </trkpt>
      <trkpt lat="40.134900" lon="-5.595833">
        <ele>2018.0</ele>
        <time>2015-06-06T14:52:46Z</time>
      </trkpt>
      <trkpt lat="40.134867" lon="-5.596150">
        <ele>2018.0</ele>
        <time>2015-06-06T14:52:48Z</time>
      </trkpt>
      <trkpt lat="40.134917" lon="-5.596500">
        <ele>2018.0</ele>
        <time>2015-06-06T14:52:50Z</time>
      </trkpt>
      <trkpt lat="40.135017" lon="-5.596833">
        <ele>2020.0</ele>
        <time>2015-06-06T14:52:52Z</time>
      </trkpt>
      <trkpt lat="40.135150" lon="-5.597117">
        <ele>2024.0</ele>
        <time>2015-06-06T14:52:54Z</time>
      </trkpt>
      <trkpt lat="40.135300" lon="-5.597317">
        <ele>2025.0</ele>
        <time>2015-06-06T14:52:56Z</time>
      </trkpt>
      <trkpt lat="40.135500" lon="-5.597433">
        <ele>2022.0</ele>
        <time>2015-06-06T14:52:58Z</time>
      </trkpt>
      <trkpt lat="40.135717" lon="-5.597483">
        <ele>2024.0</ele>
        <time>2015-06-06T14:53:00Z</time>
      </trkpt>
      <trkpt lat="40.135867" lon="-5.597433">
        <ele>2026.0</ele>
        <time>2015-06-06T14:53:02Z</time>
      </trkpt>
      <trkpt lat="40.135950" lon="-5.597333">
        <ele>2026.0</ele>
        <time>2015-06-06T14:53:04Z</time>
      </trkpt>
      <trkpt lat="40.136017" lon="-5.597183">
        <ele>2026.0</ele>
        <time>2015-06-06T14:53:06Z</time>
      </trkpt>
      <trkpt lat="40.136000" lon="-5.597050">
        <ele>2027.0</ele>
        <time>2015-06-06T14:53:08Z</time>
      </trkpt>
      <trkpt lat="40.135917" lon="-5.596950">
        <ele>2027.0</ele>
        <time>2015-06-06T14:53:10Z</time>
      </trkpt>
      <trkpt lat="40.135817" lon="-5.596900">
        <ele>2027.0</ele>
        <time>2015-06-06T14:53:12Z</time>
      </trkpt>
      <trkpt lat="40.135683" lon="-5.596950">
        <ele>2026.0</ele>
        <time>2015-06-06T14:53:14Z</time>
      </trkpt>
      <trkpt lat="40.135533" lon="-5.597117">
        <ele>2026.0</ele>
        <time>2015-06-06T14:53:16Z</time>
      </trkpt>
      <trkpt lat="40.135433" lon="-5.597317">
        <ele>2029.0</ele>
        <time>2015-06-06T14:53:18Z</time>
      </trkpt>
      <trkpt lat="40.135367" lon="-5.597533">
        <ele>2028.0</ele>
        <time>2015-06-06T14:53:20Z</time>
      </trkpt>
      <trkpt lat="40.135300" lon="-5.597867">
        <ele>2026.0</ele>
        <time>2015-06-06T14:53:22Z</time>
      </trkpt>
      <trkpt lat="40.135283" lon="-5.598233">
        <ele>2031.0</ele>
        <time>2015-06-06T14:53:24Z</time>
      </trkpt>
      <trkpt lat="40.135300" lon="-5.598517">
        <ele>2036.0</ele>
        <time>2015-06-06T14:53:26Z</time>
      </trkpt>
      <trkpt lat="40.135350" lon="-5.598833">
        <ele>2037.0</ele>
        <time>2015-06-06T14:53:28Z</time>
      </trkpt>
      <trkpt lat="40.135433" lon="-5.599167">
        <ele>2039.0</ele>
        <time>2015-06-06T14:53:30Z</time>
      </trkpt>
      <trkpt lat="40.135583" lon="-5.599433">
        <ele>2041.0</ele>
        <time>2015-06-06T14:53:32Z</time>
      </trkpt>
      <trkpt lat="40.135783" lon="-5.599633">
        <ele>2042.0</ele>
        <time>2015-06-06T14:53:34Z</time>
      </trkpt>
      <trkpt lat="40.135983" lon="-5.599767">
        <ele>2043.0</ele>
        <time>2015-06-06T14:53:36Z</time>
      </trkpt>
      <trkpt lat="40.136183" lon="-5.599800">
        <ele>2042.0</ele>
        <time>2015-06-06T14:53:38Z</time>
      </trkpt>
      <trkpt lat="40.136383" lon="-5.599750">
        <ele>2040.0</ele>
        <time>2015-06-06T14:53:40Z</time>
      </trkpt>
      <trkpt lat="40.136483" lon="-5.599600">
        <ele>2040.0</ele>
        <time>2015-06-06T14:53:42Z</time>
      </trkpt>
      <trkpt lat="40.136500" lon="-5.599467">
        <ele>2041.0</ele>
        <time>2015-06-06T14:53:44Z</time>
      </trkpt>
      <trkpt lat="40.136467" lon="-5.599400">
        <ele>2042.0</ele>
        <time>2015-06-06T14:53:46Z</time>
      </trkpt>
      <trkpt lat="40.136383" lon="-5.599383">
        <ele>2041.0</ele>
        <time>2015-06-06T14:53:48Z</time>
      </trkpt>
      <trkpt lat="40.136250" lon="-5.599417">
        <ele>2041.0</ele>
        <time>2015-06-06T14:53:50Z</time>
      </trkpt>
      <trkpt lat="40.136117" lon="-5.599533">
        <ele>2042.0</ele>
        <time>2015-06-06T14:53:52Z</time>
      </trkpt>
      <trkpt lat="40.136000" lon="-5.599750">
        <ele>2042.0</ele>
        <time>2015-06-06T14:53:54Z</time>
      </trkpt>
      <trkpt lat="40.135900" lon="-5.600017">
        <ele>2043.0</ele>
        <time>2015-06-06T14:53:56Z</time>
      </trkpt>
      <trkpt lat="40.135850" lon="-5.600317">
        <ele>2045.0</ele>
        <time>2015-06-06T14:53:58Z</time>
      </trkpt>
      <trkpt lat="40.135883" lon="-5.600633">
        <ele>2045.0</ele>
        <time>2015-06-06T14:54:00Z</time>
      </trkpt>
      <trkpt lat="40.135933" lon="-5.600950">
        <ele>2046.0</ele>
        <time>2015-06-06T14:54:02Z</time>
      </trkpt>
      <trkpt lat="40.136033" lon="-5.601250">
        <ele>2048.0</ele>
        <time>2015-06-06T14:54:04Z</time>
      </trkpt>
      <trkpt lat="40.136183" lon="-5.601517">
        <ele>2049.0</ele>
        <time>2015-06-06T14:54:06Z</time>
      </trkpt>
      <trkpt lat="40.136367" lon="-5.601717">
        <ele>2051.0</ele>
        <time>2015-06-06T14:54:08Z</time>
      </trkpt>
      <trkpt lat="40.136567" lon="-5.601850">
        <ele>2052.0</ele>
        <time>2015-06-06T14:54:10Z</time>
      </trkpt>
      <trkpt lat="40.136767" lon="-5.601917">
        <ele>2055.0</ele>
        <time>2015-06-06T14:54:12Z</time>
      </trkpt>
      <trkpt lat="40.136933" lon="-5.601900">
        <ele>2057.0</ele>
        <time>2015-06-06T14:54:14Z</time>
      </trkpt>
      <trkpt lat="40.137100" lon="-5.601833">
        <ele>2058.0</ele>
        <time>2015-06-06T14:54:16Z</time>
      </trkpt>
      <trkpt lat="40.137200" lon="-5.601717">
        <ele>2058.0</ele>
        <time>2015-06-06T14:54:18Z</time>
      </trkpt>
      <trkpt lat="40.137250" lon="-5.601600">
        <ele>2056.0</ele>
        <time>2015-06-06T14:54:20Z</time>
      </trkpt>
      <trkpt lat="40.137233" lon="-5.601467">
        <ele>2053.0</ele>
        <time>2015-06-06T14:54:22Z</time>
      </trkpt>
      <trkpt lat="40.137117" lon="-5.601367">
        <ele>2052.0</ele>
        <time>2015-06-06T14:54:24Z</time>
      </trkpt>
      <trkpt lat="40.137000" lon="-5.601333">
        <ele>2055.0</ele>
        <time>2015-06-06T14:54:26Z</time>
      </trkpt>
      <trkpt lat="40.136883" lon="-5.601383">
        <ele>2057.0</ele>
        <time>2015-06-06T14:54:28Z</time>
      </trkpt>
      <trkpt lat="40.136733" lon="-5.601500">
        <ele>2057.0</ele>
        <time>2015-06-06T14:54:30Z</time>
      </trkpt>
      <trkpt lat="40.136600" lon="-5.601683">
        <ele>2059.0</ele>
        <time>2015-06-06T14:54:32Z</time>
      </trkpt>
      <trkpt lat="40.136517" lon="-5.601933">
        <ele>2061.0</ele>
        <time>2015-06-06T14:54:34Z</time>
      </trkpt>
      <trkpt lat="40.136467" lon="-5.602200">
        <ele>2062.0</ele>
        <time>2015-06-06T14:54:36Z</time>
      </trkpt>
      <trkpt lat="40.136467" lon="-5.602517">
        <ele>2061.0</ele>
        <time>2015-06-06T14:54:38Z</time>
      </trkpt>
      <trkpt lat="40.136500" lon="-5.602833">
        <ele>2063.0</ele>
        <time>2015-06-06T14:54:40Z</time>
      </trkpt>
      <trkpt lat="40.136583" lon="-5.603133">
        <ele>2064.0</ele>
        <time>2015-06-06T14:54:42Z</time>
      </trkpt>
      <trkpt lat="40.136717" lon="-5.603383">
        <ele>2066.0</ele>
        <time>2015-06-06T14:54:44Z</time>
      </trkpt>
      <trkpt lat="40.136900" lon="-5.603583">
        <ele>2068.0</ele>
        <time>2015-06-06T14:54:46Z</time>
      </trkpt>
      <trkpt lat="40.137100" lon="-5.603700">
        <ele>2071.0</ele>
        <time>2015-06-06T14:54:48Z</time>
      </trkpt>
      <trkpt lat="40.137300" lon="-5.603733">
        <ele>2073.0</ele>
        <time>2015-06-06T14:54:50Z</time>
      </trkpt>
      <trkpt lat="40.137467" lon="-5.603667">
        <ele>2075.0</ele>
        <time>2015-06-06T14:54:52Z</time>
      </trkpt>
      <trkpt lat="40.137567" lon="-5.603533">
        <ele>2078.0</ele>
        <time>2015-06-06T14:54:54Z</time>
      </trkpt>
      <trkpt lat="40.137583" lon="-5.603400">
        <ele>2082.0</ele>
        <time>2015-06-06T14:54:56Z</time>
      </trkpt>
      <trkpt lat="40.137533" lon="-5.603283">
        <ele>2085.0</ele>
        <time>2015-06-06T14:54:58Z</time>
      </trkpt>
      <trkpt lat="40.137400" lon="-5.603267">
        <ele>2086.0</ele>
        <time>2015-06-06T14:55:00Z</time>
      </trkpt>
      <trkpt lat="40.137267" lon="-5.603333">
        <ele>2091.0</ele>
        <time>2015-06-06T14:55:02Z</time>
      </trkpt>
      <trkpt lat="40.137167" lon="-5.603483">
        <ele>2093.0</ele>
        <time>2015-06-06T14:55:04Z</time>
      </trkpt>
      <trkpt lat="40.137067" lon="-5.603717">
        <ele>2090.0</ele>
        <time>2015-06-06T14:55:06Z</time>
      </trkpt>
      <trkpt lat="40.137000" lon="-5.604017">
        <ele>2090.0</ele>
        <time>2015-06-06T14:55:08Z</time>
      </trkpt>
      <trkpt lat="40.137017" lon="-5.604333">
        <ele>2092.0</ele>
        <time>2015-06-06T14:55:10Z</time>
      </trkpt>
      <trkpt lat="40.137067" lon="-5.604650">
        <ele>2094.0</ele>
        <time>2015-06-06T14:55:12Z</time>
      </trkpt>
      <trkpt lat="40.137200" lon="-5.604933">
        <ele>2094.0</ele>
        <time>2015-06-06T14:55:14Z</time>
      </trkpt>
      <trkpt lat="40.137367" lon="-5.605183">
        <ele>2095.0</ele>
        <time>2015-06-06T14:55:16Z</time>
      </trkpt>
      <trkpt lat="40.137533" lon="-5.605333">
        <ele>2096.0</ele>
        <time>2015-06-06T14:55:18Z</time>
      </trkpt>
      <trkpt lat="40.137783" lon="-5.605433">
        <ele>2094.0</ele>
        <time>2015-06-06T14:55:20Z</time>
      </trkpt>
      <trkpt lat="40.138033" lon="-5.605483">
        <ele>2099.0</ele>
        <time>2015-06-06T14:55:22Z</time>
      </trkpt>
      <trkpt lat="40.138217" lon="-5.605500">
        <ele>2104.0</ele>
        <time>2015-06-06T14:55:24Z</time>
      </trkpt>
      <trkpt lat="40.138367" lon="-5.605450">
        <ele>2105.0</ele>
        <time>2015-06-06T14:55:26Z</time>
      </trkpt>
      <trkpt lat="40.138483" lon="-5.605350">
        <ele>2102.0</ele>
        <time>2015-06-06T14:55:28Z</time>
      </trkpt>
      <trkpt lat="40.138533" lon="-5.605183">
        <ele>2101.0</ele>
        <time>2015-06-06T14:55:30Z</time>
      </trkpt>
      <trkpt lat="40.138517" lon="-5.605050">
        <ele>2104.0</ele>
        <time>2015-06-06T14:55:32Z</time>
      </trkpt>
      <trkpt lat="40.138433" lon="-5.604983">
        <ele>2106.0</ele>
        <time>2015-06-06T14:55:34Z</time>
      </trkpt>
      <trkpt lat="40.138317" lon="-5.604983">
        <ele>2108.0</ele>
        <time>2015-06-06T14:55:36Z</time>
      </trkpt>
      <trkpt lat="40.138200" lon="-5.605050">
        <ele>2111.0</ele>
        <time>2015-06-06T14:55:38Z</time>
      </trkpt>
      <trkpt lat="40.138100" lon="-5.605217">
        <ele>2111.0</ele>
        <time>2015-06-06T14:55:40Z</time>
      </trkpt>
      <trkpt lat="40.138033" lon="-5.605467">
        <ele>2112.0</ele>
        <time>2015-06-06T14:55:42Z</time>
      </trkpt>
      <trkpt lat="40.138000" lon="-5.605767">
        <ele>2113.0</ele>
        <time>2015-06-06T14:55:44Z</time>
      </trkpt>
      <trkpt lat="40.138033" lon="-5.606083">
        <ele>2114.0</ele>
        <time>2015-06-06T14:55:46Z</time>
      </trkpt>
      <trkpt lat="40.138117" lon="-5.606400">
        <ele>2116.0</ele>
        <time>2015-06-06T14:55:48Z</time>
      </trkpt>
      <trkpt lat="40.138250" lon="-5.606683">
        <ele>2118.0</ele>
        <time>2015-06-06T14:55:50Z</time>
      </trkpt>
      <trkpt lat="40.138433" lon="-5.606917">
        <ele>2122.0</ele>
        <time>2015-06-06T14:55:52Z</time>
      </trkpt>
      <trkpt lat="40.138633" lon="-5.607050">
        <ele>2123.0</ele>
        <time>2015-06-06T14:55:54Z</time>
      </trkpt>
      <trkpt lat="40.138850" lon="-5.607117">
        <ele>2124.0</ele>
        <time>2015-06-06T14:55:56Z</time>
      </trkpt>
      <trkpt lat="40.139033" lon="-5.607100">
        <ele>2125.0</ele>
        <time>2015-06-06T14:55:58Z</time>
      </trkpt>
      <trkpt lat="40.139167" lon="-5.607033">
        <ele>2123.0</ele>
        <time>2015-06-06T14:56:00Z</time>
      </trkpt>
      <trkpt lat="40.139250" lon="-5.606900">
        <ele>2119.0</ele>
        <time>2015-06-06T14:56:02Z</time>
      </trkpt>
      <trkpt lat="40.139250" lon="-5.606750">
        <ele>2118.0</ele>
        <time>2015-06-06T14:56:04Z</time>
      </trkpt>
      <trkpt lat="40.139200" lon="-5.606633">
        <ele>2118.0</ele>
        <time>2015-06-06T14:56:06Z</time>
      </trkpt>
      <trkpt lat="40.139117" lon="-5.606567">
        <ele>2119.0</ele>
        <time>2015-06-06T14:56:08Z</time>
      </trkpt>
      <trkpt lat="40.138983" lon="-5.606567">
        <ele>2120.0</ele>
        <time>2015-06-06T14:56:10Z</time>
      </trkpt>
      <trkpt lat="40.138867" lon="-5.606667">
        <ele>2123.0</ele>
        <time>2015-06-06T14:56:12Z</time>
      </trkpt>
      <trkpt lat="40.138767" lon="-5.606833">
        <ele>2126.0</ele>
        <time>2015-06-06T14:56:14Z</time>
      </trkpt>
      <trkpt lat="40.138700" lon="-5.607050">
        <ele>2126.0</ele>
        <time>2015-06-06T14:56:16Z</time>
      </trkpt>
      <trkpt lat="40.138667" lon="-5.607350">
        <ele>2128.0</ele>
        <time>2015-06-06T14:56:18Z</time>
      </trkpt>
      <trkpt lat="40.138683" lon="-5.607650">
        <ele>2130.0</ele>
        <time>2015-06-06T14:56:20Z</time>
      </trkpt>
      <trkpt lat="40.138750" lon="-5.607950">
        <ele>2132.0</ele>
        <time>2015-06-06T14:56:22Z</time>
      </trkpt>
      <trkpt lat="40.138867" lon="-5.608250">
        <ele>2135.0</ele>
        <time>2015-06-06T14:56:24Z</time>
      </trkpt>
      <trkpt lat="40.139017" lon="-5.608500">
        <ele>2138.0</ele>
        <time>2015-06-06T14:56:26Z</time>
      </trkpt>
      <trkpt lat="40.139183" lon="-5.608683">
        <ele>2139.0</ele>
        <time>2015-06-06T14:56:28Z</time>
      </trkpt>
      <trkpt lat="40.139400" lon="-5.608817">
        <ele>2137.0</ele>
        <time>2015-06-06T14:56:30Z</time>
      </trkpt>
      <trkpt lat="40.139600" lon="-5.608850">
        <ele>2137.0</ele>
        <time>2015-06-06T14:56:32Z</time>
      </trkpt>
      <trkpt lat="40.139750" lon="-5.608833">
        <ele>2135.0</ele>
        <time>2015-06-06T14:56:34Z</time>
      </trkpt>
      <trkpt lat="40.139867" lon="-5.608750">
        <ele>2131.0</ele>
        <time>2015-06-06T14:56:36Z</time>
      </trkpt>
      <trkpt lat="40.139933" lon="-5.608617">
        <ele>2127.0</ele>
        <time>2015-06-06T14:56:38Z</time>
      </trkpt>
      <trkpt lat="40.139900" lon="-5.608483">
        <ele>2123.0</ele>
        <time>2015-06-06T14:56:40Z</time>
      </trkpt>
      <trkpt lat="40.139833" lon="-5.608367">
        <ele>2122.0</ele>
        <time>2015-06-06T14:56:42Z</time>
      </trkpt>
      <trkpt lat="40.139733" lon="-5.608317">
        <ele>2123.0</ele>
        <time>2015-06-06T14:56:44Z</time>
      </trkpt>
      <trkpt lat="40.139600" lon="-5.608317">
        <ele>2124.0</ele>
        <time>2015-06-06T14:56:46Z</time>
      </trkpt>
      <trkpt lat="40.139483" lon="-5.608367">
        <ele>2127.0</ele>
        <time>2015-06-06T14:56:48Z</time>
      </trkpt>
      <trkpt lat="40.139367" lon="-5.608500">
        <ele>2130.0</ele>
        <time>2015-06-06T14:56:50Z</time>
      </trkpt>
      <trkpt lat="40.139283" lon="-5.608667">
        <ele>2133.0</ele>
        <time>2015-06-06T14:56:52Z</time>
      </trkpt>
      <trkpt lat="40.139200" lon="-5.608917">
        <ele>2136.0</ele>
        <time>2015-06-06T14:56:54Z</time>
      </trkpt>
      <trkpt lat="40.139167" lon="-5.609200">
        <ele>2140.0</ele>
        <time>2015-06-06T14:56:56Z</time>
      </trkpt>
      <trkpt lat="40.139150" lon="-5.609483">
        <ele>2146.0</ele>
        <time>2015-06-06T14:56:58Z</time>
      </trkpt>
      <trkpt lat="40.139217" lon="-5.609750">
        <ele>2148.0</ele>
        <time>2015-06-06T14:57:00Z</time>
      </trkpt>
      <trkpt lat="40.139350" lon="-5.610033">
        <ele>2148.0</ele>
        <time>2015-06-06T14:57:02Z</time>
      </trkpt>
      <trkpt lat="40.139567" lon="-5.610217">
        <ele>2151.0</ele>
        <time>2015-06-06T14:57:04Z</time>
      </trkpt>
      <trkpt lat="40.139783" lon="-5.610267">
        <ele>2153.0</ele>
        <time>2015-06-06T14:57:06Z</time>
      </trkpt>
      <trkpt lat="40.139967" lon="-5.610267">
        <ele>2153.0</ele>
        <time>2015-06-06T14:57:08Z</time>
      </trkpt>
      <trkpt lat="40.140100" lon="-5.610183">
        <ele>2152.0</ele>
        <time>2015-06-06T14:57:10Z</time>
      </trkpt>
      <trkpt lat="40.140150" lon="-5.610033">
        <ele>2151.0</ele>
        <time>2015-06-06T14:57:12Z</time>
      </trkpt>
      <trkpt lat="40.140117" lon="-5.609883">
        <ele>2152.0</ele>
        <time>2015-06-06T14:57:14Z</time>
      </trkpt>
      <trkpt lat="40.140067" lon="-5.609800">
        <ele>2155.0</ele>
        <time>2015-06-06T14:57:16Z</time>
      </trkpt>
      <trkpt lat="40.140000" lon="-5.609767">
        <ele>2158.0</ele>
        <time>2015-06-06T14:57:18Z</time>
      </trkpt>
      <trkpt lat="40.139917" lon="-5.609817">
        <ele>2161.0</ele>
        <time>2015-06-06T14:57:20Z</time>
      </trkpt>
      <trkpt lat="40.139833" lon="-5.609900">
        <ele>2163.0</ele>
        <time>2015-06-06T14:57:22Z</time>
      </trkpt>
      <trkpt lat="40.139750" lon="-5.610050">
        <ele>2162.0</ele>
        <time>2015-06-06T14:57:24Z</time>
      </trkpt>
      <trkpt lat="40.139650" lon="-5.610233">
        <ele>2161.0</ele>
        <time>2015-06-06T14:57:26Z</time>
      </trkpt>
      <trkpt lat="40.139583" lon="-5.610450">
        <ele>2163.0</ele>
        <time>2015-06-06T14:57:28Z</time>
      </trkpt>
      <trkpt lat="40.139517" lon="-5.610700">
        <ele>2162.0</ele>
        <time>2015-06-06T14:57:30Z</time>
      </trkpt>
      <trkpt lat="40.139483" lon="-5.611000">
        <ele>2162.0</ele>
        <time>2015-06-06T14:57:32Z</time>
      </trkpt>
      <trkpt lat="40.139483" lon="-5.611317">
        <ele>2163.0</ele>
        <time>2015-06-06T14:57:34Z</time>
      </trkpt>
      <trkpt lat="40.139517" lon="-5.611650">
        <ele>2162.0</ele>
        <time>2015-06-06T14:57:36Z</time>
      </trkpt>
      <trkpt lat="40.139600" lon="-5.612000">
        <ele>2161.0</ele>
        <time>2015-06-06T14:57:38Z</time>
      </trkpt>
      <trkpt lat="40.139717" lon="-5.612333">
        <ele>2160.0</ele>
        <time>2015-06-06T14:57:40Z</time>
      </trkpt>
      <trkpt lat="40.139833" lon="-5.612683">
        <ele>2160.0</ele>
        <time>2015-06-06T14:57:42Z</time>
      </trkpt>
      <trkpt lat="40.139950" lon="-5.613033">
        <ele>2161.0</ele>
        <time>2015-06-06T14:57:44Z</time>
      </trkpt>
      <trkpt lat="40.140117" lon="-5.613367">
        <ele>2163.0</ele>
        <time>2015-06-06T14:57:46Z</time>
      </trkpt>
      <trkpt lat="40.140300" lon="-5.613633">
        <ele>2166.0</ele>
        <time>2015-06-06T14:57:48Z</time>
      </trkpt>
      <trkpt lat="40.140400" lon="-5.613933">
        <ele>2166.0</ele>
        <time>2015-06-06T14:57:50Z</time>
      </trkpt>
      <trkpt lat="40.140467" lon="-5.614250">
        <ele>2164.0</ele>
        <time>2015-06-06T14:57:52Z</time>
      </trkpt>
      <trkpt lat="40.140667" lon="-5.614483">
        <ele>2159.0</ele>
        <time>2015-06-06T14:57:54Z</time>
      </trkpt>
      <trkpt lat="40.140883" lon="-5.614633">
        <ele>2158.0</ele>
        <time>2015-06-06T14:57:56Z</time>
      </trkpt>
      <trkpt lat="40.141067" lon="-5.614717">
        <ele>2157.0</ele>
        <time>2015-06-06T14:57:58Z</time>
      </trkpt>
      <trkpt lat="40.141267" lon="-5.614767">
        <ele>2154.0</ele>
        <time>2015-06-06T14:58:00Z</time>
      </trkpt>
      <trkpt lat="40.141467" lon="-5.614750">
        <ele>2153.0</ele>
        <time>2015-06-06T14:58:02Z</time>
      </trkpt>
      <trkpt lat="40.141633" lon="-5.614667">
        <ele>2154.0</ele>
        <time>2015-06-06T14:58:04Z</time>
      </trkpt>
      <trkpt lat="40.141767" lon="-5.614617">
        <ele>2156.0</ele>
        <time>2015-06-06T14:58:06Z</time>
      </trkpt>
      <trkpt lat="40.141883" lon="-5.614533">
        <ele>2154.0</ele>
        <time>2015-06-06T14:58:08Z</time>
      </trkpt>
      <trkpt lat="40.141933" lon="-5.614383">
        <ele>2151.0</ele>
        <time>2015-06-06T14:58:10Z</time>
      </trkpt>
      <trkpt lat="40.141900" lon="-5.614250">
        <ele>2149.0</ele>
        <time>2015-06-06T14:58:12Z</time>
      </trkpt>
      <trkpt lat="40.141833" lon="-5.614183">
        <ele>2148.0</ele>
        <time>2015-06-06T14:58:14Z</time>
      </trkpt>
      <trkpt lat="40.141717" lon="-5.614167">
        <ele>2146.0</ele>
        <time>2015-06-06T14:58:16Z</time>
      </trkpt>
      <trkpt lat="40.141567" lon="-5.614217">
        <ele>2142.0</ele>
        <time>2015-06-06T14:58:18Z</time>
      </trkpt>
      <trkpt lat="40.141417" lon="-5.614350">
        <ele>2141.0</ele>
        <time>2015-06-06T14:58:20Z</time>
      </trkpt>
      <trkpt lat="40.141300" lon="-5.614533">
        <ele>2139.0</ele>
        <time>2015-06-06T14:58:22Z</time>
      </trkpt>
      <trkpt lat="40.141183" lon="-5.614767">
        <ele>2135.0</ele>
        <time>2015-06-06T14:58:24Z</time>
      </trkpt>
      <trkpt lat="40.141100" lon="-5.615083">
        <ele>2131.0</ele>
        <time>2015-06-06T14:58:26Z</time>
      </trkpt>
      <trkpt lat="40.141033" lon="-5.615417">
        <ele>2129.0</ele>
        <time>2015-06-06T14:58:28Z</time>
      </trkpt>
      <trkpt lat="40.140967" lon="-5.615733">
        <ele>2128.0</ele>
        <time>2015-06-06T14:58:30Z</time>
      </trkpt>
      <trkpt lat="40.140933" lon="-5.616033">
        <ele>2127.0</ele>
        <time>2015-06-06T14:58:32Z</time>
      </trkpt>
      <trkpt lat="40.140933" lon="-5.616367">
        <ele>2124.0</ele>
        <time>2015-06-06T14:58:34Z</time>
      </trkpt>
      <trkpt lat="40.140983" lon="-5.616717">
        <ele>2121.0</ele>
        <time>2015-06-06T14:58:36Z</time>
      </trkpt>
      <trkpt lat="40.141017" lon="-5.617067">
        <ele>2118.0</ele>
        <time>2015-06-06T14:58:38Z</time>
      </trkpt>
      <trkpt lat="40.141017" lon="-5.617433">
        <ele>2114.0</ele>
        <time>2015-06-06T14:58:40Z</time>
      </trkpt>
      <trkpt lat="40.141017" lon="-5.617817">
        <ele>2112.0</ele>
        <time>2015-06-06T14:58:42Z</time>
      </trkpt>
      <trkpt lat="40.140983" lon="-5.618167">
        <ele>2109.0</ele>
        <time>2015-06-06T14:58:44Z</time>
      </trkpt>
      <trkpt lat="40.140900" lon="-5.618500">
        <ele>2107.0</ele>
        <time>2015-06-06T14:58:46Z</time>
      </trkpt>
      <trkpt lat="40.140850" lon="-5.618833">
        <ele>2106.0</ele>
        <time>2015-06-06T14:58:48Z</time>
      </trkpt>
      <trkpt lat="40.140817" lon="-5.619183">
        <ele>2106.0</ele>
        <time>2015-06-06T14:58:50Z</time>
      </trkpt>
      <trkpt lat="40.140800" lon="-5.619550">
        <ele>2105.0</ele>
        <time>2015-06-06T14:58:52Z</time>
      </trkpt>
      <trkpt lat="40.140833" lon="-5.619900">
        <ele>2107.0</ele>
        <time>2015-06-06T14:58:54Z</time>
      </trkpt>
      <trkpt lat="40.140883" lon="-5.620233">
        <ele>2107.0</ele>
        <time>2015-06-06T14:58:56Z</time>
      </trkpt>
      <trkpt lat="40.140933" lon="-5.620600">
        <ele>2108.0</ele>
        <time>2015-06-06T14:58:58Z</time>
      </trkpt>
      <trkpt lat="40.141000" lon="-5.620967">
        <ele>2109.0</ele>
        <time>2015-06-06T14:59:00Z</time>
      </trkpt>
      <trkpt lat="40.141050" lon="-5.621333">
        <ele>2112.0</ele>
        <time>2015-06-06T14:59:02Z</time>
      </trkpt>
      <trkpt lat="40.141083" lon="-5.621683">
        <ele>2113.0</ele>
        <time>2015-06-06T14:59:04Z</time>
      </trkpt>
      <trkpt lat="40.141133" lon="-5.622050">
        <ele>2111.0</ele>
        <time>2015-06-06T14:59:06Z</time>
      </trkpt>
      <trkpt lat="40.141183" lon="-5.622433">
        <ele>2111.0</ele>
        <time>2015-06-06T14:59:08Z</time>
      </trkpt>
      <trkpt lat="40.141217" lon="-5.622783">
        <ele>2114.0</ele>
        <time>2015-06-06T14:59:10Z</time>
      </trkpt>
      <trkpt lat="40.141300" lon="-5.623083">
        <ele>2113.0</ele>
        <time>2015-06-06T14:59:12Z</time>
      </trkpt>
      <trkpt lat="40.141433" lon="-5.623417">
        <ele>2111.0</ele>
        <time>2015-06-06T14:59:14Z</time>
      </trkpt>
      <trkpt lat="40.141517" lon="-5.623767">
        <ele>2111.0</ele>
        <time>2015-06-06T14:59:16Z</time>
      </trkpt>
      <trkpt lat="40.141533" lon="-5.624117">
        <ele>2109.0</ele>
        <time>2015-06-06T14:59:18Z</time>
      </trkpt>
      <trkpt lat="40.141550" lon="-5.624467">
        <ele>2106.0</ele>
        <time>2015-06-06T14:59:20Z</time>
      </trkpt>
      <trkpt lat="40.141517" lon="-5.624833">
        <ele>2103.0</ele>
        <time>2015-06-06T14:59:22Z</time>
      </trkpt>
      <trkpt lat="40.141483" lon="-5.625183">
        <ele>2102.0</ele>
        <time>2015-06-06T14:59:24Z</time>
      </trkpt>
      <trkpt lat="40.141400" lon="-5.625517">
        <ele>2100.0</ele>
        <time>2015-06-06T14:59:26Z</time>
      </trkpt>
      <trkpt lat="40.141300" lon="-5.625817">
        <ele>2100.0</ele>
        <time>2015-06-06T14:59:28Z</time>
      </trkpt>
      <trkpt lat="40.141200" lon="-5.626100">
        <ele>2100.0</ele>
        <time>2015-06-06T14:59:30Z</time>
      </trkpt>
      <trkpt lat="40.141117" lon="-5.626417">
        <ele>2099.0</ele>
        <time>2015-06-06T14:59:32Z</time>
      </trkpt>
      <trkpt lat="40.141050" lon="-5.626750">
        <ele>2100.0</ele>
        <time>2015-06-06T14:59:34Z</time>
      </trkpt>
      <trkpt lat="40.141033" lon="-5.627117">
        <ele>2100.0</ele>
        <time>2015-06-06T14:59:36Z</time>
      </trkpt>
      <trkpt lat="40.141050" lon="-5.627483">
        <ele>2102.0</ele>
        <time>2015-06-06T14:59:38Z</time>
      </trkpt>
      <trkpt lat="40.141083" lon="-5.627817">
        <ele>2104.0</ele>
        <time>2015-06-06T14:59:40Z</time>
      </trkpt>
      <trkpt lat="40.141200" lon="-5.628133">
        <ele>2102.0</ele>
        <time>2015-06-06T14:59:42Z</time>
      </trkpt>
      <trkpt lat="40.141350" lon="-5.628467">
        <ele>2102.0</ele>
        <time>2015-06-06T14:59:44Z</time>
      </trkpt>
      <trkpt lat="40.141467" lon="-5.628817">
        <ele>2103.0</ele>
        <time>2015-06-06T14:59:46Z</time>
      </trkpt>
      <trkpt lat="40.141567" lon="-5.629150">
        <ele>2103.0</ele>
        <time>2015-06-06T14:59:48Z</time>
      </trkpt>
      <trkpt lat="40.141717" lon="-5.629450">
        <ele>2103.0</ele>
        <time>2015-06-06T14:59:50Z</time>
      </trkpt>
      <trkpt lat="40.141867" lon="-5.629767">
        <ele>2102.0</ele>
        <time>2015-06-06T14:59:52Z</time>
      </trkpt>
      <trkpt lat="40.141967" lon="-5.630133">
        <ele>2102.0</ele>
        <time>2015-06-06T14:59:54Z</time>
      </trkpt>
      <trkpt lat="40.142000" lon="-5.630483">
        <ele>2101.0</ele>
        <time>2015-06-06T14:59:56Z</time>
      </trkpt>
      <trkpt lat="40.142000" lon="-5.630850">
        <ele>2100.0</ele>
        <time>2015-06-06T14:59:58Z</time>
      </trkpt>
      <trkpt lat="40.142000" lon="-5.631233">
        <ele>2097.0</ele>
        <time>2015-06-06T15:00:00Z</time>
      </trkpt>
      <trkpt lat="40.142000" lon="-5.631600">
        <ele>2097.0</ele>
        <time>2015-06-06T15:00:02Z</time>
      </trkpt>
      <trkpt lat="40.142017" lon="-5.631933">
        <ele>2097.0</ele>
        <time>2015-06-06T15:00:04Z</time>
      </trkpt>
      <trkpt lat="40.142067" lon="-5.632300">
        <ele>2094.0</ele>
        <time>2015-06-06T15:00:06Z</time>
      </trkpt>
      <trkpt lat="40.142100" lon="-5.632683">
        <ele>2093.0</ele>
        <time>2015-06-06T15:00:08Z</time>
      </trkpt>
      <trkpt lat="40.142083" lon="-5.633050">
        <ele>2094.0</ele>
        <time>2015-06-06T15:00:10Z</time>
      </trkpt>
      <trkpt lat="40.142083" lon="-5.633400">
        <ele>2096.0</ele>
        <time>2015-06-06T15:00:12Z</time>
      </trkpt>
      <trkpt lat="40.142117" lon="-5.633733">
        <ele>2097.0</ele>
        <time>2015-06-06T15:00:14Z</time>
      </trkpt>
      <trkpt lat="40.142183" lon="-5.634100">
        <ele>2095.0</ele>
        <time>2015-06-06T15:00:16Z</time>
      </trkpt>
      <trkpt lat="40.142283" lon="-5.634450">
        <ele>2092.0</ele>
        <time>2015-06-06T15:00:18Z</time>
      </trkpt>
      <trkpt lat="40.142317" lon="-5.634783">
        <ele>2088.0</ele>
        <time>2015-06-06T15:00:20Z</time>
      </trkpt>
      <trkpt lat="40.142333" lon="-5.635100">
        <ele>2085.0</ele>
        <time>2015-06-06T15:00:22Z</time>
      </trkpt>
      <trkpt lat="40.142350" lon="-5.635383">
        <ele>2081.0</ele>
        <time>2015-06-06T15:00:24Z</time>
      </trkpt>
      <trkpt lat="40.142317" lon="-5.635650">
        <ele>2074.0</ele>
        <time>2015-06-06T15:00:26Z</time>
      </trkpt>
      <trkpt lat="40.142250" lon="-5.635933">
        <ele>2067.0</ele>
        <time>2015-06-06T15:00:28Z</time>
      </trkpt>
      <trkpt lat="40.142200" lon="-5.636217">
        <ele>2060.0</ele>
        <time>2015-06-06T15:00:30Z</time>
      </trkpt>
      <trkpt lat="40.142133" lon="-5.636500">
        <ele>2054.0</ele>
        <time>2015-06-06T15:00:32Z</time>
      </trkpt>
      <trkpt lat="40.142100" lon="-5.636767">
        <ele>2047.0</ele>
        <time>2015-06-06T15:00:34Z</time>
      </trkpt>
      <trkpt lat="40.142033" lon="-5.637050">
        <ele>2040.0</ele>
        <time>2015-06-06T15:00:36Z</time>
      </trkpt>
      <trkpt lat="40.142000" lon="-5.637333">
        <ele>2035.0</ele>
        <time>2015-06-06T15:00:38Z</time>
      </trkpt>
      <trkpt lat="40.141983" lon="-5.637600">
        <ele>2029.0</ele>
        <time>2015-06-06T15:00:40Z</time>
      </trkpt>
      <trkpt lat="40.141933" lon="-5.637883">
        <ele>2020.0</ele>
        <time>2015-06-06T15:00:42Z</time>
      </trkpt>
      <trkpt lat="40.141933" lon="-5.638183">
        <ele>2016.0</ele>
        <time>2015-06-06T15:00:44Z</time>
      </trkpt>
      <trkpt lat="40.141917" lon="-5.638450">
        <ele>2011.0</ele>
        <time>2015-06-06T15:00:46Z</time>
      </trkpt>
      <trkpt lat="40.141883" lon="-5.638767">
        <ele>2004.0</ele>
        <time>2015-06-06T15:00:48Z</time>
      </trkpt>
      <trkpt lat="40.141817" lon="-5.639050">
        <ele>1999.0</ele>
        <time>2015-06-06T15:00:50Z</time>
      </trkpt>
      <trkpt lat="40.141750" lon="-5.639300">
        <ele>1995.0</ele>
        <time>2015-06-06T15:00:52Z</time>
      </trkpt>
      <trkpt lat="40.141683" lon="-5.639533">
        <ele>1987.0</ele>
        <time>2015-06-06T15:00:54Z</time>
      </trkpt>
      <trkpt lat="40.141617" lon="-5.639800">
        <ele>1980.0</ele>
        <time>2015-06-06T15:00:56Z</time>
      </trkpt>
      <trkpt lat="40.141533" lon="-5.640050">
        <ele>1974.0</ele>
        <time>2015-06-06T15:00:58Z</time>
      </trkpt>
      <trkpt lat="40.141467" lon="-5.640317">
        <ele>1971.0</ele>
        <time>2015-06-06T15:01:00Z</time>
      </trkpt>
      <trkpt lat="40.141433" lon="-5.640550">
        <ele>1965.0</ele>
        <time>2015-06-06T15:01:02Z</time>
      </trkpt>
      <trkpt lat="40.141400" lon="-5.640833">
        <ele>1957.0</ele>
        <time>2015-06-06T15:01:04Z</time>
      </trkpt>
      <trkpt lat="40.141367" lon="-5.641117">
        <ele>1951.0</ele>
        <time>2015-06-06T15:01:06Z</time>
      </trkpt>
      <trkpt lat="40.141300" lon="-5.641350">
        <ele>1945.0</ele>
        <time>2015-06-06T15:01:08Z</time>
      </trkpt>
      <trkpt lat="40.141267" lon="-5.641617">
        <ele>1938.0</ele>
        <time>2015-06-06T15:01:10Z</time>
      </trkpt>
      <trkpt lat="40.141233" lon="-5.641900">
        <ele>1932.0</ele>
        <time>2015-06-06T15:01:12Z</time>
      </trkpt>
      <trkpt lat="40.141233" lon="-5.642167">
        <ele>1926.0</ele>
        <time>2015-06-06T15:01:14Z</time>
      </trkpt>
      <trkpt lat="40.141217" lon="-5.642467">
        <ele>1919.0</ele>
        <time>2015-06-06T15:01:16Z</time>
      </trkpt>
      <trkpt lat="40.141200" lon="-5.642767">
        <ele>1912.0</ele>
        <time>2015-06-06T15:01:18Z</time>
      </trkpt>
      <trkpt lat="40.141167" lon="-5.643067">
        <ele>1907.0</ele>
        <time>2015-06-06T15:01:20Z</time>
      </trkpt>
      <trkpt lat="40.141150" lon="-5.643333">
        <ele>1900.0</ele>
        <time>2015-06-06T15:01:22Z</time>
      </trkpt>
      <trkpt lat="40.141117" lon="-5.643617">
        <ele>1892.0</ele>
        <time>2015-06-06T15:01:24Z</time>
      </trkpt>
      <trkpt lat="40.141067" lon="-5.643933">
        <ele>1887.0</ele>
        <time>2015-06-06T15:01:26Z</time>
      </trkpt>
      <trkpt lat="40.141033" lon="-5.644200">
        <ele>1885.0</ele>
        <time>2015-06-06T15:01:28Z</time>
      </trkpt>
      <trkpt lat="40.141017" lon="-5.644467">
        <ele>1879.0</ele>
        <time>2015-06-06T15:01:30Z</time>
      </trkpt>
      <trkpt lat="40.141000" lon="-5.644767">
        <ele>1873.0</ele>
        <time>2015-06-06T15:01:32Z</time>
      </trkpt>
      <trkpt lat="40.140967" lon="-5.645050">
        <ele>1869.0</ele>
        <time>2015-06-06T15:01:34Z</time>
      </trkpt>
      <trkpt lat="40.140950" lon="-5.645317">
        <ele>1863.0</ele>
        <time>2015-06-06T15:01:36Z</time>
      </trkpt>
      <trkpt lat="40.140933" lon="-5.645633">
        <ele>1855.0</ele>
        <time>2015-06-06T15:01:38Z</time>
      </trkpt>
      <trkpt lat="40.140900" lon="-5.645967">
        <ele>1848.0</ele>
        <time>2015-06-06T15:01:40Z</time>
      </trkpt>
      <trkpt lat="40.140883" lon="-5.646267">
        <ele>1845.0</ele>
        <time>2015-06-06T15:01:42Z</time>
      </trkpt>
      <trkpt lat="40.140867" lon="-5.646550">
        <ele>1838.0</ele>
        <time>2015-06-06T15:01:44Z</time>
      </trkpt>
      <trkpt lat="40.140833" lon="-5.646867">
        <ele>1830.0</ele>
        <time>2015-06-06T15:01:46Z</time>
      </trkpt>
      <trkpt lat="40.140817" lon="-5.647167">
        <ele>1825.0</ele>
        <time>2015-06-06T15:01:48Z</time>
      </trkpt>
      <trkpt lat="40.140800" lon="-5.647433">
        <ele>1819.0</ele>
        <time>2015-06-06T15:01:50Z</time>
      </trkpt>
      <trkpt lat="40.140783" lon="-5.647717">
        <ele>1811.0</ele>
        <time>2015-06-06T15:01:52Z</time>
      </trkpt>
      <trkpt lat="40.140767" lon="-5.648033">
        <ele>1805.0</ele>
        <time>2015-06-06T15:01:54Z</time>
      </trkpt>
      <trkpt lat="40.140750" lon="-5.648317">
        <ele>1799.0</ele>
        <time>2015-06-06T15:01:56Z</time>
      </trkpt>
      <trkpt lat="40.140733" lon="-5.648600">
        <ele>1794.0</ele>
        <time>2015-06-06T15:01:58Z</time>
      </trkpt>
      <trkpt lat="40.140683" lon="-5.648883">
        <ele>1789.0</ele>
        <time>2015-06-06T15:02:00Z</time>
      </trkpt>
      <trkpt lat="40.140633" lon="-5.649133">
        <ele>1785.0</ele>
        <time>2015-06-06T15:02:02Z</time>
      </trkpt>
      <trkpt lat="40.140600" lon="-5.649400">
        <ele>1780.0</ele>
        <time>2015-06-06T15:02:04Z</time>
      </trkpt>
      <trkpt lat="40.140533" lon="-5.649667">
        <ele>1775.0</ele>
        <time>2015-06-06T15:02:06Z</time>
      </trkpt>
      <trkpt lat="40.140467" lon="-5.649917">
        <ele>1771.0</ele>
        <time>2015-06-06T15:02:08Z</time>
      </trkpt>
      <trkpt lat="40.140400" lon="-5.650167">
        <ele>1769.0</ele>
        <time>2015-06-06T15:02:10Z</time>
      </trkpt>
      <trkpt lat="40.140317" lon="-5.650400">
        <ele>1765.0</ele>
        <time>2015-06-06T15:02:12Z</time>
      </trkpt>
      <trkpt lat="40.140250" lon="-5.650633">
        <ele>1760.0</ele>
        <time>2015-06-06T15:02:14Z</time>
      </trkpt>
      <trkpt lat="40.140167" lon="-5.650883">
        <ele>1754.0</ele>
        <time>2015-06-06T15:02:16Z</time>
      </trkpt>
      <trkpt lat="40.140067" lon="-5.651100">
        <ele>1749.0</ele>
        <time>2015-06-06T15:02:18Z</time>
      </trkpt>
      <trkpt lat="40.139967" lon="-5.651317">
        <ele>1745.0</ele>
        <time>2015-06-06T15:02:20Z</time>
      </trkpt>
      <trkpt lat="40.139883" lon="-5.651533">
        <ele>1741.0</ele>
        <time>2015-06-06T15:02:22Z</time>
      </trkpt>
      <trkpt lat="40.139800" lon="-5.651767">
        <ele>1736.0</ele>
        <time>2015-06-06T15:02:24Z</time>
      </trkpt>
      <trkpt lat="40.139700" lon="-5.652017">
        <ele>1731.0</ele>
        <time>2015-06-06T15:02:26Z</time>
      </trkpt>
      <trkpt lat="40.139633" lon="-5.652250">
        <ele>1726.0</ele>
        <time>2015-06-06T15:02:28Z</time>
      </trkpt>
      <trkpt lat="40.139550" lon="-5.652483">
        <ele>1720.0</ele>
        <time>2015-06-06T15:02:30Z</time>
      </trkpt>
      <trkpt lat="40.139450" lon="-5.652733">
        <ele>1712.0</ele>
        <time>2015-06-06T15:02:32Z</time>
      </trkpt>
      <trkpt lat="40.139350" lon="-5.652983">
        <ele>1707.0</ele>
        <time>2015-06-06T15:02:34Z</time>
      </trkpt>
      <trkpt lat="40.139267" lon="-5.653217">
        <ele>1700.0</ele>
        <time>2015-06-06T15:02:36Z</time>
      </trkpt>
      <trkpt lat="40.139150" lon="-5.653417">
        <ele>1692.0</ele>
        <time>2015-06-06T15:02:38Z</time>
      </trkpt>
      <trkpt lat="40.139033" lon="-5.653667">
        <ele>1684.0</ele>
        <time>2015-06-06T15:02:40Z</time>
      </trkpt>
      <trkpt lat="40.138933" lon="-5.653900">
        <ele>1678.0</ele>
        <time>2015-06-06T15:02:42Z</time>
      </trkpt>
      <trkpt lat="40.138833" lon="-5.654117">
        <ele>1672.0</ele>
        <time>2015-06-06T15:02:44Z</time>
      </trkpt>
      <trkpt lat="40.138783" lon="-5.654383">
        <ele>1664.0</ele>
        <time>2015-06-06T15:02:46Z</time>
      </trkpt>
      <trkpt lat="40.138733" lon="-5.654683">
        <ele>1657.0</ele>
        <time>2015-06-06T15:02:48Z</time>
      </trkpt>
      <trkpt lat="40.138683" lon="-5.654967">
        <ele>1651.0</ele>
        <time>2015-06-06T15:02:50Z</time>
      </trkpt>
      <trkpt lat="40.138633" lon="-5.655267">
        <ele>1645.0</ele>
        <time>2015-06-06T15:02:52Z</time>
      </trkpt>
      <trkpt lat="40.138567" lon="-5.655567">
        <ele>1640.0</ele>
        <time>2015-06-06T15:02:54Z</time>
      </trkpt>
      <trkpt lat="40.138500" lon="-5.655850">
        <ele>1635.0</ele>
        <time>2015-06-06T15:02:56Z</time>
      </trkpt>
      <trkpt lat="40.138450" lon="-5.656100">
        <ele>1630.0</ele>
        <time>2015-06-06T15:02:58Z</time>
      </trkpt>
      <trkpt lat="40.138367" lon="-5.656367">
        <ele>1626.0</ele>
        <time>2015-06-06T15:03:00Z</time>
      </trkpt>
      <trkpt lat="40.138317" lon="-5.656650">
        <ele>1621.0</ele>
        <time>2015-06-06T15:03:02Z</time>
      </trkpt>
      <trkpt lat="40.138267" lon="-5.656950">
        <ele>1617.0</ele>
        <time>2015-06-06T15:03:04Z</time>
      </trkpt>
      <trkpt lat="40.138217" lon="-5.657250">
        <ele>1612.0</ele>
        <time>2015-06-06T15:03:06Z</time>
      </trkpt>
      <trkpt lat="40.138183" lon="-5.657583">
        <ele>1609.0</ele>
        <time>2015-06-06T15:03:08Z</time>
      </trkpt>
      <trkpt lat="40.138150" lon="-5.657883">
        <ele>1607.0</ele>
        <time>2015-06-06T15:03:10Z</time>
      </trkpt>
      <trkpt lat="40.138117" lon="-5.658200">
        <ele>1602.0</ele>
        <time>2015-06-06T15:03:12Z</time>
      </trkpt>
      <trkpt lat="40.138067" lon="-5.658533">
        <ele>1598.0</ele>
        <time>2015-06-06T15:03:14Z</time>
      </trkpt>
      <trkpt lat="40.138033" lon="-5.658850">
        <ele>1596.0</ele>
        <time>2015-06-06T15:03:16Z</time>
      </trkpt>
      <trkpt lat="40.138000" lon="-5.659167">
        <ele>1593.0</ele>
        <time>2015-06-06T15:03:18Z</time>
      </trkpt>
      <trkpt lat="40.137950" lon="-5.659467">
        <ele>1589.0</ele>
        <time>2015-06-06T15:03:20Z</time>
      </trkpt>
      <trkpt lat="40.137900" lon="-5.659767">
        <ele>1585.0</ele>
        <time>2015-06-06T15:03:22Z</time>
      </trkpt>
      <trkpt lat="40.137883" lon="-5.660083">
        <ele>1580.0</ele>
        <time>2015-06-06T15:03:24Z</time>
      </trkpt>
      <trkpt lat="40.137867" lon="-5.660400">
        <ele>1576.0</ele>
        <time>2015-06-06T15:03:26Z</time>
      </trkpt>
      <trkpt lat="40.137833" lon="-5.660700">
        <ele>1572.0</ele>
        <time>2015-06-06T15:03:28Z</time>
      </trkpt>
      <trkpt lat="40.137783" lon="-5.661017">
        <ele>1567.0</ele>
        <time>2015-06-06T15:03:30Z</time>
      </trkpt>
      <trkpt lat="40.137750" lon="-5.661333">
        <ele>1563.0</ele>
        <time>2015-06-06T15:03:32Z</time>
      </trkpt>
      <trkpt lat="40.137717" lon="-5.661617">
        <ele>1558.0</ele>
        <time>2015-06-06T15:03:34Z</time>
      </trkpt>
      <trkpt lat="40.137667" lon="-5.661917">
        <ele>1553.0</ele>
        <time>2015-06-06T15:03:36Z</time>
      </trkpt>
      <trkpt lat="40.137617" lon="-5.662217">
        <ele>1550.0</ele>
        <time>2015-06-06T15:03:38Z</time>
      </trkpt>
      <trkpt lat="40.137550" lon="-5.662500">
        <ele>1546.0</ele>
        <time>2015-06-06T15:03:40Z</time>
      </trkpt>
      <trkpt lat="40.137483" lon="-5.662800">
        <ele>1541.0</ele>
        <time>2015-06-06T15:03:42Z</time>
      </trkpt>
      <trkpt lat="40.137400" lon="-5.663083">
        <ele>1537.0</ele>
        <time>2015-06-06T15:03:44Z</time>
      </trkpt>
      <trkpt lat="40.137317" lon="-5.663317">
        <ele>1533.0</ele>
        <time>2015-06-06T15:03:46Z</time>
      </trkpt>
      <trkpt lat="40.137200" lon="-5.663567">
        <ele>1527.0</ele>
        <time>2015-06-06T15:03:48Z</time>
      </trkpt>
      <trkpt lat="40.137100" lon="-5.663833">
        <ele>1522.0</ele>
        <time>2015-06-06T15:03:50Z</time>
      </trkpt>
      <trkpt lat="40.137017" lon="-5.664100">
        <ele>1517.0</ele>
        <time>2015-06-06T15:03:52Z</time>
      </trkpt>
      <trkpt lat="40.136950" lon="-5.664383">
        <ele>1514.0</ele>
        <time>2015-06-06T15:03:54Z</time>
      </trkpt>
      <trkpt lat="40.136900" lon="-5.664683">
        <ele>1508.0</ele>
        <time>2015-06-06T15:03:56Z</time>
      </trkpt>
      <trkpt lat="40.136817" lon="-5.665000">
        <ele>1502.0</ele>
        <time>2015-06-06T15:03:58Z</time>
      </trkpt>
      <trkpt lat="40.136733" lon="-5.665283">
        <ele>1498.0</ele>
        <time>2015-06-06T15:04:00Z</time>
      </trkpt>
      <trkpt lat="40.136650" lon="-5.665567">
        <ele>1495.0</ele>
        <time>2015-06-06T15:04:02Z</time>
      </trkpt>
      <trkpt lat="40.136567" lon="-5.665850">
        <ele>1492.0</ele>
        <time>2015-06-06T15:04:04Z</time>
      </trkpt>
      <trkpt lat="40.136483" lon="-5.666133">
        <ele>1491.0</ele>
        <time>2015-06-06T15:04:06Z</time>
      </trkpt>
      <trkpt lat="40.136417" lon="-5.666367">
        <ele>1489.0</ele>
        <time>2015-06-06T15:04:08Z</time>
      </trkpt>
      <trkpt lat="40.136367" lon="-5.666617">
        <ele>1485.0</ele>
        <time>2015-06-06T15:04:10Z</time>
      </trkpt>
      <trkpt lat="40.136317" lon="-5.666883">
        <ele>1477.0</ele>
        <time>2015-06-06T15:04:12Z</time>
      </trkpt>
      <trkpt lat="40.136233" lon="-5.667167">
        <ele>1470.0</ele>
        <time>2015-06-06T15:04:14Z</time>
      </trkpt>
      <trkpt lat="40.136150" lon="-5.667433">
        <ele>1465.0</ele>
        <time>2015-06-06T15:04:16Z</time>
      </trkpt>
      <trkpt lat="40.136067" lon="-5.667683">
        <ele>1459.0</ele>
        <time>2015-06-06T15:04:18Z</time>
      </trkpt>
      <trkpt lat="40.135967" lon="-5.667950">
        <ele>1452.0</ele>
        <time>2015-06-06T15:04:20Z</time>
      </trkpt>
      <trkpt lat="40.135900" lon="-5.668183">
        <ele>1446.0</ele>
        <time>2015-06-06T15:04:22Z</time>
      </trkpt>
      <trkpt lat="40.135850" lon="-5.668417">
        <ele>1439.0</ele>
        <time>2015-06-06T15:04:24Z</time>
      </trkpt>
      <trkpt lat="40.135767" lon="-5.668700">
        <ele>1431.0</ele>
        <time>2015-06-06T15:04:26Z</time>
      </trkpt>
      <trkpt lat="40.135667" lon="-5.669017">
        <ele>1429.0</ele>
        <time>2015-06-06T15:04:28Z</time>
      </trkpt>
      <trkpt lat="40.135583" lon="-5.669300">
        <ele>1433.0</ele>
        <time>2015-06-06T15:04:30Z</time>
      </trkpt>
      <trkpt lat="40.135533" lon="-5.669500">
        <ele>1436.0</ele>
        <time>2015-06-06T15:04:32Z</time>
      </trkpt>
      <trkpt lat="40.135483" lon="-5.669733">
        <ele>1434.0</ele>
        <time>2015-06-06T15:04:34Z</time>
      </trkpt>
      <trkpt lat="40.135500" lon="-5.670050">
        <ele>1438.0</ele>
        <time>2015-06-06T15:04:36Z</time>
      </trkpt>
      <trkpt lat="40.135600" lon="-5.670317">
        <ele>1442.0</ele>
        <time>2015-06-06T15:04:38Z</time>
      </trkpt>
      <trkpt lat="40.135750" lon="-5.670550">
        <ele>1445.0</ele>
        <time>2015-06-06T15:04:40Z</time>
      </trkpt>
      <trkpt lat="40.135933" lon="-5.670750">
        <ele>1442.0</ele>
        <time>2015-06-06T15:04:42Z</time>
      </trkpt>
      <trkpt lat="40.136183" lon="-5.670850">
        <ele>1440.0</ele>
        <time>2015-06-06T15:04:44Z</time>
      </trkpt>
      <trkpt lat="40.136383" lon="-5.670850">
        <ele>1443.0</ele>
        <time>2015-06-06T15:04:46Z</time>
      </trkpt>
      <trkpt lat="40.136517" lon="-5.670817">
        <ele>1443.0</ele>
        <time>2015-06-06T15:04:48Z</time>
      </trkpt>
      <trkpt lat="40.136617" lon="-5.670700">
        <ele>1438.0</ele>
        <time>2015-06-06T15:04:50Z</time>
      </trkpt>
      <trkpt lat="40.136600" lon="-5.670533">
        <ele>1435.0</ele>
        <time>2015-06-06T15:04:52Z</time>
      </trkpt>
      <trkpt lat="40.136500" lon="-5.670500">
        <ele>1431.0</ele>
        <time>2015-06-06T15:04:54Z</time>
      </trkpt>
      <trkpt lat="40.136350" lon="-5.670517">
        <ele>1431.0</ele>
        <time>2015-06-06T15:04:56Z</time>
      </trkpt>
      <trkpt lat="40.136217" lon="-5.670617">
        <ele>1430.0</ele>
        <time>2015-06-06T15:04:58Z</time>
      </trkpt>
      <trkpt lat="40.136117" lon="-5.670800">
        <ele>1429.0</ele>
        <time>2015-06-06T15:05:00Z</time>
      </trkpt>
      <trkpt lat="40.136067" lon="-5.671050">
        <ele>1427.0</ele>
        <time>2015-06-06T15:05:02Z</time>
      </trkpt>
      <trkpt lat="40.136000" lon="-5.671300">
        <ele>1427.0</ele>
        <time>2015-06-06T15:05:04Z</time>
      </trkpt>
      <trkpt lat="40.135917" lon="-5.671517">
        <ele>1426.0</ele>
        <time>2015-06-06T15:05:06Z</time>
      </trkpt>
      <trkpt lat="40.135867" lon="-5.671767">
        <ele>1427.0</ele>
        <time>2015-06-06T15:05:08Z</time>
      </trkpt>
      <trkpt lat="40.135850" lon="-5.672050">
        <ele>1425.0</ele>
        <time>2015-06-06T15:05:10Z</time>
      </trkpt>
      <trkpt lat="40.135800" lon="-5.672400">
        <ele>1425.0</ele>
        <time>2015-06-06T15:05:12Z</time>
      </trkpt>
      <trkpt lat="40.135717" lon="-5.672683">
        <ele>1430.0</ele>
        <time>2015-06-06T15:05:14Z</time>
      </trkpt>
      <trkpt lat="40.135667" lon="-5.672933">
        <ele>1434.0</ele>
        <time>2015-06-06T15:05:16Z</time>
      </trkpt>
      <trkpt lat="40.135683" lon="-5.673233">
        <ele>1436.0</ele>
        <time>2015-06-06T15:05:18Z</time>
      </trkpt>
      <trkpt lat="40.135800" lon="-5.673533">
        <ele>1438.0</ele>
        <time>2015-06-06T15:05:20Z</time>
      </trkpt>
      <trkpt lat="40.135983" lon="-5.673750">
        <ele>1442.0</ele>
        <time>2015-06-06T15:05:22Z</time>
      </trkpt>
      <trkpt lat="40.136183" lon="-5.673833">
        <ele>1447.0</ele>
        <time>2015-06-06T15:05:24Z</time>
      </trkpt>
      <trkpt lat="40.136317" lon="-5.673817">
        <ele>1451.0</ele>
        <time>2015-06-06T15:05:26Z</time>
      </trkpt>
      <trkpt lat="40.136417" lon="-5.673717">
        <ele>1453.0</ele>
        <time>2015-06-06T15:05:28Z</time>
      </trkpt>
      <trkpt lat="40.136433" lon="-5.673567">
        <ele>1455.0</ele>
        <time>2015-06-06T15:05:30Z</time>
      </trkpt>
      <trkpt lat="40.136350" lon="-5.673483">
        <ele>1459.0</ele>
        <time>2015-06-06T15:05:32Z</time>
      </trkpt>
      <trkpt lat="40.136250" lon="-5.673533">
        <ele>1463.0</ele>
        <time>2015-06-06T15:05:34Z</time>
      </trkpt>
      <trkpt lat="40.136133" lon="-5.673633">
        <ele>1462.0</ele>
        <time>2015-06-06T15:05:36Z</time>
      </trkpt>
      <trkpt lat="40.136000" lon="-5.673867">
        <ele>1464.0</ele>
        <time>2015-06-06T15:05:38Z</time>
      </trkpt>
      <trkpt lat="40.135950" lon="-5.674150">
        <ele>1471.0</ele>
        <time>2015-06-06T15:05:40Z</time>
      </trkpt>
      <trkpt lat="40.135933" lon="-5.674400">
        <ele>1475.0</ele>
        <time>2015-06-06T15:05:42Z</time>
      </trkpt>
      <trkpt lat="40.135983" lon="-5.674767">
        <ele>1476.0</ele>
        <time>2015-06-06T15:05:44Z</time>
      </trkpt>
      <trkpt lat="40.136117" lon="-5.675117">
        <ele>1483.0</ele>
        <time>2015-06-06T15:05:46Z</time>
      </trkpt>
      <trkpt lat="40.136267" lon="-5.675300">
        <ele>1491.0</ele>
        <time>2015-06-06T15:05:48Z</time>
      </trkpt>
      <trkpt lat="40.136450" lon="-5.675433">
        <ele>1493.0</ele>
        <time>2015-06-06T15:05:50Z</time>
      </trkpt>
      <trkpt lat="40.136650" lon="-5.675483">
        <ele>1497.0</ele>
        <time>2015-06-06T15:05:52Z</time>
      </trkpt>
      <trkpt lat="40.136800" lon="-5.675417">
        <ele>1500.0</ele>
        <time>2015-06-06T15:05:54Z</time>
      </trkpt>
      <trkpt lat="40.136883" lon="-5.675300">
        <ele>1505.0</ele>
        <time>2015-06-06T15:05:56Z</time>
      </trkpt>
      <trkpt lat="40.136900" lon="-5.675167">
        <ele>1508.0</ele>
        <time>2015-06-06T15:05:58Z</time>
      </trkpt>
      <trkpt lat="40.136817" lon="-5.675083">
        <ele>1509.0</ele>
        <time>2015-06-06T15:06:00Z</time>
      </trkpt>
      <trkpt lat="40.136683" lon="-5.675100">
        <ele>1514.0</ele>
        <time>2015-06-06T15:06:02Z</time>
      </trkpt>
      <trkpt lat="40.136583" lon="-5.675167">
        <ele>1517.0</ele>
        <time>2015-06-06T15:06:04Z</time>
      </trkpt>
      <trkpt lat="40.136450" lon="-5.675300">
        <ele>1519.0</ele>
        <time>2015-06-06T15:06:06Z</time>
      </trkpt>
      <trkpt lat="40.136350" lon="-5.675550">
        <ele>1520.0</ele>
        <time>2015-06-06T15:06:08Z</time>
      </trkpt>
      <trkpt lat="40.136267" lon="-5.675850">
        <ele>1526.0</ele>
        <time>2015-06-06T15:06:10Z</time>
      </trkpt>
      <trkpt lat="40.136233" lon="-5.676133">
        <ele>1534.0</ele>
        <time>2015-06-06T15:06:12Z</time>
      </trkpt>
      <trkpt lat="40.136283" lon="-5.676450">
        <ele>1538.0</ele>
        <time>2015-06-06T15:06:14Z</time>
      </trkpt>
      <trkpt lat="40.136417" lon="-5.676783">
        <ele>1542.0</ele>
        <time>2015-06-06T15:06:16Z</time>
      </trkpt>
      <trkpt lat="40.136583" lon="-5.677017">
        <ele>1549.0</ele>
        <time>2015-06-06T15:06:18Z</time>
      </trkpt>
      <trkpt lat="40.136767" lon="-5.677133">
        <ele>1554.0</ele>
        <time>2015-06-06T15:06:20Z</time>
      </trkpt>
      <trkpt lat="40.136950" lon="-5.677167">
        <ele>1555.0</ele>
        <time>2015-06-06T15:06:22Z</time>
      </trkpt>
      <trkpt lat="40.137117" lon="-5.677083">
        <ele>1561.0</ele>
        <time>2015-06-06T15:06:24Z</time>
      </trkpt>
      <trkpt lat="40.137150" lon="-5.676983">
        <ele>1566.0</ele>
        <time>2015-06-06T15:06:26Z</time>
      </trkpt>
      <trkpt lat="40.137117" lon="-5.676883">
        <ele>1570.0</ele>
        <time>2015-06-06T15:06:28Z</time>
      </trkpt>
      <trkpt lat="40.137017" lon="-5.676867">
        <ele>1572.0</ele>
        <time>2015-06-06T15:06:30Z</time>
      </trkpt>
      <trkpt lat="40.136867" lon="-5.676950">
        <ele>1573.0</ele>
        <time>2015-06-06T15:06:32Z</time>
      </trkpt>
      <trkpt lat="40.136733" lon="-5.677133">
        <ele>1576.0</ele>
        <time>2015-06-06T15:06:34Z</time>
      </trkpt>
      <trkpt lat="40.136633" lon="-5.677367">
        <ele>1583.0</ele>
        <time>2015-06-06T15:06:36Z</time>
      </trkpt>
      <trkpt lat="40.136567" lon="-5.677633">
        <ele>1588.0</ele>
        <time>2015-06-06T15:06:38Z</time>
      </trkpt>
      <trkpt lat="40.136567" lon="-5.677967">
        <ele>1593.0</ele>
        <time>2015-06-06T15:06:40Z</time>
      </trkpt>
      <trkpt lat="40.136633" lon="-5.678300">
        <ele>1598.0</ele>
        <time>2015-06-06T15:06:42Z</time>
      </trkpt>
      <trkpt lat="40.136750" lon="-5.678583">
        <ele>1603.0</ele>
        <time>2015-06-06T15:06:44Z</time>
      </trkpt>
      <trkpt lat="40.136917" lon="-5.678783">
        <ele>1606.0</ele>
        <time>2015-06-06T15:06:46Z</time>
      </trkpt>
      <trkpt lat="40.137133" lon="-5.678883">
        <ele>1609.0</ele>
        <time>2015-06-06T15:06:48Z</time>
      </trkpt>
      <trkpt lat="40.137300" lon="-5.678883">
        <ele>1614.0</ele>
        <time>2015-06-06T15:06:50Z</time>
      </trkpt>
      <trkpt lat="40.137383" lon="-5.678783">
        <ele>1617.0</ele>
        <time>2015-06-06T15:06:52Z</time>
      </trkpt>
      <trkpt lat="40.137383" lon="-5.678667">
        <ele>1621.0</ele>
        <time>2015-06-06T15:06:54Z</time>
      </trkpt>
      <trkpt lat="40.137300" lon="-5.678617">
        <ele>1625.0</ele>
        <time>2015-06-06T15:06:56Z</time>
      </trkpt>
      <trkpt lat="40.137167" lon="-5.678650">
        <ele>1630.0</ele>
        <time>2015-06-06T15:06:58Z</time>
      </trkpt>
      <trkpt lat="40.137033" lon="-5.678783">
        <ele>1635.0</ele>
        <time>2015-06-06T15:07:00Z</time>
      </trkpt>
      <trkpt lat="40.136917" lon="-5.679017">
        <ele>1639.0</ele>
        <time>2015-06-06T15:07:02Z</time>
      </trkpt>
      <trkpt lat="40.136867" lon="-5.679317">
        <ele>1645.0</ele>
        <time>2015-06-06T15:07:04Z</time>
      </trkpt>
      <trkpt lat="40.136867" lon="-5.679633">
        <ele>1650.0</ele>
        <time>2015-06-06T15:07:06Z</time>
      </trkpt>
      <trkpt lat="40.136933" lon="-5.679950">
        <ele>1655.0</ele>
        <time>2015-06-06T15:07:08Z</time>
      </trkpt>
      <trkpt lat="40.137050" lon="-5.680233">
        <ele>1659.0</ele>
        <time>2015-06-06T15:07:10Z</time>
      </trkpt>
      <trkpt lat="40.137233" lon="-5.680417">
        <ele>1662.0</ele>
        <time>2015-06-06T15:07:12Z</time>
      </trkpt>
      <trkpt lat="40.137417" lon="-5.680500">
        <ele>1665.0</ele>
        <time>2015-06-06T15:07:14Z</time>
      </trkpt>
      <trkpt lat="40.137567" lon="-5.680450">
        <ele>1668.0</ele>
        <time>2015-06-06T15:07:16Z</time>
      </trkpt>
      <trkpt lat="40.137633" lon="-5.680350">
        <ele>1670.0</ele>
        <time>2015-06-06T15:07:18Z</time>
      </trkpt>
      <trkpt lat="40.137583" lon="-5.680250">
        <ele>1673.0</ele>
        <time>2015-06-06T15:07:20Z</time>
      </trkpt>
      <trkpt lat="40.137433" lon="-5.680250">
        <ele>1677.0</ele>
        <time>2015-06-06T15:07:22Z</time>
      </trkpt>
      <trkpt lat="40.137300" lon="-5.680350">
        <ele>1683.0</ele>
        <time>2015-06-06T15:07:24Z</time>
      </trkpt>
      <trkpt lat="40.137167" lon="-5.680517">
        <ele>1688.0</ele>
        <time>2015-06-06T15:07:26Z</time>
      </trkpt>
      <trkpt lat="40.137067" lon="-5.680767">
        <ele>1691.0</ele>
        <time>2015-06-06T15:07:28Z</time>
      </trkpt>
      <trkpt lat="40.137033" lon="-5.681083">
        <ele>1695.0</ele>
        <time>2015-06-06T15:07:30Z</time>
      </trkpt>
      <trkpt lat="40.137067" lon="-5.681400">
        <ele>1700.0</ele>
        <time>2015-06-06T15:07:32Z</time>
      </trkpt>
      <trkpt lat="40.137133" lon="-5.681683">
        <ele>1702.0</ele>
        <time>2015-06-06T15:07:34Z</time>
      </trkpt>
      <trkpt lat="40.137267" lon="-5.681933">
        <ele>1703.0</ele>
        <time>2015-06-06T15:07:36Z</time>
      </trkpt>
      <trkpt lat="40.137467" lon="-5.682017">
        <ele>1703.0</ele>
        <time>2015-06-06T15:07:38Z</time>
      </trkpt>
      <trkpt lat="40.137617" lon="-5.681983">
        <ele>1707.0</ele>
        <time>2015-06-06T15:07:40Z</time>
      </trkpt>
      <trkpt lat="40.137717" lon="-5.681917">
        <ele>1710.0</ele>
        <time>2015-06-06T15:07:42Z</time>
      </trkpt>
      <trkpt lat="40.137767" lon="-5.681817">
        <ele>1712.0</ele>
        <time>2015-06-06T15:07:44Z</time>
      </trkpt>
      <trkpt lat="40.137717" lon="-5.681717">
        <ele>1715.0</ele>
        <time>2015-06-06T15:07:46Z</time>
      </trkpt>
      <trkpt lat="40.137617" lon="-5.681683">
        <ele>1719.0</ele>
        <time>2015-06-06T15:07:48Z</time>
      </trkpt>
      <trkpt lat="40.137467" lon="-5.681733">
        <ele>1724.0</ele>
        <time>2015-06-06T15:07:50Z</time>
      </trkpt>
      <trkpt lat="40.137333" lon="-5.681883">
        <ele>1729.0</ele>
        <time>2015-06-06T15:07:52Z</time>
      </trkpt>
      <trkpt lat="40.137233" lon="-5.682133">
        <ele>1734.0</ele>
        <time>2015-06-06T15:07:54Z</time>
      </trkpt>
      <trkpt lat="40.137200" lon="-5.682433">
        <ele>1738.0</ele>
        <time>2015-06-06T15:07:56Z</time>
      </trkpt>
      <trkpt lat="40.137250" lon="-5.682717">
        <ele>1741.0</ele>
        <time>2015-06-06T15:07:58Z</time>
      </trkpt>
      <trkpt lat="40.137383" lon="-5.682983">
        <ele>1742.0</ele>
        <time>2015-06-06T15:08:00Z</time>
      </trkpt>
      <trkpt lat="40.137567" lon="-5.683150">
        <ele>1745.0</ele>
        <time>2015-06-06T15:08:02Z</time>
      </trkpt>
      <trkpt lat="40.137750" lon="-5.683217">
        <ele>1748.0</ele>
        <time>2015-06-06T15:08:04Z</time>
      </trkpt>
      <trkpt lat="40.137900" lon="-5.683250">
        <ele>1750.0</ele>
        <time>2015-06-06T15:08:06Z</time>
      </trkpt>
      <trkpt lat="40.138033" lon="-5.683183">
        <ele>1751.0</ele>
        <time>2015-06-06T15:08:08Z</time>
      </trkpt>
      <trkpt lat="40.138083" lon="-5.683067">
        <ele>1755.0</ele>
        <time>2015-06-06T15:08:10Z</time>
      </trkpt>
      <trkpt lat="40.138050" lon="-5.682967">
        <ele>1760.0</ele>
        <time>2015-06-06T15:08:12Z</time>
      </trkpt>
      <trkpt lat="40.137967" lon="-5.682933">
        <ele>1763.0</ele>
        <time>2015-06-06T15:08:14Z</time>
      </trkpt>
      <trkpt lat="40.137817" lon="-5.682983">
        <ele>1766.0</ele>
        <time>2015-06-06T15:08:16Z</time>
      </trkpt>
      <trkpt lat="40.137667" lon="-5.683133">
        <ele>1770.0</ele>
        <time>2015-06-06T15:08:18Z</time>
      </trkpt>
      <trkpt lat="40.137550" lon="-5.683350">
        <ele>1775.0</ele>
        <time>2015-06-06T15:08:20Z</time>
      </trkpt>
      <trkpt lat="40.137500" lon="-5.683633">
        <ele>1780.0</ele>
        <time>2015-06-06T15:08:22Z</time>
      </trkpt>
      <trkpt lat="40.137533" lon="-5.683967">
        <ele>1784.0</ele>
        <time>2015-06-06T15:08:24Z</time>
      </trkpt>
      <trkpt lat="40.137650" lon="-5.684250">
        <ele>1788.0</ele>
        <time>2015-06-06T15:08:26Z</time>
      </trkpt>
      <trkpt lat="40.137817" lon="-5.684433">
        <ele>1791.0</ele>
        <time>2015-06-06T15:08:28Z</time>
      </trkpt>
      <trkpt lat="40.138000" lon="-5.684550">
        <ele>1793.0</ele>
        <time>2015-06-06T15:08:30Z</time>
      </trkpt>
      <trkpt lat="40.138183" lon="-5.684550">
        <ele>1795.0</ele>
        <time>2015-06-06T15:08:32Z</time>
      </trkpt>
      <trkpt lat="40.138283" lon="-5.684433">
        <ele>1799.0</ele>
        <time>2015-06-06T15:08:34Z</time>
      </trkpt>
      <trkpt lat="40.138300" lon="-5.684317">
        <ele>1804.0</ele>
        <time>2015-06-06T15:08:36Z</time>
      </trkpt>
      <trkpt lat="40.138267" lon="-5.684233">
        <ele>1807.0</ele>
        <time>2015-06-06T15:08:38Z</time>
      </trkpt>
      <trkpt lat="40.138167" lon="-5.684167">
        <ele>1810.0</ele>
        <time>2015-06-06T15:08:40Z</time>
      </trkpt>
      <trkpt lat="40.138000" lon="-5.684250">
        <ele>1812.0</ele>
        <time>2015-06-06T15:08:42Z</time>
      </trkpt>
      <trkpt lat="40.137850" lon="-5.684433">
        <ele>1816.0</ele>
        <time>2015-06-06T15:08:44Z</time>
      </trkpt>
      <trkpt lat="40.137750" lon="-5.684717">
        <ele>1820.0</ele>
        <time>2015-06-06T15:08:46Z</time>
      </trkpt>
      <trkpt lat="40.137717" lon="-5.685050">
        <ele>1823.0</ele>
        <time>2015-06-06T15:08:48Z</time>
      </trkpt>
      <trkpt lat="40.137767" lon="-5.685367">
        <ele>1828.0</ele>
        <time>2015-06-06T15:08:50Z</time>
      </trkpt>
      <trkpt lat="40.137883" lon="-5.685650">
        <ele>1831.0</ele>
        <time>2015-06-06T15:08:52Z</time>
      </trkpt>
      <trkpt lat="40.138033" lon="-5.685883">
        <ele>1834.0</ele>
        <time>2015-06-06T15:08:54Z</time>
      </trkpt>
      <trkpt lat="40.138233" lon="-5.686000">
        <ele>1836.0</ele>
        <time>2015-06-06T15:08:56Z</time>
      </trkpt>
      <trkpt lat="40.138417" lon="-5.686017">
        <ele>1840.0</ele>
        <time>2015-06-06T15:08:58Z</time>
      </trkpt>
      <trkpt lat="40.138517" lon="-5.685967">
        <ele>1844.0</ele>
        <time>2015-06-06T15:09:00Z</time>
      </trkpt>
      <trkpt lat="40.138583" lon="-5.685867">
        <ele>1845.0</ele>
        <time>2015-06-06T15:09:02Z</time>
      </trkpt>
      <trkpt lat="40.138567" lon="-5.685733">
        <ele>1848.0</ele>
        <time>2015-06-06T15:09:04Z</time>
      </trkpt>
      <trkpt lat="40.138467" lon="-5.685683">
        <ele>1852.0</ele>
        <time>2015-06-06T15:09:06Z</time>
      </trkpt>
      <trkpt lat="40.138317" lon="-5.685733">
        <ele>1856.0</ele>
        <time>2015-06-06T15:09:08Z</time>
      </trkpt>
      <trkpt lat="40.138167" lon="-5.685883">
        <ele>1859.0</ele>
        <time>2015-06-06T15:09:10Z</time>
      </trkpt>
      <trkpt lat="40.138033" lon="-5.686133">
        <ele>1860.0</ele>
        <time>2015-06-06T15:09:12Z</time>
      </trkpt>
      <trkpt lat="40.138000" lon="-5.686483">
        <ele>1861.0</ele>
        <time>2015-06-06T15:09:14Z</time>
      </trkpt>
      <trkpt lat="40.138083" lon="-5.686817">
        <ele>1865.0</ele>
        <time>2015-06-06T15:09:16Z</time>
      </trkpt>
      <trkpt lat="40.138200" lon="-5.687083">
        <ele>1869.0</ele>
        <time>2015-06-06T15:09:18Z</time>
      </trkpt>
      <trkpt lat="40.138383" lon="-5.687283">
        <ele>1871.0</ele>
        <time>2015-06-06T15:09:20Z</time>
      </trkpt>
      <trkpt lat="40.138583" lon="-5.687350">
        <ele>1873.0</ele>
        <time>2015-06-06T15:09:22Z</time>
      </trkpt>
      <trkpt lat="40.138733" lon="-5.687333">
        <ele>1876.0</ele>
        <time>2015-06-06T15:09:24Z</time>
      </trkpt>
      <trkpt lat="40.138833" lon="-5.687250">
        <ele>1878.0</ele>
        <time>2015-06-06T15:09:26Z</time>
      </trkpt>
      <trkpt lat="40.138883" lon="-5.687117">
        <ele>1880.0</ele>
        <time>2015-06-06T15:09:28Z</time>
      </trkpt>
      <trkpt lat="40.138817" lon="-5.687017">
        <ele>1884.0</ele>
        <time>2015-06-06T15:09:30Z</time>
      </trkpt>
      <trkpt lat="40.138700" lon="-5.687017">
        <ele>1886.0</ele>
        <time>2015-06-06T15:09:32Z</time>
      </trkpt>
      <trkpt lat="40.138533" lon="-5.687117">
        <ele>1887.0</ele>
        <time>2015-06-06T15:09:34Z</time>
      </trkpt>
      <trkpt lat="40.138383" lon="-5.687317">
        <ele>1888.0</ele>
        <time>2015-06-06T15:09:36Z</time>
      </trkpt>
      <trkpt lat="40.138283" lon="-5.687617">
        <ele>1892.0</ele>
        <time>2015-06-06T15:09:38Z</time>
      </trkpt>
      <trkpt lat="40.138250" lon="-5.687933">
        <ele>1894.0</ele>
        <time>2015-06-06T15:09:40Z</time>
      </trkpt>
      <trkpt lat="40.138300" lon="-5.688283">
        <ele>1894.0</ele>
        <time>2015-06-06T15:09:42Z</time>
      </trkpt>
      <trkpt lat="40.138417" lon="-5.688600">
        <ele>1897.0</ele>
        <time>2015-06-06T15:09:44Z</time>
      </trkpt>
      <trkpt lat="40.138583" lon="-5.688833">
        <ele>1901.0</ele>
        <time>2015-06-06T15:09:46Z</time>
      </trkpt>
      <trkpt lat="40.138767" lon="-5.688950">
        <ele>1903.0</ele>
        <time>2015-06-06T15:09:48Z</time>
      </trkpt>
      <trkpt lat="40.138933" lon="-5.688933">
        <ele>1903.0</ele>
        <time>2015-06-06T15:09:50Z</time>
      </trkpt>
      <trkpt lat="40.139050" lon="-5.688867">
        <ele>1905.0</ele>
        <time>2015-06-06T15:09:52Z</time>
      </trkpt>
      <trkpt lat="40.139100" lon="-5.688767">
        <ele>1906.0</ele>
        <time>2015-06-06T15:09:54Z</time>
      </trkpt>
      <trkpt lat="40.139067" lon="-5.688650">
        <ele>1909.0</ele>
        <time>2015-06-06T15:09:56Z</time>
      </trkpt>
      <trkpt lat="40.139017" lon="-5.688567">
        <ele>1914.0</ele>
        <time>2015-06-06T15:09:58Z</time>
      </trkpt>
      <trkpt lat="40.138950" lon="-5.688533">
        <ele>1915.0</ele>
        <time>2015-06-06T15:10:00Z</time>
      </trkpt>
      <trkpt lat="40.138767" lon="-5.688550">
        <ele>1915.0</ele>
        <time>2015-06-06T15:10:02Z</time>
      </trkpt>
      <trkpt lat="40.138600" lon="-5.688633">
        <ele>1920.0</ele>
        <time>2015-06-06T15:10:04Z</time>
      </trkpt>
      <trkpt lat="40.138467" lon="-5.688767">
        <ele>1925.0</ele>
        <time>2015-06-06T15:10:06Z</time>
      </trkpt>
      <trkpt lat="40.138317" lon="-5.689000">
        <ele>1925.0</ele>
        <time>2015-06-06T15:10:08Z</time>
      </trkpt>
      <trkpt lat="40.138233" lon="-5.689350">
        <ele>1928.0</ele>
        <time>2015-06-06T15:10:10Z</time>
      </trkpt>
      <trkpt lat="40.138217" lon="-5.689683">
        <ele>1934.0</ele>
        <time>2015-06-06T15:10:12Z</time>
      </trkpt>
      <trkpt lat="40.138267" lon="-5.689967">
        <ele>1939.0</ele>
        <time>2015-06-06T15:10:14Z</time>
      </trkpt>
      <trkpt lat="40.138400" lon="-5.690267">
        <ele>1938.0</ele>
        <time>2015-06-06T15:10:16Z</time>
      </trkpt>
      <trkpt lat="40.138600" lon="-5.690467">
        <ele>1938.0</ele>
        <time>2015-06-06T15:10:18Z</time>
      </trkpt>
      <trkpt lat="40.138783" lon="-5.690533">
        <ele>1942.0</ele>
        <time>2015-06-06T15:10:20Z</time>
      </trkpt>
      <trkpt lat="40.138933" lon="-5.690533">
        <ele>1943.0</ele>
        <time>2015-06-06T15:10:22Z</time>
      </trkpt>
      <trkpt lat="40.139050" lon="-5.690450">
        <ele>1941.0</ele>
        <time>2015-06-06T15:10:24Z</time>
      </trkpt>
      <trkpt lat="40.139083" lon="-5.690283">
        <ele>1943.0</ele>
        <time>2015-06-06T15:10:26Z</time>
      </trkpt>
      <trkpt lat="40.139033" lon="-5.690183">
        <ele>1947.0</ele>
        <time>2015-06-06T15:10:28Z</time>
      </trkpt>
      <trkpt lat="40.138950" lon="-5.690150">
        <ele>1950.0</ele>
        <time>2015-06-06T15:10:30Z</time>
      </trkpt>
      <trkpt lat="40.138800" lon="-5.690150">
        <ele>1951.0</ele>
        <time>2015-06-06T15:10:32Z</time>
      </trkpt>
      <trkpt lat="40.138617" lon="-5.690300">
        <ele>1951.0</ele>
        <time>2015-06-06T15:10:34Z</time>
      </trkpt>
      <trkpt lat="40.138500" lon="-5.690567">
        <ele>1956.0</ele>
        <time>2015-06-06T15:10:36Z</time>
      </trkpt>
      <trkpt lat="40.138433" lon="-5.690800">
        <ele>1962.0</ele>
        <time>2015-06-06T15:10:38Z</time>
      </trkpt>
      <trkpt lat="40.138450" lon="-5.691067">
        <ele>1963.0</ele>
        <time>2015-06-06T15:10:40Z</time>
      </trkpt>
      <trkpt lat="40.138500" lon="-5.691417">
        <ele>1962.0</ele>
        <time>2015-06-06T15:10:42Z</time>
      </trkpt>
      <trkpt lat="40.138633" lon="-5.691700">
        <ele>1968.0</ele>
        <time>2015-06-06T15:10:44Z</time>
      </trkpt>
      <trkpt lat="40.138783" lon="-5.691917">
        <ele>1970.0</ele>
        <time>2015-06-06T15:10:46Z</time>
      </trkpt>
      <trkpt lat="40.138950" lon="-5.692033">
        <ele>1971.0</ele>
        <time>2015-06-06T15:10:48Z</time>
      </trkpt>
      <trkpt lat="40.139150" lon="-5.692033">
        <ele>1970.0</ele>
        <time>2015-06-06T15:10:50Z</time>
      </trkpt>
      <trkpt lat="40.139250" lon="-5.691933">
        <ele>1973.0</ele>
        <time>2015-06-06T15:10:52Z</time>
      </trkpt>
      <trkpt lat="40.139300" lon="-5.691833">
        <ele>1975.0</ele>
        <time>2015-06-06T15:10:54Z</time>
      </trkpt>
      <trkpt lat="40.139267" lon="-5.691717">
        <ele>1975.0</ele>
        <time>2015-06-06T15:10:56Z</time>
      </trkpt>
      <trkpt lat="40.139167" lon="-5.691633">
        <ele>1976.0</ele>
        <time>2015-06-06T15:10:58Z</time>
      </trkpt>
      <trkpt lat="40.139000" lon="-5.691667">
        <ele>1978.0</ele>
        <time>2015-06-06T15:11:00Z</time>
      </trkpt>
      <trkpt lat="40.138850" lon="-5.691783">
        <ele>1981.0</ele>
        <time>2015-06-06T15:11:02Z</time>
      </trkpt>
      <trkpt lat="40.138733" lon="-5.691983">
        <ele>1983.0</ele>
        <time>2015-06-06T15:11:04Z</time>
      </trkpt>
      <trkpt lat="40.138633" lon="-5.692233">
        <ele>1985.0</ele>
        <time>2015-06-06T15:11:06Z</time>
      </trkpt>
      <trkpt lat="40.138617" lon="-5.692533">
        <ele>1987.0</ele>
        <time>2015-06-06T15:11:08Z</time>
      </trkpt>
      <trkpt lat="40.138650" lon="-5.692833">
        <ele>1989.0</ele>
        <time>2015-06-06T15:11:10Z</time>
      </trkpt>
      <trkpt lat="40.138733" lon="-5.693117">
        <ele>1989.0</ele>
        <time>2015-06-06T15:11:12Z</time>
      </trkpt>
      <trkpt lat="40.138883" lon="-5.693367">
        <ele>1989.0</ele>
        <time>2015-06-06T15:11:14Z</time>
      </trkpt>
      <trkpt lat="40.139083" lon="-5.693517">
        <ele>1991.0</ele>
        <time>2015-06-06T15:11:16Z</time>
      </trkpt>
      <trkpt lat="40.139250" lon="-5.693550">
        <ele>1993.0</ele>
        <time>2015-06-06T15:11:18Z</time>
      </trkpt>
      <trkpt lat="40.139400" lon="-5.693517">
        <ele>1994.0</ele>
        <time>2015-06-06T15:11:20Z</time>
      </trkpt>
      <trkpt lat="40.139500" lon="-5.693417">
        <ele>1993.0</ele>
        <time>2015-06-06T15:11:22Z</time>
      </trkpt>
      <trkpt lat="40.139483" lon="-5.693267">
        <ele>1992.0</ele>
        <time>2015-06-06T15:11:24Z</time>
      </trkpt>
      <trkpt lat="40.139383" lon="-5.693183">
        <ele>1995.0</ele>
        <time>2015-06-06T15:11:26Z</time>
      </trkpt>
      <trkpt lat="40.139250" lon="-5.693183">
        <ele>1997.0</ele>
        <time>2015-06-06T15:11:28Z</time>
      </trkpt>
      <trkpt lat="40.139100" lon="-5.693217">
        <ele>1998.0</ele>
        <time>2015-06-06T15:11:30Z</time>
      </trkpt>
      <trkpt lat="40.138933" lon="-5.693317">
        <ele>2000.0</ele>
        <time>2015-06-06T15:11:32Z</time>
      </trkpt>
      <trkpt lat="40.138800" lon="-5.693483">
        <ele>2002.0</ele>
        <time>2015-06-06T15:11:34Z</time>
      </trkpt>
      <trkpt lat="40.138700" lon="-5.693700">
        <ele>2005.0</ele>
        <time>2015-06-06T15:11:36Z</time>
      </trkpt>
      <trkpt lat="40.138617" lon="-5.693967">
        <ele>2006.0</ele>
        <time>2015-06-06T15:11:38Z</time>
      </trkpt>
      <trkpt lat="40.138600" lon="-5.694283">
        <ele>2008.0</ele>
        <time>2015-06-06T15:11:40Z</time>
      </trkpt>
      <trkpt lat="40.138633" lon="-5.694617">
        <ele>2010.0</ele>
        <time>2015-06-06T15:11:42Z</time>
      </trkpt>
      <trkpt lat="40.138750" lon="-5.694933">
        <ele>2011.0</ele>
        <time>2015-06-06T15:11:44Z</time>
      </trkpt>
      <trkpt lat="40.138900" lon="-5.695217">
        <ele>2014.0</ele>
        <time>2015-06-06T15:11:46Z</time>
      </trkpt>
      <trkpt lat="40.139067" lon="-5.695400">
        <ele>2016.0</ele>
        <time>2015-06-06T15:11:48Z</time>
      </trkpt>
      <trkpt lat="40.139250" lon="-5.695483">
        <ele>2017.0</ele>
        <time>2015-06-06T15:11:50Z</time>
      </trkpt>
      <trkpt lat="40.139400" lon="-5.695483">
        <ele>2018.0</ele>
        <time>2015-06-06T15:11:52Z</time>
      </trkpt>
      <trkpt lat="40.139517" lon="-5.695417">
        <ele>2020.0</ele>
        <time>2015-06-06T15:11:54Z</time>
      </trkpt>
      <trkpt lat="40.139600" lon="-5.695333">
        <ele>2018.0</ele>
        <time>2015-06-06T15:11:56Z</time>
      </trkpt>
      <trkpt lat="40.139617" lon="-5.695200">
        <ele>2018.0</ele>
        <time>2015-06-06T15:11:58Z</time>
      </trkpt>
      <trkpt lat="40.139550" lon="-5.695067">
        <ele>2020.0</ele>
        <time>2015-06-06T15:12:00Z</time>
      </trkpt>
      <trkpt lat="40.139483" lon="-5.694967">
        <ele>2023.0</ele>
        <time>2015-06-06T15:12:02Z</time>
      </trkpt>
      <trkpt lat="40.139400" lon="-5.694900">
        <ele>2023.0</ele>
        <time>2015-06-06T15:12:04Z</time>
      </trkpt>
      <trkpt lat="40.139250" lon="-5.694917">
        <ele>2021.0</ele>
        <time>2015-06-06T15:12:06Z</time>
      </trkpt>
      <trkpt lat="40.139100" lon="-5.695000">
        <ele>2022.0</ele>
        <time>2015-06-06T15:12:08Z</time>
      </trkpt>
      <trkpt lat="40.138950" lon="-5.695167">
        <ele>2023.0</ele>
        <time>2015-06-06T15:12:10Z</time>
      </trkpt>
      <trkpt lat="40.138850" lon="-5.695417">
        <ele>2024.0</ele>
        <time>2015-06-06T15:12:12Z</time>
      </trkpt>
      <trkpt lat="40.138783" lon="-5.695700">
        <ele>2024.0</ele>
        <time>2015-06-06T15:12:14Z</time>
      </trkpt>
      <trkpt lat="40.138767" lon="-5.696017">
        <ele>2025.0</ele>
        <time>2015-06-06T15:12:16Z</time>
      </trkpt>
      <trkpt lat="40.138833" lon="-5.696333">
        <ele>2028.0</ele>
        <time>2015-06-06T15:12:18Z</time>
      </trkpt>
      <trkpt lat="40.138950" lon="-5.696617">
        <ele>2029.0</ele>
        <time>2015-06-06T15:12:20Z</time>
      </trkpt>
      <trkpt lat="40.139100" lon="-5.696817">
        <ele>2030.0</ele>
        <time>2015-06-06T15:12:22Z</time>
      </trkpt>
      <trkpt lat="40.139300" lon="-5.696900">
        <ele>2030.0</ele>
        <time>2015-06-06T15:12:24Z</time>
      </trkpt>
      <trkpt lat="40.139450" lon="-5.696883">
        <ele>2033.0</ele>
        <time>2015-06-06T15:12:26Z</time>
      </trkpt>
      <trkpt lat="40.139550" lon="-5.696817">
        <ele>2034.0</ele>
        <time>2015-06-06T15:12:28Z</time>
      </trkpt>
      <trkpt lat="40.139600" lon="-5.696683">
        <ele>2034.0</ele>
        <time>2015-06-06T15:12:30Z</time>
      </trkpt>
      <trkpt lat="40.139567" lon="-5.696550">
        <ele>2035.0</ele>
        <time>2015-06-06T15:12:32Z</time>
      </trkpt>
      <trkpt lat="40.139467" lon="-5.696450">
        <ele>2038.0</ele>
        <time>2015-06-06T15:12:34Z</time>
      </trkpt>
      <trkpt lat="40.139333" lon="-5.696433">
        <ele>2039.0</ele>
        <time>2015-06-06T15:12:36Z</time>
      </trkpt>
      <trkpt lat="40.139167" lon="-5.696467">
        <ele>2039.0</ele>
        <time>2015-06-06T15:12:38Z</time>
      </trkpt>
      <trkpt lat="40.138983" lon="-5.696633">
        <ele>2040.0</ele>
        <time>2015-06-06T15:12:40Z</time>
      </trkpt>
      <trkpt lat="40.138883" lon="-5.696867">
        <ele>2043.0</ele>
        <time>2015-06-06T15:12:42Z</time>
      </trkpt>
      <trkpt lat="40.138800" lon="-5.697117">
        <ele>2043.0</ele>
        <time>2015-06-06T15:12:44Z</time>
      </trkpt>
      <trkpt lat="40.138767" lon="-5.697433">
        <ele>2042.0</ele>
        <time>2015-06-06T15:12:46Z</time>
      </trkpt>
      <trkpt lat="40.138850" lon="-5.697783">
        <ele>2041.0</ele>
        <time>2015-06-06T15:12:48Z</time>
      </trkpt>
      <trkpt lat="40.139017" lon="-5.698033">
        <ele>2042.0</ele>
        <time>2015-06-06T15:12:50Z</time>
      </trkpt>
      <trkpt lat="40.139217" lon="-5.698183">
        <ele>2043.0</ele>
        <time>2015-06-06T15:12:52Z</time>
      </trkpt>
      <trkpt lat="40.139400" lon="-5.698267">
        <ele>2045.0</ele>
        <time>2015-06-06T15:12:54Z</time>
      </trkpt>
      <trkpt lat="40.139550" lon="-5.698283">
        <ele>2046.0</ele>
        <time>2015-06-06T15:12:56Z</time>
      </trkpt>
      <trkpt lat="40.139700" lon="-5.698200">
        <ele>2044.0</ele>
        <time>2015-06-06T15:12:58Z</time>
      </trkpt>
      <trkpt lat="40.139800" lon="-5.698083">
        <ele>2046.0</ele>
        <time>2015-06-06T15:13:00Z</time>
      </trkpt>
      <trkpt lat="40.139883" lon="-5.697983">
        <ele>2047.0</ele>
        <time>2015-06-06T15:13:02Z</time>
      </trkpt>
      <trkpt lat="40.139917" lon="-5.697850">
        <ele>2047.0</ele>
        <time>2015-06-06T15:13:04Z</time>
      </trkpt>
      <trkpt lat="40.139883" lon="-5.697733">
        <ele>2046.0</ele>
        <time>2015-06-06T15:13:06Z</time>
      </trkpt>
      <trkpt lat="40.139783" lon="-5.697667">
        <ele>2046.0</ele>
        <time>2015-06-06T15:13:08Z</time>
      </trkpt>
      <trkpt lat="40.139683" lon="-5.697633">
        <ele>2047.0</ele>
        <time>2015-06-06T15:13:10Z</time>
      </trkpt>
      <trkpt lat="40.139567" lon="-5.697650">
        <ele>2045.0</ele>
        <time>2015-06-06T15:13:12Z</time>
      </trkpt>
      <trkpt lat="40.139417" lon="-5.697717">
        <ele>2043.0</ele>
        <time>2015-06-06T15:13:14Z</time>
      </trkpt>
      <trkpt lat="40.139283" lon="-5.697867">
        <ele>2042.0</ele>
        <time>2015-06-06T15:13:16Z</time>
      </trkpt>
      <trkpt lat="40.139167" lon="-5.698050">
        <ele>2043.0</ele>
        <time>2015-06-06T15:13:18Z</time>
      </trkpt>
      <trkpt lat="40.139050" lon="-5.698250">
        <ele>2040.0</ele>
        <time>2015-06-06T15:13:20Z</time>
      </trkpt>
      <trkpt lat="40.138917" lon="-5.698483">
        <ele>2039.0</ele>
        <time>2015-06-06T15:13:22Z</time>
      </trkpt>
      <trkpt lat="40.138800" lon="-5.698700">
        <ele>2039.0</ele>
        <time>2015-06-06T15:13:24Z</time>
      </trkpt>
      <trkpt lat="40.138650" lon="-5.698883">
        <ele>2041.0</ele>
        <time>2015-06-06T15:13:26Z</time>
      </trkpt>
      <trkpt lat="40.138550" lon="-5.699117">
        <ele>2041.0</ele>
        <time>2015-06-06T15:13:28Z</time>
      </trkpt>
      <trkpt lat="40.138483" lon="-5.699433">
        <ele>2039.0</ele>
        <time>2015-06-06T15:13:30Z</time>
      </trkpt>
      <trkpt lat="40.138367" lon="-5.699717">
        <ele>2038.0</ele>
        <time>2015-06-06T15:13:32Z</time>
      </trkpt>
      <trkpt lat="40.138250" lon="-5.699983">
        <ele>2039.0</ele>
        <time>2015-06-06T15:13:34Z</time>
      </trkpt>
      <trkpt lat="40.138150" lon="-5.700233">
        <ele>2038.0</ele>
        <time>2015-06-06T15:13:36Z</time>
      </trkpt>
      <trkpt lat="40.138050" lon="-5.700483">
        <ele>2037.0</ele>
        <time>2015-06-06T15:13:38Z</time>
      </trkpt>
      <trkpt lat="40.137933" lon="-5.700717">
        <ele>2036.0</ele>
        <time>2015-06-06T15:13:40Z</time>
      </trkpt>
      <trkpt lat="40.137817" lon="-5.700933">
        <ele>2033.0</ele>
        <time>2015-06-06T15:13:42Z</time>
      </trkpt>
      <trkpt lat="40.137683" lon="-5.701167">
        <ele>2031.0</ele>
        <time>2015-06-06T15:13:44Z</time>
      </trkpt>
      <trkpt lat="40.137550" lon="-5.701450">
        <ele>2031.0</ele>
        <time>2015-06-06T15:13:46Z</time>
      </trkpt>
      <trkpt lat="40.137433" lon="-5.701683">
        <ele>2033.0</ele>
        <time>2015-06-06T15:13:48Z</time>
      </trkpt>
      <trkpt lat="40.137350" lon="-5.701933">
        <ele>2033.0</ele>
        <time>2015-06-06T15:13:50Z</time>
      </trkpt>
      <trkpt lat="40.137283" lon="-5.702300">
        <ele>2030.0</ele>
        <time>2015-06-06T15:13:52Z</time>
      </trkpt>
      <trkpt lat="40.137183" lon="-5.702617">
        <ele>2033.0</ele>
        <time>2015-06-06T15:13:54Z</time>
      </trkpt>
      <trkpt lat="40.137083" lon="-5.702833">
        <ele>2034.0</ele>
        <time>2015-06-06T15:13:56Z</time>
      </trkpt>
      <trkpt lat="40.137000" lon="-5.703067">
        <ele>2032.0</ele>
        <time>2015-06-06T15:13:58Z</time>
      </trkpt>
      <trkpt lat="40.136900" lon="-5.703333">
        <ele>2030.0</ele>
        <time>2015-06-06T15:14:00Z</time>
      </trkpt>
      <trkpt lat="40.136767" lon="-5.703583">
        <ele>2028.0</ele>
        <time>2015-06-06T15:14:02Z</time>
      </trkpt>
      <trkpt lat="40.136633" lon="-5.703817">
        <ele>2027.0</ele>
        <time>2015-06-06T15:14:04Z</time>
      </trkpt>
      <trkpt lat="40.136500" lon="-5.704017">
        <ele>2025.0</ele>
        <time>2015-06-06T15:14:06Z</time>
      </trkpt>
      <trkpt lat="40.136383" lon="-5.704267">
        <ele>2023.0</ele>
        <time>2015-06-06T15:14:08Z</time>
      </trkpt>
      <trkpt lat="40.136283" lon="-5.704550">
        <ele>2022.0</ele>
        <time>2015-06-06T15:14:10Z</time>
      </trkpt>
      <trkpt lat="40.136183" lon="-5.704800">
        <ele>2021.0</ele>
        <time>2015-06-06T15:14:12Z</time>
      </trkpt>
      <trkpt lat="40.136067" lon="-5.705033">
        <ele>2018.0</ele>
        <time>2015-06-06T15:14:14Z</time>
      </trkpt>
      <trkpt lat="40.135950" lon="-5.705283">
        <ele>2015.0</ele>
        <time>2015-06-06T15:14:16Z</time>
      </trkpt>
      <trkpt lat="40.135817" lon="-5.705483">
        <ele>2012.0</ele>
        <time>2015-06-06T15:14:18Z</time>
      </trkpt>
      <trkpt lat="40.135650" lon="-5.705667">
        <ele>2008.0</ele>
        <time>2015-06-06T15:14:20Z</time>
      </trkpt>
      <trkpt lat="40.135500" lon="-5.705850">
        <ele>2006.0</ele>
        <time>2015-06-06T15:14:22Z</time>
      </trkpt>
      <trkpt lat="40.135350" lon="-5.706033">
        <ele>2004.0</ele>
        <time>2015-06-06T15:14:24Z</time>
      </trkpt>
      <trkpt lat="40.135183" lon="-5.706183">
        <ele>2000.0</ele>
        <time>2015-06-06T15:14:26Z</time>
      </trkpt>
      <trkpt lat="40.134983" lon="-5.706300">
        <ele>2000.0</ele>
        <time>2015-06-06T15:14:28Z</time>
      </trkpt>
      <trkpt lat="40.134833" lon="-5.706383">
        <ele>2003.0</ele>
        <time>2015-06-06T15:14:30Z</time>
      </trkpt>
      <trkpt lat="40.134683" lon="-5.706433">
        <ele>2003.0</ele>
        <time>2015-06-06T15:14:32Z</time>
      </trkpt>
      <trkpt lat="40.134550" lon="-5.706583">
        <ele>2005.0</ele>
        <time>2015-06-06T15:14:34Z</time>
      </trkpt>
      <trkpt lat="40.134450" lon="-5.706817">
        <ele>2006.0</ele>
        <time>2015-06-06T15:14:36Z</time>
      </trkpt>
      <trkpt lat="40.134367" lon="-5.707050">
        <ele>2007.0</ele>
        <time>2015-06-06T15:14:38Z</time>
      </trkpt>
      <trkpt lat="40.134333" lon="-5.707333">
        <ele>2006.0</ele>
        <time>2015-06-06T15:14:40Z</time>
      </trkpt>
      <trkpt lat="40.134333" lon="-5.707667">
        <ele>2004.0</ele>
        <time>2015-06-06T15:14:42Z</time>
      </trkpt>
      <trkpt lat="40.134317" lon="-5.708000">
        <ele>2004.0</ele>
        <time>2015-06-06T15:14:44Z</time>
      </trkpt>
      <trkpt lat="40.134267" lon="-5.708283">
        <ele>2004.0</ele>
        <time>2015-06-06T15:14:46Z</time>
      </trkpt>
      <trkpt lat="40.134183" lon="-5.708550">
        <ele>2002.0</ele>
        <time>2015-06-06T15:14:48Z</time>
      </trkpt>
      <trkpt lat="40.134083" lon="-5.708817">
        <ele>1999.0</ele>
        <time>2015-06-06T15:14:50Z</time>
      </trkpt>
      <trkpt lat="40.133933" lon="-5.709033">
        <ele>1999.0</ele>
        <time>2015-06-06T15:14:52Z</time>
      </trkpt>
      <trkpt lat="40.133817" lon="-5.709217">
        <ele>2000.0</ele>
        <time>2015-06-06T15:14:54Z</time>
      </trkpt>
      <trkpt lat="40.133717" lon="-5.709417">
        <ele>1999.0</ele>
        <time>2015-06-06T15:14:56Z</time>
      </trkpt>
      <trkpt lat="40.133617" lon="-5.709650">
        <ele>1999.0</ele>
        <time>2015-06-06T15:14:58Z</time>
      </trkpt>
      <trkpt lat="40.133533" lon="-5.709900">
        <ele>2000.0</ele>
        <time>2015-06-06T15:15:00Z</time>
      </trkpt>
      <trkpt lat="40.133517" lon="-5.710200">
        <ele>1998.0</ele>
        <time>2015-06-06T15:15:02Z</time>
      </trkpt>
      <trkpt lat="40.133500" lon="-5.710517">
        <ele>1997.0</ele>
        <time>2015-06-06T15:15:04Z</time>
      </trkpt>
      <trkpt lat="40.133400" lon="-5.710817">
        <ele>1997.0</ele>
        <time>2015-06-06T15:15:06Z</time>
      </trkpt>
      <trkpt lat="40.133283" lon="-5.711050">
        <ele>1999.0</ele>
        <time>2015-06-06T15:15:08Z</time>
      </trkpt>
      <trkpt lat="40.133183" lon="-5.711250">
        <ele>1998.0</ele>
        <time>2015-06-06T15:15:10Z</time>
      </trkpt>
      <trkpt lat="40.133067" lon="-5.711467">
        <ele>1996.0</ele>
        <time>2015-06-06T15:15:12Z</time>
      </trkpt>
      <trkpt lat="40.132917" lon="-5.711667">
        <ele>1993.0</ele>
        <time>2015-06-06T15:15:14Z</time>
      </trkpt>
      <trkpt lat="40.132783" lon="-5.711867">
        <ele>1992.0</ele>
        <time>2015-06-06T15:15:16Z</time>
      </trkpt>
      <trkpt lat="40.132650" lon="-5.712067">
        <ele>1992.0</ele>
        <time>2015-06-06T15:15:18Z</time>
      </trkpt>
      <trkpt lat="40.132517" lon="-5.712233">
        <ele>1989.0</ele>
        <time>2015-06-06T15:15:20Z</time>
      </trkpt>
      <trkpt lat="40.132383" lon="-5.712367">
        <ele>1987.0</ele>
        <time>2015-06-06T15:15:22Z</time>
      </trkpt>
      <trkpt lat="40.132250" lon="-5.712533">
        <ele>1985.0</ele>
        <time>2015-06-06T15:15:24Z</time>
      </trkpt>
      <trkpt lat="40.132133" lon="-5.712683">
        <ele>1982.0</ele>
        <time>2015-06-06T15:15:26Z</time>
      </trkpt>
      <trkpt lat="40.131983" lon="-5.712867">
        <ele>1979.0</ele>
        <time>2015-06-06T15:15:28Z</time>
      </trkpt>
      <trkpt lat="40.131850" lon="-5.713083">
        <ele>1978.0</ele>
        <time>2015-06-06T15:15:30Z</time>
      </trkpt>
      <trkpt lat="40.131683" lon="-5.713267">
        <ele>1977.0</ele>
        <time>2015-06-06T15:15:32Z</time>
      </trkpt>
      <trkpt lat="40.131533" lon="-5.713433">
        <ele>1979.0</ele>
        <time>2015-06-06T15:15:34Z</time>
      </trkpt>
      <trkpt lat="40.131400" lon="-5.713600">
        <ele>1985.0</ele>
        <time>2015-06-06T15:15:36Z</time>
      </trkpt>
      <trkpt lat="40.131317" lon="-5.713750">
        <ele>1988.0</ele>
        <time>2015-06-06T15:15:38Z</time>
      </trkpt>
      <trkpt lat="40.131250" lon="-5.714000">
        <ele>1988.0</ele>
        <time>2015-06-06T15:15:40Z</time>
      </trkpt>
      <trkpt lat="40.131300" lon="-5.714300">
        <ele>1990.0</ele>
        <time>2015-06-06T15:15:42Z</time>
      </trkpt>
      <trkpt lat="40.131417" lon="-5.714500">
        <ele>1995.0</ele>
        <time>2015-06-06T15:15:44Z</time>
      </trkpt>
      <trkpt lat="40.131533" lon="-5.714683">
        <ele>1996.0</ele>
        <time>2015-06-06T15:15:46Z</time>
      </trkpt>
      <trkpt lat="40.131700" lon="-5.714833">
        <ele>1996.0</ele>
        <time>2015-06-06T15:15:48Z</time>
      </trkpt>
      <trkpt lat="40.131900" lon="-5.714850">
        <ele>1996.0</ele>
        <time>2015-06-06T15:15:50Z</time>
      </trkpt>
      <trkpt lat="40.132050" lon="-5.714767">
        <ele>1997.0</ele>
        <time>2015-06-06T15:15:52Z</time>
      </trkpt>
      <trkpt lat="40.132117" lon="-5.714617">
        <ele>1999.0</ele>
        <time>2015-06-06T15:15:54Z</time>
      </trkpt>
      <trkpt lat="40.132100" lon="-5.714483">
        <ele>2002.0</ele>
        <time>2015-06-06T15:15:56Z</time>
      </trkpt>
      <trkpt lat="40.132017" lon="-5.714400">
        <ele>2003.0</ele>
        <time>2015-06-06T15:15:58Z</time>
      </trkpt>
      <trkpt lat="40.131867" lon="-5.714383">
        <ele>2002.0</ele>
        <time>2015-06-06T15:16:00Z</time>
      </trkpt>
      <trkpt lat="40.131733" lon="-5.714383">
        <ele>2008.0</ele>
        <time>2015-06-06T15:16:02Z</time>
      </trkpt>
      <trkpt lat="40.131600" lon="-5.714417">
        <ele>2012.0</ele>
        <time>2015-06-06T15:16:04Z</time>
      </trkpt>
      <trkpt lat="40.131483" lon="-5.714467">
        <ele>2013.0</ele>
        <time>2015-06-06T15:16:06Z</time>
      </trkpt>
      <trkpt lat="40.131350" lon="-5.714617">
        <ele>2012.0</ele>
        <time>2015-06-06T15:16:08Z</time>
      </trkpt>
      <trkpt lat="40.131283" lon="-5.714850">
        <ele>2013.0</ele>
        <time>2015-06-06T15:16:10Z</time>
      </trkpt>
      <trkpt lat="40.131250" lon="-5.715100">
        <ele>2013.0</ele>
        <time>2015-06-06T15:16:12Z</time>
      </trkpt>
      <trkpt lat="40.131283" lon="-5.715367">
        <ele>2010.0</ele>
        <time>2015-06-06T15:16:14Z</time>
      </trkpt>
      <trkpt lat="40.131400" lon="-5.715667">
        <ele>2009.0</ele>
        <time>2015-06-06T15:16:16Z</time>
      </trkpt>
      <trkpt lat="40.131550" lon="-5.715867">
        <ele>2010.0</ele>
        <time>2015-06-06T15:16:18Z</time>
      </trkpt>
      <trkpt lat="40.131750" lon="-5.715967">
        <ele>2009.0</ele>
        <time>2015-06-06T15:16:20Z</time>
      </trkpt>
      <trkpt lat="40.131967" lon="-5.715967">
        <ele>2010.0</ele>
        <time>2015-06-06T15:16:22Z</time>
      </trkpt>
      <trkpt lat="40.132133" lon="-5.715867">
        <ele>2010.0</ele>
        <time>2015-06-06T15:16:24Z</time>
      </trkpt>
      <trkpt lat="40.132217" lon="-5.715733">
        <ele>2012.0</ele>
        <time>2015-06-06T15:16:26Z</time>
      </trkpt>
      <trkpt lat="40.132283" lon="-5.715550">
        <ele>2013.0</ele>
        <time>2015-06-06T15:16:28Z</time>
      </trkpt>
      <trkpt lat="40.132267" lon="-5.715367">
        <ele>2015.0</ele>
        <time>2015-06-06T15:16:30Z</time>
      </trkpt>
      <trkpt lat="40.132150" lon="-5.715267">
        <ele>2017.0</ele>
        <time>2015-06-06T15:16:32Z</time>
      </trkpt>
      <trkpt lat="40.132017" lon="-5.715250">
        <ele>2020.0</ele>
        <time>2015-06-06T15:16:34Z</time>
      </trkpt>
      <trkpt lat="40.131883" lon="-5.715300">
        <ele>2020.0</ele>
        <time>2015-06-06T15:16:36Z</time>
      </trkpt>
      <trkpt lat="40.131750" lon="-5.715450">
        <ele>2019.0</ele>
        <time>2015-06-06T15:16:38Z</time>
      </trkpt>
      <trkpt lat="40.131650" lon="-5.715633">
        <ele>2019.0</ele>
        <time>2015-06-06T15:16:40Z</time>
      </trkpt>
      <trkpt lat="40.131600" lon="-5.715833">
        <ele>2016.0</ele>
        <time>2015-06-06T15:16:42Z</time>
      </trkpt>
      <trkpt lat="40.131550" lon="-5.716067">
        <ele>2011.0</ele>
        <time>2015-06-06T15:16:44Z</time>
      </trkpt>
      <trkpt lat="40.131450" lon="-5.716300">
        <ele>2007.0</ele>
        <time>2015-06-06T15:16:46Z</time>
      </trkpt>
      <trkpt lat="40.131350" lon="-5.716500">
        <ele>2004.0</ele>
        <time>2015-06-06T15:16:48Z</time>
      </trkpt>
      <trkpt lat="40.131233" lon="-5.716650">
        <ele>2000.0</ele>
        <time>2015-06-06T15:16:50Z</time>
      </trkpt>
      <trkpt lat="40.131100" lon="-5.716800">
        <ele>1996.0</ele>
        <time>2015-06-06T15:16:52Z</time>
      </trkpt>
      <trkpt lat="40.130967" lon="-5.716950">
        <ele>1994.0</ele>
        <time>2015-06-06T15:16:54Z</time>
      </trkpt>
      <trkpt lat="40.130833" lon="-5.717100">
        <ele>1991.0</ele>
        <time>2015-06-06T15:16:56Z</time>
      </trkpt>
      <trkpt lat="40.130683" lon="-5.717233">
        <ele>1989.0</ele>
        <time>2015-06-06T15:16:58Z</time>
      </trkpt>
      <trkpt lat="40.130533" lon="-5.717383">
        <ele>1988.0</ele>
        <time>2015-06-06T15:17:00Z</time>
      </trkpt>
      <trkpt lat="40.130417" lon="-5.717533">
        <ele>1987.0</ele>
        <time>2015-06-06T15:17:02Z</time>
      </trkpt>
      <trkpt lat="40.130300" lon="-5.717683">
        <ele>1983.0</ele>
        <time>2015-06-06T15:17:04Z</time>
      </trkpt>
      <trkpt lat="40.130183" lon="-5.717867">
        <ele>1979.0</ele>
        <time>2015-06-06T15:17:06Z</time>
      </trkpt>
      <trkpt lat="40.130067" lon="-5.718067">
        <ele>1975.0</ele>
        <time>2015-06-06T15:17:08Z</time>
      </trkpt>
      <trkpt lat="40.129933" lon="-5.718250">
        <ele>1969.0</ele>
        <time>2015-06-06T15:17:10Z</time>
      </trkpt>
      <trkpt lat="40.129800" lon="-5.718433">
        <ele>1966.0</ele>
        <time>2015-06-06T15:17:12Z</time>
      </trkpt>
      <trkpt lat="40.129667" lon="-5.718600">
        <ele>1963.0</ele>
        <time>2015-06-06T15:17:14Z</time>
      </trkpt>
      <trkpt lat="40.129533" lon="-5.718767">
        <ele>1959.0</ele>
        <time>2015-06-06T15:17:16Z</time>
      </trkpt>
      <trkpt lat="40.129400" lon="-5.718917">
        <ele>1955.0</ele>
        <time>2015-06-06T15:17:18Z</time>
      </trkpt>
      <trkpt lat="40.129267" lon="-5.719083">
        <ele>1951.0</ele>
        <time>2015-06-06T15:17:20Z</time>
      </trkpt>
      <trkpt lat="40.129133" lon="-5.719250">
        <ele>1945.0</ele>
        <time>2015-06-06T15:17:22Z</time>
      </trkpt>
      <trkpt lat="40.129000" lon="-5.719383">
        <ele>1941.0</ele>
        <time>2015-06-06T15:17:24Z</time>
      </trkpt>
      <trkpt lat="40.128867" lon="-5.719517">
        <ele>1938.0</ele>
        <time>2015-06-06T15:17:26Z</time>
      </trkpt>
      <trkpt lat="40.128783" lon="-5.719700">
        <ele>1933.0</ele>
        <time>2015-06-06T15:17:28Z</time>
      </trkpt>
      <trkpt lat="40.128683" lon="-5.719933">
        <ele>1926.0</ele>
        <time>2015-06-06T15:17:30Z</time>
      </trkpt>
      <trkpt lat="40.128550" lon="-5.720100">
        <ele>1923.0</ele>
        <time>2015-06-06T15:17:32Z</time>
      </trkpt>
      <trkpt lat="40.128433" lon="-5.720267">
        <ele>1919.0</ele>
        <time>2015-06-06T15:17:34Z</time>
      </trkpt>
      <trkpt lat="40.128317" lon="-5.720433">
        <ele>1914.0</ele>
        <time>2015-06-06T15:17:36Z</time>
      </trkpt>
      <trkpt lat="40.128183" lon="-5.720617">
        <ele>1909.0</ele>
        <time>2015-06-06T15:17:38Z</time>
      </trkpt>
      <trkpt lat="40.127517" lon="-5.721500">
        <ele>1884.0</ele>
        <time>2015-06-06T15:17:49Z</time>
      </trkpt>
      <trkpt lat="40.127400" lon="-5.721700">
        <ele>1878.0</ele>
        <time>2015-06-06T15:17:51Z</time>
      </trkpt>
      <trkpt lat="40.127300" lon="-5.721917">
        <ele>1875.0</ele>
        <time>2015-06-06T15:17:53Z</time>
      </trkpt>
      <trkpt lat="40.127183" lon="-5.722133">
        <ele>1872.0</ele>
        <time>2015-06-06T15:17:55Z</time>
      </trkpt>
      <trkpt lat="40.127083" lon="-5.722317">
        <ele>1871.0</ele>
        <time>2015-06-06T15:17:57Z</time>
      </trkpt>
      <trkpt lat="40.126983" lon="-5.722517">
        <ele>1867.0</ele>
        <time>2015-06-06T15:17:59Z</time>
      </trkpt>
      <trkpt lat="40.126900" lon="-5.722717">
        <ele>1866.0</ele>
        <time>2015-06-06T15:18:01Z</time>
      </trkpt>
      <trkpt lat="40.126833" lon="-5.722933">
        <ele>1866.0</ele>
        <time>2015-06-06T15:18:03Z</time>
      </trkpt>
      <trkpt lat="40.126783" lon="-5.723183">
        <ele>1862.0</ele>
        <time>2015-06-06T15:18:05Z</time>
      </trkpt>
      <trkpt lat="40.126667" lon="-5.723483">
        <ele>1861.0</ele>
        <time>2015-06-06T15:18:07Z</time>
      </trkpt>
      <trkpt lat="40.126567" lon="-5.723683">
        <ele>1864.0</ele>
        <time>2015-06-06T15:18:09Z</time>
      </trkpt>
      <trkpt lat="40.126517" lon="-5.723917">
        <ele>1864.0</ele>
        <time>2015-06-06T15:18:11Z</time>
      </trkpt>
      <trkpt lat="40.126500" lon="-5.724250">
        <ele>1861.0</ele>
        <time>2015-06-06T15:18:13Z</time>
      </trkpt>
      <trkpt lat="40.126533" lon="-5.724550">
        <ele>1862.0</ele>
        <time>2015-06-06T15:18:15Z</time>
      </trkpt>
      <trkpt lat="40.126633" lon="-5.724817">
        <ele>1858.0</ele>
        <time>2015-06-06T15:18:17Z</time>
      </trkpt>
      <trkpt lat="40.126800" lon="-5.725100">
        <ele>1853.0</ele>
        <time>2015-06-06T15:18:19Z</time>
      </trkpt>
      <trkpt lat="40.127017" lon="-5.725267">
        <ele>1849.0</ele>
        <time>2015-06-06T15:18:21Z</time>
      </trkpt>
      <trkpt lat="40.127233" lon="-5.725300">
        <ele>1845.0</ele>
        <time>2015-06-06T15:18:23Z</time>
      </trkpt>
      <trkpt lat="40.127417" lon="-5.725267">
        <ele>1841.0</ele>
        <time>2015-06-06T15:18:25Z</time>
      </trkpt>
      <trkpt lat="40.127567" lon="-5.725150">
        <ele>1836.0</ele>
        <time>2015-06-06T15:18:27Z</time>
      </trkpt>
      <trkpt lat="40.127633" lon="-5.724967">
        <ele>1834.0</ele>
        <time>2015-06-06T15:18:29Z</time>
      </trkpt>
      <trkpt lat="40.127633" lon="-5.724850">
        <ele>1836.0</ele>
        <time>2015-06-06T15:18:31Z</time>
      </trkpt>
      <trkpt lat="40.127600" lon="-5.724783">
        <ele>1835.0</ele>
        <time>2015-06-06T15:18:33Z</time>
      </trkpt>
      <trkpt lat="40.127500" lon="-5.724700">
        <ele>1833.0</ele>
        <time>2015-06-06T15:18:35Z</time>
      </trkpt>
      <trkpt lat="40.127417" lon="-5.724600">
        <ele>1834.0</ele>
        <time>2015-06-06T15:18:37Z</time>
      </trkpt>
      <trkpt lat="40.127367" lon="-5.724533">
        <ele>1835.0</ele>
        <time>2015-06-06T15:18:39Z</time>
      </trkpt>
      <trkpt lat="40.127317" lon="-5.724433">
        <ele>1835.0</ele>
        <time>2015-06-06T15:18:41Z</time>
      </trkpt>
      <trkpt lat="40.127267" lon="-5.724383">
        <ele>1833.0</ele>
        <time>2015-06-06T15:18:43Z</time>
      </trkpt>
      <trkpt lat="40.127167" lon="-5.724433">
        <ele>1829.0</ele>
        <time>2015-06-06T15:18:45Z</time>
      </trkpt>
      <trkpt lat="40.127017" lon="-5.724550">
        <ele>1824.0</ele>
        <time>2015-06-06T15:18:47Z</time>
      </trkpt>
      <trkpt lat="40.126867" lon="-5.724667">
        <ele>1824.0</ele>
        <time>2015-06-06T15:18:49Z</time>
      </trkpt>
      <trkpt lat="40.126750" lon="-5.724767">
        <ele>1824.0</ele>
        <time>2015-06-06T15:18:51Z</time>
      </trkpt>
      <trkpt lat="40.126633" lon="-5.724950">
        <ele>1822.0</ele>
        <time>2015-06-06T15:18:53Z</time>
      </trkpt>
      <trkpt lat="40.126517" lon="-5.725150">
        <ele>1821.0</ele>
        <time>2015-06-06T15:18:55Z</time>
      </trkpt>
      <trkpt lat="40.126383" lon="-5.725333">
        <ele>1819.0</ele>
        <time>2015-06-06T15:18:57Z</time>
      </trkpt>
      <trkpt lat="40.126233" lon="-5.725483">
        <ele>1816.0</ele>
        <time>2015-06-06T15:18:59Z</time>
      </trkpt>
      <trkpt lat="40.126083" lon="-5.725617">
        <ele>1813.0</ele>
        <time>2015-06-06T15:19:01Z</time>
      </trkpt>
      <trkpt lat="40.125933" lon="-5.725683">
        <ele>1811.0</ele>
        <time>2015-06-06T15:19:03Z</time>
      </trkpt>
      <trkpt lat="40.125783" lon="-5.725700">
        <ele>1808.0</ele>
        <time>2015-06-06T15:19:05Z</time>
      </trkpt>
      <trkpt lat="40.125650" lon="-5.725700">
        <ele>1805.0</ele>
        <time>2015-06-06T15:19:07Z</time>
      </trkpt>
      <trkpt lat="40.125533" lon="-5.725683">
        <ele>1802.0</ele>
        <time>2015-06-06T15:19:09Z</time>
      </trkpt>
      <trkpt lat="40.125433" lon="-5.725617">
        <ele>1799.0</ele>
        <time>2015-06-06T15:19:11Z</time>
      </trkpt>
      <trkpt lat="40.125350" lon="-5.725533">
        <ele>1795.0</ele>
        <time>2015-06-06T15:19:13Z</time>
      </trkpt>
      <trkpt lat="40.125267" lon="-5.725450">
        <ele>1792.0</ele>
        <time>2015-06-06T15:19:15Z</time>
      </trkpt>
      <trkpt lat="40.125167" lon="-5.725433">
        <ele>1789.0</ele>
        <time>2015-06-06T15:19:17Z</time>
      </trkpt>
      <trkpt lat="40.125050" lon="-5.725500">
        <ele>1783.0</ele>
        <time>2015-06-06T15:19:19Z</time>
      </trkpt>
      <trkpt lat="40.124900" lon="-5.725617">
        <ele>1778.0</ele>
        <time>2015-06-06T15:19:21Z</time>
      </trkpt>
      <trkpt lat="40.124767" lon="-5.725717">
        <ele>1776.0</ele>
        <time>2015-06-06T15:19:23Z</time>
      </trkpt>
      <trkpt lat="40.124650" lon="-5.725783">
        <ele>1772.0</ele>
        <time>2015-06-06T15:19:25Z</time>
      </trkpt>
      <trkpt lat="40.124500" lon="-5.725867">
        <ele>1767.0</ele>
        <time>2015-06-06T15:19:27Z</time>
      </trkpt>
      <trkpt lat="40.124367" lon="-5.725933">
        <ele>1764.0</ele>
        <time>2015-06-06T15:19:29Z</time>
      </trkpt>
      <trkpt lat="40.124233" lon="-5.725933">
        <ele>1760.0</ele>
        <time>2015-06-06T15:19:31Z</time>
      </trkpt>
      <trkpt lat="40.124117" lon="-5.725933">
        <ele>1757.0</ele>
        <time>2015-06-06T15:19:33Z</time>
      </trkpt>
      <trkpt lat="40.123983" lon="-5.725917">
        <ele>1753.0</ele>
        <time>2015-06-06T15:19:35Z</time>
      </trkpt>
      <trkpt lat="40.123850" lon="-5.725867">
        <ele>1750.0</ele>
        <time>2015-06-06T15:19:37Z</time>
      </trkpt>
      <trkpt lat="40.123750" lon="-5.725817">
        <ele>1750.0</ele>
        <time>2015-06-06T15:19:39Z</time>
      </trkpt>
      <trkpt lat="40.123667" lon="-5.725767">
        <ele>1749.0</ele>
        <time>2015-06-06T15:19:41Z</time>
      </trkpt>
      <trkpt lat="40.123567" lon="-5.725750">
        <ele>1745.0</ele>
        <time>2015-06-06T15:19:43Z</time>
      </trkpt>
      <trkpt lat="40.123450" lon="-5.725767">
        <ele>1743.0</ele>
        <time>2015-06-06T15:19:45Z</time>
      </trkpt>
      <trkpt lat="40.123350" lon="-5.725867">
        <ele>1742.0</ele>
        <time>2015-06-06T15:19:47Z</time>
      </trkpt>
      <trkpt lat="40.123233" lon="-5.726000">
        <ele>1740.0</ele>
        <time>2015-06-06T15:19:49Z</time>
      </trkpt>
      <trkpt lat="40.123100" lon="-5.726117">
        <ele>1738.0</ele>
        <time>2015-06-06T15:19:51Z</time>
      </trkpt>
      <trkpt lat="40.122983" lon="-5.726217">
        <ele>1738.0</ele>
        <time>2015-06-06T15:19:53Z</time>
      </trkpt>
      <trkpt lat="40.122867" lon="-5.726350">
        <ele>1737.0</ele>
        <time>2015-06-06T15:19:55Z</time>
      </trkpt>
      <trkpt lat="40.122733" lon="-5.726483">
        <ele>1737.0</ele>
        <time>2015-06-06T15:19:57Z</time>
      </trkpt>
      <trkpt lat="40.122633" lon="-5.726667">
        <ele>1738.0</ele>
        <time>2015-06-06T15:19:59Z</time>
      </trkpt>
      <trkpt lat="40.122533" lon="-5.726850">
        <ele>1737.0</ele>
        <time>2015-06-06T15:20:01Z</time>
      </trkpt>
      <trkpt lat="40.122400" lon="-5.727033">
        <ele>1738.0</ele>
        <time>2015-06-06T15:20:03Z</time>
      </trkpt>
      <trkpt lat="40.122300" lon="-5.727217">
        <ele>1740.0</ele>
        <time>2015-06-06T15:20:05Z</time>
      </trkpt>
      <trkpt lat="40.122200" lon="-5.727450">
        <ele>1742.0</ele>
        <time>2015-06-06T15:20:07Z</time>
      </trkpt>
      <trkpt lat="40.122150" lon="-5.727733">
        <ele>1743.0</ele>
        <time>2015-06-06T15:20:09Z</time>
      </trkpt>
      <trkpt lat="40.122150" lon="-5.728067">
        <ele>1742.0</ele>
        <time>2015-06-06T15:20:11Z</time>
      </trkpt>
      <trkpt lat="40.122217" lon="-5.728367">
        <ele>1742.0</ele>
        <time>2015-06-06T15:20:13Z</time>
      </trkpt>
      <trkpt lat="40.122317" lon="-5.728650">
        <ele>1742.0</ele>
        <time>2015-06-06T15:20:15Z</time>
      </trkpt>
      <trkpt lat="40.122433" lon="-5.728883">
        <ele>1741.0</ele>
        <time>2015-06-06T15:20:17Z</time>
      </trkpt>
      <trkpt lat="40.122617" lon="-5.729083">
        <ele>1737.0</ele>
        <time>2015-06-06T15:20:19Z</time>
      </trkpt>
      <trkpt lat="40.122850" lon="-5.729250">
        <ele>1736.0</ele>
        <time>2015-06-06T15:20:21Z</time>
      </trkpt>
      <trkpt lat="40.123033" lon="-5.729450">
        <ele>1736.0</ele>
        <time>2015-06-06T15:20:23Z</time>
      </trkpt>
      <trkpt lat="40.123133" lon="-5.729750">
        <ele>1733.0</ele>
        <time>2015-06-06T15:20:25Z</time>
      </trkpt>
      <trkpt lat="40.123150" lon="-5.730050">
        <ele>1732.0</ele>
        <time>2015-06-06T15:20:27Z</time>
      </trkpt>
      <trkpt lat="40.123117" lon="-5.730300">
        <ele>1729.0</ele>
        <time>2015-06-06T15:20:29Z</time>
      </trkpt>
      <trkpt lat="40.123033" lon="-5.730517">
        <ele>1724.0</ele>
        <time>2015-06-06T15:20:31Z</time>
      </trkpt>
      <trkpt lat="40.122933" lon="-5.730750">
        <ele>1720.0</ele>
        <time>2015-06-06T15:20:33Z</time>
      </trkpt>
      <trkpt lat="40.122800" lon="-5.730917">
        <ele>1716.0</ele>
        <time>2015-06-06T15:20:35Z</time>
      </trkpt>
      <trkpt lat="40.122650" lon="-5.731067">
        <ele>1709.0</ele>
        <time>2015-06-06T15:20:37Z</time>
      </trkpt>
      <trkpt lat="40.122483" lon="-5.731200">
        <ele>1702.0</ele>
        <time>2015-06-06T15:20:39Z</time>
      </trkpt>
      <trkpt lat="40.122317" lon="-5.731233">
        <ele>1698.0</ele>
        <time>2015-06-06T15:20:41Z</time>
      </trkpt>
      <trkpt lat="40.122183" lon="-5.731250">
        <ele>1694.0</ele>
        <time>2015-06-06T15:20:43Z</time>
      </trkpt>
      <trkpt lat="40.122017" lon="-5.731267">
        <ele>1690.0</ele>
        <time>2015-06-06T15:20:45Z</time>
      </trkpt>
      <trkpt lat="40.121850" lon="-5.731267">
        <ele>1689.0</ele>
        <time>2015-06-06T15:20:47Z</time>
      </trkpt>
      <trkpt lat="40.121717" lon="-5.731333">
        <ele>1687.0</ele>
        <time>2015-06-06T15:20:49Z</time>
      </trkpt>
      <trkpt lat="40.121583" lon="-5.731450">
        <ele>1680.0</ele>
        <time>2015-06-06T15:20:51Z</time>
      </trkpt>
      <trkpt lat="40.121450" lon="-5.731633">
        <ele>1673.0</ele>
        <time>2015-06-06T15:20:53Z</time>
      </trkpt>
      <trkpt lat="40.121283" lon="-5.731817">
        <ele>1668.0</ele>
        <time>2015-06-06T15:20:55Z</time>
      </trkpt>
      <trkpt lat="40.121117" lon="-5.731950">
        <ele>1665.0</ele>
        <time>2015-06-06T15:20:57Z</time>
      </trkpt>
      <trkpt lat="40.120983" lon="-5.732067">
        <ele>1662.0</ele>
        <time>2015-06-06T15:20:59Z</time>
      </trkpt>
      <trkpt lat="40.120867" lon="-5.732217">
        <ele>1657.0</ele>
        <time>2015-06-06T15:21:01Z</time>
      </trkpt>
      <trkpt lat="40.120717" lon="-5.732367">
        <ele>1650.0</ele>
        <time>2015-06-06T15:21:03Z</time>
      </trkpt>
      <trkpt lat="40.120517" lon="-5.732500">
        <ele>1647.0</ele>
        <time>2015-06-06T15:21:05Z</time>
      </trkpt>
      <trkpt lat="40.120350" lon="-5.732600">
        <ele>1646.0</ele>
        <time>2015-06-06T15:21:07Z</time>
      </trkpt>
      <trkpt lat="40.120200" lon="-5.732683">
        <ele>1643.0</ele>
        <time>2015-06-06T15:21:09Z</time>
      </trkpt>
      <trkpt lat="40.120033" lon="-5.732800">
        <ele>1639.0</ele>
        <time>2015-06-06T15:21:11Z</time>
      </trkpt>
      <trkpt lat="40.119883" lon="-5.732933">
        <ele>1636.0</ele>
        <time>2015-06-06T15:21:13Z</time>
      </trkpt>
      <trkpt lat="40.119750" lon="-5.733033">
        <ele>1632.0</ele>
        <time>2015-06-06T15:21:15Z</time>
      </trkpt>
      <trkpt lat="40.119617" lon="-5.733117">
        <ele>1628.0</ele>
        <time>2015-06-06T15:21:17Z</time>
      </trkpt>
      <trkpt lat="40.119500" lon="-5.733167">
        <ele>1625.0</ele>
        <time>2015-06-06T15:21:19Z</time>
      </trkpt>
      <trkpt lat="40.119350" lon="-5.733233">
        <ele>1621.0</ele>
        <time>2015-06-06T15:21:21Z</time>
      </trkpt>
      <trkpt lat="40.119217" lon="-5.733317">
        <ele>1623.0</ele>
        <time>2015-06-06T15:21:23Z</time>
      </trkpt>
      <trkpt lat="40.119133" lon="-5.733350">
        <ele>1627.0</ele>
        <time>2015-06-06T15:21:25Z</time>
      </trkpt>
      <trkpt lat="40.119067" lon="-5.733450">
        <ele>1627.0</ele>
        <time>2015-06-06T15:21:27Z</time>
      </trkpt>
      <trkpt lat="40.119033" lon="-5.733683">
        <ele>1624.0</ele>
        <time>2015-06-06T15:21:29Z</time>
      </trkpt>
      <trkpt lat="40.119050" lon="-5.733950">
        <ele>1624.0</ele>
        <time>2015-06-06T15:21:31Z</time>
      </trkpt>
      <trkpt lat="40.119150" lon="-5.734217">
        <ele>1625.0</ele>
        <time>2015-06-06T15:21:33Z</time>
      </trkpt>
      <trkpt lat="40.119317" lon="-5.734450">
        <ele>1623.0</ele>
        <time>2015-06-06T15:21:35Z</time>
      </trkpt>
      <trkpt lat="40.119567" lon="-5.734617">
        <ele>1624.0</ele>
        <time>2015-06-06T15:21:37Z</time>
      </trkpt>
      <trkpt lat="40.119783" lon="-5.734733">
        <ele>1628.0</ele>
        <time>2015-06-06T15:21:39Z</time>
      </trkpt>
      <trkpt lat="40.119983" lon="-5.734833">
        <ele>1628.0</ele>
        <time>2015-06-06T15:21:41Z</time>
      </trkpt>
      <trkpt lat="40.120200" lon="-5.734817">
        <ele>1626.0</ele>
        <time>2015-06-06T15:21:43Z</time>
      </trkpt>
      <trkpt lat="40.120333" lon="-5.734700">
        <ele>1626.0</ele>
        <time>2015-06-06T15:21:45Z</time>
      </trkpt>
      <trkpt lat="40.120367" lon="-5.734600">
        <ele>1625.0</ele>
        <time>2015-06-06T15:21:47Z</time>
      </trkpt>
      <trkpt lat="40.120367" lon="-5.734483">
        <ele>1619.0</ele>
        <time>2015-06-06T15:21:49Z</time>
      </trkpt>
      <trkpt lat="40.120317" lon="-5.734350">
        <ele>1614.0</ele>
        <time>2015-06-06T15:21:51Z</time>
      </trkpt>
      <trkpt lat="40.120233" lon="-5.734250">
        <ele>1613.0</ele>
        <time>2015-06-06T15:21:53Z</time>
      </trkpt>
      <trkpt lat="40.120117" lon="-5.734233">
        <ele>1613.0</ele>
        <time>2015-06-06T15:21:55Z</time>
      </trkpt>
      <trkpt lat="40.120000" lon="-5.734267">
        <ele>1613.0</ele>
        <time>2015-06-06T15:21:57Z</time>
      </trkpt>
      <trkpt lat="40.119917" lon="-5.734350">
        <ele>1613.0</ele>
        <time>2015-06-06T15:21:59Z</time>
      </trkpt>
      <trkpt lat="40.119850" lon="-5.734450">
        <ele>1613.0</ele>
        <time>2015-06-06T15:22:01Z</time>
      </trkpt>
      <trkpt lat="40.119783" lon="-5.734567">
        <ele>1612.0</ele>
        <time>2015-06-06T15:22:03Z</time>
      </trkpt>
      <trkpt lat="40.119683" lon="-5.734700">
        <ele>1609.0</ele>
        <time>2015-06-06T15:22:05Z</time>
      </trkpt>
      <trkpt lat="40.119550" lon="-5.734767">
        <ele>1607.0</ele>
        <time>2015-06-06T15:22:07Z</time>
      </trkpt>
      <trkpt lat="40.119433" lon="-5.734883">
        <ele>1610.0</ele>
        <time>2015-06-06T15:22:09Z</time>
      </trkpt>
      <trkpt lat="40.119367" lon="-5.735083">
        <ele>1608.0</ele>
        <time>2015-06-06T15:22:11Z</time>
      </trkpt>
      <trkpt lat="40.119317" lon="-5.735333">
        <ele>1605.0</ele>
        <time>2015-06-06T15:22:13Z</time>
      </trkpt>
      <trkpt lat="40.119250" lon="-5.735550">
        <ele>1602.0</ele>
        <time>2015-06-06T15:22:15Z</time>
      </trkpt>
      <trkpt lat="40.119167" lon="-5.735750">
        <ele>1596.0</ele>
        <time>2015-06-06T15:22:17Z</time>
      </trkpt>
      <trkpt lat="40.119033" lon="-5.735933">
        <ele>1592.0</ele>
        <time>2015-06-06T15:22:19Z</time>
      </trkpt>
      <trkpt lat="40.118933" lon="-5.736117">
        <ele>1589.0</ele>
        <time>2015-06-06T15:22:21Z</time>
      </trkpt>
      <trkpt lat="40.118833" lon="-5.736300">
        <ele>1585.0</ele>
        <time>2015-06-06T15:22:23Z</time>
      </trkpt>
      <trkpt lat="40.118733" lon="-5.736500">
        <ele>1582.0</ele>
        <time>2015-06-06T15:22:25Z</time>
      </trkpt>
      <trkpt lat="40.118617" lon="-5.736683">
        <ele>1579.0</ele>
        <time>2015-06-06T15:22:27Z</time>
      </trkpt>
      <trkpt lat="40.118500" lon="-5.736850">
        <ele>1577.0</ele>
        <time>2015-06-06T15:22:29Z</time>
      </trkpt>
      <trkpt lat="40.118383" lon="-5.736983">
        <ele>1574.0</ele>
        <time>2015-06-06T15:22:31Z</time>
      </trkpt>
      <trkpt lat="40.118267" lon="-5.737083">
        <ele>1571.0</ele>
        <time>2015-06-06T15:22:33Z</time>
      </trkpt>
      <trkpt lat="40.118150" lon="-5.737183">
        <ele>1569.0</ele>
        <time>2015-06-06T15:22:35Z</time>
      </trkpt>
      <trkpt lat="40.118017" lon="-5.737250">
        <ele>1567.0</ele>
        <time>2015-06-06T15:22:37Z</time>
      </trkpt>
      <trkpt lat="40.117917" lon="-5.737283">
        <ele>1565.0</ele>
        <time>2015-06-06T15:22:39Z</time>
      </trkpt>
      <trkpt lat="40.117800" lon="-5.737300">
        <ele>1561.0</ele>
        <time>2015-06-06T15:22:41Z</time>
      </trkpt>
      <trkpt lat="40.117667" lon="-5.737350">
        <ele>1558.0</ele>
        <time>2015-06-06T15:22:43Z</time>
      </trkpt>
      <trkpt lat="40.117567" lon="-5.737450">
        <ele>1558.0</ele>
        <time>2015-06-06T15:22:45Z</time>
      </trkpt>
      <trkpt lat="40.117483" lon="-5.737600">
        <ele>1556.0</ele>
        <time>2015-06-06T15:22:47Z</time>
      </trkpt>
      <trkpt lat="40.117383" lon="-5.737783">
        <ele>1553.0</ele>
        <time>2015-06-06T15:22:49Z</time>
      </trkpt>
      <trkpt lat="40.117283" lon="-5.737950">
        <ele>1551.0</ele>
        <time>2015-06-06T15:22:51Z</time>
      </trkpt>
      <trkpt lat="40.117133" lon="-5.738117">
        <ele>1547.0</ele>
        <time>2015-06-06T15:22:53Z</time>
      </trkpt>
      <trkpt lat="40.117000" lon="-5.738267">
        <ele>1547.0</ele>
        <time>2015-06-06T15:22:55Z</time>
      </trkpt>
      <trkpt lat="40.116900" lon="-5.738417">
        <ele>1549.0</ele>
        <time>2015-06-06T15:22:57Z</time>
      </trkpt>
      <trkpt lat="40.116800" lon="-5.738617">
        <ele>1547.0</ele>
        <time>2015-06-06T15:22:59Z</time>
      </trkpt>
      <trkpt lat="40.116700" lon="-5.738850">
        <ele>1546.0</ele>
        <time>2015-06-06T15:23:01Z</time>
      </trkpt>
      <trkpt lat="40.116567" lon="-5.739050">
        <ele>1548.0</ele>
        <time>2015-06-06T15:23:03Z</time>
      </trkpt>
      <trkpt lat="40.116467" lon="-5.739217">
        <ele>1551.0</ele>
        <time>2015-06-06T15:23:05Z</time>
      </trkpt>
      <trkpt lat="40.116383" lon="-5.739450">
        <ele>1551.0</ele>
        <time>2015-06-06T15:23:07Z</time>
      </trkpt>
      <trkpt lat="40.116350" lon="-5.739783">
        <ele>1550.0</ele>
        <time>2015-06-06T15:23:09Z</time>
      </trkpt>
      <trkpt lat="40.116283" lon="-5.740083">
        <ele>1550.0</ele>
        <time>2015-06-06T15:23:11Z</time>
      </trkpt>
      <trkpt lat="40.116200" lon="-5.740300">
        <ele>1549.0</ele>
        <time>2015-06-06T15:23:13Z</time>
      </trkpt>
      <trkpt lat="40.116100" lon="-5.740517">
        <ele>1546.0</ele>
        <time>2015-06-06T15:23:15Z</time>
      </trkpt>
      <trkpt lat="40.115950" lon="-5.740733">
        <ele>1545.0</ele>
        <time>2015-06-06T15:23:17Z</time>
      </trkpt>
      <trkpt lat="40.115817" lon="-5.740883">
        <ele>1547.0</ele>
        <time>2015-06-06T15:23:19Z</time>
      </trkpt>
      <trkpt lat="40.115700" lon="-5.741033">
        <ele>1548.0</ele>
        <time>2015-06-06T15:23:21Z</time>
      </trkpt>
      <trkpt lat="40.115600" lon="-5.741300">
        <ele>1548.0</ele>
        <time>2015-06-06T15:23:23Z</time>
      </trkpt>
      <trkpt lat="40.115550" lon="-5.741633">
        <ele>1548.0</ele>
        <time>2015-06-06T15:23:25Z</time>
      </trkpt>
      <trkpt lat="40.115533" lon="-5.741950">
        <ele>1550.0</ele>
        <time>2015-06-06T15:23:27Z</time>
      </trkpt>
      <trkpt lat="40.115567" lon="-5.742267">
        <ele>1549.0</ele>
        <time>2015-06-06T15:23:29Z</time>
      </trkpt>
      <trkpt lat="40.115667" lon="-5.742617">
        <ele>1547.0</ele>
        <time>2015-06-06T15:23:31Z</time>
      </trkpt>
      <trkpt lat="40.115833" lon="-5.742883">
        <ele>1548.0</ele>
        <time>2015-06-06T15:23:33Z</time>
      </trkpt>
      <trkpt lat="40.116050" lon="-5.743067">
        <ele>1549.0</ele>
        <time>2015-06-06T15:23:35Z</time>
      </trkpt>
      <trkpt lat="40.116267" lon="-5.743183">
        <ele>1551.0</ele>
        <time>2015-06-06T15:23:37Z</time>
      </trkpt>
      <trkpt lat="40.116450" lon="-5.743200">
        <ele>1552.0</ele>
        <time>2015-06-06T15:23:39Z</time>
      </trkpt>
      <trkpt lat="40.116583" lon="-5.743133">
        <ele>1553.0</ele>
        <time>2015-06-06T15:23:41Z</time>
      </trkpt>
      <trkpt lat="40.116650" lon="-5.743050">
        <ele>1552.0</ele>
        <time>2015-06-06T15:23:43Z</time>
      </trkpt>
      <trkpt lat="40.116633" lon="-5.743000">
        <ele>1550.0</ele>
        <time>2015-06-06T15:23:45Z</time>
      </trkpt>
      <trkpt lat="40.116550" lon="-5.742983">
        <ele>1549.0</ele>
        <time>2015-06-06T15:23:47Z</time>
      </trkpt>
      <trkpt lat="40.116450" lon="-5.742967">
        <ele>1550.0</ele>
        <time>2015-06-06T15:23:49Z</time>
      </trkpt>
      <trkpt lat="40.116350" lon="-5.743067">
        <ele>1550.0</ele>
        <time>2015-06-06T15:23:51Z</time>
      </trkpt>
      <trkpt lat="40.116217" lon="-5.743217">
        <ele>1550.0</ele>
        <time>2015-06-06T15:23:53Z</time>
      </trkpt>
      <trkpt lat="40.116117" lon="-5.743400">
        <ele>1552.0</ele>
        <time>2015-06-06T15:23:55Z</time>
      </trkpt>
      <trkpt lat="40.116017" lon="-5.743633">
        <ele>1552.0</ele>
        <time>2015-06-06T15:23:57Z</time>
      </trkpt>
      <trkpt lat="40.115967" lon="-5.743933">
        <ele>1551.0</ele>
        <time>2015-06-06T15:23:59Z</time>
      </trkpt>
      <trkpt lat="40.115950" lon="-5.744283">
        <ele>1549.0</ele>
        <time>2015-06-06T15:24:01Z</time>
      </trkpt>
      <trkpt lat="40.115967" lon="-5.744633">
        <ele>1550.0</ele>
        <time>2015-06-06T15:24:03Z</time>
      </trkpt>
      <trkpt lat="40.116033" lon="-5.744967">
        <ele>1551.0</ele>
        <time>2015-06-06T15:24:05Z</time>
      </trkpt>
      <trkpt lat="40.116200" lon="-5.745233">
        <ele>1551.0</ele>
        <time>2015-06-06T15:24:07Z</time>
      </trkpt>
      <trkpt lat="40.116433" lon="-5.745350">
        <ele>1552.0</ele>
        <time>2015-06-06T15:24:09Z</time>
      </trkpt>
      <trkpt lat="40.116617" lon="-5.745350">
        <ele>1555.0</ele>
        <time>2015-06-06T15:24:11Z</time>
      </trkpt>
      <trkpt lat="40.116767" lon="-5.745333">
        <ele>1557.0</ele>
        <time>2015-06-06T15:24:13Z</time>
      </trkpt>
      <trkpt lat="40.116867" lon="-5.745217">
        <ele>1557.0</ele>
        <time>2015-06-06T15:24:15Z</time>
      </trkpt>
      <trkpt lat="40.116917" lon="-5.745033">
        <ele>1559.0</ele>
        <time>2015-06-06T15:24:17Z</time>
      </trkpt>
      <trkpt lat="40.116917" lon="-5.744917">
        <ele>1565.0</ele>
        <time>2015-06-06T15:24:19Z</time>
      </trkpt>
      <trkpt lat="40.116883" lon="-5.744900">
        <ele>1565.0</ele>
        <time>2015-06-06T15:24:21Z</time>
      </trkpt>
      <trkpt lat="40.116783" lon="-5.744867">
        <ele>1563.0</ele>
        <time>2015-06-06T15:24:23Z</time>
      </trkpt>
      <trkpt lat="40.116650" lon="-5.744933">
        <ele>1562.0</ele>
        <time>2015-06-06T15:24:25Z</time>
      </trkpt>
      <trkpt lat="40.116533" lon="-5.745083">
        <ele>1563.0</ele>
        <time>2015-06-06T15:24:27Z</time>
      </trkpt>
      <trkpt lat="40.116433" lon="-5.745300">
        <ele>1563.0</ele>
        <time>2015-06-06T15:24:29Z</time>
      </trkpt>
      <trkpt lat="40.116350" lon="-5.745583">
        <ele>1564.0</ele>
        <time>2015-06-06T15:24:31Z</time>
      </trkpt>
      <trkpt lat="40.116300" lon="-5.745850">
        <ele>1566.0</ele>
        <time>2015-06-06T15:24:33Z</time>
      </trkpt>
      <trkpt lat="40.116300" lon="-5.746150">
        <ele>1564.0</ele>
        <time>2015-06-06T15:24:35Z</time>
      </trkpt>
      <trkpt lat="40.116417" lon="-5.746483">
        <ele>1561.0</ele>
        <time>2015-06-06T15:24:37Z</time>
      </trkpt>
      <trkpt lat="40.116617" lon="-5.746717">
        <ele>1564.0</ele>
        <time>2015-06-06T15:24:39Z</time>
      </trkpt>
      <trkpt lat="40.116783" lon="-5.746833">
        <ele>1565.0</ele>
        <time>2015-06-06T15:24:41Z</time>
      </trkpt>
      <trkpt lat="40.116950" lon="-5.746867">
        <ele>1563.0</ele>
        <time>2015-06-06T15:24:43Z</time>
      </trkpt>
      <trkpt lat="40.117117" lon="-5.746833">
        <ele>1561.0</ele>
        <time>2015-06-06T15:24:45Z</time>
      </trkpt>
      <trkpt lat="40.117200" lon="-5.746683">
        <ele>1560.0</ele>
        <time>2015-06-06T15:24:47Z</time>
      </trkpt>
      <trkpt lat="40.117150" lon="-5.746517">
        <ele>1561.0</ele>
        <time>2015-06-06T15:24:49Z</time>
      </trkpt>
      <trkpt lat="40.117050" lon="-5.746433">
        <ele>1564.0</ele>
        <time>2015-06-06T15:24:51Z</time>
      </trkpt>
      <trkpt lat="40.116950" lon="-5.746433">
        <ele>1565.0</ele>
        <time>2015-06-06T15:24:53Z</time>
      </trkpt>
      <trkpt lat="40.116800" lon="-5.746467">
        <ele>1562.0</ele>
        <time>2015-06-06T15:24:55Z</time>
      </trkpt>
      <trkpt lat="40.116633" lon="-5.746583">
        <ele>1563.0</ele>
        <time>2015-06-06T15:24:57Z</time>
      </trkpt>
      <trkpt lat="40.116517" lon="-5.746733">
        <ele>1566.0</ele>
        <time>2015-06-06T15:24:59Z</time>
      </trkpt>
      <trkpt lat="40.116417" lon="-5.746950">
        <ele>1564.0</ele>
        <time>2015-06-06T15:25:01Z</time>
      </trkpt>
      <trkpt lat="40.116283" lon="-5.747200">
        <ele>1561.0</ele>
        <time>2015-06-06T15:25:03Z</time>
      </trkpt>
      <trkpt lat="40.116200" lon="-5.747500">
        <ele>1561.0</ele>
        <time>2015-06-06T15:25:05Z</time>
      </trkpt>
      <trkpt lat="40.116200" lon="-5.747833">
        <ele>1561.0</ele>
        <time>2015-06-06T15:25:07Z</time>
      </trkpt>
      <trkpt lat="40.116267" lon="-5.748133">
        <ele>1562.0</ele>
        <time>2015-06-06T15:25:09Z</time>
      </trkpt>
      <trkpt lat="40.116417" lon="-5.748350">
        <ele>1559.0</ele>
        <time>2015-06-06T15:25:11Z</time>
      </trkpt>
      <trkpt lat="40.116650" lon="-5.748417">
        <ele>1553.0</ele>
        <time>2015-06-06T15:25:13Z</time>
      </trkpt>
      <trkpt lat="40.116800" lon="-5.748317">
        <ele>1552.0</ele>
        <time>2015-06-06T15:25:15Z</time>
      </trkpt>
      <trkpt lat="40.116850" lon="-5.748250">
        <ele>1552.0</ele>
        <time>2015-06-06T15:25:17Z</time>
      </trkpt>
      <trkpt lat="40.116867" lon="-5.748150">
        <ele>1548.0</ele>
        <time>2015-06-06T15:25:19Z</time>
      </trkpt>
      <trkpt lat="40.116817" lon="-5.747983">
        <ele>1543.0</ele>
        <time>2015-06-06T15:25:21Z</time>
      </trkpt>
      <trkpt lat="40.116650" lon="-5.747900">
        <ele>1542.0</ele>
        <time>2015-06-06T15:25:23Z</time>
      </trkpt>
      <trkpt lat="40.116500" lon="-5.747867">
        <ele>1546.0</ele>
        <time>2015-06-06T15:25:25Z</time>
      </trkpt>
      <trkpt lat="40.116350" lon="-5.747883">
        <ele>1549.0</ele>
        <time>2015-06-06T15:25:27Z</time>
      </trkpt>
      <trkpt lat="40.116183" lon="-5.748000">
        <ele>1552.0</ele>
        <time>2015-06-06T15:25:29Z</time>
      </trkpt>
      <trkpt lat="40.116033" lon="-5.748167">
        <ele>1555.0</ele>
        <time>2015-06-06T15:25:31Z</time>
      </trkpt>
      <trkpt lat="40.115900" lon="-5.748400">
        <ele>1558.0</ele>
        <time>2015-06-06T15:25:33Z</time>
      </trkpt>
      <trkpt lat="40.115800" lon="-5.748683">
        <ele>1560.0</ele>
        <time>2015-06-06T15:25:35Z</time>
      </trkpt>
      <trkpt lat="40.115767" lon="-5.749017">
        <ele>1563.0</ele>
        <time>2015-06-06T15:25:37Z</time>
      </trkpt>
      <trkpt lat="40.115800" lon="-5.749350">
        <ele>1564.0</ele>
        <time>2015-06-06T15:25:39Z</time>
      </trkpt>
      <trkpt lat="40.115917" lon="-5.749667">
        <ele>1566.0</ele>
        <time>2015-06-06T15:25:41Z</time>
      </trkpt>
      <trkpt lat="40.116067" lon="-5.749867">
        <ele>1569.0</ele>
        <time>2015-06-06T15:25:43Z</time>
      </trkpt>
      <trkpt lat="40.116233" lon="-5.749983">
        <ele>1571.0</ele>
        <time>2015-06-06T15:25:45Z</time>
      </trkpt>
      <trkpt lat="40.116383" lon="-5.750033">
        <ele>1569.0</ele>
        <time>2015-06-06T15:25:47Z</time>
      </trkpt>
      <trkpt lat="40.116500" lon="-5.749950">
        <ele>1568.0</ele>
        <time>2015-06-06T15:25:49Z</time>
      </trkpt>
      <trkpt lat="40.116533" lon="-5.749817">
        <ele>1570.0</ele>
        <time>2015-06-06T15:25:51Z</time>
      </trkpt>
      <trkpt lat="40.116500" lon="-5.749700">
        <ele>1572.0</ele>
        <time>2015-06-06T15:25:53Z</time>
      </trkpt>
      <trkpt lat="40.116433" lon="-5.749617">
        <ele>1572.0</ele>
        <time>2015-06-06T15:25:55Z</time>
      </trkpt>
      <trkpt lat="40.116283" lon="-5.749567">
        <ele>1573.0</ele>
        <time>2015-06-06T15:25:57Z</time>
      </trkpt>
      <trkpt lat="40.116117" lon="-5.749617">
        <ele>1577.0</ele>
        <time>2015-06-06T15:25:59Z</time>
      </trkpt>
      <trkpt lat="40.115967" lon="-5.749767">
        <ele>1580.0</ele>
        <time>2015-06-06T15:26:01Z</time>
      </trkpt>
      <trkpt lat="40.115817" lon="-5.749950">
        <ele>1582.0</ele>
        <time>2015-06-06T15:26:03Z</time>
      </trkpt>
      <trkpt lat="40.115683" lon="-5.750233">
        <ele>1583.0</ele>
        <time>2015-06-06T15:26:05Z</time>
      </trkpt>
      <trkpt lat="40.115600" lon="-5.750583">
        <ele>1586.0</ele>
        <time>2015-06-06T15:26:07Z</time>
      </trkpt>
      <trkpt lat="40.115633" lon="-5.750917">
        <ele>1587.0</ele>
        <time>2015-06-06T15:26:09Z</time>
      </trkpt>
      <trkpt lat="40.115700" lon="-5.751217">
        <ele>1587.0</ele>
        <time>2015-06-06T15:26:11Z</time>
      </trkpt>
      <trkpt lat="40.115867" lon="-5.751467">
        <ele>1586.0</ele>
        <time>2015-06-06T15:26:13Z</time>
      </trkpt>
      <trkpt lat="40.116050" lon="-5.751567">
        <ele>1588.0</ele>
        <time>2015-06-06T15:26:15Z</time>
      </trkpt>
      <trkpt lat="40.116183" lon="-5.751533">
        <ele>1589.0</ele>
        <time>2015-06-06T15:26:17Z</time>
      </trkpt>
      <trkpt lat="40.116283" lon="-5.751450">
        <ele>1590.0</ele>
        <time>2015-06-06T15:26:19Z</time>
      </trkpt>
      <trkpt lat="40.116300" lon="-5.751350">
        <ele>1592.0</ele>
        <time>2015-06-06T15:26:21Z</time>
      </trkpt>
      <trkpt lat="40.116250" lon="-5.751250">
        <ele>1592.0</ele>
        <time>2015-06-06T15:26:23Z</time>
      </trkpt>
      <trkpt lat="40.116133" lon="-5.751217">
        <ele>1594.0</ele>
        <time>2015-06-06T15:26:25Z</time>
      </trkpt>
      <trkpt lat="40.115983" lon="-5.751283">
        <ele>1595.0</ele>
        <time>2015-06-06T15:26:27Z</time>
      </trkpt>
      <trkpt lat="40.115817" lon="-5.751417">
        <ele>1598.0</ele>
        <time>2015-06-06T15:26:29Z</time>
      </trkpt>
      <trkpt lat="40.115700" lon="-5.751617">
        <ele>1601.0</ele>
        <time>2015-06-06T15:26:31Z</time>
      </trkpt>
      <trkpt lat="40.115617" lon="-5.751850">
        <ele>1603.0</ele>
        <time>2015-06-06T15:26:33Z</time>
      </trkpt>
      <trkpt lat="40.115550" lon="-5.752133">
        <ele>1602.0</ele>
        <time>2015-06-06T15:26:35Z</time>
      </trkpt>
      <trkpt lat="40.115483" lon="-5.752500">
        <ele>1602.0</ele>
        <time>2015-06-06T15:26:37Z</time>
      </trkpt>
      <trkpt lat="40.115450" lon="-5.752833">
        <ele>1604.0</ele>
        <time>2015-06-06T15:26:39Z</time>
      </trkpt>
      <trkpt lat="40.115500" lon="-5.753150">
        <ele>1604.0</ele>
        <time>2015-06-06T15:26:41Z</time>
      </trkpt>
      <trkpt lat="40.115650" lon="-5.753433">
        <ele>1604.0</ele>
        <time>2015-06-06T15:26:43Z</time>
      </trkpt>
      <trkpt lat="40.115833" lon="-5.753617">
        <ele>1604.0</ele>
        <time>2015-06-06T15:26:45Z</time>
      </trkpt>
      <trkpt lat="40.116000" lon="-5.753667">
        <ele>1605.0</ele>
        <time>2015-06-06T15:26:47Z</time>
      </trkpt>
      <trkpt lat="40.116117" lon="-5.753617">
        <ele>1606.0</ele>
        <time>2015-06-06T15:26:49Z</time>
      </trkpt>
      <trkpt lat="40.116167" lon="-5.753533">
        <ele>1608.0</ele>
        <time>2015-06-06T15:26:51Z</time>
      </trkpt>
      <trkpt lat="40.116150" lon="-5.753450">
        <ele>1608.0</ele>
        <time>2015-06-06T15:26:53Z</time>
      </trkpt>
      <trkpt lat="40.116067" lon="-5.753400">
        <ele>1608.0</ele>
        <time>2015-06-06T15:26:55Z</time>
      </trkpt>
      <trkpt lat="40.115933" lon="-5.753417">
        <ele>1609.0</ele>
        <time>2015-06-06T15:26:57Z</time>
      </trkpt>
      <trkpt lat="40.115767" lon="-5.753517">
        <ele>1611.0</ele>
        <time>2015-06-06T15:26:59Z</time>
      </trkpt>
      <trkpt lat="40.115617" lon="-5.753667">
        <ele>1613.0</ele>
        <time>2015-06-06T15:27:01Z</time>
      </trkpt>
      <trkpt lat="40.115467" lon="-5.753883">
        <ele>1614.0</ele>
        <time>2015-06-06T15:27:03Z</time>
      </trkpt>
      <trkpt lat="40.115350" lon="-5.754167">
        <ele>1616.0</ele>
        <time>2015-06-06T15:27:05Z</time>
      </trkpt>
      <trkpt lat="40.115300" lon="-5.754467">
        <ele>1617.0</ele>
        <time>2015-06-06T15:27:07Z</time>
      </trkpt>
      <trkpt lat="40.115317" lon="-5.754800">
        <ele>1616.0</ele>
        <time>2015-06-06T15:27:09Z</time>
      </trkpt>
      <trkpt lat="40.115433" lon="-5.755100">
        <ele>1616.0</ele>
        <time>2015-06-06T15:27:11Z</time>
      </trkpt>
      <trkpt lat="40.115583" lon="-5.755300">
        <ele>1618.0</ele>
        <time>2015-06-06T15:27:13Z</time>
      </trkpt>
      <trkpt lat="40.115767" lon="-5.755417">
        <ele>1618.0</ele>
        <time>2015-06-06T15:27:15Z</time>
      </trkpt>
      <trkpt lat="40.115950" lon="-5.755417">
        <ele>1618.0</ele>
        <time>2015-06-06T15:27:17Z</time>
      </trkpt>
      <trkpt lat="40.116083" lon="-5.755350">
        <ele>1618.0</ele>
        <time>2015-06-06T15:27:19Z</time>
      </trkpt>
      <trkpt lat="40.116133" lon="-5.755233">
        <ele>1620.0</ele>
        <time>2015-06-06T15:27:21Z</time>
      </trkpt>
      <trkpt lat="40.116100" lon="-5.755150">
        <ele>1621.0</ele>
        <time>2015-06-06T15:27:23Z</time>
      </trkpt>
      <trkpt lat="40.116017" lon="-5.755100">
        <ele>1622.0</ele>
        <time>2015-06-06T15:27:25Z</time>
      </trkpt>
      <trkpt lat="40.115883" lon="-5.755100">
        <ele>1623.0</ele>
        <time>2015-06-06T15:27:27Z</time>
      </trkpt>
      <trkpt lat="40.115717" lon="-5.755150">
        <ele>1628.0</ele>
        <time>2015-06-06T15:27:29Z</time>
      </trkpt>
      <trkpt lat="40.115583" lon="-5.755267">
        <ele>1630.0</ele>
        <time>2015-06-06T15:27:31Z</time>
      </trkpt>
      <trkpt lat="40.115467" lon="-5.755450">
        <ele>1630.0</ele>
        <time>2015-06-06T15:27:33Z</time>
      </trkpt>
      <trkpt lat="40.115367" lon="-5.755700">
        <ele>1632.0</ele>
        <time>2015-06-06T15:27:35Z</time>
      </trkpt>
      <trkpt lat="40.115333" lon="-5.756000">
        <ele>1633.0</ele>
        <time>2015-06-06T15:27:37Z</time>
      </trkpt>
      <trkpt lat="40.115333" lon="-5.756317">
        <ele>1631.0</ele>
        <time>2015-06-06T15:27:39Z</time>
      </trkpt>
      <trkpt lat="40.115417" lon="-5.756633">
        <ele>1630.0</ele>
        <time>2015-06-06T15:27:41Z</time>
      </trkpt>
      <trkpt lat="40.115583" lon="-5.756850">
        <ele>1630.0</ele>
        <time>2015-06-06T15:27:43Z</time>
      </trkpt>
      <trkpt lat="40.115750" lon="-5.756900">
        <ele>1630.0</ele>
        <time>2015-06-06T15:27:45Z</time>
      </trkpt>
      <trkpt lat="40.115917" lon="-5.756883">
        <ele>1629.0</ele>
        <time>2015-06-06T15:27:47Z</time>
      </trkpt>
      <trkpt lat="40.116033" lon="-5.756800">
        <ele>1628.0</ele>
        <time>2015-06-06T15:27:49Z</time>
      </trkpt>
      <trkpt lat="40.116067" lon="-5.756650">
        <ele>1630.0</ele>
        <time>2015-06-06T15:27:51Z</time>
      </trkpt>
      <trkpt lat="40.116033" lon="-5.756567">
        <ele>1633.0</ele>
        <time>2015-06-06T15:27:53Z</time>
      </trkpt>
      <trkpt lat="40.116000" lon="-5.756483">
        <ele>1635.0</ele>
        <time>2015-06-06T15:27:55Z</time>
      </trkpt>
      <trkpt lat="40.115900" lon="-5.756467">
        <ele>1636.0</ele>
        <time>2015-06-06T15:27:57Z</time>
      </trkpt>
      <trkpt lat="40.115733" lon="-5.756550">
        <ele>1637.0</ele>
        <time>2015-06-06T15:27:59Z</time>
      </trkpt>
      <trkpt lat="40.115600" lon="-5.756700">
        <ele>1640.0</ele>
        <time>2015-06-06T15:28:01Z</time>
      </trkpt>
      <trkpt lat="40.115467" lon="-5.756900">
        <ele>1641.0</ele>
        <time>2015-06-06T15:28:03Z</time>
      </trkpt>
      <trkpt lat="40.115383" lon="-5.757167">
        <ele>1642.0</ele>
        <time>2015-06-06T15:28:05Z</time>
      </trkpt>
      <trkpt lat="40.115350" lon="-5.757500">
        <ele>1642.0</ele>
        <time>2015-06-06T15:28:07Z</time>
      </trkpt>
      <trkpt lat="40.115383" lon="-5.757817">
        <ele>1643.0</ele>
        <time>2015-06-06T15:28:09Z</time>
      </trkpt>
      <trkpt lat="40.115467" lon="-5.758117">
        <ele>1643.0</ele>
        <time>2015-06-06T15:28:11Z</time>
      </trkpt>
      <trkpt lat="40.115617" lon="-5.758350">
        <ele>1642.0</ele>
        <time>2015-06-06T15:28:13Z</time>
      </trkpt>
      <trkpt lat="40.115817" lon="-5.758483">
        <ele>1640.0</ele>
        <time>2015-06-06T15:28:15Z</time>
      </trkpt>
      <trkpt lat="40.116017" lon="-5.758517">
        <ele>1640.0</ele>
        <time>2015-06-06T15:28:17Z</time>
      </trkpt>
      <trkpt lat="40.116183" lon="-5.758483">
        <ele>1641.0</ele>
        <time>2015-06-06T15:28:19Z</time>
      </trkpt>
      <trkpt lat="40.116317" lon="-5.758400">
        <ele>1640.0</ele>
        <time>2015-06-06T15:28:21Z</time>
      </trkpt>
      <trkpt lat="40.116383" lon="-5.758283">
        <ele>1640.0</ele>
        <time>2015-06-06T15:28:23Z</time>
      </trkpt>
      <trkpt lat="40.116383" lon="-5.758150">
        <ele>1641.0</ele>
        <time>2015-06-06T15:28:25Z</time>
      </trkpt>
      <trkpt lat="40.116350" lon="-5.758083">
        <ele>1643.0</ele>
        <time>2015-06-06T15:28:27Z</time>
      </trkpt>
      <trkpt lat="40.116283" lon="-5.758000">
        <ele>1642.0</ele>
        <time>2015-06-06T15:28:29Z</time>
      </trkpt>
      <trkpt lat="40.116150" lon="-5.757983">
        <ele>1643.0</ele>
        <time>2015-06-06T15:28:31Z</time>
      </trkpt>
      <trkpt lat="40.116000" lon="-5.758050">
        <ele>1645.0</ele>
        <time>2015-06-06T15:28:33Z</time>
      </trkpt>
      <trkpt lat="40.115867" lon="-5.758167">
        <ele>1646.0</ele>
        <time>2015-06-06T15:28:35Z</time>
      </trkpt>
      <trkpt lat="40.115717" lon="-5.758333">
        <ele>1647.0</ele>
        <time>2015-06-06T15:28:37Z</time>
      </trkpt>
      <trkpt lat="40.115600" lon="-5.758550">
        <ele>1647.0</ele>
        <time>2015-06-06T15:28:39Z</time>
      </trkpt>
      <trkpt lat="40.115517" lon="-5.758817">
        <ele>1648.0</ele>
        <time>2015-06-06T15:28:41Z</time>
      </trkpt>
      <trkpt lat="40.115500" lon="-5.759150">
        <ele>1647.0</ele>
        <time>2015-06-06T15:28:43Z</time>
      </trkpt>
      <trkpt lat="40.115517" lon="-5.759483">
        <ele>1646.0</ele>
        <time>2015-06-06T15:28:45Z</time>
      </trkpt>
      <trkpt lat="40.115600" lon="-5.759800">
        <ele>1646.0</ele>
        <time>2015-06-06T15:28:47Z</time>
      </trkpt>
      <trkpt lat="40.115767" lon="-5.760033">
        <ele>1645.0</ele>
        <time>2015-06-06T15:28:49Z</time>
      </trkpt>
      <trkpt lat="40.115933" lon="-5.760200">
        <ele>1646.0</ele>
        <time>2015-06-06T15:28:51Z</time>
      </trkpt>
      <trkpt lat="40.116100" lon="-5.760283">
        <ele>1644.0</ele>
        <time>2015-06-06T15:28:53Z</time>
      </trkpt>
      <trkpt lat="40.116283" lon="-5.760267">
        <ele>1642.0</ele>
        <time>2015-06-06T15:28:55Z</time>
      </trkpt>
      <trkpt lat="40.116400" lon="-5.760167">
        <ele>1641.0</ele>
        <time>2015-06-06T15:28:57Z</time>
      </trkpt>
      <trkpt lat="40.116417" lon="-5.760050">
        <ele>1640.0</ele>
        <time>2015-06-06T15:28:59Z</time>
      </trkpt>
      <trkpt lat="40.116383" lon="-5.759950">
        <ele>1638.0</ele>
        <time>2015-06-06T15:29:01Z</time>
      </trkpt>
      <trkpt lat="40.116267" lon="-5.759900">
        <ele>1637.0</ele>
        <time>2015-06-06T15:29:03Z</time>
      </trkpt>
      <trkpt lat="40.116133" lon="-5.759933">
        <ele>1638.0</ele>
        <time>2015-06-06T15:29:05Z</time>
      </trkpt>
      <trkpt lat="40.115983" lon="-5.760033">
        <ele>1638.0</ele>
        <time>2015-06-06T15:29:07Z</time>
      </trkpt>
      <trkpt lat="40.115833" lon="-5.760183">
        <ele>1638.0</ele>
        <time>2015-06-06T15:29:09Z</time>
      </trkpt>
      <trkpt lat="40.115683" lon="-5.760367">
        <ele>1639.0</ele>
        <time>2015-06-06T15:29:11Z</time>
      </trkpt>
      <trkpt lat="40.115550" lon="-5.760533">
        <ele>1640.0</ele>
        <time>2015-06-06T15:29:13Z</time>
      </trkpt>
      <trkpt lat="40.115417" lon="-5.760733">
        <ele>1639.0</ele>
        <time>2015-06-06T15:29:15Z</time>
      </trkpt>
      <trkpt lat="40.115283" lon="-5.760967">
        <ele>1639.0</ele>
        <time>2015-06-06T15:29:17Z</time>
      </trkpt>
      <trkpt lat="40.115150" lon="-5.761183">
        <ele>1639.0</ele>
        <time>2015-06-06T15:29:19Z</time>
      </trkpt>
      <trkpt lat="40.115000" lon="-5.761383">
        <ele>1640.0</ele>
        <time>2015-06-06T15:29:21Z</time>
      </trkpt>
      <trkpt lat="40.114883" lon="-5.761633">
        <ele>1639.0</ele>
        <time>2015-06-06T15:29:23Z</time>
      </trkpt>
      <trkpt lat="40.114783" lon="-5.761900">
        <ele>1638.0</ele>
        <time>2015-06-06T15:29:25Z</time>
      </trkpt>
      <trkpt lat="40.114700" lon="-5.762200">
        <ele>1637.0</ele>
        <time>2015-06-06T15:29:27Z</time>
      </trkpt>
      <trkpt lat="40.114583" lon="-5.762450">
        <ele>1637.0</ele>
        <time>2015-06-06T15:29:29Z</time>
      </trkpt>
      <trkpt lat="40.114483" lon="-5.762700">
        <ele>1636.0</ele>
        <time>2015-06-06T15:29:31Z</time>
      </trkpt>
      <trkpt lat="40.114417" lon="-5.762983">
        <ele>1634.0</ele>
        <time>2015-06-06T15:29:33Z</time>
      </trkpt>
      <trkpt lat="40.114367" lon="-5.763267">
        <ele>1634.0</ele>
        <time>2015-06-06T15:29:35Z</time>
      </trkpt>
      <trkpt lat="40.114317" lon="-5.763533">
        <ele>1631.0</ele>
        <time>2015-06-06T15:29:37Z</time>
      </trkpt>
      <trkpt lat="40.114267" lon="-5.763817">
        <ele>1628.0</ele>
        <time>2015-06-06T15:29:39Z</time>
      </trkpt>
      <trkpt lat="40.114167" lon="-5.764083">
        <ele>1626.0</ele>
        <time>2015-06-06T15:29:41Z</time>
      </trkpt>
      <trkpt lat="40.114050" lon="-5.764250">
        <ele>1625.0</ele>
        <time>2015-06-06T15:29:43Z</time>
      </trkpt>
      <trkpt lat="40.113917" lon="-5.764433">
        <ele>1624.0</ele>
        <time>2015-06-06T15:29:45Z</time>
      </trkpt>
      <trkpt lat="40.113767" lon="-5.764633">
        <ele>1623.0</ele>
        <time>2015-06-06T15:29:47Z</time>
      </trkpt>
      <trkpt lat="40.113633" lon="-5.764833">
        <ele>1623.0</ele>
        <time>2015-06-06T15:29:49Z</time>
      </trkpt>
      <trkpt lat="40.113517" lon="-5.765067">
        <ele>1625.0</ele>
        <time>2015-06-06T15:29:51Z</time>
      </trkpt>
      <trkpt lat="40.113417" lon="-5.765317">
        <ele>1627.0</ele>
        <time>2015-06-06T15:29:53Z</time>
      </trkpt>
      <trkpt lat="40.113350" lon="-5.765567">
        <ele>1630.0</ele>
        <time>2015-06-06T15:29:55Z</time>
      </trkpt>
      <trkpt lat="40.113367" lon="-5.765850">
        <ele>1629.0</ele>
        <time>2015-06-06T15:29:57Z</time>
      </trkpt>
      <trkpt lat="40.113450" lon="-5.766150">
        <ele>1627.0</ele>
        <time>2015-06-06T15:29:59Z</time>
      </trkpt>
      <trkpt lat="40.113600" lon="-5.766417">
        <ele>1627.0</ele>
        <time>2015-06-06T15:30:01Z</time>
      </trkpt>
      <trkpt lat="40.113767" lon="-5.766600">
        <ele>1629.0</ele>
        <time>2015-06-06T15:30:03Z</time>
      </trkpt>
      <trkpt lat="40.113967" lon="-5.766700">
        <ele>1631.0</ele>
        <time>2015-06-06T15:30:05Z</time>
      </trkpt>
      <trkpt lat="40.114150" lon="-5.766683">
        <ele>1631.0</ele>
        <time>2015-06-06T15:30:07Z</time>
      </trkpt>
      <trkpt lat="40.114283" lon="-5.766617">
        <ele>1632.0</ele>
        <time>2015-06-06T15:30:09Z</time>
      </trkpt>
      <trkpt lat="40.114350" lon="-5.766517">
        <ele>1631.0</ele>
        <time>2015-06-06T15:30:11Z</time>
      </trkpt>
      <trkpt lat="40.114367" lon="-5.766383">
        <ele>1630.0</ele>
        <time>2015-06-06T15:30:13Z</time>
      </trkpt>
      <trkpt lat="40.114283" lon="-5.766283">
        <ele>1629.0</ele>
        <time>2015-06-06T15:30:15Z</time>
      </trkpt>
      <trkpt lat="40.114167" lon="-5.766233">
        <ele>1628.0</ele>
        <time>2015-06-06T15:30:17Z</time>
      </trkpt>
      <trkpt lat="40.114033" lon="-5.766250">
        <ele>1629.0</ele>
        <time>2015-06-06T15:30:19Z</time>
      </trkpt>
      <trkpt lat="40.113867" lon="-5.766333">
        <ele>1629.0</ele>
        <time>2015-06-06T15:30:21Z</time>
      </trkpt>
      <trkpt lat="40.113717" lon="-5.766467">
        <ele>1631.0</ele>
        <time>2015-06-06T15:30:23Z</time>
      </trkpt>
      <trkpt lat="40.113600" lon="-5.766650">
        <ele>1631.0</ele>
        <time>2015-06-06T15:30:25Z</time>
      </trkpt>
      <trkpt lat="40.113467" lon="-5.766850">
        <ele>1632.0</ele>
        <time>2015-06-06T15:30:27Z</time>
      </trkpt>
      <trkpt lat="40.113333" lon="-5.767033">
        <ele>1632.0</ele>
        <time>2015-06-06T15:30:29Z</time>
      </trkpt>
      <trkpt lat="40.113217" lon="-5.767200">
        <ele>1632.0</ele>
        <time>2015-06-06T15:30:31Z</time>
      </trkpt>
      <trkpt lat="40.113100" lon="-5.767417">
        <ele>1633.0</ele>
        <time>2015-06-06T15:30:33Z</time>
      </trkpt>
      <trkpt lat="40.113000" lon="-5.767633">
        <ele>1634.0</ele>
        <time>2015-06-06T15:30:35Z</time>
      </trkpt>
      <trkpt lat="40.112900" lon="-5.767850">
        <ele>1634.0</ele>
        <time>2015-06-06T15:30:37Z</time>
      </trkpt>
      <trkpt lat="40.112800" lon="-5.768083">
        <ele>1634.0</ele>
        <time>2015-06-06T15:30:39Z</time>
      </trkpt>
      <trkpt lat="40.112700" lon="-5.768317">
        <ele>1633.0</ele>
        <time>2015-06-06T15:30:41Z</time>
      </trkpt>
      <trkpt lat="40.112583" lon="-5.768550">
        <ele>1630.0</ele>
        <time>2015-06-06T15:30:43Z</time>
      </trkpt>
      <trkpt lat="40.112450" lon="-5.768783">
        <ele>1630.0</ele>
        <time>2015-06-06T15:30:45Z</time>
      </trkpt>
      <trkpt lat="40.112333" lon="-5.768983">
        <ele>1629.0</ele>
        <time>2015-06-06T15:30:47Z</time>
      </trkpt>
      <trkpt lat="40.112183" lon="-5.769167">
        <ele>1629.0</ele>
        <time>2015-06-06T15:30:49Z</time>
      </trkpt>
      <trkpt lat="40.112067" lon="-5.769350">
        <ele>1631.0</ele>
        <time>2015-06-06T15:30:51Z</time>
      </trkpt>
      <trkpt lat="40.112017" lon="-5.769583">
        <ele>1633.0</ele>
        <time>2015-06-06T15:30:53Z</time>
      </trkpt>
      <trkpt lat="40.112000" lon="-5.769867">
        <ele>1636.0</ele>
        <time>2015-06-06T15:30:55Z</time>
      </trkpt>
      <trkpt lat="40.112083" lon="-5.770117">
        <ele>1639.0</ele>
        <time>2015-06-06T15:30:57Z</time>
      </trkpt>
      <trkpt lat="40.112283" lon="-5.770233">
        <ele>1641.0</ele>
        <time>2015-06-06T15:30:59Z</time>
      </trkpt>
      <trkpt lat="40.112483" lon="-5.770233">
        <ele>1650.0</ele>
        <time>2015-06-06T15:31:01Z</time>
      </trkpt>
      <trkpt lat="40.112600" lon="-5.770167">
        <ele>1659.0</ele>
        <time>2015-06-06T15:31:03Z</time>
      </trkpt>
      <trkpt lat="40.112633" lon="-5.770017">
        <ele>1663.0</ele>
        <time>2015-06-06T15:31:05Z</time>
      </trkpt>
      <trkpt lat="40.112583" lon="-5.769883">
        <ele>1666.0</ele>
        <time>2015-06-06T15:31:07Z</time>
      </trkpt>
      <trkpt lat="40.112433" lon="-5.769850">
        <ele>1669.0</ele>
        <time>2015-06-06T15:31:09Z</time>
      </trkpt>
      <trkpt lat="40.112300" lon="-5.769950">
        <ele>1671.0</ele>
        <time>2015-06-06T15:31:11Z</time>
      </trkpt>
      <trkpt lat="40.112167" lon="-5.770083">
        <ele>1673.0</ele>
        <time>2015-06-06T15:31:13Z</time>
      </trkpt>
      <trkpt lat="40.112017" lon="-5.770267">
        <ele>1675.0</ele>
        <time>2015-06-06T15:31:15Z</time>
      </trkpt>
      <trkpt lat="40.111850" lon="-5.770483">
        <ele>1680.0</ele>
        <time>2015-06-06T15:31:17Z</time>
      </trkpt>
      <trkpt lat="40.111750" lon="-5.770717">
        <ele>1686.0</ele>
        <time>2015-06-06T15:31:19Z</time>
      </trkpt>
      <trkpt lat="40.111717" lon="-5.770967">
        <ele>1688.0</ele>
        <time>2015-06-06T15:31:21Z</time>
      </trkpt>
      <trkpt lat="40.111717" lon="-5.771217">
        <ele>1692.0</ele>
        <time>2015-06-06T15:31:23Z</time>
      </trkpt>
      <trkpt lat="40.111800" lon="-5.771400">
        <ele>1695.0</ele>
        <time>2015-06-06T15:31:25Z</time>
      </trkpt>
      <trkpt lat="40.111950" lon="-5.771517">
        <ele>1696.0</ele>
        <time>2015-06-06T15:31:27Z</time>
      </trkpt>
      <trkpt lat="40.112150" lon="-5.771533">
        <ele>1698.0</ele>
        <time>2015-06-06T15:31:29Z</time>
      </trkpt>
      <trkpt lat="40.112283" lon="-5.771383">
        <ele>1700.0</ele>
        <time>2015-06-06T15:31:31Z</time>
      </trkpt>
      <trkpt lat="40.112383" lon="-5.771183">
        <ele>1705.0</ele>
        <time>2015-06-06T15:31:33Z</time>
      </trkpt>
      <trkpt lat="40.112400" lon="-5.771050">
        <ele>1711.0</ele>
        <time>2015-06-06T15:31:35Z</time>
      </trkpt>
      <trkpt lat="40.112350" lon="-5.770900">
        <ele>1715.0</ele>
        <time>2015-06-06T15:31:37Z</time>
      </trkpt>
      <trkpt lat="40.112200" lon="-5.770833">
        <ele>1719.0</ele>
        <time>2015-06-06T15:31:39Z</time>
      </trkpt>
      <trkpt lat="40.112000" lon="-5.770950">
        <ele>1720.0</ele>
        <time>2015-06-06T15:31:41Z</time>
      </trkpt>
      <trkpt lat="40.111850" lon="-5.771167">
        <ele>1728.0</ele>
        <time>2015-06-06T15:31:43Z</time>
      </trkpt>
      <trkpt lat="40.111783" lon="-5.771317">
        <ele>1736.0</ele>
        <time>2015-06-06T15:31:45Z</time>
      </trkpt>
      <trkpt lat="40.111733" lon="-5.771517">
        <ele>1735.0</ele>
        <time>2015-06-06T15:31:47Z</time>
      </trkpt>
      <trkpt lat="40.111767" lon="-5.771800">
        <ele>1733.0</ele>
        <time>2015-06-06T15:31:49Z</time>
      </trkpt>
      <trkpt lat="40.111950" lon="-5.772000">
        <ele>1738.0</ele>
        <time>2015-06-06T15:31:51Z</time>
      </trkpt>
      <trkpt lat="40.112100" lon="-5.772017">
        <ele>1743.0</ele>
        <time>2015-06-06T15:31:53Z</time>
      </trkpt>
      <trkpt lat="40.112250" lon="-5.771950">
        <ele>1744.0</ele>
        <time>2015-06-06T15:31:55Z</time>
      </trkpt>
      <trkpt lat="40.112383" lon="-5.771783">
        <ele>1749.0</ele>
        <time>2015-06-06T15:31:57Z</time>
      </trkpt>
      <trkpt lat="40.112400" lon="-5.771600">
        <ele>1754.0</ele>
        <time>2015-06-06T15:31:59Z</time>
      </trkpt>
      <trkpt lat="40.112317" lon="-5.771467">
        <ele>1757.0</ele>
        <time>2015-06-06T15:32:01Z</time>
      </trkpt>
      <trkpt lat="40.112200" lon="-5.771383">
        <ele>1759.0</ele>
        <time>2015-06-06T15:32:03Z</time>
      </trkpt>
      <trkpt lat="40.112017" lon="-5.771367">
        <ele>1762.0</ele>
        <time>2015-06-06T15:32:05Z</time>
      </trkpt>
      <trkpt lat="40.111867" lon="-5.771483">
        <ele>1767.0</ele>
        <time>2015-06-06T15:32:07Z</time>
      </trkpt>
      <trkpt lat="40.111750" lon="-5.771667">
        <ele>1771.0</ele>
        <time>2015-06-06T15:32:09Z</time>
      </trkpt>
      <trkpt lat="40.111683" lon="-5.771917">
        <ele>1774.0</ele>
        <time>2015-06-06T15:32:11Z</time>
      </trkpt>
      <trkpt lat="40.111717" lon="-5.772150">
        <ele>1779.0</ele>
        <time>2015-06-06T15:32:13Z</time>
      </trkpt>
      <trkpt lat="40.111817" lon="-5.772317">
        <ele>1783.0</ele>
        <time>2015-06-06T15:32:15Z</time>
      </trkpt>
      <trkpt lat="40.111967" lon="-5.772417">
        <ele>1787.0</ele>
        <time>2015-06-06T15:32:17Z</time>
      </trkpt>
      <trkpt lat="40.112150" lon="-5.772400">
        <ele>1790.0</ele>
        <time>2015-06-06T15:32:19Z</time>
      </trkpt>
      <trkpt lat="40.112267" lon="-5.772283">
        <ele>1794.0</ele>
        <time>2015-06-06T15:32:21Z</time>
      </trkpt>
      <trkpt lat="40.112317" lon="-5.772133">
        <ele>1798.0</ele>
        <time>2015-06-06T15:32:23Z</time>
      </trkpt>
      <trkpt lat="40.112300" lon="-5.771950">
        <ele>1799.0</ele>
        <time>2015-06-06T15:32:25Z</time>
      </trkpt>
      <trkpt lat="40.112200" lon="-5.771800">
        <ele>1801.0</ele>
        <time>2015-06-06T15:32:27Z</time>
      </trkpt>
      <trkpt lat="40.112033" lon="-5.771733">
        <ele>1805.0</ele>
        <time>2015-06-06T15:32:29Z</time>
      </trkpt>
      <trkpt lat="40.111867" lon="-5.771767">
        <ele>1810.0</ele>
        <time>2015-06-06T15:32:31Z</time>
      </trkpt>
      <trkpt lat="40.111700" lon="-5.771900">
        <ele>1811.0</ele>
        <time>2015-06-06T15:32:33Z</time>
      </trkpt>
      <trkpt lat="40.111583" lon="-5.772117">
        <ele>1813.0</ele>
        <time>2015-06-06T15:32:35Z</time>
      </trkpt>
      <trkpt lat="40.111517" lon="-5.772383">
        <ele>1815.0</ele>
        <time>2015-06-06T15:32:37Z</time>
      </trkpt>
      <trkpt lat="40.111583" lon="-5.772600">
        <ele>1818.0</ele>
        <time>2015-06-06T15:32:39Z</time>
      </trkpt>
      <trkpt lat="40.111700" lon="-5.772783">
        <ele>1821.0</ele>
        <time>2015-06-06T15:32:41Z</time>
      </trkpt>
      <trkpt lat="40.111850" lon="-5.772867">
        <ele>1826.0</ele>
        <time>2015-06-06T15:32:43Z</time>
      </trkpt>
      <trkpt lat="40.112000" lon="-5.772800">
        <ele>1831.0</ele>
        <time>2015-06-06T15:32:45Z</time>
      </trkpt>
      <trkpt lat="40.112083" lon="-5.772650">
        <ele>1836.0</ele>
        <time>2015-06-06T15:32:47Z</time>
      </trkpt>
      <trkpt lat="40.112100" lon="-5.772433">
        <ele>1839.0</ele>
        <time>2015-06-06T15:32:49Z</time>
      </trkpt>
      <trkpt lat="40.112017" lon="-5.772233">
        <ele>1842.0</ele>
        <time>2015-06-06T15:32:51Z</time>
      </trkpt>
      <trkpt lat="40.111867" lon="-5.772100">
        <ele>1846.0</ele>
        <time>2015-06-06T15:32:53Z</time>
      </trkpt>
      <trkpt lat="40.111683" lon="-5.772067">
        <ele>1847.0</ele>
        <time>2015-06-06T15:32:55Z</time>
      </trkpt>
      <trkpt lat="40.111500" lon="-5.772183">
        <ele>1847.0</ele>
        <time>2015-06-06T15:32:57Z</time>
      </trkpt>
      <trkpt lat="40.111350" lon="-5.772383">
        <ele>1847.0</ele>
        <time>2015-06-06T15:32:59Z</time>
      </trkpt>
      <trkpt lat="40.111250" lon="-5.772667">
        <ele>1846.0</ele>
        <time>2015-06-06T15:33:01Z</time>
      </trkpt>
      <trkpt lat="40.111200" lon="-5.773000">
        <ele>1846.0</ele>
        <time>2015-06-06T15:33:03Z</time>
      </trkpt>
      <trkpt lat="40.111200" lon="-5.773317">
        <ele>1847.0</ele>
        <time>2015-06-06T15:33:05Z</time>
      </trkpt>
      <trkpt lat="40.111267" lon="-5.773617">
        <ele>1848.0</ele>
        <time>2015-06-06T15:33:07Z</time>
      </trkpt>
      <trkpt lat="40.111400" lon="-5.773883">
        <ele>1851.0</ele>
        <time>2015-06-06T15:33:09Z</time>
      </trkpt>
      <trkpt lat="40.111533" lon="-5.774083">
        <ele>1858.0</ele>
        <time>2015-06-06T15:33:11Z</time>
      </trkpt>
      <trkpt lat="40.111700" lon="-5.774167">
        <ele>1862.0</ele>
        <time>2015-06-06T15:33:13Z</time>
      </trkpt>
      <trkpt lat="40.111883" lon="-5.774167">
        <ele>1865.0</ele>
        <time>2015-06-06T15:33:15Z</time>
      </trkpt>
      <trkpt lat="40.112000" lon="-5.774017">
        <ele>1869.0</ele>
        <time>2015-06-06T15:33:17Z</time>
      </trkpt>
      <trkpt lat="40.111933" lon="-5.773817">
        <ele>1872.0</ele>
        <time>2015-06-06T15:33:19Z</time>
      </trkpt>
      <trkpt lat="40.111800" lon="-5.773717">
        <ele>1878.0</ele>
        <time>2015-06-06T15:33:21Z</time>
      </trkpt>
      <trkpt lat="40.111633" lon="-5.773700">
        <ele>1883.0</ele>
        <time>2015-06-06T15:33:23Z</time>
      </trkpt>
      <trkpt lat="40.111433" lon="-5.773767">
        <ele>1887.0</ele>
        <time>2015-06-06T15:33:25Z</time>
      </trkpt>
      <trkpt lat="40.111267" lon="-5.773933">
        <ele>1890.0</ele>
        <time>2015-06-06T15:33:27Z</time>
      </trkpt>
      <trkpt lat="40.111183" lon="-5.774217">
        <ele>1892.0</ele>
        <time>2015-06-06T15:33:29Z</time>
      </trkpt>
      <trkpt lat="40.111150" lon="-5.774550">
        <ele>1894.0</ele>
        <time>2015-06-06T15:33:31Z</time>
      </trkpt>
      <trkpt lat="40.111183" lon="-5.774850">
        <ele>1897.0</ele>
        <time>2015-06-06T15:33:33Z</time>
      </trkpt>
      <trkpt lat="40.111300" lon="-5.775083">
        <ele>1899.0</ele>
        <time>2015-06-06T15:33:35Z</time>
      </trkpt>
      <trkpt lat="40.111500" lon="-5.775217">
        <ele>1903.0</ele>
        <time>2015-06-06T15:33:37Z</time>
      </trkpt>
      <trkpt lat="40.111683" lon="-5.775250">
        <ele>1910.0</ele>
        <time>2015-06-06T15:33:39Z</time>
      </trkpt>
      <trkpt lat="40.111800" lon="-5.775200">
        <ele>1915.0</ele>
        <time>2015-06-06T15:33:41Z</time>
      </trkpt>
      <trkpt lat="40.111900" lon="-5.775067">
        <ele>1916.0</ele>
        <time>2015-06-06T15:33:43Z</time>
      </trkpt>
      <trkpt lat="40.111933" lon="-5.774850">
        <ele>1919.0</ele>
        <time>2015-06-06T15:33:45Z</time>
      </trkpt>
      <trkpt lat="40.111850" lon="-5.774700">
        <ele>1922.0</ele>
        <time>2015-06-06T15:33:47Z</time>
      </trkpt>
      <trkpt lat="40.111717" lon="-5.774617">
        <ele>1925.0</ele>
        <time>2015-06-06T15:33:49Z</time>
      </trkpt>
      <trkpt lat="40.111533" lon="-5.774600">
        <ele>1928.0</ele>
        <time>2015-06-06T15:33:51Z</time>
      </trkpt>
      <trkpt lat="40.111333" lon="-5.774700">
        <ele>1933.0</ele>
        <time>2015-06-06T15:33:53Z</time>
      </trkpt>
      <trkpt lat="40.111200" lon="-5.774900">
        <ele>1939.0</ele>
        <time>2015-06-06T15:33:55Z</time>
      </trkpt>
      <trkpt lat="40.111117" lon="-5.775150">
        <ele>1942.0</ele>
        <time>2015-06-06T15:33:57Z</time>
      </trkpt>
      <trkpt lat="40.111117" lon="-5.775467">
        <ele>1941.0</ele>
        <time>2015-06-06T15:33:59Z</time>
      </trkpt>
      <trkpt lat="40.111217" lon="-5.775767">
        <ele>1943.0</ele>
        <time>2015-06-06T15:34:01Z</time>
      </trkpt>
      <trkpt lat="40.111367" lon="-5.775950">
        <ele>1948.0</ele>
        <time>2015-06-06T15:34:03Z</time>
      </trkpt>
      <trkpt lat="40.111550" lon="-5.776000">
        <ele>1950.0</ele>
        <time>2015-06-06T15:34:05Z</time>
      </trkpt>
      <trkpt lat="40.111717" lon="-5.775950">
        <ele>1954.0</ele>
        <time>2015-06-06T15:34:07Z</time>
      </trkpt>
      <trkpt lat="40.111800" lon="-5.775800">
        <ele>1957.0</ele>
        <time>2015-06-06T15:34:09Z</time>
      </trkpt>
      <trkpt lat="40.111800" lon="-5.775617">
        <ele>1960.0</ele>
        <time>2015-06-06T15:34:11Z</time>
      </trkpt>
      <trkpt lat="40.111700" lon="-5.775483">
        <ele>1963.0</ele>
        <time>2015-06-06T15:34:13Z</time>
      </trkpt>
      <trkpt lat="40.111533" lon="-5.775433">
        <ele>1966.0</ele>
        <time>2015-06-06T15:34:15Z</time>
      </trkpt>
      <trkpt lat="40.111350" lon="-5.775533">
        <ele>1970.0</ele>
        <time>2015-06-06T15:34:17Z</time>
      </trkpt>
      <trkpt lat="40.111200" lon="-5.775717">
        <ele>1974.0</ele>
        <time>2015-06-06T15:34:19Z</time>
      </trkpt>
      <trkpt lat="40.111133" lon="-5.775983">
        <ele>1976.0</ele>
        <time>2015-06-06T15:34:21Z</time>
      </trkpt>
      <trkpt lat="40.111117" lon="-5.776300">
        <ele>1977.0</ele>
        <time>2015-06-06T15:34:23Z</time>
      </trkpt>
      <trkpt lat="40.111200" lon="-5.776567">
        <ele>1978.0</ele>
        <time>2015-06-06T15:34:25Z</time>
      </trkpt>
      <trkpt lat="40.111367" lon="-5.776750">
        <ele>1981.0</ele>
        <time>2015-06-06T15:34:27Z</time>
      </trkpt>
      <trkpt lat="40.111550" lon="-5.776833">
        <ele>1984.0</ele>
        <time>2015-06-06T15:34:29Z</time>
      </trkpt>
      <trkpt lat="40.111717" lon="-5.776800">
        <ele>1988.0</ele>
        <time>2015-06-06T15:34:31Z</time>
      </trkpt>
      <trkpt lat="40.111800" lon="-5.776667">
        <ele>1991.0</ele>
        <time>2015-06-06T15:34:33Z</time>
      </trkpt>
      <trkpt lat="40.111800" lon="-5.776483">
        <ele>1994.0</ele>
        <time>2015-06-06T15:34:35Z</time>
      </trkpt>
      <trkpt lat="40.111717" lon="-5.776350">
        <ele>1998.0</ele>
        <time>2015-06-06T15:34:37Z</time>
      </trkpt>
      <trkpt lat="40.111583" lon="-5.776300">
        <ele>2002.0</ele>
        <time>2015-06-06T15:34:39Z</time>
      </trkpt>
      <trkpt lat="40.111400" lon="-5.776400">
        <ele>2002.0</ele>
        <time>2015-06-06T15:34:41Z</time>
      </trkpt>
      <trkpt lat="40.111233" lon="-5.776600">
        <ele>2005.0</ele>
        <time>2015-06-06T15:34:43Z</time>
      </trkpt>
      <trkpt lat="40.111133" lon="-5.776867">
        <ele>2008.0</ele>
        <time>2015-06-06T15:34:45Z</time>
      </trkpt>
      <trkpt lat="40.111117" lon="-5.777167">
        <ele>2011.0</ele>
        <time>2015-06-06T15:34:47Z</time>
      </trkpt>
      <trkpt lat="40.111167" lon="-5.777450">
        <ele>2012.0</ele>
        <time>2015-06-06T15:34:49Z</time>
      </trkpt>
      <trkpt lat="40.111317" lon="-5.777683">
        <ele>2014.0</ele>
        <time>2015-06-06T15:34:51Z</time>
      </trkpt>
      <trkpt lat="40.111483" lon="-5.777783">
        <ele>2018.0</ele>
        <time>2015-06-06T15:34:53Z</time>
      </trkpt>
      <trkpt lat="40.111650" lon="-5.777750">
        <ele>2021.0</ele>
        <time>2015-06-06T15:34:55Z</time>
      </trkpt>
      <trkpt lat="40.111800" lon="-5.777683">
        <ele>2026.0</ele>
        <time>2015-06-06T15:34:57Z</time>
      </trkpt>
      <trkpt lat="40.111867" lon="-5.777533">
        <ele>2029.0</ele>
        <time>2015-06-06T15:34:59Z</time>
      </trkpt>
      <trkpt lat="40.111867" lon="-5.777350">
        <ele>2031.0</ele>
        <time>2015-06-06T15:35:01Z</time>
      </trkpt>
      <trkpt lat="40.111783" lon="-5.777200">
        <ele>2034.0</ele>
        <time>2015-06-06T15:35:03Z</time>
      </trkpt>
      <trkpt lat="40.111633" lon="-5.777150">
        <ele>2037.0</ele>
        <time>2015-06-06T15:35:05Z</time>
      </trkpt>
      <trkpt lat="40.111467" lon="-5.777233">
        <ele>2042.0</ele>
        <time>2015-06-06T15:35:07Z</time>
      </trkpt>
      <trkpt lat="40.111350" lon="-5.777417">
        <ele>2044.0</ele>
        <time>2015-06-06T15:35:09Z</time>
      </trkpt>
      <trkpt lat="40.111283" lon="-5.777700">
        <ele>2045.0</ele>
        <time>2015-06-06T15:35:11Z</time>
      </trkpt>
      <trkpt lat="40.111317" lon="-5.777983">
        <ele>2047.0</ele>
        <time>2015-06-06T15:35:13Z</time>
      </trkpt>
      <trkpt lat="40.111450" lon="-5.778183">
        <ele>2050.0</ele>
        <time>2015-06-06T15:35:15Z</time>
      </trkpt>
      <trkpt lat="40.111617" lon="-5.778283">
        <ele>2053.0</ele>
        <time>2015-06-06T15:35:17Z</time>
      </trkpt>
      <trkpt lat="40.111800" lon="-5.778300">
        <ele>2056.0</ele>
        <time>2015-06-06T15:35:19Z</time>
      </trkpt>
      <trkpt lat="40.111950" lon="-5.778267">
        <ele>2062.0</ele>
        <time>2015-06-06T15:35:21Z</time>
      </trkpt>
      <trkpt lat="40.112033" lon="-5.778117">
        <ele>2065.0</ele>
        <time>2015-06-06T15:35:23Z</time>
      </trkpt>
      <trkpt lat="40.112000" lon="-5.777933">
        <ele>2068.0</ele>
        <time>2015-06-06T15:35:25Z</time>
      </trkpt>
      <trkpt lat="40.111900" lon="-5.777800">
        <ele>2073.0</ele>
        <time>2015-06-06T15:35:27Z</time>
      </trkpt>
      <trkpt lat="40.111733" lon="-5.777783">
        <ele>2075.0</ele>
        <time>2015-06-06T15:35:29Z</time>
      </trkpt>
      <trkpt lat="40.111567" lon="-5.777867">
        <ele>2077.0</ele>
        <time>2015-06-06T15:35:31Z</time>
      </trkpt>
      <trkpt lat="40.111433" lon="-5.778083">
        <ele>2079.0</ele>
        <time>2015-06-06T15:35:33Z</time>
      </trkpt>
      <trkpt lat="40.111383" lon="-5.778333">
        <ele>2082.0</ele>
        <time>2015-06-06T15:35:35Z</time>
      </trkpt>
      <trkpt lat="40.111383" lon="-5.778600">
        <ele>2083.0</ele>
        <time>2015-06-06T15:35:37Z</time>
      </trkpt>
      <trkpt lat="40.111467" lon="-5.778850">
        <ele>2084.0</ele>
        <time>2015-06-06T15:35:39Z</time>
      </trkpt>
      <trkpt lat="40.111633" lon="-5.779000">
        <ele>2087.0</ele>
        <time>2015-06-06T15:35:41Z</time>
      </trkpt>
      <trkpt lat="40.111817" lon="-5.779017">
        <ele>2092.0</ele>
        <time>2015-06-06T15:35:43Z</time>
      </trkpt>
      <trkpt lat="40.111933" lon="-5.778933">
        <ele>2097.0</ele>
        <time>2015-06-06T15:35:45Z</time>
      </trkpt>
      <trkpt lat="40.112000" lon="-5.778783">
        <ele>2099.0</ele>
        <time>2015-06-06T15:35:47Z</time>
      </trkpt>
      <trkpt lat="40.111983" lon="-5.778600">
        <ele>2102.0</ele>
        <time>2015-06-06T15:35:49Z</time>
      </trkpt>
      <trkpt lat="40.111900" lon="-5.778467">
        <ele>2105.0</ele>
        <time>2015-06-06T15:35:51Z</time>
      </trkpt>
      <trkpt lat="40.111767" lon="-5.778400">
        <ele>2107.0</ele>
        <time>2015-06-06T15:35:53Z</time>
      </trkpt>
      <trkpt lat="40.111617" lon="-5.778350">
        <ele>2109.0</ele>
        <time>2015-06-06T15:35:55Z</time>
      </trkpt>
      <trkpt lat="40.111417" lon="-5.778383">
        <ele>2110.0</ele>
        <time>2015-06-06T15:35:57Z</time>
      </trkpt>
      <trkpt lat="40.111250" lon="-5.778550">
        <ele>2111.0</ele>
        <time>2015-06-06T15:35:59Z</time>
      </trkpt>
      <trkpt lat="40.111133" lon="-5.778783">
        <ele>2113.0</ele>
        <time>2015-06-06T15:36:01Z</time>
      </trkpt>
      <trkpt lat="40.111067" lon="-5.779033">
        <ele>2112.0</ele>
        <time>2015-06-06T15:36:03Z</time>
      </trkpt>
      <trkpt lat="40.111083" lon="-5.779333">
        <ele>2109.0</ele>
        <time>2015-06-06T15:36:05Z</time>
      </trkpt>
      <trkpt lat="40.111200" lon="-5.779583">
        <ele>2110.0</ele>
        <time>2015-06-06T15:36:07Z</time>
      </trkpt>
      <trkpt lat="40.111367" lon="-5.779700">
        <ele>2112.0</ele>
        <time>2015-06-06T15:36:09Z</time>
      </trkpt>
      <trkpt lat="40.111533" lon="-5.779717">
        <ele>2114.0</ele>
        <time>2015-06-06T15:36:11Z</time>
      </trkpt>
      <trkpt lat="40.111683" lon="-5.779667">
        <ele>2116.0</ele>
        <time>2015-06-06T15:36:13Z</time>
      </trkpt>
      <trkpt lat="40.111767" lon="-5.779533">
        <ele>2117.0</ele>
        <time>2015-06-06T15:36:15Z</time>
      </trkpt>
      <trkpt lat="40.111767" lon="-5.779367">
        <ele>2118.0</ele>
        <time>2015-06-06T15:36:17Z</time>
      </trkpt>
      <trkpt lat="40.111733" lon="-5.779217">
        <ele>2120.0</ele>
        <time>2015-06-06T15:36:19Z</time>
      </trkpt>
      <trkpt lat="40.111633" lon="-5.779117">
        <ele>2119.0</ele>
        <time>2015-06-06T15:36:21Z</time>
      </trkpt>
      <trkpt lat="40.111483" lon="-5.779050">
        <ele>2117.0</ele>
        <time>2015-06-06T15:36:23Z</time>
      </trkpt>
      <trkpt lat="40.111283" lon="-5.779033">
        <ele>2115.0</ele>
        <time>2015-06-06T15:36:25Z</time>
      </trkpt>
      <trkpt lat="40.111100" lon="-5.779067">
        <ele>2115.0</ele>
        <time>2015-06-06T15:36:27Z</time>
      </trkpt>
      <trkpt lat="40.110917" lon="-5.779200">
        <ele>2115.0</ele>
        <time>2015-06-06T15:36:29Z</time>
      </trkpt>
      <trkpt lat="40.110733" lon="-5.779400">
        <ele>2114.0</ele>
        <time>2015-06-06T15:36:31Z</time>
      </trkpt>
      <trkpt lat="40.110600" lon="-5.779617">
        <ele>2114.0</ele>
        <time>2015-06-06T15:36:33Z</time>
      </trkpt>
      <trkpt lat="40.110467" lon="-5.779867">
        <ele>2112.0</ele>
        <time>2015-06-06T15:36:35Z</time>
      </trkpt>
      <trkpt lat="40.110350" lon="-5.780133">
        <ele>2108.0</ele>
        <time>2015-06-06T15:36:37Z</time>
      </trkpt>
      <trkpt lat="40.110183" lon="-5.780417">
        <ele>2101.0</ele>
        <time>2015-06-06T15:36:39Z</time>
      </trkpt>
      <trkpt lat="40.110000" lon="-5.780650">
        <ele>2099.0</ele>
        <time>2015-06-06T15:36:41Z</time>
      </trkpt>
      <trkpt lat="40.109817" lon="-5.780817">
        <ele>2095.0</ele>
        <time>2015-06-06T15:36:43Z</time>
      </trkpt>
      <trkpt lat="40.109617" lon="-5.780933">
        <ele>2088.0</ele>
        <time>2015-06-06T15:36:45Z</time>
      </trkpt>
      <trkpt lat="40.109400" lon="-5.781083">
        <ele>2080.0</ele>
        <time>2015-06-06T15:36:47Z</time>
      </trkpt>
      <trkpt lat="40.109217" lon="-5.781250">
        <ele>2076.0</ele>
        <time>2015-06-06T15:36:49Z</time>
      </trkpt>
      <trkpt lat="40.109100" lon="-5.781417">
        <ele>2069.0</ele>
        <time>2015-06-06T15:36:51Z</time>
      </trkpt>
      <trkpt lat="40.108950" lon="-5.781667">
        <ele>2061.0</ele>
        <time>2015-06-06T15:36:53Z</time>
      </trkpt>
      <trkpt lat="40.108817" lon="-5.781933">
        <ele>2058.0</ele>
        <time>2015-06-06T15:36:55Z</time>
      </trkpt>
      <trkpt lat="40.108700" lon="-5.782150">
        <ele>2056.0</ele>
        <time>2015-06-06T15:36:57Z</time>
      </trkpt>
      <trkpt lat="40.108567" lon="-5.782350">
        <ele>2051.0</ele>
        <time>2015-06-06T15:36:59Z</time>
      </trkpt>
      <trkpt lat="40.108483" lon="-5.782617">
        <ele>2047.0</ele>
        <time>2015-06-06T15:37:01Z</time>
      </trkpt>
      <trkpt lat="40.108417" lon="-5.782883">
        <ele>2044.0</ele>
        <time>2015-06-06T15:37:03Z</time>
      </trkpt>
      <trkpt lat="40.108383" lon="-5.783150">
        <ele>2038.0</ele>
        <time>2015-06-06T15:37:05Z</time>
      </trkpt>
      <trkpt lat="40.108317" lon="-5.783467">
        <ele>2032.0</ele>
        <time>2015-06-06T15:37:07Z</time>
      </trkpt>
      <trkpt lat="40.108233" lon="-5.783750">
        <ele>2030.0</ele>
        <time>2015-06-06T15:37:09Z</time>
      </trkpt>
      <trkpt lat="40.108150" lon="-5.783983">
        <ele>2025.0</ele>
        <time>2015-06-06T15:37:11Z</time>
      </trkpt>
      <trkpt lat="40.108050" lon="-5.784250">
        <ele>2018.0</ele>
        <time>2015-06-06T15:37:13Z</time>
      </trkpt>
      <trkpt lat="40.107917" lon="-5.784467">
        <ele>2012.0</ele>
        <time>2015-06-06T15:37:15Z</time>
      </trkpt>
      <trkpt lat="40.107800" lon="-5.784650">
        <ele>2007.0</ele>
        <time>2015-06-06T15:37:17Z</time>
      </trkpt>
      <trkpt lat="40.107667" lon="-5.784850">
        <ele>2001.0</ele>
        <time>2015-06-06T15:37:19Z</time>
      </trkpt>
      <trkpt lat="40.107550" lon="-5.785050">
        <ele>1995.0</ele>
        <time>2015-06-06T15:37:21Z</time>
      </trkpt>
      <trkpt lat="40.107417" lon="-5.785250">
        <ele>1988.0</ele>
        <time>2015-06-06T15:37:23Z</time>
      </trkpt>
      <trkpt lat="40.107283" lon="-5.785450">
        <ele>1980.0</ele>
        <time>2015-06-06T15:37:25Z</time>
      </trkpt>
      <trkpt lat="40.107133" lon="-5.785667">
        <ele>1974.0</ele>
        <time>2015-06-06T15:37:27Z</time>
      </trkpt>
      <trkpt lat="40.107000" lon="-5.785850">
        <ele>1968.0</ele>
        <time>2015-06-06T15:37:29Z</time>
      </trkpt>
      <trkpt lat="40.106867" lon="-5.786033">
        <ele>1961.0</ele>
        <time>2015-06-06T15:37:31Z</time>
      </trkpt>
      <trkpt lat="40.106767" lon="-5.786250">
        <ele>1955.0</ele>
        <time>2015-06-06T15:37:33Z</time>
      </trkpt>
      <trkpt lat="40.106683" lon="-5.786517">
        <ele>1950.0</ele>
        <time>2015-06-06T15:37:35Z</time>
      </trkpt>
      <trkpt lat="40.106633" lon="-5.786783">
        <ele>1944.0</ele>
        <time>2015-06-06T15:37:37Z</time>
      </trkpt>
      <trkpt lat="40.106600" lon="-5.787100">
        <ele>1938.0</ele>
        <time>2015-06-06T15:37:39Z</time>
      </trkpt>
      <trkpt lat="40.106550" lon="-5.787400">
        <ele>1933.0</ele>
        <time>2015-06-06T15:37:41Z</time>
      </trkpt>
      <trkpt lat="40.106533" lon="-5.787700">
        <ele>1928.0</ele>
        <time>2015-06-06T15:37:43Z</time>
      </trkpt>
      <trkpt lat="40.106500" lon="-5.788000">
        <ele>1921.0</ele>
        <time>2015-06-06T15:37:45Z</time>
      </trkpt>
      <trkpt lat="40.106450" lon="-5.788333">
        <ele>1914.0</ele>
        <time>2015-06-06T15:37:47Z</time>
      </trkpt>
      <trkpt lat="40.106383" lon="-5.788617">
        <ele>1910.0</ele>
        <time>2015-06-06T15:37:49Z</time>
      </trkpt>
      <trkpt lat="40.106317" lon="-5.788917">
        <ele>1904.0</ele>
        <time>2015-06-06T15:37:51Z</time>
      </trkpt>
      <trkpt lat="40.106250" lon="-5.789200">
        <ele>1898.0</ele>
        <time>2015-06-06T15:37:53Z</time>
      </trkpt>
      <trkpt lat="40.106200" lon="-5.789517">
        <ele>1893.0</ele>
        <time>2015-06-06T15:37:55Z</time>
      </trkpt>
      <trkpt lat="40.106183" lon="-5.789817">
        <ele>1886.0</ele>
        <time>2015-06-06T15:37:57Z</time>
      </trkpt>
      <trkpt lat="40.106133" lon="-5.790133">
        <ele>1879.0</ele>
        <time>2015-06-06T15:37:59Z</time>
      </trkpt>
      <trkpt lat="40.106083" lon="-5.790417">
        <ele>1874.0</ele>
        <time>2015-06-06T15:38:01Z</time>
      </trkpt>
      <trkpt lat="40.106050" lon="-5.790717">
        <ele>1868.0</ele>
        <time>2015-06-06T15:38:03Z</time>
      </trkpt>
      <trkpt lat="40.106000" lon="-5.791033">
        <ele>1862.0</ele>
        <time>2015-06-06T15:38:05Z</time>
      </trkpt>
      <trkpt lat="40.105933" lon="-5.791333">
        <ele>1857.0</ele>
        <time>2015-06-06T15:38:07Z</time>
      </trkpt>
      <trkpt lat="40.105867" lon="-5.791633">
        <ele>1852.0</ele>
        <time>2015-06-06T15:38:09Z</time>
      </trkpt>
      <trkpt lat="40.105817" lon="-5.791933">
        <ele>1846.0</ele>
        <time>2015-06-06T15:38:11Z</time>
      </trkpt>
      <trkpt lat="40.105800" lon="-5.792250">
        <ele>1841.0</ele>
        <time>2015-06-06T15:38:13Z</time>
      </trkpt>
      <trkpt lat="40.105767" lon="-5.792550">
        <ele>1837.0</ele>
        <time>2015-06-06T15:38:15Z</time>
      </trkpt>
      <trkpt lat="40.105717" lon="-5.792833">
        <ele>1832.0</ele>
        <time>2015-06-06T15:38:17Z</time>
      </trkpt>
      <trkpt lat="40.105700" lon="-5.793150">
        <ele>1827.0</ele>
        <time>2015-06-06T15:38:19Z</time>
      </trkpt>
      <trkpt lat="40.105667" lon="-5.793467">
        <ele>1824.0</ele>
        <time>2015-06-06T15:38:21Z</time>
      </trkpt>
      <trkpt lat="40.105600" lon="-5.793750">
        <ele>1820.0</ele>
        <time>2015-06-06T15:38:23Z</time>
      </trkpt>
      <trkpt lat="40.105550" lon="-5.794033">
        <ele>1814.0</ele>
        <time>2015-06-06T15:38:25Z</time>
      </trkpt>
      <trkpt lat="40.105467" lon="-5.794317">
        <ele>1810.0</ele>
        <time>2015-06-06T15:38:27Z</time>
      </trkpt>
      <trkpt lat="40.105400" lon="-5.794617">
        <ele>1805.0</ele>
        <time>2015-06-06T15:38:29Z</time>
      </trkpt>
      <trkpt lat="40.105350" lon="-5.794917">
        <ele>1802.0</ele>
        <time>2015-06-06T15:38:31Z</time>
      </trkpt>
      <trkpt lat="40.105317" lon="-5.795217">
        <ele>1798.0</ele>
        <time>2015-06-06T15:38:33Z</time>
      </trkpt>
      <trkpt lat="40.105267" lon="-5.795517">
        <ele>1793.0</ele>
        <time>2015-06-06T15:38:35Z</time>
      </trkpt>
      <trkpt lat="40.105217" lon="-5.795833">
        <ele>1789.0</ele>
        <time>2015-06-06T15:38:37Z</time>
      </trkpt>
      <trkpt lat="40.105167" lon="-5.796133">
        <ele>1785.0</ele>
        <time>2015-06-06T15:38:39Z</time>
      </trkpt>
      <trkpt lat="40.105150" lon="-5.796450">
        <ele>1780.0</ele>
        <time>2015-06-06T15:38:41Z</time>
      </trkpt>
      <trkpt lat="40.105133" lon="-5.796800">
        <ele>1776.0</ele>
        <time>2015-06-06T15:38:43Z</time>
      </trkpt>
      <trkpt lat="40.105117" lon="-5.797133">
        <ele>1773.0</ele>
        <time>2015-06-06T15:38:45Z</time>
      </trkpt>
      <trkpt lat="40.105100" lon="-5.797450">
        <ele>1770.0</ele>
        <time>2015-06-06T15:38:47Z</time>
      </trkpt>
      <trkpt lat="40.105083" lon="-5.797783">
        <ele>1766.0</ele>
        <time>2015-06-06T15:38:49Z</time>
      </trkpt>
      <trkpt lat="40.105067" lon="-5.798100">
        <ele>1762.0</ele>
        <time>2015-06-06T15:38:51Z</time>
      </trkpt>
      <trkpt lat="40.105033" lon="-5.798417">
        <ele>1758.0</ele>
        <time>2015-06-06T15:38:53Z</time>
      </trkpt>
      <trkpt lat="40.105017" lon="-5.798733">
        <ele>1755.0</ele>
        <time>2015-06-06T15:38:55Z</time>
      </trkpt>
      <trkpt lat="40.105000" lon="-5.799050">
        <ele>1751.0</ele>
        <time>2015-06-06T15:38:57Z</time>
      </trkpt>
      <trkpt lat="40.104983" lon="-5.799367">
        <ele>1748.0</ele>
        <time>2015-06-06T15:38:59Z</time>
      </trkpt>
      <trkpt lat="40.104967" lon="-5.799683">
        <ele>1745.0</ele>
        <time>2015-06-06T15:39:01Z</time>
      </trkpt>
      <trkpt lat="40.104933" lon="-5.800000">
        <ele>1741.0</ele>
        <time>2015-06-06T15:39:03Z</time>
      </trkpt>
      <trkpt lat="40.104900" lon="-5.800317">
        <ele>1737.0</ele>
        <time>2015-06-06T15:39:05Z</time>
      </trkpt>
      <trkpt lat="40.104883" lon="-5.800633">
        <ele>1734.0</ele>
        <time>2015-06-06T15:39:07Z</time>
      </trkpt>
      <trkpt lat="40.104883" lon="-5.800933">
        <ele>1729.0</ele>
        <time>2015-06-06T15:39:09Z</time>
      </trkpt>
      <trkpt lat="40.104867" lon="-5.801267">
        <ele>1724.0</ele>
        <time>2015-06-06T15:39:11Z</time>
      </trkpt>
      <trkpt lat="40.104833" lon="-5.801600">
        <ele>1719.0</ele>
        <time>2015-06-06T15:39:13Z</time>
      </trkpt>
      <trkpt lat="40.104817" lon="-5.801917">
        <ele>1716.0</ele>
        <time>2015-06-06T15:39:15Z</time>
      </trkpt>
      <trkpt lat="40.104800" lon="-5.802233">
        <ele>1711.0</ele>
        <time>2015-06-06T15:39:17Z</time>
      </trkpt>
      <trkpt lat="40.104767" lon="-5.802567">
        <ele>1708.0</ele>
        <time>2015-06-06T15:39:19Z</time>
      </trkpt>
      <trkpt lat="40.104717" lon="-5.802883">
        <ele>1704.0</ele>
        <time>2015-06-06T15:39:21Z</time>
      </trkpt>
      <trkpt lat="40.104667" lon="-5.803200">
        <ele>1701.0</ele>
        <time>2015-06-06T15:39:23Z</time>
      </trkpt>
      <trkpt lat="40.104617" lon="-5.803517">
        <ele>1697.0</ele>
        <time>2015-06-06T15:39:25Z</time>
      </trkpt>
      <trkpt lat="40.104567" lon="-5.803833">
        <ele>1694.0</ele>
        <time>2015-06-06T15:39:27Z</time>
      </trkpt>
      <trkpt lat="40.104500" lon="-5.804150">
        <ele>1692.0</ele>
        <time>2015-06-06T15:39:29Z</time>
      </trkpt>
      <trkpt lat="40.104467" lon="-5.804467">
        <ele>1689.0</ele>
        <time>2015-06-06T15:39:31Z</time>
      </trkpt>
      <trkpt lat="40.104433" lon="-5.804767">
        <ele>1684.0</ele>
        <time>2015-06-06T15:39:33Z</time>
      </trkpt>
      <trkpt lat="40.104383" lon="-5.805083">
        <ele>1680.0</ele>
        <time>2015-06-06T15:39:35Z</time>
      </trkpt>
      <trkpt lat="40.104300" lon="-5.805400">
        <ele>1675.0</ele>
        <time>2015-06-06T15:39:37Z</time>
      </trkpt>
      <trkpt lat="40.104233" lon="-5.805700">
        <ele>1672.0</ele>
        <time>2015-06-06T15:39:39Z</time>
      </trkpt>
      <trkpt lat="40.104167" lon="-5.806017">
        <ele>1669.0</ele>
        <time>2015-06-06T15:39:41Z</time>
      </trkpt>
      <trkpt lat="40.104100" lon="-5.806317">
        <ele>1665.0</ele>
        <time>2015-06-06T15:39:43Z</time>
      </trkpt>
      <trkpt lat="40.104033" lon="-5.806633">
        <ele>1660.0</ele>
        <time>2015-06-06T15:39:45Z</time>
      </trkpt>
      <trkpt lat="40.103933" lon="-5.806967">
        <ele>1657.0</ele>
        <time>2015-06-06T15:39:47Z</time>
      </trkpt>
      <trkpt lat="40.103850" lon="-5.807267">
        <ele>1655.0</ele>
        <time>2015-06-06T15:39:49Z</time>
      </trkpt>
      <trkpt lat="40.103767" lon="-5.807567">
        <ele>1653.0</ele>
        <time>2015-06-06T15:39:51Z</time>
      </trkpt>
      <trkpt lat="40.103717" lon="-5.807883">
        <ele>1650.0</ele>
        <time>2015-06-06T15:39:53Z</time>
      </trkpt>
      <trkpt lat="40.103683" lon="-5.808217">
        <ele>1648.0</ele>
        <time>2015-06-06T15:39:55Z</time>
      </trkpt>
      <trkpt lat="40.103633" lon="-5.808533">
        <ele>1648.0</ele>
        <time>2015-06-06T15:39:57Z</time>
      </trkpt>
      <trkpt lat="40.103567" lon="-5.808850">
        <ele>1645.0</ele>
        <time>2015-06-06T15:39:59Z</time>
      </trkpt>
      <trkpt lat="40.103483" lon="-5.809133">
        <ele>1642.0</ele>
        <time>2015-06-06T15:40:01Z</time>
      </trkpt>
      <trkpt lat="40.103383" lon="-5.809433">
        <ele>1638.0</ele>
        <time>2015-06-06T15:40:03Z</time>
      </trkpt>
      <trkpt lat="40.103317" lon="-5.809750">
        <ele>1635.0</ele>
        <time>2015-06-06T15:40:05Z</time>
      </trkpt>
      <trkpt lat="40.103217" lon="-5.810033">
        <ele>1633.0</ele>
        <time>2015-06-06T15:40:07Z</time>
      </trkpt>
      <trkpt lat="40.103133" lon="-5.810317">
        <ele>1631.0</ele>
        <time>2015-06-06T15:40:09Z</time>
      </trkpt>
      <trkpt lat="40.103017" lon="-5.810600">
        <ele>1628.0</ele>
        <time>2015-06-06T15:40:11Z</time>
      </trkpt>
      <trkpt lat="40.102900" lon="-5.810867">
        <ele>1626.0</ele>
        <time>2015-06-06T15:40:13Z</time>
      </trkpt>
      <trkpt lat="40.102767" lon="-5.811100">
        <ele>1625.0</ele>
        <time>2015-06-06T15:40:15Z</time>
      </trkpt>
      <trkpt lat="40.102633" lon="-5.811350">
        <ele>1625.0</ele>
        <time>2015-06-06T15:40:17Z</time>
      </trkpt>
      <trkpt lat="40.102533" lon="-5.811617">
        <ele>1624.0</ele>
        <time>2015-06-06T15:40:19Z</time>
      </trkpt>
      <trkpt lat="40.102433" lon="-5.811883">
        <ele>1622.0</ele>
        <time>2015-06-06T15:40:21Z</time>
      </trkpt>
      <trkpt lat="40.102300" lon="-5.812117">
        <ele>1618.0</ele>
        <time>2015-06-06T15:40:23Z</time>
      </trkpt>
      <trkpt lat="40.102150" lon="-5.812383">
        <ele>1614.0</ele>
        <time>2015-06-06T15:40:25Z</time>
      </trkpt>
      <trkpt lat="40.101983" lon="-5.812650">
        <ele>1613.0</ele>
        <time>2015-06-06T15:40:27Z</time>
      </trkpt>
      <trkpt lat="40.101850" lon="-5.812900">
        <ele>1611.0</ele>
        <time>2015-06-06T15:40:29Z</time>
      </trkpt>
      <trkpt lat="40.101717" lon="-5.813150">
        <ele>1608.0</ele>
        <time>2015-06-06T15:40:31Z</time>
      </trkpt>
      <trkpt lat="40.101583" lon="-5.813417">
        <ele>1605.0</ele>
        <time>2015-06-06T15:40:33Z</time>
      </trkpt>
      <trkpt lat="40.101450" lon="-5.813617">
        <ele>1603.0</ele>
        <time>2015-06-06T15:40:35Z</time>
      </trkpt>
      <trkpt lat="40.101317" lon="-5.813783">
        <ele>1598.0</ele>
        <time>2015-06-06T15:40:37Z</time>
      </trkpt>
      <trkpt lat="40.101150" lon="-5.813950">
        <ele>1593.0</ele>
        <time>2015-06-06T15:40:39Z</time>
      </trkpt>
      <trkpt lat="40.100967" lon="-5.814067">
        <ele>1591.0</ele>
        <time>2015-06-06T15:40:41Z</time>
      </trkpt>
      <trkpt lat="40.100833" lon="-5.814200">
        <ele>1589.0</ele>
        <time>2015-06-06T15:40:43Z</time>
      </trkpt>
      <trkpt lat="40.100683" lon="-5.814417">
        <ele>1584.0</ele>
        <time>2015-06-06T15:40:45Z</time>
      </trkpt>
      <trkpt lat="40.100550" lon="-5.814650">
        <ele>1581.0</ele>
        <time>2015-06-06T15:40:47Z</time>
      </trkpt>
      <trkpt lat="40.100417" lon="-5.814850">
        <ele>1579.0</ele>
        <time>2015-06-06T15:40:49Z</time>
      </trkpt>
      <trkpt lat="40.100283" lon="-5.815050">
        <ele>1576.0</ele>
        <time>2015-06-06T15:40:51Z</time>
      </trkpt>
      <trkpt lat="40.100150" lon="-5.815233">
        <ele>1572.0</ele>
        <time>2015-06-06T15:40:53Z</time>
      </trkpt>
      <trkpt lat="40.100000" lon="-5.815383">
        <ele>1570.0</ele>
        <time>2015-06-06T15:40:55Z</time>
      </trkpt>
      <trkpt lat="40.099867" lon="-5.815550">
        <ele>1567.0</ele>
        <time>2015-06-06T15:40:57Z</time>
      </trkpt>
      <trkpt lat="40.099750" lon="-5.815767">
        <ele>1564.0</ele>
        <time>2015-06-06T15:40:59Z</time>
      </trkpt>
      <trkpt lat="40.099650" lon="-5.816033">
        <ele>1560.0</ele>
        <time>2015-06-06T15:41:01Z</time>
      </trkpt>
      <trkpt lat="40.099533" lon="-5.816300">
        <ele>1555.0</ele>
        <time>2015-06-06T15:41:03Z</time>
      </trkpt>
      <trkpt lat="40.099400" lon="-5.816517">
        <ele>1551.0</ele>
        <time>2015-06-06T15:41:05Z</time>
      </trkpt>
      <trkpt lat="40.099250" lon="-5.816767">
        <ele>1549.0</ele>
        <time>2015-06-06T15:41:07Z</time>
      </trkpt>
      <trkpt lat="40.099100" lon="-5.817017">
        <ele>1547.0</ele>
        <time>2015-06-06T15:41:09Z</time>
      </trkpt>
      <trkpt lat="40.098933" lon="-5.817217">
        <ele>1547.0</ele>
        <time>2015-06-06T15:41:11Z</time>
      </trkpt>
      <trkpt lat="40.098767" lon="-5.817400">
        <ele>1548.0</ele>
        <time>2015-06-06T15:41:13Z</time>
      </trkpt>
      <trkpt lat="40.098617" lon="-5.817567">
        <ele>1550.0</ele>
        <time>2015-06-06T15:41:15Z</time>
      </trkpt>
      <trkpt lat="40.098483" lon="-5.817767">
        <ele>1551.0</ele>
        <time>2015-06-06T15:41:17Z</time>
      </trkpt>
      <trkpt lat="40.098383" lon="-5.818033">
        <ele>1550.0</ele>
        <time>2015-06-06T15:41:19Z</time>
      </trkpt>
      <trkpt lat="40.098250" lon="-5.818267">
        <ele>1551.0</ele>
        <time>2015-06-06T15:41:21Z</time>
      </trkpt>
      <trkpt lat="40.098100" lon="-5.818417">
        <ele>1551.0</ele>
        <time>2015-06-06T15:41:23Z</time>
      </trkpt>
      <trkpt lat="40.097950" lon="-5.818600">
        <ele>1553.0</ele>
        <time>2015-06-06T15:41:25Z</time>
      </trkpt>
      <trkpt lat="40.097767" lon="-5.818700">
        <ele>1556.0</ele>
        <time>2015-06-06T15:41:27Z</time>
      </trkpt>
      <trkpt lat="40.097600" lon="-5.818717">
        <ele>1559.0</ele>
        <time>2015-06-06T15:41:29Z</time>
      </trkpt>
      <trkpt lat="40.097433" lon="-5.818700">
        <ele>1560.0</ele>
        <time>2015-06-06T15:41:31Z</time>
      </trkpt>
      <trkpt lat="40.097267" lon="-5.818633">
        <ele>1563.0</ele>
        <time>2015-06-06T15:41:33Z</time>
      </trkpt>
      <trkpt lat="40.097217" lon="-5.818483">
        <ele>1565.0</ele>
        <time>2015-06-06T15:41:35Z</time>
      </trkpt>
      <trkpt lat="40.097233" lon="-5.818333">
        <ele>1567.0</ele>
        <time>2015-06-06T15:41:37Z</time>
      </trkpt>
      <trkpt lat="40.097283" lon="-5.818233">
        <ele>1568.0</ele>
        <time>2015-06-06T15:41:39Z</time>
      </trkpt>
      <trkpt lat="40.097433" lon="-5.818133">
        <ele>1566.0</ele>
        <time>2015-06-06T15:41:41Z</time>
      </trkpt>
      <trkpt lat="40.097633" lon="-5.818117">
        <ele>1568.0</ele>
        <time>2015-06-06T15:41:43Z</time>
      </trkpt>
      <trkpt lat="40.097800" lon="-5.818100">
        <ele>1569.0</ele>
        <time>2015-06-06T15:41:45Z</time>
      </trkpt>
      <trkpt lat="40.097967" lon="-5.818017">
        <ele>1568.0</ele>
        <time>2015-06-06T15:41:47Z</time>
      </trkpt>
      <trkpt lat="40.098067" lon="-5.817850">
        <ele>1570.0</ele>
        <time>2015-06-06T15:41:49Z</time>
      </trkpt>
      <trkpt lat="40.098083" lon="-5.817717">
        <ele>1572.0</ele>
        <time>2015-06-06T15:41:51Z</time>
      </trkpt>
      <trkpt lat="40.098033" lon="-5.817633">
        <ele>1573.0</ele>
        <time>2015-06-06T15:41:53Z</time>
      </trkpt>
      <trkpt lat="40.097917" lon="-5.817617">
        <ele>1572.0</ele>
        <time>2015-06-06T15:41:55Z</time>
      </trkpt>
      <trkpt lat="40.097750" lon="-5.817733">
        <ele>1571.0</ele>
        <time>2015-06-06T15:41:57Z</time>
      </trkpt>
      <trkpt lat="40.097617" lon="-5.817950">
        <ele>1574.0</ele>
        <time>2015-06-06T15:41:59Z</time>
      </trkpt>
      <trkpt lat="40.097567" lon="-5.818183">
        <ele>1575.0</ele>
        <time>2015-06-06T15:42:01Z</time>
      </trkpt>
      <trkpt lat="40.097600" lon="-5.818483">
        <ele>1573.0</ele>
        <time>2015-06-06T15:42:03Z</time>
      </trkpt>
      <trkpt lat="40.097717" lon="-5.818750">
        <ele>1572.0</ele>
        <time>2015-06-06T15:42:05Z</time>
      </trkpt>
      <trkpt lat="40.097900" lon="-5.818917">
        <ele>1573.0</ele>
        <time>2015-06-06T15:42:07Z</time>
      </trkpt>
      <trkpt lat="40.098083" lon="-5.818967">
        <ele>1574.0</ele>
        <time>2015-06-06T15:42:09Z</time>
      </trkpt>
      <trkpt lat="40.098250" lon="-5.818950">
        <ele>1575.0</ele>
        <time>2015-06-06T15:42:11Z</time>
      </trkpt>
      <trkpt lat="40.098383" lon="-5.818850">
        <ele>1575.0</ele>
        <time>2015-06-06T15:42:13Z</time>
      </trkpt>
      <trkpt lat="40.098467" lon="-5.818750">
        <ele>1576.0</ele>
        <time>2015-06-06T15:42:15Z</time>
      </trkpt>
      <trkpt lat="40.098500" lon="-5.818633">
        <ele>1577.0</ele>
        <time>2015-06-06T15:42:17Z</time>
      </trkpt>
      <trkpt lat="40.098517" lon="-5.818483">
        <ele>1577.0</ele>
        <time>2015-06-06T15:42:19Z</time>
      </trkpt>
      <trkpt lat="40.098517" lon="-5.818367">
        <ele>1578.0</ele>
        <time>2015-06-06T15:42:21Z</time>
      </trkpt>
      <trkpt lat="40.098467" lon="-5.818267">
        <ele>1578.0</ele>
        <time>2015-06-06T15:42:23Z</time>
      </trkpt>
      <trkpt lat="40.098417" lon="-5.818167">
        <ele>1578.0</ele>
        <time>2015-06-06T15:42:25Z</time>
      </trkpt>
      <trkpt lat="40.098317" lon="-5.818100">
        <ele>1578.0</ele>
        <time>2015-06-06T15:42:27Z</time>
      </trkpt>
      <trkpt lat="40.098183" lon="-5.818050">
        <ele>1578.0</ele>
        <time>2015-06-06T15:42:29Z</time>
      </trkpt>
      <trkpt lat="40.098083" lon="-5.817983">
        <ele>1578.0</ele>
        <time>2015-06-06T15:42:31Z</time>
      </trkpt>
      <trkpt lat="40.098017" lon="-5.817883">
        <ele>1579.0</ele>
        <time>2015-06-06T15:42:33Z</time>
      </trkpt>
      <trkpt lat="40.097983" lon="-5.817783">
        <ele>1579.0</ele>
        <time>2015-06-06T15:42:35Z</time>
      </trkpt>
      <trkpt lat="40.097950" lon="-5.817667">
        <ele>1578.0</ele>
        <time>2015-06-06T15:42:37Z</time>
      </trkpt>
      <trkpt lat="40.097867" lon="-5.817567">
        <ele>1578.0</ele>
        <time>2015-06-06T15:42:39Z</time>
      </trkpt>
      <trkpt lat="40.097700" lon="-5.817600">
        <ele>1578.0</ele>
        <time>2015-06-06T15:42:41Z</time>
      </trkpt>
      <trkpt lat="40.097533" lon="-5.817667">
        <ele>1579.0</ele>
        <time>2015-06-06T15:42:43Z</time>
      </trkpt>
      <trkpt lat="40.097383" lon="-5.817783">
        <ele>1580.0</ele>
        <time>2015-06-06T15:42:45Z</time>
      </trkpt>
      <trkpt lat="40.097233" lon="-5.817983">
        <ele>1580.0</ele>
        <time>2015-06-06T15:42:47Z</time>
      </trkpt>
      <trkpt lat="40.097100" lon="-5.818200">
        <ele>1581.0</ele>
        <time>2015-06-06T15:42:49Z</time>
      </trkpt>
      <trkpt lat="40.096983" lon="-5.818417">
        <ele>1581.0</ele>
        <time>2015-06-06T15:42:51Z</time>
      </trkpt>
      <trkpt lat="40.096833" lon="-5.818667">
        <ele>1579.0</ele>
        <time>2015-06-06T15:42:53Z</time>
      </trkpt>
      <trkpt lat="40.096667" lon="-5.818850">
        <ele>1582.0</ele>
        <time>2015-06-06T15:42:55Z</time>
      </trkpt>
      <trkpt lat="40.096533" lon="-5.819017">
        <ele>1586.0</ele>
        <time>2015-06-06T15:42:57Z</time>
      </trkpt>
      <trkpt lat="40.096417" lon="-5.819200">
        <ele>1586.0</ele>
        <time>2015-06-06T15:42:59Z</time>
      </trkpt>
      <trkpt lat="40.096333" lon="-5.819450">
        <ele>1585.0</ele>
        <time>2015-06-06T15:43:01Z</time>
      </trkpt>
      <trkpt lat="40.096250" lon="-5.819733">
        <ele>1585.0</ele>
        <time>2015-06-06T15:43:03Z</time>
      </trkpt>
      <trkpt lat="40.096167" lon="-5.819983">
        <ele>1586.0</ele>
        <time>2015-06-06T15:43:05Z</time>
      </trkpt>
      <trkpt lat="40.096033" lon="-5.820183">
        <ele>1586.0</ele>
        <time>2015-06-06T15:43:07Z</time>
      </trkpt>
      <trkpt lat="40.095917" lon="-5.820367">
        <ele>1586.0</ele>
        <time>2015-06-06T15:43:09Z</time>
      </trkpt>
      <trkpt lat="40.095783" lon="-5.820533">
        <ele>1587.0</ele>
        <time>2015-06-06T15:43:11Z</time>
      </trkpt>
      <trkpt lat="40.095617" lon="-5.820650">
        <ele>1587.0</ele>
        <time>2015-06-06T15:43:13Z</time>
      </trkpt>
      <trkpt lat="40.095450" lon="-5.820800">
        <ele>1589.0</ele>
        <time>2015-06-06T15:43:15Z</time>
      </trkpt>
      <trkpt lat="40.095317" lon="-5.820950">
        <ele>1592.0</ele>
        <time>2015-06-06T15:43:17Z</time>
      </trkpt>
      <trkpt lat="40.095217" lon="-5.821133">
        <ele>1593.0</ele>
        <time>2015-06-06T15:43:19Z</time>
      </trkpt>
      <trkpt lat="40.095183" lon="-5.821433">
        <ele>1594.0</ele>
        <time>2015-06-06T15:43:21Z</time>
      </trkpt>
      <trkpt lat="40.095250" lon="-5.821717">
        <ele>1598.0</ele>
        <time>2015-06-06T15:43:23Z</time>
      </trkpt>
      <trkpt lat="40.095400" lon="-5.821917">
        <ele>1599.0</ele>
        <time>2015-06-06T15:43:25Z</time>
      </trkpt>
      <trkpt lat="40.095600" lon="-5.821950">
        <ele>1600.0</ele>
        <time>2015-06-06T15:43:27Z</time>
      </trkpt>
      <trkpt lat="40.095750" lon="-5.821850">
        <ele>1602.0</ele>
        <time>2015-06-06T15:43:29Z</time>
      </trkpt>
      <trkpt lat="40.095800" lon="-5.821717">
        <ele>1603.0</ele>
        <time>2015-06-06T15:43:31Z</time>
      </trkpt>
      <trkpt lat="40.095783" lon="-5.821567">
        <ele>1602.0</ele>
        <time>2015-06-06T15:43:33Z</time>
      </trkpt>
      <trkpt lat="40.095683" lon="-5.821450">
        <ele>1601.0</ele>
        <time>2015-06-06T15:43:35Z</time>
      </trkpt>
      <trkpt lat="40.095550" lon="-5.821450">
        <ele>1604.0</ele>
        <time>2015-06-06T15:43:37Z</time>
      </trkpt>
      <trkpt lat="40.095433" lon="-5.821517">
        <ele>1606.0</ele>
        <time>2015-06-06T15:43:39Z</time>
      </trkpt>
      <trkpt lat="40.095300" lon="-5.821633">
        <ele>1606.0</ele>
        <time>2015-06-06T15:43:41Z</time>
      </trkpt>
      <trkpt lat="40.095200" lon="-5.821850">
        <ele>1608.0</ele>
        <time>2015-06-06T15:43:43Z</time>
      </trkpt>
      <trkpt lat="40.095167" lon="-5.822117">
        <ele>1611.0</ele>
        <time>2015-06-06T15:43:45Z</time>
      </trkpt>
      <trkpt lat="40.095233" lon="-5.822417">
        <ele>1612.0</ele>
        <time>2015-06-06T15:43:47Z</time>
      </trkpt>
      <trkpt lat="40.095400" lon="-5.822667">
        <ele>1614.0</ele>
        <time>2015-06-06T15:43:49Z</time>
      </trkpt>
      <trkpt lat="40.095600" lon="-5.822733">
        <ele>1617.0</ele>
        <time>2015-06-06T15:43:51Z</time>
      </trkpt>
      <trkpt lat="40.095767" lon="-5.822683">
        <ele>1621.0</ele>
        <time>2015-06-06T15:43:53Z</time>
      </trkpt>
      <trkpt lat="40.095883" lon="-5.822600">
        <ele>1623.0</ele>
        <time>2015-06-06T15:43:55Z</time>
      </trkpt>
      <trkpt lat="40.095950" lon="-5.822433">
        <ele>1623.0</ele>
        <time>2015-06-06T15:43:57Z</time>
      </trkpt>
      <trkpt lat="40.095900" lon="-5.822267">
        <ele>1623.0</ele>
        <time>2015-06-06T15:43:59Z</time>
      </trkpt>
      <trkpt lat="40.095783" lon="-5.822200">
        <ele>1625.0</ele>
        <time>2015-06-06T15:44:01Z</time>
      </trkpt>
      <trkpt lat="40.095650" lon="-5.822183">
        <ele>1627.0</ele>
        <time>2015-06-06T15:44:03Z</time>
      </trkpt>
      <trkpt lat="40.095500" lon="-5.822250">
        <ele>1628.0</ele>
        <time>2015-06-06T15:44:05Z</time>
      </trkpt>
      <trkpt lat="40.095350" lon="-5.822383">
        <ele>1631.0</ele>
        <time>2015-06-06T15:44:07Z</time>
      </trkpt>
      <trkpt lat="40.095267" lon="-5.822600">
        <ele>1634.0</ele>
        <time>2015-06-06T15:44:09Z</time>
      </trkpt>
      <trkpt lat="40.095233" lon="-5.822900">
        <ele>1635.0</ele>
        <time>2015-06-06T15:44:11Z</time>
      </trkpt>
      <trkpt lat="40.095300" lon="-5.823250">
        <ele>1638.0</ele>
        <time>2015-06-06T15:44:13Z</time>
      </trkpt>
      <trkpt lat="40.095467" lon="-5.823483">
        <ele>1641.0</ele>
        <time>2015-06-06T15:44:15Z</time>
      </trkpt>
      <trkpt lat="40.095667" lon="-5.823600">
        <ele>1642.0</ele>
        <time>2015-06-06T15:44:17Z</time>
      </trkpt>
      <trkpt lat="40.095867" lon="-5.823600">
        <ele>1645.0</ele>
        <time>2015-06-06T15:44:19Z</time>
      </trkpt>
      <trkpt lat="40.096017" lon="-5.823517">
        <ele>1648.0</ele>
        <time>2015-06-06T15:44:21Z</time>
      </trkpt>
      <trkpt lat="40.096100" lon="-5.823383">
        <ele>1651.0</ele>
        <time>2015-06-06T15:44:23Z</time>
      </trkpt>
      <trkpt lat="40.096100" lon="-5.823233">
        <ele>1652.0</ele>
        <time>2015-06-06T15:44:25Z</time>
      </trkpt>
      <trkpt lat="40.096017" lon="-5.823133">
        <ele>1654.0</ele>
        <time>2015-06-06T15:44:27Z</time>
      </trkpt>
      <trkpt lat="40.095883" lon="-5.823100">
        <ele>1658.0</ele>
        <time>2015-06-06T15:44:29Z</time>
      </trkpt>
      <trkpt lat="40.095767" lon="-5.823150">
        <ele>1662.0</ele>
        <time>2015-06-06T15:44:31Z</time>
      </trkpt>
      <trkpt lat="40.095633" lon="-5.823267">
        <ele>1662.0</ele>
        <time>2015-06-06T15:44:33Z</time>
      </trkpt>
      <trkpt lat="40.095533" lon="-5.823500">
        <ele>1663.0</ele>
        <time>2015-06-06T15:44:35Z</time>
      </trkpt>
      <trkpt lat="40.095500" lon="-5.823783">
        <ele>1664.0</ele>
        <time>2015-06-06T15:44:37Z</time>
      </trkpt>
      <trkpt lat="40.095583" lon="-5.824100">
        <ele>1664.0</ele>
        <time>2015-06-06T15:44:39Z</time>
      </trkpt>
      <trkpt lat="40.095767" lon="-5.824333">
        <ele>1667.0</ele>
        <time>2015-06-06T15:44:41Z</time>
      </trkpt>
      <trkpt lat="40.095967" lon="-5.824433">
        <ele>1670.0</ele>
        <time>2015-06-06T15:44:43Z</time>
      </trkpt>
      <trkpt lat="40.096150" lon="-5.824450">
        <ele>1673.0</ele>
        <time>2015-06-06T15:44:45Z</time>
      </trkpt>
      <trkpt lat="40.096317" lon="-5.824367">
        <ele>1675.0</ele>
        <time>2015-06-06T15:44:47Z</time>
      </trkpt>
      <trkpt lat="40.096383" lon="-5.824217">
        <ele>1677.0</ele>
        <time>2015-06-06T15:44:49Z</time>
      </trkpt>
      <trkpt lat="40.096350" lon="-5.824050">
        <ele>1679.0</ele>
        <time>2015-06-06T15:44:51Z</time>
      </trkpt>
      <trkpt lat="40.096267" lon="-5.823933">
        <ele>1681.0</ele>
        <time>2015-06-06T15:44:53Z</time>
      </trkpt>
      <trkpt lat="40.096150" lon="-5.823900">
        <ele>1685.0</ele>
        <time>2015-06-06T15:44:55Z</time>
      </trkpt>
      <trkpt lat="40.096017" lon="-5.823950">
        <ele>1686.0</ele>
        <time>2015-06-06T15:44:57Z</time>
      </trkpt>
      <trkpt lat="40.095900" lon="-5.824100">
        <ele>1687.0</ele>
        <time>2015-06-06T15:44:59Z</time>
      </trkpt>
      <trkpt lat="40.095817" lon="-5.824333">
        <ele>1688.0</ele>
        <time>2015-06-06T15:45:01Z</time>
      </trkpt>
      <trkpt lat="40.095800" lon="-5.824633">
        <ele>1688.0</ele>
        <time>2015-06-06T15:45:03Z</time>
      </trkpt>
      <trkpt lat="40.095867" lon="-5.824950">
        <ele>1688.0</ele>
        <time>2015-06-06T15:45:05Z</time>
      </trkpt>
      <trkpt lat="40.096017" lon="-5.825200">
        <ele>1690.0</ele>
        <time>2015-06-06T15:45:07Z</time>
      </trkpt>
      <trkpt lat="40.096217" lon="-5.825317">
        <ele>1693.0</ele>
        <time>2015-06-06T15:45:09Z</time>
      </trkpt>
      <trkpt lat="40.096400" lon="-5.825333">
        <ele>1697.0</ele>
        <time>2015-06-06T15:45:11Z</time>
      </trkpt>
      <trkpt lat="40.096533" lon="-5.825233">
        <ele>1699.0</ele>
        <time>2015-06-06T15:45:13Z</time>
      </trkpt>
      <trkpt lat="40.096583" lon="-5.825083">
        <ele>1702.0</ele>
        <time>2015-06-06T15:45:15Z</time>
      </trkpt>
      <trkpt lat="40.096550" lon="-5.824950">
        <ele>1705.0</ele>
        <time>2015-06-06T15:45:17Z</time>
      </trkpt>
      <trkpt lat="40.096450" lon="-5.824883">
        <ele>1707.0</ele>
        <time>2015-06-06T15:45:19Z</time>
      </trkpt>
      <trkpt lat="40.096317" lon="-5.824900">
        <ele>1710.0</ele>
        <time>2015-06-06T15:45:21Z</time>
      </trkpt>
      <trkpt lat="40.096200" lon="-5.824983">
        <ele>1711.0</ele>
        <time>2015-06-06T15:45:23Z</time>
      </trkpt>
      <trkpt lat="40.096067" lon="-5.825183">
        <ele>1711.0</ele>
        <time>2015-06-06T15:45:25Z</time>
      </trkpt>
      <trkpt lat="40.096017" lon="-5.825467">
        <ele>1713.0</ele>
        <time>2015-06-06T15:45:27Z</time>
      </trkpt>
      <trkpt lat="40.096067" lon="-5.825783">
        <ele>1714.0</ele>
        <time>2015-06-06T15:45:29Z</time>
      </trkpt>
      <trkpt lat="40.096200" lon="-5.826050">
        <ele>1715.0</ele>
        <time>2015-06-06T15:45:31Z</time>
      </trkpt>
      <trkpt lat="40.096383" lon="-5.826217">
        <ele>1715.0</ele>
        <time>2015-06-06T15:45:33Z</time>
      </trkpt>
      <trkpt lat="40.096600" lon="-5.826217">
        <ele>1716.0</ele>
        <time>2015-06-06T15:45:35Z</time>
      </trkpt>
      <trkpt lat="40.096733" lon="-5.826117">
        <ele>1719.0</ele>
        <time>2015-06-06T15:45:37Z</time>
      </trkpt>
      <trkpt lat="40.096800" lon="-5.826000">
        <ele>1721.0</ele>
        <time>2015-06-06T15:45:39Z</time>
      </trkpt>
      <trkpt lat="40.096817" lon="-5.825850">
        <ele>1721.0</ele>
        <time>2015-06-06T15:45:41Z</time>
      </trkpt>
      <trkpt lat="40.096700" lon="-5.825733">
        <ele>1723.0</ele>
        <time>2015-06-06T15:45:43Z</time>
      </trkpt>
      <trkpt lat="40.096583" lon="-5.825717">
        <ele>1730.0</ele>
        <time>2015-06-06T15:45:45Z</time>
      </trkpt>
      <trkpt lat="40.096483" lon="-5.825750">
        <ele>1732.0</ele>
        <time>2015-06-06T15:45:47Z</time>
      </trkpt>
      <trkpt lat="40.096350" lon="-5.825850">
        <ele>1729.0</ele>
        <time>2015-06-06T15:45:49Z</time>
      </trkpt>
      <trkpt lat="40.096233" lon="-5.826067">
        <ele>1731.0</ele>
        <time>2015-06-06T15:45:51Z</time>
      </trkpt>
      <trkpt lat="40.096217" lon="-5.826350">
        <ele>1731.0</ele>
        <time>2015-06-06T15:45:53Z</time>
      </trkpt>
      <trkpt lat="40.096267" lon="-5.826650">
        <ele>1730.0</ele>
        <time>2015-06-06T15:45:55Z</time>
      </trkpt>
      <trkpt lat="40.096383" lon="-5.826933">
        <ele>1728.0</ele>
        <time>2015-06-06T15:45:57Z</time>
      </trkpt>
      <trkpt lat="40.096600" lon="-5.827117">
        <ele>1725.0</ele>
        <time>2015-06-06T15:45:59Z</time>
      </trkpt>
      <trkpt lat="40.096833" lon="-5.827133">
        <ele>1726.0</ele>
        <time>2015-06-06T15:46:01Z</time>
      </trkpt>
      <trkpt lat="40.096983" lon="-5.827083">
        <ele>1730.0</ele>
        <time>2015-06-06T15:46:03Z</time>
      </trkpt>
      <trkpt lat="40.097100" lon="-5.827000">
        <ele>1731.0</ele>
        <time>2015-06-06T15:46:05Z</time>
      </trkpt>
      <trkpt lat="40.097133" lon="-5.826833">
        <ele>1730.0</ele>
        <time>2015-06-06T15:46:07Z</time>
      </trkpt>
      <trkpt lat="40.097117" lon="-5.826683">
        <ele>1733.0</ele>
        <time>2015-06-06T15:46:09Z</time>
      </trkpt>
      <trkpt lat="40.097067" lon="-5.826567">
        <ele>1735.0</ele>
        <time>2015-06-06T15:46:11Z</time>
      </trkpt>
      <trkpt lat="40.096950" lon="-5.826467">
        <ele>1736.0</ele>
        <time>2015-06-06T15:46:13Z</time>
      </trkpt>
      <trkpt lat="40.096800" lon="-5.826433">
        <ele>1738.0</ele>
        <time>2015-06-06T15:46:15Z</time>
      </trkpt>
      <trkpt lat="40.096633" lon="-5.826500">
        <ele>1743.0</ele>
        <time>2015-06-06T15:46:17Z</time>
      </trkpt>
      <trkpt lat="40.096517" lon="-5.826600">
        <ele>1746.0</ele>
        <time>2015-06-06T15:46:19Z</time>
      </trkpt>
      <trkpt lat="40.096417" lon="-5.826750">
        <ele>1745.0</ele>
        <time>2015-06-06T15:46:21Z</time>
      </trkpt>
      <trkpt lat="40.096317" lon="-5.826967">
        <ele>1743.0</ele>
        <time>2015-06-06T15:46:23Z</time>
      </trkpt>
      <trkpt lat="40.096250" lon="-5.827217">
        <ele>1744.0</ele>
        <time>2015-06-06T15:46:25Z</time>
      </trkpt>
      <trkpt lat="40.096267" lon="-5.827483">
        <ele>1745.0</ele>
        <time>2015-06-06T15:46:27Z</time>
      </trkpt>
      <trkpt lat="40.096367" lon="-5.827767">
        <ele>1745.0</ele>
        <time>2015-06-06T15:46:29Z</time>
      </trkpt>
      <trkpt lat="40.096550" lon="-5.827967">
        <ele>1745.0</ele>
        <time>2015-06-06T15:46:31Z</time>
      </trkpt>
      <trkpt lat="40.096767" lon="-5.828017">
        <ele>1745.0</ele>
        <time>2015-06-06T15:46:33Z</time>
      </trkpt>
      <trkpt lat="40.096933" lon="-5.827950">
        <ele>1745.0</ele>
        <time>2015-06-06T15:46:35Z</time>
      </trkpt>
      <trkpt lat="40.097033" lon="-5.827817">
        <ele>1746.0</ele>
        <time>2015-06-06T15:46:37Z</time>
      </trkpt>
      <trkpt lat="40.097017" lon="-5.827667">
        <ele>1746.0</ele>
        <time>2015-06-06T15:46:39Z</time>
      </trkpt>
      <trkpt lat="40.096933" lon="-5.827550">
        <ele>1749.0</ele>
        <time>2015-06-06T15:46:41Z</time>
      </trkpt>
      <trkpt lat="40.096817" lon="-5.827517">
        <ele>1750.0</ele>
        <time>2015-06-06T15:46:43Z</time>
      </trkpt>
      <trkpt lat="40.096683" lon="-5.827533">
        <ele>1750.0</ele>
        <time>2015-06-06T15:46:45Z</time>
      </trkpt>
      <trkpt lat="40.096550" lon="-5.827617">
        <ele>1752.0</ele>
        <time>2015-06-06T15:46:47Z</time>
      </trkpt>
      <trkpt lat="40.096400" lon="-5.827750">
        <ele>1755.0</ele>
        <time>2015-06-06T15:46:49Z</time>
      </trkpt>
      <trkpt lat="40.096250" lon="-5.827883">
        <ele>1757.0</ele>
        <time>2015-06-06T15:46:51Z</time>
      </trkpt>
      <trkpt lat="40.096117" lon="-5.828067">
        <ele>1758.0</ele>
        <time>2015-06-06T15:46:53Z</time>
      </trkpt>
      <trkpt lat="40.096017" lon="-5.828300">
        <ele>1757.0</ele>
        <time>2015-06-06T15:46:55Z</time>
      </trkpt>
      <trkpt lat="40.095950" lon="-5.828583">
        <ele>1757.0</ele>
        <time>2015-06-06T15:46:57Z</time>
      </trkpt>
      <trkpt lat="40.095950" lon="-5.828900">
        <ele>1756.0</ele>
        <time>2015-06-06T15:46:59Z</time>
      </trkpt>
      <trkpt lat="40.095983" lon="-5.829233">
        <ele>1756.0</ele>
        <time>2015-06-06T15:47:01Z</time>
      </trkpt>
      <trkpt lat="40.095967" lon="-5.829550">
        <ele>1758.0</ele>
        <time>2015-06-06T15:47:03Z</time>
      </trkpt>
      <trkpt lat="40.095883" lon="-5.829817">
        <ele>1758.0</ele>
        <time>2015-06-06T15:47:05Z</time>
      </trkpt>
      <trkpt lat="40.095767" lon="-5.830067">
        <ele>1755.0</ele>
        <time>2015-06-06T15:47:07Z</time>
      </trkpt>
      <trkpt lat="40.095633" lon="-5.830283">
        <ele>1754.0</ele>
        <time>2015-06-06T15:47:09Z</time>
      </trkpt>
      <trkpt lat="40.095517" lon="-5.830467">
        <ele>1753.0</ele>
        <time>2015-06-06T15:47:11Z</time>
      </trkpt>
      <trkpt lat="40.095383" lon="-5.830650">
        <ele>1752.0</ele>
        <time>2015-06-06T15:47:13Z</time>
      </trkpt>
      <trkpt lat="40.095267" lon="-5.830833">
        <ele>1750.0</ele>
        <time>2015-06-06T15:47:15Z</time>
      </trkpt>
      <trkpt lat="40.095133" lon="-5.830967">
        <ele>1745.0</ele>
        <time>2015-06-06T15:47:17Z</time>
      </trkpt>
      <trkpt lat="40.094967" lon="-5.831067">
        <ele>1743.0</ele>
        <time>2015-06-06T15:47:19Z</time>
      </trkpt>
      <trkpt lat="40.094833" lon="-5.831150">
        <ele>1745.0</ele>
        <time>2015-06-06T15:47:21Z</time>
      </trkpt>
      <trkpt lat="40.094733" lon="-5.831250">
        <ele>1744.0</ele>
        <time>2015-06-06T15:47:23Z</time>
      </trkpt>
      <trkpt lat="40.094617" lon="-5.831433">
        <ele>1741.0</ele>
        <time>2015-06-06T15:47:25Z</time>
      </trkpt>
      <trkpt lat="40.094500" lon="-5.831633">
        <ele>1739.0</ele>
        <time>2015-06-06T15:47:27Z</time>
      </trkpt>
      <trkpt lat="40.094383" lon="-5.831833">
        <ele>1736.0</ele>
        <time>2015-06-06T15:47:29Z</time>
      </trkpt>
      <trkpt lat="40.094267" lon="-5.832033">
        <ele>1734.0</ele>
        <time>2015-06-06T15:47:31Z</time>
      </trkpt>
      <trkpt lat="40.094133" lon="-5.832217">
        <ele>1732.0</ele>
        <time>2015-06-06T15:47:33Z</time>
      </trkpt>
      <trkpt lat="40.094000" lon="-5.832433">
        <ele>1732.0</ele>
        <time>2015-06-06T15:47:35Z</time>
      </trkpt>
      <trkpt lat="40.093883" lon="-5.832633">
        <ele>1734.0</ele>
        <time>2015-06-06T15:47:37Z</time>
      </trkpt>
      <trkpt lat="40.093783" lon="-5.832867">
        <ele>1734.0</ele>
        <time>2015-06-06T15:47:39Z</time>
      </trkpt>
      <trkpt lat="40.093700" lon="-5.833117">
        <ele>1733.0</ele>
        <time>2015-06-06T15:47:41Z</time>
      </trkpt>
      <trkpt lat="40.093617" lon="-5.833417">
        <ele>1732.0</ele>
        <time>2015-06-06T15:47:43Z</time>
      </trkpt>
      <trkpt lat="40.093517" lon="-5.833683">
        <ele>1732.0</ele>
        <time>2015-06-06T15:47:45Z</time>
      </trkpt>
      <trkpt lat="40.093417" lon="-5.833933">
        <ele>1733.0</ele>
        <time>2015-06-06T15:47:47Z</time>
      </trkpt>
      <trkpt lat="40.093300" lon="-5.834167">
        <ele>1733.0</ele>
        <time>2015-06-06T15:47:49Z</time>
      </trkpt>
      <trkpt lat="40.093183" lon="-5.834400">
        <ele>1732.0</ele>
        <time>2015-06-06T15:47:51Z</time>
      </trkpt>
      <trkpt lat="40.093067" lon="-5.834617">
        <ele>1734.0</ele>
        <time>2015-06-06T15:47:53Z</time>
      </trkpt>
      <trkpt lat="40.092950" lon="-5.834833">
        <ele>1736.0</ele>
        <time>2015-06-06T15:47:55Z</time>
      </trkpt>
      <trkpt lat="40.092833" lon="-5.835050">
        <ele>1737.0</ele>
        <time>2015-06-06T15:47:57Z</time>
      </trkpt>
      <trkpt lat="40.092717" lon="-5.835217">
        <ele>1739.0</ele>
        <time>2015-06-06T15:47:59Z</time>
      </trkpt>
      <trkpt lat="40.092600" lon="-5.835300">
        <ele>1744.0</ele>
        <time>2015-06-06T15:48:01Z</time>
      </trkpt>
      <trkpt lat="40.092533" lon="-5.835283">
        <ele>1744.0</ele>
        <time>2015-06-06T15:48:03Z</time>
      </trkpt>
      <trkpt lat="40.092450" lon="-5.835183">
        <ele>1744.0</ele>
        <time>2015-06-06T15:48:05Z</time>
      </trkpt>
      <trkpt lat="40.092467" lon="-5.835017">
        <ele>1746.0</ele>
        <time>2015-06-06T15:48:07Z</time>
      </trkpt>
      <trkpt lat="40.092550" lon="-5.834900">
        <ele>1749.0</ele>
        <time>2015-06-06T15:48:09Z</time>
      </trkpt>
      <trkpt lat="40.092717" lon="-5.834850">
        <ele>1752.0</ele>
        <time>2015-06-06T15:48:11Z</time>
      </trkpt>
      <trkpt lat="40.092950" lon="-5.834933">
        <ele>1753.0</ele>
        <time>2015-06-06T15:48:13Z</time>
      </trkpt>
      <trkpt lat="40.093133" lon="-5.835183">
        <ele>1755.0</ele>
        <time>2015-06-06T15:48:15Z</time>
      </trkpt>
      <trkpt lat="40.093217" lon="-5.835467">
        <ele>1759.0</ele>
        <time>2015-06-06T15:48:17Z</time>
      </trkpt>
      <trkpt lat="40.093233" lon="-5.835750">
        <ele>1761.0</ele>
        <time>2015-06-06T15:48:19Z</time>
      </trkpt>
      <trkpt lat="40.093167" lon="-5.835983">
        <ele>1762.0</ele>
        <time>2015-06-06T15:48:21Z</time>
      </trkpt>
      <trkpt lat="40.093033" lon="-5.836083">
        <ele>1762.0</ele>
        <time>2015-06-06T15:48:23Z</time>
      </trkpt>
      <trkpt lat="40.092917" lon="-5.836117">
        <ele>1766.0</ele>
        <time>2015-06-06T15:48:25Z</time>
      </trkpt>
      <trkpt lat="40.092850" lon="-5.836067">
        <ele>1767.0</ele>
        <time>2015-06-06T15:48:27Z</time>
      </trkpt>
      <trkpt lat="40.092817" lon="-5.835933">
        <ele>1768.0</ele>
        <time>2015-06-06T15:48:29Z</time>
      </trkpt>
      <trkpt lat="40.092850" lon="-5.835800">
        <ele>1771.0</ele>
        <time>2015-06-06T15:48:31Z</time>
      </trkpt>
      <trkpt lat="40.092950" lon="-5.835683">
        <ele>1774.0</ele>
        <time>2015-06-06T15:48:33Z</time>
      </trkpt>
      <trkpt lat="40.093100" lon="-5.835617">
        <ele>1777.0</ele>
        <time>2015-06-06T15:48:35Z</time>
      </trkpt>
      <trkpt lat="40.093300" lon="-5.835633">
        <ele>1777.0</ele>
        <time>2015-06-06T15:48:37Z</time>
      </trkpt>
      <trkpt lat="40.093533" lon="-5.835767">
        <ele>1778.0</ele>
        <time>2015-06-06T15:48:39Z</time>
      </trkpt>
      <trkpt lat="40.093717" lon="-5.835983">
        <ele>1780.0</ele>
        <time>2015-06-06T15:48:41Z</time>
      </trkpt>
      <trkpt lat="40.093867" lon="-5.836217">
        <ele>1781.0</ele>
        <time>2015-06-06T15:48:43Z</time>
      </trkpt>
      <trkpt lat="40.093933" lon="-5.836550">
        <ele>1781.0</ele>
        <time>2015-06-06T15:48:45Z</time>
      </trkpt>
      <trkpt lat="40.093917" lon="-5.836850">
        <ele>1783.0</ele>
        <time>2015-06-06T15:48:47Z</time>
      </trkpt>
      <trkpt lat="40.093900" lon="-5.837083">
        <ele>1785.0</ele>
        <time>2015-06-06T15:48:49Z</time>
      </trkpt>
      <trkpt lat="40.093817" lon="-5.837283">
        <ele>1784.0</ele>
        <time>2015-06-06T15:48:51Z</time>
      </trkpt>
      <trkpt lat="40.093683" lon="-5.837417">
        <ele>1786.0</ele>
        <time>2015-06-06T15:48:53Z</time>
      </trkpt>
      <trkpt lat="40.093583" lon="-5.837467">
        <ele>1787.0</ele>
        <time>2015-06-06T15:48:55Z</time>
      </trkpt>
      <trkpt lat="40.093500" lon="-5.837450">
        <ele>1787.0</ele>
        <time>2015-06-06T15:48:57Z</time>
      </trkpt>
      <trkpt lat="40.093433" lon="-5.837350">
        <ele>1787.0</ele>
        <time>2015-06-06T15:48:59Z</time>
      </trkpt>
      <trkpt lat="40.093433" lon="-5.837200">
        <ele>1788.0</ele>
        <time>2015-06-06T15:49:01Z</time>
      </trkpt>
      <trkpt lat="40.093533" lon="-5.837067">
        <ele>1790.0</ele>
        <time>2015-06-06T15:49:03Z</time>
      </trkpt>
      <trkpt lat="40.093700" lon="-5.836967">
        <ele>1792.0</ele>
        <time>2015-06-06T15:49:05Z</time>
      </trkpt>
      <trkpt lat="40.093900" lon="-5.836950">
        <ele>1795.0</ele>
        <time>2015-06-06T15:49:07Z</time>
      </trkpt>
      <trkpt lat="40.094117" lon="-5.837083">
        <ele>1797.0</ele>
        <time>2015-06-06T15:49:09Z</time>
      </trkpt>
      <trkpt lat="40.094283" lon="-5.837350">
        <ele>1796.0</ele>
        <time>2015-06-06T15:49:11Z</time>
      </trkpt>
      <trkpt lat="40.094367" lon="-5.837667">
        <ele>1797.0</ele>
        <time>2015-06-06T15:49:13Z</time>
      </trkpt>
      <trkpt lat="40.094333" lon="-5.837950">
        <ele>1797.0</ele>
        <time>2015-06-06T15:49:15Z</time>
      </trkpt>
      <trkpt lat="40.094250" lon="-5.838217">
        <ele>1796.0</ele>
        <time>2015-06-06T15:49:17Z</time>
      </trkpt>
      <trkpt lat="40.094133" lon="-5.838433">
        <ele>1798.0</ele>
        <time>2015-06-06T15:49:19Z</time>
      </trkpt>
      <trkpt lat="40.094017" lon="-5.838617">
        <ele>1801.0</ele>
        <time>2015-06-06T15:49:21Z</time>
      </trkpt>
      <trkpt lat="40.093900" lon="-5.838733">
        <ele>1803.0</ele>
        <time>2015-06-06T15:49:23Z</time>
      </trkpt>
      <trkpt lat="40.093783" lon="-5.838783">
        <ele>1803.0</ele>
        <time>2015-06-06T15:49:25Z</time>
      </trkpt>
      <trkpt lat="40.093667" lon="-5.838767">
        <ele>1801.0</ele>
        <time>2015-06-06T15:49:27Z</time>
      </trkpt>
      <trkpt lat="40.093533" lon="-5.838750">
        <ele>1800.0</ele>
        <time>2015-06-06T15:49:29Z</time>
      </trkpt>
      <trkpt lat="40.093367" lon="-5.838850">
        <ele>1802.0</ele>
        <time>2015-06-06T15:49:31Z</time>
      </trkpt>
      <trkpt lat="40.093233" lon="-5.838983">
        <ele>1804.0</ele>
        <time>2015-06-06T15:49:33Z</time>
      </trkpt>
      <trkpt lat="40.093133" lon="-5.839150">
        <ele>1805.0</ele>
        <time>2015-06-06T15:49:35Z</time>
      </trkpt>
      <trkpt lat="40.093017" lon="-5.839383">
        <ele>1803.0</ele>
        <time>2015-06-06T15:49:37Z</time>
      </trkpt>
      <trkpt lat="40.092883" lon="-5.839600">
        <ele>1806.0</ele>
        <time>2015-06-06T15:49:39Z</time>
      </trkpt>
      <trkpt lat="40.092767" lon="-5.839800">
        <ele>1811.0</ele>
        <time>2015-06-06T15:49:41Z</time>
      </trkpt>
      <trkpt lat="40.092733" lon="-5.840067">
        <ele>1813.0</ele>
        <time>2015-06-06T15:49:43Z</time>
      </trkpt>
      <trkpt lat="40.092783" lon="-5.840383">
        <ele>1812.0</ele>
        <time>2015-06-06T15:49:45Z</time>
      </trkpt>
      <trkpt lat="40.092900" lon="-5.840667">
        <ele>1815.0</ele>
        <time>2015-06-06T15:49:47Z</time>
      </trkpt>
      <trkpt lat="40.093067" lon="-5.840867">
        <ele>1818.0</ele>
        <time>2015-06-06T15:49:49Z</time>
      </trkpt>
      <trkpt lat="40.093250" lon="-5.840967">
        <ele>1821.0</ele>
        <time>2015-06-06T15:49:51Z</time>
      </trkpt>
      <trkpt lat="40.093433" lon="-5.840967">
        <ele>1822.0</ele>
        <time>2015-06-06T15:49:53Z</time>
      </trkpt>
      <trkpt lat="40.093567" lon="-5.840867">
        <ele>1824.0</ele>
        <time>2015-06-06T15:49:55Z</time>
      </trkpt>
      <trkpt lat="40.093600" lon="-5.840733">
        <ele>1826.0</ele>
        <time>2015-06-06T15:49:57Z</time>
      </trkpt>
      <trkpt lat="40.093550" lon="-5.840617">
        <ele>1829.0</ele>
        <time>2015-06-06T15:49:59Z</time>
      </trkpt>
      <trkpt lat="40.093433" lon="-5.840583">
        <ele>1831.0</ele>
        <time>2015-06-06T15:50:01Z</time>
      </trkpt>
      <trkpt lat="40.093300" lon="-5.840667">
        <ele>1834.0</ele>
        <time>2015-06-06T15:50:03Z</time>
      </trkpt>
      <trkpt lat="40.093200" lon="-5.840833">
        <ele>1837.0</ele>
        <time>2015-06-06T15:50:05Z</time>
      </trkpt>
      <trkpt lat="40.093150" lon="-5.841067">
        <ele>1838.0</ele>
        <time>2015-06-06T15:50:07Z</time>
      </trkpt>
      <trkpt lat="40.093183" lon="-5.841400">
        <ele>1837.0</ele>
        <time>2015-06-06T15:50:09Z</time>
      </trkpt>
      <trkpt lat="40.093300" lon="-5.841683">
        <ele>1842.0</ele>
        <time>2015-06-06T15:50:11Z</time>
      </trkpt>
      <trkpt lat="40.093467" lon="-5.841833">
        <ele>1845.0</ele>
        <time>2015-06-06T15:50:13Z</time>
      </trkpt>
      <trkpt lat="40.093650" lon="-5.841950">
        <ele>1845.0</ele>
        <time>2015-06-06T15:50:15Z</time>
      </trkpt>
      <trkpt lat="40.093850" lon="-5.841917">
        <ele>1845.0</ele>
        <time>2015-06-06T15:50:17Z</time>
      </trkpt>
      <trkpt lat="40.093983" lon="-5.841767">
        <ele>1847.0</ele>
        <time>2015-06-06T15:50:19Z</time>
      </trkpt>
      <trkpt lat="40.094017" lon="-5.841650">
        <ele>1851.0</ele>
        <time>2015-06-06T15:50:21Z</time>
      </trkpt>
      <trkpt lat="40.093983" lon="-5.841533">
        <ele>1853.0</ele>
        <time>2015-06-06T15:50:23Z</time>
      </trkpt>
      <trkpt lat="40.093883" lon="-5.841467">
        <ele>1854.0</ele>
        <time>2015-06-06T15:50:25Z</time>
      </trkpt>
      <trkpt lat="40.093733" lon="-5.841550">
        <ele>1857.0</ele>
        <time>2015-06-06T15:50:27Z</time>
      </trkpt>
      <trkpt lat="40.093650" lon="-5.841733">
        <ele>1861.0</ele>
        <time>2015-06-06T15:50:29Z</time>
      </trkpt>
      <trkpt lat="40.093617" lon="-5.841983">
        <ele>1861.0</ele>
        <time>2015-06-06T15:50:31Z</time>
      </trkpt>
      <trkpt lat="40.093633" lon="-5.842300">
        <ele>1863.0</ele>
        <time>2015-06-06T15:50:33Z</time>
      </trkpt>
      <trkpt lat="40.093750" lon="-5.842567">
        <ele>1864.0</ele>
        <time>2015-06-06T15:50:35Z</time>
      </trkpt>
      <trkpt lat="40.093933" lon="-5.842733">
        <ele>1869.0</ele>
        <time>2015-06-06T15:50:37Z</time>
      </trkpt>
      <trkpt lat="40.094100" lon="-5.842783">
        <ele>1872.0</ele>
        <time>2015-06-06T15:50:39Z</time>
      </trkpt>
      <trkpt lat="40.094300" lon="-5.842700">
        <ele>1874.0</ele>
        <time>2015-06-06T15:50:41Z</time>
      </trkpt>
      <trkpt lat="40.094367" lon="-5.842517">
        <ele>1877.0</ele>
        <time>2015-06-06T15:50:43Z</time>
      </trkpt>
      <trkpt lat="40.094317" lon="-5.842417">
        <ele>1882.0</ele>
        <time>2015-06-06T15:50:45Z</time>
      </trkpt>
      <trkpt lat="40.094233" lon="-5.842383">
        <ele>1885.0</ele>
        <time>2015-06-06T15:50:47Z</time>
      </trkpt>
      <trkpt lat="40.094117" lon="-5.842400">
        <ele>1885.0</ele>
        <time>2015-06-06T15:50:49Z</time>
      </trkpt>
      <trkpt lat="40.093950" lon="-5.842533">
        <ele>1886.0</ele>
        <time>2015-06-06T15:50:51Z</time>
      </trkpt>
      <trkpt lat="40.093850" lon="-5.842750">
        <ele>1890.0</ele>
        <time>2015-06-06T15:50:53Z</time>
      </trkpt>
      <trkpt lat="40.093817" lon="-5.843017">
        <ele>1891.0</ele>
        <time>2015-06-06T15:50:55Z</time>
      </trkpt>
      <trkpt lat="40.093833" lon="-5.843333">
        <ele>1891.0</ele>
        <time>2015-06-06T15:50:57Z</time>
      </trkpt>
      <trkpt lat="40.093967" lon="-5.843600">
        <ele>1892.0</ele>
        <time>2015-06-06T15:50:59Z</time>
      </trkpt>
      <trkpt lat="40.094167" lon="-5.843767">
        <ele>1896.0</ele>
        <time>2015-06-06T15:51:01Z</time>
      </trkpt>
      <trkpt lat="40.094367" lon="-5.843800">
        <ele>1901.0</ele>
        <time>2015-06-06T15:51:03Z</time>
      </trkpt>
      <trkpt lat="40.094533" lon="-5.843733">
        <ele>1903.0</ele>
        <time>2015-06-06T15:51:05Z</time>
      </trkpt>
      <trkpt lat="40.094633" lon="-5.843567">
        <ele>1905.0</ele>
        <time>2015-06-06T15:51:07Z</time>
      </trkpt>
      <trkpt lat="40.094617" lon="-5.843383">
        <ele>1908.0</ele>
        <time>2015-06-06T15:51:09Z</time>
      </trkpt>
      <trkpt lat="40.094517" lon="-5.843317">
        <ele>1911.0</ele>
        <time>2015-06-06T15:51:11Z</time>
      </trkpt>
      <trkpt lat="40.094383" lon="-5.843317">
        <ele>1914.0</ele>
        <time>2015-06-06T15:51:13Z</time>
      </trkpt>
      <trkpt lat="40.094267" lon="-5.843467">
        <ele>1916.0</ele>
        <time>2015-06-06T15:51:15Z</time>
      </trkpt>
      <trkpt lat="40.094200" lon="-5.843717">
        <ele>1918.0</ele>
        <time>2015-06-06T15:51:17Z</time>
      </trkpt>
      <trkpt lat="40.094217" lon="-5.844017">
        <ele>1921.0</ele>
        <time>2015-06-06T15:51:19Z</time>
      </trkpt>
      <trkpt lat="40.094317" lon="-5.844283">
        <ele>1922.0</ele>
        <time>2015-06-06T15:51:21Z</time>
      </trkpt>
      <trkpt lat="40.094483" lon="-5.844517">
        <ele>1925.0</ele>
        <time>2015-06-06T15:51:23Z</time>
      </trkpt>
      <trkpt lat="40.094683" lon="-5.844600">
        <ele>1929.0</ele>
        <time>2015-06-06T15:51:25Z</time>
      </trkpt>
      <trkpt lat="40.094867" lon="-5.844567">
        <ele>1932.0</ele>
        <time>2015-06-06T15:51:27Z</time>
      </trkpt>
      <trkpt lat="40.094983" lon="-5.844433">
        <ele>1934.0</ele>
        <time>2015-06-06T15:51:29Z</time>
      </trkpt>
      <trkpt lat="40.095050" lon="-5.844250">
        <ele>1937.0</ele>
        <time>2015-06-06T15:51:31Z</time>
      </trkpt>
      <trkpt lat="40.094983" lon="-5.844083">
        <ele>1939.0</ele>
        <time>2015-06-06T15:51:33Z</time>
      </trkpt>
      <trkpt lat="40.094850" lon="-5.844050">
        <ele>1942.0</ele>
        <time>2015-06-06T15:51:35Z</time>
      </trkpt>
      <trkpt lat="40.094717" lon="-5.844133">
        <ele>1945.0</ele>
        <time>2015-06-06T15:51:37Z</time>
      </trkpt>
      <trkpt lat="40.094600" lon="-5.844300">
        <ele>1947.0</ele>
        <time>2015-06-06T15:51:39Z</time>
      </trkpt>
      <trkpt lat="40.094533" lon="-5.844567">
        <ele>1949.0</ele>
        <time>2015-06-06T15:51:41Z</time>
      </trkpt>
      <trkpt lat="40.094567" lon="-5.844883">
        <ele>1953.0</ele>
        <time>2015-06-06T15:51:43Z</time>
      </trkpt>
      <trkpt lat="40.094683" lon="-5.845150">
        <ele>1958.0</ele>
        <time>2015-06-06T15:51:45Z</time>
      </trkpt>
      <trkpt lat="40.094867" lon="-5.845300">
        <ele>1960.0</ele>
        <time>2015-06-06T15:51:47Z</time>
      </trkpt>
      <trkpt lat="40.095067" lon="-5.845333">
        <ele>1963.0</ele>
        <time>2015-06-06T15:51:49Z</time>
      </trkpt>
      <trkpt lat="40.095217" lon="-5.845250">
        <ele>1966.0</ele>
        <time>2015-06-06T15:51:51Z</time>
      </trkpt>
      <trkpt lat="40.095283" lon="-5.845083">
        <ele>1969.0</ele>
        <time>2015-06-06T15:51:53Z</time>
      </trkpt>
      <trkpt lat="40.095250" lon="-5.844933">
        <ele>1972.0</ele>
        <time>2015-06-06T15:51:55Z</time>
      </trkpt>
      <trkpt lat="40.095133" lon="-5.844917">
        <ele>1976.0</ele>
        <time>2015-06-06T15:51:57Z</time>
      </trkpt>
      <trkpt lat="40.095000" lon="-5.845000">
        <ele>1979.0</ele>
        <time>2015-06-06T15:51:59Z</time>
      </trkpt>
      <trkpt lat="40.094867" lon="-5.845200">
        <ele>1981.0</ele>
        <time>2015-06-06T15:52:01Z</time>
      </trkpt>
      <trkpt lat="40.094817" lon="-5.845483">
        <ele>1983.0</ele>
        <time>2015-06-06T15:52:03Z</time>
      </trkpt>
      <trkpt lat="40.094850" lon="-5.845800">
        <ele>1989.0</ele>
        <time>2015-06-06T15:52:05Z</time>
      </trkpt>
      <trkpt lat="40.094950" lon="-5.846050">
        <ele>1994.0</ele>
        <time>2015-06-06T15:52:07Z</time>
      </trkpt>
      <trkpt lat="40.095117" lon="-5.846217">
        <ele>1996.0</ele>
        <time>2015-06-06T15:52:09Z</time>
      </trkpt>
      <trkpt lat="40.095317" lon="-5.846267">
        <ele>1999.0</ele>
        <time>2015-06-06T15:52:11Z</time>
      </trkpt>
      <trkpt lat="40.095500" lon="-5.846183">
        <ele>2003.0</ele>
        <time>2015-06-06T15:52:13Z</time>
      </trkpt>
      <trkpt lat="40.095583" lon="-5.846050">
        <ele>2008.0</ele>
        <time>2015-06-06T15:52:15Z</time>
      </trkpt>
      <trkpt lat="40.095567" lon="-5.845900">
        <ele>2011.0</ele>
        <time>2015-06-06T15:52:17Z</time>
      </trkpt>
      <trkpt lat="40.095450" lon="-5.845833">
        <ele>2016.0</ele>
        <time>2015-06-06T15:52:19Z</time>
      </trkpt>
      <trkpt lat="40.095300" lon="-5.845900">
        <ele>2021.0</ele>
        <time>2015-06-06T15:52:21Z</time>
      </trkpt>
      <trkpt lat="40.095200" lon="-5.846100">
        <ele>2025.0</ele>
        <time>2015-06-06T15:52:23Z</time>
      </trkpt>
      <trkpt lat="40.095150" lon="-5.846367">
        <ele>2027.0</ele>
        <time>2015-06-06T15:52:25Z</time>
      </trkpt>
      <trkpt lat="40.095200" lon="-5.846683">
        <ele>2030.0</ele>
        <time>2015-06-06T15:52:27Z</time>
      </trkpt>
      <trkpt lat="40.095333" lon="-5.846950">
        <ele>2033.0</ele>
        <time>2015-06-06T15:52:29Z</time>
      </trkpt>
      <trkpt lat="40.095517" lon="-5.847150">
        <ele>2037.0</ele>
        <time>2015-06-06T15:52:31Z</time>
      </trkpt>
      <trkpt lat="40.095733" lon="-5.847233">
        <ele>2041.0</ele>
        <time>2015-06-06T15:52:33Z</time>
      </trkpt>
      <trkpt lat="40.095900" lon="-5.847167">
        <ele>2046.0</ele>
        <time>2015-06-06T15:52:35Z</time>
      </trkpt>
      <trkpt lat="40.095967" lon="-5.847017">
        <ele>2050.0</ele>
        <time>2015-06-06T15:52:37Z</time>
      </trkpt>
      <trkpt lat="40.095967" lon="-5.846883">
        <ele>2056.0</ele>
        <time>2015-06-06T15:52:39Z</time>
      </trkpt>
      <trkpt lat="40.095867" lon="-5.846833">
        <ele>2059.0</ele>
        <time>2015-06-06T15:52:41Z</time>
      </trkpt>
      <trkpt lat="40.095700" lon="-5.846883">
        <ele>2063.0</ele>
        <time>2015-06-06T15:52:43Z</time>
      </trkpt>
      <trkpt lat="40.095600" lon="-5.847117">
        <ele>2069.0</ele>
        <time>2015-06-06T15:52:45Z</time>
      </trkpt>
      <trkpt lat="40.095567" lon="-5.847383">
        <ele>2073.0</ele>
        <time>2015-06-06T15:52:47Z</time>
      </trkpt>
      <trkpt lat="40.095617" lon="-5.847717">
        <ele>2075.0</ele>
        <time>2015-06-06T15:52:49Z</time>
      </trkpt>
      <trkpt lat="40.095767" lon="-5.848017">
        <ele>2080.0</ele>
        <time>2015-06-06T15:52:51Z</time>
      </trkpt>
      <trkpt lat="40.095983" lon="-5.848167">
        <ele>2087.0</ele>
        <time>2015-06-06T15:52:53Z</time>
      </trkpt>
      <trkpt lat="40.096150" lon="-5.848167">
        <ele>2090.0</ele>
        <time>2015-06-06T15:52:55Z</time>
      </trkpt>
      <trkpt lat="40.096267" lon="-5.848050">
        <ele>2093.0</ele>
        <time>2015-06-06T15:52:57Z</time>
      </trkpt>
      <trkpt lat="40.096233" lon="-5.847883">
        <ele>2096.0</ele>
        <time>2015-06-06T15:52:59Z</time>
      </trkpt>
      <trkpt lat="40.096117" lon="-5.847867">
        <ele>2103.0</ele>
        <time>2015-06-06T15:53:01Z</time>
      </trkpt>
      <trkpt lat="40.096000" lon="-5.847967">
        <ele>2109.0</ele>
        <time>2015-06-06T15:53:03Z</time>
      </trkpt>
      <trkpt lat="40.095900" lon="-5.848183">
        <ele>2113.0</ele>
        <time>2015-06-06T15:53:05Z</time>
      </trkpt>
      <trkpt lat="40.095883" lon="-5.848500">
        <ele>2117.0</ele>
        <time>2015-06-06T15:53:07Z</time>
      </trkpt>
      <trkpt lat="40.095967" lon="-5.848817">
        <ele>2120.0</ele>
        <time>2015-06-06T15:53:09Z</time>
      </trkpt>
      <trkpt lat="40.096117" lon="-5.849083">
        <ele>2124.0</ele>
        <time>2015-06-06T15:53:11Z</time>
      </trkpt>
      <trkpt lat="40.096333" lon="-5.849200">
        <ele>2128.0</ele>
        <time>2015-06-06T15:53:13Z</time>
      </trkpt>
      <trkpt lat="40.096517" lon="-5.849167">
        <ele>2131.0</ele>
        <time>2015-06-06T15:53:15Z</time>
      </trkpt>
      <trkpt lat="40.096683" lon="-5.849067">
        <ele>2135.0</ele>
        <time>2015-06-06T15:53:17Z</time>
      </trkpt>
      <trkpt lat="40.096750" lon="-5.848917">
        <ele>2137.0</ele>
        <time>2015-06-06T15:53:19Z</time>
      </trkpt>
      <trkpt lat="40.096700" lon="-5.848750">
        <ele>2140.0</ele>
        <time>2015-06-06T15:53:21Z</time>
      </trkpt>
      <trkpt lat="40.096583" lon="-5.848733">
        <ele>2145.0</ele>
        <time>2015-06-06T15:53:23Z</time>
      </trkpt>
      <trkpt lat="40.096433" lon="-5.848833">
        <ele>2150.0</ele>
        <time>2015-06-06T15:53:25Z</time>
      </trkpt>
      <trkpt lat="40.096350" lon="-5.849083">
        <ele>2155.0</ele>
        <time>2015-06-06T15:53:27Z</time>
      </trkpt>
      <trkpt lat="40.096400" lon="-5.849400">
        <ele>2160.0</ele>
        <time>2015-06-06T15:53:29Z</time>
      </trkpt>
      <trkpt lat="40.096550" lon="-5.849650">
        <ele>2164.0</ele>
        <time>2015-06-06T15:53:31Z</time>
      </trkpt>
      <trkpt lat="40.096717" lon="-5.849833">
        <ele>2167.0</ele>
        <time>2015-06-06T15:53:33Z</time>
      </trkpt>
      <trkpt lat="40.096933" lon="-5.849900">
        <ele>2169.0</ele>
        <time>2015-06-06T15:53:35Z</time>
      </trkpt>
      <trkpt lat="40.097117" lon="-5.849850">
        <ele>2173.0</ele>
        <time>2015-06-06T15:53:37Z</time>
      </trkpt>
      <trkpt lat="40.097217" lon="-5.849733">
        <ele>2177.0</ele>
        <time>2015-06-06T15:53:39Z</time>
      </trkpt>
      <trkpt lat="40.097217" lon="-5.849583">
        <ele>2180.0</ele>
        <time>2015-06-06T15:53:41Z</time>
      </trkpt>
      <trkpt lat="40.097133" lon="-5.849517">
        <ele>2186.0</ele>
        <time>2015-06-06T15:53:43Z</time>
      </trkpt>
      <trkpt lat="40.097033" lon="-5.849550">
        <ele>2196.0</ele>
        <time>2015-06-06T15:53:45Z</time>
      </trkpt>
      <trkpt lat="40.096933" lon="-5.849700">
        <ele>2202.0</ele>
        <time>2015-06-06T15:53:47Z</time>
      </trkpt>
      <trkpt lat="40.096850" lon="-5.849967">
        <ele>2208.0</ele>
        <time>2015-06-06T15:53:49Z</time>
      </trkpt>
      <trkpt lat="40.096850" lon="-5.850300">
        <ele>2215.0</ele>
        <time>2015-06-06T15:53:51Z</time>
      </trkpt>
      <trkpt lat="40.096933" lon="-5.850550">
        <ele>2221.0</ele>
        <time>2015-06-06T15:53:53Z</time>
      </trkpt>
      <trkpt lat="40.097117" lon="-5.850783">
        <ele>2223.0</ele>
        <time>2015-06-06T15:53:55Z</time>
      </trkpt>
      <trkpt lat="40.097333" lon="-5.850917">
        <ele>2226.0</ele>
        <time>2015-06-06T15:53:57Z</time>
      </trkpt>
      <trkpt lat="40.097533" lon="-5.850900">
        <ele>2230.0</ele>
        <time>2015-06-06T15:53:59Z</time>
      </trkpt>
      <trkpt lat="40.097667" lon="-5.850800">
        <ele>2233.0</ele>
        <time>2015-06-06T15:54:01Z</time>
      </trkpt>
      <trkpt lat="40.097683" lon="-5.850650">
        <ele>2235.0</ele>
        <time>2015-06-06T15:54:03Z</time>
      </trkpt>
      <trkpt lat="40.097600" lon="-5.850533">
        <ele>2240.0</ele>
        <time>2015-06-06T15:54:05Z</time>
      </trkpt>
      <trkpt lat="40.097467" lon="-5.850567">
        <ele>2248.0</ele>
        <time>2015-06-06T15:54:07Z</time>
      </trkpt>
      <trkpt lat="40.097383" lon="-5.850717">
        <ele>2256.0</ele>
        <time>2015-06-06T15:54:09Z</time>
      </trkpt>
      <trkpt lat="40.097317" lon="-5.850950">
        <ele>2260.0</ele>
        <time>2015-06-06T15:54:11Z</time>
      </trkpt>
      <trkpt lat="40.097317" lon="-5.851250">
        <ele>2266.0</ele>
        <time>2015-06-06T15:54:13Z</time>
      </trkpt>
      <trkpt lat="40.097433" lon="-5.851550">
        <ele>2269.0</ele>
        <time>2015-06-06T15:54:15Z</time>
      </trkpt>
      <trkpt lat="40.097650" lon="-5.851750">
        <ele>2273.0</ele>
        <time>2015-06-06T15:54:17Z</time>
      </trkpt>
      <trkpt lat="40.097867" lon="-5.851817">
        <ele>2277.0</ele>
        <time>2015-06-06T15:54:19Z</time>
      </trkpt>
      <trkpt lat="40.098033" lon="-5.851767">
        <ele>2280.0</ele>
        <time>2015-06-06T15:54:21Z</time>
      </trkpt>
      <trkpt lat="40.098150" lon="-5.851650">
        <ele>2281.0</ele>
        <time>2015-06-06T15:54:23Z</time>
      </trkpt>
      <trkpt lat="40.098167" lon="-5.851500">
        <ele>2283.0</ele>
        <time>2015-06-06T15:54:25Z</time>
      </trkpt>
      <trkpt lat="40.098050" lon="-5.851400">
        <ele>2287.0</ele>
        <time>2015-06-06T15:54:27Z</time>
      </trkpt>
      <trkpt lat="40.097933" lon="-5.851417">
        <ele>2295.0</ele>
        <time>2015-06-06T15:54:29Z</time>
      </trkpt>
      <trkpt lat="40.097817" lon="-5.851533">
        <ele>2300.0</ele>
        <time>2015-06-06T15:54:31Z</time>
      </trkpt>
      <trkpt lat="40.097733" lon="-5.851783">
        <ele>2304.0</ele>
        <time>2015-06-06T15:54:33Z</time>
      </trkpt>
      <trkpt lat="40.097750" lon="-5.852083">
        <ele>2311.0</ele>
        <time>2015-06-06T15:54:35Z</time>
      </trkpt>
      <trkpt lat="40.097867" lon="-5.852350">
        <ele>2318.0</ele>
        <time>2015-06-06T15:54:37Z</time>
      </trkpt>
      <trkpt lat="40.098017" lon="-5.852550">
        <ele>2322.0</ele>
        <time>2015-06-06T15:54:39Z</time>
      </trkpt>
      <trkpt lat="40.098217" lon="-5.852667">
        <ele>2324.0</ele>
        <time>2015-06-06T15:54:41Z</time>
      </trkpt>
      <trkpt lat="40.098433" lon="-5.852667">
        <ele>2325.0</ele>
        <time>2015-06-06T15:54:43Z</time>
      </trkpt>
      <trkpt lat="40.098567" lon="-5.852567">
        <ele>2328.0</ele>
        <time>2015-06-06T15:54:45Z</time>
      </trkpt>
      <trkpt lat="40.098617" lon="-5.852417">
        <ele>2331.0</ele>
        <time>2015-06-06T15:54:47Z</time>
      </trkpt>
      <trkpt lat="40.098583" lon="-5.852283">
        <ele>2336.0</ele>
        <time>2015-06-06T15:54:49Z</time>
      </trkpt>
      <trkpt lat="40.098483" lon="-5.852267">
        <ele>2342.0</ele>
        <time>2015-06-06T15:54:51Z</time>
      </trkpt>
      <trkpt lat="40.098350" lon="-5.852383">
        <ele>2346.0</ele>
        <time>2015-06-06T15:54:53Z</time>
      </trkpt>
      <trkpt lat="40.098267" lon="-5.852633">
        <ele>2351.0</ele>
        <time>2015-06-06T15:54:55Z</time>
      </trkpt>
      <trkpt lat="40.098300" lon="-5.852950">
        <ele>2358.0</ele>
        <time>2015-06-06T15:54:57Z</time>
      </trkpt>
      <trkpt lat="40.098400" lon="-5.853200">
        <ele>2364.0</ele>
        <time>2015-06-06T15:54:59Z</time>
      </trkpt>
      <trkpt lat="40.098567" lon="-5.853417">
        <ele>2366.0</ele>
        <time>2015-06-06T15:55:01Z</time>
      </trkpt>
      <trkpt lat="40.098800" lon="-5.853517">
        <ele>2367.0</ele>
        <time>2015-06-06T15:55:03Z</time>
      </trkpt>
      <trkpt lat="40.098983" lon="-5.853450">
        <ele>2371.0</ele>
        <time>2015-06-06T15:55:05Z</time>
      </trkpt>
      <trkpt lat="40.099100" lon="-5.853333">
        <ele>2376.0</ele>
        <time>2015-06-06T15:55:07Z</time>
      </trkpt>
      <trkpt lat="40.099183" lon="-5.853200">
        <ele>2380.0</ele>
        <time>2015-06-06T15:55:09Z</time>
      </trkpt>
      <trkpt lat="40.099200" lon="-5.853050">
        <ele>2383.0</ele>
        <time>2015-06-06T15:55:11Z</time>
      </trkpt>
      <trkpt lat="40.099117" lon="-5.852933">
        <ele>2388.0</ele>
        <time>2015-06-06T15:55:13Z</time>
      </trkpt>
      <trkpt lat="40.098983" lon="-5.852983">
        <ele>2390.0</ele>
        <time>2015-06-06T15:55:15Z</time>
      </trkpt>
      <trkpt lat="40.098900" lon="-5.853183">
        <ele>2394.0</ele>
        <time>2015-06-06T15:55:17Z</time>
      </trkpt>
      <trkpt lat="40.098883" lon="-5.853400">
        <ele>2395.0</ele>
        <time>2015-06-06T15:55:19Z</time>
      </trkpt>
      <trkpt lat="40.098867" lon="-5.853683">
        <ele>2397.0</ele>
        <time>2015-06-06T15:55:21Z</time>
      </trkpt>
      <trkpt lat="40.098900" lon="-5.853967">
        <ele>2404.0</ele>
        <time>2015-06-06T15:55:23Z</time>
      </trkpt>
      <trkpt lat="40.099033" lon="-5.854183">
        <ele>2408.0</ele>
        <time>2015-06-06T15:55:25Z</time>
      </trkpt>
      <trkpt lat="40.099233" lon="-5.854317">
        <ele>2411.0</ele>
        <time>2015-06-06T15:55:27Z</time>
      </trkpt>
      <trkpt lat="40.099450" lon="-5.854317">
        <ele>2415.0</ele>
        <time>2015-06-06T15:55:29Z</time>
      </trkpt>
      <trkpt lat="40.099617" lon="-5.854233">
        <ele>2420.0</ele>
        <time>2015-06-06T15:55:31Z</time>
      </trkpt>
      <trkpt lat="40.099717" lon="-5.854083">
        <ele>2426.0</ele>
        <time>2015-06-06T15:55:33Z</time>
      </trkpt>
      <trkpt lat="40.099717" lon="-5.853967">
        <ele>2431.0</ele>
        <time>2015-06-06T15:55:35Z</time>
      </trkpt>
      <trkpt lat="40.099650" lon="-5.853917">
        <ele>2436.0</ele>
        <time>2015-06-06T15:55:37Z</time>
      </trkpt>
      <trkpt lat="40.099567" lon="-5.853967">
        <ele>2437.0</ele>
        <time>2015-06-06T15:55:39Z</time>
      </trkpt>
      <trkpt lat="40.099483" lon="-5.854150">
        <ele>2439.0</ele>
        <time>2015-06-06T15:55:41Z</time>
      </trkpt>
      <trkpt lat="40.099450" lon="-5.854400">
        <ele>2442.0</ele>
        <time>2015-06-06T15:55:43Z</time>
      </trkpt>
      <trkpt lat="40.099450" lon="-5.854650">
        <ele>2443.0</ele>
        <time>2015-06-06T15:55:45Z</time>
      </trkpt>
      <trkpt lat="40.099500" lon="-5.854950">
        <ele>2446.0</ele>
        <time>2015-06-06T15:55:47Z</time>
      </trkpt>
      <trkpt lat="40.099600" lon="-5.855217">
        <ele>2451.0</ele>
        <time>2015-06-06T15:55:49Z</time>
      </trkpt>
      <trkpt lat="40.099733" lon="-5.855433">
        <ele>2459.0</ele>
        <time>2015-06-06T15:55:51Z</time>
      </trkpt>
      <trkpt lat="40.099900" lon="-5.855617">
        <ele>2464.0</ele>
        <time>2015-06-06T15:55:53Z</time>
      </trkpt>
      <trkpt lat="40.100117" lon="-5.855800">
        <ele>2471.0</ele>
        <time>2015-06-06T15:55:55Z</time>
      </trkpt>
      <trkpt lat="40.100317" lon="-5.855817">
        <ele>2476.0</ele>
        <time>2015-06-06T15:55:57Z</time>
      </trkpt>
      <trkpt lat="40.100483" lon="-5.855700">
        <ele>2481.0</ele>
        <time>2015-06-06T15:55:59Z</time>
      </trkpt>
      <trkpt lat="40.100550" lon="-5.855583">
        <ele>2490.0</ele>
        <time>2015-06-06T15:56:01Z</time>
      </trkpt>
      <trkpt lat="40.100500" lon="-5.855467">
        <ele>2492.0</ele>
        <time>2015-06-06T15:56:03Z</time>
      </trkpt>
      <trkpt lat="40.100383" lon="-5.855450">
        <ele>2496.0</ele>
        <time>2015-06-06T15:56:05Z</time>
      </trkpt>
      <trkpt lat="40.100250" lon="-5.855633">
        <ele>2501.0</ele>
        <time>2015-06-06T15:56:07Z</time>
      </trkpt>
      <trkpt lat="40.100183" lon="-5.855883">
        <ele>2506.0</ele>
        <time>2015-06-06T15:56:09Z</time>
      </trkpt>
      <trkpt lat="40.100150" lon="-5.856167">
        <ele>2510.0</ele>
        <time>2015-06-06T15:56:11Z</time>
      </trkpt>
      <trkpt lat="40.100183" lon="-5.856517">
        <ele>2517.0</ele>
        <time>2015-06-06T15:56:13Z</time>
      </trkpt>
      <trkpt lat="40.100283" lon="-5.856817">
        <ele>2527.0</ele>
        <time>2015-06-06T15:56:15Z</time>
      </trkpt>
      <trkpt lat="40.100400" lon="-5.857033">
        <ele>2535.0</ele>
        <time>2015-06-06T15:56:17Z</time>
      </trkpt>
      <trkpt lat="40.100550" lon="-5.857250">
        <ele>2537.0</ele>
        <time>2015-06-06T15:56:19Z</time>
      </trkpt>
      <trkpt lat="40.100800" lon="-5.857350">
        <ele>2542.0</ele>
        <time>2015-06-06T15:56:21Z</time>
      </trkpt>
      <trkpt lat="40.100983" lon="-5.857333">
        <ele>2550.0</ele>
        <time>2015-06-06T15:56:23Z</time>
      </trkpt>
      <trkpt lat="40.101083" lon="-5.857233">
        <ele>2557.0</ele>
        <time>2015-06-06T15:56:25Z</time>
      </trkpt>
      <trkpt lat="40.101100" lon="-5.857117">
        <ele>2562.0</ele>
        <time>2015-06-06T15:56:27Z</time>
      </trkpt>
      <trkpt lat="40.101000" lon="-5.857083">
        <ele>2566.0</ele>
        <time>2015-06-06T15:56:29Z</time>
      </trkpt>
      <trkpt lat="40.100883" lon="-5.857200">
        <ele>2573.0</ele>
        <time>2015-06-06T15:56:31Z</time>
      </trkpt>
      <trkpt lat="40.100800" lon="-5.857433">
        <ele>2580.0</ele>
        <time>2015-06-06T15:56:33Z</time>
      </trkpt>
      <trkpt lat="40.100800" lon="-5.857717">
        <ele>2586.0</ele>
        <time>2015-06-06T15:56:35Z</time>
      </trkpt>
      <trkpt lat="40.100867" lon="-5.858033">
        <ele>2592.0</ele>
        <time>2015-06-06T15:56:37Z</time>
      </trkpt>
      <trkpt lat="40.101017" lon="-5.858300">
        <ele>2598.0</ele>
        <time>2015-06-06T15:56:39Z</time>
      </trkpt>
      <trkpt lat="40.101217" lon="-5.858467">
        <ele>2603.0</ele>
        <time>2015-06-06T15:56:41Z</time>
      </trkpt>
      <trkpt lat="40.101417" lon="-5.858517">
        <ele>2608.0</ele>
        <time>2015-06-06T15:56:43Z</time>
      </trkpt>
      <trkpt lat="40.101583" lon="-5.858450">
        <ele>2612.0</ele>
        <time>2015-06-06T15:56:45Z</time>
      </trkpt>
      <trkpt lat="40.101650" lon="-5.858317">
        <ele>2617.0</ele>
        <time>2015-06-06T15:56:47Z</time>
      </trkpt>
      <trkpt lat="40.101617" lon="-5.858217">
        <ele>2622.0</ele>
        <time>2015-06-06T15:56:49Z</time>
      </trkpt>
      <trkpt lat="40.101517" lon="-5.858200">
        <ele>2627.0</ele>
        <time>2015-06-06T15:56:51Z</time>
      </trkpt>
      <trkpt lat="40.101400" lon="-5.858267">
        <ele>2632.0</ele>
        <time>2015-06-06T15:56:53Z</time>
      </trkpt>
      <trkpt lat="40.101300" lon="-5.858517">
        <ele>2635.0</ele>
        <time>2015-06-06T15:56:55Z</time>
      </trkpt>
      <trkpt lat="40.101283" lon="-5.858833">
        <ele>2643.0</ele>
        <time>2015-06-06T15:56:57Z</time>
      </trkpt>
      <trkpt lat="40.101333" lon="-5.859133">
        <ele>2649.0</ele>
        <time>2015-06-06T15:56:59Z</time>
      </trkpt>
      <trkpt lat="40.101433" lon="-5.859433">
        <ele>2653.0</ele>
        <time>2015-06-06T15:57:01Z</time>
      </trkpt>
      <trkpt lat="40.101633" lon="-5.859650">
        <ele>2656.0</ele>
        <time>2015-06-06T15:57:03Z</time>
      </trkpt>
      <trkpt lat="40.101850" lon="-5.859717">
        <ele>2659.0</ele>
        <time>2015-06-06T15:57:05Z</time>
      </trkpt>
      <trkpt lat="40.102017" lon="-5.859683">
        <ele>2664.0</ele>
        <time>2015-06-06T15:57:07Z</time>
      </trkpt>
      <trkpt lat="40.102100" lon="-5.859583">
        <ele>2669.0</ele>
        <time>2015-06-06T15:57:09Z</time>
      </trkpt>
      <trkpt lat="40.102100" lon="-5.859467">
        <ele>2672.0</ele>
        <time>2015-06-06T15:57:11Z</time>
      </trkpt>
      <trkpt lat="40.102017" lon="-5.859400">
        <ele>2675.0</ele>
        <time>2015-06-06T15:57:13Z</time>
      </trkpt>
      <trkpt lat="40.101867" lon="-5.859500">
        <ele>2680.0</ele>
        <time>2015-06-06T15:57:15Z</time>
      </trkpt>
      <trkpt lat="40.101767" lon="-5.859717">
        <ele>2685.0</ele>
        <time>2015-06-06T15:57:17Z</time>
      </trkpt>
      <trkpt lat="40.101700" lon="-5.859967">
        <ele>2691.0</ele>
        <time>2015-06-06T15:57:19Z</time>
      </trkpt>
      <trkpt lat="40.101700" lon="-5.860267">
        <ele>2694.0</ele>
        <time>2015-06-06T15:57:21Z</time>
      </trkpt>
      <trkpt lat="40.101800" lon="-5.860583">
        <ele>2696.0</ele>
        <time>2015-06-06T15:57:23Z</time>
      </trkpt>
      <trkpt lat="40.101967" lon="-5.860833">
        <ele>2699.0</ele>
        <time>2015-06-06T15:57:25Z</time>
      </trkpt>
      <trkpt lat="40.102183" lon="-5.860950">
        <ele>2702.0</ele>
        <time>2015-06-06T15:57:27Z</time>
      </trkpt>
      <trkpt lat="40.102383" lon="-5.860983">
        <ele>2707.0</ele>
        <time>2015-06-06T15:57:29Z</time>
      </trkpt>
      <trkpt lat="40.102517" lon="-5.860900">
        <ele>2713.0</ele>
        <time>2015-06-06T15:57:31Z</time>
      </trkpt>
      <trkpt lat="40.102567" lon="-5.860783">
        <ele>2717.0</ele>
        <time>2015-06-06T15:57:33Z</time>
      </trkpt>
      <trkpt lat="40.102500" lon="-5.860683">
        <ele>2720.0</ele>
        <time>2015-06-06T15:57:35Z</time>
      </trkpt>
      <trkpt lat="40.102367" lon="-5.860683">
        <ele>2723.0</ele>
        <time>2015-06-06T15:57:37Z</time>
      </trkpt>
      <trkpt lat="40.102233" lon="-5.860800">
        <ele>2729.0</ele>
        <time>2015-06-06T15:57:39Z</time>
      </trkpt>
      <trkpt lat="40.102133" lon="-5.861017">
        <ele>2733.0</ele>
        <time>2015-06-06T15:57:41Z</time>
      </trkpt>
      <trkpt lat="40.102083" lon="-5.861317">
        <ele>2735.0</ele>
        <time>2015-06-06T15:57:43Z</time>
      </trkpt>
      <trkpt lat="40.102117" lon="-5.861650">
        <ele>2739.0</ele>
        <time>2015-06-06T15:57:45Z</time>
      </trkpt>
      <trkpt lat="40.102250" lon="-5.861917">
        <ele>2741.0</ele>
        <time>2015-06-06T15:57:47Z</time>
      </trkpt>
      <trkpt lat="40.102433" lon="-5.862117">
        <ele>2743.0</ele>
        <time>2015-06-06T15:57:49Z</time>
      </trkpt>
      <trkpt lat="40.102650" lon="-5.862233">
        <ele>2745.0</ele>
        <time>2015-06-06T15:57:51Z</time>
      </trkpt>
      <trkpt lat="40.102817" lon="-5.862267">
        <ele>2750.0</ele>
        <time>2015-06-06T15:57:53Z</time>
      </trkpt>
      <trkpt lat="40.102967" lon="-5.862267">
        <ele>2755.0</ele>
        <time>2015-06-06T15:57:55Z</time>
      </trkpt>
      <trkpt lat="40.103067" lon="-5.862167">
        <ele>2758.0</ele>
        <time>2015-06-06T15:57:57Z</time>
      </trkpt>
      <trkpt lat="40.103067" lon="-5.862033">
        <ele>2762.0</ele>
        <time>2015-06-06T15:57:59Z</time>
      </trkpt>
      <trkpt lat="40.102983" lon="-5.861967">
        <ele>2765.0</ele>
        <time>2015-06-06T15:58:01Z</time>
      </trkpt>
      <trkpt lat="40.102850" lon="-5.862033">
        <ele>2769.0</ele>
        <time>2015-06-06T15:58:03Z</time>
      </trkpt>
      <trkpt lat="40.102733" lon="-5.862200">
        <ele>2773.0</ele>
        <time>2015-06-06T15:58:05Z</time>
      </trkpt>
      <trkpt lat="40.102667" lon="-5.862450">
        <ele>2777.0</ele>
        <time>2015-06-06T15:58:07Z</time>
      </trkpt>
      <trkpt lat="40.102650" lon="-5.862767">
        <ele>2780.0</ele>
        <time>2015-06-06T15:58:09Z</time>
      </trkpt>
      <trkpt lat="40.102717" lon="-5.863083">
        <ele>2784.0</ele>
        <time>2015-06-06T15:58:11Z</time>
      </trkpt>
      <trkpt lat="40.102850" lon="-5.863367">
        <ele>2786.0</ele>
        <time>2015-06-06T15:58:13Z</time>
      </trkpt>
      <trkpt lat="40.103033" lon="-5.863583">
        <ele>2788.0</ele>
        <time>2015-06-06T15:58:15Z</time>
      </trkpt>
      <trkpt lat="40.103250" lon="-5.863650">
        <ele>2792.0</ele>
        <time>2015-06-06T15:58:17Z</time>
      </trkpt>
      <trkpt lat="40.103383" lon="-5.863633">
        <ele>2796.0</ele>
        <time>2015-06-06T15:58:19Z</time>
      </trkpt>
      <trkpt lat="40.103450" lon="-5.863550">
        <ele>2798.0</ele>
        <time>2015-06-06T15:58:21Z</time>
      </trkpt>
      <trkpt lat="40.103400" lon="-5.863433">
        <ele>2800.0</ele>
        <time>2015-06-06T15:58:23Z</time>
      </trkpt>
      <trkpt lat="40.103267" lon="-5.863450">
        <ele>2805.0</ele>
        <time>2015-06-06T15:58:25Z</time>
      </trkpt>
      <trkpt lat="40.103133" lon="-5.863617">
        <ele>2810.0</ele>
        <time>2015-06-06T15:58:27Z</time>
      </trkpt>
      <trkpt lat="40.103033" lon="-5.863850">
        <ele>2815.0</ele>
        <time>2015-06-06T15:58:29Z</time>
      </trkpt>
      <trkpt lat="40.103000" lon="-5.864167">
        <ele>2817.0</ele>
        <time>2015-06-06T15:58:31Z</time>
      </trkpt>
      <trkpt lat="40.103050" lon="-5.864517">
        <ele>2819.0</ele>
        <time>2015-06-06T15:58:33Z</time>
      </trkpt>
      <trkpt lat="40.103200" lon="-5.864800">
        <ele>2821.0</ele>
        <time>2015-06-06T15:58:35Z</time>
      </trkpt>
      <trkpt lat="40.103367" lon="-5.865000">
        <ele>2824.0</ele>
        <time>2015-06-06T15:58:37Z</time>
      </trkpt>
      <trkpt lat="40.103567" lon="-5.865117">
        <ele>2827.0</ele>
        <time>2015-06-06T15:58:39Z</time>
      </trkpt>
      <trkpt lat="40.103733" lon="-5.865150">
        <ele>2827.0</ele>
        <time>2015-06-06T15:58:41Z</time>
      </trkpt>
      <trkpt lat="40.103817" lon="-5.865033">
        <ele>2827.0</ele>
        <time>2015-06-06T15:58:43Z</time>
      </trkpt>
      <trkpt lat="40.103817" lon="-5.864917">
        <ele>2830.0</ele>
        <time>2015-06-06T15:58:45Z</time>
      </trkpt>
      <trkpt lat="40.103717" lon="-5.864883">
        <ele>2835.0</ele>
        <time>2015-06-06T15:58:47Z</time>
      </trkpt>
      <trkpt lat="40.103583" lon="-5.864950">
        <ele>2839.0</ele>
        <time>2015-06-06T15:58:49Z</time>
      </trkpt>
      <trkpt lat="40.103450" lon="-5.865150">
        <ele>2841.0</ele>
        <time>2015-06-06T15:58:51Z</time>
      </trkpt>
      <trkpt lat="40.103350" lon="-5.865433">
        <ele>2844.0</ele>
        <time>2015-06-06T15:58:53Z</time>
      </trkpt>
      <trkpt lat="40.103317" lon="-5.865750">
        <ele>2847.0</ele>
        <time>2015-06-06T15:58:55Z</time>
      </trkpt>
      <trkpt lat="40.103333" lon="-5.866083">
        <ele>2847.0</ele>
        <time>2015-06-06T15:58:57Z</time>
      </trkpt>
      <trkpt lat="40.103367" lon="-5.866450">
        <ele>2847.0</ele>
        <time>2015-06-06T15:58:59Z</time>
      </trkpt>
      <trkpt lat="40.103350" lon="-5.866800">
        <ele>2849.0</ele>
        <time>2015-06-06T15:59:01Z</time>
      </trkpt>
      <trkpt lat="40.103350" lon="-5.867100">
        <ele>2850.0</ele>
        <time>2015-06-06T15:59:03Z</time>
      </trkpt>
      <trkpt lat="40.103367" lon="-5.867417">
        <ele>2846.0</ele>
        <time>2015-06-06T15:59:05Z</time>
      </trkpt>
      <trkpt lat="40.103367" lon="-5.867800">
        <ele>2842.0</ele>
        <time>2015-06-06T15:59:07Z</time>
      </trkpt>
      <trkpt lat="40.103350" lon="-5.868150">
        <ele>2839.0</ele>
        <time>2015-06-06T15:59:09Z</time>
      </trkpt>
      <trkpt lat="40.103250" lon="-5.868983">
        <ele>2832.0</ele>
        <time>2015-06-06T15:59:14Z</time>
      </trkpt>
      <trkpt lat="40.103217" lon="-5.869333">
        <ele>2835.0</ele>
        <time>2015-06-06T15:59:16Z</time>
      </trkpt>
      <trkpt lat="40.103183" lon="-5.869667">
        <ele>2837.0</ele>
        <time>2015-06-06T15:59:18Z</time>
      </trkpt>
      <trkpt lat="40.103133" lon="-5.870017">
        <ele>2836.0</ele>
        <time>2015-06-06T15:59:20Z</time>
      </trkpt>
      <trkpt lat="40.102933" lon="-5.871617">
        <ele>2833.0</ele>
        <time>2015-06-06T15:59:29Z</time>
      </trkpt>
      <trkpt lat="40.102883" lon="-5.872033">
        <ele>2828.0</ele>
        <time>2015-06-06T15:59:31Z</time>
      </trkpt>
      <trkpt lat="40.102833" lon="-5.872400">
        <ele>2824.0</ele>
        <time>2015-06-06T15:59:33Z</time>
      </trkpt>
      <trkpt lat="40.102800" lon="-5.872783">
        <ele>2822.0</ele>
        <time>2015-06-06T15:59:35Z</time>
      </trkpt>
      <trkpt lat="40.102767" lon="-5.873117">
        <ele>2820.0</ele>
        <time>2015-06-06T15:59:37Z</time>
      </trkpt>
      <trkpt lat="40.102717" lon="-5.873450">
        <ele>2814.0</ele>
        <time>2015-06-06T15:59:39Z</time>
      </trkpt>
      <trkpt lat="40.102667" lon="-5.873817">
        <ele>2809.0</ele>
        <time>2015-06-06T15:59:41Z</time>
      </trkpt>
      <trkpt lat="40.102600" lon="-5.874150">
        <ele>2806.0</ele>
        <time>2015-06-06T15:59:43Z</time>
      </trkpt>
      <trkpt lat="40.102500" lon="-5.874467">
        <ele>2798.0</ele>
        <time>2015-06-06T15:59:45Z</time>
      </trkpt>
      <trkpt lat="40.102417" lon="-5.874817">
        <ele>2790.0</ele>
        <time>2015-06-06T15:59:47Z</time>
      </trkpt>
      <trkpt lat="40.102317" lon="-5.875167">
        <ele>2782.0</ele>
        <time>2015-06-06T15:59:49Z</time>
      </trkpt>
      <trkpt lat="40.102200" lon="-5.875467">
        <ele>2774.0</ele>
        <time>2015-06-06T15:59:51Z</time>
      </trkpt>
      <trkpt lat="40.102100" lon="-5.875767">
        <ele>2767.0</ele>
        <time>2015-06-06T15:59:53Z</time>
      </trkpt>
      <trkpt lat="40.102017" lon="-5.876117">
        <ele>2775.0</ele>
        <time>2015-06-06T15:59:55Z</time>
      </trkpt>
      <trkpt lat="40.101933" lon="-5.876400">
        <ele>2777.0</ele>
        <time>2015-06-06T15:59:57Z</time>
      </trkpt>
      <trkpt lat="40.101867" lon="-5.876717">
        <ele>2776.0</ele>
        <time>2015-06-06T15:59:59Z</time>
      </trkpt>
      <trkpt lat="40.101783" lon="-5.877017">
        <ele>2774.0</ele>
        <time>2015-06-06T16:00:01Z</time>
      </trkpt>
      <trkpt lat="40.101683" lon="-5.877317">
        <ele>2772.0</ele>
        <time>2015-06-06T16:00:03Z</time>
      </trkpt>
      <trkpt lat="40.101583" lon="-5.877650">
        <ele>2771.0</ele>
        <time>2015-06-06T16:00:05Z</time>
      </trkpt>
      <trkpt lat="40.101500" lon="-5.877950">
        <ele>2771.0</ele>
        <time>2015-06-06T16:00:07Z</time>
      </trkpt>
      <trkpt lat="40.100967" lon="-5.879650">
        <ele>2768.0</ele>
        <time>2015-06-06T16:00:18Z</time>
      </trkpt>
      <trkpt lat="40.100967" lon="-5.880050">
        <ele>2771.0</ele>
        <time>2015-06-06T16:00:20Z</time>
      </trkpt>
      <trkpt lat="40.100900" lon="-5.880400">
        <ele>2769.0</ele>
        <time>2015-06-06T16:00:22Z</time>
      </trkpt>
      <trkpt lat="40.100817" lon="-5.880767">
        <ele>2770.0</ele>
        <time>2015-06-06T16:00:24Z</time>
      </trkpt>
      <trkpt lat="40.100733" lon="-5.881117">
        <ele>2772.0</ele>
        <time>2015-06-06T16:00:26Z</time>
      </trkpt>
      <trkpt lat="40.100650" lon="-5.881433">
        <ele>2773.0</ele>
        <time>2015-06-06T16:00:28Z</time>
      </trkpt>
      <trkpt lat="40.100550" lon="-5.881750">
        <ele>2770.0</ele>
        <time>2015-06-06T16:00:30Z</time>
      </trkpt>
      <trkpt lat="40.100433" lon="-5.882100">
        <ele>2766.0</ele>
        <time>2015-06-06T16:00:32Z</time>
      </trkpt>
      <trkpt lat="40.100333" lon="-5.882450">
        <ele>2764.0</ele>
        <time>2015-06-06T16:00:34Z</time>
      </trkpt>
      <trkpt lat="40.100250" lon="-5.882783">
        <ele>2760.0</ele>
        <time>2015-06-06T16:00:36Z</time>
      </trkpt>
      <trkpt lat="40.100150" lon="-5.883150">
        <ele>2754.0</ele>
        <time>2015-06-06T16:00:38Z</time>
      </trkpt>
      <trkpt lat="40.100033" lon="-5.883517">
        <ele>2751.0</ele>
        <time>2015-06-06T16:00:40Z</time>
      </trkpt>
      <trkpt lat="40.099967" lon="-5.883867">
        <ele>2747.0</ele>
        <time>2015-06-06T16:00:42Z</time>
      </trkpt>
      <trkpt lat="40.099867" lon="-5.884233">
        <ele>2740.0</ele>
        <time>2015-06-06T16:00:44Z</time>
      </trkpt>
      <trkpt lat="40.099767" lon="-5.884617">
        <ele>2734.0</ele>
        <time>2015-06-06T16:00:46Z</time>
      </trkpt>
      <trkpt lat="40.099683" lon="-5.885000">
        <ele>2730.0</ele>
        <time>2015-06-06T16:00:48Z</time>
      </trkpt>
      <trkpt lat="40.099583" lon="-5.885367">
        <ele>2725.0</ele>
        <time>2015-06-06T16:00:50Z</time>
      </trkpt>
      <trkpt lat="40.099483" lon="-5.885750">
        <ele>2719.0</ele>
        <time>2015-06-06T16:00:52Z</time>
      </trkpt>
      <trkpt lat="40.099367" lon="-5.886117">
        <ele>2713.0</ele>
        <time>2015-06-06T16:00:54Z</time>
      </trkpt>
      <trkpt lat="40.099250" lon="-5.886467">
        <ele>2707.0</ele>
        <time>2015-06-06T16:00:56Z</time>
      </trkpt>
      <trkpt lat="40.099167" lon="-5.886833">
        <ele>2699.0</ele>
        <time>2015-06-06T16:00:58Z</time>
      </trkpt>
      <trkpt lat="40.099083" lon="-5.887200">
        <ele>2693.0</ele>
        <time>2015-06-06T16:01:00Z</time>
      </trkpt>
      <trkpt lat="40.099000" lon="-5.887550">
        <ele>2688.0</ele>
        <time>2015-06-06T16:01:02Z</time>
      </trkpt>
      <trkpt lat="40.098917" lon="-5.887933">
        <ele>2682.0</ele>
        <time>2015-06-06T16:01:04Z</time>
      </trkpt>
      <trkpt lat="40.098867" lon="-5.888317">
        <ele>2677.0</ele>
        <time>2015-06-06T16:01:06Z</time>
      </trkpt>
      <trkpt lat="40.098800" lon="-5.888667">
        <ele>2674.0</ele>
        <time>2015-06-06T16:01:08Z</time>
      </trkpt>
      <trkpt lat="40.098700" lon="-5.889017">
        <ele>2669.0</ele>
        <time>2015-06-06T16:01:10Z</time>
      </trkpt>
      <trkpt lat="40.098583" lon="-5.889383">
        <ele>2664.0</ele>
        <time>2015-06-06T16:01:12Z</time>
      </trkpt>
      <trkpt lat="40.098550" lon="-5.889783">
        <ele>2659.0</ele>
        <time>2015-06-06T16:01:14Z</time>
      </trkpt>
      <trkpt lat="40.098500" lon="-5.890183">
        <ele>2656.0</ele>
        <time>2015-06-06T16:01:16Z</time>
      </trkpt>
      <trkpt lat="40.098450" lon="-5.890550">
        <ele>2654.0</ele>
        <time>2015-06-06T16:01:18Z</time>
      </trkpt>
      <trkpt lat="40.098383" lon="-5.890883">
        <ele>2650.0</ele>
        <time>2015-06-06T16:01:20Z</time>
      </trkpt>
      <trkpt lat="40.098300" lon="-5.891250">
        <ele>2644.0</ele>
        <time>2015-06-06T16:01:22Z</time>
      </trkpt>
      <trkpt lat="40.098217" lon="-5.891600">
        <ele>2642.0</ele>
        <time>2015-06-06T16:01:24Z</time>
      </trkpt>
      <trkpt lat="40.098133" lon="-5.891917">
        <ele>2640.0</ele>
        <time>2015-06-06T16:01:26Z</time>
      </trkpt>
      <trkpt lat="40.098033" lon="-5.892250">
        <ele>2635.0</ele>
        <time>2015-06-06T16:01:28Z</time>
      </trkpt>
      <trkpt lat="40.097950" lon="-5.892600">
        <ele>2631.0</ele>
        <time>2015-06-06T16:01:30Z</time>
      </trkpt>
      <trkpt lat="40.097850" lon="-5.892933">
        <ele>2627.0</ele>
        <time>2015-06-06T16:01:32Z</time>
      </trkpt>
      <trkpt lat="40.097767" lon="-5.893283">
        <ele>2621.0</ele>
        <time>2015-06-06T16:01:34Z</time>
      </trkpt>
      <trkpt lat="40.097667" lon="-5.893667">
        <ele>2615.0</ele>
        <time>2015-06-06T16:01:36Z</time>
      </trkpt>
      <trkpt lat="40.097567" lon="-5.894033">
        <ele>2612.0</ele>
        <time>2015-06-06T16:01:38Z</time>
      </trkpt>
      <trkpt lat="40.097450" lon="-5.894367">
        <ele>2610.0</ele>
        <time>2015-06-06T16:01:40Z</time>
      </trkpt>
      <trkpt lat="40.097333" lon="-5.894717">
        <ele>2604.0</ele>
        <time>2015-06-06T16:01:42Z</time>
      </trkpt>
      <trkpt lat="40.097183" lon="-5.895083">
        <ele>2600.0</ele>
        <time>2015-06-06T16:01:44Z</time>
      </trkpt>
      <trkpt lat="40.097050" lon="-5.895433">
        <ele>2596.0</ele>
        <time>2015-06-06T16:01:46Z</time>
      </trkpt>
      <trkpt lat="40.096900" lon="-5.895783">
        <ele>2592.0</ele>
        <time>2015-06-06T16:01:48Z</time>
      </trkpt>
      <trkpt lat="40.096783" lon="-5.896150">
        <ele>2591.0</ele>
        <time>2015-06-06T16:01:50Z</time>
      </trkpt>
      <trkpt lat="40.096700" lon="-5.896483">
        <ele>2590.0</ele>
        <time>2015-06-06T16:01:52Z</time>
      </trkpt>
      <trkpt lat="40.096633" lon="-5.896850">
        <ele>2585.0</ele>
        <time>2015-06-06T16:01:54Z</time>
      </trkpt>
      <trkpt lat="40.096550" lon="-5.897250">
        <ele>2582.0</ele>
        <time>2015-06-06T16:01:56Z</time>
      </trkpt>
      <trkpt lat="40.096467" lon="-5.897600">
        <ele>2581.0</ele>
        <time>2015-06-06T16:01:58Z</time>
      </trkpt>
      <trkpt lat="40.096400" lon="-5.897950">
        <ele>2578.0</ele>
        <time>2015-06-06T16:02:00Z</time>
      </trkpt>
      <trkpt lat="40.096283" lon="-5.898317">
        <ele>2575.0</ele>
        <time>2015-06-06T16:02:02Z</time>
      </trkpt>
      <trkpt lat="40.096183" lon="-5.898667">
        <ele>2574.0</ele>
        <time>2015-06-06T16:02:04Z</time>
      </trkpt>
      <trkpt lat="40.096083" lon="-5.899000">
        <ele>2572.0</ele>
        <time>2015-06-06T16:02:06Z</time>
      </trkpt>
      <trkpt lat="40.095967" lon="-5.899350">
        <ele>2567.0</ele>
        <time>2015-06-06T16:02:08Z</time>
      </trkpt>
      <trkpt lat="40.095867" lon="-5.899733">
        <ele>2563.0</ele>
        <time>2015-06-06T16:02:10Z</time>
      </trkpt>
      <trkpt lat="40.095783" lon="-5.900083">
        <ele>2561.0</ele>
        <time>2015-06-06T16:02:12Z</time>
      </trkpt>
      <trkpt lat="40.095683" lon="-5.900450">
        <ele>2557.0</ele>
        <time>2015-06-06T16:02:14Z</time>
      </trkpt>
      <trkpt lat="40.095583" lon="-5.900833">
        <ele>2555.0</ele>
        <time>2015-06-06T16:02:16Z</time>
      </trkpt>
      <trkpt lat="40.095500" lon="-5.901167">
        <ele>2555.0</ele>
        <time>2015-06-06T16:02:18Z</time>
      </trkpt>
      <trkpt lat="40.095417" lon="-5.901517">
        <ele>2553.0</ele>
        <time>2015-06-06T16:02:20Z</time>
      </trkpt>
      <trkpt lat="40.095333" lon="-5.901883">
        <ele>2550.0</ele>
        <time>2015-06-06T16:02:22Z</time>
      </trkpt>
      <trkpt lat="40.095250" lon="-5.902250">
        <ele>2550.0</ele>
        <time>2015-06-06T16:02:24Z</time>
      </trkpt>
      <trkpt lat="40.095167" lon="-5.902583">
        <ele>2549.0</ele>
        <time>2015-06-06T16:02:26Z</time>
      </trkpt>
      <trkpt lat="40.095067" lon="-5.902933">
        <ele>2546.0</ele>
        <time>2015-06-06T16:02:28Z</time>
      </trkpt>
      <trkpt lat="40.094950" lon="-5.903300">
        <ele>2543.0</ele>
        <time>2015-06-06T16:02:30Z</time>
      </trkpt>
      <trkpt lat="40.094900" lon="-5.903667">
        <ele>2543.0</ele>
        <time>2015-06-06T16:02:32Z</time>
      </trkpt>
      <trkpt lat="40.094883" lon="-5.904017">
        <ele>2541.0</ele>
        <time>2015-06-06T16:02:34Z</time>
      </trkpt>
      <trkpt lat="40.094850" lon="-5.904417">
        <ele>2536.0</ele>
        <time>2015-06-06T16:02:36Z</time>
      </trkpt>
      <trkpt lat="40.094767" lon="-5.904800">
        <ele>2534.0</ele>
        <time>2015-06-06T16:02:38Z</time>
      </trkpt>
      <trkpt lat="40.094700" lon="-5.905150">
        <ele>2533.0</ele>
        <time>2015-06-06T16:02:40Z</time>
      </trkpt>
      <trkpt lat="40.094617" lon="-5.905500">
        <ele>2531.0</ele>
        <time>2015-06-06T16:02:42Z</time>
      </trkpt>
      <trkpt lat="40.094517" lon="-5.905833">
        <ele>2529.0</ele>
        <time>2015-06-06T16:02:44Z</time>
      </trkpt>
      <trkpt lat="40.094417" lon="-5.906167">
        <ele>2528.0</ele>
        <time>2015-06-06T16:02:46Z</time>
      </trkpt>
      <trkpt lat="40.094333" lon="-5.906483">
        <ele>2526.0</ele>
        <time>2015-06-06T16:02:48Z</time>
      </trkpt>
      <trkpt lat="40.094267" lon="-5.906833">
        <ele>2523.0</ele>
        <time>2015-06-06T16:02:50Z</time>
      </trkpt>
      <trkpt lat="40.094183" lon="-5.907167">
        <ele>2520.0</ele>
        <time>2015-06-06T16:02:52Z</time>
      </trkpt>
      <trkpt lat="40.094133" lon="-5.907517">
        <ele>2520.0</ele>
        <time>2015-06-06T16:02:54Z</time>
      </trkpt>
      <trkpt lat="40.094150" lon="-5.907833">
        <ele>2521.0</ele>
        <time>2015-06-06T16:02:56Z</time>
      </trkpt>
      <trkpt lat="40.094233" lon="-5.908167">
        <ele>2519.0</ele>
        <time>2015-06-06T16:02:58Z</time>
      </trkpt>
      <trkpt lat="40.094383" lon="-5.908450">
        <ele>2517.0</ele>
        <time>2015-06-06T16:03:00Z</time>
      </trkpt>
      <trkpt lat="40.094500" lon="-5.908767">
        <ele>2515.0</ele>
        <time>2015-06-06T16:03:02Z</time>
      </trkpt>
      <trkpt lat="40.094550" lon="-5.909117">
        <ele>2512.0</ele>
        <time>2015-06-06T16:03:04Z</time>
      </trkpt>
      <trkpt lat="40.094550" lon="-5.909467">
        <ele>2510.0</ele>
        <time>2015-06-06T16:03:06Z</time>
      </trkpt>
      <trkpt lat="40.094550" lon="-5.909783">
        <ele>2509.0</ele>
        <time>2015-06-06T16:03:08Z</time>
      </trkpt>
      <trkpt lat="40.094500" lon="-5.910117">
        <ele>2506.0</ele>
        <time>2015-06-06T16:03:10Z</time>
      </trkpt>
      <trkpt lat="40.094450" lon="-5.910467">
        <ele>2504.0</ele>
        <time>2015-06-06T16:03:12Z</time>
      </trkpt>
      <trkpt lat="40.094400" lon="-5.910783">
        <ele>2502.0</ele>
        <time>2015-06-06T16:03:14Z</time>
      </trkpt>
      <trkpt lat="40.094333" lon="-5.911117">
        <ele>2499.0</ele>
        <time>2015-06-06T16:03:16Z</time>
      </trkpt>
      <trkpt lat="40.094267" lon="-5.911433">
        <ele>2496.0</ele>
        <time>2015-06-06T16:03:18Z</time>
      </trkpt>
      <trkpt lat="40.094217" lon="-5.911750">
        <ele>2493.0</ele>
        <time>2015-06-06T16:03:20Z</time>
      </trkpt>
      <trkpt lat="40.094150" lon="-5.912067">
        <ele>2488.0</ele>
        <time>2015-06-06T16:03:22Z</time>
      </trkpt>
      <trkpt lat="40.094083" lon="-5.912383">
        <ele>2483.0</ele>
        <time>2015-06-06T16:03:24Z</time>
      </trkpt>
      <trkpt lat="40.094000" lon="-5.912700">
        <ele>2478.0</ele>
        <time>2015-06-06T16:03:26Z</time>
      </trkpt>
      <trkpt lat="40.093883" lon="-5.912967">
        <ele>2475.0</ele>
        <time>2015-06-06T16:03:28Z</time>
      </trkpt>
      <trkpt lat="40.093750" lon="-5.913200">
        <ele>2471.0</ele>
        <time>2015-06-06T16:03:30Z</time>
      </trkpt>
      <trkpt lat="40.093600" lon="-5.913467">
        <ele>2465.0</ele>
        <time>2015-06-06T16:03:32Z</time>
      </trkpt>
      <trkpt lat="40.093467" lon="-5.913717">
        <ele>2464.0</ele>
        <time>2015-06-06T16:03:34Z</time>
      </trkpt>
      <trkpt lat="40.093383" lon="-5.913983">
        <ele>2464.0</ele>
        <time>2015-06-06T16:03:36Z</time>
      </trkpt>
      <trkpt lat="40.093317" lon="-5.914267">
        <ele>2461.0</ele>
        <time>2015-06-06T16:03:38Z</time>
      </trkpt>
      <trkpt lat="40.093250" lon="-5.914583">
        <ele>2458.0</ele>
        <time>2015-06-06T16:03:40Z</time>
      </trkpt>
      <trkpt lat="40.093183" lon="-5.914900">
        <ele>2456.0</ele>
        <time>2015-06-06T16:03:42Z</time>
      </trkpt>
      <trkpt lat="40.093100" lon="-5.915183">
        <ele>2454.0</ele>
        <time>2015-06-06T16:03:44Z</time>
      </trkpt>
      <trkpt lat="40.093017" lon="-5.915467">
        <ele>2451.0</ele>
        <time>2015-06-06T16:03:46Z</time>
      </trkpt>
      <trkpt lat="40.092933" lon="-5.915767">
        <ele>2447.0</ele>
        <time>2015-06-06T16:03:48Z</time>
      </trkpt>
      <trkpt lat="40.092850" lon="-5.916067">
        <ele>2444.0</ele>
        <time>2015-06-06T16:03:50Z</time>
      </trkpt>
      <trkpt lat="40.092733" lon="-5.916333">
        <ele>2441.0</ele>
        <time>2015-06-06T16:03:52Z</time>
      </trkpt>
      <trkpt lat="40.092600" lon="-5.916583">
        <ele>2437.0</ele>
        <time>2015-06-06T16:03:54Z</time>
      </trkpt>
      <trkpt lat="40.092483" lon="-5.916883">
        <ele>2434.0</ele>
        <time>2015-06-06T16:03:56Z</time>
      </trkpt>
      <trkpt lat="40.092367" lon="-5.917167">
        <ele>2431.0</ele>
        <time>2015-06-06T16:03:58Z</time>
      </trkpt>
      <trkpt lat="40.092267" lon="-5.917450">
        <ele>2428.0</ele>
        <time>2015-06-06T16:04:00Z</time>
      </trkpt>
      <trkpt lat="40.092150" lon="-5.917750">
        <ele>2425.0</ele>
        <time>2015-06-06T16:04:02Z</time>
      </trkpt>
      <trkpt lat="40.092050" lon="-5.918050">
        <ele>2423.0</ele>
        <time>2015-06-06T16:04:04Z</time>
      </trkpt>
      <trkpt lat="40.091950" lon="-5.918333">
        <ele>2421.0</ele>
        <time>2015-06-06T16:04:06Z</time>
      </trkpt>
      <trkpt lat="40.091867" lon="-5.918633">
        <ele>2418.0</ele>
        <time>2015-06-06T16:04:08Z</time>
      </trkpt>
      <trkpt lat="40.091783" lon="-5.918950">
        <ele>2417.0</ele>
        <time>2015-06-06T16:04:10Z</time>
      </trkpt>
      <trkpt lat="40.091700" lon="-5.919233">
        <ele>2415.0</ele>
        <time>2015-06-06T16:04:12Z</time>
      </trkpt>
      <trkpt lat="40.091633" lon="-5.919533">
        <ele>2413.0</ele>
        <time>2015-06-06T16:04:14Z</time>
      </trkpt>
      <trkpt lat="40.091567" lon="-5.919850">
        <ele>2410.0</ele>
        <time>2015-06-06T16:04:16Z</time>
      </trkpt>
      <trkpt lat="40.091483" lon="-5.920167">
        <ele>2406.0</ele>
        <time>2015-06-06T16:04:18Z</time>
      </trkpt>
      <trkpt lat="40.091400" lon="-5.920467">
        <ele>2403.0</ele>
        <time>2015-06-06T16:04:20Z</time>
      </trkpt>
      <trkpt lat="40.091317" lon="-5.920783">
        <ele>2400.0</ele>
        <time>2015-06-06T16:04:22Z</time>
      </trkpt>
      <trkpt lat="40.091233" lon="-5.921083">
        <ele>2397.0</ele>
        <time>2015-06-06T16:04:24Z</time>
      </trkpt>
      <trkpt lat="40.091150" lon="-5.921383">
        <ele>2394.0</ele>
        <time>2015-06-06T16:04:26Z</time>
      </trkpt>
      <trkpt lat="40.091067" lon="-5.921700">
        <ele>2392.0</ele>
        <time>2015-06-06T16:04:28Z</time>
      </trkpt>
      <trkpt lat="40.091000" lon="-5.922000">
        <ele>2390.0</ele>
        <time>2015-06-06T16:04:30Z</time>
      </trkpt>
      <trkpt lat="40.090933" lon="-5.922300">
        <ele>2387.0</ele>
        <time>2015-06-06T16:04:32Z</time>
      </trkpt>
      <trkpt lat="40.090867" lon="-5.922633">
        <ele>2383.0</ele>
        <time>2015-06-06T16:04:34Z</time>
      </trkpt>
      <trkpt lat="40.090817" lon="-5.922950">
        <ele>2381.0</ele>
        <time>2015-06-06T16:04:36Z</time>
      </trkpt>
      <trkpt lat="40.090767" lon="-5.923267">
        <ele>2379.0</ele>
        <time>2015-06-06T16:04:38Z</time>
      </trkpt>
      <trkpt lat="40.090700" lon="-5.923583">
        <ele>2375.0</ele>
        <time>2015-06-06T16:04:40Z</time>
      </trkpt>
      <trkpt lat="40.090650" lon="-5.923917">
        <ele>2373.0</ele>
        <time>2015-06-06T16:04:42Z</time>
      </trkpt>
      <trkpt lat="40.090600" lon="-5.924217">
        <ele>2374.0</ele>
        <time>2015-06-06T16:04:44Z</time>
      </trkpt>
      <trkpt lat="40.090583" lon="-5.924500">
        <ele>2371.0</ele>
        <time>2015-06-06T16:04:46Z</time>
      </trkpt>
      <trkpt lat="40.090550" lon="-5.924833">
        <ele>2366.0</ele>
        <time>2015-06-06T16:04:48Z</time>
      </trkpt>
      <trkpt lat="40.090500" lon="-5.925183">
        <ele>2363.0</ele>
        <time>2015-06-06T16:04:50Z</time>
      </trkpt>
      <trkpt lat="40.090450" lon="-5.925483">
        <ele>2363.0</ele>
        <time>2015-06-06T16:04:52Z</time>
      </trkpt>
      <trkpt lat="40.090400" lon="-5.925783">
        <ele>2362.0</ele>
        <time>2015-06-06T16:04:54Z</time>
      </trkpt>
      <trkpt lat="40.090350" lon="-5.926100">
        <ele>2357.0</ele>
        <time>2015-06-06T16:04:56Z</time>
      </trkpt>
      <trkpt lat="40.090317" lon="-5.926417">
        <ele>2355.0</ele>
        <time>2015-06-06T16:04:58Z</time>
      </trkpt>
      <trkpt lat="40.090300" lon="-5.926700">
        <ele>2353.0</ele>
        <time>2015-06-06T16:05:00Z</time>
      </trkpt>
      <trkpt lat="40.090317" lon="-5.927033">
        <ele>2348.0</ele>
        <time>2015-06-06T16:05:02Z</time>
      </trkpt>
      <trkpt lat="40.090317" lon="-5.927383">
        <ele>2344.0</ele>
        <time>2015-06-06T16:05:04Z</time>
      </trkpt>
      <trkpt lat="40.090300" lon="-5.927700">
        <ele>2342.0</ele>
        <time>2015-06-06T16:05:06Z</time>
      </trkpt>
      <trkpt lat="40.090283" lon="-5.928033">
        <ele>2337.0</ele>
        <time>2015-06-06T16:05:08Z</time>
      </trkpt>
      <trkpt lat="40.090283" lon="-5.928400">
        <ele>2332.0</ele>
        <time>2015-06-06T16:05:10Z</time>
      </trkpt>
      <trkpt lat="40.090267" lon="-5.928733">
        <ele>2331.0</ele>
        <time>2015-06-06T16:05:12Z</time>
      </trkpt>
      <trkpt lat="40.090250" lon="-5.929033">
        <ele>2329.0</ele>
        <time>2015-06-06T16:05:14Z</time>
      </trkpt>
      <trkpt lat="40.090250" lon="-5.929367">
        <ele>2324.0</ele>
        <time>2015-06-06T16:05:16Z</time>
      </trkpt>
      <trkpt lat="40.090217" lon="-5.929717">
        <ele>2320.0</ele>
        <time>2015-06-06T16:05:18Z</time>
      </trkpt>
      <trkpt lat="40.090167" lon="-5.930017">
        <ele>2319.0</ele>
        <time>2015-06-06T16:05:20Z</time>
      </trkpt>
      <trkpt lat="40.090133" lon="-5.930317">
        <ele>2316.0</ele>
        <time>2015-06-06T16:05:22Z</time>
      </trkpt>
      <trkpt lat="40.090100" lon="-5.930617">
        <ele>2312.0</ele>
        <time>2015-06-06T16:05:24Z</time>
      </trkpt>
      <trkpt lat="40.090100" lon="-5.930917">
        <ele>2309.0</ele>
        <time>2015-06-06T16:05:26Z</time>
      </trkpt>
      <trkpt lat="40.090117" lon="-5.931233">
        <ele>2305.0</ele>
        <time>2015-06-06T16:05:28Z</time>
      </trkpt>
      <trkpt lat="40.090117" lon="-5.931567">
        <ele>2300.0</ele>
        <time>2015-06-06T16:05:30Z</time>
      </trkpt>
      <trkpt lat="40.090100" lon="-5.931900">
        <ele>2295.0</ele>
        <time>2015-06-06T16:05:32Z</time>
      </trkpt>
      <trkpt lat="40.090067" lon="-5.932233">
        <ele>2292.0</ele>
        <time>2015-06-06T16:05:34Z</time>
      </trkpt>
      <trkpt lat="40.090017" lon="-5.932550">
        <ele>2289.0</ele>
        <time>2015-06-06T16:05:36Z</time>
      </trkpt>
      <trkpt lat="40.089983" lon="-5.932867">
        <ele>2285.0</ele>
        <time>2015-06-06T16:05:38Z</time>
      </trkpt>
      <trkpt lat="40.089950" lon="-5.933183">
        <ele>2281.0</ele>
        <time>2015-06-06T16:05:40Z</time>
      </trkpt>
      <trkpt lat="40.089917" lon="-5.933517">
        <ele>2277.0</ele>
        <time>2015-06-06T16:05:42Z</time>
      </trkpt>
      <trkpt lat="40.089900" lon="-5.933833">
        <ele>2273.0</ele>
        <time>2015-06-06T16:05:44Z</time>
      </trkpt>
      <trkpt lat="40.089867" lon="-5.934167">
        <ele>2269.0</ele>
        <time>2015-06-06T16:05:46Z</time>
      </trkpt>
      <trkpt lat="40.089833" lon="-5.934467">
        <ele>2264.0</ele>
        <time>2015-06-06T16:05:48Z</time>
      </trkpt>
      <trkpt lat="40.089783" lon="-5.934783">
        <ele>2259.0</ele>
        <time>2015-06-06T16:05:50Z</time>
      </trkpt>
      <trkpt lat="40.089733" lon="-5.935100">
        <ele>2254.0</ele>
        <time>2015-06-06T16:05:52Z</time>
      </trkpt>
      <trkpt lat="40.089683" lon="-5.935417">
        <ele>2249.0</ele>
        <time>2015-06-06T16:05:54Z</time>
      </trkpt>
      <trkpt lat="40.089650" lon="-5.935733">
        <ele>2245.0</ele>
        <time>2015-06-06T16:05:56Z</time>
      </trkpt>
      <trkpt lat="40.089617" lon="-5.936067">
        <ele>2242.0</ele>
        <time>2015-06-06T16:05:58Z</time>
      </trkpt>
      <trkpt lat="40.089567" lon="-5.936383">
        <ele>2238.0</ele>
        <time>2015-06-06T16:06:00Z</time>
      </trkpt>
      <trkpt lat="40.089533" lon="-5.936700">
        <ele>2235.0</ele>
        <time>2015-06-06T16:06:02Z</time>
      </trkpt>
      <trkpt lat="40.089500" lon="-5.937000">
        <ele>2232.0</ele>
        <time>2015-06-06T16:06:04Z</time>
      </trkpt>
      <trkpt lat="40.089483" lon="-5.937300">
        <ele>2228.0</ele>
        <time>2015-06-06T16:06:06Z</time>
      </trkpt>
      <trkpt lat="40.089467" lon="-5.937583">
        <ele>2224.0</ele>
        <time>2015-06-06T16:06:08Z</time>
      </trkpt>
      <trkpt lat="40.089450" lon="-5.937883">
        <ele>2218.0</ele>
        <time>2015-06-06T16:06:10Z</time>
      </trkpt>
      <trkpt lat="40.089417" lon="-5.938183">
        <ele>2210.0</ele>
        <time>2015-06-06T16:06:12Z</time>
      </trkpt>
      <trkpt lat="40.089383" lon="-5.938483">
        <ele>2202.0</ele>
        <time>2015-06-06T16:06:14Z</time>
      </trkpt>
      <trkpt lat="40.089333" lon="-5.938800">
        <ele>2195.0</ele>
        <time>2015-06-06T16:06:16Z</time>
      </trkpt>
      <trkpt lat="40.089283" lon="-5.939117">
        <ele>2188.0</ele>
        <time>2015-06-06T16:06:18Z</time>
      </trkpt>
      <trkpt lat="40.089233" lon="-5.939417">
        <ele>2182.0</ele>
        <time>2015-06-06T16:06:20Z</time>
      </trkpt>
      <trkpt lat="40.089150" lon="-5.939717">
        <ele>2178.0</ele>
        <time>2015-06-06T16:06:22Z</time>
      </trkpt>
      <trkpt lat="40.089083" lon="-5.939933">
        <ele>2177.0</ele>
        <time>2015-06-06T16:06:24Z</time>
      </trkpt>
      <trkpt lat="40.089000" lon="-5.940067">
        <ele>2176.0</ele>
        <time>2015-06-06T16:06:26Z</time>
      </trkpt>
      <trkpt lat="40.088867" lon="-5.940167">
        <ele>2171.0</ele>
        <time>2015-06-06T16:06:28Z</time>
      </trkpt>
      <trkpt lat="40.088750" lon="-5.940300">
        <ele>2166.0</ele>
        <time>2015-06-06T16:06:30Z</time>
      </trkpt>
      <trkpt lat="40.088650" lon="-5.940500">
        <ele>2161.0</ele>
        <time>2015-06-06T16:06:32Z</time>
      </trkpt>
      <trkpt lat="40.088567" lon="-5.940700">
        <ele>2155.0</ele>
        <time>2015-06-06T16:06:34Z</time>
      </trkpt>
      <trkpt lat="40.088517" lon="-5.940933">
        <ele>2149.0</ele>
        <time>2015-06-06T16:06:36Z</time>
      </trkpt>
      <trkpt lat="40.088467" lon="-5.941200">
        <ele>2142.0</ele>
        <time>2015-06-06T16:06:38Z</time>
      </trkpt>
      <trkpt lat="40.088400" lon="-5.941467">
        <ele>2135.0</ele>
        <time>2015-06-06T16:06:40Z</time>
      </trkpt>
      <trkpt lat="40.088350" lon="-5.941733">
        <ele>2131.0</ele>
        <time>2015-06-06T16:06:42Z</time>
      </trkpt>
      <trkpt lat="40.088283" lon="-5.941983">
        <ele>2128.0</ele>
        <time>2015-06-06T16:06:44Z</time>
      </trkpt>
      <trkpt lat="40.088217" lon="-5.942183">
        <ele>2126.0</ele>
        <time>2015-06-06T16:06:46Z</time>
      </trkpt>
      <trkpt lat="40.088150" lon="-5.942400">
        <ele>2120.0</ele>
        <time>2015-06-06T16:06:48Z</time>
      </trkpt>
      <trkpt lat="40.088083" lon="-5.942650">
        <ele>2112.0</ele>
        <time>2015-06-06T16:06:50Z</time>
      </trkpt>
      <trkpt lat="40.088017" lon="-5.942917">
        <ele>2107.0</ele>
        <time>2015-06-06T16:06:52Z</time>
      </trkpt>
      <trkpt lat="40.087983" lon="-5.943150">
        <ele>2102.0</ele>
        <time>2015-06-06T16:06:54Z</time>
      </trkpt>
      <trkpt lat="40.087967" lon="-5.943433">
        <ele>2095.0</ele>
        <time>2015-06-06T16:06:56Z</time>
      </trkpt>
      <trkpt lat="40.087917" lon="-5.943750">
        <ele>2087.0</ele>
        <time>2015-06-06T16:06:58Z</time>
      </trkpt>
      <trkpt lat="40.087883" lon="-5.944067">
        <ele>2084.0</ele>
        <time>2015-06-06T16:07:00Z</time>
      </trkpt>
      <trkpt lat="40.087867" lon="-5.944333">
        <ele>2083.0</ele>
        <time>2015-06-06T16:07:02Z</time>
      </trkpt>
      <trkpt lat="40.087900" lon="-5.944617">
        <ele>2079.0</ele>
        <time>2015-06-06T16:07:04Z</time>
      </trkpt>
      <trkpt lat="40.087933" lon="-5.944933">
        <ele>2073.0</ele>
        <time>2015-06-06T16:07:06Z</time>
      </trkpt>
      <trkpt lat="40.087933" lon="-5.945217">
        <ele>2070.0</ele>
        <time>2015-06-06T16:07:08Z</time>
      </trkpt>
      <trkpt lat="40.087933" lon="-5.945483">
        <ele>2066.0</ele>
        <time>2015-06-06T16:07:10Z</time>
      </trkpt>
      <trkpt lat="40.087917" lon="-5.945733">
        <ele>2060.0</ele>
        <time>2015-06-06T16:07:12Z</time>
      </trkpt>
      <trkpt lat="40.087883" lon="-5.945983">
        <ele>2054.0</ele>
        <time>2015-06-06T16:07:14Z</time>
      </trkpt>
      <trkpt lat="40.087867" lon="-5.946250">
        <ele>2048.0</ele>
        <time>2015-06-06T16:07:16Z</time>
      </trkpt>
      <trkpt lat="40.087833" lon="-5.946517">
        <ele>2042.0</ele>
        <time>2015-06-06T16:07:18Z</time>
      </trkpt>
      <trkpt lat="40.087783" lon="-5.946783">
        <ele>2037.0</ele>
        <time>2015-06-06T16:07:20Z</time>
      </trkpt>
      <trkpt lat="40.087750" lon="-5.947067">
        <ele>2032.0</ele>
        <time>2015-06-06T16:07:22Z</time>
      </trkpt>
      <trkpt lat="40.087700" lon="-5.947367">
        <ele>2028.0</ele>
        <time>2015-06-06T16:07:24Z</time>
      </trkpt>
      <trkpt lat="40.087650" lon="-5.947667">
        <ele>2024.0</ele>
        <time>2015-06-06T16:07:26Z</time>
      </trkpt>
      <trkpt lat="40.087600" lon="-5.947950">
        <ele>2022.0</ele>
        <time>2015-06-06T16:07:28Z</time>
      </trkpt>
      <trkpt lat="40.087517" lon="-5.948133">
        <ele>2020.0</ele>
        <time>2015-06-06T16:07:30Z</time>
      </trkpt>
      <trkpt lat="40.087417" lon="-5.948317">
        <ele>2015.0</ele>
        <time>2015-06-06T16:07:32Z</time>
      </trkpt>
      <trkpt lat="40.087333" lon="-5.948550">
        <ele>2011.0</ele>
        <time>2015-06-06T16:07:34Z</time>
      </trkpt>
      <trkpt lat="40.087267" lon="-5.948783">
        <ele>2008.0</ele>
        <time>2015-06-06T16:07:36Z</time>
      </trkpt>
      <trkpt lat="40.087217" lon="-5.949017">
        <ele>2002.0</ele>
        <time>2015-06-06T16:07:38Z</time>
      </trkpt>
      <trkpt lat="40.087150" lon="-5.949283">
        <ele>1994.0</ele>
        <time>2015-06-06T16:07:40Z</time>
      </trkpt>
      <trkpt lat="40.087067" lon="-5.949533">
        <ele>1990.0</ele>
        <time>2015-06-06T16:07:42Z</time>
      </trkpt>
      <trkpt lat="40.086967" lon="-5.949783">
        <ele>1985.0</ele>
        <time>2015-06-06T16:07:44Z</time>
      </trkpt>
      <trkpt lat="40.086867" lon="-5.950050">
        <ele>1980.0</ele>
        <time>2015-06-06T16:07:46Z</time>
      </trkpt>
      <trkpt lat="40.086767" lon="-5.950300">
        <ele>1976.0</ele>
        <time>2015-06-06T16:07:48Z</time>
      </trkpt>
      <trkpt lat="40.086667" lon="-5.950533">
        <ele>1970.0</ele>
        <time>2015-06-06T16:07:50Z</time>
      </trkpt>
      <trkpt lat="40.086567" lon="-5.950783">
        <ele>1963.0</ele>
        <time>2015-06-06T16:07:52Z</time>
      </trkpt>
      <trkpt lat="40.086450" lon="-5.951017">
        <ele>1956.0</ele>
        <time>2015-06-06T16:07:54Z</time>
      </trkpt>
      <trkpt lat="40.086350" lon="-5.951267">
        <ele>1953.0</ele>
        <time>2015-06-06T16:07:56Z</time>
      </trkpt>
      <trkpt lat="40.086283" lon="-5.951467">
        <ele>1950.0</ele>
        <time>2015-06-06T16:07:58Z</time>
      </trkpt>
      <trkpt lat="40.086217" lon="-5.951683">
        <ele>1944.0</ele>
        <time>2015-06-06T16:08:00Z</time>
      </trkpt>
      <trkpt lat="40.086133" lon="-5.951967">
        <ele>1937.0</ele>
        <time>2015-06-06T16:08:02Z</time>
      </trkpt>
      <trkpt lat="40.086067" lon="-5.952233">
        <ele>1933.0</ele>
        <time>2015-06-06T16:08:04Z</time>
      </trkpt>
      <trkpt lat="40.085983" lon="-5.952483">
        <ele>1928.0</ele>
        <time>2015-06-06T16:08:06Z</time>
      </trkpt>
      <trkpt lat="40.085900" lon="-5.952750">
        <ele>1922.0</ele>
        <time>2015-06-06T16:08:08Z</time>
      </trkpt>
      <trkpt lat="40.085850" lon="-5.953017">
        <ele>1916.0</ele>
        <time>2015-06-06T16:08:10Z</time>
      </trkpt>
      <trkpt lat="40.085783" lon="-5.953267">
        <ele>1909.0</ele>
        <time>2015-06-06T16:08:12Z</time>
      </trkpt>
      <trkpt lat="40.085717" lon="-5.953533">
        <ele>1900.0</ele>
        <time>2015-06-06T16:08:14Z</time>
      </trkpt>
      <trkpt lat="40.085633" lon="-5.953783">
        <ele>1893.0</ele>
        <time>2015-06-06T16:08:16Z</time>
      </trkpt>
      <trkpt lat="40.085567" lon="-5.954033">
        <ele>1888.0</ele>
        <time>2015-06-06T16:08:18Z</time>
      </trkpt>
      <trkpt lat="40.085500" lon="-5.954267">
        <ele>1881.0</ele>
        <time>2015-06-06T16:08:20Z</time>
      </trkpt>
      <trkpt lat="40.085400" lon="-5.954500">
        <ele>1874.0</ele>
        <time>2015-06-06T16:08:22Z</time>
      </trkpt>
      <trkpt lat="40.085317" lon="-5.954767">
        <ele>1869.0</ele>
        <time>2015-06-06T16:08:24Z</time>
      </trkpt>
      <trkpt lat="40.085233" lon="-5.955033">
        <ele>1865.0</ele>
        <time>2015-06-06T16:08:26Z</time>
      </trkpt>
      <trkpt lat="40.085133" lon="-5.955317">
        <ele>1860.0</ele>
        <time>2015-06-06T16:08:28Z</time>
      </trkpt>
      <trkpt lat="40.085017" lon="-5.955617">
        <ele>1857.0</ele>
        <time>2015-06-06T16:08:30Z</time>
      </trkpt>
      <trkpt lat="40.084900" lon="-5.955917">
        <ele>1859.0</ele>
        <time>2015-06-06T16:08:32Z</time>
      </trkpt>
      <trkpt lat="40.084817" lon="-5.956183">
        <ele>1860.0</ele>
        <time>2015-06-06T16:08:34Z</time>
      </trkpt>
      <trkpt lat="40.084700" lon="-5.956400">
        <ele>1861.0</ele>
        <time>2015-06-06T16:08:36Z</time>
      </trkpt>
      <trkpt lat="40.084583" lon="-5.956517">
        <ele>1860.0</ele>
        <time>2015-06-06T16:08:38Z</time>
      </trkpt>
      <trkpt lat="40.084417" lon="-5.956633">
        <ele>1858.0</ele>
        <time>2015-06-06T16:08:40Z</time>
      </trkpt>
      <trkpt lat="40.084300" lon="-5.956850">
        <ele>1857.0</ele>
        <time>2015-06-06T16:08:42Z</time>
      </trkpt>
      <trkpt lat="40.084217" lon="-5.957117">
        <ele>1857.0</ele>
        <time>2015-06-06T16:08:44Z</time>
      </trkpt>
      <trkpt lat="40.084167" lon="-5.957400">
        <ele>1856.0</ele>
        <time>2015-06-06T16:08:46Z</time>
      </trkpt>
      <trkpt lat="40.084167" lon="-5.957733">
        <ele>1854.0</ele>
        <time>2015-06-06T16:08:48Z</time>
      </trkpt>
      <trkpt lat="40.084167" lon="-5.958067">
        <ele>1854.0</ele>
        <time>2015-06-06T16:08:50Z</time>
      </trkpt>
      <trkpt lat="40.084233" lon="-5.958383">
        <ele>1856.0</ele>
        <time>2015-06-06T16:08:52Z</time>
      </trkpt>
      <trkpt lat="40.084333" lon="-5.958683">
        <ele>1856.0</ele>
        <time>2015-06-06T16:08:54Z</time>
      </trkpt>
      <trkpt lat="40.084467" lon="-5.958917">
        <ele>1854.0</ele>
        <time>2015-06-06T16:08:56Z</time>
      </trkpt>
      <trkpt lat="40.084650" lon="-5.959083">
        <ele>1852.0</ele>
        <time>2015-06-06T16:08:58Z</time>
      </trkpt>
      <trkpt lat="40.084833" lon="-5.959133">
        <ele>1851.0</ele>
        <time>2015-06-06T16:09:00Z</time>
      </trkpt>
      <trkpt lat="40.085000" lon="-5.959083">
        <ele>1850.0</ele>
        <time>2015-06-06T16:09:02Z</time>
      </trkpt>
      <trkpt lat="40.085083" lon="-5.958933">
        <ele>1847.0</ele>
        <time>2015-06-06T16:09:04Z</time>
      </trkpt>
      <trkpt lat="40.085083" lon="-5.958800">
        <ele>1846.0</ele>
        <time>2015-06-06T16:09:06Z</time>
      </trkpt>
      <trkpt lat="40.085050" lon="-5.958700">
        <ele>1846.0</ele>
        <time>2015-06-06T16:09:08Z</time>
      </trkpt>
      <trkpt lat="40.084967" lon="-5.958617">
        <ele>1844.0</ele>
        <time>2015-06-06T16:09:10Z</time>
      </trkpt>
      <trkpt lat="40.084817" lon="-5.958600">
        <ele>1843.0</ele>
        <time>2015-06-06T16:09:12Z</time>
      </trkpt>
      <trkpt lat="40.084683" lon="-5.958650">
        <ele>1845.0</ele>
        <time>2015-06-06T16:09:14Z</time>
      </trkpt>
      <trkpt lat="40.084550" lon="-5.958750">
        <ele>1845.0</ele>
        <time>2015-06-06T16:09:16Z</time>
      </trkpt>
      <trkpt lat="40.084400" lon="-5.958900">
        <ele>1843.0</ele>
        <time>2015-06-06T16:09:18Z</time>
      </trkpt>
      <trkpt lat="40.084250" lon="-5.959083">
        <ele>1841.0</ele>
        <time>2015-06-06T16:09:20Z</time>
      </trkpt>
      <trkpt lat="40.084100" lon="-5.959317">
        <ele>1841.0</ele>
        <time>2015-06-06T16:09:22Z</time>
      </trkpt>
      <trkpt lat="40.083983" lon="-5.959533">
        <ele>1842.0</ele>
        <time>2015-06-06T16:09:24Z</time>
      </trkpt>
      <trkpt lat="40.083883" lon="-5.959783">
        <ele>1841.0</ele>
        <time>2015-06-06T16:09:26Z</time>
      </trkpt>
      <trkpt lat="40.083817" lon="-5.960067">
        <ele>1839.0</ele>
        <time>2015-06-06T16:09:28Z</time>
      </trkpt>
      <trkpt lat="40.083767" lon="-5.960350">
        <ele>1838.0</ele>
        <time>2015-06-06T16:09:30Z</time>
      </trkpt>
      <trkpt lat="40.083733" lon="-5.960650">
        <ele>1836.0</ele>
        <time>2015-06-06T16:09:32Z</time>
      </trkpt>
      <trkpt lat="40.083667" lon="-5.960950">
        <ele>1834.0</ele>
        <time>2015-06-06T16:09:34Z</time>
      </trkpt>
      <trkpt lat="40.083567" lon="-5.961217">
        <ele>1833.0</ele>
        <time>2015-06-06T16:09:36Z</time>
      </trkpt>
      <trkpt lat="40.083500" lon="-5.961483">
        <ele>1832.0</ele>
        <time>2015-06-06T16:09:38Z</time>
      </trkpt>
      <trkpt lat="40.083467" lon="-5.961767">
        <ele>1830.0</ele>
        <time>2015-06-06T16:09:40Z</time>
      </trkpt>
      <trkpt lat="40.083433" lon="-5.962050">
        <ele>1827.0</ele>
        <time>2015-06-06T16:09:42Z</time>
      </trkpt>
      <trkpt lat="40.083350" lon="-5.962333">
        <ele>1824.0</ele>
        <time>2015-06-06T16:09:44Z</time>
      </trkpt>
      <trkpt lat="40.083250" lon="-5.962600">
        <ele>1821.0</ele>
        <time>2015-06-06T16:09:46Z</time>
      </trkpt>
      <trkpt lat="40.083183" lon="-5.962867">
        <ele>1820.0</ele>
        <time>2015-06-06T16:09:48Z</time>
      </trkpt>
      <trkpt lat="40.083150" lon="-5.963133">
        <ele>1819.0</ele>
        <time>2015-06-06T16:09:50Z</time>
      </trkpt>
      <trkpt lat="40.083100" lon="-5.963433">
        <ele>1815.0</ele>
        <time>2015-06-06T16:09:52Z</time>
      </trkpt>
      <trkpt lat="40.083017" lon="-5.963717">
        <ele>1814.0</ele>
        <time>2015-06-06T16:09:54Z</time>
      </trkpt>
      <trkpt lat="40.082933" lon="-5.963983">
        <ele>1814.0</ele>
        <time>2015-06-06T16:09:56Z</time>
      </trkpt>
      <trkpt lat="40.082850" lon="-5.964233">
        <ele>1812.0</ele>
        <time>2015-06-06T16:09:58Z</time>
      </trkpt>
      <trkpt lat="40.082750" lon="-5.964517">
        <ele>1809.0</ele>
        <time>2015-06-06T16:10:00Z</time>
      </trkpt>
      <trkpt lat="40.082683" lon="-5.964800">
        <ele>1807.0</ele>
        <time>2015-06-06T16:10:02Z</time>
      </trkpt>
      <trkpt lat="40.082617" lon="-5.965083">
        <ele>1806.0</ele>
        <time>2015-06-06T16:10:04Z</time>
      </trkpt>
      <trkpt lat="40.082550" lon="-5.965383">
        <ele>1805.0</ele>
        <time>2015-06-06T16:10:06Z</time>
      </trkpt>
      <trkpt lat="40.082483" lon="-5.965667">
        <ele>1804.0</ele>
        <time>2015-06-06T16:10:08Z</time>
      </trkpt>
      <trkpt lat="40.082417" lon="-5.965933">
        <ele>1804.0</ele>
        <time>2015-06-06T16:10:10Z</time>
      </trkpt>
      <trkpt lat="40.082333" lon="-5.966200">
        <ele>1801.0</ele>
        <time>2015-06-06T16:10:12Z</time>
      </trkpt>
      <trkpt lat="40.082250" lon="-5.966500">
        <ele>1798.0</ele>
        <time>2015-06-06T16:10:14Z</time>
      </trkpt>
      <trkpt lat="40.082150" lon="-5.966783">
        <ele>1797.0</ele>
        <time>2015-06-06T16:10:16Z</time>
      </trkpt>
      <trkpt lat="40.082067" lon="-5.967050">
        <ele>1796.0</ele>
        <time>2015-06-06T16:10:18Z</time>
      </trkpt>
      <trkpt lat="40.081950" lon="-5.967317">
        <ele>1793.0</ele>
        <time>2015-06-06T16:10:20Z</time>
      </trkpt>
      <trkpt lat="40.081850" lon="-5.967583">
        <ele>1790.0</ele>
        <time>2015-06-06T16:10:22Z</time>
      </trkpt>
      <trkpt lat="40.081750" lon="-5.967833">
        <ele>1788.0</ele>
        <time>2015-06-06T16:10:24Z</time>
      </trkpt>
      <trkpt lat="40.081633" lon="-5.968100">
        <ele>1784.0</ele>
        <time>2015-06-06T16:10:26Z</time>
      </trkpt>
      <trkpt lat="40.081517" lon="-5.968400">
        <ele>1782.0</ele>
        <time>2015-06-06T16:10:28Z</time>
      </trkpt>
      <trkpt lat="40.081417" lon="-5.968667">
        <ele>1783.0</ele>
        <time>2015-06-06T16:10:30Z</time>
      </trkpt>
      <trkpt lat="40.081317" lon="-5.968900">
        <ele>1784.0</ele>
        <time>2015-06-06T16:10:32Z</time>
      </trkpt>
      <trkpt lat="40.081250" lon="-5.969167">
        <ele>1784.0</ele>
        <time>2015-06-06T16:10:34Z</time>
      </trkpt>
      <trkpt lat="40.081267" lon="-5.969517">
        <ele>1782.0</ele>
        <time>2015-06-06T16:10:36Z</time>
      </trkpt>
      <trkpt lat="40.081333" lon="-5.969800">
        <ele>1786.0</ele>
        <time>2015-06-06T16:10:38Z</time>
      </trkpt>
      <trkpt lat="40.081417" lon="-5.970017">
        <ele>1787.0</ele>
        <time>2015-06-06T16:10:40Z</time>
      </trkpt>
      <trkpt lat="40.081600" lon="-5.970233">
        <ele>1782.0</ele>
        <time>2015-06-06T16:10:42Z</time>
      </trkpt>
      <trkpt lat="40.081800" lon="-5.970333">
        <ele>1780.0</ele>
        <time>2015-06-06T16:10:44Z</time>
      </trkpt>
      <trkpt lat="40.081950" lon="-5.970317">
        <ele>1778.0</ele>
        <time>2015-06-06T16:10:46Z</time>
      </trkpt>
      <trkpt lat="40.082067" lon="-5.970217">
        <ele>1774.0</ele>
        <time>2015-06-06T16:10:48Z</time>
      </trkpt>
      <trkpt lat="40.082117" lon="-5.970067">
        <ele>1770.0</ele>
        <time>2015-06-06T16:10:50Z</time>
      </trkpt>
      <trkpt lat="40.082083" lon="-5.969917">
        <ele>1768.0</ele>
        <time>2015-06-06T16:10:52Z</time>
      </trkpt>
      <trkpt lat="40.081983" lon="-5.969833">
        <ele>1766.0</ele>
        <time>2015-06-06T16:10:54Z</time>
      </trkpt>
      <trkpt lat="40.081833" lon="-5.969800">
        <ele>1762.0</ele>
        <time>2015-06-06T16:10:56Z</time>
      </trkpt>
      <trkpt lat="40.081650" lon="-5.969883">
        <ele>1759.0</ele>
        <time>2015-06-06T16:10:58Z</time>
      </trkpt>
      <trkpt lat="40.081500" lon="-5.970033">
        <ele>1758.0</ele>
        <time>2015-06-06T16:11:00Z</time>
      </trkpt>
      <trkpt lat="40.081383" lon="-5.970233">
        <ele>1756.0</ele>
        <time>2015-06-06T16:11:02Z</time>
      </trkpt>
      <trkpt lat="40.081250" lon="-5.970500">
        <ele>1753.0</ele>
        <time>2015-06-06T16:11:04Z</time>
      </trkpt>
      <trkpt lat="40.081133" lon="-5.970750">
        <ele>1754.0</ele>
        <time>2015-06-06T16:11:06Z</time>
      </trkpt>
      <trkpt lat="40.081017" lon="-5.970983">
        <ele>1756.0</ele>
        <time>2015-06-06T16:11:08Z</time>
      </trkpt>
      <trkpt lat="40.080933" lon="-5.971250">
        <ele>1757.0</ele>
        <time>2015-06-06T16:11:10Z</time>
      </trkpt>
      <trkpt lat="40.080867" lon="-5.971583">
        <ele>1756.0</ele>
        <time>2015-06-06T16:11:12Z</time>
      </trkpt>
      <trkpt lat="40.080817" lon="-5.971883">
        <ele>1758.0</ele>
        <time>2015-06-06T16:11:14Z</time>
      </trkpt>
      <trkpt lat="40.080750" lon="-5.972167">
        <ele>1760.0</ele>
        <time>2015-06-06T16:11:16Z</time>
      </trkpt>
      <trkpt lat="40.080783" lon="-5.972500">
        <ele>1762.0</ele>
        <time>2015-06-06T16:11:18Z</time>
      </trkpt>
      <trkpt lat="40.080933" lon="-5.972817">
        <ele>1761.0</ele>
        <time>2015-06-06T16:11:20Z</time>
      </trkpt>
      <trkpt lat="40.081117" lon="-5.973017">
        <ele>1765.0</ele>
        <time>2015-06-06T16:11:22Z</time>
      </trkpt>
      <trkpt lat="40.081317" lon="-5.973100">
        <ele>1767.0</ele>
        <time>2015-06-06T16:11:24Z</time>
      </trkpt>
      <trkpt lat="40.081500" lon="-5.973067">
        <ele>1766.0</ele>
        <time>2015-06-06T16:11:26Z</time>
      </trkpt>
      <trkpt lat="40.081567" lon="-5.972950">
        <ele>1763.0</ele>
        <time>2015-06-06T16:11:28Z</time>
      </trkpt>
      <trkpt lat="40.081533" lon="-5.972833">
        <ele>1760.0</ele>
        <time>2015-06-06T16:11:30Z</time>
      </trkpt>
      <trkpt lat="40.081400" lon="-5.972833">
        <ele>1759.0</ele>
        <time>2015-06-06T16:11:32Z</time>
      </trkpt>
      <trkpt lat="40.081267" lon="-5.972900">
        <ele>1761.0</ele>
        <time>2015-06-06T16:11:34Z</time>
      </trkpt>
      <trkpt lat="40.081150" lon="-5.973000">
        <ele>1764.0</ele>
        <time>2015-06-06T16:11:36Z</time>
      </trkpt>
      <trkpt lat="40.081000" lon="-5.973167">
        <ele>1762.0</ele>
        <time>2015-06-06T16:11:38Z</time>
      </trkpt>
      <trkpt lat="40.080867" lon="-5.973417">
        <ele>1763.0</ele>
        <time>2015-06-06T16:11:40Z</time>
      </trkpt>
      <trkpt lat="40.080783" lon="-5.973667">
        <ele>1765.0</ele>
        <time>2015-06-06T16:11:42Z</time>
      </trkpt>
      <trkpt lat="40.080733" lon="-5.973933">
        <ele>1765.0</ele>
        <time>2015-06-06T16:11:44Z</time>
      </trkpt>
      <trkpt lat="40.080717" lon="-5.974283">
        <ele>1763.0</ele>
        <time>2015-06-06T16:11:46Z</time>
      </trkpt>
      <trkpt lat="40.080800" lon="-5.974617">
        <ele>1764.0</ele>
        <time>2015-06-06T16:11:48Z</time>
      </trkpt>
      <trkpt lat="40.080950" lon="-5.974867">
        <ele>1766.0</ele>
        <time>2015-06-06T16:11:50Z</time>
      </trkpt>
      <trkpt lat="40.081150" lon="-5.975033">
        <ele>1765.0</ele>
        <time>2015-06-06T16:11:52Z</time>
      </trkpt>
      <trkpt lat="40.081333" lon="-5.975083">
        <ele>1766.0</ele>
        <time>2015-06-06T16:11:54Z</time>
      </trkpt>
      <trkpt lat="40.081467" lon="-5.975017">
        <ele>1766.0</ele>
        <time>2015-06-06T16:11:56Z</time>
      </trkpt>
      <trkpt lat="40.081533" lon="-5.974883">
        <ele>1764.0</ele>
        <time>2015-06-06T16:11:58Z</time>
      </trkpt>
      <trkpt lat="40.081533" lon="-5.974733">
        <ele>1763.0</ele>
        <time>2015-06-06T16:12:00Z</time>
      </trkpt>
      <trkpt lat="40.081467" lon="-5.974583">
        <ele>1764.0</ele>
        <time>2015-06-06T16:12:02Z</time>
      </trkpt>
      <trkpt lat="40.081383" lon="-5.974533">
        <ele>1767.0</ele>
        <time>2015-06-06T16:12:04Z</time>
      </trkpt>
      <trkpt lat="40.081267" lon="-5.974550">
        <ele>1769.0</ele>
        <time>2015-06-06T16:12:06Z</time>
      </trkpt>
      <trkpt lat="40.081100" lon="-5.974650">
        <ele>1769.0</ele>
        <time>2015-06-06T16:12:08Z</time>
      </trkpt>
      <trkpt lat="40.080967" lon="-5.974850">
        <ele>1770.0</ele>
        <time>2015-06-06T16:12:10Z</time>
      </trkpt>
      <trkpt lat="40.080867" lon="-5.975083">
        <ele>1770.0</ele>
        <time>2015-06-06T16:12:12Z</time>
      </trkpt>
      <trkpt lat="40.080783" lon="-5.975383">
        <ele>1770.0</ele>
        <time>2015-06-06T16:12:14Z</time>
      </trkpt>
      <trkpt lat="40.080800" lon="-5.975717">
        <ele>1770.0</ele>
        <time>2015-06-06T16:12:16Z</time>
      </trkpt>
      <trkpt lat="40.080883" lon="-5.976050">
        <ele>1771.0</ele>
        <time>2015-06-06T16:12:18Z</time>
      </trkpt>
      <trkpt lat="40.081017" lon="-5.976317">
        <ele>1771.0</ele>
        <time>2015-06-06T16:12:20Z</time>
      </trkpt>
      <trkpt lat="40.081217" lon="-5.976533">
        <ele>1769.0</ele>
        <time>2015-06-06T16:12:22Z</time>
      </trkpt>
      <trkpt lat="40.081433" lon="-5.976633">
        <ele>1770.0</ele>
        <time>2015-06-06T16:12:24Z</time>
      </trkpt>
      <trkpt lat="40.081600" lon="-5.976633">
        <ele>1771.0</ele>
        <time>2015-06-06T16:12:26Z</time>
      </trkpt>
      <trkpt lat="40.081733" lon="-5.976567">
        <ele>1770.0</ele>
        <time>2015-06-06T16:12:28Z</time>
      </trkpt>
      <trkpt lat="40.081817" lon="-5.976433">
        <ele>1767.0</ele>
        <time>2015-06-06T16:12:30Z</time>
      </trkpt>
      <trkpt lat="40.081817" lon="-5.976267">
        <ele>1766.0</ele>
        <time>2015-06-06T16:12:32Z</time>
      </trkpt>
      <trkpt lat="40.081783" lon="-5.976133">
        <ele>1767.0</ele>
        <time>2015-06-06T16:12:34Z</time>
      </trkpt>
      <trkpt lat="40.081700" lon="-5.976050">
        <ele>1767.0</ele>
        <time>2015-06-06T16:12:36Z</time>
      </trkpt>
      <trkpt lat="40.081567" lon="-5.976033">
        <ele>1766.0</ele>
        <time>2015-06-06T16:12:38Z</time>
      </trkpt>
      <trkpt lat="40.081433" lon="-5.976117">
        <ele>1767.0</ele>
        <time>2015-06-06T16:12:40Z</time>
      </trkpt>
      <trkpt lat="40.081317" lon="-5.976233">
        <ele>1768.0</ele>
        <time>2015-06-06T16:12:42Z</time>
      </trkpt>
      <trkpt lat="40.081183" lon="-5.976433">
        <ele>1766.0</ele>
        <time>2015-06-06T16:12:44Z</time>
      </trkpt>
      <trkpt lat="40.081083" lon="-5.976700">
        <ele>1765.0</ele>
        <time>2015-06-06T16:12:46Z</time>
      </trkpt>
      <trkpt lat="40.081017" lon="-5.976967">
        <ele>1766.0</ele>
        <time>2015-06-06T16:12:48Z</time>
      </trkpt>
      <trkpt lat="40.080967" lon="-5.977267">
        <ele>1764.0</ele>
        <time>2015-06-06T16:12:50Z</time>
      </trkpt>
      <trkpt lat="40.080950" lon="-5.977567">
        <ele>1764.0</ele>
        <time>2015-06-06T16:12:52Z</time>
      </trkpt>
      <trkpt lat="40.080950" lon="-5.977883">
        <ele>1764.0</ele>
        <time>2015-06-06T16:12:54Z</time>
      </trkpt>
      <trkpt lat="40.080967" lon="-5.978200">
        <ele>1764.0</ele>
        <time>2015-06-06T16:12:56Z</time>
      </trkpt>
      <trkpt lat="40.081050" lon="-5.978533">
        <ele>1763.0</ele>
        <time>2015-06-06T16:12:58Z</time>
      </trkpt>
      <trkpt lat="40.081150" lon="-5.978833">
        <ele>1765.0</ele>
        <time>2015-06-06T16:13:00Z</time>
      </trkpt>
      <trkpt lat="40.081233" lon="-5.979133">
        <ele>1766.0</ele>
        <time>2015-06-06T16:13:02Z</time>
      </trkpt>
      <trkpt lat="40.081317" lon="-5.979450">
        <ele>1766.0</ele>
        <time>2015-06-06T16:13:04Z</time>
      </trkpt>
      <trkpt lat="40.081350" lon="-5.979783">
        <ele>1768.0</ele>
        <time>2015-06-06T16:13:06Z</time>
      </trkpt>
      <trkpt lat="40.081317" lon="-5.980100">
        <ele>1771.0</ele>
        <time>2015-06-06T16:13:08Z</time>
      </trkpt>
      <trkpt lat="40.081267" lon="-5.980417">
        <ele>1776.0</ele>
        <time>2015-06-06T16:13:10Z</time>
      </trkpt>
      <trkpt lat="40.081300" lon="-5.980717">
        <ele>1780.0</ele>
        <time>2015-06-06T16:13:12Z</time>
      </trkpt>
      <trkpt lat="40.081450" lon="-5.981000">
        <ele>1781.0</ele>
        <time>2015-06-06T16:13:14Z</time>
      </trkpt>
      <trkpt lat="40.081633" lon="-5.981167">
        <ele>1784.0</ele>
        <time>2015-06-06T16:13:16Z</time>
      </trkpt>
      <trkpt lat="40.081800" lon="-5.981150">
        <ele>1784.0</ele>
        <time>2015-06-06T16:13:18Z</time>
      </trkpt>
      <trkpt lat="40.081867" lon="-5.981050">
        <ele>1785.0</ele>
        <time>2015-06-06T16:13:20Z</time>
      </trkpt>
      <trkpt lat="40.081817" lon="-5.980933">
        <ele>1785.0</ele>
        <time>2015-06-06T16:13:22Z</time>
      </trkpt>
      <trkpt lat="40.081700" lon="-5.980917">
        <ele>1788.0</ele>
        <time>2015-06-06T16:13:24Z</time>
      </trkpt>
      <trkpt lat="40.081550" lon="-5.980983">
        <ele>1791.0</ele>
        <time>2015-06-06T16:13:26Z</time>
      </trkpt>
      <trkpt lat="40.081417" lon="-5.981067">
        <ele>1796.0</ele>
        <time>2015-06-06T16:13:28Z</time>
      </trkpt>
      <trkpt lat="40.081300" lon="-5.981200">
        <ele>1801.0</ele>
        <time>2015-06-06T16:13:30Z</time>
      </trkpt>
      <trkpt lat="40.081200" lon="-5.981450">
        <ele>1805.0</ele>
        <time>2015-06-06T16:13:32Z</time>
      </trkpt>
      <trkpt lat="40.081150" lon="-5.981717">
        <ele>1808.0</ele>
        <time>2015-06-06T16:13:34Z</time>
      </trkpt>
      <trkpt lat="40.081183" lon="-5.982033">
        <ele>1810.0</ele>
        <time>2015-06-06T16:13:36Z</time>
      </trkpt>
      <trkpt lat="40.081333" lon="-5.982283">
        <ele>1810.0</ele>
        <time>2015-06-06T16:13:38Z</time>
      </trkpt>
      <trkpt lat="40.081533" lon="-5.982350">
        <ele>1809.0</ele>
        <time>2015-06-06T16:13:40Z</time>
      </trkpt>
      <trkpt lat="40.081683" lon="-5.982267">
        <ele>1808.0</ele>
        <time>2015-06-06T16:13:42Z</time>
      </trkpt>
      <trkpt lat="40.081750" lon="-5.982133">
        <ele>1810.0</ele>
        <time>2015-06-06T16:13:44Z</time>
      </trkpt>
      <trkpt lat="40.081767" lon="-5.982033">
        <ele>1814.0</ele>
        <time>2015-06-06T16:13:46Z</time>
      </trkpt>
      <trkpt lat="40.081733" lon="-5.981983">
        <ele>1818.0</ele>
        <time>2015-06-06T16:13:48Z</time>
      </trkpt>
      <trkpt lat="40.081633" lon="-5.982017">
        <ele>1820.0</ele>
        <time>2015-06-06T16:13:50Z</time>
      </trkpt>
      <trkpt lat="40.081500" lon="-5.982150">
        <ele>1821.0</ele>
        <time>2015-06-06T16:13:52Z</time>
      </trkpt>
      <trkpt lat="40.081383" lon="-5.982400">
        <ele>1823.0</ele>
        <time>2015-06-06T16:13:54Z</time>
      </trkpt>
      <trkpt lat="40.081333" lon="-5.982667">
        <ele>1827.0</ele>
        <time>2015-06-06T16:13:56Z</time>
      </trkpt>
      <trkpt lat="40.081367" lon="-5.982967">
        <ele>1829.0</ele>
        <time>2015-06-06T16:13:58Z</time>
      </trkpt>
      <trkpt lat="40.081467" lon="-5.983250">
        <ele>1829.0</ele>
        <time>2015-06-06T16:14:00Z</time>
      </trkpt>
      <trkpt lat="40.081633" lon="-5.983417">
        <ele>1829.0</ele>
        <time>2015-06-06T16:14:02Z</time>
      </trkpt>
      <trkpt lat="40.081833" lon="-5.983483">
        <ele>1828.0</ele>
        <time>2015-06-06T16:14:04Z</time>
      </trkpt>
      <trkpt lat="40.082000" lon="-5.983433">
        <ele>1828.0</ele>
        <time>2015-06-06T16:14:06Z</time>
      </trkpt>
      <trkpt lat="40.082117" lon="-5.983333">
        <ele>1828.0</ele>
        <time>2015-06-06T16:14:08Z</time>
      </trkpt>
      <trkpt lat="40.082133" lon="-5.983167">
        <ele>1829.0</ele>
        <time>2015-06-06T16:14:10Z</time>
      </trkpt>
      <trkpt lat="40.082100" lon="-5.983033">
        <ele>1832.0</ele>
        <time>2015-06-06T16:14:12Z</time>
      </trkpt>
      <trkpt lat="40.082017" lon="-5.982950">
        <ele>1836.0</ele>
        <time>2015-06-06T16:14:14Z</time>
      </trkpt>
      <trkpt lat="40.081917" lon="-5.982950">
        <ele>1840.0</ele>
        <time>2015-06-06T16:14:16Z</time>
      </trkpt>
      <trkpt lat="40.081800" lon="-5.983050">
        <ele>1843.0</ele>
        <time>2015-06-06T16:14:18Z</time>
      </trkpt>
      <trkpt lat="40.081683" lon="-5.983233">
        <ele>1846.0</ele>
        <time>2015-06-06T16:14:20Z</time>
      </trkpt>
      <trkpt lat="40.081583" lon="-5.983517">
        <ele>1849.0</ele>
        <time>2015-06-06T16:14:22Z</time>
      </trkpt>
      <trkpt lat="40.081600" lon="-5.983800">
        <ele>1855.0</ele>
        <time>2015-06-06T16:14:24Z</time>
      </trkpt>
      <trkpt lat="40.081700" lon="-5.984050">
        <ele>1858.0</ele>
        <time>2015-06-06T16:14:26Z</time>
      </trkpt>
      <trkpt lat="40.081867" lon="-5.984250">
        <ele>1859.0</ele>
        <time>2015-06-06T16:14:28Z</time>
      </trkpt>
      <trkpt lat="40.082067" lon="-5.984317">
        <ele>1859.0</ele>
        <time>2015-06-06T16:14:30Z</time>
      </trkpt>
      <trkpt lat="40.082233" lon="-5.984283">
        <ele>1860.0</ele>
        <time>2015-06-06T16:14:32Z</time>
      </trkpt>
      <trkpt lat="40.082350" lon="-5.984167">
        <ele>1861.0</ele>
        <time>2015-06-06T16:14:34Z</time>
      </trkpt>
      <trkpt lat="40.082400" lon="-5.984017">
        <ele>1863.0</ele>
        <time>2015-06-06T16:14:36Z</time>
      </trkpt>
      <trkpt lat="40.082367" lon="-5.983900">
        <ele>1867.0</ele>
        <time>2015-06-06T16:14:38Z</time>
      </trkpt>
      <trkpt lat="40.082317" lon="-5.983833">
        <ele>1872.0</ele>
        <time>2015-06-06T16:14:40Z</time>
      </trkpt>
      <trkpt lat="40.082233" lon="-5.983850">
        <ele>1872.0</ele>
        <time>2015-06-06T16:14:42Z</time>
      </trkpt>
      <trkpt lat="40.082067" lon="-5.983983">
        <ele>1870.0</ele>
        <time>2015-06-06T16:14:44Z</time>
      </trkpt>
      <trkpt lat="40.081933" lon="-5.984217">
        <ele>1871.0</ele>
        <time>2015-06-06T16:14:46Z</time>
      </trkpt>
      <trkpt lat="40.081850" lon="-5.984467">
        <ele>1875.0</ele>
        <time>2015-06-06T16:14:48Z</time>
      </trkpt>
      <trkpt lat="40.081800" lon="-5.984750">
        <ele>1878.0</ele>
        <time>2015-06-06T16:14:50Z</time>
      </trkpt>
      <trkpt lat="40.081817" lon="-5.985117">
        <ele>1882.0</ele>
        <time>2015-06-06T16:14:52Z</time>
      </trkpt>
      <trkpt lat="40.081917" lon="-5.985400">
        <ele>1887.0</ele>
        <time>2015-06-06T16:14:54Z</time>
      </trkpt>
      <trkpt lat="40.082050" lon="-5.985583">
        <ele>1890.0</ele>
        <time>2015-06-06T16:14:56Z</time>
      </trkpt>
      <trkpt lat="40.082250" lon="-5.985700">
        <ele>1888.0</ele>
        <time>2015-06-06T16:14:58Z</time>
      </trkpt>
      <trkpt lat="40.082450" lon="-5.985650">
        <ele>1887.0</ele>
        <time>2015-06-06T16:15:00Z</time>
      </trkpt>
      <trkpt lat="40.082567" lon="-5.985533">
        <ele>1888.0</ele>
        <time>2015-06-06T16:15:02Z</time>
      </trkpt>
      <trkpt lat="40.082617" lon="-5.985400">
        <ele>1890.0</ele>
        <time>2015-06-06T16:15:04Z</time>
      </trkpt>
      <trkpt lat="40.082617" lon="-5.985267">
        <ele>1891.0</ele>
        <time>2015-06-06T16:15:06Z</time>
      </trkpt>
      <trkpt lat="40.082550" lon="-5.985217">
        <ele>1894.0</ele>
        <time>2015-06-06T16:15:08Z</time>
      </trkpt>
      <trkpt lat="40.082467" lon="-5.985233">
        <ele>1896.0</ele>
        <time>2015-06-06T16:15:10Z</time>
      </trkpt>
      <trkpt lat="40.082317" lon="-5.985317">
        <ele>1896.0</ele>
        <time>2015-06-06T16:15:12Z</time>
      </trkpt>
      <trkpt lat="40.082150" lon="-5.985500">
        <ele>1897.0</ele>
        <time>2015-06-06T16:15:14Z</time>
      </trkpt>
      <trkpt lat="40.082050" lon="-5.985750">
        <ele>1903.0</ele>
        <time>2015-06-06T16:15:16Z</time>
      </trkpt>
      <trkpt lat="40.082000" lon="-5.986017">
        <ele>1907.0</ele>
        <time>2015-06-06T16:15:18Z</time>
      </trkpt>
      <trkpt lat="40.082000" lon="-5.986350">
        <ele>1907.0</ele>
        <time>2015-06-06T16:15:20Z</time>
      </trkpt>
      <trkpt lat="40.082133" lon="-5.986650">
        <ele>1908.0</ele>
        <time>2015-06-06T16:15:22Z</time>
      </trkpt>
      <trkpt lat="40.082317" lon="-5.986800">
        <ele>1908.0</ele>
        <time>2015-06-06T16:15:24Z</time>
      </trkpt>
      <trkpt lat="40.082517" lon="-5.986850">
        <ele>1908.0</ele>
        <time>2015-06-06T16:15:26Z</time>
      </trkpt>
      <trkpt lat="40.082683" lon="-5.986750">
        <ele>1906.0</ele>
        <time>2015-06-06T16:15:28Z</time>
      </trkpt>
      <trkpt lat="40.082783" lon="-5.986617">
        <ele>1907.0</ele>
        <time>2015-06-06T16:15:30Z</time>
      </trkpt>
      <trkpt lat="40.082800" lon="-5.986500">
        <ele>1910.0</ele>
        <time>2015-06-06T16:15:32Z</time>
      </trkpt>
      <trkpt lat="40.082733" lon="-5.986400">
        <ele>1910.0</ele>
        <time>2015-06-06T16:15:34Z</time>
      </trkpt>
      <trkpt lat="40.082617" lon="-5.986400">
        <ele>1913.0</ele>
        <time>2015-06-06T16:15:36Z</time>
      </trkpt>
      <trkpt lat="40.082483" lon="-5.986467">
        <ele>1917.0</ele>
        <time>2015-06-06T16:15:38Z</time>
      </trkpt>
      <trkpt lat="40.082367" lon="-5.986583">
        <ele>1919.0</ele>
        <time>2015-06-06T16:15:40Z</time>
      </trkpt>
      <trkpt lat="40.082233" lon="-5.986800">
        <ele>1918.0</ele>
        <time>2015-06-06T16:15:42Z</time>
      </trkpt>
      <trkpt lat="40.082133" lon="-5.987050">
        <ele>1919.0</ele>
        <time>2015-06-06T16:15:44Z</time>
      </trkpt>
      <trkpt lat="40.082083" lon="-5.987267">
        <ele>1924.0</ele>
        <time>2015-06-06T16:15:46Z</time>
      </trkpt>
      <trkpt lat="40.082117" lon="-5.987517">
        <ele>1923.0</ele>
        <time>2015-06-06T16:15:48Z</time>
      </trkpt>
      <trkpt lat="40.082217" lon="-5.987800">
        <ele>1919.0</ele>
        <time>2015-06-06T16:15:50Z</time>
      </trkpt>
      <trkpt lat="40.082417" lon="-5.987983">
        <ele>1919.0</ele>
        <time>2015-06-06T16:15:52Z</time>
      </trkpt>
      <trkpt lat="40.082617" lon="-5.988033">
        <ele>1917.0</ele>
        <time>2015-06-06T16:15:54Z</time>
      </trkpt>
      <trkpt lat="40.082817" lon="-5.988000">
        <ele>1914.0</ele>
        <time>2015-06-06T16:15:56Z</time>
      </trkpt>
      <trkpt lat="40.082967" lon="-5.987867">
        <ele>1912.0</ele>
        <time>2015-06-06T16:15:58Z</time>
      </trkpt>
      <trkpt lat="40.083017" lon="-5.987700">
        <ele>1913.0</ele>
        <time>2015-06-06T16:16:00Z</time>
      </trkpt>
      <trkpt lat="40.083017" lon="-5.987583">
        <ele>1915.0</ele>
        <time>2015-06-06T16:16:02Z</time>
      </trkpt>
      <trkpt lat="40.082950" lon="-5.987467">
        <ele>1914.0</ele>
        <time>2015-06-06T16:16:04Z</time>
      </trkpt>
      <trkpt lat="40.082817" lon="-5.987383">
        <ele>1914.0</ele>
        <time>2015-06-06T16:16:06Z</time>
      </trkpt>
      <trkpt lat="40.082683" lon="-5.987400">
        <ele>1916.0</ele>
        <time>2015-06-06T16:16:08Z</time>
      </trkpt>
      <trkpt lat="40.082567" lon="-5.987533">
        <ele>1917.0</ele>
        <time>2015-06-06T16:16:10Z</time>
      </trkpt>
      <trkpt lat="40.082433" lon="-5.987717">
        <ele>1917.0</ele>
        <time>2015-06-06T16:16:12Z</time>
      </trkpt>
      <trkpt lat="40.082283" lon="-5.987883">
        <ele>1923.0</ele>
        <time>2015-06-06T16:16:14Z</time>
      </trkpt>
      <trkpt lat="40.082183" lon="-5.988050">
        <ele>1930.0</ele>
        <time>2015-06-06T16:16:16Z</time>
      </trkpt>
      <trkpt lat="40.082150" lon="-5.988300">
        <ele>1934.0</ele>
        <time>2015-06-06T16:16:18Z</time>
      </trkpt>
      <trkpt lat="40.082183" lon="-5.988600">
        <ele>1936.0</ele>
        <time>2015-06-06T16:16:20Z</time>
      </trkpt>
      <trkpt lat="40.082317" lon="-5.988817">
        <ele>1941.0</ele>
        <time>2015-06-06T16:16:22Z</time>
      </trkpt>
      <trkpt lat="40.082483" lon="-5.988933">
        <ele>1944.0</ele>
        <time>2015-06-06T16:16:24Z</time>
      </trkpt>
      <trkpt lat="40.082667" lon="-5.988983">
        <ele>1944.0</ele>
        <time>2015-06-06T16:16:26Z</time>
      </trkpt>
      <trkpt lat="40.082850" lon="-5.988867">
        <ele>1940.0</ele>
        <time>2015-06-06T16:16:28Z</time>
      </trkpt>
      <trkpt lat="40.082883" lon="-5.988667">
        <ele>1938.0</ele>
        <time>2015-06-06T16:16:30Z</time>
      </trkpt>
      <trkpt lat="40.082817" lon="-5.988550">
        <ele>1938.0</ele>
        <time>2015-06-06T16:16:32Z</time>
      </trkpt>
      <trkpt lat="40.082700" lon="-5.988467">
        <ele>1940.0</ele>
        <time>2015-06-06T16:16:34Z</time>
      </trkpt>
      <trkpt lat="40.082550" lon="-5.988450">
        <ele>1942.0</ele>
        <time>2015-06-06T16:16:36Z</time>
      </trkpt>
      <trkpt lat="40.082383" lon="-5.988483">
        <ele>1947.0</ele>
        <time>2015-06-06T16:16:38Z</time>
      </trkpt>
      <trkpt lat="40.082267" lon="-5.988533">
        <ele>1955.0</ele>
        <time>2015-06-06T16:16:40Z</time>
      </trkpt>
      <trkpt lat="40.082150" lon="-5.988633">
        <ele>1957.0</ele>
        <time>2015-06-06T16:16:42Z</time>
      </trkpt>
      <trkpt lat="40.082033" lon="-5.988883">
        <ele>1959.0</ele>
        <time>2015-06-06T16:16:44Z</time>
      </trkpt>
      <trkpt lat="40.082017" lon="-5.989183">
        <ele>1963.0</ele>
        <time>2015-06-06T16:16:46Z</time>
      </trkpt>
      <trkpt lat="40.082117" lon="-5.989400">
        <ele>1969.0</ele>
        <time>2015-06-06T16:16:48Z</time>
      </trkpt>
      <trkpt lat="40.082267" lon="-5.989567">
        <ele>1972.0</ele>
        <time>2015-06-06T16:16:50Z</time>
      </trkpt>
      <trkpt lat="40.082483" lon="-5.989617">
        <ele>1975.0</ele>
        <time>2015-06-06T16:16:52Z</time>
      </trkpt>
      <trkpt lat="40.082650" lon="-5.989483">
        <ele>1977.0</ele>
        <time>2015-06-06T16:16:54Z</time>
      </trkpt>
      <trkpt lat="40.082733" lon="-5.989333">
        <ele>1984.0</ele>
        <time>2015-06-06T16:16:56Z</time>
      </trkpt>
      <trkpt lat="40.082783" lon="-5.989183">
        <ele>1990.0</ele>
        <time>2015-06-06T16:16:58Z</time>
      </trkpt>
      <trkpt lat="40.082750" lon="-5.989033">
        <ele>1995.0</ele>
        <time>2015-06-06T16:17:00Z</time>
      </trkpt>
      <trkpt lat="40.082617" lon="-5.988983">
        <ele>1997.0</ele>
        <time>2015-06-06T16:17:02Z</time>
      </trkpt>
      <trkpt lat="40.082467" lon="-5.989050">
        <ele>2000.0</ele>
        <time>2015-06-06T16:17:04Z</time>
      </trkpt>
      <trkpt lat="40.082317" lon="-5.989217">
        <ele>2002.0</ele>
        <time>2015-06-06T16:17:06Z</time>
      </trkpt>
      <trkpt lat="40.082217" lon="-5.989450">
        <ele>2003.0</ele>
        <time>2015-06-06T16:17:08Z</time>
      </trkpt>
      <trkpt lat="40.082150" lon="-5.989717">
        <ele>2006.0</ele>
        <time>2015-06-06T16:17:10Z</time>
      </trkpt>
      <trkpt lat="40.082167" lon="-5.990000">
        <ele>2008.0</ele>
        <time>2015-06-06T16:17:12Z</time>
      </trkpt>
      <trkpt lat="40.082283" lon="-5.990267">
        <ele>2008.0</ele>
        <time>2015-06-06T16:17:14Z</time>
      </trkpt>
      <trkpt lat="40.082517" lon="-5.990383">
        <ele>2007.0</ele>
        <time>2015-06-06T16:17:16Z</time>
      </trkpt>
      <trkpt lat="40.082700" lon="-5.990300">
        <ele>2009.0</ele>
        <time>2015-06-06T16:17:18Z</time>
      </trkpt>
      <trkpt lat="40.082817" lon="-5.990200">
        <ele>2013.0</ele>
        <time>2015-06-06T16:17:20Z</time>
      </trkpt>
      <trkpt lat="40.082850" lon="-5.990033">
        <ele>2014.0</ele>
        <time>2015-06-06T16:17:22Z</time>
      </trkpt>
      <trkpt lat="40.082800" lon="-5.989850">
        <ele>2014.0</ele>
        <time>2015-06-06T16:17:24Z</time>
      </trkpt>
      <trkpt lat="40.082650" lon="-5.989817">
        <ele>2019.0</ele>
        <time>2015-06-06T16:17:26Z</time>
      </trkpt>
      <trkpt lat="40.082533" lon="-5.989867">
        <ele>2022.0</ele>
        <time>2015-06-06T16:17:28Z</time>
      </trkpt>
      <trkpt lat="40.082400" lon="-5.989967">
        <ele>2020.0</ele>
        <time>2015-06-06T16:17:30Z</time>
      </trkpt>
      <trkpt lat="40.082233" lon="-5.990167">
        <ele>2016.0</ele>
        <time>2015-06-06T16:17:32Z</time>
      </trkpt>
      <trkpt lat="40.082133" lon="-5.990417">
        <ele>2017.0</ele>
        <time>2015-06-06T16:17:34Z</time>
      </trkpt>
      <trkpt lat="40.082100" lon="-5.990700">
        <ele>2017.0</ele>
        <time>2015-06-06T16:17:36Z</time>
      </trkpt>
      <trkpt lat="40.082133" lon="-5.991033">
        <ele>2013.0</ele>
        <time>2015-06-06T16:17:38Z</time>
      </trkpt>
      <trkpt lat="40.082300" lon="-5.991350">
        <ele>2010.0</ele>
        <time>2015-06-06T16:17:40Z</time>
      </trkpt>
      <trkpt lat="40.082517" lon="-5.991533">
        <ele>2012.0</ele>
        <time>2015-06-06T16:17:42Z</time>
      </trkpt>
      <trkpt lat="40.082717" lon="-5.991617">
        <ele>2015.0</ele>
        <time>2015-06-06T16:17:44Z</time>
      </trkpt>
      <trkpt lat="40.082883" lon="-5.991583">
        <ele>2019.0</ele>
        <time>2015-06-06T16:17:46Z</time>
      </trkpt>
      <trkpt lat="40.082950" lon="-5.991417">
        <ele>2021.0</ele>
        <time>2015-06-06T16:17:48Z</time>
      </trkpt>
      <trkpt lat="40.082917" lon="-5.991300">
        <ele>2025.0</ele>
        <time>2015-06-06T16:17:50Z</time>
      </trkpt>
      <trkpt lat="40.082817" lon="-5.991267">
        <ele>2026.0</ele>
        <time>2015-06-06T16:17:52Z</time>
      </trkpt>
      <trkpt lat="40.082650" lon="-5.991383">
        <ele>2023.0</ele>
        <time>2015-06-06T16:17:54Z</time>
      </trkpt>
      <trkpt lat="40.082517" lon="-5.991583">
        <ele>2024.0</ele>
        <time>2015-06-06T16:17:56Z</time>
      </trkpt>
      <trkpt lat="40.082450" lon="-5.991833">
        <ele>2025.0</ele>
        <time>2015-06-06T16:17:58Z</time>
      </trkpt>
      <trkpt lat="40.082417" lon="-5.992133">
        <ele>2023.0</ele>
        <time>2015-06-06T16:18:00Z</time>
      </trkpt>
      <trkpt lat="40.082500" lon="-5.992483">
        <ele>2020.0</ele>
        <time>2015-06-06T16:18:02Z</time>
      </trkpt>
      <trkpt lat="40.082683" lon="-5.992750">
        <ele>2020.0</ele>
        <time>2015-06-06T16:18:04Z</time>
      </trkpt>
      <trkpt lat="40.082900" lon="-5.992900">
        <ele>2022.0</ele>
        <time>2015-06-06T16:18:06Z</time>
      </trkpt>
      <trkpt lat="40.083117" lon="-5.992950">
        <ele>2023.0</ele>
        <time>2015-06-06T16:18:08Z</time>
      </trkpt>
      <trkpt lat="40.083267" lon="-5.992883">
        <ele>2024.0</ele>
        <time>2015-06-06T16:18:10Z</time>
      </trkpt>
      <trkpt lat="40.083317" lon="-5.992767">
        <ele>2026.0</ele>
        <time>2015-06-06T16:18:12Z</time>
      </trkpt>
      <trkpt lat="40.083267" lon="-5.992700">
        <ele>2026.0</ele>
        <time>2015-06-06T16:18:14Z</time>
      </trkpt>
      <trkpt lat="40.083150" lon="-5.992683">
        <ele>2025.0</ele>
        <time>2015-06-06T16:18:16Z</time>
      </trkpt>
      <trkpt lat="40.083017" lon="-5.992767">
        <ele>2024.0</ele>
        <time>2015-06-06T16:18:18Z</time>
      </trkpt>
      <trkpt lat="40.082917" lon="-5.992950">
        <ele>2025.0</ele>
        <time>2015-06-06T16:18:20Z</time>
      </trkpt>
      <trkpt lat="40.082850" lon="-5.993183">
        <ele>2023.0</ele>
        <time>2015-06-06T16:18:22Z</time>
      </trkpt>
      <trkpt lat="40.082800" lon="-5.993467">
        <ele>2021.0</ele>
        <time>2015-06-06T16:18:24Z</time>
      </trkpt>
      <trkpt lat="40.082783" lon="-5.993800">
        <ele>2021.0</ele>
        <time>2015-06-06T16:18:26Z</time>
      </trkpt>
      <trkpt lat="40.082800" lon="-5.994117">
        <ele>2021.0</ele>
        <time>2015-06-06T16:18:28Z</time>
      </trkpt>
      <trkpt lat="40.082883" lon="-5.994450">
        <ele>2020.0</ele>
        <time>2015-06-06T16:18:30Z</time>
      </trkpt>
      <trkpt lat="40.083017" lon="-5.994783">
        <ele>2018.0</ele>
        <time>2015-06-06T16:18:32Z</time>
      </trkpt>
      <trkpt lat="40.083200" lon="-5.995083">
        <ele>2017.0</ele>
        <time>2015-06-06T16:18:34Z</time>
      </trkpt>
      <trkpt lat="40.083400" lon="-5.995300">
        <ele>2017.0</ele>
        <time>2015-06-06T16:18:36Z</time>
      </trkpt>
      <trkpt lat="40.083633" lon="-5.995417">
        <ele>2015.0</ele>
        <time>2015-06-06T16:18:38Z</time>
      </trkpt>
      <trkpt lat="40.083867" lon="-5.995417">
        <ele>2014.0</ele>
        <time>2015-06-06T16:18:40Z</time>
      </trkpt>
      <trkpt lat="40.084000" lon="-5.995300">
        <ele>2014.0</ele>
        <time>2015-06-06T16:18:42Z</time>
      </trkpt>
      <trkpt lat="40.084017" lon="-5.995200">
        <ele>2013.0</ele>
        <time>2015-06-06T16:18:44Z</time>
      </trkpt>
      <trkpt lat="40.084000" lon="-5.995117">
        <ele>2012.0</ele>
        <time>2015-06-06T16:18:46Z</time>
      </trkpt>
      <trkpt lat="40.084000" lon="-5.995017">
        <ele>2010.0</ele>
        <time>2015-06-06T16:18:48Z</time>
      </trkpt>
      <trkpt lat="40.083950" lon="-5.994950">
        <ele>2009.0</ele>
        <time>2015-06-06T16:18:50Z</time>
      </trkpt>
      <trkpt lat="40.083850" lon="-5.994967">
        <ele>2006.0</ele>
        <time>2015-06-06T16:18:52Z</time>
      </trkpt>
      <trkpt lat="40.083717" lon="-5.995033">
        <ele>2003.0</ele>
        <time>2015-06-06T16:18:54Z</time>
      </trkpt>
      <trkpt lat="40.083583" lon="-5.995200">
        <ele>2000.0</ele>
        <time>2015-06-06T16:18:56Z</time>
      </trkpt>
      <trkpt lat="40.083433" lon="-5.995350">
        <ele>2000.0</ele>
        <time>2015-06-06T16:18:58Z</time>
      </trkpt>
      <trkpt lat="40.083333" lon="-5.995500">
        <ele>2002.0</ele>
        <time>2015-06-06T16:19:00Z</time>
      </trkpt>
      <trkpt lat="40.083217" lon="-5.995667">
        <ele>2002.0</ele>
        <time>2015-06-06T16:19:02Z</time>
      </trkpt>
      <trkpt lat="40.083100" lon="-5.995833">
        <ele>2000.0</ele>
        <time>2015-06-06T16:19:04Z</time>
      </trkpt>
      <trkpt lat="40.082950" lon="-5.996033">
        <ele>1998.0</ele>
        <time>2015-06-06T16:19:06Z</time>
      </trkpt>
      <trkpt lat="40.082783" lon="-5.996267">
        <ele>2000.0</ele>
        <time>2015-06-06T16:19:08Z</time>
      </trkpt>
      <trkpt lat="40.082667" lon="-5.996450">
        <ele>2008.0</ele>
        <time>2015-06-06T16:19:10Z</time>
      </trkpt>
      <trkpt lat="40.082583" lon="-5.996600">
        <ele>2012.0</ele>
        <time>2015-06-06T16:19:12Z</time>
      </trkpt>
      <trkpt lat="40.082533" lon="-5.996883">
        <ele>2013.0</ele>
        <time>2015-06-06T16:19:14Z</time>
      </trkpt>
      <trkpt lat="40.082583" lon="-5.997217">
        <ele>2013.0</ele>
        <time>2015-06-06T16:19:16Z</time>
      </trkpt>
      <trkpt lat="40.082733" lon="-5.997467">
        <ele>2016.0</ele>
        <time>2015-06-06T16:19:18Z</time>
      </trkpt>
      <trkpt lat="40.082933" lon="-5.997633">
        <ele>2017.0</ele>
        <time>2015-06-06T16:19:20Z</time>
      </trkpt>
      <trkpt lat="40.083150" lon="-5.997700">
        <ele>2018.0</ele>
        <time>2015-06-06T16:19:22Z</time>
      </trkpt>
      <trkpt lat="40.083333" lon="-5.997617">
        <ele>2019.0</ele>
        <time>2015-06-06T16:19:24Z</time>
      </trkpt>
      <trkpt lat="40.083400" lon="-5.997467">
        <ele>2019.0</ele>
        <time>2015-06-06T16:19:26Z</time>
      </trkpt>
      <trkpt lat="40.083417" lon="-5.997333">
        <ele>2022.0</ele>
        <time>2015-06-06T16:19:28Z</time>
      </trkpt>
      <trkpt lat="40.083350" lon="-5.997250">
        <ele>2025.0</ele>
        <time>2015-06-06T16:19:30Z</time>
      </trkpt>
      <trkpt lat="40.083200" lon="-5.997250">
        <ele>2026.0</ele>
        <time>2015-06-06T16:19:32Z</time>
      </trkpt>
      <trkpt lat="40.083067" lon="-5.997333">
        <ele>2029.0</ele>
        <time>2015-06-06T16:19:34Z</time>
      </trkpt>
      <trkpt lat="40.082950" lon="-5.997450">
        <ele>2032.0</ele>
        <time>2015-06-06T16:19:36Z</time>
      </trkpt>
      <trkpt lat="40.082817" lon="-5.997617">
        <ele>2034.0</ele>
        <time>2015-06-06T16:19:38Z</time>
      </trkpt>
      <trkpt lat="40.082733" lon="-5.997883">
        <ele>2035.0</ele>
        <time>2015-06-06T16:19:40Z</time>
      </trkpt>
      <trkpt lat="40.082717" lon="-5.998150">
        <ele>2039.0</ele>
        <time>2015-06-06T16:19:42Z</time>
      </trkpt>
      <trkpt lat="40.082767" lon="-5.998450">
        <ele>2041.0</ele>
        <time>2015-06-06T16:19:44Z</time>
      </trkpt>
      <trkpt lat="40.082900" lon="-5.998733">
        <ele>2043.0</ele>
        <time>2015-06-06T16:19:46Z</time>
      </trkpt>
      <trkpt lat="40.083100" lon="-5.998933">
        <ele>2045.0</ele>
        <time>2015-06-06T16:19:48Z</time>
      </trkpt>
      <trkpt lat="40.083317" lon="-5.999017">
        <ele>2046.0</ele>
        <time>2015-06-06T16:19:50Z</time>
      </trkpt>
      <trkpt lat="40.083533" lon="-5.998983">
        <ele>2046.0</ele>
        <time>2015-06-06T16:19:52Z</time>
      </trkpt>
      <trkpt lat="40.083683" lon="-5.998850">
        <ele>2047.0</ele>
        <time>2015-06-06T16:19:54Z</time>
      </trkpt>
      <trkpt lat="40.083733" lon="-5.998733">
        <ele>2049.0</ele>
        <time>2015-06-06T16:19:56Z</time>
      </trkpt>
      <trkpt lat="40.083717" lon="-5.998617">
        <ele>2050.0</ele>
        <time>2015-06-06T16:19:58Z</time>
      </trkpt>
      <trkpt lat="40.083633" lon="-5.998533">
        <ele>2051.0</ele>
        <time>2015-06-06T16:20:00Z</time>
      </trkpt>
      <trkpt lat="40.083500" lon="-5.998567">
        <ele>2053.0</ele>
        <time>2015-06-06T16:20:02Z</time>
      </trkpt>
      <trkpt lat="40.083383" lon="-5.998700">
        <ele>2055.0</ele>
        <time>2015-06-06T16:20:04Z</time>
      </trkpt>
      <trkpt lat="40.083267" lon="-5.998900">
        <ele>2057.0</ele>
        <time>2015-06-06T16:20:06Z</time>
      </trkpt>
      <trkpt lat="40.083183" lon="-5.999183">
        <ele>2058.0</ele>
        <time>2015-06-06T16:20:08Z</time>
      </trkpt>
      <trkpt lat="40.083183" lon="-5.999550">
        <ele>2061.0</ele>
        <time>2015-06-06T16:20:10Z</time>
      </trkpt>
      <trkpt lat="40.083250" lon="-5.999883">
        <ele>2067.0</ele>
        <time>2015-06-06T16:20:12Z</time>
      </trkpt>
      <trkpt lat="40.083400" lon="-6.000150">
        <ele>2072.0</ele>
        <time>2015-06-06T16:20:14Z</time>
      </trkpt>
      <trkpt lat="40.083617" lon="-6.000317">
        <ele>2074.0</ele>
        <time>2015-06-06T16:20:16Z</time>
      </trkpt>
      <trkpt lat="40.083833" lon="-6.000333">
        <ele>2075.0</ele>
        <time>2015-06-06T16:20:18Z</time>
      </trkpt>
      <trkpt lat="40.084000" lon="-6.000250">
        <ele>2076.0</ele>
        <time>2015-06-06T16:20:20Z</time>
      </trkpt>
      <trkpt lat="40.084067" lon="-6.000117">
        <ele>2076.0</ele>
        <time>2015-06-06T16:20:22Z</time>
      </trkpt>
      <trkpt lat="40.084033" lon="-6.000000">
        <ele>2076.0</ele>
        <time>2015-06-06T16:20:24Z</time>
      </trkpt>
      <trkpt lat="40.083917" lon="-5.999950">
        <ele>2077.0</ele>
        <time>2015-06-06T16:20:26Z</time>
      </trkpt>
      <trkpt lat="40.083800" lon="-6.000033">
        <ele>2080.0</ele>
        <time>2015-06-06T16:20:28Z</time>
      </trkpt>
      <trkpt lat="40.083667" lon="-6.000167">
        <ele>2083.0</ele>
        <time>2015-06-06T16:20:30Z</time>
      </trkpt>
      <trkpt lat="40.083567" lon="-6.000367">
        <ele>2088.0</ele>
        <time>2015-06-06T16:20:32Z</time>
      </trkpt>
      <trkpt lat="40.083483" lon="-6.000617">
        <ele>2092.0</ele>
        <time>2015-06-06T16:20:34Z</time>
      </trkpt>
      <trkpt lat="40.083467" lon="-6.000933">
        <ele>2094.0</ele>
        <time>2015-06-06T16:20:36Z</time>
      </trkpt>
      <trkpt lat="40.083533" lon="-6.001300">
        <ele>2095.0</ele>
        <time>2015-06-06T16:20:38Z</time>
      </trkpt>
      <trkpt lat="40.083683" lon="-6.001633">
        <ele>2099.0</ele>
        <time>2015-06-06T16:20:40Z</time>
      </trkpt>
      <trkpt lat="40.083883" lon="-6.001833">
        <ele>2104.0</ele>
        <time>2015-06-06T16:20:42Z</time>
      </trkpt>
      <trkpt lat="40.084083" lon="-6.001933">
        <ele>2107.0</ele>
        <time>2015-06-06T16:20:44Z</time>
      </trkpt>
      <trkpt lat="40.084300" lon="-6.001950">
        <ele>2107.0</ele>
        <time>2015-06-06T16:20:46Z</time>
      </trkpt>
      <trkpt lat="40.084450" lon="-6.001867">
        <ele>2107.0</ele>
        <time>2015-06-06T16:20:48Z</time>
      </trkpt>
      <trkpt lat="40.084517" lon="-6.001750">
        <ele>2109.0</ele>
        <time>2015-06-06T16:20:50Z</time>
      </trkpt>
      <trkpt lat="40.084483" lon="-6.001650">
        <ele>2109.0</ele>
        <time>2015-06-06T16:20:52Z</time>
      </trkpt>
      <trkpt lat="40.084383" lon="-6.001633">
        <ele>2110.0</ele>
        <time>2015-06-06T16:20:54Z</time>
      </trkpt>
      <trkpt lat="40.084267" lon="-6.001683">
        <ele>2112.0</ele>
        <time>2015-06-06T16:20:56Z</time>
      </trkpt>
      <trkpt lat="40.084150" lon="-6.001800">
        <ele>2115.0</ele>
        <time>2015-06-06T16:20:58Z</time>
      </trkpt>
      <trkpt lat="40.084050" lon="-6.001950">
        <ele>2116.0</ele>
        <time>2015-06-06T16:21:00Z</time>
      </trkpt>
      <trkpt lat="40.083917" lon="-6.002183">
        <ele>2117.0</ele>
        <time>2015-06-06T16:21:02Z</time>
      </trkpt>
      <trkpt lat="40.083817" lon="-6.002417">
        <ele>2122.0</ele>
        <time>2015-06-06T16:21:04Z</time>
      </trkpt>
      <trkpt lat="40.083767" lon="-6.002667">
        <ele>2128.0</ele>
        <time>2015-06-06T16:21:06Z</time>
      </trkpt>
      <trkpt lat="40.083750" lon="-6.002983">
        <ele>2132.0</ele>
        <time>2015-06-06T16:21:08Z</time>
      </trkpt>
      <trkpt lat="40.083850" lon="-6.003350">
        <ele>2133.0</ele>
        <time>2015-06-06T16:21:10Z</time>
      </trkpt>
      <trkpt lat="40.084017" lon="-6.003633">
        <ele>2137.0</ele>
        <time>2015-06-06T16:21:12Z</time>
      </trkpt>
      <trkpt lat="40.084200" lon="-6.003800">
        <ele>2141.0</ele>
        <time>2015-06-06T16:21:14Z</time>
      </trkpt>
      <trkpt lat="40.084417" lon="-6.003883">
        <ele>2140.0</ele>
        <time>2015-06-06T16:21:16Z</time>
      </trkpt>
      <trkpt lat="40.084617" lon="-6.003833">
        <ele>2139.0</ele>
        <time>2015-06-06T16:21:18Z</time>
      </trkpt>
      <trkpt lat="40.084733" lon="-6.003717">
        <ele>2140.0</ele>
        <time>2015-06-06T16:21:20Z</time>
      </trkpt>
      <trkpt lat="40.084783" lon="-6.003617">
        <ele>2143.0</ele>
        <time>2015-06-06T16:21:22Z</time>
      </trkpt>
      <trkpt lat="40.084767" lon="-6.003500">
        <ele>2144.0</ele>
        <time>2015-06-06T16:21:24Z</time>
      </trkpt>
      <trkpt lat="40.084667" lon="-6.003417">
        <ele>2143.0</ele>
        <time>2015-06-06T16:21:26Z</time>
      </trkpt>
      <trkpt lat="40.084550" lon="-6.003433">
        <ele>2147.0</ele>
        <time>2015-06-06T16:21:28Z</time>
      </trkpt>
      <trkpt lat="40.084417" lon="-6.003517">
        <ele>2151.0</ele>
        <time>2015-06-06T16:21:30Z</time>
      </trkpt>
      <trkpt lat="40.084300" lon="-6.003667">
        <ele>2153.0</ele>
        <time>2015-06-06T16:21:32Z</time>
      </trkpt>
      <trkpt lat="40.084200" lon="-6.003900">
        <ele>2156.0</ele>
        <time>2015-06-06T16:21:34Z</time>
      </trkpt>
      <trkpt lat="40.084133" lon="-6.004200">
        <ele>2159.0</ele>
        <time>2015-06-06T16:21:36Z</time>
      </trkpt>
      <trkpt lat="40.084167" lon="-6.004550">
        <ele>2161.0</ele>
        <time>2015-06-06T16:21:38Z</time>
      </trkpt>
      <trkpt lat="40.084333" lon="-6.004883">
        <ele>2162.0</ele>
        <time>2015-06-06T16:21:40Z</time>
      </trkpt>
      <trkpt lat="40.084533" lon="-6.005117">
        <ele>2169.0</ele>
        <time>2015-06-06T16:21:42Z</time>
      </trkpt>
      <trkpt lat="40.084717" lon="-6.005267">
        <ele>2174.0</ele>
        <time>2015-06-06T16:21:44Z</time>
      </trkpt>
      <trkpt lat="40.084950" lon="-6.005317">
        <ele>2173.0</ele>
        <time>2015-06-06T16:21:46Z</time>
      </trkpt>
      <trkpt lat="40.085150" lon="-6.005283">
        <ele>2172.0</ele>
        <time>2015-06-06T16:21:48Z</time>
      </trkpt>
      <trkpt lat="40.085267" lon="-6.005150">
        <ele>2172.0</ele>
        <time>2015-06-06T16:21:50Z</time>
      </trkpt>
      <trkpt lat="40.085283" lon="-6.005017">
        <ele>2173.0</ele>
        <time>2015-06-06T16:21:52Z</time>
      </trkpt>
      <trkpt lat="40.085250" lon="-6.004917">
        <ele>2174.0</ele>
        <time>2015-06-06T16:21:54Z</time>
      </trkpt>
      <trkpt lat="40.085133" lon="-6.004883">
        <ele>2174.0</ele>
        <time>2015-06-06T16:21:56Z</time>
      </trkpt>
      <trkpt lat="40.084967" lon="-6.004983">
        <ele>2174.0</ele>
        <time>2015-06-06T16:21:58Z</time>
      </trkpt>
      <trkpt lat="40.084850" lon="-6.005133">
        <ele>2179.0</ele>
        <time>2015-06-06T16:22:00Z</time>
      </trkpt>
      <trkpt lat="40.084733" lon="-6.005317">
        <ele>2182.0</ele>
        <time>2015-06-06T16:22:02Z</time>
      </trkpt>
      <trkpt lat="40.084650" lon="-6.005583">
        <ele>2183.0</ele>
        <time>2015-06-06T16:22:04Z</time>
      </trkpt>
      <trkpt lat="40.084667" lon="-6.005933">
        <ele>2185.0</ele>
        <time>2015-06-06T16:22:06Z</time>
      </trkpt>
      <trkpt lat="40.084767" lon="-6.006267">
        <ele>2187.0</ele>
        <time>2015-06-06T16:22:08Z</time>
      </trkpt>
      <trkpt lat="40.084933" lon="-6.006550">
        <ele>2189.0</ele>
        <time>2015-06-06T16:22:10Z</time>
      </trkpt>
      <trkpt lat="40.085183" lon="-6.006717">
        <ele>2189.0</ele>
        <time>2015-06-06T16:22:12Z</time>
      </trkpt>
      <trkpt lat="40.085417" lon="-6.006750">
        <ele>2192.0</ele>
        <time>2015-06-06T16:22:14Z</time>
      </trkpt>
      <trkpt lat="40.085583" lon="-6.006717">
        <ele>2195.0</ele>
        <time>2015-06-06T16:22:16Z</time>
      </trkpt>
      <trkpt lat="40.085700" lon="-6.006617">
        <ele>2195.0</ele>
        <time>2015-06-06T16:22:18Z</time>
      </trkpt>
      <trkpt lat="40.085750" lon="-6.006467">
        <ele>2194.0</ele>
        <time>2015-06-06T16:22:20Z</time>
      </trkpt>
      <trkpt lat="40.085683" lon="-6.006367">
        <ele>2194.0</ele>
        <time>2015-06-06T16:22:22Z</time>
      </trkpt>
      <trkpt lat="40.085583" lon="-6.006317">
        <ele>2196.0</ele>
        <time>2015-06-06T16:22:24Z</time>
      </trkpt>
      <trkpt lat="40.085467" lon="-6.006317">
        <ele>2197.0</ele>
        <time>2015-06-06T16:22:26Z</time>
      </trkpt>
      <trkpt lat="40.085317" lon="-6.006417">
        <ele>2197.0</ele>
        <time>2015-06-06T16:22:28Z</time>
      </trkpt>
      <trkpt lat="40.085183" lon="-6.006567">
        <ele>2199.0</ele>
        <time>2015-06-06T16:22:30Z</time>
      </trkpt>
      <trkpt lat="40.085083" lon="-6.006750">
        <ele>2203.0</ele>
        <time>2015-06-06T16:22:32Z</time>
      </trkpt>
      <trkpt lat="40.085033" lon="-6.007017">
        <ele>2205.0</ele>
        <time>2015-06-06T16:22:34Z</time>
      </trkpt>
      <trkpt lat="40.085017" lon="-6.007317">
        <ele>2205.0</ele>
        <time>2015-06-06T16:22:36Z</time>
      </trkpt>
      <trkpt lat="40.085017" lon="-6.007650">
        <ele>2207.0</ele>
        <time>2015-06-06T16:22:38Z</time>
      </trkpt>
      <trkpt lat="40.085100" lon="-6.007983">
        <ele>2207.0</ele>
        <time>2015-06-06T16:22:40Z</time>
      </trkpt>
      <trkpt lat="40.085300" lon="-6.008267">
        <ele>2206.0</ele>
        <time>2015-06-06T16:22:42Z</time>
      </trkpt>
      <trkpt lat="40.085533" lon="-6.008367">
        <ele>2208.0</ele>
        <time>2015-06-06T16:22:44Z</time>
      </trkpt>
      <trkpt lat="40.085733" lon="-6.008383">
        <ele>2211.0</ele>
        <time>2015-06-06T16:22:46Z</time>
      </trkpt>
      <trkpt lat="40.085883" lon="-6.008317">
        <ele>2212.0</ele>
        <time>2015-06-06T16:22:48Z</time>
      </trkpt>
      <trkpt lat="40.085950" lon="-6.008183">
        <ele>2212.0</ele>
        <time>2015-06-06T16:22:50Z</time>
      </trkpt>
      <trkpt lat="40.085900" lon="-6.008083">
        <ele>2213.0</ele>
        <time>2015-06-06T16:22:52Z</time>
      </trkpt>
      <trkpt lat="40.085783" lon="-6.008067">
        <ele>2214.0</ele>
        <time>2015-06-06T16:22:54Z</time>
      </trkpt>
      <trkpt lat="40.085650" lon="-6.008150">
        <ele>2215.0</ele>
        <time>2015-06-06T16:22:56Z</time>
      </trkpt>
      <trkpt lat="40.085533" lon="-6.008300">
        <ele>2217.0</ele>
        <time>2015-06-06T16:22:58Z</time>
      </trkpt>
      <trkpt lat="40.085433" lon="-6.008483">
        <ele>2218.0</ele>
        <time>2015-06-06T16:23:00Z</time>
      </trkpt>
      <trkpt lat="40.085367" lon="-6.008750">
        <ele>2217.0</ele>
        <time>2015-06-06T16:23:02Z</time>
      </trkpt>
      <trkpt lat="40.085367" lon="-6.009067">
        <ele>2215.0</ele>
        <time>2015-06-06T16:23:04Z</time>
      </trkpt>
      <trkpt lat="40.085417" lon="-6.009417">
        <ele>2213.0</ele>
        <time>2015-06-06T16:23:06Z</time>
      </trkpt>
      <trkpt lat="40.085550" lon="-6.009733">
        <ele>2212.0</ele>
        <time>2015-06-06T16:23:08Z</time>
      </trkpt>
      <trkpt lat="40.085767" lon="-6.010017">
        <ele>2209.0</ele>
        <time>2015-06-06T16:23:10Z</time>
      </trkpt>
      <trkpt lat="40.086017" lon="-6.010150">
        <ele>2209.0</ele>
        <time>2015-06-06T16:23:12Z</time>
      </trkpt>
      <trkpt lat="40.086233" lon="-6.010133">
        <ele>2209.0</ele>
        <time>2015-06-06T16:23:14Z</time>
      </trkpt>
      <trkpt lat="40.086367" lon="-6.010050">
        <ele>2211.0</ele>
        <time>2015-06-06T16:23:16Z</time>
      </trkpt>
      <trkpt lat="40.086450" lon="-6.009950">
        <ele>2212.0</ele>
        <time>2015-06-06T16:23:18Z</time>
      </trkpt>
      <trkpt lat="40.086467" lon="-6.009833">
        <ele>2211.0</ele>
        <time>2015-06-06T16:23:20Z</time>
      </trkpt>
      <trkpt lat="40.086383" lon="-6.009750">
        <ele>2211.0</ele>
        <time>2015-06-06T16:23:22Z</time>
      </trkpt>
      <trkpt lat="40.086267" lon="-6.009767">
        <ele>2212.0</ele>
        <time>2015-06-06T16:23:24Z</time>
      </trkpt>
      <trkpt lat="40.086117" lon="-6.009883">
        <ele>2211.0</ele>
        <time>2015-06-06T16:23:26Z</time>
      </trkpt>
      <trkpt lat="40.085983" lon="-6.010050">
        <ele>2210.0</ele>
        <time>2015-06-06T16:23:28Z</time>
      </trkpt>
      <trkpt lat="40.085833" lon="-6.010217">
        <ele>2208.0</ele>
        <time>2015-06-06T16:23:30Z</time>
      </trkpt>
      <trkpt lat="40.085683" lon="-6.010367">
        <ele>2208.0</ele>
        <time>2015-06-06T16:23:32Z</time>
      </trkpt>
      <trkpt lat="40.085550" lon="-6.010517">
        <ele>2210.0</ele>
        <time>2015-06-06T16:23:34Z</time>
      </trkpt>
      <trkpt lat="40.085433" lon="-6.010633">
        <ele>2211.0</ele>
        <time>2015-06-06T16:23:36Z</time>
      </trkpt>
      <trkpt lat="40.085300" lon="-6.010750">
        <ele>2211.0</ele>
        <time>2015-06-06T16:23:38Z</time>
      </trkpt>
      <trkpt lat="40.085183" lon="-6.010883">
        <ele>2210.0</ele>
        <time>2015-06-06T16:23:40Z</time>
      </trkpt>
      <trkpt lat="40.085067" lon="-6.011050">
        <ele>2212.0</ele>
        <time>2015-06-06T16:23:42Z</time>
      </trkpt>
      <trkpt lat="40.084950" lon="-6.011233">
        <ele>2211.0</ele>
        <time>2015-06-06T16:23:44Z</time>
      </trkpt>
      <trkpt lat="40.084817" lon="-6.011417">
        <ele>2209.0</ele>
        <time>2015-06-06T16:23:46Z</time>
      </trkpt>
      <trkpt lat="40.084683" lon="-6.011600">
        <ele>2209.0</ele>
        <time>2015-06-06T16:23:48Z</time>
      </trkpt>
      <trkpt lat="40.084567" lon="-6.011800">
        <ele>2208.0</ele>
        <time>2015-06-06T16:23:50Z</time>
      </trkpt>
      <trkpt lat="40.084433" lon="-6.012000">
        <ele>2207.0</ele>
        <time>2015-06-06T16:23:52Z</time>
      </trkpt>
      <trkpt lat="40.084300" lon="-6.012200">
        <ele>2206.0</ele>
        <time>2015-06-06T16:23:54Z</time>
      </trkpt>
      <trkpt lat="40.084150" lon="-6.012383">
        <ele>2207.0</ele>
        <time>2015-06-06T16:23:56Z</time>
      </trkpt>
      <trkpt lat="40.084033" lon="-6.012550">
        <ele>2209.0</ele>
        <time>2015-06-06T16:23:58Z</time>
      </trkpt>
      <trkpt lat="40.083933" lon="-6.012733">
        <ele>2210.0</ele>
        <time>2015-06-06T16:24:00Z</time>
      </trkpt>
      <trkpt lat="40.083850" lon="-6.013000">
        <ele>2209.0</ele>
        <time>2015-06-06T16:24:02Z</time>
      </trkpt>
      <trkpt lat="40.083750" lon="-6.013300">
        <ele>2208.0</ele>
        <time>2015-06-06T16:24:04Z</time>
      </trkpt>
      <trkpt lat="40.083633" lon="-6.013550">
        <ele>2207.0</ele>
        <time>2015-06-06T16:24:06Z</time>
      </trkpt>
      <trkpt lat="40.083533" lon="-6.013783">
        <ele>2206.0</ele>
        <time>2015-06-06T16:24:08Z</time>
      </trkpt>
      <trkpt lat="40.083400" lon="-6.014033">
        <ele>2203.0</ele>
        <time>2015-06-06T16:24:10Z</time>
      </trkpt>
      <trkpt lat="40.083267" lon="-6.014283">
        <ele>2201.0</ele>
        <time>2015-06-06T16:24:12Z</time>
      </trkpt>
      <trkpt lat="40.083167" lon="-6.014533">
        <ele>2201.0</ele>
        <time>2015-06-06T16:24:14Z</time>
      </trkpt>
      <trkpt lat="40.083033" lon="-6.014783">
        <ele>2199.0</ele>
        <time>2015-06-06T16:24:16Z</time>
      </trkpt>
      <trkpt lat="40.082917" lon="-6.015050">
        <ele>2197.0</ele>
        <time>2015-06-06T16:24:18Z</time>
      </trkpt>
      <trkpt lat="40.082800" lon="-6.015300">
        <ele>2197.0</ele>
        <time>2015-06-06T16:24:20Z</time>
      </trkpt>
      <trkpt lat="40.082683" lon="-6.015567">
        <ele>2195.0</ele>
        <time>2015-06-06T16:24:22Z</time>
      </trkpt>
      <trkpt lat="40.082550" lon="-6.015833">
        <ele>2192.0</ele>
        <time>2015-06-06T16:24:24Z</time>
      </trkpt>
      <trkpt lat="40.082433" lon="-6.016067">
        <ele>2190.0</ele>
        <time>2015-06-06T16:24:26Z</time>
      </trkpt>
      <trkpt lat="40.082300" lon="-6.016233">
        <ele>2188.0</ele>
        <time>2015-06-06T16:24:28Z</time>
      </trkpt>
      <trkpt lat="40.082150" lon="-6.016400">
        <ele>2186.0</ele>
        <time>2015-06-06T16:24:30Z</time>
      </trkpt>
      <trkpt lat="40.082050" lon="-6.016600">
        <ele>2184.0</ele>
        <time>2015-06-06T16:24:32Z</time>
      </trkpt>
      <trkpt lat="40.081917" lon="-6.016833">
        <ele>2181.0</ele>
        <time>2015-06-06T16:24:34Z</time>
      </trkpt>
      <trkpt lat="40.081783" lon="-6.017083">
        <ele>2178.0</ele>
        <time>2015-06-06T16:24:36Z</time>
      </trkpt>
      <trkpt lat="40.081683" lon="-6.017317">
        <ele>2178.0</ele>
        <time>2015-06-06T16:24:38Z</time>
      </trkpt>
      <trkpt lat="40.081617" lon="-6.017550">
        <ele>2177.0</ele>
        <time>2015-06-06T16:24:40Z</time>
      </trkpt>
      <trkpt lat="40.081533" lon="-6.017817">
        <ele>2173.0</ele>
        <time>2015-06-06T16:24:42Z</time>
      </trkpt>
      <trkpt lat="40.081467" lon="-6.018133">
        <ele>2170.0</ele>
        <time>2015-06-06T16:24:44Z</time>
      </trkpt>
      <trkpt lat="40.081400" lon="-6.018417">
        <ele>2169.0</ele>
        <time>2015-06-06T16:24:46Z</time>
      </trkpt>
      <trkpt lat="40.081317" lon="-6.018683">
        <ele>2167.0</ele>
        <time>2015-06-06T16:24:48Z</time>
      </trkpt>
      <trkpt lat="40.081233" lon="-6.018967">
        <ele>2162.0</ele>
        <time>2015-06-06T16:24:50Z</time>
      </trkpt>
      <trkpt lat="40.081133" lon="-6.019250">
        <ele>2158.0</ele>
        <time>2015-06-06T16:24:52Z</time>
      </trkpt>
      <trkpt lat="40.081050" lon="-6.019517">
        <ele>2155.0</ele>
        <time>2015-06-06T16:24:54Z</time>
      </trkpt>
      <trkpt lat="40.080950" lon="-6.019800">
        <ele>2151.0</ele>
        <time>2015-06-06T16:24:56Z</time>
      </trkpt>
      <trkpt lat="40.080867" lon="-6.020100">
        <ele>2148.0</ele>
        <time>2015-06-06T16:24:58Z</time>
      </trkpt>
      <trkpt lat="40.080783" lon="-6.020367">
        <ele>2147.0</ele>
        <time>2015-06-06T16:25:00Z</time>
      </trkpt>
      <trkpt lat="40.080767" lon="-6.020683">
        <ele>2144.0</ele>
        <time>2015-06-06T16:25:02Z</time>
      </trkpt>
      <trkpt lat="40.080717" lon="-6.021050">
        <ele>2140.0</ele>
        <time>2015-06-06T16:25:04Z</time>
      </trkpt>
      <trkpt lat="40.080650" lon="-6.021367">
        <ele>2138.0</ele>
        <time>2015-06-06T16:25:06Z</time>
      </trkpt>
      <trkpt lat="40.080600" lon="-6.021667">
        <ele>2137.0</ele>
        <time>2015-06-06T16:25:08Z</time>
      </trkpt>
      <trkpt lat="40.080533" lon="-6.021967">
        <ele>2134.0</ele>
        <time>2015-06-06T16:25:10Z</time>
      </trkpt>
      <trkpt lat="40.080450" lon="-6.022250">
        <ele>2131.0</ele>
        <time>2015-06-06T16:25:12Z</time>
      </trkpt>
      <trkpt lat="40.080367" lon="-6.022517">
        <ele>2129.0</ele>
        <time>2015-06-06T16:25:14Z</time>
      </trkpt>
      <trkpt lat="40.080267" lon="-6.022750">
        <ele>2126.0</ele>
        <time>2015-06-06T16:25:16Z</time>
      </trkpt>
      <trkpt lat="40.080150" lon="-6.022967">
        <ele>2122.0</ele>
        <time>2015-06-06T16:25:18Z</time>
      </trkpt>
      <trkpt lat="40.080017" lon="-6.023150">
        <ele>2119.0</ele>
        <time>2015-06-06T16:25:20Z</time>
      </trkpt>
      <trkpt lat="40.079900" lon="-6.023350">
        <ele>2117.0</ele>
        <time>2015-06-06T16:25:22Z</time>
      </trkpt>
      <trkpt lat="40.079783" lon="-6.023567">
        <ele>2114.0</ele>
        <time>2015-06-06T16:25:24Z</time>
      </trkpt>
      <trkpt lat="40.079683" lon="-6.023817">
        <ele>2111.0</ele>
        <time>2015-06-06T16:25:26Z</time>
      </trkpt>
      <trkpt lat="40.079600" lon="-6.024067">
        <ele>2109.0</ele>
        <time>2015-06-06T16:25:28Z</time>
      </trkpt>
      <trkpt lat="40.079500" lon="-6.024350">
        <ele>2105.0</ele>
        <time>2015-06-06T16:25:30Z</time>
      </trkpt>
      <trkpt lat="40.079400" lon="-6.024633">
        <ele>2101.0</ele>
        <time>2015-06-06T16:25:32Z</time>
      </trkpt>
      <trkpt lat="40.079300" lon="-6.024917">
        <ele>2098.0</ele>
        <time>2015-06-06T16:25:34Z</time>
      </trkpt>
      <trkpt lat="40.079183" lon="-6.025183">
        <ele>2095.0</ele>
        <time>2015-06-06T16:25:36Z</time>
      </trkpt>
      <trkpt lat="40.079083" lon="-6.025433">
        <ele>2092.0</ele>
        <time>2015-06-06T16:25:38Z</time>
      </trkpt>
      <trkpt lat="40.078983" lon="-6.025667">
        <ele>2089.0</ele>
        <time>2015-06-06T16:25:40Z</time>
      </trkpt>
      <trkpt lat="40.078883" lon="-6.025900">
        <ele>2085.0</ele>
        <time>2015-06-06T16:25:42Z</time>
      </trkpt>
      <trkpt lat="40.078767" lon="-6.026133">
        <ele>2082.0</ele>
        <time>2015-06-06T16:25:44Z</time>
      </trkpt>
      <trkpt lat="40.078650" lon="-6.026350">
        <ele>2077.0</ele>
        <time>2015-06-06T16:25:46Z</time>
      </trkpt>
      <trkpt lat="40.078550" lon="-6.026567">
        <ele>2074.0</ele>
        <time>2015-06-06T16:25:48Z</time>
      </trkpt>
      <trkpt lat="40.078467" lon="-6.026833">
        <ele>2071.0</ele>
        <time>2015-06-06T16:25:50Z</time>
      </trkpt>
      <trkpt lat="40.078383" lon="-6.027100">
        <ele>2067.0</ele>
        <time>2015-06-06T16:25:52Z</time>
      </trkpt>
      <trkpt lat="40.078283" lon="-6.027367">
        <ele>2062.0</ele>
        <time>2015-06-06T16:25:54Z</time>
      </trkpt>
      <trkpt lat="40.078183" lon="-6.027617">
        <ele>2059.0</ele>
        <time>2015-06-06T16:25:56Z</time>
      </trkpt>
      <trkpt lat="40.078067" lon="-6.027867">
        <ele>2055.0</ele>
        <time>2015-06-06T16:25:58Z</time>
      </trkpt>
      <trkpt lat="40.077950" lon="-6.028117">
        <ele>2051.0</ele>
        <time>2015-06-06T16:26:00Z</time>
      </trkpt>
      <trkpt lat="40.077817" lon="-6.028367">
        <ele>2048.0</ele>
        <time>2015-06-06T16:26:02Z</time>
      </trkpt>
      <trkpt lat="40.077717" lon="-6.028600">
        <ele>2047.0</ele>
        <time>2015-06-06T16:26:04Z</time>
      </trkpt>
      <trkpt lat="40.077600" lon="-6.028850">
        <ele>2044.0</ele>
        <time>2015-06-06T16:26:06Z</time>
      </trkpt>
      <trkpt lat="40.077483" lon="-6.029100">
        <ele>2040.0</ele>
        <time>2015-06-06T16:26:08Z</time>
      </trkpt>
      <trkpt lat="40.077367" lon="-6.029350">
        <ele>2038.0</ele>
        <time>2015-06-06T16:26:10Z</time>
      </trkpt>
      <trkpt lat="40.077267" lon="-6.029600">
        <ele>2036.0</ele>
        <time>2015-06-06T16:26:12Z</time>
      </trkpt>
      <trkpt lat="40.077150" lon="-6.029850">
        <ele>2032.0</ele>
        <time>2015-06-06T16:26:14Z</time>
      </trkpt>
      <trkpt lat="40.077050" lon="-6.030100">
        <ele>2029.0</ele>
        <time>2015-06-06T16:26:16Z</time>
      </trkpt>
      <trkpt lat="40.076950" lon="-6.030367">
        <ele>2027.0</ele>
        <time>2015-06-06T16:26:18Z</time>
      </trkpt>
      <trkpt lat="40.076833" lon="-6.030600">
        <ele>2024.0</ele>
        <time>2015-06-06T16:26:20Z</time>
      </trkpt>
      <trkpt lat="40.076700" lon="-6.030867">
        <ele>2020.0</ele>
        <time>2015-06-06T16:26:22Z</time>
      </trkpt>
      <trkpt lat="40.076600" lon="-6.031133">
        <ele>2018.0</ele>
        <time>2015-06-06T16:26:24Z</time>
      </trkpt>
      <trkpt lat="40.076500" lon="-6.031383">
        <ele>2016.0</ele>
        <time>2015-06-06T16:26:26Z</time>
      </trkpt>
      <trkpt lat="40.076383" lon="-6.031650">
        <ele>2013.0</ele>
        <time>2015-06-06T16:26:28Z</time>
      </trkpt>
      <trkpt lat="40.076283" lon="-6.031917">
        <ele>2010.0</ele>
        <time>2015-06-06T16:26:30Z</time>
      </trkpt>
      <trkpt lat="40.076167" lon="-6.032167">
        <ele>2007.0</ele>
        <time>2015-06-06T16:26:32Z</time>
      </trkpt>
      <trkpt lat="40.076067" lon="-6.032433">
        <ele>2004.0</ele>
        <time>2015-06-06T16:26:34Z</time>
      </trkpt>
      <trkpt lat="40.075950" lon="-6.032700">
        <ele>2002.0</ele>
        <time>2015-06-06T16:26:36Z</time>
      </trkpt>
      <trkpt lat="40.075850" lon="-6.032950">
        <ele>1999.0</ele>
        <time>2015-06-06T16:26:38Z</time>
      </trkpt>
      <trkpt lat="40.075733" lon="-6.033200">
        <ele>1996.0</ele>
        <time>2015-06-06T16:26:40Z</time>
      </trkpt>
      <trkpt lat="40.075617" lon="-6.033433">
        <ele>1993.0</ele>
        <time>2015-06-06T16:26:42Z</time>
      </trkpt>
      <trkpt lat="40.075483" lon="-6.033667">
        <ele>1991.0</ele>
        <time>2015-06-06T16:26:44Z</time>
      </trkpt>
      <trkpt lat="40.075367" lon="-6.033867">
        <ele>1989.0</ele>
        <time>2015-06-06T16:26:46Z</time>
      </trkpt>
      <trkpt lat="40.075233" lon="-6.034083">
        <ele>1986.0</ele>
        <time>2015-06-06T16:26:48Z</time>
      </trkpt>
      <trkpt lat="40.075100" lon="-6.034300">
        <ele>1984.0</ele>
        <time>2015-06-06T16:26:50Z</time>
      </trkpt>
      <trkpt lat="40.074967" lon="-6.034500">
        <ele>1982.0</ele>
        <time>2015-06-06T16:26:52Z</time>
      </trkpt>
      <trkpt lat="40.074850" lon="-6.034733">
        <ele>1979.0</ele>
        <time>2015-06-06T16:26:54Z</time>
      </trkpt>
      <trkpt lat="40.074750" lon="-6.034983">
        <ele>1976.0</ele>
        <time>2015-06-06T16:26:56Z</time>
      </trkpt>
      <trkpt lat="40.074650" lon="-6.035250">
        <ele>1973.0</ele>
        <time>2015-06-06T16:26:58Z</time>
      </trkpt>
      <trkpt lat="40.074533" lon="-6.035500">
        <ele>1970.0</ele>
        <time>2015-06-06T16:27:00Z</time>
      </trkpt>
      <trkpt lat="40.074400" lon="-6.035700">
        <ele>1966.0</ele>
        <time>2015-06-06T16:27:02Z</time>
      </trkpt>
      <trkpt lat="40.074250" lon="-6.035883">
        <ele>1963.0</ele>
        <time>2015-06-06T16:27:04Z</time>
      </trkpt>
      <trkpt lat="40.074133" lon="-6.036067">
        <ele>1960.0</ele>
        <time>2015-06-06T16:27:06Z</time>
      </trkpt>
      <trkpt lat="40.074000" lon="-6.036267">
        <ele>1956.0</ele>
        <time>2015-06-06T16:27:08Z</time>
      </trkpt>
      <trkpt lat="40.073867" lon="-6.036500">
        <ele>1952.0</ele>
        <time>2015-06-06T16:27:10Z</time>
      </trkpt>
      <trkpt lat="40.073767" lon="-6.036733">
        <ele>1949.0</ele>
        <time>2015-06-06T16:27:12Z</time>
      </trkpt>
      <trkpt lat="40.073650" lon="-6.036983">
        <ele>1947.0</ele>
        <time>2015-06-06T16:27:14Z</time>
      </trkpt>
      <trkpt lat="40.073533" lon="-6.037250">
        <ele>1944.0</ele>
        <time>2015-06-06T16:27:16Z</time>
      </trkpt>
      <trkpt lat="40.073433" lon="-6.037533">
        <ele>1943.0</ele>
        <time>2015-06-06T16:27:18Z</time>
      </trkpt>
      <trkpt lat="40.073333" lon="-6.037800">
        <ele>1941.0</ele>
        <time>2015-06-06T16:27:20Z</time>
      </trkpt>
      <trkpt lat="40.073217" lon="-6.038050">
        <ele>1939.0</ele>
        <time>2015-06-06T16:27:22Z</time>
      </trkpt>
      <trkpt lat="40.073100" lon="-6.038317">
        <ele>1937.0</ele>
        <time>2015-06-06T16:27:24Z</time>
      </trkpt>
      <trkpt lat="40.072983" lon="-6.038583">
        <ele>1935.0</ele>
        <time>2015-06-06T16:27:26Z</time>
      </trkpt>
      <trkpt lat="40.072867" lon="-6.038833">
        <ele>1933.0</ele>
        <time>2015-06-06T16:27:28Z</time>
      </trkpt>
      <trkpt lat="40.072733" lon="-6.039100">
        <ele>1930.0</ele>
        <time>2015-06-06T16:27:30Z</time>
      </trkpt>
      <trkpt lat="40.072617" lon="-6.039367">
        <ele>1928.0</ele>
        <time>2015-06-06T16:27:32Z</time>
      </trkpt>
      <trkpt lat="40.072500" lon="-6.039600">
        <ele>1926.0</ele>
        <time>2015-06-06T16:27:34Z</time>
      </trkpt>
      <trkpt lat="40.072383" lon="-6.039867">
        <ele>1922.0</ele>
        <time>2015-06-06T16:27:36Z</time>
      </trkpt>
      <trkpt lat="40.072250" lon="-6.040117">
        <ele>1919.0</ele>
        <time>2015-06-06T16:27:38Z</time>
      </trkpt>
      <trkpt lat="40.072117" lon="-6.040350">
        <ele>1916.0</ele>
        <time>2015-06-06T16:27:40Z</time>
      </trkpt>
      <trkpt lat="40.071983" lon="-6.040583">
        <ele>1913.0</ele>
        <time>2015-06-06T16:27:42Z</time>
      </trkpt>
      <trkpt lat="40.071850" lon="-6.040817">
        <ele>1910.0</ele>
        <time>2015-06-06T16:27:44Z</time>
      </trkpt>
      <trkpt lat="40.071733" lon="-6.041050">
        <ele>1907.0</ele>
        <time>2015-06-06T16:27:46Z</time>
      </trkpt>
      <trkpt lat="40.071633" lon="-6.041317">
        <ele>1906.0</ele>
        <time>2015-06-06T16:27:48Z</time>
      </trkpt>
      <trkpt lat="40.071533" lon="-6.041600">
        <ele>1903.0</ele>
        <time>2015-06-06T16:27:50Z</time>
      </trkpt>
      <trkpt lat="40.071433" lon="-6.041900">
        <ele>1900.0</ele>
        <time>2015-06-06T16:27:52Z</time>
      </trkpt>
      <trkpt lat="40.071333" lon="-6.042167">
        <ele>1897.0</ele>
        <time>2015-06-06T16:27:54Z</time>
      </trkpt>
      <trkpt lat="40.071217" lon="-6.042450">
        <ele>1893.0</ele>
        <time>2015-06-06T16:27:56Z</time>
      </trkpt>
      <trkpt lat="40.071117" lon="-6.042717">
        <ele>1891.0</ele>
        <time>2015-06-06T16:27:58Z</time>
      </trkpt>
      <trkpt lat="40.071000" lon="-6.042967">
        <ele>1888.0</ele>
        <time>2015-06-06T16:28:00Z</time>
      </trkpt>
      <trkpt lat="40.070867" lon="-6.043233">
        <ele>1885.0</ele>
        <time>2015-06-06T16:28:02Z</time>
      </trkpt>
      <trkpt lat="40.070750" lon="-6.043483">
        <ele>1882.0</ele>
        <time>2015-06-06T16:28:04Z</time>
      </trkpt>
      <trkpt lat="40.070633" lon="-6.043733">
        <ele>1880.0</ele>
        <time>2015-06-06T16:28:06Z</time>
      </trkpt>
      <trkpt lat="40.070517" lon="-6.043983">
        <ele>1876.0</ele>
        <time>2015-06-06T16:28:08Z</time>
      </trkpt>
      <trkpt lat="40.070400" lon="-6.044250">
        <ele>1873.0</ele>
        <time>2015-06-06T16:28:10Z</time>
      </trkpt>
      <trkpt lat="40.070283" lon="-6.044517">
        <ele>1871.0</ele>
        <time>2015-06-06T16:28:12Z</time>
      </trkpt>
      <trkpt lat="40.070183" lon="-6.044767">
        <ele>1868.0</ele>
        <time>2015-06-06T16:28:14Z</time>
      </trkpt>
      <trkpt lat="40.070083" lon="-6.045050">
        <ele>1865.0</ele>
        <time>2015-06-06T16:28:16Z</time>
      </trkpt>
      <trkpt lat="40.069967" lon="-6.045317">
        <ele>1860.0</ele>
        <time>2015-06-06T16:28:18Z</time>
      </trkpt>
      <trkpt lat="40.069833" lon="-6.045567">
        <ele>1856.0</ele>
        <time>2015-06-06T16:28:20Z</time>
      </trkpt>
      <trkpt lat="40.069700" lon="-6.045817">
        <ele>1850.0</ele>
        <time>2015-06-06T16:28:22Z</time>
      </trkpt>
      <trkpt lat="40.069550" lon="-6.046033">
        <ele>1846.0</ele>
        <time>2015-06-06T16:28:24Z</time>
      </trkpt>
      <trkpt lat="40.069400" lon="-6.046233">
        <ele>1842.0</ele>
        <time>2015-06-06T16:28:26Z</time>
      </trkpt>
      <trkpt lat="40.069233" lon="-6.046417">
        <ele>1837.0</ele>
        <time>2015-06-06T16:28:28Z</time>
      </trkpt>
      <trkpt lat="40.069067" lon="-6.046633">
        <ele>1833.0</ele>
        <time>2015-06-06T16:28:30Z</time>
      </trkpt>
      <trkpt lat="40.068917" lon="-6.046833">
        <ele>1830.0</ele>
        <time>2015-06-06T16:28:32Z</time>
      </trkpt>
      <trkpt lat="40.068767" lon="-6.047033">
        <ele>1826.0</ele>
        <time>2015-06-06T16:28:34Z</time>
      </trkpt>
      <trkpt lat="40.068600" lon="-6.047250">
        <ele>1820.0</ele>
        <time>2015-06-06T16:28:36Z</time>
      </trkpt>
      <trkpt lat="40.068433" lon="-6.047467">
        <ele>1815.0</ele>
        <time>2015-06-06T16:28:38Z</time>
      </trkpt>
      <trkpt lat="40.068267" lon="-6.047617">
        <ele>1812.0</ele>
        <time>2015-06-06T16:28:40Z</time>
      </trkpt>
      <trkpt lat="40.068100" lon="-6.047733">
        <ele>1809.0</ele>
        <time>2015-06-06T16:28:42Z</time>
      </trkpt>
      <trkpt lat="40.067933" lon="-6.047833">
        <ele>1805.0</ele>
        <time>2015-06-06T16:28:44Z</time>
      </trkpt>
      <trkpt lat="40.067783" lon="-6.047917">
        <ele>1802.0</ele>
        <time>2015-06-06T16:28:46Z</time>
      </trkpt>
      <trkpt lat="40.067617" lon="-6.048017">
        <ele>1798.0</ele>
        <time>2015-06-06T16:28:48Z</time>
      </trkpt>
      <trkpt lat="40.067450" lon="-6.048117">
        <ele>1796.0</ele>
        <time>2015-06-06T16:28:50Z</time>
      </trkpt>
      <trkpt lat="40.067300" lon="-6.048200">
        <ele>1794.0</ele>
        <time>2015-06-06T16:28:52Z</time>
      </trkpt>
      <trkpt lat="40.067150" lon="-6.048283">
        <ele>1791.0</ele>
        <time>2015-06-06T16:28:54Z</time>
      </trkpt>
      <trkpt lat="40.066983" lon="-6.048367">
        <ele>1788.0</ele>
        <time>2015-06-06T16:28:56Z</time>
      </trkpt>
      <trkpt lat="40.066850" lon="-6.048500">
        <ele>1786.0</ele>
        <time>2015-06-06T16:28:58Z</time>
      </trkpt>
      <trkpt lat="40.066700" lon="-6.048700">
        <ele>1782.0</ele>
        <time>2015-06-06T16:29:00Z</time>
      </trkpt>
      <trkpt lat="40.066567" lon="-6.048900">
        <ele>1779.0</ele>
        <time>2015-06-06T16:29:02Z</time>
      </trkpt>
      <trkpt lat="40.066433" lon="-6.049100">
        <ele>1775.0</ele>
        <time>2015-06-06T16:29:04Z</time>
      </trkpt>
      <trkpt lat="40.066300" lon="-6.049350">
        <ele>1772.0</ele>
        <time>2015-06-06T16:29:06Z</time>
      </trkpt>
      <trkpt lat="40.066200" lon="-6.049633">
        <ele>1769.0</ele>
        <time>2015-06-06T16:29:08Z</time>
      </trkpt>
      <trkpt lat="40.066083" lon="-6.049883">
        <ele>1766.0</ele>
        <time>2015-06-06T16:29:10Z</time>
      </trkpt>
      <trkpt lat="40.065967" lon="-6.050133">
        <ele>1763.0</ele>
        <time>2015-06-06T16:29:12Z</time>
      </trkpt>
      <trkpt lat="40.065850" lon="-6.050400">
        <ele>1759.0</ele>
        <time>2015-06-06T16:29:14Z</time>
      </trkpt>
      <trkpt lat="40.065733" lon="-6.050633">
        <ele>1757.0</ele>
        <time>2015-06-06T16:29:16Z</time>
      </trkpt>
      <trkpt lat="40.065633" lon="-6.050900">
        <ele>1753.0</ele>
        <time>2015-06-06T16:29:18Z</time>
      </trkpt>
      <trkpt lat="40.065517" lon="-6.051200">
        <ele>1749.0</ele>
        <time>2015-06-06T16:29:20Z</time>
      </trkpt>
      <trkpt lat="40.065417" lon="-6.051483">
        <ele>1746.0</ele>
        <time>2015-06-06T16:29:22Z</time>
      </trkpt>
      <trkpt lat="40.065300" lon="-6.051750">
        <ele>1743.0</ele>
        <time>2015-06-06T16:29:24Z</time>
      </trkpt>
      <trkpt lat="40.065200" lon="-6.052017">
        <ele>1740.0</ele>
        <time>2015-06-06T16:29:26Z</time>
      </trkpt>
      <trkpt lat="40.065083" lon="-6.052300">
        <ele>1736.0</ele>
        <time>2015-06-06T16:29:28Z</time>
      </trkpt>
      <trkpt lat="40.064967" lon="-6.052583">
        <ele>1732.0</ele>
        <time>2015-06-06T16:29:30Z</time>
      </trkpt>
      <trkpt lat="40.064850" lon="-6.052867">
        <ele>1729.0</ele>
        <time>2015-06-06T16:29:32Z</time>
      </trkpt>
      <trkpt lat="40.064750" lon="-6.053150">
        <ele>1725.0</ele>
        <time>2015-06-06T16:29:34Z</time>
      </trkpt>
      <trkpt lat="40.064633" lon="-6.053433">
        <ele>1721.0</ele>
        <time>2015-06-06T16:29:36Z</time>
      </trkpt>
      <trkpt lat="40.064533" lon="-6.053717">
        <ele>1718.0</ele>
        <time>2015-06-06T16:29:38Z</time>
      </trkpt>
      <trkpt lat="40.064417" lon="-6.053983">
        <ele>1714.0</ele>
        <time>2015-06-06T16:29:40Z</time>
      </trkpt>
      <trkpt lat="40.064300" lon="-6.054283">
        <ele>1709.0</ele>
        <time>2015-06-06T16:29:42Z</time>
      </trkpt>
      <trkpt lat="40.064183" lon="-6.054567">
        <ele>1705.0</ele>
        <time>2015-06-06T16:29:44Z</time>
      </trkpt>
      <trkpt lat="40.064067" lon="-6.054833">
        <ele>1701.0</ele>
        <time>2015-06-06T16:29:46Z</time>
      </trkpt>
      <trkpt lat="40.063933" lon="-6.055117">
        <ele>1695.0</ele>
        <time>2015-06-06T16:29:48Z</time>
      </trkpt>
      <trkpt lat="40.063800" lon="-6.055367">
        <ele>1690.0</ele>
        <time>2015-06-06T16:29:50Z</time>
      </trkpt>
      <trkpt lat="40.063667" lon="-6.055617">
        <ele>1686.0</ele>
        <time>2015-06-06T16:29:52Z</time>
      </trkpt>
      <trkpt lat="40.063517" lon="-6.055850">
        <ele>1681.0</ele>
        <time>2015-06-06T16:29:54Z</time>
      </trkpt>
      <trkpt lat="40.063383" lon="-6.056100">
        <ele>1675.0</ele>
        <time>2015-06-06T16:29:56Z</time>
      </trkpt>
      <trkpt lat="40.063233" lon="-6.056350">
        <ele>1670.0</ele>
        <time>2015-06-06T16:29:58Z</time>
      </trkpt>
      <trkpt lat="40.063100" lon="-6.056617">
        <ele>1666.0</ele>
        <time>2015-06-06T16:30:00Z</time>
      </trkpt>
      <trkpt lat="40.063000" lon="-6.056883">
        <ele>1661.0</ele>
        <time>2015-06-06T16:30:02Z</time>
      </trkpt>
      <trkpt lat="40.062883" lon="-6.057183">
        <ele>1656.0</ele>
        <time>2015-06-06T16:30:04Z</time>
      </trkpt>
      <trkpt lat="40.062767" lon="-6.057467">
        <ele>1652.0</ele>
        <time>2015-06-06T16:30:06Z</time>
      </trkpt>
      <trkpt lat="40.062650" lon="-6.057733">
        <ele>1648.0</ele>
        <time>2015-06-06T16:30:08Z</time>
      </trkpt>
      <trkpt lat="40.062517" lon="-6.058000">
        <ele>1644.0</ele>
        <time>2015-06-06T16:30:10Z</time>
      </trkpt>
      <trkpt lat="40.062400" lon="-6.058283">
        <ele>1640.0</ele>
        <time>2015-06-06T16:30:12Z</time>
      </trkpt>
      <trkpt lat="40.062283" lon="-6.058533">
        <ele>1636.0</ele>
        <time>2015-06-06T16:30:14Z</time>
      </trkpt>
      <trkpt lat="40.062150" lon="-6.058783">
        <ele>1631.0</ele>
        <time>2015-06-06T16:30:16Z</time>
      </trkpt>
      <trkpt lat="40.062033" lon="-6.059067">
        <ele>1626.0</ele>
        <time>2015-06-06T16:30:18Z</time>
      </trkpt>
      <trkpt lat="40.061917" lon="-6.059333">
        <ele>1622.0</ele>
        <time>2015-06-06T16:30:20Z</time>
      </trkpt>
      <trkpt lat="40.061800" lon="-6.059600">
        <ele>1617.0</ele>
        <time>2015-06-06T16:30:22Z</time>
      </trkpt>
      <trkpt lat="40.061700" lon="-6.059883">
        <ele>1612.0</ele>
        <time>2015-06-06T16:30:24Z</time>
      </trkpt>
      <trkpt lat="40.061600" lon="-6.060183">
        <ele>1607.0</ele>
        <time>2015-06-06T16:30:26Z</time>
      </trkpt>
      <trkpt lat="40.061483" lon="-6.060450">
        <ele>1603.0</ele>
        <time>2015-06-06T16:30:28Z</time>
      </trkpt>
      <trkpt lat="40.061367" lon="-6.060733">
        <ele>1598.0</ele>
        <time>2015-06-06T16:30:30Z</time>
      </trkpt>
      <trkpt lat="40.061267" lon="-6.061017">
        <ele>1594.0</ele>
        <time>2015-06-06T16:30:32Z</time>
      </trkpt>
      <trkpt lat="40.061150" lon="-6.061283">
        <ele>1590.0</ele>
        <time>2015-06-06T16:30:34Z</time>
      </trkpt>
      <trkpt lat="40.061033" lon="-6.061550">
        <ele>1587.0</ele>
        <time>2015-06-06T16:30:36Z</time>
      </trkpt>
      <trkpt lat="40.060917" lon="-6.061800">
        <ele>1582.0</ele>
        <time>2015-06-06T16:30:38Z</time>
      </trkpt>
      <trkpt lat="40.060783" lon="-6.062033">
        <ele>1576.0</ele>
        <time>2015-06-06T16:30:40Z</time>
      </trkpt>
      <trkpt lat="40.060633" lon="-6.062283">
        <ele>1570.0</ele>
        <time>2015-06-06T16:30:42Z</time>
      </trkpt>
      <trkpt lat="40.060500" lon="-6.062517">
        <ele>1565.0</ele>
        <time>2015-06-06T16:30:44Z</time>
      </trkpt>
      <trkpt lat="40.060367" lon="-6.062750">
        <ele>1560.0</ele>
        <time>2015-06-06T16:30:46Z</time>
      </trkpt>
      <trkpt lat="40.060233" lon="-6.062950">
        <ele>1554.0</ele>
        <time>2015-06-06T16:30:48Z</time>
      </trkpt>
      <trkpt lat="40.060100" lon="-6.063167">
        <ele>1549.0</ele>
        <time>2015-06-06T16:30:50Z</time>
      </trkpt>
      <trkpt lat="40.059983" lon="-6.063383">
        <ele>1543.0</ele>
        <time>2015-06-06T16:30:52Z</time>
      </trkpt>
      <trkpt lat="40.059850" lon="-6.063617">
        <ele>1537.0</ele>
        <time>2015-06-06T16:30:54Z</time>
      </trkpt>
      <trkpt lat="40.059733" lon="-6.063850">
        <ele>1530.0</ele>
        <time>2015-06-06T16:30:56Z</time>
      </trkpt>
      <trkpt lat="40.059600" lon="-6.064067">
        <ele>1524.0</ele>
        <time>2015-06-06T16:30:58Z</time>
      </trkpt>
      <trkpt lat="40.059467" lon="-6.064267">
        <ele>1518.0</ele>
        <time>2015-06-06T16:31:00Z</time>
      </trkpt>
      <trkpt lat="40.059350" lon="-6.064483">
        <ele>1511.0</ele>
        <time>2015-06-06T16:31:02Z</time>
      </trkpt>
      <trkpt lat="40.059217" lon="-6.064700">
        <ele>1505.0</ele>
        <time>2015-06-06T16:31:04Z</time>
      </trkpt>
      <trkpt lat="40.059083" lon="-6.064917">
        <ele>1499.0</ele>
        <time>2015-06-06T16:31:06Z</time>
      </trkpt>
      <trkpt lat="40.058967" lon="-6.065133">
        <ele>1493.0</ele>
        <time>2015-06-06T16:31:08Z</time>
      </trkpt>
      <trkpt lat="40.058833" lon="-6.065367">
        <ele>1486.0</ele>
        <time>2015-06-06T16:31:10Z</time>
      </trkpt>
      <trkpt lat="40.058717" lon="-6.065600">
        <ele>1480.0</ele>
        <time>2015-06-06T16:31:12Z</time>
      </trkpt>
      <trkpt lat="40.058600" lon="-6.065850">
        <ele>1473.0</ele>
        <time>2015-06-06T16:31:14Z</time>
      </trkpt>
      <trkpt lat="40.058483" lon="-6.066083">
        <ele>1467.0</ele>
        <time>2015-06-06T16:31:16Z</time>
      </trkpt>
      <trkpt lat="40.058350" lon="-6.066317">
        <ele>1460.0</ele>
        <time>2015-06-06T16:31:18Z</time>
      </trkpt>
      <trkpt lat="40.058233" lon="-6.066517">
        <ele>1454.0</ele>
        <time>2015-06-06T16:31:20Z</time>
      </trkpt>
      <trkpt lat="40.058117" lon="-6.066717">
        <ele>1448.0</ele>
        <time>2015-06-06T16:31:22Z</time>
      </trkpt>
      <trkpt lat="40.057967" lon="-6.066917">
        <ele>1440.0</ele>
        <time>2015-06-06T16:31:24Z</time>
      </trkpt>
      <trkpt lat="40.057833" lon="-6.067117">
        <ele>1434.0</ele>
        <time>2015-06-06T16:31:26Z</time>
      </trkpt>
      <trkpt lat="40.057683" lon="-6.067283">
        <ele>1429.0</ele>
        <time>2015-06-06T16:31:28Z</time>
      </trkpt>
      <trkpt lat="40.057550" lon="-6.067433">
        <ele>1424.0</ele>
        <time>2015-06-06T16:31:30Z</time>
      </trkpt>
      <trkpt lat="40.057400" lon="-6.067583">
        <ele>1417.0</ele>
        <time>2015-06-06T16:31:32Z</time>
      </trkpt>
      <trkpt lat="40.057250" lon="-6.067733">
        <ele>1411.0</ele>
        <time>2015-06-06T16:31:34Z</time>
      </trkpt>
      <trkpt lat="40.057083" lon="-6.067867">
        <ele>1405.0</ele>
        <time>2015-06-06T16:31:36Z</time>
      </trkpt>
      <trkpt lat="40.056933" lon="-6.068017">
        <ele>1399.0</ele>
        <time>2015-06-06T16:31:38Z</time>
      </trkpt>
      <trkpt lat="40.056783" lon="-6.068167">
        <ele>1393.0</ele>
        <time>2015-06-06T16:31:40Z</time>
      </trkpt>
      <trkpt lat="40.056633" lon="-6.068317">
        <ele>1386.0</ele>
        <time>2015-06-06T16:31:42Z</time>
      </trkpt>
      <trkpt lat="40.056483" lon="-6.068467">
        <ele>1380.0</ele>
        <time>2015-06-06T16:31:44Z</time>
      </trkpt>
      <trkpt lat="40.056317" lon="-6.068617">
        <ele>1374.0</ele>
        <time>2015-06-06T16:31:46Z</time>
      </trkpt>
      <trkpt lat="40.056167" lon="-6.068800">
        <ele>1368.0</ele>
        <time>2015-06-06T16:31:48Z</time>
      </trkpt>
      <trkpt lat="40.056017" lon="-6.068983">
        <ele>1362.0</ele>
        <time>2015-06-06T16:31:50Z</time>
      </trkpt>
      <trkpt lat="40.055850" lon="-6.069150">
        <ele>1356.0</ele>
        <time>2015-06-06T16:31:52Z</time>
      </trkpt>
      <trkpt lat="40.055700" lon="-6.069333">
        <ele>1351.0</ele>
        <time>2015-06-06T16:31:54Z</time>
      </trkpt>
      <trkpt lat="40.055533" lon="-6.069517">
        <ele>1347.0</ele>
        <time>2015-06-06T16:31:56Z</time>
      </trkpt>
      <trkpt lat="40.055383" lon="-6.069700">
        <ele>1343.0</ele>
        <time>2015-06-06T16:31:58Z</time>
      </trkpt>
      <trkpt lat="40.055233" lon="-6.069883">
        <ele>1338.0</ele>
        <time>2015-06-06T16:32:00Z</time>
      </trkpt>
      <trkpt lat="40.055067" lon="-6.070067">
        <ele>1332.0</ele>
        <time>2015-06-06T16:32:02Z</time>
      </trkpt>
      <trkpt lat="40.054900" lon="-6.070217">
        <ele>1327.0</ele>
        <time>2015-06-06T16:32:04Z</time>
      </trkpt>
      <trkpt lat="40.054750" lon="-6.070333">
        <ele>1323.0</ele>
        <time>2015-06-06T16:32:06Z</time>
      </trkpt>
      <trkpt lat="40.054567" lon="-6.070467">
        <ele>1316.0</ele>
        <time>2015-06-06T16:32:08Z</time>
      </trkpt>
      <trkpt lat="40.054400" lon="-6.070600">
        <ele>1311.0</ele>
        <time>2015-06-06T16:32:10Z</time>
      </trkpt>
      <trkpt lat="40.054250" lon="-6.070717">
        <ele>1307.0</ele>
        <time>2015-06-06T16:32:12Z</time>
      </trkpt>
      <trkpt lat="40.054083" lon="-6.070867">
        <ele>1302.0</ele>
        <time>2015-06-06T16:32:14Z</time>
      </trkpt>
      <trkpt lat="40.053917" lon="-6.071017">
        <ele>1297.0</ele>
        <time>2015-06-06T16:32:16Z</time>
      </trkpt>
      <trkpt lat="40.053767" lon="-6.071183">
        <ele>1292.0</ele>
        <time>2015-06-06T16:32:18Z</time>
      </trkpt>
      <trkpt lat="40.053600" lon="-6.071350">
        <ele>1287.0</ele>
        <time>2015-06-06T16:32:20Z</time>
      </trkpt>
      <trkpt lat="40.053450" lon="-6.071500">
        <ele>1282.0</ele>
        <time>2015-06-06T16:32:22Z</time>
      </trkpt>
      <trkpt lat="40.053283" lon="-6.071667">
        <ele>1276.0</ele>
        <time>2015-06-06T16:32:24Z</time>
      </trkpt>
      <trkpt lat="40.053117" lon="-6.071817">
        <ele>1272.0</ele>
        <time>2015-06-06T16:32:26Z</time>
      </trkpt>
      <trkpt lat="40.052967" lon="-6.071967">
        <ele>1267.0</ele>
        <time>2015-06-06T16:32:28Z</time>
      </trkpt>
      <trkpt lat="40.052800" lon="-6.072133">
        <ele>1261.0</ele>
        <time>2015-06-06T16:32:30Z</time>
      </trkpt>
      <trkpt lat="40.052633" lon="-6.072300">
        <ele>1255.0</ele>
        <time>2015-06-06T16:32:32Z</time>
      </trkpt>
      <trkpt lat="40.052467" lon="-6.072467">
        <ele>1251.0</ele>
        <time>2015-06-06T16:32:34Z</time>
      </trkpt>
      <trkpt lat="40.052333" lon="-6.072600">
        <ele>1250.0</ele>
        <time>2015-06-06T16:32:36Z</time>
      </trkpt>
      <trkpt lat="40.052200" lon="-6.072783">
        <ele>1247.0</ele>
        <time>2015-06-06T16:32:38Z</time>
      </trkpt>
      <trkpt lat="40.052050" lon="-6.073000">
        <ele>1243.0</ele>
        <time>2015-06-06T16:32:40Z</time>
      </trkpt>
      <trkpt lat="40.051900" lon="-6.073183">
        <ele>1241.0</ele>
        <time>2015-06-06T16:32:42Z</time>
      </trkpt>
      <trkpt lat="40.051800" lon="-6.073367">
        <ele>1240.0</ele>
        <time>2015-06-06T16:32:44Z</time>
      </trkpt>
      <trkpt lat="40.051717" lon="-6.073633">
        <ele>1237.0</ele>
        <time>2015-06-06T16:32:46Z</time>
      </trkpt>
      <trkpt lat="40.051617" lon="-6.073917">
        <ele>1231.0</ele>
        <time>2015-06-06T16:32:48Z</time>
      </trkpt>
      <trkpt lat="40.051483" lon="-6.074117">
        <ele>1228.0</ele>
        <time>2015-06-06T16:32:50Z</time>
      </trkpt>
      <trkpt lat="40.051367" lon="-6.074283">
        <ele>1226.0</ele>
        <time>2015-06-06T16:32:52Z</time>
      </trkpt>
      <trkpt lat="40.051200" lon="-6.074450">
        <ele>1220.0</ele>
        <time>2015-06-06T16:32:54Z</time>
      </trkpt>
      <trkpt lat="40.051050" lon="-6.074617">
        <ele>1217.0</ele>
        <time>2015-06-06T16:32:56Z</time>
      </trkpt>
      <trkpt lat="40.050950" lon="-6.074800">
        <ele>1217.0</ele>
        <time>2015-06-06T16:32:58Z</time>
      </trkpt>
      <trkpt lat="40.050833" lon="-6.075017">
        <ele>1211.0</ele>
        <time>2015-06-06T16:33:00Z</time>
      </trkpt>
      <trkpt lat="40.050667" lon="-6.075250">
        <ele>1204.0</ele>
        <time>2015-06-06T16:33:02Z</time>
      </trkpt>
      <trkpt lat="40.050483" lon="-6.075383">
        <ele>1203.0</ele>
        <time>2015-06-06T16:33:04Z</time>
      </trkpt>
      <trkpt lat="40.050367" lon="-6.075517">
        <ele>1202.0</ele>
        <time>2015-06-06T16:33:06Z</time>
      </trkpt>
      <trkpt lat="40.050217" lon="-6.075733">
        <ele>1196.0</ele>
        <time>2015-06-06T16:33:08Z</time>
      </trkpt>
      <trkpt lat="40.050050" lon="-6.075950">
        <ele>1193.0</ele>
        <time>2015-06-06T16:33:10Z</time>
      </trkpt>
      <trkpt lat="40.049900" lon="-6.076117">
        <ele>1195.0</ele>
        <time>2015-06-06T16:33:12Z</time>
      </trkpt>
      <trkpt lat="40.049817" lon="-6.076300">
        <ele>1194.0</ele>
        <time>2015-06-06T16:33:14Z</time>
      </trkpt>
      <trkpt lat="40.049717" lon="-6.076550">
        <ele>1188.0</ele>
        <time>2015-06-06T16:33:16Z</time>
      </trkpt>
      <trkpt lat="40.049567" lon="-6.076800">
        <ele>1181.0</ele>
        <time>2015-06-06T16:33:18Z</time>
      </trkpt>
      <trkpt lat="40.049400" lon="-6.076950">
        <ele>1176.0</ele>
        <time>2015-06-06T16:33:20Z</time>
      </trkpt>
      <trkpt lat="40.049250" lon="-6.077117">
        <ele>1173.0</ele>
        <time>2015-06-06T16:33:22Z</time>
      </trkpt>
      <trkpt lat="40.049117" lon="-6.077267">
        <ele>1169.0</ele>
        <time>2015-06-06T16:33:24Z</time>
      </trkpt>
      <trkpt lat="40.048967" lon="-6.077450">
        <ele>1162.0</ele>
        <time>2015-06-06T16:33:26Z</time>
      </trkpt>
      <trkpt lat="40.048817" lon="-6.077667">
        <ele>1158.0</ele>
        <time>2015-06-06T16:33:28Z</time>
      </trkpt>
      <trkpt lat="40.048683" lon="-6.077833">
        <ele>1155.0</ele>
        <time>2015-06-06T16:33:30Z</time>
      </trkpt>
      <trkpt lat="40.048517" lon="-6.077967">
        <ele>1149.0</ele>
        <time>2015-06-06T16:33:32Z</time>
      </trkpt>
      <trkpt lat="40.048350" lon="-6.078133">
        <ele>1143.0</ele>
        <time>2015-06-06T16:33:34Z</time>
      </trkpt>
      <trkpt lat="40.048200" lon="-6.078317">
        <ele>1141.0</ele>
        <time>2015-06-06T16:33:36Z</time>
      </trkpt>
      <trkpt lat="40.048067" lon="-6.078517">
        <ele>1136.0</ele>
        <time>2015-06-06T16:33:38Z</time>
      </trkpt>
      <trkpt lat="40.047900" lon="-6.078733">
        <ele>1130.0</ele>
        <time>2015-06-06T16:33:40Z</time>
      </trkpt>
      <trkpt lat="40.047750" lon="-6.078950">
        <ele>1125.0</ele>
        <time>2015-06-06T16:33:42Z</time>
      </trkpt>
      <trkpt lat="40.047567" lon="-6.079133">
        <ele>1120.0</ele>
        <time>2015-06-06T16:33:44Z</time>
      </trkpt>
      <trkpt lat="40.047417" lon="-6.079300">
        <ele>1117.0</ele>
        <time>2015-06-06T16:33:46Z</time>
      </trkpt>
      <trkpt lat="40.047250" lon="-6.079467">
        <ele>1111.0</ele>
        <time>2015-06-06T16:33:48Z</time>
      </trkpt>
      <trkpt lat="40.047083" lon="-6.079650">
        <ele>1106.0</ele>
        <time>2015-06-06T16:33:50Z</time>
      </trkpt>
      <trkpt lat="40.046933" lon="-6.079817">
        <ele>1104.0</ele>
        <time>2015-06-06T16:33:52Z</time>
      </trkpt>
      <trkpt lat="40.046783" lon="-6.080000">
        <ele>1100.0</ele>
        <time>2015-06-06T16:33:54Z</time>
      </trkpt>
      <trkpt lat="40.046633" lon="-6.080183">
        <ele>1095.0</ele>
        <time>2015-06-06T16:33:56Z</time>
      </trkpt>
      <trkpt lat="40.046467" lon="-6.080333">
        <ele>1089.0</ele>
        <time>2015-06-06T16:33:58Z</time>
      </trkpt>
      <trkpt lat="40.046300" lon="-6.080500">
        <ele>1085.0</ele>
        <time>2015-06-06T16:34:00Z</time>
      </trkpt>
      <trkpt lat="40.046167" lon="-6.080683">
        <ele>1081.0</ele>
        <time>2015-06-06T16:34:02Z</time>
      </trkpt>
      <trkpt lat="40.046050" lon="-6.080900">
        <ele>1076.0</ele>
        <time>2015-06-06T16:34:04Z</time>
      </trkpt>
      <trkpt lat="40.045917" lon="-6.081117">
        <ele>1068.0</ele>
        <time>2015-06-06T16:34:06Z</time>
      </trkpt>
      <trkpt lat="40.045750" lon="-6.081317">
        <ele>1061.0</ele>
        <time>2015-06-06T16:34:08Z</time>
      </trkpt>
      <trkpt lat="40.045600" lon="-6.081500">
        <ele>1058.0</ele>
        <time>2015-06-06T16:34:10Z</time>
      </trkpt>
      <trkpt lat="40.045450" lon="-6.081700">
        <ele>1054.0</ele>
        <time>2015-06-06T16:34:12Z</time>
      </trkpt>
      <trkpt lat="40.045317" lon="-6.081883">
        <ele>1050.0</ele>
        <time>2015-06-06T16:34:14Z</time>
      </trkpt>
      <trkpt lat="40.045183" lon="-6.082050">
        <ele>1044.0</ele>
        <time>2015-06-06T16:34:16Z</time>
      </trkpt>
      <trkpt lat="40.045050" lon="-6.082250">
        <ele>1038.0</ele>
        <time>2015-06-06T16:34:18Z</time>
      </trkpt>
      <trkpt lat="40.044917" lon="-6.082467">
        <ele>1034.0</ele>
        <time>2015-06-06T16:34:20Z</time>
      </trkpt>
      <trkpt lat="40.044767" lon="-6.082650">
        <ele>1029.0</ele>
        <time>2015-06-06T16:34:22Z</time>
      </trkpt>
      <trkpt lat="40.044617" lon="-6.082850">
        <ele>1024.0</ele>
        <time>2015-06-06T16:34:24Z</time>
      </trkpt>
      <trkpt lat="40.044467" lon="-6.083033">
        <ele>1020.0</ele>
        <time>2015-06-06T16:34:26Z</time>
      </trkpt>
      <trkpt lat="40.044317" lon="-6.083217">
        <ele>1015.0</ele>
        <time>2015-06-06T16:34:28Z</time>
      </trkpt>
      <trkpt lat="40.044167" lon="-6.083383">
        <ele>1010.0</ele>
        <time>2015-06-06T16:34:30Z</time>
      </trkpt>
      <trkpt lat="40.044000" lon="-6.083550">
        <ele>1007.0</ele>
        <time>2015-06-06T16:34:32Z</time>
      </trkpt>
      <trkpt lat="40.043850" lon="-6.083700">
        <ele>1003.0</ele>
        <time>2015-06-06T16:34:34Z</time>
      </trkpt>
      <trkpt lat="40.043683" lon="-6.083850">
        <ele>998.0</ele>
        <time>2015-06-06T16:34:36Z</time>
      </trkpt>
      <trkpt lat="40.043517" lon="-6.084017">
        <ele>993.0</ele>
        <time>2015-06-06T16:34:38Z</time>
      </trkpt>
      <trkpt lat="40.043350" lon="-6.084167">
        <ele>989.0</ele>
        <time>2015-06-06T16:34:40Z</time>
      </trkpt>
      <trkpt lat="40.043183" lon="-6.084317">
        <ele>984.0</ele>
        <time>2015-06-06T16:34:42Z</time>
      </trkpt>
      <trkpt lat="40.043017" lon="-6.084483">
        <ele>980.0</ele>
        <time>2015-06-06T16:34:44Z</time>
      </trkpt>
      <trkpt lat="40.042850" lon="-6.084683">
        <ele>975.0</ele>
        <time>2015-06-06T16:34:46Z</time>
      </trkpt>
      <trkpt lat="40.042683" lon="-6.084883">
        <ele>970.0</ele>
        <time>2015-06-06T16:34:48Z</time>
      </trkpt>
      <trkpt lat="40.042517" lon="-6.085083">
        <ele>965.0</ele>
        <time>2015-06-06T16:34:50Z</time>
      </trkpt>
      <trkpt lat="40.042317" lon="-6.085233">
        <ele>960.0</ele>
        <time>2015-06-06T16:34:52Z</time>
      </trkpt>
      <trkpt lat="40.042133" lon="-6.085400">
        <ele>956.0</ele>
        <time>2015-06-06T16:34:54Z</time>
      </trkpt>
      <trkpt lat="40.041950" lon="-6.085567">
        <ele>953.0</ele>
        <time>2015-06-06T16:34:56Z</time>
      </trkpt>
      <trkpt lat="40.041783" lon="-6.085733">
        <ele>954.0</ele>
        <time>2015-06-06T16:34:58Z</time>
      </trkpt>
      <trkpt lat="40.041667" lon="-6.085967">
        <ele>955.0</ele>
        <time>2015-06-06T16:35:00Z</time>
      </trkpt>
      <trkpt lat="40.041550" lon="-6.086250">
        <ele>953.0</ele>
        <time>2015-06-06T16:35:02Z</time>
      </trkpt>
      <trkpt lat="40.041450" lon="-6.086533">
        <ele>951.0</ele>
        <time>2015-06-06T16:35:04Z</time>
      </trkpt>
      <trkpt lat="40.041450" lon="-6.086900">
        <ele>947.0</ele>
        <time>2015-06-06T16:35:06Z</time>
      </trkpt>
      <trkpt lat="40.041517" lon="-6.087233">
        <ele>943.0</ele>
        <time>2015-06-06T16:35:08Z</time>
      </trkpt>
      <trkpt lat="40.041650" lon="-6.087467">
        <ele>941.0</ele>
        <time>2015-06-06T16:35:10Z</time>
      </trkpt>
      <trkpt lat="40.041817" lon="-6.087600">
        <ele>936.0</ele>
        <time>2015-06-06T16:35:12Z</time>
      </trkpt>
      <trkpt lat="40.041967" lon="-6.087633">
        <ele>931.0</ele>
        <time>2015-06-06T16:35:14Z</time>
      </trkpt>
      <trkpt lat="40.042050" lon="-6.087550">
        <ele>926.0</ele>
        <time>2015-06-06T16:35:16Z</time>
      </trkpt>
      <trkpt lat="40.042050" lon="-6.087433">
        <ele>922.0</ele>
        <time>2015-06-06T16:35:18Z</time>
      </trkpt>
      <trkpt lat="40.041950" lon="-6.087383">
        <ele>919.0</ele>
        <time>2015-06-06T16:35:20Z</time>
      </trkpt>
      <trkpt lat="40.041800" lon="-6.087383">
        <ele>915.0</ele>
        <time>2015-06-06T16:35:22Z</time>
      </trkpt>
      <trkpt lat="40.041600" lon="-6.087433">
        <ele>914.0</ele>
        <time>2015-06-06T16:35:24Z</time>
      </trkpt>
      <trkpt lat="40.041450" lon="-6.087500">
        <ele>914.0</ele>
        <time>2015-06-06T16:35:26Z</time>
      </trkpt>
      <trkpt lat="40.041267" lon="-6.087583">
        <ele>912.0</ele>
        <time>2015-06-06T16:35:28Z</time>
      </trkpt>
      <trkpt lat="40.041083" lon="-6.087683">
        <ele>910.0</ele>
        <time>2015-06-06T16:35:30Z</time>
      </trkpt>
      <trkpt lat="40.040917" lon="-6.087733">
        <ele>913.0</ele>
        <time>2015-06-06T16:35:32Z</time>
      </trkpt>
      <trkpt lat="40.040783" lon="-6.087733">
        <ele>914.0</ele>
        <time>2015-06-06T16:35:34Z</time>
      </trkpt>
      <trkpt lat="40.040683" lon="-6.087700">
        <ele>913.0</ele>
        <time>2015-06-06T16:35:36Z</time>
      </trkpt>
      <trkpt lat="40.040633" lon="-6.087617">
        <ele>913.0</ele>
        <time>2015-06-06T16:35:38Z</time>
      </trkpt>
      <trkpt lat="40.040567" lon="-6.087533">
        <ele>913.0</ele>
        <time>2015-06-06T16:35:40Z</time>
      </trkpt>
      <trkpt lat="40.040433" lon="-6.087567">
        <ele>914.0</ele>
        <time>2015-06-06T16:35:42Z</time>
      </trkpt>
      <trkpt lat="40.040267" lon="-6.087683">
        <ele>912.0</ele>
        <time>2015-06-06T16:35:44Z</time>
      </trkpt>
      <trkpt lat="40.040117" lon="-6.087917">
        <ele>911.0</ele>
        <time>2015-06-06T16:35:46Z</time>
      </trkpt>
      <trkpt lat="40.040050" lon="-6.088250">
        <ele>909.0</ele>
        <time>2015-06-06T16:35:48Z</time>
      </trkpt>
      <trkpt lat="40.040067" lon="-6.088617">
        <ele>911.0</ele>
        <time>2015-06-06T16:35:50Z</time>
      </trkpt>
      <trkpt lat="40.040167" lon="-6.088933">
        <ele>914.0</ele>
        <time>2015-06-06T16:35:52Z</time>
      </trkpt>
      <trkpt lat="40.040333" lon="-6.089150">
        <ele>915.0</ele>
        <time>2015-06-06T16:35:54Z</time>
      </trkpt>
      <trkpt lat="40.040500" lon="-6.089233">
        <ele>914.0</ele>
        <time>2015-06-06T16:35:56Z</time>
      </trkpt>
      <trkpt lat="40.040617" lon="-6.089183">
        <ele>913.0</ele>
        <time>2015-06-06T16:35:58Z</time>
      </trkpt>
      <trkpt lat="40.040633" lon="-6.089083">
        <ele>915.0</ele>
        <time>2015-06-06T16:36:00Z</time>
      </trkpt>
      <trkpt lat="40.040600" lon="-6.089017">
        <ele>917.0</ele>
        <time>2015-06-06T16:36:02Z</time>
      </trkpt>
      <trkpt lat="40.040517" lon="-6.089000">
        <ele>918.0</ele>
        <time>2015-06-06T16:36:04Z</time>
      </trkpt>
      <trkpt lat="40.040367" lon="-6.089017">
        <ele>916.0</ele>
        <time>2015-06-06T16:36:06Z</time>
      </trkpt>
      <trkpt lat="40.040183" lon="-6.089117">
        <ele>914.0</ele>
        <time>2015-06-06T16:36:08Z</time>
      </trkpt>
      <trkpt lat="40.040033" lon="-6.089283">
        <ele>913.0</ele>
        <time>2015-06-06T16:36:10Z</time>
      </trkpt>
      <trkpt lat="40.039867" lon="-6.089450">
        <ele>911.0</ele>
        <time>2015-06-06T16:36:12Z</time>
      </trkpt>
      <trkpt lat="40.039683" lon="-6.089633">
        <ele>910.0</ele>
        <time>2015-06-06T16:36:14Z</time>
      </trkpt>
      <trkpt lat="40.039533" lon="-6.089817">
        <ele>912.0</ele>
        <time>2015-06-06T16:36:16Z</time>
      </trkpt>
      <trkpt lat="40.039417" lon="-6.090017">
        <ele>912.0</ele>
        <time>2015-06-06T16:36:18Z</time>
      </trkpt>
      <trkpt lat="40.039300" lon="-6.090317">
        <ele>910.0</ele>
        <time>2015-06-06T16:36:20Z</time>
      </trkpt>
      <trkpt lat="40.039150" lon="-6.090650">
        <ele>909.0</ele>
        <time>2015-06-06T16:36:22Z</time>
      </trkpt>
      <trkpt lat="40.038983" lon="-6.090883">
        <ele>911.0</ele>
        <time>2015-06-06T16:36:24Z</time>
      </trkpt>
      <trkpt lat="40.038850" lon="-6.091133">
        <ele>912.0</ele>
        <time>2015-06-06T16:36:26Z</time>
      </trkpt>
      <trkpt lat="40.038783" lon="-6.091467">
        <ele>911.0</ele>
        <time>2015-06-06T16:36:28Z</time>
      </trkpt>
      <trkpt lat="40.038767" lon="-6.091783">
        <ele>912.0</ele>
        <time>2015-06-06T16:36:30Z</time>
      </trkpt>
      <trkpt lat="40.038817" lon="-6.092033">
        <ele>915.0</ele>
        <time>2015-06-06T16:36:32Z</time>
      </trkpt>
      <trkpt lat="40.038917" lon="-6.092233">
        <ele>914.0</ele>
        <time>2015-06-06T16:36:34Z</time>
      </trkpt>
      <trkpt lat="40.039050" lon="-6.092367">
        <ele>912.0</ele>
        <time>2015-06-06T16:36:36Z</time>
      </trkpt>
      <trkpt lat="40.039200" lon="-6.092367">
        <ele>910.0</ele>
        <time>2015-06-06T16:36:38Z</time>
      </trkpt>
      <trkpt lat="40.039317" lon="-6.092283">
        <ele>908.0</ele>
        <time>2015-06-06T16:36:40Z</time>
      </trkpt>
      <trkpt lat="40.039367" lon="-6.092167">
        <ele>908.0</ele>
        <time>2015-06-06T16:36:42Z</time>
      </trkpt>
      <trkpt lat="40.039367" lon="-6.092033">
        <ele>905.0</ele>
        <time>2015-06-06T16:36:44Z</time>
      </trkpt>
      <trkpt lat="40.039283" lon="-6.091917">
        <ele>905.0</ele>
        <time>2015-06-06T16:36:46Z</time>
      </trkpt>
      <trkpt lat="40.039150" lon="-6.091900">
        <ele>906.0</ele>
        <time>2015-06-06T16:36:48Z</time>
      </trkpt>
      <trkpt lat="40.038983" lon="-6.091933">
        <ele>905.0</ele>
        <time>2015-06-06T16:36:50Z</time>
      </trkpt>
      <trkpt lat="40.038783" lon="-6.092017">
        <ele>901.0</ele>
        <time>2015-06-06T16:36:52Z</time>
      </trkpt>
      <trkpt lat="40.038567" lon="-6.092167">
        <ele>901.0</ele>
        <time>2015-06-06T16:36:54Z</time>
      </trkpt>
      <trkpt lat="40.038417" lon="-6.092333">
        <ele>904.0</ele>
        <time>2015-06-06T16:36:56Z</time>
      </trkpt>
      <trkpt lat="40.038267" lon="-6.092550">
        <ele>904.0</ele>
        <time>2015-06-06T16:36:58Z</time>
      </trkpt>
      <trkpt lat="40.038150" lon="-6.092800">
        <ele>905.0</ele>
        <time>2015-06-06T16:37:00Z</time>
      </trkpt>
      <trkpt lat="40.038100" lon="-6.093067">
        <ele>905.0</ele>
        <time>2015-06-06T16:37:02Z</time>
      </trkpt>
      <trkpt lat="40.038150" lon="-6.093417">
        <ele>903.0</ele>
        <time>2015-06-06T16:37:04Z</time>
      </trkpt>
      <trkpt lat="40.038283" lon="-6.093683">
        <ele>905.0</ele>
        <time>2015-06-06T16:37:06Z</time>
      </trkpt>
      <trkpt lat="40.038367" lon="-6.093817">
        <ele>909.0</ele>
        <time>2015-06-06T16:37:08Z</time>
      </trkpt>
      <trkpt lat="40.038483" lon="-6.093933">
        <ele>906.0</ele>
        <time>2015-06-06T16:37:10Z</time>
      </trkpt>
      <trkpt lat="40.038667" lon="-6.093967">
        <ele>902.0</ele>
        <time>2015-06-06T16:37:12Z</time>
      </trkpt>
      <trkpt lat="40.038783" lon="-6.093917">
        <ele>902.0</ele>
        <time>2015-06-06T16:37:14Z</time>
      </trkpt>
      <trkpt lat="40.038817" lon="-6.093800">
        <ele>902.0</ele>
        <time>2015-06-06T16:37:16Z</time>
      </trkpt>
      <trkpt lat="40.038767" lon="-6.093700">
        <ele>903.0</ele>
        <time>2015-06-06T16:37:18Z</time>
      </trkpt>
      <trkpt lat="40.038667" lon="-6.093633">
        <ele>903.0</ele>
        <time>2015-06-06T16:37:20Z</time>
      </trkpt>
      <trkpt lat="40.038517" lon="-6.093600">
        <ele>903.0</ele>
        <time>2015-06-06T16:37:22Z</time>
      </trkpt>
      <trkpt lat="40.038333" lon="-6.093650">
        <ele>904.0</ele>
        <time>2015-06-06T16:37:24Z</time>
      </trkpt>
      <trkpt lat="40.038150" lon="-6.093767">
        <ele>904.0</ele>
        <time>2015-06-06T16:37:26Z</time>
      </trkpt>
      <trkpt lat="40.037950" lon="-6.093900">
        <ele>902.0</ele>
        <time>2015-06-06T16:37:28Z</time>
      </trkpt>
      <trkpt lat="40.037750" lon="-6.094083">
        <ele>900.0</ele>
        <time>2015-06-06T16:37:30Z</time>
      </trkpt>
      <trkpt lat="40.037583" lon="-6.094367">
        <ele>898.0</ele>
        <time>2015-06-06T16:37:32Z</time>
      </trkpt>
      <trkpt lat="40.037450" lon="-6.094700">
        <ele>902.0</ele>
        <time>2015-06-06T16:37:34Z</time>
      </trkpt>
      <trkpt lat="40.037383" lon="-6.095050">
        <ele>907.0</ele>
        <time>2015-06-06T16:37:36Z</time>
      </trkpt>
      <trkpt lat="40.037383" lon="-6.095417">
        <ele>910.0</ele>
        <time>2015-06-06T16:37:38Z</time>
      </trkpt>
      <trkpt lat="40.037500" lon="-6.095733">
        <ele>912.0</ele>
        <time>2015-06-06T16:37:40Z</time>
      </trkpt>
      <trkpt lat="40.037700" lon="-6.095883">
        <ele>914.0</ele>
        <time>2015-06-06T16:37:42Z</time>
      </trkpt>
      <trkpt lat="40.037850" lon="-6.095933">
        <ele>920.0</ele>
        <time>2015-06-06T16:37:44Z</time>
      </trkpt>
      <trkpt lat="40.037950" lon="-6.095900">
        <ele>922.0</ele>
        <time>2015-06-06T16:37:46Z</time>
      </trkpt>
      <trkpt lat="40.037983" lon="-6.095783">
        <ele>920.0</ele>
        <time>2015-06-06T16:37:48Z</time>
      </trkpt>
      <trkpt lat="40.037917" lon="-6.095650">
        <ele>919.0</ele>
        <time>2015-06-06T16:37:50Z</time>
      </trkpt>
      <trkpt lat="40.037767" lon="-6.095600">
        <ele>920.0</ele>
        <time>2015-06-06T16:37:52Z</time>
      </trkpt>
      <trkpt lat="40.037567" lon="-6.095667">
        <ele>920.0</ele>
        <time>2015-06-06T16:37:54Z</time>
      </trkpt>
      <trkpt lat="40.037350" lon="-6.095850">
        <ele>920.0</ele>
        <time>2015-06-06T16:37:56Z</time>
      </trkpt>
      <trkpt lat="40.037167" lon="-6.096133">
        <ele>923.0</ele>
        <time>2015-06-06T16:37:58Z</time>
      </trkpt>
      <trkpt lat="40.037050" lon="-6.096433">
        <ele>927.0</ele>
        <time>2015-06-06T16:38:00Z</time>
      </trkpt>
      <trkpt lat="40.036967" lon="-6.096767">
        <ele>929.0</ele>
        <time>2015-06-06T16:38:02Z</time>
      </trkpt>
      <trkpt lat="40.036967" lon="-6.097117">
        <ele>932.0</ele>
        <time>2015-06-06T16:38:04Z</time>
      </trkpt>
      <trkpt lat="40.037033" lon="-6.097417">
        <ele>934.0</ele>
        <time>2015-06-06T16:38:06Z</time>
      </trkpt>
      <trkpt lat="40.037167" lon="-6.097667">
        <ele>938.0</ele>
        <time>2015-06-06T16:38:08Z</time>
      </trkpt>
      <trkpt lat="40.037300" lon="-6.097850">
        <ele>942.0</ele>
        <time>2015-06-06T16:38:10Z</time>
      </trkpt>
      <trkpt lat="40.037483" lon="-6.097967">
        <ele>943.0</ele>
        <time>2015-06-06T16:38:12Z</time>
      </trkpt>
      <trkpt lat="40.037633" lon="-6.097967">
        <ele>945.0</ele>
        <time>2015-06-06T16:38:14Z</time>
      </trkpt>
      <trkpt lat="40.037717" lon="-6.097867">
        <ele>946.0</ele>
        <time>2015-06-06T16:38:16Z</time>
      </trkpt>
      <trkpt lat="40.037700" lon="-6.097767">
        <ele>947.0</ele>
        <time>2015-06-06T16:38:18Z</time>
      </trkpt>
      <trkpt lat="40.037583" lon="-6.097667">
        <ele>946.0</ele>
        <time>2015-06-06T16:38:20Z</time>
      </trkpt>
      <trkpt lat="40.037417" lon="-6.097633">
        <ele>949.0</ele>
        <time>2015-06-06T16:38:22Z</time>
      </trkpt>
      <trkpt lat="40.037267" lon="-6.097683">
        <ele>953.0</ele>
        <time>2015-06-06T16:38:24Z</time>
      </trkpt>
      <trkpt lat="40.037083" lon="-6.097800">
        <ele>954.0</ele>
        <time>2015-06-06T16:38:26Z</time>
      </trkpt>
      <trkpt lat="40.036917" lon="-6.098050">
        <ele>956.0</ele>
        <time>2015-06-06T16:38:28Z</time>
      </trkpt>
      <trkpt lat="40.036783" lon="-6.098317">
        <ele>959.0</ele>
        <time>2015-06-06T16:38:30Z</time>
      </trkpt>
      <trkpt lat="40.036700" lon="-6.098617">
        <ele>962.0</ele>
        <time>2015-06-06T16:38:32Z</time>
      </trkpt>
      <trkpt lat="40.036700" lon="-6.098983">
        <ele>962.0</ele>
        <time>2015-06-06T16:38:34Z</time>
      </trkpt>
      <trkpt lat="40.036783" lon="-6.099350">
        <ele>964.0</ele>
        <time>2015-06-06T16:38:36Z</time>
      </trkpt>
      <trkpt lat="40.036883" lon="-6.099567">
        <ele>968.0</ele>
        <time>2015-06-06T16:38:38Z</time>
      </trkpt>
      <trkpt lat="40.037017" lon="-6.099717">
        <ele>968.0</ele>
        <time>2015-06-06T16:38:40Z</time>
      </trkpt>
      <trkpt lat="40.037200" lon="-6.099733">
        <ele>963.0</ele>
        <time>2015-06-06T16:38:42Z</time>
      </trkpt>
      <trkpt lat="40.037300" lon="-6.099600">
        <ele>961.0</ele>
        <time>2015-06-06T16:38:44Z</time>
      </trkpt>
      <trkpt lat="40.037267" lon="-6.099517">
        <ele>965.0</ele>
        <time>2015-06-06T16:38:46Z</time>
      </trkpt>
      <trkpt lat="40.037200" lon="-6.099500">
        <ele>966.0</ele>
        <time>2015-06-06T16:38:48Z</time>
      </trkpt>
      <trkpt lat="40.037067" lon="-6.099483">
        <ele>964.0</ele>
        <time>2015-06-06T16:38:50Z</time>
      </trkpt>
      <trkpt lat="40.036900" lon="-6.099533">
        <ele>965.0</ele>
        <time>2015-06-06T16:38:52Z</time>
      </trkpt>
      <trkpt lat="40.036750" lon="-6.099667">
        <ele>969.0</ele>
        <time>2015-06-06T16:38:54Z</time>
      </trkpt>
      <trkpt lat="40.036600" lon="-6.099850">
        <ele>970.0</ele>
        <time>2015-06-06T16:38:56Z</time>
      </trkpt>
      <trkpt lat="40.036467" lon="-6.100150">
        <ele>971.0</ele>
        <time>2015-06-06T16:38:58Z</time>
      </trkpt>
      <trkpt lat="40.036433" lon="-6.100517">
        <ele>974.0</ele>
        <time>2015-06-06T16:39:00Z</time>
      </trkpt>
      <trkpt lat="40.036500" lon="-6.100800">
        <ele>979.0</ele>
        <time>2015-06-06T16:39:02Z</time>
      </trkpt>
      <trkpt lat="40.036617" lon="-6.101033">
        <ele>980.0</ele>
        <time>2015-06-06T16:39:04Z</time>
      </trkpt>
      <trkpt lat="40.036783" lon="-6.101117">
        <ele>977.0</ele>
        <time>2015-06-06T16:39:06Z</time>
      </trkpt>
      <trkpt lat="40.036933" lon="-6.101083">
        <ele>977.0</ele>
        <time>2015-06-06T16:39:08Z</time>
      </trkpt>
      <trkpt lat="40.037000" lon="-6.101050">
        <ele>979.0</ele>
        <time>2015-06-06T16:39:10Z</time>
      </trkpt>
      <trkpt lat="40.037033" lon="-6.100983">
        <ele>978.0</ele>
        <time>2015-06-06T16:39:12Z</time>
      </trkpt>
      <trkpt lat="40.036967" lon="-6.100900">
        <ele>976.0</ele>
        <time>2015-06-06T16:39:14Z</time>
      </trkpt>
      <trkpt lat="40.036833" lon="-6.100900">
        <ele>978.0</ele>
        <time>2015-06-06T16:39:16Z</time>
      </trkpt>
      <trkpt lat="40.036717" lon="-6.100967">
        <ele>979.0</ele>
        <time>2015-06-06T16:39:18Z</time>
      </trkpt>
      <trkpt lat="40.036517" lon="-6.101050">
        <ele>977.0</ele>
        <time>2015-06-06T16:39:20Z</time>
      </trkpt>
      <trkpt lat="40.036317" lon="-6.101183">
        <ele>979.0</ele>
        <time>2015-06-06T16:39:22Z</time>
      </trkpt>
      <trkpt lat="40.036150" lon="-6.101350">
        <ele>984.0</ele>
        <time>2015-06-06T16:39:24Z</time>
      </trkpt>
      <trkpt lat="40.036000" lon="-6.101567">
        <ele>988.0</ele>
        <time>2015-06-06T16:39:26Z</time>
      </trkpt>
      <trkpt lat="40.035900" lon="-6.101883">
        <ele>991.0</ele>
        <time>2015-06-06T16:39:28Z</time>
      </trkpt>
      <trkpt lat="40.035883" lon="-6.102200">
        <ele>993.0</ele>
        <time>2015-06-06T16:39:30Z</time>
      </trkpt>
      <trkpt lat="40.035967" lon="-6.102500">
        <ele>995.0</ele>
        <time>2015-06-06T16:39:32Z</time>
      </trkpt>
      <trkpt lat="40.036100" lon="-6.102733">
        <ele>996.0</ele>
        <time>2015-06-06T16:39:34Z</time>
      </trkpt>
      <trkpt lat="40.036267" lon="-6.102817">
        <ele>997.0</ele>
        <time>2015-06-06T16:39:36Z</time>
      </trkpt>
      <trkpt lat="40.036383" lon="-6.102783">
        <ele>998.0</ele>
        <time>2015-06-06T16:39:38Z</time>
      </trkpt>
      <trkpt lat="40.036400" lon="-6.102667">
        <ele>996.0</ele>
        <time>2015-06-06T16:39:40Z</time>
      </trkpt>
      <trkpt lat="40.036350" lon="-6.102550">
        <ele>998.0</ele>
        <time>2015-06-06T16:39:42Z</time>
      </trkpt>
      <trkpt lat="40.036267" lon="-6.102517">
        <ele>1002.0</ele>
        <time>2015-06-06T16:39:44Z</time>
      </trkpt>
      <trkpt lat="40.036150" lon="-6.102517">
        <ele>1005.0</ele>
        <time>2015-06-06T16:39:46Z</time>
      </trkpt>
      <trkpt lat="40.035983" lon="-6.102550">
        <ele>1007.0</ele>
        <time>2015-06-06T16:39:48Z</time>
      </trkpt>
      <trkpt lat="40.035850" lon="-6.102667">
        <ele>1010.0</ele>
        <time>2015-06-06T16:39:50Z</time>
      </trkpt>
      <trkpt lat="40.035733" lon="-6.102867">
        <ele>1011.0</ele>
        <time>2015-06-06T16:39:52Z</time>
      </trkpt>
      <trkpt lat="40.035650" lon="-6.103100">
        <ele>1012.0</ele>
        <time>2015-06-06T16:39:54Z</time>
      </trkpt>
      <trkpt lat="40.035667" lon="-6.103367">
        <ele>1012.0</ele>
        <time>2015-06-06T16:39:56Z</time>
      </trkpt>
      <trkpt lat="40.035750" lon="-6.103617">
        <ele>1012.0</ele>
        <time>2015-06-06T16:39:58Z</time>
      </trkpt>
      <trkpt lat="40.035917" lon="-6.103817">
        <ele>1011.0</ele>
        <time>2015-06-06T16:40:00Z</time>
      </trkpt>
      <trkpt lat="40.036100" lon="-6.103917">
        <ele>1011.0</ele>
        <time>2015-06-06T16:40:02Z</time>
      </trkpt>
      <trkpt lat="40.036267" lon="-6.103933">
        <ele>1015.0</ele>
        <time>2015-06-06T16:40:04Z</time>
      </trkpt>
      <trkpt lat="40.036350" lon="-6.103900">
        <ele>1018.0</ele>
        <time>2015-06-06T16:40:06Z</time>
      </trkpt>
      <trkpt lat="40.036417" lon="-6.103817">
        <ele>1019.0</ele>
        <time>2015-06-06T16:40:08Z</time>
      </trkpt>
      <trkpt lat="40.036400" lon="-6.103717">
        <ele>1019.0</ele>
        <time>2015-06-06T16:40:10Z</time>
      </trkpt>
      <trkpt lat="40.036283" lon="-6.103667">
        <ele>1020.0</ele>
        <time>2015-06-06T16:40:12Z</time>
      </trkpt>
      <trkpt lat="40.036150" lon="-6.103700">
        <ele>1023.0</ele>
        <time>2015-06-06T16:40:14Z</time>
      </trkpt>
      <trkpt lat="40.036000" lon="-6.103800">
        <ele>1024.0</ele>
        <time>2015-06-06T16:40:16Z</time>
      </trkpt>
      <trkpt lat="40.035850" lon="-6.103967">
        <ele>1024.0</ele>
        <time>2015-06-06T16:40:18Z</time>
      </trkpt>
      <trkpt lat="40.035750" lon="-6.104217">
        <ele>1025.0</ele>
        <time>2015-06-06T16:40:20Z</time>
      </trkpt>
      <trkpt lat="40.035733" lon="-6.104483">
        <ele>1027.0</ele>
        <time>2015-06-06T16:40:22Z</time>
      </trkpt>
      <trkpt lat="40.035733" lon="-6.104733">
        <ele>1028.0</ele>
        <time>2015-06-06T16:40:24Z</time>
      </trkpt>
      <trkpt lat="40.035800" lon="-6.105017">
        <ele>1026.0</ele>
        <time>2015-06-06T16:40:26Z</time>
      </trkpt>
      <trkpt lat="40.035933" lon="-6.105217">
        <ele>1024.0</ele>
        <time>2015-06-06T16:40:28Z</time>
      </trkpt>
      <trkpt lat="40.036117" lon="-6.105333">
        <ele>1024.0</ele>
        <time>2015-06-06T16:40:30Z</time>
      </trkpt>
      <trkpt lat="40.036267" lon="-6.105400">
        <ele>1027.0</ele>
        <time>2015-06-06T16:40:32Z</time>
      </trkpt>
      <trkpt lat="40.036417" lon="-6.105383">
        <ele>1028.0</ele>
        <time>2015-06-06T16:40:34Z</time>
      </trkpt>
      <trkpt lat="40.036500" lon="-6.105283">
        <ele>1029.0</ele>
        <time>2015-06-06T16:40:36Z</time>
      </trkpt>
      <trkpt lat="40.036483" lon="-6.105183">
        <ele>1031.0</ele>
        <time>2015-06-06T16:40:38Z</time>
      </trkpt>
      <trkpt lat="40.036400" lon="-6.105150">
        <ele>1034.0</ele>
        <time>2015-06-06T16:40:40Z</time>
      </trkpt>
      <trkpt lat="40.036267" lon="-6.105150">
        <ele>1034.0</ele>
        <time>2015-06-06T16:40:42Z</time>
      </trkpt>
      <trkpt lat="40.036100" lon="-6.105217">
        <ele>1033.0</ele>
        <time>2015-06-06T16:40:44Z</time>
      </trkpt>
      <trkpt lat="40.035967" lon="-6.105400">
        <ele>1034.0</ele>
        <time>2015-06-06T16:40:46Z</time>
      </trkpt>
      <trkpt lat="40.035850" lon="-6.105600">
        <ele>1033.0</ele>
        <time>2015-06-06T16:40:48Z</time>
      </trkpt>
      <trkpt lat="40.035767" lon="-6.105833">
        <ele>1032.0</ele>
        <time>2015-06-06T16:40:50Z</time>
      </trkpt>
      <trkpt lat="40.035750" lon="-6.106117">
        <ele>1032.0</ele>
        <time>2015-06-06T16:40:52Z</time>
      </trkpt>
      <trkpt lat="40.035767" lon="-6.106417">
        <ele>1032.0</ele>
        <time>2015-06-06T16:40:54Z</time>
      </trkpt>
      <trkpt lat="40.035850" lon="-6.106650">
        <ele>1034.0</ele>
        <time>2015-06-06T16:40:56Z</time>
      </trkpt>
      <trkpt lat="40.036000" lon="-6.106867">
        <ele>1034.0</ele>
        <time>2015-06-06T16:40:58Z</time>
      </trkpt>
      <trkpt lat="40.036150" lon="-6.107017">
        <ele>1037.0</ele>
        <time>2015-06-06T16:41:00Z</time>
      </trkpt>
      <trkpt lat="40.036300" lon="-6.107050">
        <ele>1037.0</ele>
        <time>2015-06-06T16:41:02Z</time>
      </trkpt>
      <trkpt lat="40.036450" lon="-6.107017">
        <ele>1038.0</ele>
        <time>2015-06-06T16:41:04Z</time>
      </trkpt>
      <trkpt lat="40.036500" lon="-6.106950">
        <ele>1040.0</ele>
        <time>2015-06-06T16:41:06Z</time>
      </trkpt>
      <trkpt lat="40.036467" lon="-6.106850">
        <ele>1040.0</ele>
        <time>2015-06-06T16:41:08Z</time>
      </trkpt>
      <trkpt lat="40.036333" lon="-6.106783">
        <ele>1043.0</ele>
        <time>2015-06-06T16:41:10Z</time>
      </trkpt>
      <trkpt lat="40.036183" lon="-6.106817">
        <ele>1047.0</ele>
        <time>2015-06-06T16:41:12Z</time>
      </trkpt>
      <trkpt lat="40.036000" lon="-6.106900">
        <ele>1048.0</ele>
        <time>2015-06-06T16:41:14Z</time>
      </trkpt>
      <trkpt lat="40.035867" lon="-6.107083">
        <ele>1049.0</ele>
        <time>2015-06-06T16:41:16Z</time>
      </trkpt>
      <trkpt lat="40.035767" lon="-6.107333">
        <ele>1052.0</ele>
        <time>2015-06-06T16:41:18Z</time>
      </trkpt>
      <trkpt lat="40.035750" lon="-6.107583">
        <ele>1054.0</ele>
        <time>2015-06-06T16:41:20Z</time>
      </trkpt>
      <trkpt lat="40.035817" lon="-6.107833">
        <ele>1052.0</ele>
        <time>2015-06-06T16:41:22Z</time>
      </trkpt>
      <trkpt lat="40.035983" lon="-6.108033">
        <ele>1049.0</ele>
        <time>2015-06-06T16:41:24Z</time>
      </trkpt>
      <trkpt lat="40.036183" lon="-6.108083">
        <ele>1047.0</ele>
        <time>2015-06-06T16:41:26Z</time>
      </trkpt>
      <trkpt lat="40.036300" lon="-6.108033">
        <ele>1051.0</ele>
        <time>2015-06-06T16:41:28Z</time>
      </trkpt>
      <trkpt lat="40.036333" lon="-6.107950">
        <ele>1054.0</ele>
        <time>2015-06-06T16:41:30Z</time>
      </trkpt>
      <trkpt lat="40.036317" lon="-6.107833">
        <ele>1053.0</ele>
        <time>2015-06-06T16:41:32Z</time>
      </trkpt>
      <trkpt lat="40.036250" lon="-6.107750">
        <ele>1055.0</ele>
        <time>2015-06-06T16:41:34Z</time>
      </trkpt>
      <trkpt lat="40.036183" lon="-6.107683">
        <ele>1056.0</ele>
        <time>2015-06-06T16:41:36Z</time>
      </trkpt>
      <trkpt lat="40.036067" lon="-6.107600">
        <ele>1055.0</ele>
        <time>2015-06-06T16:41:38Z</time>
      </trkpt>
      <trkpt lat="40.035933" lon="-6.107550">
        <ele>1056.0</ele>
        <time>2015-06-06T16:41:40Z</time>
      </trkpt>
      <trkpt lat="40.035833" lon="-6.107533">
        <ele>1058.0</ele>
        <time>2015-06-06T16:41:42Z</time>
      </trkpt>
      <trkpt lat="40.035683" lon="-6.107533">
        <ele>1057.0</ele>
        <time>2015-06-06T16:41:44Z</time>
      </trkpt>
      <trkpt lat="40.035500" lon="-6.107550">
        <ele>1055.0</ele>
        <time>2015-06-06T16:41:46Z</time>
      </trkpt>
      <trkpt lat="40.035333" lon="-6.107583">
        <ele>1057.0</ele>
        <time>2015-06-06T16:41:48Z</time>
      </trkpt>
      <trkpt lat="40.035183" lon="-6.107667">
        <ele>1059.0</ele>
        <time>2015-06-06T16:41:50Z</time>
      </trkpt>
      <trkpt lat="40.035017" lon="-6.107783">
        <ele>1060.0</ele>
        <time>2015-06-06T16:41:52Z</time>
      </trkpt>
      <trkpt lat="40.034850" lon="-6.107883">
        <ele>1061.0</ele>
        <time>2015-06-06T16:41:54Z</time>
      </trkpt>
      <trkpt lat="40.034700" lon="-6.108067">
        <ele>1063.0</ele>
        <time>2015-06-06T16:41:56Z</time>
      </trkpt>
      <trkpt lat="40.034617" lon="-6.108350">
        <ele>1063.0</ele>
        <time>2015-06-06T16:41:58Z</time>
      </trkpt>
      <trkpt lat="40.034617" lon="-6.108633">
        <ele>1067.0</ele>
        <time>2015-06-06T16:42:00Z</time>
      </trkpt>
      <trkpt lat="40.034700" lon="-6.108850">
        <ele>1070.0</ele>
        <time>2015-06-06T16:42:02Z</time>
      </trkpt>
      <trkpt lat="40.034883" lon="-6.108950">
        <ele>1070.0</ele>
        <time>2015-06-06T16:42:04Z</time>
      </trkpt>
      <trkpt lat="40.035050" lon="-6.108867">
        <ele>1072.0</ele>
        <time>2015-06-06T16:42:06Z</time>
      </trkpt>
      <trkpt lat="40.035133" lon="-6.108733">
        <ele>1077.0</ele>
        <time>2015-06-06T16:42:08Z</time>
      </trkpt>
      <trkpt lat="40.035167" lon="-6.108617">
        <ele>1080.0</ele>
        <time>2015-06-06T16:42:10Z</time>
      </trkpt>
      <trkpt lat="40.035117" lon="-6.108467">
        <ele>1080.0</ele>
        <time>2015-06-06T16:42:12Z</time>
      </trkpt>
      <trkpt lat="40.035000" lon="-6.108400">
        <ele>1083.0</ele>
        <time>2015-06-06T16:42:14Z</time>
      </trkpt>
      <trkpt lat="40.034867" lon="-6.108400">
        <ele>1086.0</ele>
        <time>2015-06-06T16:42:16Z</time>
      </trkpt>
      <trkpt lat="40.034700" lon="-6.108433">
        <ele>1086.0</ele>
        <time>2015-06-06T16:42:18Z</time>
      </trkpt>
      <trkpt lat="40.034517" lon="-6.108550">
        <ele>1089.0</ele>
        <time>2015-06-06T16:42:20Z</time>
      </trkpt>
      <trkpt lat="40.034400" lon="-6.108700">
        <ele>1095.0</ele>
        <time>2015-06-06T16:42:22Z</time>
      </trkpt>
      <trkpt lat="40.034283" lon="-6.108900">
        <ele>1098.0</ele>
        <time>2015-06-06T16:42:24Z</time>
      </trkpt>
      <trkpt lat="40.034217" lon="-6.109217">
        <ele>1099.0</ele>
        <time>2015-06-06T16:42:26Z</time>
      </trkpt>
      <trkpt lat="40.034283" lon="-6.109533">
        <ele>1101.0</ele>
        <time>2015-06-06T16:42:28Z</time>
      </trkpt>
      <trkpt lat="40.034417" lon="-6.109750">
        <ele>1103.0</ele>
        <time>2015-06-06T16:42:30Z</time>
      </trkpt>
      <trkpt lat="40.034583" lon="-6.109833">
        <ele>1105.0</ele>
        <time>2015-06-06T16:42:32Z</time>
      </trkpt>
      <trkpt lat="40.034700" lon="-6.109800">
        <ele>1107.0</ele>
        <time>2015-06-06T16:42:34Z</time>
      </trkpt>
      <trkpt lat="40.034783" lon="-6.109683">
        <ele>1111.0</ele>
        <time>2015-06-06T16:42:36Z</time>
      </trkpt>
      <trkpt lat="40.034783" lon="-6.109600">
        <ele>1115.0</ele>
        <time>2015-06-06T16:42:38Z</time>
      </trkpt>
      <trkpt lat="40.034700" lon="-6.109483">
        <ele>1114.0</ele>
        <time>2015-06-06T16:42:40Z</time>
      </trkpt>
      <trkpt lat="40.034550" lon="-6.109417">
        <ele>1116.0</ele>
        <time>2015-06-06T16:42:42Z</time>
      </trkpt>
      <trkpt lat="40.034367" lon="-6.109450">
        <ele>1120.0</ele>
        <time>2015-06-06T16:42:44Z</time>
      </trkpt>
      <trkpt lat="40.034183" lon="-6.109533">
        <ele>1125.0</ele>
        <time>2015-06-06T16:42:46Z</time>
      </trkpt>
      <trkpt lat="40.034017" lon="-6.109683">
        <ele>1130.0</ele>
        <time>2015-06-06T16:42:48Z</time>
      </trkpt>
      <trkpt lat="40.033850" lon="-6.109967">
        <ele>1131.0</ele>
        <time>2015-06-06T16:42:50Z</time>
      </trkpt>
      <trkpt lat="40.033800" lon="-6.110317">
        <ele>1134.0</ele>
        <time>2015-06-06T16:42:52Z</time>
      </trkpt>
      <trkpt lat="40.033867" lon="-6.110633">
        <ele>1140.0</ele>
        <time>2015-06-06T16:42:54Z</time>
      </trkpt>
      <trkpt lat="40.033983" lon="-6.110867">
        <ele>1143.0</ele>
        <time>2015-06-06T16:42:56Z</time>
      </trkpt>
      <trkpt lat="40.034183" lon="-6.110983">
        <ele>1144.0</ele>
        <time>2015-06-06T16:42:58Z</time>
      </trkpt>
      <trkpt lat="40.034350" lon="-6.111000">
        <ele>1148.0</ele>
        <time>2015-06-06T16:43:00Z</time>
      </trkpt>
      <trkpt lat="40.034450" lon="-6.110933">
        <ele>1154.0</ele>
        <time>2015-06-06T16:43:02Z</time>
      </trkpt>
      <trkpt lat="40.034483" lon="-6.110817">
        <ele>1154.0</ele>
        <time>2015-06-06T16:43:04Z</time>
      </trkpt>
      <trkpt lat="40.034400" lon="-6.110667">
        <ele>1156.0</ele>
        <time>2015-06-06T16:43:06Z</time>
      </trkpt>
      <trkpt lat="40.034233" lon="-6.110633">
        <ele>1161.0</ele>
        <time>2015-06-06T16:43:08Z</time>
      </trkpt>
      <trkpt lat="40.034050" lon="-6.110733">
        <ele>1167.0</ele>
        <time>2015-06-06T16:43:10Z</time>
      </trkpt>
      <trkpt lat="40.033917" lon="-6.110950">
        <ele>1171.0</ele>
        <time>2015-06-06T16:43:12Z</time>
      </trkpt>
      <trkpt lat="40.033883" lon="-6.111300">
        <ele>1173.0</ele>
        <time>2015-06-06T16:43:14Z</time>
      </trkpt>
      <trkpt lat="40.034000" lon="-6.111600">
        <ele>1176.0</ele>
        <time>2015-06-06T16:43:16Z</time>
      </trkpt>
      <trkpt lat="40.034167" lon="-6.111733">
        <ele>1181.0</ele>
        <time>2015-06-06T16:43:18Z</time>
      </trkpt>
      <trkpt lat="40.034317" lon="-6.111750">
        <ele>1187.0</ele>
        <time>2015-06-06T16:43:20Z</time>
      </trkpt>
      <trkpt lat="40.034433" lon="-6.111683">
        <ele>1189.0</ele>
        <time>2015-06-06T16:43:22Z</time>
      </trkpt>
      <trkpt lat="40.034433" lon="-6.111517">
        <ele>1191.0</ele>
        <time>2015-06-06T16:43:24Z</time>
      </trkpt>
      <trkpt lat="40.034350" lon="-6.111400">
        <ele>1196.0</ele>
        <time>2015-06-06T16:43:26Z</time>
      </trkpt>
      <trkpt lat="40.034233" lon="-6.111350">
        <ele>1201.0</ele>
        <time>2015-06-06T16:43:28Z</time>
      </trkpt>
      <trkpt lat="40.034050" lon="-6.111367">
        <ele>1203.0</ele>
        <time>2015-06-06T16:43:30Z</time>
      </trkpt>
      <trkpt lat="40.033867" lon="-6.111517">
        <ele>1205.0</ele>
        <time>2015-06-06T16:43:32Z</time>
      </trkpt>
      <trkpt lat="40.033717" lon="-6.111800">
        <ele>1207.0</ele>
        <time>2015-06-06T16:43:34Z</time>
      </trkpt>
      <trkpt lat="40.033633" lon="-6.112133">
        <ele>1209.0</ele>
        <time>2015-06-06T16:43:36Z</time>
      </trkpt>
      <trkpt lat="40.033700" lon="-6.112483">
        <ele>1211.0</ele>
        <time>2015-06-06T16:43:38Z</time>
      </trkpt>
      <trkpt lat="40.033850" lon="-6.112683">
        <ele>1218.0</ele>
        <time>2015-06-06T16:43:40Z</time>
      </trkpt>
      <trkpt lat="40.034000" lon="-6.112750">
        <ele>1225.0</ele>
        <time>2015-06-06T16:43:42Z</time>
      </trkpt>
      <trkpt lat="40.034117" lon="-6.112700">
        <ele>1228.0</ele>
        <time>2015-06-06T16:43:44Z</time>
      </trkpt>
      <trkpt lat="40.034183" lon="-6.112550">
        <ele>1230.0</ele>
        <time>2015-06-06T16:43:46Z</time>
      </trkpt>
      <trkpt lat="40.034100" lon="-6.112433">
        <ele>1233.0</ele>
        <time>2015-06-06T16:43:48Z</time>
      </trkpt>
      <trkpt lat="40.033967" lon="-6.112383">
        <ele>1237.0</ele>
        <time>2015-06-06T16:43:50Z</time>
      </trkpt>
      <trkpt lat="40.033817" lon="-6.112433">
        <ele>1241.0</ele>
        <time>2015-06-06T16:43:52Z</time>
      </trkpt>
      <trkpt lat="40.033650" lon="-6.112600">
        <ele>1243.0</ele>
        <time>2015-06-06T16:43:54Z</time>
      </trkpt>
      <trkpt lat="40.033550" lon="-6.112900">
        <ele>1245.0</ele>
        <time>2015-06-06T16:43:56Z</time>
      </trkpt>
      <trkpt lat="40.033583" lon="-6.113233">
        <ele>1249.0</ele>
        <time>2015-06-06T16:43:58Z</time>
      </trkpt>
      <trkpt lat="40.033700" lon="-6.113483">
        <ele>1251.0</ele>
        <time>2015-06-06T16:44:00Z</time>
      </trkpt>
      <trkpt lat="40.033883" lon="-6.113600">
        <ele>1254.0</ele>
        <time>2015-06-06T16:44:02Z</time>
      </trkpt>
      <trkpt lat="40.034033" lon="-6.113550">
        <ele>1259.0</ele>
        <time>2015-06-06T16:44:04Z</time>
      </trkpt>
      <trkpt lat="40.034083" lon="-6.113433">
        <ele>1264.0</ele>
        <time>2015-06-06T16:44:06Z</time>
      </trkpt>
      <trkpt lat="40.034050" lon="-6.113317">
        <ele>1267.0</ele>
        <time>2015-06-06T16:44:08Z</time>
      </trkpt>
      <trkpt lat="40.033933" lon="-6.113233">
        <ele>1269.0</ele>
        <time>2015-06-06T16:44:10Z</time>
      </trkpt>
      <trkpt lat="40.033767" lon="-6.113267">
        <ele>1272.0</ele>
        <time>2015-06-06T16:44:12Z</time>
      </trkpt>
      <trkpt lat="40.033600" lon="-6.113400">
        <ele>1276.0</ele>
        <time>2015-06-06T16:44:14Z</time>
      </trkpt>
      <trkpt lat="40.033467" lon="-6.113633">
        <ele>1279.0</ele>
        <time>2015-06-06T16:44:16Z</time>
      </trkpt>
      <trkpt lat="40.033417" lon="-6.113967">
        <ele>1282.0</ele>
        <time>2015-06-06T16:44:18Z</time>
      </trkpt>
      <trkpt lat="40.033500" lon="-6.114283">
        <ele>1285.0</ele>
        <time>2015-06-06T16:44:20Z</time>
      </trkpt>
      <trkpt lat="40.033617" lon="-6.114500">
        <ele>1289.0</ele>
        <time>2015-06-06T16:44:22Z</time>
      </trkpt>
      <trkpt lat="40.033783" lon="-6.114583">
        <ele>1293.0</ele>
        <time>2015-06-06T16:44:24Z</time>
      </trkpt>
      <trkpt lat="40.033933" lon="-6.114550">
        <ele>1295.0</ele>
        <time>2015-06-06T16:44:26Z</time>
      </trkpt>
      <trkpt lat="40.033983" lon="-6.114433">
        <ele>1298.0</ele>
        <time>2015-06-06T16:44:28Z</time>
      </trkpt>
      <trkpt lat="40.033933" lon="-6.114300">
        <ele>1301.0</ele>
        <time>2015-06-06T16:44:30Z</time>
      </trkpt>
      <trkpt lat="40.033817" lon="-6.114250">
        <ele>1305.0</ele>
        <time>2015-06-06T16:44:32Z</time>
      </trkpt>
      <trkpt lat="40.033650" lon="-6.114317">
        <ele>1309.0</ele>
        <time>2015-06-06T16:44:34Z</time>
      </trkpt>
      <trkpt lat="40.033500" lon="-6.114467">
        <ele>1313.0</ele>
        <time>2015-06-06T16:44:36Z</time>
      </trkpt>
      <trkpt lat="40.033400" lon="-6.114717">
        <ele>1318.0</ele>
        <time>2015-06-06T16:44:38Z</time>
      </trkpt>
      <trkpt lat="40.033350" lon="-6.115017">
        <ele>1321.0</ele>
        <time>2015-06-06T16:44:40Z</time>
      </trkpt>
      <trkpt lat="40.033383" lon="-6.115317">
        <ele>1323.0</ele>
        <time>2015-06-06T16:44:42Z</time>
      </trkpt>
      <trkpt lat="40.033517" lon="-6.115567">
        <ele>1324.0</ele>
        <time>2015-06-06T16:44:44Z</time>
      </trkpt>
      <trkpt lat="40.033717" lon="-6.115683">
        <ele>1326.0</ele>
        <time>2015-06-06T16:44:46Z</time>
      </trkpt>
      <trkpt lat="40.033867" lon="-6.115650">
        <ele>1330.0</ele>
        <time>2015-06-06T16:44:48Z</time>
      </trkpt>
      <trkpt lat="40.033967" lon="-6.115600">
        <ele>1334.0</ele>
        <time>2015-06-06T16:44:50Z</time>
      </trkpt>
      <trkpt lat="40.034017" lon="-6.115483">
        <ele>1335.0</ele>
        <time>2015-06-06T16:44:52Z</time>
      </trkpt>
      <trkpt lat="40.033967" lon="-6.115317">
        <ele>1335.0</ele>
        <time>2015-06-06T16:44:54Z</time>
      </trkpt>
      <trkpt lat="40.033867" lon="-6.115217">
        <ele>1338.0</ele>
        <time>2015-06-06T16:44:56Z</time>
      </trkpt>
      <trkpt lat="40.033717" lon="-6.115200">
        <ele>1340.0</ele>
        <time>2015-06-06T16:44:58Z</time>
      </trkpt>
      <trkpt lat="40.033533" lon="-6.115267">
        <ele>1341.0</ele>
        <time>2015-06-06T16:45:00Z</time>
      </trkpt>
      <trkpt lat="40.033383" lon="-6.115417">
        <ele>1345.0</ele>
        <time>2015-06-06T16:45:02Z</time>
      </trkpt>
      <trkpt lat="40.033267" lon="-6.115617">
        <ele>1350.0</ele>
        <time>2015-06-06T16:45:04Z</time>
      </trkpt>
      <trkpt lat="40.033183" lon="-6.115900">
        <ele>1353.0</ele>
        <time>2015-06-06T16:45:06Z</time>
      </trkpt>
      <trkpt lat="40.033200" lon="-6.116250">
        <ele>1355.0</ele>
        <time>2015-06-06T16:45:08Z</time>
      </trkpt>
      <trkpt lat="40.033333" lon="-6.116467">
        <ele>1362.0</ele>
        <time>2015-06-06T16:45:10Z</time>
      </trkpt>
      <trkpt lat="40.033450" lon="-6.116600">
        <ele>1365.0</ele>
        <time>2015-06-06T16:45:12Z</time>
      </trkpt>
      <trkpt lat="40.033617" lon="-6.116633">
        <ele>1365.0</ele>
        <time>2015-06-06T16:45:14Z</time>
      </trkpt>
      <trkpt lat="40.033733" lon="-6.116533">
        <ele>1365.0</ele>
        <time>2015-06-06T16:45:16Z</time>
      </trkpt>
      <trkpt lat="40.033733" lon="-6.116383">
        <ele>1367.0</ele>
        <time>2015-06-06T16:45:18Z</time>
      </trkpt>
      <trkpt lat="40.033650" lon="-6.116300">
        <ele>1371.0</ele>
        <time>2015-06-06T16:45:20Z</time>
      </trkpt>
      <trkpt lat="40.033533" lon="-6.116250">
        <ele>1372.0</ele>
        <time>2015-06-06T16:45:22Z</time>
      </trkpt>
      <trkpt lat="40.033350" lon="-6.116283">
        <ele>1373.0</ele>
        <time>2015-06-06T16:45:24Z</time>
      </trkpt>
      <trkpt lat="40.033167" lon="-6.116450">
        <ele>1376.0</ele>
        <time>2015-06-06T16:45:26Z</time>
      </trkpt>
      <trkpt lat="40.033050" lon="-6.116633">
        <ele>1380.0</ele>
        <time>2015-06-06T16:45:28Z</time>
      </trkpt>
      <trkpt lat="40.032950" lon="-6.116900">
        <ele>1380.0</ele>
        <time>2015-06-06T16:45:30Z</time>
      </trkpt>
      <trkpt lat="40.032900" lon="-6.117267">
        <ele>1379.0</ele>
        <time>2015-06-06T16:45:32Z</time>
      </trkpt>
      <trkpt lat="40.032933" lon="-6.117583">
        <ele>1383.0</ele>
        <time>2015-06-06T16:45:34Z</time>
      </trkpt>
      <trkpt lat="40.033067" lon="-6.117850">
        <ele>1385.0</ele>
        <time>2015-06-06T16:45:36Z</time>
      </trkpt>
      <trkpt lat="40.033233" lon="-6.118017">
        <ele>1386.0</ele>
        <time>2015-06-06T16:45:38Z</time>
      </trkpt>
      <trkpt lat="40.033417" lon="-6.118017">
        <ele>1388.0</ele>
        <time>2015-06-06T16:45:40Z</time>
      </trkpt>
      <trkpt lat="40.033517" lon="-6.117933">
        <ele>1390.0</ele>
        <time>2015-06-06T16:45:42Z</time>
      </trkpt>
      <trkpt lat="40.033533" lon="-6.117817">
        <ele>1391.0</ele>
        <time>2015-06-06T16:45:44Z</time>
      </trkpt>
      <trkpt lat="40.033483" lon="-6.117667">
        <ele>1392.0</ele>
        <time>2015-06-06T16:45:46Z</time>
      </trkpt>
      <trkpt lat="40.033383" lon="-6.117583">
        <ele>1396.0</ele>
        <time>2015-06-06T16:45:48Z</time>
      </trkpt>
      <trkpt lat="40.033300" lon="-6.117617">
        <ele>1402.0</ele>
        <time>2015-06-06T16:45:50Z</time>
      </trkpt>
      <trkpt lat="40.033183" lon="-6.117700">
        <ele>1402.0</ele>
        <time>2015-06-06T16:45:52Z</time>
      </trkpt>
      <trkpt lat="40.033017" lon="-6.117850">
        <ele>1400.0</ele>
        <time>2015-06-06T16:45:54Z</time>
      </trkpt>
      <trkpt lat="40.032900" lon="-6.118117">
        <ele>1402.0</ele>
        <time>2015-06-06T16:45:56Z</time>
      </trkpt>
      <trkpt lat="40.032833" lon="-6.118400">
        <ele>1404.0</ele>
        <time>2015-06-06T16:45:58Z</time>
      </trkpt>
      <trkpt lat="40.032850" lon="-6.118733">
        <ele>1404.0</ele>
        <time>2015-06-06T16:46:00Z</time>
      </trkpt>
      <trkpt lat="40.032950" lon="-6.119033">
        <ele>1404.0</ele>
        <time>2015-06-06T16:46:02Z</time>
      </trkpt>
      <trkpt lat="40.033117" lon="-6.119200">
        <ele>1406.0</ele>
        <time>2015-06-06T16:46:04Z</time>
      </trkpt>
      <trkpt lat="40.033267" lon="-6.119233">
        <ele>1406.0</ele>
        <time>2015-06-06T16:46:06Z</time>
      </trkpt>
      <trkpt lat="40.033383" lon="-6.119183">
        <ele>1405.0</ele>
        <time>2015-06-06T16:46:08Z</time>
      </trkpt>
      <trkpt lat="40.033417" lon="-6.119033">
        <ele>1403.0</ele>
        <time>2015-06-06T16:46:10Z</time>
      </trkpt>
      <trkpt lat="40.033383" lon="-6.118867">
        <ele>1403.0</ele>
        <time>2015-06-06T16:46:12Z</time>
      </trkpt>
      <trkpt lat="40.033317" lon="-6.118750">
        <ele>1405.0</ele>
        <time>2015-06-06T16:46:14Z</time>
      </trkpt>
      <trkpt lat="40.033233" lon="-6.118633">
        <ele>1407.0</ele>
        <time>2015-06-06T16:46:16Z</time>
      </trkpt>
      <trkpt lat="40.033150" lon="-6.118533">
        <ele>1412.0</ele>
        <time>2015-06-06T16:46:18Z</time>
      </trkpt>
      <trkpt lat="40.033067" lon="-6.118500">
        <ele>1419.0</ele>
        <time>2015-06-06T16:46:20Z</time>
      </trkpt>
      <trkpt lat="40.032983" lon="-6.118467">
        <ele>1421.0</ele>
        <time>2015-06-06T16:46:22Z</time>
      </trkpt>
      <trkpt lat="40.032817" lon="-6.118517">
        <ele>1420.0</ele>
        <time>2015-06-06T16:46:24Z</time>
      </trkpt>
      <trkpt lat="40.032650" lon="-6.118700">
        <ele>1418.0</ele>
        <time>2015-06-06T16:46:26Z</time>
      </trkpt>
      <trkpt lat="40.032533" lon="-6.118950">
        <ele>1420.0</ele>
        <time>2015-06-06T16:46:28Z</time>
      </trkpt>
      <trkpt lat="40.032517" lon="-6.119250">
        <ele>1420.0</ele>
        <time>2015-06-06T16:46:30Z</time>
      </trkpt>
      <trkpt lat="40.032600" lon="-6.119617">
        <ele>1418.0</ele>
        <time>2015-06-06T16:46:32Z</time>
      </trkpt>
      <trkpt lat="40.032750" lon="-6.119850">
        <ele>1423.0</ele>
        <time>2015-06-06T16:46:34Z</time>
      </trkpt>
      <trkpt lat="40.032900" lon="-6.119967">
        <ele>1429.0</ele>
        <time>2015-06-06T16:46:36Z</time>
      </trkpt>
      <trkpt lat="40.033050" lon="-6.119983">
        <ele>1431.0</ele>
        <time>2015-06-06T16:46:38Z</time>
      </trkpt>
      <trkpt lat="40.033167" lon="-6.119867">
        <ele>1431.0</ele>
        <time>2015-06-06T16:46:40Z</time>
      </trkpt>
      <trkpt lat="40.033183" lon="-6.119733">
        <ele>1434.0</ele>
        <time>2015-06-06T16:46:42Z</time>
      </trkpt>
      <trkpt lat="40.033117" lon="-6.119683">
        <ele>1439.0</ele>
        <time>2015-06-06T16:46:44Z</time>
      </trkpt>
      <trkpt lat="40.033000" lon="-6.119683">
        <ele>1439.0</ele>
        <time>2015-06-06T16:46:46Z</time>
      </trkpt>
      <trkpt lat="40.032850" lon="-6.119767">
        <ele>1437.0</ele>
        <time>2015-06-06T16:46:48Z</time>
      </trkpt>
      <trkpt lat="40.032683" lon="-6.119900">
        <ele>1438.0</ele>
        <time>2015-06-06T16:46:50Z</time>
      </trkpt>
      <trkpt lat="40.032567" lon="-6.120100">
        <ele>1439.0</ele>
        <time>2015-06-06T16:46:52Z</time>
      </trkpt>
      <trkpt lat="40.032467" lon="-6.120383">
        <ele>1440.0</ele>
        <time>2015-06-06T16:46:54Z</time>
      </trkpt>
      <trkpt lat="40.032400" lon="-6.120683">
        <ele>1444.0</ele>
        <time>2015-06-06T16:46:56Z</time>
      </trkpt>
      <trkpt lat="40.032433" lon="-6.121000">
        <ele>1445.0</ele>
        <time>2015-06-06T16:46:58Z</time>
      </trkpt>
      <trkpt lat="40.032600" lon="-6.121283">
        <ele>1444.0</ele>
        <time>2015-06-06T16:47:00Z</time>
      </trkpt>
      <trkpt lat="40.032733" lon="-6.121400">
        <ele>1450.0</ele>
        <time>2015-06-06T16:47:02Z</time>
      </trkpt>
      <trkpt lat="40.032833" lon="-6.121433">
        <ele>1451.0</ele>
        <time>2015-06-06T16:47:04Z</time>
      </trkpt>
      <trkpt lat="40.032967" lon="-6.121350">
        <ele>1449.0</ele>
        <time>2015-06-06T16:47:06Z</time>
      </trkpt>
      <trkpt lat="40.032967" lon="-6.121183">
        <ele>1446.0</ele>
        <time>2015-06-06T16:47:08Z</time>
      </trkpt>
      <trkpt lat="40.032900" lon="-6.121067">
        <ele>1451.0</ele>
        <time>2015-06-06T16:47:10Z</time>
      </trkpt>
      <trkpt lat="40.032817" lon="-6.121033">
        <ele>1456.0</ele>
        <time>2015-06-06T16:47:12Z</time>
      </trkpt>
      <trkpt lat="40.032700" lon="-6.121033">
        <ele>1454.0</ele>
        <time>2015-06-06T16:47:14Z</time>
      </trkpt>
      <trkpt lat="40.032550" lon="-6.121067">
        <ele>1453.0</ele>
        <time>2015-06-06T16:47:16Z</time>
      </trkpt>
      <trkpt lat="40.032383" lon="-6.121167">
        <ele>1455.0</ele>
        <time>2015-06-06T16:47:18Z</time>
      </trkpt>
      <trkpt lat="40.032233" lon="-6.121267">
        <ele>1457.0</ele>
        <time>2015-06-06T16:47:20Z</time>
      </trkpt>
      <trkpt lat="40.032083" lon="-6.121383">
        <ele>1456.0</ele>
        <time>2015-06-06T16:47:22Z</time>
      </trkpt>
      <trkpt lat="40.031950" lon="-6.121583">
        <ele>1454.0</ele>
        <time>2015-06-06T16:47:24Z</time>
      </trkpt>
      <trkpt lat="40.031817" lon="-6.121833">
        <ele>1452.0</ele>
        <time>2015-06-06T16:47:26Z</time>
      </trkpt>
      <trkpt lat="40.031683" lon="-6.122083">
        <ele>1451.0</ele>
        <time>2015-06-06T16:47:28Z</time>
      </trkpt>
      <trkpt lat="40.031533" lon="-6.122283">
        <ele>1450.0</ele>
        <time>2015-06-06T16:47:30Z</time>
      </trkpt>
      <trkpt lat="40.031367" lon="-6.122467">
        <ele>1447.0</ele>
        <time>2015-06-06T16:47:32Z</time>
      </trkpt>
      <trkpt lat="40.031200" lon="-6.122617">
        <ele>1447.0</ele>
        <time>2015-06-06T16:47:34Z</time>
      </trkpt>
      <trkpt lat="40.031050" lon="-6.122750">
        <ele>1447.0</ele>
        <time>2015-06-06T16:47:36Z</time>
      </trkpt>
      <trkpt lat="40.030900" lon="-6.122883">
        <ele>1445.0</ele>
        <time>2015-06-06T16:47:38Z</time>
      </trkpt>
      <trkpt lat="40.030733" lon="-6.123000">
        <ele>1444.0</ele>
        <time>2015-06-06T16:47:40Z</time>
      </trkpt>
      <trkpt lat="40.030600" lon="-6.123133">
        <ele>1444.0</ele>
        <time>2015-06-06T16:47:42Z</time>
      </trkpt>
      <trkpt lat="40.030450" lon="-6.123267">
        <ele>1442.0</ele>
        <time>2015-06-06T16:47:44Z</time>
      </trkpt>
      <trkpt lat="40.030300" lon="-6.123383">
        <ele>1439.0</ele>
        <time>2015-06-06T16:47:46Z</time>
      </trkpt>
      <trkpt lat="40.030133" lon="-6.123500">
        <ele>1435.0</ele>
        <time>2015-06-06T16:47:48Z</time>
      </trkpt>
      <trkpt lat="40.029983" lon="-6.123600">
        <ele>1432.0</ele>
        <time>2015-06-06T16:47:50Z</time>
      </trkpt>
      <trkpt lat="40.029817" lon="-6.123700">
        <ele>1429.0</ele>
        <time>2015-06-06T16:47:52Z</time>
      </trkpt>
      <trkpt lat="40.029633" lon="-6.123800">
        <ele>1427.0</ele>
        <time>2015-06-06T16:47:54Z</time>
      </trkpt>
      <trkpt lat="40.029467" lon="-6.123900">
        <ele>1426.0</ele>
        <time>2015-06-06T16:47:56Z</time>
      </trkpt>
      <trkpt lat="40.029300" lon="-6.123967">
        <ele>1424.0</ele>
        <time>2015-06-06T16:47:58Z</time>
      </trkpt>
      <trkpt lat="40.029117" lon="-6.124000">
        <ele>1423.0</ele>
        <time>2015-06-06T16:48:00Z</time>
      </trkpt>
      <trkpt lat="40.028967" lon="-6.124050">
        <ele>1421.0</ele>
        <time>2015-06-06T16:48:02Z</time>
      </trkpt>
      <trkpt lat="40.028650" lon="-6.124100">
        <ele>1419.0</ele>
        <time>2015-06-06T16:48:06Z</time>
      </trkpt>
      <trkpt lat="40.028433" lon="-6.124200">
        <ele>1419.0</ele>
        <time>2015-06-06T16:48:08Z</time>
      </trkpt>
      <trkpt lat="40.028333" lon="-6.124250">
        <ele>1415.0</ele>
        <time>2015-06-06T16:48:10Z</time>
      </trkpt>
      <trkpt lat="40.028117" lon="-6.124383">
        <ele>1411.0</ele>
        <time>2015-06-06T16:48:12Z</time>
      </trkpt>
      <trkpt lat="40.027917" lon="-6.124517">
        <ele>1414.0</ele>
        <time>2015-06-06T16:48:14Z</time>
      </trkpt>
      <trkpt lat="40.027733" lon="-6.124633">
        <ele>1417.0</ele>
        <time>2015-06-06T16:48:16Z</time>
      </trkpt>
      <trkpt lat="40.027567" lon="-6.124767">
        <ele>1418.0</ele>
        <time>2015-06-06T16:48:18Z</time>
      </trkpt>
      <trkpt lat="40.027417" lon="-6.125000">
        <ele>1416.0</ele>
        <time>2015-06-06T16:48:20Z</time>
      </trkpt>
      <trkpt lat="40.027217" lon="-6.125233">
        <ele>1415.0</ele>
        <time>2015-06-06T16:48:22Z</time>
      </trkpt>
      <trkpt lat="40.027017" lon="-6.125417">
        <ele>1417.0</ele>
        <time>2015-06-06T16:48:24Z</time>
      </trkpt>
      <trkpt lat="40.026850" lon="-6.125600">
        <ele>1418.0</ele>
        <time>2015-06-06T16:48:26Z</time>
      </trkpt>
      <trkpt lat="40.026683" lon="-6.125767">
        <ele>1415.0</ele>
        <time>2015-06-06T16:48:28Z</time>
      </trkpt>
      <trkpt lat="40.026483" lon="-6.125967">
        <ele>1410.0</ele>
        <time>2015-06-06T16:48:30Z</time>
      </trkpt>
      <trkpt lat="40.026300" lon="-6.126167">
        <ele>1411.0</ele>
        <time>2015-06-06T16:48:32Z</time>
      </trkpt>
      <trkpt lat="40.026150" lon="-6.126317">
        <ele>1411.0</ele>
        <time>2015-06-06T16:48:34Z</time>
      </trkpt>
      <trkpt lat="40.025983" lon="-6.126417">
        <ele>1406.0</ele>
        <time>2015-06-06T16:48:36Z</time>
      </trkpt>
      <trkpt lat="40.025767" lon="-6.126517">
        <ele>1402.0</ele>
        <time>2015-06-06T16:48:38Z</time>
      </trkpt>
      <trkpt lat="40.025583" lon="-6.126633">
        <ele>1401.0</ele>
        <time>2015-06-06T16:48:40Z</time>
      </trkpt>
      <trkpt lat="40.025400" lon="-6.126783">
        <ele>1398.0</ele>
        <time>2015-06-06T16:48:42Z</time>
      </trkpt>
      <trkpt lat="40.025183" lon="-6.126917">
        <ele>1395.0</ele>
        <time>2015-06-06T16:48:44Z</time>
      </trkpt>
      <trkpt lat="40.025000" lon="-6.127000">
        <ele>1394.0</ele>
        <time>2015-06-06T16:48:46Z</time>
      </trkpt>
      <trkpt lat="40.024817" lon="-6.127117">
        <ele>1391.0</ele>
        <time>2015-06-06T16:48:48Z</time>
      </trkpt>
      <trkpt lat="40.024633" lon="-6.127233">
        <ele>1387.0</ele>
        <time>2015-06-06T16:48:50Z</time>
      </trkpt>
      <trkpt lat="40.024400" lon="-6.127367">
        <ele>1383.0</ele>
        <time>2015-06-06T16:48:52Z</time>
      </trkpt>
      <trkpt lat="40.024200" lon="-6.127517">
        <ele>1382.0</ele>
        <time>2015-06-06T16:48:54Z</time>
      </trkpt>
      <trkpt lat="40.024000" lon="-6.127633">
        <ele>1379.0</ele>
        <time>2015-06-06T16:48:56Z</time>
      </trkpt>
      <trkpt lat="40.023800" lon="-6.127750">
        <ele>1376.0</ele>
        <time>2015-06-06T16:48:58Z</time>
      </trkpt>
      <trkpt lat="40.023583" lon="-6.127867">
        <ele>1375.0</ele>
        <time>2015-06-06T16:49:00Z</time>
      </trkpt>
      <trkpt lat="40.023383" lon="-6.127983">
        <ele>1374.0</ele>
        <time>2015-06-06T16:49:02Z</time>
      </trkpt>
      <trkpt lat="40.023217" lon="-6.128067">
        <ele>1372.0</ele>
        <time>2015-06-06T16:49:04Z</time>
      </trkpt>
      <trkpt lat="40.023033" lon="-6.128150">
        <ele>1370.0</ele>
        <time>2015-06-06T16:49:06Z</time>
      </trkpt>
      <trkpt lat="40.022867" lon="-6.128233">
        <ele>1367.0</ele>
        <time>2015-06-06T16:49:08Z</time>
      </trkpt>
      <trkpt lat="40.022700" lon="-6.128300">
        <ele>1363.0</ele>
        <time>2015-06-06T16:49:10Z</time>
      </trkpt>
      <trkpt lat="40.022517" lon="-6.128367">
        <ele>1359.0</ele>
        <time>2015-06-06T16:49:12Z</time>
      </trkpt>
      <trkpt lat="40.022350" lon="-6.128483">
        <ele>1356.0</ele>
        <time>2015-06-06T16:49:14Z</time>
      </trkpt>
      <trkpt lat="40.022183" lon="-6.128583">
        <ele>1352.0</ele>
        <time>2015-06-06T16:49:16Z</time>
      </trkpt>
      <trkpt lat="40.022000" lon="-6.128683">
        <ele>1348.0</ele>
        <time>2015-06-06T16:49:18Z</time>
      </trkpt>
      <trkpt lat="40.021817" lon="-6.128800">
        <ele>1346.0</ele>
        <time>2015-06-06T16:49:20Z</time>
      </trkpt>
      <trkpt lat="40.021650" lon="-6.128900">
        <ele>1343.0</ele>
        <time>2015-06-06T16:49:22Z</time>
      </trkpt>
      <trkpt lat="40.021467" lon="-6.129017">
        <ele>1339.0</ele>
        <time>2015-06-06T16:49:24Z</time>
      </trkpt>
      <trkpt lat="40.021267" lon="-6.129133">
        <ele>1337.0</ele>
        <time>2015-06-06T16:49:26Z</time>
      </trkpt>
      <trkpt lat="40.021067" lon="-6.129283">
        <ele>1335.0</ele>
        <time>2015-06-06T16:49:28Z</time>
      </trkpt>
      <trkpt lat="40.020883" lon="-6.129400">
        <ele>1333.0</ele>
        <time>2015-06-06T16:49:30Z</time>
      </trkpt>
      <trkpt lat="40.020700" lon="-6.129567">
        <ele>1331.0</ele>
        <time>2015-06-06T16:49:32Z</time>
      </trkpt>
      <trkpt lat="40.020517" lon="-6.129750">
        <ele>1328.0</ele>
        <time>2015-06-06T16:49:34Z</time>
      </trkpt>
      <trkpt lat="40.020333" lon="-6.129900">
        <ele>1326.0</ele>
        <time>2015-06-06T16:49:36Z</time>
      </trkpt>
      <trkpt lat="40.020150" lon="-6.130033">
        <ele>1325.0</ele>
        <time>2015-06-06T16:49:38Z</time>
      </trkpt>
      <trkpt lat="40.019967" lon="-6.130183">
        <ele>1321.0</ele>
        <time>2015-06-06T16:49:40Z</time>
      </trkpt>
      <trkpt lat="40.019767" lon="-6.130350">
        <ele>1318.0</ele>
        <time>2015-06-06T16:49:42Z</time>
      </trkpt>
      <trkpt lat="40.019567" lon="-6.130483">
        <ele>1314.0</ele>
        <time>2015-06-06T16:49:44Z</time>
      </trkpt>
      <trkpt lat="40.019383" lon="-6.130633">
        <ele>1311.0</ele>
        <time>2015-06-06T16:49:46Z</time>
      </trkpt>
      <trkpt lat="40.019167" lon="-6.130783">
        <ele>1309.0</ele>
        <time>2015-06-06T16:49:48Z</time>
      </trkpt>
      <trkpt lat="40.018983" lon="-6.130950">
        <ele>1309.0</ele>
        <time>2015-06-06T16:49:50Z</time>
      </trkpt>
      <trkpt lat="40.018817" lon="-6.131067">
        <ele>1309.0</ele>
        <time>2015-06-06T16:49:52Z</time>
      </trkpt>
      <trkpt lat="40.018667" lon="-6.131217">
        <ele>1306.0</ele>
        <time>2015-06-06T16:49:54Z</time>
      </trkpt>
      <trkpt lat="40.018483" lon="-6.131367">
        <ele>1302.0</ele>
        <time>2015-06-06T16:49:56Z</time>
      </trkpt>
      <trkpt lat="40.018300" lon="-6.131483">
        <ele>1300.0</ele>
        <time>2015-06-06T16:49:58Z</time>
      </trkpt>
      <trkpt lat="40.018133" lon="-6.131600">
        <ele>1298.0</ele>
        <time>2015-06-06T16:50:00Z</time>
      </trkpt>
      <trkpt lat="40.017950" lon="-6.131717">
        <ele>1294.0</ele>
        <time>2015-06-06T16:50:02Z</time>
      </trkpt>
      <trkpt lat="40.017750" lon="-6.131817">
        <ele>1291.0</ele>
        <time>2015-06-06T16:50:04Z</time>
      </trkpt>
      <trkpt lat="40.017533" lon="-6.131933">
        <ele>1291.0</ele>
        <time>2015-06-06T16:50:06Z</time>
      </trkpt>
      <trkpt lat="40.017350" lon="-6.132083">
        <ele>1292.0</ele>
        <time>2015-06-06T16:50:08Z</time>
      </trkpt>
      <trkpt lat="40.017167" lon="-6.132250">
        <ele>1293.0</ele>
        <time>2015-06-06T16:50:10Z</time>
      </trkpt>
      <trkpt lat="40.016983" lon="-6.132433">
        <ele>1299.0</ele>
        <time>2015-06-06T16:50:12Z</time>
      </trkpt>
      <trkpt lat="40.016867" lon="-6.132633">
        <ele>1302.0</ele>
        <time>2015-06-06T16:50:14Z</time>
      </trkpt>
      <trkpt lat="40.016767" lon="-6.132917">
        <ele>1302.0</ele>
        <time>2015-06-06T16:50:16Z</time>
      </trkpt>
      <trkpt lat="40.016817" lon="-6.133283">
        <ele>1302.0</ele>
        <time>2015-06-06T16:50:18Z</time>
      </trkpt>
      <trkpt lat="40.016917" lon="-6.133567">
        <ele>1307.0</ele>
        <time>2015-06-06T16:50:20Z</time>
      </trkpt>
      <trkpt lat="40.017017" lon="-6.133783">
        <ele>1308.0</ele>
        <time>2015-06-06T16:50:22Z</time>
      </trkpt>
      <trkpt lat="40.017167" lon="-6.133950">
        <ele>1307.0</ele>
        <time>2015-06-06T16:50:24Z</time>
      </trkpt>
      <trkpt lat="40.017333" lon="-6.133967">
        <ele>1307.0</ele>
        <time>2015-06-06T16:50:26Z</time>
      </trkpt>
      <trkpt lat="40.017400" lon="-6.133900">
        <ele>1309.0</ele>
        <time>2015-06-06T16:50:28Z</time>
      </trkpt>
      <trkpt lat="40.017400" lon="-6.133850">
        <ele>1311.0</ele>
        <time>2015-06-06T16:50:30Z</time>
      </trkpt>
      <trkpt lat="40.017333" lon="-6.133767">
        <ele>1310.0</ele>
        <time>2015-06-06T16:50:32Z</time>
      </trkpt>
      <trkpt lat="40.017167" lon="-6.133717">
        <ele>1309.0</ele>
        <time>2015-06-06T16:50:34Z</time>
      </trkpt>
      <trkpt lat="40.017000" lon="-6.133733">
        <ele>1313.0</ele>
        <time>2015-06-06T16:50:36Z</time>
      </trkpt>
      <trkpt lat="40.016833" lon="-6.133783">
        <ele>1314.0</ele>
        <time>2015-06-06T16:50:38Z</time>
      </trkpt>
      <trkpt lat="40.016617" lon="-6.133917">
        <ele>1315.0</ele>
        <time>2015-06-06T16:50:40Z</time>
      </trkpt>
      <trkpt lat="40.016483" lon="-6.134117">
        <ele>1320.0</ele>
        <time>2015-06-06T16:50:42Z</time>
      </trkpt>
      <trkpt lat="40.016400" lon="-6.134317">
        <ele>1322.0</ele>
        <time>2015-06-06T16:50:44Z</time>
      </trkpt>
      <trkpt lat="40.016333" lon="-6.134583">
        <ele>1319.0</ele>
        <time>2015-06-06T16:50:46Z</time>
      </trkpt>
      <trkpt lat="40.016383" lon="-6.134917">
        <ele>1315.0</ele>
        <time>2015-06-06T16:50:48Z</time>
      </trkpt>
      <trkpt lat="40.016517" lon="-6.135133">
        <ele>1315.0</ele>
        <time>2015-06-06T16:50:50Z</time>
      </trkpt>
      <trkpt lat="40.016667" lon="-6.135267">
        <ele>1311.0</ele>
        <time>2015-06-06T16:50:52Z</time>
      </trkpt>
      <trkpt lat="40.016867" lon="-6.135350">
        <ele>1309.0</ele>
        <time>2015-06-06T16:50:54Z</time>
      </trkpt>
      <trkpt lat="40.017017" lon="-6.135367">
        <ele>1312.0</ele>
        <time>2015-06-06T16:50:56Z</time>
      </trkpt>
      <trkpt lat="40.017083" lon="-6.135350">
        <ele>1314.0</ele>
        <time>2015-06-06T16:50:58Z</time>
      </trkpt>
      <trkpt lat="40.017117" lon="-6.135300">
        <ele>1312.0</ele>
        <time>2015-06-06T16:51:00Z</time>
      </trkpt>
      <trkpt lat="40.017083" lon="-6.135167">
        <ele>1311.0</ele>
        <time>2015-06-06T16:51:02Z</time>
      </trkpt>
      <trkpt lat="40.016950" lon="-6.135117">
        <ele>1312.0</ele>
        <time>2015-06-06T16:51:04Z</time>
      </trkpt>
      <trkpt lat="40.016800" lon="-6.135133">
        <ele>1311.0</ele>
        <time>2015-06-06T16:51:06Z</time>
      </trkpt>
      <trkpt lat="40.016600" lon="-6.135183">
        <ele>1308.0</ele>
        <time>2015-06-06T16:51:08Z</time>
      </trkpt>
      <trkpt lat="40.016400" lon="-6.135233">
        <ele>1309.0</ele>
        <time>2015-06-06T16:51:10Z</time>
      </trkpt>
      <trkpt lat="40.016233" lon="-6.135283">
        <ele>1312.0</ele>
        <time>2015-06-06T16:51:12Z</time>
      </trkpt>
      <trkpt lat="40.016083" lon="-6.135350">
        <ele>1309.0</ele>
        <time>2015-06-06T16:51:14Z</time>
      </trkpt>
      <trkpt lat="40.015883" lon="-6.135433">
        <ele>1304.0</ele>
        <time>2015-06-06T16:51:16Z</time>
      </trkpt>
      <trkpt lat="40.015650" lon="-6.135550">
        <ele>1304.0</ele>
        <time>2015-06-06T16:51:18Z</time>
      </trkpt>
      <trkpt lat="40.015467" lon="-6.135600">
        <ele>1306.0</ele>
        <time>2015-06-06T16:51:20Z</time>
      </trkpt>
      <trkpt lat="40.015300" lon="-6.135617">
        <ele>1304.0</ele>
        <time>2015-06-06T16:51:22Z</time>
      </trkpt>
      <trkpt lat="40.015100" lon="-6.135667">
        <ele>1301.0</ele>
        <time>2015-06-06T16:51:24Z</time>
      </trkpt>
      <trkpt lat="40.014900" lon="-6.135733">
        <ele>1301.0</ele>
        <time>2015-06-06T16:51:26Z</time>
      </trkpt>
      <trkpt lat="40.014717" lon="-6.135817">
        <ele>1302.0</ele>
        <time>2015-06-06T16:51:28Z</time>
      </trkpt>
      <trkpt lat="40.014500" lon="-6.135950">
        <ele>1300.0</ele>
        <time>2015-06-06T16:51:30Z</time>
      </trkpt>
      <trkpt lat="40.014283" lon="-6.136083">
        <ele>1301.0</ele>
        <time>2015-06-06T16:51:32Z</time>
      </trkpt>
      <trkpt lat="40.014067" lon="-6.136200">
        <ele>1303.0</ele>
        <time>2015-06-06T16:51:34Z</time>
      </trkpt>
      <trkpt lat="40.013883" lon="-6.136333">
        <ele>1304.0</ele>
        <time>2015-06-06T16:51:36Z</time>
      </trkpt>
      <trkpt lat="40.013683" lon="-6.136500">
        <ele>1303.0</ele>
        <time>2015-06-06T16:51:38Z</time>
      </trkpt>
      <trkpt lat="40.013467" lon="-6.136650">
        <ele>1300.0</ele>
        <time>2015-06-06T16:51:40Z</time>
      </trkpt>
      <trkpt lat="40.013233" lon="-6.136783">
        <ele>1299.0</ele>
        <time>2015-06-06T16:51:42Z</time>
      </trkpt>
      <trkpt lat="40.013017" lon="-6.136917">
        <ele>1300.0</ele>
        <time>2015-06-06T16:51:44Z</time>
      </trkpt>
      <trkpt lat="40.012800" lon="-6.137067">
        <ele>1302.0</ele>
        <time>2015-06-06T16:51:46Z</time>
      </trkpt>
      <trkpt lat="40.012600" lon="-6.137233">
        <ele>1303.0</ele>
        <time>2015-06-06T16:51:48Z</time>
      </trkpt>
      <trkpt lat="40.012400" lon="-6.137433">
        <ele>1305.0</ele>
        <time>2015-06-06T16:51:50Z</time>
      </trkpt>
      <trkpt lat="40.012250" lon="-6.137700">
        <ele>1306.0</ele>
        <time>2015-06-06T16:51:52Z</time>
      </trkpt>
      <trkpt lat="40.012117" lon="-6.137983">
        <ele>1306.0</ele>
        <time>2015-06-06T16:51:54Z</time>
      </trkpt>
      <trkpt lat="40.011933" lon="-6.138250">
        <ele>1305.0</ele>
        <time>2015-06-06T16:51:56Z</time>
      </trkpt>
      <trkpt lat="40.011750" lon="-6.138500">
        <ele>1308.0</ele>
        <time>2015-06-06T16:51:58Z</time>
      </trkpt>
      <trkpt lat="40.011583" lon="-6.138683">
        <ele>1310.0</ele>
        <time>2015-06-06T16:52:00Z</time>
      </trkpt>
      <trkpt lat="40.011383" lon="-6.138817">
        <ele>1309.0</ele>
        <time>2015-06-06T16:52:02Z</time>
      </trkpt>
      <trkpt lat="40.011183" lon="-6.138867">
        <ele>1311.0</ele>
        <time>2015-06-06T16:52:04Z</time>
      </trkpt>
      <trkpt lat="40.011017" lon="-6.138917">
        <ele>1316.0</ele>
        <time>2015-06-06T16:52:06Z</time>
      </trkpt>
      <trkpt lat="40.010850" lon="-6.139067">
        <ele>1318.0</ele>
        <time>2015-06-06T16:52:08Z</time>
      </trkpt>
      <trkpt lat="40.010683" lon="-6.139300">
        <ele>1318.0</ele>
        <time>2015-06-06T16:52:10Z</time>
      </trkpt>
      <trkpt lat="40.010567" lon="-6.139617">
        <ele>1321.0</ele>
        <time>2015-06-06T16:52:12Z</time>
      </trkpt>
      <trkpt lat="40.010567" lon="-6.139983">
        <ele>1323.0</ele>
        <time>2015-06-06T16:52:14Z</time>
      </trkpt>
      <trkpt lat="40.010633" lon="-6.140300">
        <ele>1328.0</ele>
        <time>2015-06-06T16:52:16Z</time>
      </trkpt>
      <trkpt lat="40.010767" lon="-6.140483">
        <ele>1330.0</ele>
        <time>2015-06-06T16:52:18Z</time>
      </trkpt>
      <trkpt lat="40.010933" lon="-6.140517">
        <ele>1331.0</ele>
        <time>2015-06-06T16:52:20Z</time>
      </trkpt>
      <trkpt lat="40.011033" lon="-6.140433">
        <ele>1334.0</ele>
        <time>2015-06-06T16:52:22Z</time>
      </trkpt>
      <trkpt lat="40.011050" lon="-6.140333">
        <ele>1338.0</ele>
        <time>2015-06-06T16:52:24Z</time>
      </trkpt>
      <trkpt lat="40.011017" lon="-6.140250">
        <ele>1341.0</ele>
        <time>2015-06-06T16:52:26Z</time>
      </trkpt>
      <trkpt lat="40.010900" lon="-6.140183">
        <ele>1343.0</ele>
        <time>2015-06-06T16:52:28Z</time>
      </trkpt>
      <trkpt lat="40.010717" lon="-6.140250">
        <ele>1347.0</ele>
        <time>2015-06-06T16:52:30Z</time>
      </trkpt>
      <trkpt lat="40.010550" lon="-6.140367">
        <ele>1351.0</ele>
        <time>2015-06-06T16:52:32Z</time>
      </trkpt>
      <trkpt lat="40.010383" lon="-6.140550">
        <ele>1354.0</ele>
        <time>2015-06-06T16:52:34Z</time>
      </trkpt>
      <trkpt lat="40.010233" lon="-6.140850">
        <ele>1357.0</ele>
        <time>2015-06-06T16:52:36Z</time>
      </trkpt>
      <trkpt lat="40.010167" lon="-6.141200">
        <ele>1360.0</ele>
        <time>2015-06-06T16:52:38Z</time>
      </trkpt>
      <trkpt lat="40.010167" lon="-6.141533">
        <ele>1362.0</ele>
        <time>2015-06-06T16:52:40Z</time>
      </trkpt>
      <trkpt lat="40.010233" lon="-6.141850">
        <ele>1363.0</ele>
        <time>2015-06-06T16:52:42Z</time>
      </trkpt>
      <trkpt lat="40.010400" lon="-6.142000">
        <ele>1364.0</ele>
        <time>2015-06-06T16:52:44Z</time>
      </trkpt>
      <trkpt lat="40.010533" lon="-6.142033">
        <ele>1368.0</ele>
        <time>2015-06-06T16:52:46Z</time>
      </trkpt>
      <trkpt lat="40.010617" lon="-6.142000">
        <ele>1372.0</ele>
        <time>2015-06-06T16:52:48Z</time>
      </trkpt>
      <trkpt lat="40.010633" lon="-6.141917">
        <ele>1372.0</ele>
        <time>2015-06-06T16:52:50Z</time>
      </trkpt>
      <trkpt lat="40.010567" lon="-6.141800">
        <ele>1373.0</ele>
        <time>2015-06-06T16:52:52Z</time>
      </trkpt>
      <trkpt lat="40.010417" lon="-6.141767">
        <ele>1377.0</ele>
        <time>2015-06-06T16:52:54Z</time>
      </trkpt>
      <trkpt lat="40.010250" lon="-6.141817">
        <ele>1381.0</ele>
        <time>2015-06-06T16:52:56Z</time>
      </trkpt>
      <trkpt lat="40.010067" lon="-6.141900">
        <ele>1385.0</ele>
        <time>2015-06-06T16:52:58Z</time>
      </trkpt>
      <trkpt lat="40.009883" lon="-6.142100">
        <ele>1388.0</ele>
        <time>2015-06-06T16:53:00Z</time>
      </trkpt>
      <trkpt lat="40.009750" lon="-6.142400">
        <ele>1391.0</ele>
        <time>2015-06-06T16:53:02Z</time>
      </trkpt>
      <trkpt lat="40.009683" lon="-6.142733">
        <ele>1395.0</ele>
        <time>2015-06-06T16:53:04Z</time>
      </trkpt>
      <trkpt lat="40.009733" lon="-6.143067">
        <ele>1397.0</ele>
        <time>2015-06-06T16:53:06Z</time>
      </trkpt>
      <trkpt lat="40.009850" lon="-6.143300">
        <ele>1399.0</ele>
        <time>2015-06-06T16:53:08Z</time>
      </trkpt>
      <trkpt lat="40.009983" lon="-6.143417">
        <ele>1401.0</ele>
        <time>2015-06-06T16:53:10Z</time>
      </trkpt>
      <trkpt lat="40.010100" lon="-6.143400">
        <ele>1403.0</ele>
        <time>2015-06-06T16:53:12Z</time>
      </trkpt>
      <trkpt lat="40.010133" lon="-6.143300">
        <ele>1404.0</ele>
        <time>2015-06-06T16:53:14Z</time>
      </trkpt>
      <trkpt lat="40.010117" lon="-6.143200">
        <ele>1407.0</ele>
        <time>2015-06-06T16:53:16Z</time>
      </trkpt>
      <trkpt lat="40.010000" lon="-6.143117">
        <ele>1410.0</ele>
        <time>2015-06-06T16:53:18Z</time>
      </trkpt>
      <trkpt lat="40.009850" lon="-6.143100">
        <ele>1414.0</ele>
        <time>2015-06-06T16:53:20Z</time>
      </trkpt>
      <trkpt lat="40.009683" lon="-6.143167">
        <ele>1416.0</ele>
        <time>2015-06-06T16:53:22Z</time>
      </trkpt>
      <trkpt lat="40.009483" lon="-6.143333">
        <ele>1417.0</ele>
        <time>2015-06-06T16:53:24Z</time>
      </trkpt>
      <trkpt lat="40.009317" lon="-6.143567">
        <ele>1421.0</ele>
        <time>2015-06-06T16:53:26Z</time>
      </trkpt>
      <trkpt lat="40.009217" lon="-6.143850">
        <ele>1424.0</ele>
        <time>2015-06-06T16:53:28Z</time>
      </trkpt>
      <trkpt lat="40.009167" lon="-6.144200">
        <ele>1425.0</ele>
        <time>2015-06-06T16:53:30Z</time>
      </trkpt>
      <trkpt lat="40.009217" lon="-6.144550">
        <ele>1426.0</ele>
        <time>2015-06-06T16:53:32Z</time>
      </trkpt>
      <trkpt lat="40.009333" lon="-6.144817">
        <ele>1429.0</ele>
        <time>2015-06-06T16:53:34Z</time>
      </trkpt>
      <trkpt lat="40.009450" lon="-6.144950">
        <ele>1430.0</ele>
        <time>2015-06-06T16:53:36Z</time>
      </trkpt>
      <trkpt lat="40.009583" lon="-6.144983">
        <ele>1431.0</ele>
        <time>2015-06-06T16:53:38Z</time>
      </trkpt>
      <trkpt lat="40.009633" lon="-6.144900">
        <ele>1433.0</ele>
        <time>2015-06-06T16:53:40Z</time>
      </trkpt>
      <trkpt lat="40.009567" lon="-6.144800">
        <ele>1435.0</ele>
        <time>2015-06-06T16:53:42Z</time>
      </trkpt>
      <trkpt lat="40.009450" lon="-6.144750">
        <ele>1439.0</ele>
        <time>2015-06-06T16:53:44Z</time>
      </trkpt>
      <trkpt lat="40.009300" lon="-6.144783">
        <ele>1441.0</ele>
        <time>2015-06-06T16:53:46Z</time>
      </trkpt>
      <trkpt lat="40.009100" lon="-6.144867">
        <ele>1443.0</ele>
        <time>2015-06-06T16:53:48Z</time>
      </trkpt>
      <trkpt lat="40.008900" lon="-6.145050">
        <ele>1446.0</ele>
        <time>2015-06-06T16:53:50Z</time>
      </trkpt>
      <trkpt lat="40.008750" lon="-6.145333">
        <ele>1448.0</ele>
        <time>2015-06-06T16:53:52Z</time>
      </trkpt>
      <trkpt lat="40.008683" lon="-6.145683">
        <ele>1450.0</ele>
        <time>2015-06-06T16:53:54Z</time>
      </trkpt>
      <trkpt lat="40.008717" lon="-6.146017">
        <ele>1451.0</ele>
        <time>2015-06-06T16:53:56Z</time>
      </trkpt>
      <trkpt lat="40.008800" lon="-6.146333">
        <ele>1454.0</ele>
        <time>2015-06-06T16:53:58Z</time>
      </trkpt>
      <trkpt lat="40.008950" lon="-6.146517">
        <ele>1457.0</ele>
        <time>2015-06-06T16:54:00Z</time>
      </trkpt>
      <trkpt lat="40.009083" lon="-6.146583">
        <ele>1461.0</ele>
        <time>2015-06-06T16:54:02Z</time>
      </trkpt>
      <trkpt lat="40.009167" lon="-6.146567">
        <ele>1462.0</ele>
        <time>2015-06-06T16:54:04Z</time>
      </trkpt>
      <trkpt lat="40.009183" lon="-6.146450">
        <ele>1463.0</ele>
        <time>2015-06-06T16:54:06Z</time>
      </trkpt>
      <trkpt lat="40.009117" lon="-6.146333">
        <ele>1466.0</ele>
        <time>2015-06-06T16:54:08Z</time>
      </trkpt>
      <trkpt lat="40.008950" lon="-6.146317">
        <ele>1469.0</ele>
        <time>2015-06-06T16:54:10Z</time>
      </trkpt>
      <trkpt lat="40.008767" lon="-6.146367">
        <ele>1472.0</ele>
        <time>2015-06-06T16:54:12Z</time>
      </trkpt>
      <trkpt lat="40.008567" lon="-6.146517">
        <ele>1474.0</ele>
        <time>2015-06-06T16:54:14Z</time>
      </trkpt>
      <trkpt lat="40.008400" lon="-6.146767">
        <ele>1475.0</ele>
        <time>2015-06-06T16:54:16Z</time>
      </trkpt>
      <trkpt lat="40.008300" lon="-6.147083">
        <ele>1475.0</ele>
        <time>2015-06-06T16:54:18Z</time>
      </trkpt>
      <trkpt lat="40.008300" lon="-6.147433">
        <ele>1475.0</ele>
        <time>2015-06-06T16:54:20Z</time>
      </trkpt>
      <trkpt lat="40.008417" lon="-6.147717">
        <ele>1475.0</ele>
        <time>2015-06-06T16:54:22Z</time>
      </trkpt>
      <trkpt lat="40.008567" lon="-6.147883">
        <ele>1478.0</ele>
        <time>2015-06-06T16:54:24Z</time>
      </trkpt>
      <trkpt lat="40.008683" lon="-6.147933">
        <ele>1481.0</ele>
        <time>2015-06-06T16:54:26Z</time>
      </trkpt>
      <trkpt lat="40.008767" lon="-6.147900">
        <ele>1483.0</ele>
        <time>2015-06-06T16:54:28Z</time>
      </trkpt>
      <trkpt lat="40.008800" lon="-6.147800">
        <ele>1485.0</ele>
        <time>2015-06-06T16:54:30Z</time>
      </trkpt>
      <trkpt lat="40.008717" lon="-6.147700">
        <ele>1487.0</ele>
        <time>2015-06-06T16:54:32Z</time>
      </trkpt>
      <trkpt lat="40.008600" lon="-6.147650">
        <ele>1490.0</ele>
        <time>2015-06-06T16:54:34Z</time>
      </trkpt>
      <trkpt lat="40.008417" lon="-6.147667">
        <ele>1492.0</ele>
        <time>2015-06-06T16:54:36Z</time>
      </trkpt>
      <trkpt lat="40.008233" lon="-6.147800">
        <ele>1495.0</ele>
        <time>2015-06-06T16:54:38Z</time>
      </trkpt>
      <trkpt lat="40.008100" lon="-6.148050">
        <ele>1496.0</ele>
        <time>2015-06-06T16:54:40Z</time>
      </trkpt>
      <trkpt lat="40.008033" lon="-6.148367">
        <ele>1495.0</ele>
        <time>2015-06-06T16:54:42Z</time>
      </trkpt>
      <trkpt lat="40.008050" lon="-6.148733">
        <ele>1495.0</ele>
        <time>2015-06-06T16:54:44Z</time>
      </trkpt>
      <trkpt lat="40.008150" lon="-6.149033">
        <ele>1496.0</ele>
        <time>2015-06-06T16:54:46Z</time>
      </trkpt>
      <trkpt lat="40.008300" lon="-6.149233">
        <ele>1499.0</ele>
        <time>2015-06-06T16:54:48Z</time>
      </trkpt>
      <trkpt lat="40.008450" lon="-6.149333">
        <ele>1501.0</ele>
        <time>2015-06-06T16:54:50Z</time>
      </trkpt>
      <trkpt lat="40.008583" lon="-6.149317">
        <ele>1503.0</ele>
        <time>2015-06-06T16:54:52Z</time>
      </trkpt>
      <trkpt lat="40.008633" lon="-6.149250">
        <ele>1504.0</ele>
        <time>2015-06-06T16:54:54Z</time>
      </trkpt>
      <trkpt lat="40.008600" lon="-6.149117">
        <ele>1505.0</ele>
        <time>2015-06-06T16:54:56Z</time>
      </trkpt>
      <trkpt lat="40.008517" lon="-6.149000">
        <ele>1509.0</ele>
        <time>2015-06-06T16:54:58Z</time>
      </trkpt>
      <trkpt lat="40.008417" lon="-6.148950">
        <ele>1513.0</ele>
        <time>2015-06-06T16:55:00Z</time>
      </trkpt>
      <trkpt lat="40.008283" lon="-6.148933">
        <ele>1513.0</ele>
        <time>2015-06-06T16:55:02Z</time>
      </trkpt>
      <trkpt lat="40.008083" lon="-6.149000">
        <ele>1513.0</ele>
        <time>2015-06-06T16:55:04Z</time>
      </trkpt>
      <trkpt lat="40.007883" lon="-6.149150">
        <ele>1514.0</ele>
        <time>2015-06-06T16:55:06Z</time>
      </trkpt>
      <trkpt lat="40.007700" lon="-6.149333">
        <ele>1515.0</ele>
        <time>2015-06-06T16:55:08Z</time>
      </trkpt>
      <trkpt lat="40.007550" lon="-6.149583">
        <ele>1515.0</ele>
        <time>2015-06-06T16:55:10Z</time>
      </trkpt>
      <trkpt lat="40.007433" lon="-6.149917">
        <ele>1515.0</ele>
        <time>2015-06-06T16:55:12Z</time>
      </trkpt>
      <trkpt lat="40.007417" lon="-6.150250">
        <ele>1516.0</ele>
        <time>2015-06-06T16:55:14Z</time>
      </trkpt>
      <trkpt lat="40.007483" lon="-6.150550">
        <ele>1516.0</ele>
        <time>2015-06-06T16:55:16Z</time>
      </trkpt>
      <trkpt lat="40.007600" lon="-6.150767">
        <ele>1516.0</ele>
        <time>2015-06-06T16:55:18Z</time>
      </trkpt>
      <trkpt lat="40.007750" lon="-6.150867">
        <ele>1516.0</ele>
        <time>2015-06-06T16:55:20Z</time>
      </trkpt>
      <trkpt lat="40.007883" lon="-6.150850">
        <ele>1517.0</ele>
        <time>2015-06-06T16:55:22Z</time>
      </trkpt>
      <trkpt lat="40.007933" lon="-6.150783">
        <ele>1518.0</ele>
        <time>2015-06-06T16:55:24Z</time>
      </trkpt>
      <trkpt lat="40.007917" lon="-6.150667">
        <ele>1517.0</ele>
        <time>2015-06-06T16:55:26Z</time>
      </trkpt>
      <trkpt lat="40.007817" lon="-6.150550">
        <ele>1518.0</ele>
        <time>2015-06-06T16:55:28Z</time>
      </trkpt>
      <trkpt lat="40.007650" lon="-6.150517">
        <ele>1520.0</ele>
        <time>2015-06-06T16:55:30Z</time>
      </trkpt>
      <trkpt lat="40.007467" lon="-6.150550">
        <ele>1521.0</ele>
        <time>2015-06-06T16:55:32Z</time>
      </trkpt>
      <trkpt lat="40.007267" lon="-6.150617">
        <ele>1521.0</ele>
        <time>2015-06-06T16:55:34Z</time>
      </trkpt>
      <trkpt lat="40.007050" lon="-6.150733">
        <ele>1523.0</ele>
        <time>2015-06-06T16:55:36Z</time>
      </trkpt>
      <trkpt lat="40.006867" lon="-6.150917">
        <ele>1525.0</ele>
        <time>2015-06-06T16:55:38Z</time>
      </trkpt>
      <trkpt lat="40.006700" lon="-6.151100">
        <ele>1528.0</ele>
        <time>2015-06-06T16:55:40Z</time>
      </trkpt>
      <trkpt lat="40.006567" lon="-6.151333">
        <ele>1529.0</ele>
        <time>2015-06-06T16:55:42Z</time>
      </trkpt>
      <trkpt lat="40.006450" lon="-6.151667">
        <ele>1529.0</ele>
        <time>2015-06-06T16:55:44Z</time>
      </trkpt>
      <trkpt lat="40.006400" lon="-6.152017">
        <ele>1529.0</ele>
        <time>2015-06-06T16:55:46Z</time>
      </trkpt>
      <trkpt lat="40.006433" lon="-6.152333">
        <ele>1529.0</ele>
        <time>2015-06-06T16:55:48Z</time>
      </trkpt>
      <trkpt lat="40.006550" lon="-6.152567">
        <ele>1528.0</ele>
        <time>2015-06-06T16:55:50Z</time>
      </trkpt>
      <trkpt lat="40.006700" lon="-6.152683">
        <ele>1529.0</ele>
        <time>2015-06-06T16:55:52Z</time>
      </trkpt>
      <trkpt lat="40.006817" lon="-6.152683">
        <ele>1530.0</ele>
        <time>2015-06-06T16:55:54Z</time>
      </trkpt>
      <trkpt lat="40.006883" lon="-6.152633">
        <ele>1530.0</ele>
        <time>2015-06-06T16:55:56Z</time>
      </trkpt>
      <trkpt lat="40.006917" lon="-6.152500">
        <ele>1528.0</ele>
        <time>2015-06-06T16:55:58Z</time>
      </trkpt>
      <trkpt lat="40.006867" lon="-6.152350">
        <ele>1528.0</ele>
        <time>2015-06-06T16:56:00Z</time>
      </trkpt>
      <trkpt lat="40.006767" lon="-6.152233">
        <ele>1529.0</ele>
        <time>2015-06-06T16:56:02Z</time>
      </trkpt>
      <trkpt lat="40.006633" lon="-6.152150">
        <ele>1530.0</ele>
        <time>2015-06-06T16:56:04Z</time>
      </trkpt>
      <trkpt lat="40.006483" lon="-6.152100">
        <ele>1532.0</ele>
        <time>2015-06-06T16:56:06Z</time>
      </trkpt>
      <trkpt lat="40.006350" lon="-6.152067">
        <ele>1535.0</ele>
        <time>2015-06-06T16:56:08Z</time>
      </trkpt>
      <trkpt lat="40.006183" lon="-6.152083">
        <ele>1534.0</ele>
        <time>2015-06-06T16:56:10Z</time>
      </trkpt>
      <trkpt lat="40.005983" lon="-6.152167">
        <ele>1533.0</ele>
        <time>2015-06-06T16:56:12Z</time>
      </trkpt>
      <trkpt lat="40.005783" lon="-6.152267">
        <ele>1536.0</ele>
        <time>2015-06-06T16:56:14Z</time>
      </trkpt>
      <trkpt lat="40.005600" lon="-6.152383">
        <ele>1537.0</ele>
        <time>2015-06-06T16:56:16Z</time>
      </trkpt>
      <trkpt lat="40.005400" lon="-6.152550">
        <ele>1539.0</ele>
        <time>2015-06-06T16:56:18Z</time>
      </trkpt>
      <trkpt lat="40.005183" lon="-6.152700">
        <ele>1544.0</ele>
        <time>2015-06-06T16:56:20Z</time>
      </trkpt>
      <trkpt lat="40.005017" lon="-6.152833">
        <ele>1546.0</ele>
        <time>2015-06-06T16:56:22Z</time>
      </trkpt>
      <trkpt lat="40.004850" lon="-6.153050">
        <ele>1545.0</ele>
        <time>2015-06-06T16:56:24Z</time>
      </trkpt>
      <trkpt lat="40.004667" lon="-6.153317">
        <ele>1548.0</ele>
        <time>2015-06-06T16:56:26Z</time>
      </trkpt>
      <trkpt lat="40.004533" lon="-6.153533">
        <ele>1551.0</ele>
        <time>2015-06-06T16:56:28Z</time>
      </trkpt>
      <trkpt lat="40.004433" lon="-6.153800">
        <ele>1552.0</ele>
        <time>2015-06-06T16:56:30Z</time>
      </trkpt>
      <trkpt lat="40.004350" lon="-6.154150">
        <ele>1551.0</ele>
        <time>2015-06-06T16:56:32Z</time>
      </trkpt>
      <trkpt lat="40.004233" lon="-6.154467">
        <ele>1553.0</ele>
        <time>2015-06-06T16:56:34Z</time>
      </trkpt>
      <trkpt lat="40.004067" lon="-6.154700">
        <ele>1554.0</ele>
        <time>2015-06-06T16:56:36Z</time>
      </trkpt>
      <trkpt lat="40.003900" lon="-6.154900">
        <ele>1556.0</ele>
        <time>2015-06-06T16:56:38Z</time>
      </trkpt>
      <trkpt lat="40.003717" lon="-6.155033">
        <ele>1553.0</ele>
        <time>2015-06-06T16:56:40Z</time>
      </trkpt>
      <trkpt lat="40.003500" lon="-6.155167">
        <ele>1551.0</ele>
        <time>2015-06-06T16:56:42Z</time>
      </trkpt>
      <trkpt lat="40.003283" lon="-6.155317">
        <ele>1550.0</ele>
        <time>2015-06-06T16:56:44Z</time>
      </trkpt>
      <trkpt lat="40.003067" lon="-6.155400">
        <ele>1548.0</ele>
        <time>2015-06-06T16:56:46Z</time>
      </trkpt>
      <trkpt lat="40.002833" lon="-6.155417">
        <ele>1546.0</ele>
        <time>2015-06-06T16:56:48Z</time>
      </trkpt>
      <trkpt lat="40.002617" lon="-6.155467">
        <ele>1545.0</ele>
        <time>2015-06-06T16:56:50Z</time>
      </trkpt>
      <trkpt lat="40.002383" lon="-6.155550">
        <ele>1544.0</ele>
        <time>2015-06-06T16:56:52Z</time>
      </trkpt>
      <trkpt lat="40.002167" lon="-6.155667">
        <ele>1546.0</ele>
        <time>2015-06-06T16:56:54Z</time>
      </trkpt>
      <trkpt lat="40.001967" lon="-6.155783">
        <ele>1547.0</ele>
        <time>2015-06-06T16:56:56Z</time>
      </trkpt>
      <trkpt lat="40.001733" lon="-6.155950">
        <ele>1546.0</ele>
        <time>2015-06-06T16:56:58Z</time>
      </trkpt>
      <trkpt lat="40.001517" lon="-6.156117">
        <ele>1547.0</ele>
        <time>2015-06-06T16:57:00Z</time>
      </trkpt>
      <trkpt lat="40.001317" lon="-6.156267">
        <ele>1548.0</ele>
        <time>2015-06-06T16:57:02Z</time>
      </trkpt>
      <trkpt lat="40.001100" lon="-6.156467">
        <ele>1546.0</ele>
        <time>2015-06-06T16:57:04Z</time>
      </trkpt>
      <trkpt lat="40.000917" lon="-6.156633">
        <ele>1546.0</ele>
        <time>2015-06-06T16:57:06Z</time>
      </trkpt>
      <trkpt lat="40.000767" lon="-6.156783">
        <ele>1543.0</ele>
        <time>2015-06-06T16:57:08Z</time>
      </trkpt>
      <trkpt lat="40.000600" lon="-6.156933">
        <ele>1536.0</ele>
        <time>2015-06-06T16:57:10Z</time>
      </trkpt>
      <trkpt lat="40.000417" lon="-6.157100">
        <ele>1530.0</ele>
        <time>2015-06-06T16:57:12Z</time>
      </trkpt>
      <trkpt lat="40.000250" lon="-6.157267">
        <ele>1528.0</ele>
        <time>2015-06-06T16:57:14Z</time>
      </trkpt>
      <trkpt lat="40.000100" lon="-6.157417">
        <ele>1524.0</ele>
        <time>2015-06-06T16:57:16Z</time>
      </trkpt>
      <trkpt lat="39.999933" lon="-6.157583">
        <ele>1517.0</ele>
        <time>2015-06-06T16:57:18Z</time>
      </trkpt>
      <trkpt lat="39.999750" lon="-6.157750">
        <ele>1511.0</ele>
        <time>2015-06-06T16:57:20Z</time>
      </trkpt>
      <trkpt lat="39.999567" lon="-6.157883">
        <ele>1507.0</ele>
        <time>2015-06-06T16:57:22Z</time>
      </trkpt>
      <trkpt lat="39.999383" lon="-6.158033">
        <ele>1502.0</ele>
        <time>2015-06-06T16:57:24Z</time>
      </trkpt>
      <trkpt lat="39.999200" lon="-6.158183">
        <ele>1496.0</ele>
        <time>2015-06-06T16:57:26Z</time>
      </trkpt>
      <trkpt lat="39.999033" lon="-6.158333">
        <ele>1492.0</ele>
        <time>2015-06-06T16:57:28Z</time>
      </trkpt>
      <trkpt lat="39.998883" lon="-6.158500">
        <ele>1488.0</ele>
        <time>2015-06-06T16:57:30Z</time>
      </trkpt>
      <trkpt lat="39.998750" lon="-6.158683">
        <ele>1482.0</ele>
        <time>2015-06-06T16:57:32Z</time>
      </trkpt>
      <trkpt lat="39.998600" lon="-6.158883">
        <ele>1476.0</ele>
        <time>2015-06-06T16:57:34Z</time>
      </trkpt>
      <trkpt lat="39.998450" lon="-6.159083">
        <ele>1470.0</ele>
        <time>2015-06-06T16:57:36Z</time>
      </trkpt>
      <trkpt lat="39.998300" lon="-6.159250">
        <ele>1468.0</ele>
        <time>2015-06-06T16:57:38Z</time>
      </trkpt>
      <trkpt lat="39.998150" lon="-6.159433">
        <ele>1464.0</ele>
        <time>2015-06-06T16:57:40Z</time>
      </trkpt>
      <trkpt lat="39.998000" lon="-6.159617">
        <ele>1461.0</ele>
        <time>2015-06-06T16:57:42Z</time>
      </trkpt>
      <trkpt lat="39.997867" lon="-6.159817">
        <ele>1458.0</ele>
        <time>2015-06-06T16:57:44Z</time>
      </trkpt>
      <trkpt lat="39.997733" lon="-6.160067">
        <ele>1455.0</ele>
        <time>2015-06-06T16:57:46Z</time>
      </trkpt>
      <trkpt lat="39.997583" lon="-6.160333">
        <ele>1451.0</ele>
        <time>2015-06-06T16:57:48Z</time>
      </trkpt>
      <trkpt lat="39.997433" lon="-6.160583">
        <ele>1449.0</ele>
        <time>2015-06-06T16:57:50Z</time>
      </trkpt>
      <trkpt lat="39.997300" lon="-6.160833">
        <ele>1445.0</ele>
        <time>2015-06-06T16:57:52Z</time>
      </trkpt>
      <trkpt lat="39.997133" lon="-6.161083">
        <ele>1440.0</ele>
        <time>2015-06-06T16:57:54Z</time>
      </trkpt>
      <trkpt lat="39.996967" lon="-6.161300">
        <ele>1435.0</ele>
        <time>2015-06-06T16:57:56Z</time>
      </trkpt>
      <trkpt lat="39.996783" lon="-6.161533">
        <ele>1430.0</ele>
        <time>2015-06-06T16:57:58Z</time>
      </trkpt>
      <trkpt lat="39.996617" lon="-6.161767">
        <ele>1425.0</ele>
        <time>2015-06-06T16:58:00Z</time>
      </trkpt>
      <trkpt lat="39.996433" lon="-6.162000">
        <ele>1419.0</ele>
        <time>2015-06-06T16:58:02Z</time>
      </trkpt>
      <trkpt lat="39.996250" lon="-6.162233">
        <ele>1414.0</ele>
        <time>2015-06-06T16:58:04Z</time>
      </trkpt>
      <trkpt lat="39.996067" lon="-6.162467">
        <ele>1410.0</ele>
        <time>2015-06-06T16:58:06Z</time>
      </trkpt>
      <trkpt lat="39.995900" lon="-6.162667">
        <ele>1406.0</ele>
        <time>2015-06-06T16:58:08Z</time>
      </trkpt>
      <trkpt lat="39.995733" lon="-6.162867">
        <ele>1400.0</ele>
        <time>2015-06-06T16:58:10Z</time>
      </trkpt>
      <trkpt lat="39.995567" lon="-6.163100">
        <ele>1394.0</ele>
        <time>2015-06-06T16:58:12Z</time>
      </trkpt>
      <trkpt lat="39.995367" lon="-6.163367">
        <ele>1389.0</ele>
        <time>2015-06-06T16:58:14Z</time>
      </trkpt>
      <trkpt lat="39.995200" lon="-6.163617">
        <ele>1386.0</ele>
        <time>2015-06-06T16:58:16Z</time>
      </trkpt>
      <trkpt lat="39.995017" lon="-6.163867">
        <ele>1380.0</ele>
        <time>2015-06-06T16:58:18Z</time>
      </trkpt>
      <trkpt lat="39.994817" lon="-6.164100">
        <ele>1376.0</ele>
        <time>2015-06-06T16:58:20Z</time>
      </trkpt>
      <trkpt lat="39.994617" lon="-6.164300">
        <ele>1372.0</ele>
        <time>2015-06-06T16:58:22Z</time>
      </trkpt>
      <trkpt lat="39.994433" lon="-6.164483">
        <ele>1368.0</ele>
        <time>2015-06-06T16:58:24Z</time>
      </trkpt>
      <trkpt lat="39.994250" lon="-6.164650">
        <ele>1364.0</ele>
        <time>2015-06-06T16:58:26Z</time>
      </trkpt>
      <trkpt lat="39.994067" lon="-6.164783">
        <ele>1361.0</ele>
        <time>2015-06-06T16:58:28Z</time>
      </trkpt>
      <trkpt lat="39.993883" lon="-6.164933">
        <ele>1358.0</ele>
        <time>2015-06-06T16:58:30Z</time>
      </trkpt>
      <trkpt lat="39.993717" lon="-6.165133">
        <ele>1355.0</ele>
        <time>2015-06-06T16:58:32Z</time>
      </trkpt>
      <trkpt lat="39.993550" lon="-6.165350">
        <ele>1351.0</ele>
        <time>2015-06-06T16:58:34Z</time>
      </trkpt>
      <trkpt lat="39.993367" lon="-6.165617">
        <ele>1346.0</ele>
        <time>2015-06-06T16:58:36Z</time>
      </trkpt>
      <trkpt lat="39.993183" lon="-6.165867">
        <ele>1342.0</ele>
        <time>2015-06-06T16:58:38Z</time>
      </trkpt>
      <trkpt lat="39.993000" lon="-6.166067">
        <ele>1338.0</ele>
        <time>2015-06-06T16:58:40Z</time>
      </trkpt>
      <trkpt lat="39.992800" lon="-6.166267">
        <ele>1334.0</ele>
        <time>2015-06-06T16:58:42Z</time>
      </trkpt>
      <trkpt lat="39.992567" lon="-6.166417">
        <ele>1332.0</ele>
        <time>2015-06-06T16:58:44Z</time>
      </trkpt>
      <trkpt lat="39.992383" lon="-6.166567">
        <ele>1332.0</ele>
        <time>2015-06-06T16:58:46Z</time>
      </trkpt>
      <trkpt lat="39.992200" lon="-6.166733">
        <ele>1330.0</ele>
        <time>2015-06-06T16:58:48Z</time>
      </trkpt>
      <trkpt lat="39.991983" lon="-6.166900">
        <ele>1325.0</ele>
        <time>2015-06-06T16:58:50Z</time>
      </trkpt>
      <trkpt lat="39.991767" lon="-6.167100">
        <ele>1324.0</ele>
        <time>2015-06-06T16:58:52Z</time>
      </trkpt>
      <trkpt lat="39.991583" lon="-6.167317">
        <ele>1323.0</ele>
        <time>2015-06-06T16:58:54Z</time>
      </trkpt>
      <trkpt lat="39.991400" lon="-6.167583">
        <ele>1322.0</ele>
        <time>2015-06-06T16:58:56Z</time>
      </trkpt>
      <trkpt lat="39.991250" lon="-6.167867">
        <ele>1320.0</ele>
        <time>2015-06-06T16:58:58Z</time>
      </trkpt>
      <trkpt lat="39.991083" lon="-6.168150">
        <ele>1321.0</ele>
        <time>2015-06-06T16:59:00Z</time>
      </trkpt>
      <trkpt lat="39.990967" lon="-6.168417">
        <ele>1320.0</ele>
        <time>2015-06-06T16:59:02Z</time>
      </trkpt>
      <trkpt lat="39.990833" lon="-6.168750">
        <ele>1318.0</ele>
        <time>2015-06-06T16:59:04Z</time>
      </trkpt>
      <trkpt lat="39.990683" lon="-6.169033">
        <ele>1318.0</ele>
        <time>2015-06-06T16:59:06Z</time>
      </trkpt>
      <trkpt lat="39.990550" lon="-6.169317">
        <ele>1317.0</ele>
        <time>2015-06-06T16:59:08Z</time>
      </trkpt>
      <trkpt lat="39.990433" lon="-6.169617">
        <ele>1313.0</ele>
        <time>2015-06-06T16:59:10Z</time>
      </trkpt>
      <trkpt lat="39.990300" lon="-6.169967">
        <ele>1311.0</ele>
        <time>2015-06-06T16:59:12Z</time>
      </trkpt>
      <trkpt lat="39.990167" lon="-6.170283">
        <ele>1310.0</ele>
        <time>2015-06-06T16:59:14Z</time>
      </trkpt>
      <trkpt lat="39.990050" lon="-6.170600">
        <ele>1308.0</ele>
        <time>2015-06-06T16:59:16Z</time>
      </trkpt>
      <trkpt lat="39.989917" lon="-6.170950">
        <ele>1306.0</ele>
        <time>2015-06-06T16:59:18Z</time>
      </trkpt>
      <trkpt lat="39.989783" lon="-6.171300">
        <ele>1306.0</ele>
        <time>2015-06-06T16:59:20Z</time>
      </trkpt>
      <trkpt lat="39.989683" lon="-6.171600">
        <ele>1305.0</ele>
        <time>2015-06-06T16:59:22Z</time>
      </trkpt>
      <trkpt lat="39.989567" lon="-6.171917">
        <ele>1302.0</ele>
        <time>2015-06-06T16:59:24Z</time>
      </trkpt>
      <trkpt lat="39.989450" lon="-6.172267">
        <ele>1299.0</ele>
        <time>2015-06-06T16:59:26Z</time>
      </trkpt>
      <trkpt lat="39.989350" lon="-6.172617">
        <ele>1300.0</ele>
        <time>2015-06-06T16:59:28Z</time>
      </trkpt>
      <trkpt lat="39.989267" lon="-6.172950">
        <ele>1299.0</ele>
        <time>2015-06-06T16:59:30Z</time>
      </trkpt>
      <trkpt lat="39.989200" lon="-6.173283">
        <ele>1299.0</ele>
        <time>2015-06-06T16:59:32Z</time>
      </trkpt>
      <trkpt lat="39.989117" lon="-6.173617">
        <ele>1296.0</ele>
        <time>2015-06-06T16:59:34Z</time>
      </trkpt>
      <trkpt lat="39.989033" lon="-6.173983">
        <ele>1293.0</ele>
        <time>2015-06-06T16:59:36Z</time>
      </trkpt>
      <trkpt lat="39.988967" lon="-6.174383">
        <ele>1294.0</ele>
        <time>2015-06-06T16:59:38Z</time>
      </trkpt>
      <trkpt lat="39.988850" lon="-6.174717">
        <ele>1299.0</ele>
        <time>2015-06-06T16:59:40Z</time>
      </trkpt>
      <trkpt lat="39.988733" lon="-6.174983">
        <ele>1302.0</ele>
        <time>2015-06-06T16:59:42Z</time>
      </trkpt>
      <trkpt lat="39.988567" lon="-6.175200">
        <ele>1305.0</ele>
        <time>2015-06-06T16:59:44Z</time>
      </trkpt>
      <trkpt lat="39.988367" lon="-6.175300">
        <ele>1308.0</ele>
        <time>2015-06-06T16:59:46Z</time>
      </trkpt>
      <trkpt lat="39.988233" lon="-6.175317">
        <ele>1312.0</ele>
        <time>2015-06-06T16:59:48Z</time>
      </trkpt>
      <trkpt lat="39.988167" lon="-6.175300">
        <ele>1316.0</ele>
        <time>2015-06-06T16:59:50Z</time>
      </trkpt>
      <trkpt lat="39.988217" lon="-6.175250">
        <ele>1317.0</ele>
        <time>2015-06-06T16:59:52Z</time>
      </trkpt>
      <trkpt lat="39.988333" lon="-6.175250">
        <ele>1321.0</ele>
        <time>2015-06-06T16:59:54Z</time>
      </trkpt>
      <trkpt lat="39.988483" lon="-6.175400">
        <ele>1325.0</ele>
        <time>2015-06-06T16:59:56Z</time>
      </trkpt>
      <trkpt lat="39.988617" lon="-6.175633">
        <ele>1327.0</ele>
        <time>2015-06-06T16:59:58Z</time>
      </trkpt>
      <trkpt lat="39.988733" lon="-6.175967">
        <ele>1329.0</ele>
        <time>2015-06-06T17:00:00Z</time>
      </trkpt>
      <trkpt lat="39.988717" lon="-6.176367">
        <ele>1331.0</ele>
        <time>2015-06-06T17:00:02Z</time>
      </trkpt>
      <trkpt lat="39.988650" lon="-6.176717">
        <ele>1335.0</ele>
        <time>2015-06-06T17:00:04Z</time>
      </trkpt>
      <trkpt lat="39.988533" lon="-6.177033">
        <ele>1339.0</ele>
        <time>2015-06-06T17:00:06Z</time>
      </trkpt>
      <trkpt lat="39.988367" lon="-6.177233">
        <ele>1344.0</ele>
        <time>2015-06-06T17:00:08Z</time>
      </trkpt>
      <trkpt lat="39.988200" lon="-6.177367">
        <ele>1351.0</ele>
        <time>2015-06-06T17:00:10Z</time>
      </trkpt>
      <trkpt lat="39.988067" lon="-6.177417">
        <ele>1357.0</ele>
        <time>2015-06-06T17:00:12Z</time>
      </trkpt>
      <trkpt lat="39.987950" lon="-6.177367">
        <ele>1360.0</ele>
        <time>2015-06-06T17:00:14Z</time>
      </trkpt>
      <trkpt lat="39.987950" lon="-6.177267">
        <ele>1365.0</ele>
        <time>2015-06-06T17:00:16Z</time>
      </trkpt>
      <trkpt lat="39.988033" lon="-6.177233">
        <ele>1371.0</ele>
        <time>2015-06-06T17:00:18Z</time>
      </trkpt>
      <trkpt lat="39.988167" lon="-6.177267">
        <ele>1375.0</ele>
        <time>2015-06-06T17:00:20Z</time>
      </trkpt>
      <trkpt lat="39.988317" lon="-6.177450">
        <ele>1378.0</ele>
        <time>2015-06-06T17:00:22Z</time>
      </trkpt>
      <trkpt lat="39.988450" lon="-6.177767">
        <ele>1381.0</ele>
        <time>2015-06-06T17:00:24Z</time>
      </trkpt>
      <trkpt lat="39.988467" lon="-6.178117">
        <ele>1388.0</ele>
        <time>2015-06-06T17:00:26Z</time>
      </trkpt>
      <trkpt lat="39.988417" lon="-6.178467">
        <ele>1393.0</ele>
        <time>2015-06-06T17:00:28Z</time>
      </trkpt>
      <trkpt lat="39.988317" lon="-6.178750">
        <ele>1399.0</ele>
        <time>2015-06-06T17:00:30Z</time>
      </trkpt>
      <trkpt lat="39.988150" lon="-6.178950">
        <ele>1404.0</ele>
        <time>2015-06-06T17:00:32Z</time>
      </trkpt>
      <trkpt lat="39.987983" lon="-6.179033">
        <ele>1408.0</ele>
        <time>2015-06-06T17:00:34Z</time>
      </trkpt>
      <trkpt lat="39.987833" lon="-6.179050">
        <ele>1413.0</ele>
        <time>2015-06-06T17:00:36Z</time>
      </trkpt>
      <trkpt lat="39.987750" lon="-6.178967">
        <ele>1419.0</ele>
        <time>2015-06-06T17:00:38Z</time>
      </trkpt>
      <trkpt lat="39.987783" lon="-6.178867">
        <ele>1424.0</ele>
        <time>2015-06-06T17:00:40Z</time>
      </trkpt>
      <trkpt lat="39.987867" lon="-6.178833">
        <ele>1430.0</ele>
        <time>2015-06-06T17:00:42Z</time>
      </trkpt>
      <trkpt lat="39.988000" lon="-6.178883">
        <ele>1435.0</ele>
        <time>2015-06-06T17:00:44Z</time>
      </trkpt>
      <trkpt lat="39.988150" lon="-6.179067">
        <ele>1438.0</ele>
        <time>2015-06-06T17:00:46Z</time>
      </trkpt>
      <trkpt lat="39.988250" lon="-6.179417">
        <ele>1442.0</ele>
        <time>2015-06-06T17:00:48Z</time>
      </trkpt>
      <trkpt lat="39.988250" lon="-6.179783">
        <ele>1450.0</ele>
        <time>2015-06-06T17:00:50Z</time>
      </trkpt>
      <trkpt lat="39.988200" lon="-6.180100">
        <ele>1457.0</ele>
        <time>2015-06-06T17:00:52Z</time>
      </trkpt>
      <trkpt lat="39.988083" lon="-6.180383">
        <ele>1462.0</ele>
        <time>2015-06-06T17:00:54Z</time>
      </trkpt>
      <trkpt lat="39.987917" lon="-6.180567">
        <ele>1466.0</ele>
        <time>2015-06-06T17:00:56Z</time>
      </trkpt>
      <trkpt lat="39.987717" lon="-6.180667">
        <ele>1470.0</ele>
        <time>2015-06-06T17:00:58Z</time>
      </trkpt>
      <trkpt lat="39.987567" lon="-6.180650">
        <ele>1475.0</ele>
        <time>2015-06-06T17:01:00Z</time>
      </trkpt>
      <trkpt lat="39.987467" lon="-6.180583">
        <ele>1480.0</ele>
        <time>2015-06-06T17:01:02Z</time>
      </trkpt>
      <trkpt lat="39.987467" lon="-6.180500">
        <ele>1487.0</ele>
        <time>2015-06-06T17:01:04Z</time>
      </trkpt>
      <trkpt lat="39.987533" lon="-6.180467">
        <ele>1492.0</ele>
        <time>2015-06-06T17:01:06Z</time>
      </trkpt>
      <trkpt lat="39.987667" lon="-6.180483">
        <ele>1497.0</ele>
        <time>2015-06-06T17:01:08Z</time>
      </trkpt>
      <trkpt lat="39.987817" lon="-6.180600">
        <ele>1501.0</ele>
        <time>2015-06-06T17:01:10Z</time>
      </trkpt>
      <trkpt lat="39.987933" lon="-6.180883">
        <ele>1504.0</ele>
        <time>2015-06-06T17:01:12Z</time>
      </trkpt>
      <trkpt lat="39.987967" lon="-6.181250">
        <ele>1511.0</ele>
        <time>2015-06-06T17:01:14Z</time>
      </trkpt>
      <trkpt lat="39.987933" lon="-6.181567">
        <ele>1520.0</ele>
        <time>2015-06-06T17:01:16Z</time>
      </trkpt>
      <trkpt lat="39.987833" lon="-6.181850">
        <ele>1526.0</ele>
        <time>2015-06-06T17:01:18Z</time>
      </trkpt>
      <trkpt lat="39.987683" lon="-6.182100">
        <ele>1531.0</ele>
        <time>2015-06-06T17:01:20Z</time>
      </trkpt>
      <trkpt lat="39.987500" lon="-6.182267">
        <ele>1536.0</ele>
        <time>2015-06-06T17:01:22Z</time>
      </trkpt>
      <trkpt lat="39.987333" lon="-6.182350">
        <ele>1539.0</ele>
        <time>2015-06-06T17:01:24Z</time>
      </trkpt>
      <trkpt lat="39.987167" lon="-6.182367">
        <ele>1543.0</ele>
        <time>2015-06-06T17:01:26Z</time>
      </trkpt>
      <trkpt lat="39.987083" lon="-6.182300">
        <ele>1549.0</ele>
        <time>2015-06-06T17:01:28Z</time>
      </trkpt>
      <trkpt lat="39.987067" lon="-6.182267">
        <ele>1555.0</ele>
        <time>2015-06-06T17:01:30Z</time>
      </trkpt>
      <trkpt lat="39.987117" lon="-6.182217">
        <ele>1558.0</ele>
        <time>2015-06-06T17:01:32Z</time>
      </trkpt>
      <trkpt lat="39.987250" lon="-6.182200">
        <ele>1562.0</ele>
        <time>2015-06-06T17:01:34Z</time>
      </trkpt>
      <trkpt lat="39.987417" lon="-6.182317">
        <ele>1567.0</ele>
        <time>2015-06-06T17:01:36Z</time>
      </trkpt>
      <trkpt lat="39.987533" lon="-6.182550">
        <ele>1573.0</ele>
        <time>2015-06-06T17:01:38Z</time>
      </trkpt>
      <trkpt lat="39.987633" lon="-6.182850">
        <ele>1577.0</ele>
        <time>2015-06-06T17:01:40Z</time>
      </trkpt>
      <trkpt lat="39.987667" lon="-6.183217">
        <ele>1583.0</ele>
        <time>2015-06-06T17:01:42Z</time>
      </trkpt>
      <trkpt lat="39.987617" lon="-6.183533">
        <ele>1592.0</ele>
        <time>2015-06-06T17:01:44Z</time>
      </trkpt>
      <trkpt lat="39.987500" lon="-6.183783">
        <ele>1597.0</ele>
        <time>2015-06-06T17:01:46Z</time>
      </trkpt>
      <trkpt lat="39.987333" lon="-6.183983">
        <ele>1601.0</ele>
        <time>2015-06-06T17:01:48Z</time>
      </trkpt>
      <trkpt lat="39.987150" lon="-6.184067">
        <ele>1606.0</ele>
        <time>2015-06-06T17:01:50Z</time>
      </trkpt>
      <trkpt lat="39.987017" lon="-6.184050">
        <ele>1610.0</ele>
        <time>2015-06-06T17:01:52Z</time>
      </trkpt>
      <trkpt lat="39.986933" lon="-6.183983">
        <ele>1614.0</ele>
        <time>2015-06-06T17:01:54Z</time>
      </trkpt>
      <trkpt lat="39.986917" lon="-6.183883">
        <ele>1620.0</ele>
        <time>2015-06-06T17:01:56Z</time>
      </trkpt>
      <trkpt lat="39.986983" lon="-6.183817">
        <ele>1625.0</ele>
        <time>2015-06-06T17:01:58Z</time>
      </trkpt>
      <trkpt lat="39.987100" lon="-6.183817">
        <ele>1628.0</ele>
        <time>2015-06-06T17:02:00Z</time>
      </trkpt>
      <trkpt lat="39.987267" lon="-6.183917">
        <ele>1633.0</ele>
        <time>2015-06-06T17:02:02Z</time>
      </trkpt>
      <trkpt lat="39.987383" lon="-6.184117">
        <ele>1639.0</ele>
        <time>2015-06-06T17:02:04Z</time>
      </trkpt>
      <trkpt lat="39.987467" lon="-6.184417">
        <ele>1645.0</ele>
        <time>2015-06-06T17:02:06Z</time>
      </trkpt>
      <trkpt lat="39.987500" lon="-6.184750">
        <ele>1652.0</ele>
        <time>2015-06-06T17:02:08Z</time>
      </trkpt>
      <trkpt lat="39.987433" lon="-6.185067">
        <ele>1658.0</ele>
        <time>2015-06-06T17:02:10Z</time>
      </trkpt>
      <trkpt lat="39.987300" lon="-6.185367">
        <ele>1664.0</ele>
        <time>2015-06-06T17:02:12Z</time>
      </trkpt>
      <trkpt lat="39.987167" lon="-6.185600">
        <ele>1669.0</ele>
        <time>2015-06-06T17:02:14Z</time>
      </trkpt>
      <trkpt lat="39.986983" lon="-6.185800">
        <ele>1673.0</ele>
        <time>2015-06-06T17:02:16Z</time>
      </trkpt>
      <trkpt lat="39.986800" lon="-6.185900">
        <ele>1677.0</ele>
        <time>2015-06-06T17:02:18Z</time>
      </trkpt>
      <trkpt lat="39.986650" lon="-6.185967">
        <ele>1682.0</ele>
        <time>2015-06-06T17:02:20Z</time>
      </trkpt>
      <trkpt lat="39.986517" lon="-6.185967">
        <ele>1684.0</ele>
        <time>2015-06-06T17:02:22Z</time>
      </trkpt>
      <trkpt lat="39.986417" lon="-6.185917">
        <ele>1687.0</ele>
        <time>2015-06-06T17:02:24Z</time>
      </trkpt>
      <trkpt lat="39.986383" lon="-6.185850">
        <ele>1691.0</ele>
        <time>2015-06-06T17:02:26Z</time>
      </trkpt>
      <trkpt lat="39.986383" lon="-6.185767">
        <ele>1696.0</ele>
        <time>2015-06-06T17:02:28Z</time>
      </trkpt>
      <trkpt lat="39.986467" lon="-6.185700">
        <ele>1701.0</ele>
        <time>2015-06-06T17:02:30Z</time>
      </trkpt>
      <trkpt lat="39.986617" lon="-6.185700">
        <ele>1708.0</ele>
        <time>2015-06-06T17:02:32Z</time>
      </trkpt>
      <trkpt lat="39.986750" lon="-6.185833">
        <ele>1715.0</ele>
        <time>2015-06-06T17:02:34Z</time>
      </trkpt>
      <trkpt lat="39.986883" lon="-6.186050">
        <ele>1720.0</ele>
        <time>2015-06-06T17:02:36Z</time>
      </trkpt>
      <trkpt lat="39.986967" lon="-6.186317">
        <ele>1726.0</ele>
        <time>2015-06-06T17:02:38Z</time>
      </trkpt>
      <trkpt lat="39.986983" lon="-6.186633">
        <ele>1730.0</ele>
        <time>2015-06-06T17:02:40Z</time>
      </trkpt>
      <trkpt lat="39.986967" lon="-6.187000">
        <ele>1734.0</ele>
        <time>2015-06-06T17:02:42Z</time>
      </trkpt>
      <trkpt lat="39.986883" lon="-6.187333">
        <ele>1739.0</ele>
        <time>2015-06-06T17:02:44Z</time>
      </trkpt>
      <trkpt lat="39.986733" lon="-6.187583">
        <ele>1744.0</ele>
        <time>2015-06-06T17:02:46Z</time>
      </trkpt>
      <trkpt lat="39.986567" lon="-6.187767">
        <ele>1749.0</ele>
        <time>2015-06-06T17:02:48Z</time>
      </trkpt>
      <trkpt lat="39.986400" lon="-6.187833">
        <ele>1752.0</ele>
        <time>2015-06-06T17:02:50Z</time>
      </trkpt>
      <trkpt lat="39.986267" lon="-6.187783">
        <ele>1755.0</ele>
        <time>2015-06-06T17:02:52Z</time>
      </trkpt>
      <trkpt lat="39.986217" lon="-6.187683">
        <ele>1760.0</ele>
        <time>2015-06-06T17:02:54Z</time>
      </trkpt>
      <trkpt lat="39.986250" lon="-6.187617">
        <ele>1768.0</ele>
        <time>2015-06-06T17:02:56Z</time>
      </trkpt>
      <trkpt lat="39.986317" lon="-6.187600">
        <ele>1775.0</ele>
        <time>2015-06-06T17:02:58Z</time>
      </trkpt>
      <trkpt lat="39.986433" lon="-6.187617">
        <ele>1779.0</ele>
        <time>2015-06-06T17:03:00Z</time>
      </trkpt>
      <trkpt lat="39.986583" lon="-6.187750">
        <ele>1784.0</ele>
        <time>2015-06-06T17:03:02Z</time>
      </trkpt>
      <trkpt lat="39.986700" lon="-6.188000">
        <ele>1788.0</ele>
        <time>2015-06-06T17:03:04Z</time>
      </trkpt>
      <trkpt lat="39.986750" lon="-6.188317">
        <ele>1793.0</ele>
        <time>2015-06-06T17:03:06Z</time>
      </trkpt>
      <trkpt lat="39.986733" lon="-6.188667">
        <ele>1798.0</ele>
        <time>2015-06-06T17:03:08Z</time>
      </trkpt>
      <trkpt lat="39.986667" lon="-6.189000">
        <ele>1802.0</ele>
        <time>2015-06-06T17:03:10Z</time>
      </trkpt>
      <trkpt lat="39.986533" lon="-6.189300">
        <ele>1805.0</ele>
        <time>2015-06-06T17:03:12Z</time>
      </trkpt>
      <trkpt lat="39.986350" lon="-6.189467">
        <ele>1809.0</ele>
        <time>2015-06-06T17:03:14Z</time>
      </trkpt>
      <trkpt lat="39.986200" lon="-6.189500">
        <ele>1815.0</ele>
        <time>2015-06-06T17:03:16Z</time>
      </trkpt>
      <trkpt lat="39.986117" lon="-6.189483">
        <ele>1821.0</ele>
        <time>2015-06-06T17:03:18Z</time>
      </trkpt>
      <trkpt lat="39.986067" lon="-6.189433">
        <ele>1825.0</ele>
        <time>2015-06-06T17:03:20Z</time>
      </trkpt>
      <trkpt lat="39.986067" lon="-6.189350">
        <ele>1829.0</ele>
        <time>2015-06-06T17:03:22Z</time>
      </trkpt>
      <trkpt lat="39.986150" lon="-6.189317">
        <ele>1833.0</ele>
        <time>2015-06-06T17:03:24Z</time>
      </trkpt>
      <trkpt lat="39.986283" lon="-6.189367">
        <ele>1837.0</ele>
        <time>2015-06-06T17:03:26Z</time>
      </trkpt>
      <trkpt lat="39.986450" lon="-6.189533">
        <ele>1840.0</ele>
        <time>2015-06-06T17:03:28Z</time>
      </trkpt>
      <trkpt lat="39.986567" lon="-6.189800">
        <ele>1845.0</ele>
        <time>2015-06-06T17:03:30Z</time>
      </trkpt>
      <trkpt lat="39.986617" lon="-6.190133">
        <ele>1851.0</ele>
        <time>2015-06-06T17:03:32Z</time>
      </trkpt>
      <trkpt lat="39.986617" lon="-6.190483">
        <ele>1855.0</ele>
        <time>2015-06-06T17:03:34Z</time>
      </trkpt>
      <trkpt lat="39.986533" lon="-6.190850">
        <ele>1860.0</ele>
        <time>2015-06-06T17:03:36Z</time>
      </trkpt>
      <trkpt lat="39.986417" lon="-6.191117">
        <ele>1865.0</ele>
        <time>2015-06-06T17:03:38Z</time>
      </trkpt>
      <trkpt lat="39.986250" lon="-6.191333">
        <ele>1869.0</ele>
        <time>2015-06-06T17:03:40Z</time>
      </trkpt>
      <trkpt lat="39.986083" lon="-6.191483">
        <ele>1874.0</ele>
        <time>2015-06-06T17:03:42Z</time>
      </trkpt>
      <trkpt lat="39.985933" lon="-6.191550">
        <ele>1879.0</ele>
        <time>2015-06-06T17:03:44Z</time>
      </trkpt>
      <trkpt lat="39.985800" lon="-6.191533">
        <ele>1883.0</ele>
        <time>2015-06-06T17:03:46Z</time>
      </trkpt>
      <trkpt lat="39.985733" lon="-6.191467">
        <ele>1888.0</ele>
        <time>2015-06-06T17:03:48Z</time>
      </trkpt>
      <trkpt lat="39.985750" lon="-6.191383">
        <ele>1893.0</ele>
        <time>2015-06-06T17:03:50Z</time>
      </trkpt>
      <trkpt lat="39.985817" lon="-6.191333">
        <ele>1898.0</ele>
        <time>2015-06-06T17:03:52Z</time>
      </trkpt>
      <trkpt lat="39.985933" lon="-6.191317">
        <ele>1903.0</ele>
        <time>2015-06-06T17:03:54Z</time>
      </trkpt>
      <trkpt lat="39.986117" lon="-6.191417">
        <ele>1909.0</ele>
        <time>2015-06-06T17:03:56Z</time>
      </trkpt>
      <trkpt lat="39.986267" lon="-6.191617">
        <ele>1916.0</ele>
        <time>2015-06-06T17:03:58Z</time>
      </trkpt>
      <trkpt lat="39.986383" lon="-6.191883">
        <ele>1919.0</ele>
        <time>2015-06-06T17:04:00Z</time>
      </trkpt>
      <trkpt lat="39.986467" lon="-6.192217">
        <ele>1924.0</ele>
        <time>2015-06-06T17:04:02Z</time>
      </trkpt>
      <trkpt lat="39.986467" lon="-6.192600">
        <ele>1928.0</ele>
        <time>2015-06-06T17:04:04Z</time>
      </trkpt>
      <trkpt lat="39.986400" lon="-6.192950">
        <ele>1932.0</ele>
        <time>2015-06-06T17:04:06Z</time>
      </trkpt>
      <trkpt lat="39.986283" lon="-6.193233">
        <ele>1937.0</ele>
        <time>2015-06-06T17:04:08Z</time>
      </trkpt>
      <trkpt lat="39.986133" lon="-6.193467">
        <ele>1940.0</ele>
        <time>2015-06-06T17:04:10Z</time>
      </trkpt>
      <trkpt lat="39.985967" lon="-6.193600">
        <ele>1944.0</ele>
        <time>2015-06-06T17:04:12Z</time>
      </trkpt>
      <trkpt lat="39.985800" lon="-6.193700">
        <ele>1948.0</ele>
        <time>2015-06-06T17:04:14Z</time>
      </trkpt>
      <trkpt lat="39.985650" lon="-6.193700">
        <ele>1953.0</ele>
        <time>2015-06-06T17:04:16Z</time>
      </trkpt>
      <trkpt lat="39.985567" lon="-6.193633">
        <ele>1958.0</ele>
        <time>2015-06-06T17:04:18Z</time>
      </trkpt>
      <trkpt lat="39.985550" lon="-6.193550">
        <ele>1964.0</ele>
        <time>2015-06-06T17:04:20Z</time>
      </trkpt>
      <trkpt lat="39.985583" lon="-6.193467">
        <ele>1969.0</ele>
        <time>2015-06-06T17:04:22Z</time>
      </trkpt>
      <trkpt lat="39.985683" lon="-6.193417">
        <ele>1975.0</ele>
        <time>2015-06-06T17:04:24Z</time>
      </trkpt>
      <trkpt lat="39.985850" lon="-6.193450">
        <ele>1981.0</ele>
        <time>2015-06-06T17:04:26Z</time>
      </trkpt>
      <trkpt lat="39.986017" lon="-6.193583">
        <ele>1987.0</ele>
        <time>2015-06-06T17:04:28Z</time>
      </trkpt>
      <trkpt lat="39.986183" lon="-6.193817">
        <ele>1991.0</ele>
        <time>2015-06-06T17:04:30Z</time>
      </trkpt>
      <trkpt lat="39.986300" lon="-6.194133">
        <ele>1997.0</ele>
        <time>2015-06-06T17:04:32Z</time>
      </trkpt>
      <trkpt lat="39.986317" lon="-6.194467">
        <ele>2002.0</ele>
        <time>2015-06-06T17:04:34Z</time>
      </trkpt>
      <trkpt lat="39.986300" lon="-6.194833">
        <ele>2005.0</ele>
        <time>2015-06-06T17:04:36Z</time>
      </trkpt>
      <trkpt lat="39.986217" lon="-6.195167">
        <ele>2009.0</ele>
        <time>2015-06-06T17:04:38Z</time>
      </trkpt>
      <trkpt lat="39.986083" lon="-6.195467">
        <ele>2013.0</ele>
        <time>2015-06-06T17:04:40Z</time>
      </trkpt>
      <trkpt lat="39.985917" lon="-6.195667">
        <ele>2017.0</ele>
        <time>2015-06-06T17:04:42Z</time>
      </trkpt>
      <trkpt lat="39.985750" lon="-6.195783">
        <ele>2022.0</ele>
        <time>2015-06-06T17:04:44Z</time>
      </trkpt>
      <trkpt lat="39.985600" lon="-6.195817">
        <ele>2026.0</ele>
        <time>2015-06-06T17:04:46Z</time>
      </trkpt>
      <trkpt lat="39.985517" lon="-6.195767">
        <ele>2030.0</ele>
        <time>2015-06-06T17:04:48Z</time>
      </trkpt>
      <trkpt lat="39.985467" lon="-6.195700">
        <ele>2035.0</ele>
        <time>2015-06-06T17:04:50Z</time>
      </trkpt>
      <trkpt lat="39.985483" lon="-6.195633">
        <ele>2039.0</ele>
        <time>2015-06-06T17:04:52Z</time>
      </trkpt>
      <trkpt lat="39.985533" lon="-6.195550">
        <ele>2043.0</ele>
        <time>2015-06-06T17:04:54Z</time>
      </trkpt>
      <trkpt lat="39.985617" lon="-6.195483">
        <ele>2049.0</ele>
        <time>2015-06-06T17:04:56Z</time>
      </trkpt>
      <trkpt lat="39.985767" lon="-6.195517">
        <ele>2055.0</ele>
        <time>2015-06-06T17:04:58Z</time>
      </trkpt>
      <trkpt lat="39.985933" lon="-6.195617">
        <ele>2060.0</ele>
        <time>2015-06-06T17:05:00Z</time>
      </trkpt>
      <trkpt lat="39.986083" lon="-6.195767">
        <ele>2063.0</ele>
        <time>2015-06-06T17:05:02Z</time>
      </trkpt>
      <trkpt lat="39.986250" lon="-6.196050">
        <ele>2067.0</ele>
        <time>2015-06-06T17:05:04Z</time>
      </trkpt>
      <trkpt lat="39.986317" lon="-6.196400">
        <ele>2072.0</ele>
        <time>2015-06-06T17:05:06Z</time>
      </trkpt>
      <trkpt lat="39.986317" lon="-6.196733">
        <ele>2077.0</ele>
        <time>2015-06-06T17:05:08Z</time>
      </trkpt>
      <trkpt lat="39.986267" lon="-6.197067">
        <ele>2081.0</ele>
        <time>2015-06-06T17:05:10Z</time>
      </trkpt>
      <trkpt lat="39.986133" lon="-6.197350">
        <ele>2084.0</ele>
        <time>2015-06-06T17:05:12Z</time>
      </trkpt>
      <trkpt lat="39.985967" lon="-6.197583">
        <ele>2087.0</ele>
        <time>2015-06-06T17:05:14Z</time>
      </trkpt>
      <trkpt lat="39.985817" lon="-6.197700">
        <ele>2092.0</ele>
        <time>2015-06-06T17:05:16Z</time>
      </trkpt>
      <trkpt lat="39.985683" lon="-6.197733">
        <ele>2096.0</ele>
        <time>2015-06-06T17:05:18Z</time>
      </trkpt>
      <trkpt lat="39.985600" lon="-6.197667">
        <ele>2099.0</ele>
        <time>2015-06-06T17:05:20Z</time>
      </trkpt>
      <trkpt lat="39.985617" lon="-6.197567">
        <ele>2103.0</ele>
        <time>2015-06-06T17:05:22Z</time>
      </trkpt>
      <trkpt lat="39.985717" lon="-6.197500">
        <ele>2110.0</ele>
        <time>2015-06-06T17:05:24Z</time>
      </trkpt>
      <trkpt lat="39.985867" lon="-6.197550">
        <ele>2117.0</ele>
        <time>2015-06-06T17:05:26Z</time>
      </trkpt>
      <trkpt lat="39.986017" lon="-6.197667">
        <ele>2121.0</ele>
        <time>2015-06-06T17:05:28Z</time>
      </trkpt>
      <trkpt lat="39.986167" lon="-6.197883">
        <ele>2125.0</ele>
        <time>2015-06-06T17:05:30Z</time>
      </trkpt>
      <trkpt lat="39.986283" lon="-6.198183">
        <ele>2127.0</ele>
        <time>2015-06-06T17:05:32Z</time>
      </trkpt>
      <trkpt lat="39.986317" lon="-6.198550">
        <ele>2130.0</ele>
        <time>2015-06-06T17:05:34Z</time>
      </trkpt>
      <trkpt lat="39.986250" lon="-6.198883">
        <ele>2134.0</ele>
        <time>2015-06-06T17:05:36Z</time>
      </trkpt>
      <trkpt lat="39.986133" lon="-6.199167">
        <ele>2137.0</ele>
        <time>2015-06-06T17:05:38Z</time>
      </trkpt>
      <trkpt lat="39.985983" lon="-6.199417">
        <ele>2140.0</ele>
        <time>2015-06-06T17:05:40Z</time>
      </trkpt>
      <trkpt lat="39.985800" lon="-6.199583">
        <ele>2142.0</ele>
        <time>2015-06-06T17:05:42Z</time>
      </trkpt>
      <trkpt lat="39.985650" lon="-6.199617">
        <ele>2144.0</ele>
        <time>2015-06-06T17:05:44Z</time>
      </trkpt>
      <trkpt lat="39.985533" lon="-6.199567">
        <ele>2146.0</ele>
        <time>2015-06-06T17:05:46Z</time>
      </trkpt>
      <trkpt lat="39.985467" lon="-6.199450">
        <ele>2153.0</ele>
        <time>2015-06-06T17:05:48Z</time>
      </trkpt>
      <trkpt lat="39.985467" lon="-6.199350">
        <ele>2161.0</ele>
        <time>2015-06-06T17:05:50Z</time>
      </trkpt>
      <trkpt lat="39.985517" lon="-6.199300">
        <ele>2167.0</ele>
        <time>2015-06-06T17:05:52Z</time>
      </trkpt>
      <trkpt lat="39.985633" lon="-6.199283">
        <ele>2170.0</ele>
        <time>2015-06-06T17:05:54Z</time>
      </trkpt>
      <trkpt lat="39.985817" lon="-6.199367">
        <ele>2174.0</ele>
        <time>2015-06-06T17:05:56Z</time>
      </trkpt>
      <trkpt lat="39.985983" lon="-6.199567">
        <ele>2180.0</ele>
        <time>2015-06-06T17:05:58Z</time>
      </trkpt>
      <trkpt lat="39.986100" lon="-6.199850">
        <ele>2184.0</ele>
        <time>2015-06-06T17:06:00Z</time>
      </trkpt>
      <trkpt lat="39.986167" lon="-6.200183">
        <ele>2188.0</ele>
        <time>2015-06-06T17:06:02Z</time>
      </trkpt>
      <trkpt lat="39.986117" lon="-6.200517">
        <ele>2191.0</ele>
        <time>2015-06-06T17:06:04Z</time>
      </trkpt>
      <trkpt lat="39.986000" lon="-6.200783">
        <ele>2195.0</ele>
        <time>2015-06-06T17:06:06Z</time>
      </trkpt>
      <trkpt lat="39.985850" lon="-6.200950">
        <ele>2199.0</ele>
        <time>2015-06-06T17:06:08Z</time>
      </trkpt>
      <trkpt lat="39.985683" lon="-6.201000">
        <ele>2201.0</ele>
        <time>2015-06-06T17:06:10Z</time>
      </trkpt>
      <trkpt lat="39.985550" lon="-6.200950">
        <ele>2205.0</ele>
        <time>2015-06-06T17:06:12Z</time>
      </trkpt>
      <trkpt lat="39.985500" lon="-6.200867">
        <ele>2210.0</ele>
        <time>2015-06-06T17:06:14Z</time>
      </trkpt>
      <trkpt lat="39.985517" lon="-6.200800">
        <ele>2214.0</ele>
        <time>2015-06-06T17:06:16Z</time>
      </trkpt>
      <trkpt lat="39.985617" lon="-6.200750">
        <ele>2218.0</ele>
        <time>2015-06-06T17:06:18Z</time>
      </trkpt>
      <trkpt lat="39.985767" lon="-6.200767">
        <ele>2223.0</ele>
        <time>2015-06-06T17:06:20Z</time>
      </trkpt>
      <trkpt lat="39.985950" lon="-6.200917">
        <ele>2229.0</ele>
        <time>2015-06-06T17:06:22Z</time>
      </trkpt>
      <trkpt lat="39.986100" lon="-6.201150">
        <ele>2233.0</ele>
        <time>2015-06-06T17:06:24Z</time>
      </trkpt>
      <trkpt lat="39.986183" lon="-6.201467">
        <ele>2236.0</ele>
        <time>2015-06-06T17:06:26Z</time>
      </trkpt>
      <trkpt lat="39.986150" lon="-6.201817">
        <ele>2238.0</ele>
        <time>2015-06-06T17:06:28Z</time>
      </trkpt>
      <trkpt lat="39.986050" lon="-6.202117">
        <ele>2243.0</ele>
        <time>2015-06-06T17:06:30Z</time>
      </trkpt>
      <trkpt lat="39.985900" lon="-6.202317">
        <ele>2247.0</ele>
        <time>2015-06-06T17:06:32Z</time>
      </trkpt>
      <trkpt lat="39.985733" lon="-6.202433">
        <ele>2250.0</ele>
        <time>2015-06-06T17:06:34Z</time>
      </trkpt>
      <trkpt lat="39.985583" lon="-6.202467">
        <ele>2254.0</ele>
        <time>2015-06-06T17:06:36Z</time>
      </trkpt>
      <trkpt lat="39.985483" lon="-6.202383">
        <ele>2256.0</ele>
        <time>2015-06-06T17:06:38Z</time>
      </trkpt>
      <trkpt lat="39.985433" lon="-6.202267">
        <ele>2260.0</ele>
        <time>2015-06-06T17:06:40Z</time>
      </trkpt>
      <trkpt lat="39.985433" lon="-6.202167">
        <ele>2268.0</ele>
        <time>2015-06-06T17:06:42Z</time>
      </trkpt>
      <trkpt lat="39.985517" lon="-6.202133">
        <ele>2274.0</ele>
        <time>2015-06-06T17:06:44Z</time>
      </trkpt>
      <trkpt lat="39.985650" lon="-6.202150">
        <ele>2277.0</ele>
        <time>2015-06-06T17:06:46Z</time>
      </trkpt>
      <trkpt lat="39.985817" lon="-6.202233">
        <ele>2281.0</ele>
        <time>2015-06-06T17:06:48Z</time>
      </trkpt>
      <trkpt lat="39.985967" lon="-6.202433">
        <ele>2286.0</ele>
        <time>2015-06-06T17:06:50Z</time>
      </trkpt>
      <trkpt lat="39.986067" lon="-6.202733">
        <ele>2289.0</ele>
        <time>2015-06-06T17:06:52Z</time>
      </trkpt>
      <trkpt lat="39.986083" lon="-6.203067">
        <ele>2292.0</ele>
        <time>2015-06-06T17:06:54Z</time>
      </trkpt>
      <trkpt lat="39.986033" lon="-6.203400">
        <ele>2296.0</ele>
        <time>2015-06-06T17:06:56Z</time>
      </trkpt>
      <trkpt lat="39.985900" lon="-6.203667">
        <ele>2299.0</ele>
        <time>2015-06-06T17:06:58Z</time>
      </trkpt>
      <trkpt lat="39.985733" lon="-6.203833">
        <ele>2303.0</ele>
        <time>2015-06-06T17:07:00Z</time>
      </trkpt>
      <trkpt lat="39.985567" lon="-6.203917">
        <ele>2307.0</ele>
        <time>2015-06-06T17:07:02Z</time>
      </trkpt>
      <trkpt lat="39.985417" lon="-6.203917">
        <ele>2308.0</ele>
        <time>2015-06-06T17:07:04Z</time>
      </trkpt>
      <trkpt lat="39.985300" lon="-6.203817">
        <ele>2311.0</ele>
        <time>2015-06-06T17:07:06Z</time>
      </trkpt>
      <trkpt lat="39.985250" lon="-6.203700">
        <ele>2318.0</ele>
        <time>2015-06-06T17:07:08Z</time>
      </trkpt>
      <trkpt lat="39.985267" lon="-6.203633">
        <ele>2324.0</ele>
        <time>2015-06-06T17:07:10Z</time>
      </trkpt>
      <trkpt lat="39.985367" lon="-6.203583">
        <ele>2327.0</ele>
        <time>2015-06-06T17:07:12Z</time>
      </trkpt>
      <trkpt lat="39.985517" lon="-6.203600">
        <ele>2332.0</ele>
        <time>2015-06-06T17:07:14Z</time>
      </trkpt>
      <trkpt lat="39.985683" lon="-6.203717">
        <ele>2337.0</ele>
        <time>2015-06-06T17:07:16Z</time>
      </trkpt>
      <trkpt lat="39.985833" lon="-6.203917">
        <ele>2341.0</ele>
        <time>2015-06-06T17:07:18Z</time>
      </trkpt>
      <trkpt lat="39.985967" lon="-6.204200">
        <ele>2345.0</ele>
        <time>2015-06-06T17:07:20Z</time>
      </trkpt>
      <trkpt lat="39.986017" lon="-6.204567">
        <ele>2350.0</ele>
        <time>2015-06-06T17:07:22Z</time>
      </trkpt>
      <trkpt lat="39.986017" lon="-6.204933">
        <ele>2355.0</ele>
        <time>2015-06-06T17:07:24Z</time>
      </trkpt>
      <trkpt lat="39.985933" lon="-6.205250">
        <ele>2360.0</ele>
        <time>2015-06-06T17:07:26Z</time>
      </trkpt>
      <trkpt lat="39.985800" lon="-6.205483">
        <ele>2363.0</ele>
        <time>2015-06-06T17:07:28Z</time>
      </trkpt>
      <trkpt lat="39.985633" lon="-6.205650">
        <ele>2365.0</ele>
        <time>2015-06-06T17:07:30Z</time>
      </trkpt>
      <trkpt lat="39.985467" lon="-6.205717">
        <ele>2368.0</ele>
        <time>2015-06-06T17:07:32Z</time>
      </trkpt>
      <trkpt lat="39.985350" lon="-6.205667">
        <ele>2370.0</ele>
        <time>2015-06-06T17:07:34Z</time>
      </trkpt>
      <trkpt lat="39.985300" lon="-6.205550">
        <ele>2373.0</ele>
        <time>2015-06-06T17:07:36Z</time>
      </trkpt>
      <trkpt lat="39.985350" lon="-6.205433">
        <ele>2377.0</ele>
        <time>2015-06-06T17:07:38Z</time>
      </trkpt>
      <trkpt lat="39.985467" lon="-6.205383">
        <ele>2380.0</ele>
        <time>2015-06-06T17:07:40Z</time>
      </trkpt>
      <trkpt lat="39.985633" lon="-6.205433">
        <ele>2384.0</ele>
        <time>2015-06-06T17:07:42Z</time>
      </trkpt>
      <trkpt lat="39.985817" lon="-6.205617">
        <ele>2388.0</ele>
        <time>2015-06-06T17:07:44Z</time>
      </trkpt>
      <trkpt lat="39.985917" lon="-6.205917">
        <ele>2393.0</ele>
        <time>2015-06-06T17:07:46Z</time>
      </trkpt>
      <trkpt lat="39.985933" lon="-6.206217">
        <ele>2398.0</ele>
        <time>2015-06-06T17:07:48Z</time>
      </trkpt>
      <trkpt lat="39.985900" lon="-6.206517">
        <ele>2401.0</ele>
        <time>2015-06-06T17:07:50Z</time>
      </trkpt>
      <trkpt lat="39.985783" lon="-6.206817">
        <ele>2402.0</ele>
        <time>2015-06-06T17:07:52Z</time>
      </trkpt>
      <trkpt lat="39.985600" lon="-6.207000">
        <ele>2404.0</ele>
        <time>2015-06-06T17:07:54Z</time>
      </trkpt>
      <trkpt lat="39.985450" lon="-6.207050">
        <ele>2408.0</ele>
        <time>2015-06-06T17:07:56Z</time>
      </trkpt>
      <trkpt lat="39.985317" lon="-6.207033">
        <ele>2411.0</ele>
        <time>2015-06-06T17:07:58Z</time>
      </trkpt>
      <trkpt lat="39.985233" lon="-6.206950">
        <ele>2414.0</ele>
        <time>2015-06-06T17:08:00Z</time>
      </trkpt>
      <trkpt lat="39.985233" lon="-6.206817">
        <ele>2419.0</ele>
        <time>2015-06-06T17:08:02Z</time>
      </trkpt>
      <trkpt lat="39.985317" lon="-6.206750">
        <ele>2423.0</ele>
        <time>2015-06-06T17:08:04Z</time>
      </trkpt>
      <trkpt lat="39.985433" lon="-6.206733">
        <ele>2427.0</ele>
        <time>2015-06-06T17:08:06Z</time>
      </trkpt>
      <trkpt lat="39.985600" lon="-6.206783">
        <ele>2428.0</ele>
        <time>2015-06-06T17:08:08Z</time>
      </trkpt>
      <trkpt lat="39.985800" lon="-6.206967">
        <ele>2431.0</ele>
        <time>2015-06-06T17:08:10Z</time>
      </trkpt>
      <trkpt lat="39.985917" lon="-6.207267">
        <ele>2437.0</ele>
        <time>2015-06-06T17:08:12Z</time>
      </trkpt>
      <trkpt lat="39.985983" lon="-6.207567">
        <ele>2443.0</ele>
        <time>2015-06-06T17:08:14Z</time>
      </trkpt>
      <trkpt lat="39.985983" lon="-6.207867">
        <ele>2446.0</ele>
        <time>2015-06-06T17:08:16Z</time>
      </trkpt>
      <trkpt lat="39.985917" lon="-6.208167">
        <ele>2448.0</ele>
        <time>2015-06-06T17:08:18Z</time>
      </trkpt>
      <trkpt lat="39.985783" lon="-6.208433">
        <ele>2449.0</ele>
        <time>2015-06-06T17:08:20Z</time>
      </trkpt>
      <trkpt lat="39.985617" lon="-6.208617">
        <ele>2452.0</ele>
        <time>2015-06-06T17:08:22Z</time>
      </trkpt>
      <trkpt lat="39.985467" lon="-6.208683">
        <ele>2457.0</ele>
        <time>2015-06-06T17:08:24Z</time>
      </trkpt>
      <trkpt lat="39.985333" lon="-6.208700">
        <ele>2459.0</ele>
        <time>2015-06-06T17:08:26Z</time>
      </trkpt>
      <trkpt lat="39.985217" lon="-6.208617">
        <ele>2461.0</ele>
        <time>2015-06-06T17:08:28Z</time>
      </trkpt>
      <trkpt lat="39.985183" lon="-6.208500">
        <ele>2466.0</ele>
        <time>2015-06-06T17:08:30Z</time>
      </trkpt>
      <trkpt lat="39.985233" lon="-6.208400">
        <ele>2469.0</ele>
        <time>2015-06-06T17:08:32Z</time>
      </trkpt>
      <trkpt lat="39.985350" lon="-6.208333">
        <ele>2472.0</ele>
        <time>2015-06-06T17:08:34Z</time>
      </trkpt>
      <trkpt lat="39.985517" lon="-6.208367">
        <ele>2475.0</ele>
        <time>2015-06-06T17:08:36Z</time>
      </trkpt>
      <trkpt lat="39.985683" lon="-6.208517">
        <ele>2479.0</ele>
        <time>2015-06-06T17:08:38Z</time>
      </trkpt>
      <trkpt lat="39.985817" lon="-6.208767">
        <ele>2484.0</ele>
        <time>2015-06-06T17:08:40Z</time>
      </trkpt>
      <trkpt lat="39.985883" lon="-6.209083">
        <ele>2487.0</ele>
        <time>2015-06-06T17:08:42Z</time>
      </trkpt>
      <trkpt lat="39.985883" lon="-6.209433">
        <ele>2490.0</ele>
        <time>2015-06-06T17:08:44Z</time>
      </trkpt>
      <trkpt lat="39.985817" lon="-6.209750">
        <ele>2495.0</ele>
        <time>2015-06-06T17:08:46Z</time>
      </trkpt>
      <trkpt lat="39.985700" lon="-6.210017">
        <ele>2498.0</ele>
        <time>2015-06-06T17:08:48Z</time>
      </trkpt>
      <trkpt lat="39.985533" lon="-6.210250">
        <ele>2498.0</ele>
        <time>2015-06-06T17:08:50Z</time>
      </trkpt>
      <trkpt lat="39.985350" lon="-6.210350">
        <ele>2501.0</ele>
        <time>2015-06-06T17:08:52Z</time>
      </trkpt>
      <trkpt lat="39.985233" lon="-6.210317">
        <ele>2504.0</ele>
        <time>2015-06-06T17:08:54Z</time>
      </trkpt>
      <trkpt lat="39.985167" lon="-6.210217">
        <ele>2505.0</ele>
        <time>2015-06-06T17:08:56Z</time>
      </trkpt>
      <trkpt lat="39.985183" lon="-6.210100">
        <ele>2506.0</ele>
        <time>2015-06-06T17:08:58Z</time>
      </trkpt>
      <trkpt lat="39.985283" lon="-6.210033">
        <ele>2508.0</ele>
        <time>2015-06-06T17:09:00Z</time>
      </trkpt>
      <trkpt lat="39.985450" lon="-6.210100">
        <ele>2510.0</ele>
        <time>2015-06-06T17:09:02Z</time>
      </trkpt>
      <trkpt lat="39.985617" lon="-6.210250">
        <ele>2512.0</ele>
        <time>2015-06-06T17:09:04Z</time>
      </trkpt>
      <trkpt lat="39.985733" lon="-6.210517">
        <ele>2511.0</ele>
        <time>2015-06-06T17:09:06Z</time>
      </trkpt>
      <trkpt lat="39.985817" lon="-6.210850">
        <ele>2512.0</ele>
        <time>2015-06-06T17:09:08Z</time>
      </trkpt>
      <trkpt lat="39.985867" lon="-6.211200">
        <ele>2514.0</ele>
        <time>2015-06-06T17:09:10Z</time>
      </trkpt>
      <trkpt lat="39.985867" lon="-6.211533">
        <ele>2517.0</ele>
        <time>2015-06-06T17:09:12Z</time>
      </trkpt>
      <trkpt lat="39.985800" lon="-6.211900">
        <ele>2517.0</ele>
        <time>2015-06-06T17:09:14Z</time>
      </trkpt>
      <trkpt lat="39.985750" lon="-6.212250">
        <ele>2520.0</ele>
        <time>2015-06-06T17:09:16Z</time>
      </trkpt>
      <trkpt lat="39.985733" lon="-6.212583">
        <ele>2520.0</ele>
        <time>2015-06-06T17:09:18Z</time>
      </trkpt>
      <trkpt lat="39.985683" lon="-6.212933">
        <ele>2518.0</ele>
        <time>2015-06-06T17:09:20Z</time>
      </trkpt>
      <trkpt lat="39.985617" lon="-6.213283">
        <ele>2515.0</ele>
        <time>2015-06-06T17:09:22Z</time>
      </trkpt>
      <trkpt lat="39.985583" lon="-6.213633">
        <ele>2510.0</ele>
        <time>2015-06-06T17:09:24Z</time>
      </trkpt>
      <trkpt lat="39.985567" lon="-6.214000">
        <ele>2503.0</ele>
        <time>2015-06-06T17:09:26Z</time>
      </trkpt>
      <trkpt lat="39.985533" lon="-6.214367">
        <ele>2498.0</ele>
        <time>2015-06-06T17:09:28Z</time>
      </trkpt>
      <trkpt lat="39.985467" lon="-6.214733">
        <ele>2494.0</ele>
        <time>2015-06-06T17:09:30Z</time>
      </trkpt>
      <trkpt lat="39.985417" lon="-6.215133">
        <ele>2490.0</ele>
        <time>2015-06-06T17:09:32Z</time>
      </trkpt>
      <trkpt lat="39.985350" lon="-6.215500">
        <ele>2487.0</ele>
        <time>2015-06-06T17:09:34Z</time>
      </trkpt>
      <trkpt lat="39.985283" lon="-6.215850">
        <ele>2484.0</ele>
        <time>2015-06-06T17:09:36Z</time>
      </trkpt>
      <trkpt lat="39.985217" lon="-6.216200">
        <ele>2481.0</ele>
        <time>2015-06-06T17:09:38Z</time>
      </trkpt>
      <trkpt lat="39.985167" lon="-6.216533">
        <ele>2477.0</ele>
        <time>2015-06-06T17:09:40Z</time>
      </trkpt>
      <trkpt lat="39.985083" lon="-6.216867">
        <ele>2475.0</ele>
        <time>2015-06-06T17:09:42Z</time>
      </trkpt>
      <trkpt lat="39.985017" lon="-6.217167">
        <ele>2474.0</ele>
        <time>2015-06-06T17:09:44Z</time>
      </trkpt>
      <trkpt lat="39.984967" lon="-6.217500">
        <ele>2471.0</ele>
        <time>2015-06-06T17:09:46Z</time>
      </trkpt>
      <trkpt lat="39.984900" lon="-6.217833">
        <ele>2469.0</ele>
        <time>2015-06-06T17:09:48Z</time>
      </trkpt>
      <trkpt lat="39.984850" lon="-6.218150">
        <ele>2466.0</ele>
        <time>2015-06-06T17:09:50Z</time>
      </trkpt>
      <trkpt lat="39.984783" lon="-6.218433">
        <ele>2461.0</ele>
        <time>2015-06-06T17:09:52Z</time>
      </trkpt>
      <trkpt lat="39.984700" lon="-6.218767">
        <ele>2453.0</ele>
        <time>2015-06-06T17:09:54Z</time>
      </trkpt>
      <trkpt lat="39.984633" lon="-6.219100">
        <ele>2450.0</ele>
        <time>2015-06-06T17:09:56Z</time>
      </trkpt>
      <trkpt lat="39.984567" lon="-6.219400">
        <ele>2448.0</ele>
        <time>2015-06-06T17:09:58Z</time>
      </trkpt>
      <trkpt lat="39.984500" lon="-6.219683">
        <ele>2442.0</ele>
        <time>2015-06-06T17:10:00Z</time>
      </trkpt>
      <trkpt lat="39.984417" lon="-6.220000">
        <ele>2434.0</ele>
        <time>2015-06-06T17:10:02Z</time>
      </trkpt>
      <trkpt lat="39.984333" lon="-6.220333">
        <ele>2430.0</ele>
        <time>2015-06-06T17:10:04Z</time>
      </trkpt>
      <trkpt lat="39.984233" lon="-6.220617">
        <ele>2430.0</ele>
        <time>2015-06-06T17:10:06Z</time>
      </trkpt>
      <trkpt lat="39.984100" lon="-6.220850">
        <ele>2427.0</ele>
        <time>2015-06-06T17:10:08Z</time>
      </trkpt>
      <trkpt lat="39.984000" lon="-6.221117">
        <ele>2421.0</ele>
        <time>2015-06-06T17:10:10Z</time>
      </trkpt>
      <trkpt lat="39.983917" lon="-6.221417">
        <ele>2418.0</ele>
        <time>2015-06-06T17:10:12Z</time>
      </trkpt>
      <trkpt lat="39.983833" lon="-6.221717">
        <ele>2416.0</ele>
        <time>2015-06-06T17:10:14Z</time>
      </trkpt>
      <trkpt lat="39.983767" lon="-6.222000">
        <ele>2413.0</ele>
        <time>2015-06-06T17:10:16Z</time>
      </trkpt>
      <trkpt lat="39.983717" lon="-6.222317">
        <ele>2410.0</ele>
        <time>2015-06-06T17:10:18Z</time>
      </trkpt>
      <trkpt lat="39.983633" lon="-6.222633">
        <ele>2409.0</ele>
        <time>2015-06-06T17:10:20Z</time>
      </trkpt>
      <trkpt lat="39.983550" lon="-6.222917">
        <ele>2408.0</ele>
        <time>2015-06-06T17:10:22Z</time>
      </trkpt>
      <trkpt lat="39.983450" lon="-6.223200">
        <ele>2405.0</ele>
        <time>2015-06-06T17:10:24Z</time>
      </trkpt>
      <trkpt lat="39.983383" lon="-6.223500">
        <ele>2403.0</ele>
        <time>2015-06-06T17:10:26Z</time>
      </trkpt>
      <trkpt lat="39.983367" lon="-6.223817">
        <ele>2401.0</ele>
        <time>2015-06-06T17:10:28Z</time>
      </trkpt>
      <trkpt lat="39.983333" lon="-6.224150">
        <ele>2398.0</ele>
        <time>2015-06-06T17:10:30Z</time>
      </trkpt>
      <trkpt lat="39.983317" lon="-6.224467">
        <ele>2396.0</ele>
        <time>2015-06-06T17:10:32Z</time>
      </trkpt>
      <trkpt lat="39.983300" lon="-6.224767">
        <ele>2395.0</ele>
        <time>2015-06-06T17:10:34Z</time>
      </trkpt>
      <trkpt lat="39.983300" lon="-6.225083">
        <ele>2391.0</ele>
        <time>2015-06-06T17:10:36Z</time>
      </trkpt>
      <trkpt lat="39.983300" lon="-6.225433">
        <ele>2391.0</ele>
        <time>2015-06-06T17:10:38Z</time>
      </trkpt>
      <trkpt lat="39.983250" lon="-6.225750">
        <ele>2392.0</ele>
        <time>2015-06-06T17:10:40Z</time>
      </trkpt>
      <trkpt lat="39.983217" lon="-6.226050">
        <ele>2393.0</ele>
        <time>2015-06-06T17:10:42Z</time>
      </trkpt>
      <trkpt lat="39.983233" lon="-6.226350">
        <ele>2392.0</ele>
        <time>2015-06-06T17:10:44Z</time>
      </trkpt>
      <trkpt lat="39.983250" lon="-6.226667">
        <ele>2393.0</ele>
        <time>2015-06-06T17:10:46Z</time>
      </trkpt>
      <trkpt lat="39.983250" lon="-6.226983">
        <ele>2394.0</ele>
        <time>2015-06-06T17:10:48Z</time>
      </trkpt>
      <trkpt lat="39.983267" lon="-6.227317">
        <ele>2396.0</ele>
        <time>2015-06-06T17:10:50Z</time>
      </trkpt>
      <trkpt lat="39.983350" lon="-6.227583">
        <ele>2397.0</ele>
        <time>2015-06-06T17:10:52Z</time>
      </trkpt>
      <trkpt lat="39.983500" lon="-6.227800">
        <ele>2398.0</ele>
        <time>2015-06-06T17:10:54Z</time>
      </trkpt>
      <trkpt lat="39.983700" lon="-6.227900">
        <ele>2401.0</ele>
        <time>2015-06-06T17:10:56Z</time>
      </trkpt>
      <trkpt lat="39.983850" lon="-6.227900">
        <ele>2404.0</ele>
        <time>2015-06-06T17:10:58Z</time>
      </trkpt>
      <trkpt lat="39.983933" lon="-6.227800">
        <ele>2404.0</ele>
        <time>2015-06-06T17:11:00Z</time>
      </trkpt>
      <trkpt lat="39.983950" lon="-6.227683">
        <ele>2404.0</ele>
        <time>2015-06-06T17:11:02Z</time>
      </trkpt>
      <trkpt lat="39.983883" lon="-6.227600">
        <ele>2403.0</ele>
        <time>2015-06-06T17:11:04Z</time>
      </trkpt>
      <trkpt lat="39.983733" lon="-6.227583">
        <ele>2403.0</ele>
        <time>2015-06-06T17:11:06Z</time>
      </trkpt>
      <trkpt lat="39.983567" lon="-6.227683">
        <ele>2404.0</ele>
        <time>2015-06-06T17:11:08Z</time>
      </trkpt>
      <trkpt lat="39.983417" lon="-6.227883">
        <ele>2404.0</ele>
        <time>2015-06-06T17:11:10Z</time>
      </trkpt>
      <trkpt lat="39.983267" lon="-6.228117">
        <ele>2404.0</ele>
        <time>2015-06-06T17:11:12Z</time>
      </trkpt>
      <trkpt lat="39.983167" lon="-6.228383">
        <ele>2405.0</ele>
        <time>2015-06-06T17:11:14Z</time>
      </trkpt>
      <trkpt lat="39.983067" lon="-6.228683">
        <ele>2406.0</ele>
        <time>2015-06-06T17:11:16Z</time>
      </trkpt>
      <trkpt lat="39.982983" lon="-6.228983">
        <ele>2410.0</ele>
        <time>2015-06-06T17:11:18Z</time>
      </trkpt>
      <trkpt lat="39.982933" lon="-6.229250">
        <ele>2414.0</ele>
        <time>2015-06-06T17:11:20Z</time>
      </trkpt>
      <trkpt lat="39.982950" lon="-6.229517">
        <ele>2414.0</ele>
        <time>2015-06-06T17:11:22Z</time>
      </trkpt>
      <trkpt lat="39.983050" lon="-6.229767">
        <ele>2415.0</ele>
        <time>2015-06-06T17:11:24Z</time>
      </trkpt>
      <trkpt lat="39.983217" lon="-6.229883">
        <ele>2419.0</ele>
        <time>2015-06-06T17:11:26Z</time>
      </trkpt>
      <trkpt lat="39.983367" lon="-6.229883">
        <ele>2422.0</ele>
        <time>2015-06-06T17:11:28Z</time>
      </trkpt>
      <trkpt lat="39.983483" lon="-6.229783">
        <ele>2427.0</ele>
        <time>2015-06-06T17:11:30Z</time>
      </trkpt>
      <trkpt lat="39.983517" lon="-6.229617">
        <ele>2429.0</ele>
        <time>2015-06-06T17:11:32Z</time>
      </trkpt>
      <trkpt lat="39.983467" lon="-6.229450">
        <ele>2430.0</ele>
        <time>2015-06-06T17:11:34Z</time>
      </trkpt>
      <trkpt lat="39.983333" lon="-6.229367">
        <ele>2433.0</ele>
        <time>2015-06-06T17:11:36Z</time>
      </trkpt>
      <trkpt lat="39.983183" lon="-6.229400">
        <ele>2433.0</ele>
        <time>2015-06-06T17:11:38Z</time>
      </trkpt>
      <trkpt lat="39.983000" lon="-6.229550">
        <ele>2432.0</ele>
        <time>2015-06-06T17:11:40Z</time>
      </trkpt>
      <trkpt lat="39.982833" lon="-6.229767">
        <ele>2434.0</ele>
        <time>2015-06-06T17:11:42Z</time>
      </trkpt>
      <trkpt lat="39.982733" lon="-6.230017">
        <ele>2437.0</ele>
        <time>2015-06-06T17:11:44Z</time>
      </trkpt>
      <trkpt lat="39.982633" lon="-6.230267">
        <ele>2437.0</ele>
        <time>2015-06-06T17:11:46Z</time>
      </trkpt>
      <trkpt lat="39.982533" lon="-6.230567">
        <ele>2436.0</ele>
        <time>2015-06-06T17:11:48Z</time>
      </trkpt>
      <trkpt lat="39.982433" lon="-6.230867">
        <ele>2438.0</ele>
        <time>2015-06-06T17:11:50Z</time>
      </trkpt>
      <trkpt lat="39.982350" lon="-6.231117">
        <ele>2437.0</ele>
        <time>2015-06-06T17:11:52Z</time>
      </trkpt>
      <trkpt lat="39.982317" lon="-6.231433">
        <ele>2432.0</ele>
        <time>2015-06-06T17:11:54Z</time>
      </trkpt>
      <trkpt lat="39.982283" lon="-6.231767">
        <ele>2428.0</ele>
        <time>2015-06-06T17:11:56Z</time>
      </trkpt>
      <trkpt lat="39.982233" lon="-6.232067">
        <ele>2422.0</ele>
        <time>2015-06-06T17:11:58Z</time>
      </trkpt>
      <trkpt lat="39.982200" lon="-6.232417">
        <ele>2416.0</ele>
        <time>2015-06-06T17:12:00Z</time>
      </trkpt>
      <trkpt lat="39.982183" lon="-6.232783">
        <ele>2412.0</ele>
        <time>2015-06-06T17:12:02Z</time>
      </trkpt>
      <trkpt lat="39.982150" lon="-6.233117">
        <ele>2410.0</ele>
        <time>2015-06-06T17:12:04Z</time>
      </trkpt>
      <trkpt lat="39.982083" lon="-6.233433">
        <ele>2406.0</ele>
        <time>2015-06-06T17:12:06Z</time>
      </trkpt>
      <trkpt lat="39.982033" lon="-6.233783">
        <ele>2401.0</ele>
        <time>2015-06-06T17:12:08Z</time>
      </trkpt>
      <trkpt lat="39.981983" lon="-6.234117">
        <ele>2398.0</ele>
        <time>2015-06-06T17:12:10Z</time>
      </trkpt>
      <trkpt lat="39.981950" lon="-6.234433">
        <ele>2394.0</ele>
        <time>2015-06-06T17:12:12Z</time>
      </trkpt>
      <trkpt lat="39.981917" lon="-6.234767">
        <ele>2388.0</ele>
        <time>2015-06-06T17:12:14Z</time>
      </trkpt>
      <trkpt lat="39.981883" lon="-6.235133">
        <ele>2384.0</ele>
        <time>2015-06-06T17:12:16Z</time>
      </trkpt>
      <trkpt lat="39.981833" lon="-6.235467">
        <ele>2380.0</ele>
        <time>2015-06-06T17:12:18Z</time>
      </trkpt>
      <trkpt lat="39.981767" lon="-6.235800">
        <ele>2376.0</ele>
        <time>2015-06-06T17:12:20Z</time>
      </trkpt>
      <trkpt lat="39.981733" lon="-6.236133">
        <ele>2372.0</ele>
        <time>2015-06-06T17:12:22Z</time>
      </trkpt>
      <trkpt lat="39.981733" lon="-6.236483">
        <ele>2366.0</ele>
        <time>2015-06-06T17:12:24Z</time>
      </trkpt>
      <trkpt lat="39.981717" lon="-6.236850">
        <ele>2361.0</ele>
        <time>2015-06-06T17:12:26Z</time>
      </trkpt>
      <trkpt lat="39.981667" lon="-6.237200">
        <ele>2357.0</ele>
        <time>2015-06-06T17:12:28Z</time>
      </trkpt>
      <trkpt lat="39.981617" lon="-6.237517">
        <ele>2352.0</ele>
        <time>2015-06-06T17:12:30Z</time>
      </trkpt>
      <trkpt lat="39.981550" lon="-6.237867">
        <ele>2347.0</ele>
        <time>2015-06-06T17:12:32Z</time>
      </trkpt>
      <trkpt lat="39.981483" lon="-6.238217">
        <ele>2343.0</ele>
        <time>2015-06-06T17:12:34Z</time>
      </trkpt>
      <trkpt lat="39.981433" lon="-6.238533">
        <ele>2340.0</ele>
        <time>2015-06-06T17:12:36Z</time>
      </trkpt>
      <trkpt lat="39.981400" lon="-6.238883">
        <ele>2335.0</ele>
        <time>2015-06-06T17:12:38Z</time>
      </trkpt>
      <trkpt lat="39.981350" lon="-6.239233">
        <ele>2332.0</ele>
        <time>2015-06-06T17:12:40Z</time>
      </trkpt>
      <trkpt lat="39.981300" lon="-6.239550">
        <ele>2332.0</ele>
        <time>2015-06-06T17:12:42Z</time>
      </trkpt>
      <trkpt lat="39.981250" lon="-6.239850">
        <ele>2329.0</ele>
        <time>2015-06-06T17:12:44Z</time>
      </trkpt>
      <trkpt lat="39.981217" lon="-6.240183">
        <ele>2321.0</ele>
        <time>2015-06-06T17:12:46Z</time>
      </trkpt>
      <trkpt lat="39.981183" lon="-6.240550">
        <ele>2315.0</ele>
        <time>2015-06-06T17:12:48Z</time>
      </trkpt>
      <trkpt lat="39.981167" lon="-6.240867">
        <ele>2313.0</ele>
        <time>2015-06-06T17:12:50Z</time>
      </trkpt>
      <trkpt lat="39.981133" lon="-6.241167">
        <ele>2308.0</ele>
        <time>2015-06-06T17:12:52Z</time>
      </trkpt>
      <trkpt lat="39.981100" lon="-6.241517">
        <ele>2303.0</ele>
        <time>2015-06-06T17:12:54Z</time>
      </trkpt>
      <trkpt lat="39.981100" lon="-6.241850">
        <ele>2301.0</ele>
        <time>2015-06-06T17:12:56Z</time>
      </trkpt>
      <trkpt lat="39.981100" lon="-6.242200">
        <ele>2297.0</ele>
        <time>2015-06-06T17:12:58Z</time>
      </trkpt>
      <trkpt lat="39.981083" lon="-6.242583">
        <ele>2297.0</ele>
        <time>2015-06-06T17:13:00Z</time>
      </trkpt>
      <trkpt lat="39.981067" lon="-6.242867">
        <ele>2300.0</ele>
        <time>2015-06-06T17:13:02Z</time>
      </trkpt>
      <trkpt lat="39.981017" lon="-6.243133">
        <ele>2298.0</ele>
        <time>2015-06-06T17:13:04Z</time>
      </trkpt>
      <trkpt lat="39.980983" lon="-6.243433">
        <ele>2296.0</ele>
        <time>2015-06-06T17:13:06Z</time>
      </trkpt>
      <trkpt lat="39.980950" lon="-6.243750">
        <ele>2298.0</ele>
        <time>2015-06-06T17:13:08Z</time>
      </trkpt>
      <trkpt lat="39.980950" lon="-6.244017">
        <ele>2301.0</ele>
        <time>2015-06-06T17:13:10Z</time>
      </trkpt>
      <trkpt lat="39.981017" lon="-6.244283">
        <ele>2299.0</ele>
        <time>2015-06-06T17:13:12Z</time>
      </trkpt>
      <trkpt lat="39.981117" lon="-6.244600">
        <ele>2298.0</ele>
        <time>2015-06-06T17:13:14Z</time>
      </trkpt>
      <trkpt lat="39.981167" lon="-6.244933">
        <ele>2301.0</ele>
        <time>2015-06-06T17:13:16Z</time>
      </trkpt>
      <trkpt lat="39.981167" lon="-6.245217">
        <ele>2305.0</ele>
        <time>2015-06-06T17:13:18Z</time>
      </trkpt>
      <trkpt lat="39.981133" lon="-6.245500">
        <ele>2310.0</ele>
        <time>2015-06-06T17:13:20Z</time>
      </trkpt>
      <trkpt lat="39.981033" lon="-6.245717">
        <ele>2315.0</ele>
        <time>2015-06-06T17:13:22Z</time>
      </trkpt>
      <trkpt lat="39.980967" lon="-6.245950">
        <ele>2319.0</ele>
        <time>2015-06-06T17:13:24Z</time>
      </trkpt>
      <trkpt lat="39.981067" lon="-6.246233">
        <ele>2320.0</ele>
        <time>2015-06-06T17:13:26Z</time>
      </trkpt>
      <trkpt lat="39.981233" lon="-6.246417">
        <ele>2327.0</ele>
        <time>2015-06-06T17:13:28Z</time>
      </trkpt>
      <trkpt lat="39.981400" lon="-6.246483">
        <ele>2330.0</ele>
        <time>2015-06-06T17:13:30Z</time>
      </trkpt>
      <trkpt lat="39.981583" lon="-6.246400">
        <ele>2330.0</ele>
        <time>2015-06-06T17:13:32Z</time>
      </trkpt>
      <trkpt lat="39.981650" lon="-6.246183">
        <ele>2331.0</ele>
        <time>2015-06-06T17:13:34Z</time>
      </trkpt>
      <trkpt lat="39.981583" lon="-6.246000">
        <ele>2339.0</ele>
        <time>2015-06-06T17:13:36Z</time>
      </trkpt>
      <trkpt lat="39.981483" lon="-6.245967">
        <ele>2346.0</ele>
        <time>2015-06-06T17:13:38Z</time>
      </trkpt>
      <trkpt lat="39.981350" lon="-6.245967">
        <ele>2350.0</ele>
        <time>2015-06-06T17:13:40Z</time>
      </trkpt>
      <trkpt lat="39.981167" lon="-6.246083">
        <ele>2353.0</ele>
        <time>2015-06-06T17:13:42Z</time>
      </trkpt>
      <trkpt lat="39.981083" lon="-6.246300">
        <ele>2359.0</ele>
        <time>2015-06-06T17:13:44Z</time>
      </trkpt>
      <trkpt lat="39.981050" lon="-6.246517">
        <ele>2365.0</ele>
        <time>2015-06-06T17:13:46Z</time>
      </trkpt>
      <trkpt lat="39.981083" lon="-6.246767">
        <ele>2365.0</ele>
        <time>2015-06-06T17:13:48Z</time>
      </trkpt>
      <trkpt lat="39.981233" lon="-6.247033">
        <ele>2364.0</ele>
        <time>2015-06-06T17:13:50Z</time>
      </trkpt>
      <trkpt lat="39.981450" lon="-6.247133">
        <ele>2369.0</ele>
        <time>2015-06-06T17:13:52Z</time>
      </trkpt>
      <trkpt lat="39.981600" lon="-6.247133">
        <ele>2374.0</ele>
        <time>2015-06-06T17:13:54Z</time>
      </trkpt>
      <trkpt lat="39.981767" lon="-6.247067">
        <ele>2373.0</ele>
        <time>2015-06-06T17:13:56Z</time>
      </trkpt>
      <trkpt lat="39.981867" lon="-6.246850">
        <ele>2374.0</ele>
        <time>2015-06-06T17:13:58Z</time>
      </trkpt>
      <trkpt lat="39.981817" lon="-6.246667">
        <ele>2380.0</ele>
        <time>2015-06-06T17:14:00Z</time>
      </trkpt>
      <trkpt lat="39.981700" lon="-6.246617">
        <ele>2387.0</ele>
        <time>2015-06-06T17:14:02Z</time>
      </trkpt>
      <trkpt lat="39.981550" lon="-6.246633">
        <ele>2392.0</ele>
        <time>2015-06-06T17:14:04Z</time>
      </trkpt>
      <trkpt lat="39.981383" lon="-6.246783">
        <ele>2394.0</ele>
        <time>2015-06-06T17:14:06Z</time>
      </trkpt>
      <trkpt lat="39.981283" lon="-6.247067">
        <ele>2400.0</ele>
        <time>2015-06-06T17:14:08Z</time>
      </trkpt>
      <trkpt lat="39.981283" lon="-6.247317">
        <ele>2407.0</ele>
        <time>2015-06-06T17:14:10Z</time>
      </trkpt>
      <trkpt lat="39.981350" lon="-6.247550">
        <ele>2409.0</ele>
        <time>2015-06-06T17:14:12Z</time>
      </trkpt>
      <trkpt lat="39.981500" lon="-6.247750">
        <ele>2410.0</ele>
        <time>2015-06-06T17:14:14Z</time>
      </trkpt>
      <trkpt lat="39.981717" lon="-6.247783">
        <ele>2413.0</ele>
        <time>2015-06-06T17:14:16Z</time>
      </trkpt>
      <trkpt lat="39.981867" lon="-6.247683">
        <ele>2417.0</ele>
        <time>2015-06-06T17:14:18Z</time>
      </trkpt>
      <trkpt lat="39.981950" lon="-6.247517">
        <ele>2420.0</ele>
        <time>2015-06-06T17:14:20Z</time>
      </trkpt>
      <trkpt lat="39.981933" lon="-6.247333">
        <ele>2421.0</ele>
        <time>2015-06-06T17:14:22Z</time>
      </trkpt>
      <trkpt lat="39.981800" lon="-6.247217">
        <ele>2424.0</ele>
        <time>2015-06-06T17:14:24Z</time>
      </trkpt>
      <trkpt lat="39.981633" lon="-6.247233">
        <ele>2429.0</ele>
        <time>2015-06-06T17:14:26Z</time>
      </trkpt>
      <trkpt lat="39.981483" lon="-6.247367">
        <ele>2434.0</ele>
        <time>2015-06-06T17:14:28Z</time>
      </trkpt>
      <trkpt lat="39.981400" lon="-6.247617">
        <ele>2436.0</ele>
        <time>2015-06-06T17:14:30Z</time>
      </trkpt>
      <trkpt lat="39.981417" lon="-6.247933">
        <ele>2440.0</ele>
        <time>2015-06-06T17:14:32Z</time>
      </trkpt>
      <trkpt lat="39.981550" lon="-6.248167">
        <ele>2446.0</ele>
        <time>2015-06-06T17:14:34Z</time>
      </trkpt>
      <trkpt lat="39.981733" lon="-6.248283">
        <ele>2450.0</ele>
        <time>2015-06-06T17:14:36Z</time>
      </trkpt>
      <trkpt lat="39.981917" lon="-6.248317">
        <ele>2452.0</ele>
        <time>2015-06-06T17:14:38Z</time>
      </trkpt>
      <trkpt lat="39.982083" lon="-6.248200">
        <ele>2455.0</ele>
        <time>2015-06-06T17:14:40Z</time>
      </trkpt>
      <trkpt lat="39.982117" lon="-6.248000">
        <ele>2458.0</ele>
        <time>2015-06-06T17:14:42Z</time>
      </trkpt>
      <trkpt lat="39.982083" lon="-6.247817">
        <ele>2463.0</ele>
        <time>2015-06-06T17:14:44Z</time>
      </trkpt>
      <trkpt lat="39.981967" lon="-6.247717">
        <ele>2466.0</ele>
        <time>2015-06-06T17:14:46Z</time>
      </trkpt>
      <trkpt lat="39.981800" lon="-6.247800">
        <ele>2467.0</ele>
        <time>2015-06-06T17:14:48Z</time>
      </trkpt>
      <trkpt lat="39.981667" lon="-6.248017">
        <ele>2469.0</ele>
        <time>2015-06-06T17:14:50Z</time>
      </trkpt>
      <trkpt lat="39.981583" lon="-6.248283">
        <ele>2474.0</ele>
        <time>2015-06-06T17:14:52Z</time>
      </trkpt>
      <trkpt lat="39.981600" lon="-6.248583">
        <ele>2477.0</ele>
        <time>2015-06-06T17:14:54Z</time>
      </trkpt>
      <trkpt lat="39.981733" lon="-6.248850">
        <ele>2479.0</ele>
        <time>2015-06-06T17:14:56Z</time>
      </trkpt>
      <trkpt lat="39.981933" lon="-6.248967">
        <ele>2482.0</ele>
        <time>2015-06-06T17:14:58Z</time>
      </trkpt>
      <trkpt lat="39.982100" lon="-6.248900">
        <ele>2485.0</ele>
        <time>2015-06-06T17:15:00Z</time>
      </trkpt>
      <trkpt lat="39.982183" lon="-6.248750">
        <ele>2490.0</ele>
        <time>2015-06-06T17:15:02Z</time>
      </trkpt>
      <trkpt lat="39.982200" lon="-6.248583">
        <ele>2495.0</ele>
        <time>2015-06-06T17:15:04Z</time>
      </trkpt>
      <trkpt lat="39.982117" lon="-6.248450">
        <ele>2498.0</ele>
        <time>2015-06-06T17:15:06Z</time>
      </trkpt>
      <trkpt lat="39.981983" lon="-6.248400">
        <ele>2501.0</ele>
        <time>2015-06-06T17:15:08Z</time>
      </trkpt>
      <trkpt lat="39.981833" lon="-6.248433">
        <ele>2503.0</ele>
        <time>2015-06-06T17:15:10Z</time>
      </trkpt>
      <trkpt lat="39.981667" lon="-6.248567">
        <ele>2503.0</ele>
        <time>2015-06-06T17:15:12Z</time>
      </trkpt>
      <trkpt lat="39.981517" lon="-6.248783">
        <ele>2507.0</ele>
        <time>2015-06-06T17:15:14Z</time>
      </trkpt>
      <trkpt lat="39.981450" lon="-6.249033">
        <ele>2516.0</ele>
        <time>2015-06-06T17:15:16Z</time>
      </trkpt>
      <trkpt lat="39.981417" lon="-6.249267">
        <ele>2519.0</ele>
        <time>2015-06-06T17:15:18Z</time>
      </trkpt>
      <trkpt lat="39.981467" lon="-6.249583">
        <ele>2519.0</ele>
        <time>2015-06-06T17:15:20Z</time>
      </trkpt>
      <trkpt lat="39.981650" lon="-6.249817">
        <ele>2523.0</ele>
        <time>2015-06-06T17:15:22Z</time>
      </trkpt>
      <trkpt lat="39.981833" lon="-6.249917">
        <ele>2526.0</ele>
        <time>2015-06-06T17:15:24Z</time>
      </trkpt>
      <trkpt lat="39.982017" lon="-6.249900">
        <ele>2525.0</ele>
        <time>2015-06-06T17:15:26Z</time>
      </trkpt>
      <trkpt lat="39.982167" lon="-6.249767">
        <ele>2525.0</ele>
        <time>2015-06-06T17:15:28Z</time>
      </trkpt>
      <trkpt lat="39.982200" lon="-6.249550">
        <ele>2527.0</ele>
        <time>2015-06-06T17:15:30Z</time>
      </trkpt>
      <trkpt lat="39.982117" lon="-6.249367">
        <ele>2531.0</ele>
        <time>2015-06-06T17:15:32Z</time>
      </trkpt>
      <trkpt lat="39.981967" lon="-6.249283">
        <ele>2537.0</ele>
        <time>2015-06-06T17:15:34Z</time>
      </trkpt>
      <trkpt lat="39.981817" lon="-6.249350">
        <ele>2541.0</ele>
        <time>2015-06-06T17:15:36Z</time>
      </trkpt>
      <trkpt lat="39.981667" lon="-6.249467">
        <ele>2543.0</ele>
        <time>2015-06-06T17:15:38Z</time>
      </trkpt>
      <trkpt lat="39.981517" lon="-6.249683">
        <ele>2545.0</ele>
        <time>2015-06-06T17:15:40Z</time>
      </trkpt>
      <trkpt lat="39.981533" lon="-6.250000">
        <ele>2550.0</ele>
        <time>2015-06-06T17:15:42Z</time>
      </trkpt>
      <trkpt lat="39.981650" lon="-6.250233">
        <ele>2555.0</ele>
        <time>2015-06-06T17:15:44Z</time>
      </trkpt>
      <trkpt lat="39.981767" lon="-6.250400">
        <ele>2555.0</ele>
        <time>2015-06-06T17:15:46Z</time>
      </trkpt>
      <trkpt lat="39.981950" lon="-6.250517">
        <ele>2553.0</ele>
        <time>2015-06-06T17:15:48Z</time>
      </trkpt>
      <trkpt lat="39.982183" lon="-6.250500">
        <ele>2553.0</ele>
        <time>2015-06-06T17:15:50Z</time>
      </trkpt>
      <trkpt lat="39.982317" lon="-6.250317">
        <ele>2554.0</ele>
        <time>2015-06-06T17:15:52Z</time>
      </trkpt>
      <trkpt lat="39.982333" lon="-6.250117">
        <ele>2558.0</ele>
        <time>2015-06-06T17:15:54Z</time>
      </trkpt>
      <trkpt lat="39.982267" lon="-6.249967">
        <ele>2563.0</ele>
        <time>2015-06-06T17:15:56Z</time>
      </trkpt>
      <trkpt lat="39.982150" lon="-6.249933">
        <ele>2565.0</ele>
        <time>2015-06-06T17:15:58Z</time>
      </trkpt>
      <trkpt lat="39.981983" lon="-6.249933">
        <ele>2566.0</ele>
        <time>2015-06-06T17:16:00Z</time>
      </trkpt>
      <trkpt lat="39.981783" lon="-6.250067">
        <ele>2568.0</ele>
        <time>2015-06-06T17:16:02Z</time>
      </trkpt>
      <trkpt lat="39.981683" lon="-6.250300">
        <ele>2574.0</ele>
        <time>2015-06-06T17:16:04Z</time>
      </trkpt>
      <trkpt lat="39.981617" lon="-6.250533">
        <ele>2578.0</ele>
        <time>2015-06-06T17:16:06Z</time>
      </trkpt>
      <trkpt lat="39.981600" lon="-6.250817">
        <ele>2580.0</ele>
        <time>2015-06-06T17:16:08Z</time>
      </trkpt>
      <trkpt lat="39.981700" lon="-6.251083">
        <ele>2581.0</ele>
        <time>2015-06-06T17:16:10Z</time>
      </trkpt>
      <trkpt lat="39.981883" lon="-6.251250">
        <ele>2582.0</ele>
        <time>2015-06-06T17:16:12Z</time>
      </trkpt>
      <trkpt lat="39.982100" lon="-6.251367">
        <ele>2583.0</ele>
        <time>2015-06-06T17:16:14Z</time>
      </trkpt>
      <trkpt lat="39.982300" lon="-6.251350">
        <ele>2582.0</ele>
        <time>2015-06-06T17:16:16Z</time>
      </trkpt>
      <trkpt lat="39.982450" lon="-6.251183">
        <ele>2581.0</ele>
        <time>2015-06-06T17:16:18Z</time>
      </trkpt>
      <trkpt lat="39.982500" lon="-6.251000">
        <ele>2584.0</ele>
        <time>2015-06-06T17:16:20Z</time>
      </trkpt>
      <trkpt lat="39.982483" lon="-6.250817">
        <ele>2585.0</ele>
        <time>2015-06-06T17:16:22Z</time>
      </trkpt>
      <trkpt lat="39.982383" lon="-6.250633">
        <ele>2586.0</ele>
        <time>2015-06-06T17:16:24Z</time>
      </trkpt>
      <trkpt lat="39.982233" lon="-6.250550">
        <ele>2591.0</ele>
        <time>2015-06-06T17:16:26Z</time>
      </trkpt>
      <trkpt lat="39.982083" lon="-6.250583">
        <ele>2597.0</ele>
        <time>2015-06-06T17:16:28Z</time>
      </trkpt>
      <trkpt lat="39.981950" lon="-6.250700">
        <ele>2599.0</ele>
        <time>2015-06-06T17:16:30Z</time>
      </trkpt>
      <trkpt lat="39.981833" lon="-6.250933">
        <ele>2600.0</ele>
        <time>2015-06-06T17:16:32Z</time>
      </trkpt>
      <trkpt lat="39.981783" lon="-6.251250">
        <ele>2605.0</ele>
        <time>2015-06-06T17:16:34Z</time>
      </trkpt>
      <trkpt lat="39.981833" lon="-6.251533">
        <ele>2609.0</ele>
        <time>2015-06-06T17:16:36Z</time>
      </trkpt>
      <trkpt lat="39.981933" lon="-6.251800">
        <ele>2610.0</ele>
        <time>2015-06-06T17:16:38Z</time>
      </trkpt>
      <trkpt lat="39.982133" lon="-6.252017">
        <ele>2610.0</ele>
        <time>2015-06-06T17:16:40Z</time>
      </trkpt>
      <trkpt lat="39.982350" lon="-6.252117">
        <ele>2612.0</ele>
        <time>2015-06-06T17:16:42Z</time>
      </trkpt>
      <trkpt lat="39.982533" lon="-6.252033">
        <ele>2613.0</ele>
        <time>2015-06-06T17:16:44Z</time>
      </trkpt>
      <trkpt lat="39.982617" lon="-6.251867">
        <ele>2614.0</ele>
        <time>2015-06-06T17:16:46Z</time>
      </trkpt>
      <trkpt lat="39.982617" lon="-6.251700">
        <ele>2615.0</ele>
        <time>2015-06-06T17:16:48Z</time>
      </trkpt>
      <trkpt lat="39.982533" lon="-6.251533">
        <ele>2615.0</ele>
        <time>2015-06-06T17:16:50Z</time>
      </trkpt>
      <trkpt lat="39.982333" lon="-6.251483">
        <ele>2616.0</ele>
        <time>2015-06-06T17:16:52Z</time>
      </trkpt>
      <trkpt lat="39.982167" lon="-6.251583">
        <ele>2621.0</ele>
        <time>2015-06-06T17:16:54Z</time>
      </trkpt>
      <trkpt lat="39.982017" lon="-6.251733">
        <ele>2626.0</ele>
        <time>2015-06-06T17:16:56Z</time>
      </trkpt>
      <trkpt lat="39.981883" lon="-6.251950">
        <ele>2628.0</ele>
        <time>2015-06-06T17:16:58Z</time>
      </trkpt>
      <trkpt lat="39.981817" lon="-6.252250">
        <ele>2632.0</ele>
        <time>2015-06-06T17:17:00Z</time>
      </trkpt>
      <trkpt lat="39.981817" lon="-6.252567">
        <ele>2636.0</ele>
        <time>2015-06-06T17:17:02Z</time>
      </trkpt>
      <trkpt lat="39.981883" lon="-6.252867">
        <ele>2637.0</ele>
        <time>2015-06-06T17:17:04Z</time>
      </trkpt>
      <trkpt lat="39.982017" lon="-6.253150">
        <ele>2637.0</ele>
        <time>2015-06-06T17:17:06Z</time>
      </trkpt>
      <trkpt lat="39.982233" lon="-6.253267">
        <ele>2638.0</ele>
        <time>2015-06-06T17:17:08Z</time>
      </trkpt>
      <trkpt lat="39.982450" lon="-6.253300">
        <ele>2638.0</ele>
        <time>2015-06-06T17:17:10Z</time>
      </trkpt>
      <trkpt lat="39.982650" lon="-6.253250">
        <ele>2637.0</ele>
        <time>2015-06-06T17:17:12Z</time>
      </trkpt>
      <trkpt lat="39.982750" lon="-6.253067">
        <ele>2636.0</ele>
        <time>2015-06-06T17:17:14Z</time>
      </trkpt>
      <trkpt lat="39.982750" lon="-6.252900">
        <ele>2637.0</ele>
        <time>2015-06-06T17:17:16Z</time>
      </trkpt>
      <trkpt lat="39.982667" lon="-6.252767">
        <ele>2637.0</ele>
        <time>2015-06-06T17:17:18Z</time>
      </trkpt>
      <trkpt lat="39.982517" lon="-6.252733">
        <ele>2636.0</ele>
        <time>2015-06-06T17:17:20Z</time>
      </trkpt>
      <trkpt lat="39.982317" lon="-6.252817">
        <ele>2637.0</ele>
        <time>2015-06-06T17:17:22Z</time>
      </trkpt>
      <trkpt lat="39.982133" lon="-6.252917">
        <ele>2644.0</ele>
        <time>2015-06-06T17:17:24Z</time>
      </trkpt>
      <trkpt lat="39.982000" lon="-6.253050">
        <ele>2651.0</ele>
        <time>2015-06-06T17:17:26Z</time>
      </trkpt>
      <trkpt lat="39.981917" lon="-6.253200">
        <ele>2653.0</ele>
        <time>2015-06-06T17:17:28Z</time>
      </trkpt>
      <trkpt lat="39.981817" lon="-6.253467">
        <ele>2652.0</ele>
        <time>2015-06-06T17:17:30Z</time>
      </trkpt>
      <trkpt lat="39.981817" lon="-6.253833">
        <ele>2653.0</ele>
        <time>2015-06-06T17:17:32Z</time>
      </trkpt>
      <trkpt lat="39.981917" lon="-6.254133">
        <ele>2661.0</ele>
        <time>2015-06-06T17:17:34Z</time>
      </trkpt>
      <trkpt lat="39.982033" lon="-6.254333">
        <ele>2663.0</ele>
        <time>2015-06-06T17:17:36Z</time>
      </trkpt>
      <trkpt lat="39.982200" lon="-6.254533">
        <ele>2660.0</ele>
        <time>2015-06-06T17:17:38Z</time>
      </trkpt>
      <trkpt lat="39.982417" lon="-6.254667">
        <ele>2658.0</ele>
        <time>2015-06-06T17:17:40Z</time>
      </trkpt>
      <trkpt lat="39.982650" lon="-6.254650">
        <ele>2658.0</ele>
        <time>2015-06-06T17:17:42Z</time>
      </trkpt>
      <trkpt lat="39.982800" lon="-6.254533">
        <ele>2659.0</ele>
        <time>2015-06-06T17:17:44Z</time>
      </trkpt>
      <trkpt lat="39.982900" lon="-6.254350">
        <ele>2659.0</ele>
        <time>2015-06-06T17:17:46Z</time>
      </trkpt>
      <trkpt lat="39.982933" lon="-6.254167">
        <ele>2659.0</ele>
        <time>2015-06-06T17:17:48Z</time>
      </trkpt>
      <trkpt lat="39.982900" lon="-6.253983">
        <ele>2658.0</ele>
        <time>2015-06-06T17:17:50Z</time>
      </trkpt>
      <trkpt lat="39.982783" lon="-6.253833">
        <ele>2658.0</ele>
        <time>2015-06-06T17:17:52Z</time>
      </trkpt>
      <trkpt lat="39.982617" lon="-6.253800">
        <ele>2660.0</ele>
        <time>2015-06-06T17:17:54Z</time>
      </trkpt>
      <trkpt lat="39.982433" lon="-6.253900">
        <ele>2664.0</ele>
        <time>2015-06-06T17:17:56Z</time>
      </trkpt>
      <trkpt lat="39.982317" lon="-6.254050">
        <ele>2668.0</ele>
        <time>2015-06-06T17:17:58Z</time>
      </trkpt>
      <trkpt lat="39.982217" lon="-6.254250">
        <ele>2669.0</ele>
        <time>2015-06-06T17:18:00Z</time>
      </trkpt>
      <trkpt lat="39.982117" lon="-6.254533">
        <ele>2668.0</ele>
        <time>2015-06-06T17:18:02Z</time>
      </trkpt>
      <trkpt lat="39.982067" lon="-6.254867">
        <ele>2673.0</ele>
        <time>2015-06-06T17:18:04Z</time>
      </trkpt>
      <trkpt lat="39.982100" lon="-6.255167">
        <ele>2678.0</ele>
        <time>2015-06-06T17:18:06Z</time>
      </trkpt>
      <trkpt lat="39.982183" lon="-6.255433">
        <ele>2680.0</ele>
        <time>2015-06-06T17:18:08Z</time>
      </trkpt>
      <trkpt lat="39.982350" lon="-6.255700">
        <ele>2678.0</ele>
        <time>2015-06-06T17:18:10Z</time>
      </trkpt>
      <trkpt lat="39.982567" lon="-6.255850">
        <ele>2679.0</ele>
        <time>2015-06-06T17:18:12Z</time>
      </trkpt>
      <trkpt lat="39.982783" lon="-6.255900">
        <ele>2679.0</ele>
        <time>2015-06-06T17:18:14Z</time>
      </trkpt>
      <trkpt lat="39.982967" lon="-6.255833">
        <ele>2677.0</ele>
        <time>2015-06-06T17:18:16Z</time>
      </trkpt>
      <trkpt lat="39.983100" lon="-6.255683">
        <ele>2675.0</ele>
        <time>2015-06-06T17:18:18Z</time>
      </trkpt>
      <trkpt lat="39.983150" lon="-6.255467">
        <ele>2674.0</ele>
        <time>2015-06-06T17:18:20Z</time>
      </trkpt>
      <trkpt lat="39.983117" lon="-6.255283">
        <ele>2675.0</ele>
        <time>2015-06-06T17:18:22Z</time>
      </trkpt>
      <trkpt lat="39.983017" lon="-6.255167">
        <ele>2674.0</ele>
        <time>2015-06-06T17:18:24Z</time>
      </trkpt>
      <trkpt lat="39.982833" lon="-6.255117">
        <ele>2673.0</ele>
        <time>2015-06-06T17:18:26Z</time>
      </trkpt>
      <trkpt lat="39.982650" lon="-6.255200">
        <ele>2675.0</ele>
        <time>2015-06-06T17:18:28Z</time>
      </trkpt>
      <trkpt lat="39.982500" lon="-6.255383">
        <ele>2678.0</ele>
        <time>2015-06-06T17:18:30Z</time>
      </trkpt>
      <trkpt lat="39.982367" lon="-6.255600">
        <ele>2680.0</ele>
        <time>2015-06-06T17:18:32Z</time>
      </trkpt>
      <trkpt lat="39.982267" lon="-6.255867">
        <ele>2683.0</ele>
        <time>2015-06-06T17:18:34Z</time>
      </trkpt>
      <trkpt lat="39.982200" lon="-6.256117">
        <ele>2684.0</ele>
        <time>2015-06-06T17:18:36Z</time>
      </trkpt>
      <trkpt lat="39.982117" lon="-6.256383">
        <ele>2683.0</ele>
        <time>2015-06-06T17:18:38Z</time>
      </trkpt>
      <trkpt lat="39.982033" lon="-6.256700">
        <ele>2681.0</ele>
        <time>2015-06-06T17:18:40Z</time>
      </trkpt>
      <trkpt lat="39.981933" lon="-6.256983">
        <ele>2682.0</ele>
        <time>2015-06-06T17:18:42Z</time>
      </trkpt>
      <trkpt lat="39.981800" lon="-6.257200">
        <ele>2681.0</ele>
        <time>2015-06-06T17:18:44Z</time>
      </trkpt>
      <trkpt lat="39.981700" lon="-6.257467">
        <ele>2677.0</ele>
        <time>2015-06-06T17:18:46Z</time>
      </trkpt>
      <trkpt lat="39.981633" lon="-6.257783">
        <ele>2677.0</ele>
        <time>2015-06-06T17:18:48Z</time>
      </trkpt>
      <trkpt lat="39.981600" lon="-6.258067">
        <ele>2676.0</ele>
        <time>2015-06-06T17:18:50Z</time>
      </trkpt>
      <trkpt lat="39.981617" lon="-6.258383">
        <ele>2672.0</ele>
        <time>2015-06-06T17:18:52Z</time>
      </trkpt>
      <trkpt lat="39.981617" lon="-6.258733">
        <ele>2666.0</ele>
        <time>2015-06-06T17:18:54Z</time>
      </trkpt>
      <trkpt lat="39.981600" lon="-6.259083">
        <ele>2664.0</ele>
        <time>2015-06-06T17:18:56Z</time>
      </trkpt>
      <trkpt lat="39.981567" lon="-6.259383">
        <ele>2661.0</ele>
        <time>2015-06-06T17:18:58Z</time>
      </trkpt>
      <trkpt lat="39.981517" lon="-6.259717">
        <ele>2656.0</ele>
        <time>2015-06-06T17:19:00Z</time>
      </trkpt>
      <trkpt lat="39.981450" lon="-6.260067">
        <ele>2655.0</ele>
        <time>2015-06-06T17:19:02Z</time>
      </trkpt>
      <trkpt lat="39.981400" lon="-6.260367">
        <ele>2655.0</ele>
        <time>2015-06-06T17:19:04Z</time>
      </trkpt>
      <trkpt lat="39.981367" lon="-6.260683">
        <ele>2650.0</ele>
        <time>2015-06-06T17:19:06Z</time>
      </trkpt>
      <trkpt lat="39.981300" lon="-6.261017">
        <ele>2647.0</ele>
        <time>2015-06-06T17:19:08Z</time>
      </trkpt>
      <trkpt lat="39.981267" lon="-6.261300">
        <ele>2646.0</ele>
        <time>2015-06-06T17:19:10Z</time>
      </trkpt>
      <trkpt lat="39.981283" lon="-6.261567">
        <ele>2643.0</ele>
        <time>2015-06-06T17:19:12Z</time>
      </trkpt>
      <trkpt lat="39.981300" lon="-6.261867">
        <ele>2636.0</ele>
        <time>2015-06-06T17:19:14Z</time>
      </trkpt>
      <trkpt lat="39.981333" lon="-6.262183">
        <ele>2632.0</ele>
        <time>2015-06-06T17:19:16Z</time>
      </trkpt>
      <trkpt lat="39.981333" lon="-6.262483">
        <ele>2630.0</ele>
        <time>2015-06-06T17:19:18Z</time>
      </trkpt>
      <trkpt lat="39.981317" lon="-6.262767">
        <ele>2624.0</ele>
        <time>2015-06-06T17:19:20Z</time>
      </trkpt>
      <trkpt lat="39.981300" lon="-6.263083">
        <ele>2616.0</ele>
        <time>2015-06-06T17:19:22Z</time>
      </trkpt>
      <trkpt lat="39.981283" lon="-6.263383">
        <ele>2614.0</ele>
        <time>2015-06-06T17:19:24Z</time>
      </trkpt>
      <trkpt lat="39.981283" lon="-6.263650">
        <ele>2611.0</ele>
        <time>2015-06-06T17:19:26Z</time>
      </trkpt>
      <trkpt lat="39.981300" lon="-6.263950">
        <ele>2603.0</ele>
        <time>2015-06-06T17:19:28Z</time>
      </trkpt>
      <trkpt lat="39.981317" lon="-6.264283">
        <ele>2598.0</ele>
        <time>2015-06-06T17:19:30Z</time>
      </trkpt>
      <trkpt lat="39.981317" lon="-6.264583">
        <ele>2595.0</ele>
        <time>2015-06-06T17:19:32Z</time>
      </trkpt>
      <trkpt lat="39.981333" lon="-6.264867">
        <ele>2590.0</ele>
        <time>2015-06-06T17:19:34Z</time>
      </trkpt>
      <trkpt lat="39.981333" lon="-6.265183">
        <ele>2585.0</ele>
        <time>2015-06-06T17:19:36Z</time>
      </trkpt>
      <trkpt lat="39.981333" lon="-6.265500">
        <ele>2582.0</ele>
        <time>2015-06-06T17:19:38Z</time>
      </trkpt>
      <trkpt lat="39.981350" lon="-6.265800">
        <ele>2578.0</ele>
        <time>2015-06-06T17:19:40Z</time>
      </trkpt>
      <trkpt lat="39.981383" lon="-6.266133">
        <ele>2573.0</ele>
        <time>2015-06-06T17:19:42Z</time>
      </trkpt>
      <trkpt lat="39.981400" lon="-6.266417">
        <ele>2570.0</ele>
        <time>2015-06-06T17:19:44Z</time>
      </trkpt>
      <trkpt lat="39.981433" lon="-6.266700">
        <ele>2564.0</ele>
        <time>2015-06-06T17:19:46Z</time>
      </trkpt>
      <trkpt lat="39.981450" lon="-6.267017">
        <ele>2559.0</ele>
        <time>2015-06-06T17:19:48Z</time>
      </trkpt>
      <trkpt lat="39.981483" lon="-6.267333">
        <ele>2556.0</ele>
        <time>2015-06-06T17:19:50Z</time>
      </trkpt>
      <trkpt lat="39.981517" lon="-6.267650">
        <ele>2552.0</ele>
        <time>2015-06-06T17:19:52Z</time>
      </trkpt>
      <trkpt lat="39.981517" lon="-6.267967">
        <ele>2547.0</ele>
        <time>2015-06-06T17:19:54Z</time>
      </trkpt>
      <trkpt lat="39.981533" lon="-6.268283">
        <ele>2543.0</ele>
        <time>2015-06-06T17:19:56Z</time>
      </trkpt>
      <trkpt lat="39.981533" lon="-6.268600">
        <ele>2539.0</ele>
        <time>2015-06-06T17:19:58Z</time>
      </trkpt>
      <trkpt lat="39.981533" lon="-6.268917">
        <ele>2537.0</ele>
        <time>2015-06-06T17:20:00Z</time>
      </trkpt>
      <trkpt lat="39.981500" lon="-6.269217">
        <ele>2535.0</ele>
        <time>2015-06-06T17:20:02Z</time>
      </trkpt>
      <trkpt lat="39.981467" lon="-6.269533">
        <ele>2533.0</ele>
        <time>2015-06-06T17:20:04Z</time>
      </trkpt>
      <trkpt lat="39.981433" lon="-6.269833">
        <ele>2532.0</ele>
        <time>2015-06-06T17:20:06Z</time>
      </trkpt>
      <trkpt lat="39.981400" lon="-6.270100">
        <ele>2531.0</ele>
        <time>2015-06-06T17:20:08Z</time>
      </trkpt>
      <trkpt lat="39.981383" lon="-6.270383">
        <ele>2530.0</ele>
        <time>2015-06-06T17:20:10Z</time>
      </trkpt>
      <trkpt lat="39.981367" lon="-6.270667">
        <ele>2528.0</ele>
        <time>2015-06-06T17:20:12Z</time>
      </trkpt>
      <trkpt lat="39.981333" lon="-6.271000">
        <ele>2531.0</ele>
        <time>2015-06-06T17:20:14Z</time>
      </trkpt>
      <trkpt lat="39.981300" lon="-6.271300">
        <ele>2536.0</ele>
        <time>2015-06-06T17:20:16Z</time>
      </trkpt>
      <trkpt lat="39.981283" lon="-6.271567">
        <ele>2539.0</ele>
        <time>2015-06-06T17:20:18Z</time>
      </trkpt>
      <trkpt lat="39.981367" lon="-6.271833">
        <ele>2541.0</ele>
        <time>2015-06-06T17:20:20Z</time>
      </trkpt>
      <trkpt lat="39.981533" lon="-6.272000">
        <ele>2542.0</ele>
        <time>2015-06-06T17:20:22Z</time>
      </trkpt>
      <trkpt lat="39.981717" lon="-6.272033">
        <ele>2543.0</ele>
        <time>2015-06-06T17:20:24Z</time>
      </trkpt>
      <trkpt lat="39.981867" lon="-6.271983">
        <ele>2545.0</ele>
        <time>2015-06-06T17:20:26Z</time>
      </trkpt>
      <trkpt lat="39.981950" lon="-6.271850">
        <ele>2547.0</ele>
        <time>2015-06-06T17:20:28Z</time>
      </trkpt>
      <trkpt lat="39.981917" lon="-6.271683">
        <ele>2550.0</ele>
        <time>2015-06-06T17:20:30Z</time>
      </trkpt>
      <trkpt lat="39.981817" lon="-6.271567">
        <ele>2555.0</ele>
        <time>2015-06-06T17:20:32Z</time>
      </trkpt>
      <trkpt lat="39.981683" lon="-6.271550">
        <ele>2557.0</ele>
        <time>2015-06-06T17:20:34Z</time>
      </trkpt>
      <trkpt lat="39.981500" lon="-6.271633">
        <ele>2558.0</ele>
        <time>2015-06-06T17:20:36Z</time>
      </trkpt>
      <trkpt lat="39.981333" lon="-6.271817">
        <ele>2561.0</ele>
        <time>2015-06-06T17:20:38Z</time>
      </trkpt>
      <trkpt lat="39.981217" lon="-6.272017">
        <ele>2564.0</ele>
        <time>2015-06-06T17:20:40Z</time>
      </trkpt>
      <trkpt lat="39.981100" lon="-6.272250">
        <ele>2565.0</ele>
        <time>2015-06-06T17:20:42Z</time>
      </trkpt>
      <trkpt lat="39.981050" lon="-6.272567">
        <ele>2568.0</ele>
        <time>2015-06-06T17:20:44Z</time>
      </trkpt>
      <trkpt lat="39.981017" lon="-6.272833">
        <ele>2574.0</ele>
        <time>2015-06-06T17:20:46Z</time>
      </trkpt>
      <trkpt lat="39.980967" lon="-6.273067">
        <ele>2575.0</ele>
        <time>2015-06-06T17:20:48Z</time>
      </trkpt>
      <trkpt lat="39.980983" lon="-6.273367">
        <ele>2573.0</ele>
        <time>2015-06-06T17:20:50Z</time>
      </trkpt>
      <trkpt lat="39.981083" lon="-6.273650">
        <ele>2575.0</ele>
        <time>2015-06-06T17:20:52Z</time>
      </trkpt>
      <trkpt lat="39.981217" lon="-6.273833">
        <ele>2577.0</ele>
        <time>2015-06-06T17:20:54Z</time>
      </trkpt>
      <trkpt lat="39.981367" lon="-6.273950">
        <ele>2577.0</ele>
        <time>2015-06-06T17:20:56Z</time>
      </trkpt>
      <trkpt lat="39.981550" lon="-6.273983">
        <ele>2574.0</ele>
        <time>2015-06-06T17:20:58Z</time>
      </trkpt>
      <trkpt lat="39.981717" lon="-6.273883">
        <ele>2575.0</ele>
        <time>2015-06-06T17:21:00Z</time>
      </trkpt>
      <trkpt lat="39.981800" lon="-6.273750">
        <ele>2576.0</ele>
        <time>2015-06-06T17:21:02Z</time>
      </trkpt>
      <trkpt lat="39.981817" lon="-6.273567">
        <ele>2577.0</ele>
        <time>2015-06-06T17:21:04Z</time>
      </trkpt>
      <trkpt lat="39.981750" lon="-6.273383">
        <ele>2580.0</ele>
        <time>2015-06-06T17:21:06Z</time>
      </trkpt>
      <trkpt lat="39.981667" lon="-6.273283">
        <ele>2588.0</ele>
        <time>2015-06-06T17:21:08Z</time>
      </trkpt>
      <trkpt lat="39.981550" lon="-6.273233">
        <ele>2594.0</ele>
        <time>2015-06-06T17:21:10Z</time>
      </trkpt>
      <trkpt lat="39.981400" lon="-6.273300">
        <ele>2597.0</ele>
        <time>2015-06-06T17:21:12Z</time>
      </trkpt>
      <trkpt lat="39.981233" lon="-6.273517">
        <ele>2598.0</ele>
        <time>2015-06-06T17:21:14Z</time>
      </trkpt>
      <trkpt lat="39.981117" lon="-6.273767">
        <ele>2604.0</ele>
        <time>2015-06-06T17:21:16Z</time>
      </trkpt>
      <trkpt lat="39.981050" lon="-6.274033">
        <ele>2608.0</ele>
        <time>2015-06-06T17:21:18Z</time>
      </trkpt>
      <trkpt lat="39.981000" lon="-6.274350">
        <ele>2611.0</ele>
        <time>2015-06-06T17:21:20Z</time>
      </trkpt>
      <trkpt lat="39.980983" lon="-6.274667">
        <ele>2616.0</ele>
        <time>2015-06-06T17:21:22Z</time>
      </trkpt>
      <trkpt lat="39.981033" lon="-6.274900">
        <ele>2618.0</ele>
        <time>2015-06-06T17:21:24Z</time>
      </trkpt>
      <trkpt lat="39.981133" lon="-6.275133">
        <ele>2616.0</ele>
        <time>2015-06-06T17:21:26Z</time>
      </trkpt>
      <trkpt lat="39.981283" lon="-6.275300">
        <ele>2616.0</ele>
        <time>2015-06-06T17:21:28Z</time>
      </trkpt>
      <trkpt lat="39.981467" lon="-6.275367">
        <ele>2618.0</ele>
        <time>2015-06-06T17:21:30Z</time>
      </trkpt>
      <trkpt lat="39.981617" lon="-6.275300">
        <ele>2620.0</ele>
        <time>2015-06-06T17:21:32Z</time>
      </trkpt>
      <trkpt lat="39.981667" lon="-6.275167">
        <ele>2623.0</ele>
        <time>2015-06-06T17:21:34Z</time>
      </trkpt>
      <trkpt lat="39.981600" lon="-6.275017">
        <ele>2623.0</ele>
        <time>2015-06-06T17:21:36Z</time>
      </trkpt>
      <trkpt lat="39.981450" lon="-6.274933">
        <ele>2627.0</ele>
        <time>2015-06-06T17:21:38Z</time>
      </trkpt>
      <trkpt lat="39.981283" lon="-6.275000">
        <ele>2631.0</ele>
        <time>2015-06-06T17:21:40Z</time>
      </trkpt>
      <trkpt lat="39.981133" lon="-6.275183">
        <ele>2635.0</ele>
        <time>2015-06-06T17:21:42Z</time>
      </trkpt>
      <trkpt lat="39.981033" lon="-6.275417">
        <ele>2636.0</ele>
        <time>2015-06-06T17:21:44Z</time>
      </trkpt>
      <trkpt lat="39.981000" lon="-6.275717">
        <ele>2634.0</ele>
        <time>2015-06-06T17:21:46Z</time>
      </trkpt>
      <trkpt lat="39.981033" lon="-6.276033">
        <ele>2633.0</ele>
        <time>2015-06-06T17:21:48Z</time>
      </trkpt>
      <trkpt lat="39.981067" lon="-6.276367">
        <ele>2634.0</ele>
        <time>2015-06-06T17:21:50Z</time>
      </trkpt>
      <trkpt lat="39.981067" lon="-6.276700">
        <ele>2637.0</ele>
        <time>2015-06-06T17:21:52Z</time>
      </trkpt>
      <trkpt lat="39.981050" lon="-6.276983">
        <ele>2638.0</ele>
        <time>2015-06-06T17:21:54Z</time>
      </trkpt>
      <trkpt lat="39.981033" lon="-6.277283">
        <ele>2639.0</ele>
        <time>2015-06-06T17:21:56Z</time>
      </trkpt>
      <trkpt lat="39.980967" lon="-6.277650">
        <ele>2638.0</ele>
        <time>2015-06-06T17:21:58Z</time>
      </trkpt>
      <trkpt lat="39.980950" lon="-6.277967">
        <ele>2639.0</ele>
        <time>2015-06-06T17:22:00Z</time>
      </trkpt>
      <trkpt lat="39.980983" lon="-6.278250">
        <ele>2638.0</ele>
        <time>2015-06-06T17:22:02Z</time>
      </trkpt>
      <trkpt lat="39.981083" lon="-6.278533">
        <ele>2635.0</ele>
        <time>2015-06-06T17:22:04Z</time>
      </trkpt>
      <trkpt lat="39.981250" lon="-6.278717">
        <ele>2634.0</ele>
        <time>2015-06-06T17:22:06Z</time>
      </trkpt>
      <trkpt lat="39.981417" lon="-6.278800">
        <ele>2632.0</ele>
        <time>2015-06-06T17:22:08Z</time>
      </trkpt>
      <trkpt lat="39.981583" lon="-6.278767">
        <ele>2632.0</ele>
        <time>2015-06-06T17:22:10Z</time>
      </trkpt>
      <trkpt lat="39.981683" lon="-6.278667">
        <ele>2631.0</ele>
        <time>2015-06-06T17:22:12Z</time>
      </trkpt>
      <trkpt lat="39.981667" lon="-6.278483">
        <ele>2627.0</ele>
        <time>2015-06-06T17:22:14Z</time>
      </trkpt>
      <trkpt lat="39.981533" lon="-6.278350">
        <ele>2626.0</ele>
        <time>2015-06-06T17:22:16Z</time>
      </trkpt>
      <trkpt lat="39.981367" lon="-6.278300">
        <ele>2627.0</ele>
        <time>2015-06-06T17:22:18Z</time>
      </trkpt>
      <trkpt lat="39.981183" lon="-6.278333">
        <ele>2626.0</ele>
        <time>2015-06-06T17:22:20Z</time>
      </trkpt>
      <trkpt lat="39.980983" lon="-6.278417">
        <ele>2624.0</ele>
        <time>2015-06-06T17:22:22Z</time>
      </trkpt>
      <trkpt lat="39.980750" lon="-6.278483">
        <ele>2622.0</ele>
        <time>2015-06-06T17:22:24Z</time>
      </trkpt>
      <trkpt lat="39.980533" lon="-6.278550">
        <ele>2623.0</ele>
        <time>2015-06-06T17:22:26Z</time>
      </trkpt>
      <trkpt lat="39.980333" lon="-6.278633">
        <ele>2622.0</ele>
        <time>2015-06-06T17:22:28Z</time>
      </trkpt>
      <trkpt lat="39.980117" lon="-6.278683">
        <ele>2621.0</ele>
        <time>2015-06-06T17:22:30Z</time>
      </trkpt>
      <trkpt lat="39.979900" lon="-6.278717">
        <ele>2623.0</ele>
        <time>2015-06-06T17:22:32Z</time>
      </trkpt>
      <trkpt lat="39.979700" lon="-6.278783">
        <ele>2623.0</ele>
        <time>2015-06-06T17:22:34Z</time>
      </trkpt>
      <trkpt lat="39.979483" lon="-6.278833">
        <ele>2621.0</ele>
        <time>2015-06-06T17:22:36Z</time>
      </trkpt>
      <trkpt lat="39.979267" lon="-6.278917">
        <ele>2621.0</ele>
        <time>2015-06-06T17:22:38Z</time>
      </trkpt>
      <trkpt lat="39.979067" lon="-6.279033">
        <ele>2623.0</ele>
        <time>2015-06-06T17:22:40Z</time>
      </trkpt>
      <trkpt lat="39.978900" lon="-6.279233">
        <ele>2623.0</ele>
        <time>2015-06-06T17:22:42Z</time>
      </trkpt>
      <trkpt lat="39.978800" lon="-6.279517">
        <ele>2619.0</ele>
        <time>2015-06-06T17:22:44Z</time>
      </trkpt>
      <trkpt lat="39.978667" lon="-6.279833">
        <ele>2619.0</ele>
        <time>2015-06-06T17:22:46Z</time>
      </trkpt>
      <trkpt lat="39.978517" lon="-6.280083">
        <ele>2619.0</ele>
        <time>2015-06-06T17:22:48Z</time>
      </trkpt>
      <trkpt lat="39.978350" lon="-6.280333">
        <ele>2619.0</ele>
        <time>2015-06-06T17:22:50Z</time>
      </trkpt>
      <trkpt lat="39.978217" lon="-6.280617">
        <ele>2618.0</ele>
        <time>2015-06-06T17:22:52Z</time>
      </trkpt>
      <trkpt lat="39.978083" lon="-6.280917">
        <ele>2618.0</ele>
        <time>2015-06-06T17:22:54Z</time>
      </trkpt>
      <trkpt lat="39.977967" lon="-6.281183">
        <ele>2618.0</ele>
        <time>2015-06-06T17:22:56Z</time>
      </trkpt>
      <trkpt lat="39.977867" lon="-6.281483">
        <ele>2617.0</ele>
        <time>2015-06-06T17:22:58Z</time>
      </trkpt>
      <trkpt lat="39.977783" lon="-6.281783">
        <ele>2616.0</ele>
        <time>2015-06-06T17:23:00Z</time>
      </trkpt>
      <trkpt lat="39.977700" lon="-6.282083">
        <ele>2615.0</ele>
        <time>2015-06-06T17:23:02Z</time>
      </trkpt>
      <trkpt lat="39.977600" lon="-6.282367">
        <ele>2614.0</ele>
        <time>2015-06-06T17:23:04Z</time>
      </trkpt>
      <trkpt lat="39.977533" lon="-6.282667">
        <ele>2613.0</ele>
        <time>2015-06-06T17:23:06Z</time>
      </trkpt>
      <trkpt lat="39.977500" lon="-6.282983">
        <ele>2611.0</ele>
        <time>2015-06-06T17:23:08Z</time>
      </trkpt>
      <trkpt lat="39.977450" lon="-6.283317">
        <ele>2609.0</ele>
        <time>2015-06-06T17:23:10Z</time>
      </trkpt>
      <trkpt lat="39.977383" lon="-6.283650">
        <ele>2606.0</ele>
        <time>2015-06-06T17:23:12Z</time>
      </trkpt>
      <trkpt lat="39.977133" lon="-6.284567">
        <ele>2599.0</ele>
        <time>2015-06-06T17:23:18Z</time>
      </trkpt>
      <trkpt lat="39.977000" lon="-6.284833">
        <ele>2601.0</ele>
        <time>2015-06-06T17:23:20Z</time>
      </trkpt>
      <trkpt lat="39.976917" lon="-6.285150">
        <ele>2602.0</ele>
        <time>2015-06-06T17:23:22Z</time>
      </trkpt>
      <trkpt lat="39.976900" lon="-6.285467">
        <ele>2603.0</ele>
        <time>2015-06-06T17:23:24Z</time>
      </trkpt>
      <trkpt lat="39.976883" lon="-6.285767">
        <ele>2604.0</ele>
        <time>2015-06-06T17:23:26Z</time>
      </trkpt>
      <trkpt lat="39.976883" lon="-6.286100">
        <ele>2604.0</ele>
        <time>2015-06-06T17:23:28Z</time>
      </trkpt>
      <trkpt lat="39.976850" lon="-6.286417">
        <ele>2604.0</ele>
        <time>2015-06-06T17:23:30Z</time>
      </trkpt>
      <trkpt lat="39.976800" lon="-6.286733">
        <ele>2603.0</ele>
        <time>2015-06-06T17:23:32Z</time>
      </trkpt>
      <trkpt lat="39.976750" lon="-6.287050">
        <ele>2601.0</ele>
        <time>2015-06-06T17:23:34Z</time>
      </trkpt>
      <trkpt lat="39.976617" lon="-6.287883">
        <ele>2598.0</ele>
        <time>2015-06-06T17:23:39Z</time>
      </trkpt>
      <trkpt lat="39.976600" lon="-6.288250">
        <ele>2599.0</ele>
        <time>2015-06-06T17:23:41Z</time>
      </trkpt>
      <trkpt lat="39.976600" lon="-6.288567">
        <ele>2600.0</ele>
        <time>2015-06-06T17:23:43Z</time>
      </trkpt>
      <trkpt lat="39.976583" lon="-6.288900">
        <ele>2598.0</ele>
        <time>2015-06-06T17:23:45Z</time>
      </trkpt>
      <trkpt lat="39.976550" lon="-6.289267">
        <ele>2597.0</ele>
        <time>2015-06-06T17:23:47Z</time>
      </trkpt>
      <trkpt lat="39.976500" lon="-6.289600">
        <ele>2598.0</ele>
        <time>2015-06-06T17:23:49Z</time>
      </trkpt>
      <trkpt lat="39.976467" lon="-6.289950">
        <ele>2596.0</ele>
        <time>2015-06-06T17:23:51Z</time>
      </trkpt>
      <trkpt lat="39.976400" lon="-6.290300">
        <ele>2594.0</ele>
        <time>2015-06-06T17:23:53Z</time>
      </trkpt>
      <trkpt lat="39.976300" lon="-6.290650">
        <ele>2594.0</ele>
        <time>2015-06-06T17:23:55Z</time>
      </trkpt>
      <trkpt lat="39.976233" lon="-6.290967">
        <ele>2595.0</ele>
        <time>2015-06-06T17:23:57Z</time>
      </trkpt>
      <trkpt lat="39.976150" lon="-6.291283">
        <ele>2593.0</ele>
        <time>2015-06-06T17:23:59Z</time>
      </trkpt>
      <trkpt lat="39.976067" lon="-6.291633">
        <ele>2591.0</ele>
        <time>2015-06-06T17:24:01Z</time>
      </trkpt>
      <trkpt lat="39.976033" lon="-6.291967">
        <ele>2595.0</ele>
        <time>2015-06-06T17:24:03Z</time>
      </trkpt>
      <trkpt lat="39.975983" lon="-6.292267">
        <ele>2595.0</ele>
        <time>2015-06-06T17:24:05Z</time>
      </trkpt>
      <trkpt lat="39.975933" lon="-6.292617">
        <ele>2591.0</ele>
        <time>2015-06-06T17:24:07Z</time>
      </trkpt>
      <trkpt lat="39.975900" lon="-6.293000">
        <ele>2590.0</ele>
        <time>2015-06-06T17:24:09Z</time>
      </trkpt>
      <trkpt lat="39.975850" lon="-6.293367">
        <ele>2591.0</ele>
        <time>2015-06-06T17:24:11Z</time>
      </trkpt>
      <trkpt lat="39.975783" lon="-6.293700">
        <ele>2590.0</ele>
        <time>2015-06-06T17:24:13Z</time>
      </trkpt>
      <trkpt lat="39.975750" lon="-6.294050">
        <ele>2589.0</ele>
        <time>2015-06-06T17:24:15Z</time>
      </trkpt>
      <trkpt lat="39.975717" lon="-6.294417">
        <ele>2588.0</ele>
        <time>2015-06-06T17:24:17Z</time>
      </trkpt>
      <trkpt lat="39.975700" lon="-6.294767">
        <ele>2588.0</ele>
        <time>2015-06-06T17:24:19Z</time>
      </trkpt>
      <trkpt lat="39.975667" lon="-6.295150">
        <ele>2585.0</ele>
        <time>2015-06-06T17:24:21Z</time>
      </trkpt>
      <trkpt lat="39.975600" lon="-6.295533">
        <ele>2583.0</ele>
        <time>2015-06-06T17:24:23Z</time>
      </trkpt>
      <trkpt lat="39.975500" lon="-6.295900">
        <ele>2584.0</ele>
        <time>2015-06-06T17:24:25Z</time>
      </trkpt>
      <trkpt lat="39.975400" lon="-6.296233">
        <ele>2584.0</ele>
        <time>2015-06-06T17:24:27Z</time>
      </trkpt>
      <trkpt lat="39.975317" lon="-6.296583">
        <ele>2583.0</ele>
        <time>2015-06-06T17:24:29Z</time>
      </trkpt>
      <trkpt lat="39.975267" lon="-6.296950">
        <ele>2582.0</ele>
        <time>2015-06-06T17:24:31Z</time>
      </trkpt>
      <trkpt lat="39.975250" lon="-6.297333">
        <ele>2580.0</ele>
        <time>2015-06-06T17:24:33Z</time>
      </trkpt>
      <trkpt lat="39.975217" lon="-6.297717">
        <ele>2580.0</ele>
        <time>2015-06-06T17:24:35Z</time>
      </trkpt>
      <trkpt lat="39.975167" lon="-6.298067">
        <ele>2580.0</ele>
        <time>2015-06-06T17:24:37Z</time>
      </trkpt>
      <trkpt lat="39.975117" lon="-6.298417">
        <ele>2578.0</ele>
        <time>2015-06-06T17:24:39Z</time>
      </trkpt>
      <trkpt lat="39.975067" lon="-6.298800">
        <ele>2577.0</ele>
        <time>2015-06-06T17:24:41Z</time>
      </trkpt>
      <trkpt lat="39.975000" lon="-6.299150">
        <ele>2577.0</ele>
        <time>2015-06-06T17:24:43Z</time>
      </trkpt>
      <trkpt lat="39.974950" lon="-6.299483">
        <ele>2575.0</ele>
        <time>2015-06-06T17:24:45Z</time>
      </trkpt>
      <trkpt lat="39.974900" lon="-6.299850">
        <ele>2572.0</ele>
        <time>2015-06-06T17:24:47Z</time>
      </trkpt>
      <trkpt lat="39.974833" lon="-6.300233">
        <ele>2571.0</ele>
        <time>2015-06-06T17:24:49Z</time>
      </trkpt>
      <trkpt lat="39.974800" lon="-6.300583">
        <ele>2571.0</ele>
        <time>2015-06-06T17:24:51Z</time>
      </trkpt>
      <trkpt lat="39.974800" lon="-6.300933">
        <ele>2569.0</ele>
        <time>2015-06-06T17:24:53Z</time>
      </trkpt>
      <trkpt lat="39.974767" lon="-6.301333">
        <ele>2566.0</ele>
        <time>2015-06-06T17:24:55Z</time>
      </trkpt>
      <trkpt lat="39.974733" lon="-6.301717">
        <ele>2566.0</ele>
        <time>2015-06-06T17:24:57Z</time>
      </trkpt>
      <trkpt lat="39.974683" lon="-6.302067">
        <ele>2565.0</ele>
        <time>2015-06-06T17:24:59Z</time>
      </trkpt>
      <trkpt lat="39.974633" lon="-6.302450">
        <ele>2562.0</ele>
        <time>2015-06-06T17:25:01Z</time>
      </trkpt>
      <trkpt lat="39.974600" lon="-6.302833">
        <ele>2560.0</ele>
        <time>2015-06-06T17:25:03Z</time>
      </trkpt>
      <trkpt lat="39.974583" lon="-6.303217">
        <ele>2559.0</ele>
        <time>2015-06-06T17:25:05Z</time>
      </trkpt>
      <trkpt lat="39.974550" lon="-6.303617">
        <ele>2558.0</ele>
        <time>2015-06-06T17:25:07Z</time>
      </trkpt>
      <trkpt lat="39.974533" lon="-6.303983">
        <ele>2557.0</ele>
        <time>2015-06-06T17:25:09Z</time>
      </trkpt>
      <trkpt lat="39.974517" lon="-6.304367">
        <ele>2556.0</ele>
        <time>2015-06-06T17:25:11Z</time>
      </trkpt>
      <trkpt lat="39.974433" lon="-6.304733">
        <ele>2555.0</ele>
        <time>2015-06-06T17:25:13Z</time>
      </trkpt>
      <trkpt lat="39.974383" lon="-6.305083">
        <ele>2556.0</ele>
        <time>2015-06-06T17:25:15Z</time>
      </trkpt>
      <trkpt lat="39.974367" lon="-6.305450">
        <ele>2554.0</ele>
        <time>2015-06-06T17:25:17Z</time>
      </trkpt>
      <trkpt lat="39.974350" lon="-6.305833">
        <ele>2552.0</ele>
        <time>2015-06-06T17:25:19Z</time>
      </trkpt>
      <trkpt lat="39.974350" lon="-6.306217">
        <ele>2551.0</ele>
        <time>2015-06-06T17:25:21Z</time>
      </trkpt>
      <trkpt lat="39.974350" lon="-6.306600">
        <ele>2549.0</ele>
        <time>2015-06-06T17:25:23Z</time>
      </trkpt>
      <trkpt lat="39.974333" lon="-6.307000">
        <ele>2548.0</ele>
        <time>2015-06-06T17:25:25Z</time>
      </trkpt>
      <trkpt lat="39.974333" lon="-6.307383">
        <ele>2549.0</ele>
        <time>2015-06-06T17:25:27Z</time>
      </trkpt>
      <trkpt lat="39.974333" lon="-6.307767">
        <ele>2547.0</ele>
        <time>2015-06-06T17:25:29Z</time>
      </trkpt>
      <trkpt lat="39.974333" lon="-6.308167">
        <ele>2545.0</ele>
        <time>2015-06-06T17:25:31Z</time>
      </trkpt>
      <trkpt lat="39.974333" lon="-6.308567">
        <ele>2546.0</ele>
        <time>2015-06-06T17:25:33Z</time>
      </trkpt>
      <trkpt lat="39.974367" lon="-6.308933">
        <ele>2547.0</ele>
        <time>2015-06-06T17:25:35Z</time>
      </trkpt>
      <trkpt lat="39.974433" lon="-6.309300">
        <ele>2546.0</ele>
        <time>2015-06-06T17:25:37Z</time>
      </trkpt>
      <trkpt lat="39.974533" lon="-6.309683">
        <ele>2547.0</ele>
        <time>2015-06-06T17:25:39Z</time>
      </trkpt>
      <trkpt lat="39.974617" lon="-6.310050">
        <ele>2547.0</ele>
        <time>2015-06-06T17:25:41Z</time>
      </trkpt>
      <trkpt lat="39.974650" lon="-6.310483">
        <ele>2545.0</ele>
        <time>2015-06-06T17:25:43Z</time>
      </trkpt>
      <trkpt lat="39.974683" lon="-6.310900">
        <ele>2545.0</ele>
        <time>2015-06-06T17:25:45Z</time>
      </trkpt>
      <trkpt lat="39.974717" lon="-6.311283">
        <ele>2547.0</ele>
        <time>2015-06-06T17:25:47Z</time>
      </trkpt>
      <trkpt lat="39.974767" lon="-6.311650">
        <ele>2547.0</ele>
        <time>2015-06-06T17:25:49Z</time>
      </trkpt>
      <trkpt lat="39.974900" lon="-6.312033">
        <ele>2544.0</ele>
        <time>2015-06-06T17:25:51Z</time>
      </trkpt>
      <trkpt lat="39.975000" lon="-6.312433">
        <ele>2544.0</ele>
        <time>2015-06-06T17:25:53Z</time>
      </trkpt>
      <trkpt lat="39.975033" lon="-6.312833">
        <ele>2543.0</ele>
        <time>2015-06-06T17:25:55Z</time>
      </trkpt>
      <trkpt lat="39.975083" lon="-6.313217">
        <ele>2545.0</ele>
        <time>2015-06-06T17:25:57Z</time>
      </trkpt>
      <trkpt lat="39.975117" lon="-6.313567">
        <ele>2546.0</ele>
        <time>2015-06-06T17:25:59Z</time>
      </trkpt>
      <trkpt lat="39.975083" lon="-6.313900">
        <ele>2544.0</ele>
        <time>2015-06-06T17:26:01Z</time>
      </trkpt>
      <trkpt lat="39.975050" lon="-6.314267">
        <ele>2543.0</ele>
        <time>2015-06-06T17:26:03Z</time>
      </trkpt>
      <trkpt lat="39.975033" lon="-6.314617">
        <ele>2543.0</ele>
        <time>2015-06-06T17:26:05Z</time>
      </trkpt>
      <trkpt lat="39.975000" lon="-6.314950">
        <ele>2543.0</ele>
        <time>2015-06-06T17:26:07Z</time>
      </trkpt>
      <trkpt lat="39.974967" lon="-6.315267">
        <ele>2542.0</ele>
        <time>2015-06-06T17:26:09Z</time>
      </trkpt>
      <trkpt lat="39.974983" lon="-6.315633">
        <ele>2540.0</ele>
        <time>2015-06-06T17:26:11Z</time>
      </trkpt>
      <trkpt lat="39.974983" lon="-6.315983">
        <ele>2537.0</ele>
        <time>2015-06-06T17:26:13Z</time>
      </trkpt>
      <trkpt lat="39.974983" lon="-6.316350">
        <ele>2535.0</ele>
        <time>2015-06-06T17:26:15Z</time>
      </trkpt>
      <trkpt lat="39.974967" lon="-6.316717">
        <ele>2532.0</ele>
        <time>2015-06-06T17:26:17Z</time>
      </trkpt>
      <trkpt lat="39.974950" lon="-6.317067">
        <ele>2533.0</ele>
        <time>2015-06-06T17:26:19Z</time>
      </trkpt>
      <trkpt lat="39.974983" lon="-6.317367">
        <ele>2538.0</ele>
        <time>2015-06-06T17:26:21Z</time>
      </trkpt>
      <trkpt lat="39.975050" lon="-6.317617">
        <ele>2539.0</ele>
        <time>2015-06-06T17:26:23Z</time>
      </trkpt>
      <trkpt lat="39.975150" lon="-6.317883">
        <ele>2539.0</ele>
        <time>2015-06-06T17:26:25Z</time>
      </trkpt>
      <trkpt lat="39.975333" lon="-6.318100">
        <ele>2539.0</ele>
        <time>2015-06-06T17:26:27Z</time>
      </trkpt>
      <trkpt lat="39.975550" lon="-6.318183">
        <ele>2538.0</ele>
        <time>2015-06-06T17:26:29Z</time>
      </trkpt>
      <trkpt lat="39.975767" lon="-6.318250">
        <ele>2542.0</ele>
        <time>2015-06-06T17:26:31Z</time>
      </trkpt>
      <trkpt lat="39.975917" lon="-6.318233">
        <ele>2543.0</ele>
        <time>2015-06-06T17:26:33Z</time>
      </trkpt>
      <trkpt lat="39.975983" lon="-6.318133">
        <ele>2541.0</ele>
        <time>2015-06-06T17:26:35Z</time>
      </trkpt>
      <trkpt lat="39.975983" lon="-6.318033">
        <ele>2542.0</ele>
        <time>2015-06-06T17:26:37Z</time>
      </trkpt>
      <trkpt lat="39.975917" lon="-6.318017">
        <ele>2542.0</ele>
        <time>2015-06-06T17:26:39Z</time>
      </trkpt>
      <trkpt lat="39.975800" lon="-6.318050">
        <ele>2539.0</ele>
        <time>2015-06-06T17:26:41Z</time>
      </trkpt>
      <trkpt lat="39.975633" lon="-6.318167">
        <ele>2536.0</ele>
        <time>2015-06-06T17:26:43Z</time>
      </trkpt>
      <trkpt lat="39.975483" lon="-6.318350">
        <ele>2536.0</ele>
        <time>2015-06-06T17:26:45Z</time>
      </trkpt>
      <trkpt lat="39.975400" lon="-6.318617">
        <ele>2539.0</ele>
        <time>2015-06-06T17:26:47Z</time>
      </trkpt>
      <trkpt lat="39.975350" lon="-6.318867">
        <ele>2541.0</ele>
        <time>2015-06-06T17:26:49Z</time>
      </trkpt>
      <trkpt lat="39.975333" lon="-6.319133">
        <ele>2539.0</ele>
        <time>2015-06-06T17:26:51Z</time>
      </trkpt>
      <trkpt lat="39.975367" lon="-6.319433">
        <ele>2536.0</ele>
        <time>2015-06-06T17:26:53Z</time>
      </trkpt>
      <trkpt lat="39.975350" lon="-6.319750">
        <ele>2537.0</ele>
        <time>2015-06-06T17:26:55Z</time>
      </trkpt>
      <trkpt lat="39.975317" lon="-6.320017">
        <ele>2537.0</ele>
        <time>2015-06-06T17:26:57Z</time>
      </trkpt>
      <trkpt lat="39.975317" lon="-6.320317">
        <ele>2534.0</ele>
        <time>2015-06-06T17:26:59Z</time>
      </trkpt>
      <trkpt lat="39.975300" lon="-6.320650">
        <ele>2535.0</ele>
        <time>2015-06-06T17:27:01Z</time>
      </trkpt>
      <trkpt lat="39.975267" lon="-6.320967">
        <ele>2539.0</ele>
        <time>2015-06-06T17:27:03Z</time>
      </trkpt>
      <trkpt lat="39.975283" lon="-6.321233">
        <ele>2541.0</ele>
        <time>2015-06-06T17:27:05Z</time>
      </trkpt>
      <trkpt lat="39.975367" lon="-6.321533">
        <ele>2541.0</ele>
        <time>2015-06-06T17:27:07Z</time>
      </trkpt>
      <trkpt lat="39.975517" lon="-6.321800">
        <ele>2542.0</ele>
        <time>2015-06-06T17:27:09Z</time>
      </trkpt>
      <trkpt lat="39.975683" lon="-6.322017">
        <ele>2546.0</ele>
        <time>2015-06-06T17:27:11Z</time>
      </trkpt>
      <trkpt lat="39.975883" lon="-6.322183">
        <ele>2546.0</ele>
        <time>2015-06-06T17:27:13Z</time>
      </trkpt>
      <trkpt lat="39.976133" lon="-6.322267">
        <ele>2545.0</ele>
        <time>2015-06-06T17:27:15Z</time>
      </trkpt>
      <trkpt lat="39.976367" lon="-6.322217">
        <ele>2546.0</ele>
        <time>2015-06-06T17:27:17Z</time>
      </trkpt>
      <trkpt lat="39.976517" lon="-6.322133">
        <ele>2547.0</ele>
        <time>2015-06-06T17:27:19Z</time>
      </trkpt>
      <trkpt lat="39.976633" lon="-6.322000">
        <ele>2542.0</ele>
        <time>2015-06-06T17:27:21Z</time>
      </trkpt>
      <trkpt lat="39.976667" lon="-6.321817">
        <ele>2537.0</ele>
        <time>2015-06-06T17:27:23Z</time>
      </trkpt>
      <trkpt lat="39.976617" lon="-6.321650">
        <ele>2534.0</ele>
        <time>2015-06-06T17:27:25Z</time>
      </trkpt>
      <trkpt lat="39.976483" lon="-6.321583">
        <ele>2531.0</ele>
        <time>2015-06-06T17:27:27Z</time>
      </trkpt>
      <trkpt lat="39.976333" lon="-6.321583">
        <ele>2530.0</ele>
        <time>2015-06-06T17:27:29Z</time>
      </trkpt>
      <trkpt lat="39.976200" lon="-6.321667">
        <ele>2528.0</ele>
        <time>2015-06-06T17:27:31Z</time>
      </trkpt>
      <trkpt lat="39.976050" lon="-6.321850">
        <ele>2524.0</ele>
        <time>2015-06-06T17:27:33Z</time>
      </trkpt>
      <trkpt lat="39.975900" lon="-6.322117">
        <ele>2523.0</ele>
        <time>2015-06-06T17:27:35Z</time>
      </trkpt>
      <trkpt lat="39.975783" lon="-6.322367">
        <ele>2528.0</ele>
        <time>2015-06-06T17:27:37Z</time>
      </trkpt>
      <trkpt lat="39.975717" lon="-6.322600">
        <ele>2529.0</ele>
        <time>2015-06-06T17:27:39Z</time>
      </trkpt>
      <trkpt lat="39.975667" lon="-6.322900">
        <ele>2527.0</ele>
        <time>2015-06-06T17:27:41Z</time>
      </trkpt>
      <trkpt lat="39.975633" lon="-6.323217">
        <ele>2530.0</ele>
        <time>2015-06-06T17:27:43Z</time>
      </trkpt>
      <trkpt lat="39.975633" lon="-6.323500">
        <ele>2531.0</ele>
        <time>2015-06-06T17:27:45Z</time>
      </trkpt>
      <trkpt lat="39.975617" lon="-6.323800">
        <ele>2531.0</ele>
        <time>2015-06-06T17:27:47Z</time>
      </trkpt>
      <trkpt lat="39.975617" lon="-6.324117">
        <ele>2532.0</ele>
        <time>2015-06-06T17:27:49Z</time>
      </trkpt>
      <trkpt lat="39.975583" lon="-6.324417">
        <ele>2532.0</ele>
        <time>2015-06-06T17:27:51Z</time>
      </trkpt>
      <trkpt lat="39.975583" lon="-6.324733">
        <ele>2533.0</ele>
        <time>2015-06-06T17:27:53Z</time>
      </trkpt>
      <trkpt lat="39.975633" lon="-6.325050">
        <ele>2532.0</ele>
        <time>2015-06-06T17:27:55Z</time>
      </trkpt>
      <trkpt lat="39.975683" lon="-6.325383">
        <ele>2531.0</ele>
        <time>2015-06-06T17:27:57Z</time>
      </trkpt>
      <trkpt lat="39.975717" lon="-6.325717">
        <ele>2529.0</ele>
        <time>2015-06-06T17:27:59Z</time>
      </trkpt>
      <trkpt lat="39.975750" lon="-6.326067">
        <ele>2528.0</ele>
        <time>2015-06-06T17:28:01Z</time>
      </trkpt>
      <trkpt lat="39.975800" lon="-6.326400">
        <ele>2526.0</ele>
        <time>2015-06-06T17:28:03Z</time>
      </trkpt>
      <trkpt lat="39.975783" lon="-6.326733">
        <ele>2522.0</ele>
        <time>2015-06-06T17:28:05Z</time>
      </trkpt>
      <trkpt lat="39.975733" lon="-6.327067">
        <ele>2518.0</ele>
        <time>2015-06-06T17:28:07Z</time>
      </trkpt>
      <trkpt lat="39.975683" lon="-6.327383">
        <ele>2515.0</ele>
        <time>2015-06-06T17:28:09Z</time>
      </trkpt>
      <trkpt lat="39.975667" lon="-6.327700">
        <ele>2513.0</ele>
        <time>2015-06-06T17:28:11Z</time>
      </trkpt>
      <trkpt lat="39.975683" lon="-6.328017">
        <ele>2510.0</ele>
        <time>2015-06-06T17:28:13Z</time>
      </trkpt>
      <trkpt lat="39.975683" lon="-6.328333">
        <ele>2508.0</ele>
        <time>2015-06-06T17:28:15Z</time>
      </trkpt>
      <trkpt lat="39.975683" lon="-6.328667">
        <ele>2504.0</ele>
        <time>2015-06-06T17:28:17Z</time>
      </trkpt>
      <trkpt lat="39.975683" lon="-6.329017">
        <ele>2501.0</ele>
        <time>2015-06-06T17:28:19Z</time>
      </trkpt>
      <trkpt lat="39.975700" lon="-6.329367">
        <ele>2500.0</ele>
        <time>2015-06-06T17:28:21Z</time>
      </trkpt>
      <trkpt lat="39.975717" lon="-6.329683">
        <ele>2500.0</ele>
        <time>2015-06-06T17:28:23Z</time>
      </trkpt>
      <trkpt lat="39.975733" lon="-6.330017">
        <ele>2499.0</ele>
        <time>2015-06-06T17:28:25Z</time>
      </trkpt>
      <trkpt lat="39.975767" lon="-6.330350">
        <ele>2498.0</ele>
        <time>2015-06-06T17:28:27Z</time>
      </trkpt>
      <trkpt lat="39.975817" lon="-6.330683">
        <ele>2497.0</ele>
        <time>2015-06-06T17:28:29Z</time>
      </trkpt>
      <trkpt lat="39.975850" lon="-6.331017">
        <ele>2495.0</ele>
        <time>2015-06-06T17:28:31Z</time>
      </trkpt>
      <trkpt lat="39.975867" lon="-6.331367">
        <ele>2493.0</ele>
        <time>2015-06-06T17:28:33Z</time>
      </trkpt>
      <trkpt lat="39.975867" lon="-6.331700">
        <ele>2491.0</ele>
        <time>2015-06-06T17:28:35Z</time>
      </trkpt>
      <trkpt lat="39.975883" lon="-6.332033">
        <ele>2489.0</ele>
        <time>2015-06-06T17:28:37Z</time>
      </trkpt>
      <trkpt lat="39.975867" lon="-6.332350">
        <ele>2486.0</ele>
        <time>2015-06-06T17:28:39Z</time>
      </trkpt>
      <trkpt lat="39.975867" lon="-6.332683">
        <ele>2482.0</ele>
        <time>2015-06-06T17:28:41Z</time>
      </trkpt>
      <trkpt lat="39.975867" lon="-6.333033">
        <ele>2478.0</ele>
        <time>2015-06-06T17:28:43Z</time>
      </trkpt>
      <trkpt lat="39.975883" lon="-6.333367">
        <ele>2475.0</ele>
        <time>2015-06-06T17:28:45Z</time>
      </trkpt>
      <trkpt lat="39.975900" lon="-6.333700">
        <ele>2470.0</ele>
        <time>2015-06-06T17:28:47Z</time>
      </trkpt>
      <trkpt lat="39.975917" lon="-6.334033">
        <ele>2466.0</ele>
        <time>2015-06-06T17:28:49Z</time>
      </trkpt>
      <trkpt lat="39.975967" lon="-6.334383">
        <ele>2462.0</ele>
        <time>2015-06-06T17:28:51Z</time>
      </trkpt>
      <trkpt lat="39.976000" lon="-6.334717">
        <ele>2459.0</ele>
        <time>2015-06-06T17:28:53Z</time>
      </trkpt>
      <trkpt lat="39.976033" lon="-6.335067">
        <ele>2454.0</ele>
        <time>2015-06-06T17:28:55Z</time>
      </trkpt>
      <trkpt lat="39.976067" lon="-6.335433">
        <ele>2451.0</ele>
        <time>2015-06-06T17:28:57Z</time>
      </trkpt>
      <trkpt lat="39.976083" lon="-6.335783">
        <ele>2449.0</ele>
        <time>2015-06-06T17:28:59Z</time>
      </trkpt>
      <trkpt lat="39.976100" lon="-6.336133">
        <ele>2445.0</ele>
        <time>2015-06-06T17:29:01Z</time>
      </trkpt>
      <trkpt lat="39.976117" lon="-6.336483">
        <ele>2441.0</ele>
        <time>2015-06-06T17:29:03Z</time>
      </trkpt>
      <trkpt lat="39.976133" lon="-6.336817">
        <ele>2436.0</ele>
        <time>2015-06-06T17:29:05Z</time>
      </trkpt>
      <trkpt lat="39.976150" lon="-6.337167">
        <ele>2431.0</ele>
        <time>2015-06-06T17:29:07Z</time>
      </trkpt>
      <trkpt lat="39.976167" lon="-6.337533">
        <ele>2427.0</ele>
        <time>2015-06-06T17:29:09Z</time>
      </trkpt>
      <trkpt lat="39.976183" lon="-6.337883">
        <ele>2423.0</ele>
        <time>2015-06-06T17:29:11Z</time>
      </trkpt>
      <trkpt lat="39.976183" lon="-6.338217">
        <ele>2418.0</ele>
        <time>2015-06-06T17:29:13Z</time>
      </trkpt>
      <trkpt lat="39.976200" lon="-6.338583">
        <ele>2412.0</ele>
        <time>2015-06-06T17:29:15Z</time>
      </trkpt>
      <trkpt lat="39.976233" lon="-6.338950">
        <ele>2407.0</ele>
        <time>2015-06-06T17:29:17Z</time>
      </trkpt>
      <trkpt lat="39.976250" lon="-6.339317">
        <ele>2402.0</ele>
        <time>2015-06-06T17:29:19Z</time>
      </trkpt>
      <trkpt lat="39.976267" lon="-6.339683">
        <ele>2397.0</ele>
        <time>2015-06-06T17:29:21Z</time>
      </trkpt>
      <trkpt lat="39.976300" lon="-6.340050">
        <ele>2391.0</ele>
        <time>2015-06-06T17:29:23Z</time>
      </trkpt>
      <trkpt lat="39.976317" lon="-6.340417">
        <ele>2386.0</ele>
        <time>2015-06-06T17:29:25Z</time>
      </trkpt>
      <trkpt lat="39.976333" lon="-6.340767">
        <ele>2381.0</ele>
        <time>2015-06-06T17:29:27Z</time>
      </trkpt>
      <trkpt lat="39.976383" lon="-6.341117">
        <ele>2378.0</ele>
        <time>2015-06-06T17:29:29Z</time>
      </trkpt>
      <trkpt lat="39.976433" lon="-6.341467">
        <ele>2375.0</ele>
        <time>2015-06-06T17:29:31Z</time>
      </trkpt>
      <trkpt lat="39.976433" lon="-6.341817">
        <ele>2370.0</ele>
        <time>2015-06-06T17:29:33Z</time>
      </trkpt>
      <trkpt lat="39.976433" lon="-6.342150">
        <ele>2367.0</ele>
        <time>2015-06-06T17:29:35Z</time>
      </trkpt>
      <trkpt lat="39.976483" lon="-6.342450">
        <ele>2363.0</ele>
        <time>2015-06-06T17:29:37Z</time>
      </trkpt>
      <trkpt lat="39.976533" lon="-6.342800">
        <ele>2356.0</ele>
        <time>2015-06-06T17:29:39Z</time>
      </trkpt>
      <trkpt lat="39.976600" lon="-6.343183">
        <ele>2352.0</ele>
        <time>2015-06-06T17:29:41Z</time>
      </trkpt>
      <trkpt lat="39.976617" lon="-6.343533">
        <ele>2353.0</ele>
        <time>2015-06-06T17:29:43Z</time>
      </trkpt>
      <trkpt lat="39.976617" lon="-6.343850">
        <ele>2352.0</ele>
        <time>2015-06-06T17:29:45Z</time>
      </trkpt>
      <trkpt lat="39.976633" lon="-6.344200">
        <ele>2350.0</ele>
        <time>2015-06-06T17:29:47Z</time>
      </trkpt>
      <trkpt lat="39.976617" lon="-6.344533">
        <ele>2348.0</ele>
        <time>2015-06-06T17:29:49Z</time>
      </trkpt>
      <trkpt lat="39.976633" lon="-6.344867">
        <ele>2347.0</ele>
        <time>2015-06-06T17:29:51Z</time>
      </trkpt>
      <trkpt lat="39.976650" lon="-6.345183">
        <ele>2343.0</ele>
        <time>2015-06-06T17:29:53Z</time>
      </trkpt>
      <trkpt lat="39.976667" lon="-6.345500">
        <ele>2337.0</ele>
        <time>2015-06-06T17:29:55Z</time>
      </trkpt>
      <trkpt lat="39.976683" lon="-6.345833">
        <ele>2331.0</ele>
        <time>2015-06-06T17:29:57Z</time>
      </trkpt>
      <trkpt lat="39.976683" lon="-6.346133">
        <ele>2326.0</ele>
        <time>2015-06-06T17:29:59Z</time>
      </trkpt>
      <trkpt lat="39.976667" lon="-6.346467">
        <ele>2321.0</ele>
        <time>2015-06-06T17:30:01Z</time>
      </trkpt>
      <trkpt lat="39.976683" lon="-6.346783">
        <ele>2318.0</ele>
        <time>2015-06-06T17:30:03Z</time>
      </trkpt>
      <trkpt lat="39.976717" lon="-6.347083">
        <ele>2316.0</ele>
        <time>2015-06-06T17:30:05Z</time>
      </trkpt>
      <trkpt lat="39.976750" lon="-6.347400">
        <ele>2312.0</ele>
        <time>2015-06-06T17:30:07Z</time>
      </trkpt>
      <trkpt lat="39.976767" lon="-6.347717">
        <ele>2311.0</ele>
        <time>2015-06-06T17:30:09Z</time>
      </trkpt>
      <trkpt lat="39.976767" lon="-6.348000">
        <ele>2313.0</ele>
        <time>2015-06-06T17:30:11Z</time>
      </trkpt>
      <trkpt lat="39.976767" lon="-6.348283">
        <ele>2311.0</ele>
        <time>2015-06-06T17:30:13Z</time>
      </trkpt>
      <trkpt lat="39.976817" lon="-6.348600">
        <ele>2310.0</ele>
        <time>2015-06-06T17:30:15Z</time>
      </trkpt>
      <trkpt lat="39.976850" lon="-6.348917">
        <ele>2310.0</ele>
        <time>2015-06-06T17:30:17Z</time>
      </trkpt>
      <trkpt lat="39.976867" lon="-6.349217">
        <ele>2310.0</ele>
        <time>2015-06-06T17:30:19Z</time>
      </trkpt>
      <trkpt lat="39.976883" lon="-6.349533">
        <ele>2309.0</ele>
        <time>2015-06-06T17:30:21Z</time>
      </trkpt>
      <trkpt lat="39.976883" lon="-6.349850">
        <ele>2310.0</ele>
        <time>2015-06-06T17:30:23Z</time>
      </trkpt>
      <trkpt lat="39.976867" lon="-6.350150">
        <ele>2310.0</ele>
        <time>2015-06-06T17:30:25Z</time>
      </trkpt>
      <trkpt lat="39.976867" lon="-6.350450">
        <ele>2308.0</ele>
        <time>2015-06-06T17:30:27Z</time>
      </trkpt>
      <trkpt lat="39.976867" lon="-6.350767">
        <ele>2307.0</ele>
        <time>2015-06-06T17:30:29Z</time>
      </trkpt>
      <trkpt lat="39.976883" lon="-6.351067">
        <ele>2306.0</ele>
        <time>2015-06-06T17:30:31Z</time>
      </trkpt>
      <trkpt lat="39.976900" lon="-6.351383">
        <ele>2304.0</ele>
        <time>2015-06-06T17:30:33Z</time>
      </trkpt>
      <trkpt lat="39.976933" lon="-6.351700">
        <ele>2303.0</ele>
        <time>2015-06-06T17:30:35Z</time>
      </trkpt>
      <trkpt lat="39.976950" lon="-6.352033">
        <ele>2303.0</ele>
        <time>2015-06-06T17:30:37Z</time>
      </trkpt>
      <trkpt lat="39.976967" lon="-6.352350">
        <ele>2303.0</ele>
        <time>2015-06-06T17:30:39Z</time>
      </trkpt>
      <trkpt lat="39.976967" lon="-6.352667">
        <ele>2302.0</ele>
        <time>2015-06-06T17:30:41Z</time>
      </trkpt>
      <trkpt lat="39.976967" lon="-6.353000">
        <ele>2302.0</ele>
        <time>2015-06-06T17:30:43Z</time>
      </trkpt>
      <trkpt lat="39.976950" lon="-6.353317">
        <ele>2302.0</ele>
        <time>2015-06-06T17:30:45Z</time>
      </trkpt>
      <trkpt lat="39.976950" lon="-6.353633">
        <ele>2301.0</ele>
        <time>2015-06-06T17:30:47Z</time>
      </trkpt>
      <trkpt lat="39.976933" lon="-6.353967">
        <ele>2300.0</ele>
        <time>2015-06-06T17:30:49Z</time>
      </trkpt>
      <trkpt lat="39.976933" lon="-6.354267">
        <ele>2299.0</ele>
        <time>2015-06-06T17:30:51Z</time>
      </trkpt>
      <trkpt lat="39.976950" lon="-6.354583">
        <ele>2296.0</ele>
        <time>2015-06-06T17:30:53Z</time>
      </trkpt>
      <trkpt lat="39.977000" lon="-6.354900">
        <ele>2294.0</ele>
        <time>2015-06-06T17:30:55Z</time>
      </trkpt>
      <trkpt lat="39.977033" lon="-6.355200">
        <ele>2293.0</ele>
        <time>2015-06-06T17:30:57Z</time>
      </trkpt>
      <trkpt lat="39.977083" lon="-6.355483">
        <ele>2290.0</ele>
        <time>2015-06-06T17:30:59Z</time>
      </trkpt>
      <trkpt lat="39.977133" lon="-6.355783">
        <ele>2286.0</ele>
        <time>2015-06-06T17:31:01Z</time>
      </trkpt>
      <trkpt lat="39.977167" lon="-6.356117">
        <ele>2285.0</ele>
        <time>2015-06-06T17:31:03Z</time>
      </trkpt>
      <trkpt lat="39.977183" lon="-6.356417">
        <ele>2286.0</ele>
        <time>2015-06-06T17:31:05Z</time>
      </trkpt>
      <trkpt lat="39.977233" lon="-6.356683">
        <ele>2285.0</ele>
        <time>2015-06-06T17:31:07Z</time>
      </trkpt>
      <trkpt lat="39.977283" lon="-6.357000">
        <ele>2282.0</ele>
        <time>2015-06-06T17:31:09Z</time>
      </trkpt>
      <trkpt lat="39.977367" lon="-6.357333">
        <ele>2281.0</ele>
        <time>2015-06-06T17:31:11Z</time>
      </trkpt>
      <trkpt lat="39.977417" lon="-6.357633">
        <ele>2282.0</ele>
        <time>2015-06-06T17:31:13Z</time>
      </trkpt>
      <trkpt lat="39.977467" lon="-6.357950">
        <ele>2281.0</ele>
        <time>2015-06-06T17:31:15Z</time>
      </trkpt>
      <trkpt lat="39.977483" lon="-6.358300">
        <ele>2279.0</ele>
        <time>2015-06-06T17:31:17Z</time>
      </trkpt>
      <trkpt lat="39.977533" lon="-6.358633">
        <ele>2279.0</ele>
        <time>2015-06-06T17:31:19Z</time>
      </trkpt>
      <trkpt lat="39.977600" lon="-6.358917">
        <ele>2276.0</ele>
        <time>2015-06-06T17:31:21Z</time>
      </trkpt>
      <trkpt lat="39.977650" lon="-6.359233">
        <ele>2269.0</ele>
        <time>2015-06-06T17:31:23Z</time>
      </trkpt>
      <trkpt lat="39.977717" lon="-6.359600">
        <ele>2265.0</ele>
        <time>2015-06-06T17:31:25Z</time>
      </trkpt>
      <trkpt lat="39.977733" lon="-6.359917">
        <ele>2264.0</ele>
        <time>2015-06-06T17:31:27Z</time>
      </trkpt>
      <trkpt lat="39.977750" lon="-6.360200">
        <ele>2260.0</ele>
        <time>2015-06-06T17:31:29Z</time>
      </trkpt>
      <trkpt lat="39.977783" lon="-6.360533">
        <ele>2255.0</ele>
        <time>2015-06-06T17:31:31Z</time>
      </trkpt>
      <trkpt lat="39.977833" lon="-6.360867">
        <ele>2252.0</ele>
        <time>2015-06-06T17:31:33Z</time>
      </trkpt>
      <trkpt lat="39.977883" lon="-6.361183">
        <ele>2248.0</ele>
        <time>2015-06-06T17:31:35Z</time>
      </trkpt>
      <trkpt lat="39.977917" lon="-6.361533">
        <ele>2242.0</ele>
        <time>2015-06-06T17:31:37Z</time>
      </trkpt>
      <trkpt lat="39.977967" lon="-6.361883">
        <ele>2238.0</ele>
        <time>2015-06-06T17:31:39Z</time>
      </trkpt>
      <trkpt lat="39.977983" lon="-6.362233">
        <ele>2236.0</ele>
        <time>2015-06-06T17:31:41Z</time>
      </trkpt>
      <trkpt lat="39.978017" lon="-6.362567">
        <ele>2232.0</ele>
        <time>2015-06-06T17:31:43Z</time>
      </trkpt>
      <trkpt lat="39.978000" lon="-6.362900">
        <ele>2228.0</ele>
        <time>2015-06-06T17:31:45Z</time>
      </trkpt>
      <trkpt lat="39.977983" lon="-6.363217">
        <ele>2228.0</ele>
        <time>2015-06-06T17:31:47Z</time>
      </trkpt>
      <trkpt lat="39.977967" lon="-6.363517">
        <ele>2227.0</ele>
        <time>2015-06-06T17:31:49Z</time>
      </trkpt>
      <trkpt lat="39.978000" lon="-6.363833">
        <ele>2225.0</ele>
        <time>2015-06-06T17:31:51Z</time>
      </trkpt>
      <trkpt lat="39.978033" lon="-6.364167">
        <ele>2223.0</ele>
        <time>2015-06-06T17:31:53Z</time>
      </trkpt>
      <trkpt lat="39.978067" lon="-6.364500">
        <ele>2222.0</ele>
        <time>2015-06-06T17:31:55Z</time>
      </trkpt>
      <trkpt lat="39.978100" lon="-6.364833">
        <ele>2220.0</ele>
        <time>2015-06-06T17:31:57Z</time>
      </trkpt>
      <trkpt lat="39.978133" lon="-6.365183">
        <ele>2219.0</ele>
        <time>2015-06-06T17:31:59Z</time>
      </trkpt>
      <trkpt lat="39.978150" lon="-6.365533">
        <ele>2219.0</ele>
        <time>2015-06-06T17:32:01Z</time>
      </trkpt>
      <trkpt lat="39.978167" lon="-6.365867">
        <ele>2219.0</ele>
        <time>2015-06-06T17:32:03Z</time>
      </trkpt>
      <trkpt lat="39.978200" lon="-6.366200">
        <ele>2217.0</ele>
        <time>2015-06-06T17:32:05Z</time>
      </trkpt>
      <trkpt lat="39.978217" lon="-6.366550">
        <ele>2216.0</ele>
        <time>2015-06-06T17:32:07Z</time>
      </trkpt>
      <trkpt lat="39.978233" lon="-6.366883">
        <ele>2216.0</ele>
        <time>2015-06-06T17:32:09Z</time>
      </trkpt>
      <trkpt lat="39.978250" lon="-6.367200">
        <ele>2216.0</ele>
        <time>2015-06-06T17:32:11Z</time>
      </trkpt>
      <trkpt lat="39.978317" lon="-6.367533">
        <ele>2214.0</ele>
        <time>2015-06-06T17:32:13Z</time>
      </trkpt>
      <trkpt lat="39.978350" lon="-6.367883">
        <ele>2212.0</ele>
        <time>2015-06-06T17:32:15Z</time>
      </trkpt>
      <trkpt lat="39.978367" lon="-6.368233">
        <ele>2212.0</ele>
        <time>2015-06-06T17:32:17Z</time>
      </trkpt>
      <trkpt lat="39.978400" lon="-6.368583">
        <ele>2210.0</ele>
        <time>2015-06-06T17:32:19Z</time>
      </trkpt>
      <trkpt lat="39.978433" lon="-6.368933">
        <ele>2210.0</ele>
        <time>2015-06-06T17:32:21Z</time>
      </trkpt>
      <trkpt lat="39.978483" lon="-6.369267">
        <ele>2210.0</ele>
        <time>2015-06-06T17:32:23Z</time>
      </trkpt>
      <trkpt lat="39.978550" lon="-6.369600">
        <ele>2209.0</ele>
        <time>2015-06-06T17:32:25Z</time>
      </trkpt>
      <trkpt lat="39.978617" lon="-6.369933">
        <ele>2208.0</ele>
        <time>2015-06-06T17:32:27Z</time>
      </trkpt>
      <trkpt lat="39.978683" lon="-6.370267">
        <ele>2207.0</ele>
        <time>2015-06-06T17:32:29Z</time>
      </trkpt>
      <trkpt lat="39.978733" lon="-6.370583">
        <ele>2204.0</ele>
        <time>2015-06-06T17:32:31Z</time>
      </trkpt>
      <trkpt lat="39.978783" lon="-6.370933">
        <ele>2202.0</ele>
        <time>2015-06-06T17:32:33Z</time>
      </trkpt>
      <trkpt lat="39.978850" lon="-6.371267">
        <ele>2200.0</ele>
        <time>2015-06-06T17:32:35Z</time>
      </trkpt>
      <trkpt lat="39.978917" lon="-6.371633">
        <ele>2199.0</ele>
        <time>2015-06-06T17:32:37Z</time>
      </trkpt>
      <trkpt lat="39.978950" lon="-6.371967">
        <ele>2200.0</ele>
        <time>2015-06-06T17:32:39Z</time>
      </trkpt>
      <trkpt lat="39.978983" lon="-6.372283">
        <ele>2199.0</ele>
        <time>2015-06-06T17:32:41Z</time>
      </trkpt>
      <trkpt lat="39.979050" lon="-6.372617">
        <ele>2199.0</ele>
        <time>2015-06-06T17:32:43Z</time>
      </trkpt>
      <trkpt lat="39.979100" lon="-6.372933">
        <ele>2199.0</ele>
        <time>2015-06-06T17:32:45Z</time>
      </trkpt>
      <trkpt lat="39.979133" lon="-6.373267">
        <ele>2199.0</ele>
        <time>2015-06-06T17:32:47Z</time>
      </trkpt>
      <trkpt lat="39.979200" lon="-6.373583">
        <ele>2198.0</ele>
        <time>2015-06-06T17:32:49Z</time>
      </trkpt>
      <trkpt lat="39.979250" lon="-6.373900">
        <ele>2199.0</ele>
        <time>2015-06-06T17:32:51Z</time>
      </trkpt>
      <trkpt lat="39.979333" lon="-6.374217">
        <ele>2199.0</ele>
        <time>2015-06-06T17:32:53Z</time>
      </trkpt>
      <trkpt lat="39.979467" lon="-6.374517">
        <ele>2199.0</ele>
        <time>2015-06-06T17:32:55Z</time>
      </trkpt>
      <trkpt lat="39.979583" lon="-6.374800">
        <ele>2200.0</ele>
        <time>2015-06-06T17:32:57Z</time>
      </trkpt>
      <trkpt lat="39.979683" lon="-6.375100">
        <ele>2199.0</ele>
        <time>2015-06-06T17:32:59Z</time>
      </trkpt>
      <trkpt lat="39.979783" lon="-6.375433">
        <ele>2199.0</ele>
        <time>2015-06-06T17:33:01Z</time>
      </trkpt>
      <trkpt lat="39.979867" lon="-6.375733">
        <ele>2199.0</ele>
        <time>2015-06-06T17:33:03Z</time>
      </trkpt>
      <trkpt lat="39.979950" lon="-6.376067">
        <ele>2197.0</ele>
        <time>2015-06-06T17:33:05Z</time>
      </trkpt>
      <trkpt lat="39.980033" lon="-6.376433">
        <ele>2197.0</ele>
        <time>2015-06-06T17:33:07Z</time>
      </trkpt>
      <trkpt lat="39.980100" lon="-6.376767">
        <ele>2197.0</ele>
        <time>2015-06-06T17:33:09Z</time>
      </trkpt>
      <trkpt lat="39.980167" lon="-6.377117">
        <ele>2196.0</ele>
        <time>2015-06-06T17:33:11Z</time>
      </trkpt>
      <trkpt lat="39.980250" lon="-6.377483">
        <ele>2195.0</ele>
        <time>2015-06-06T17:33:13Z</time>
      </trkpt>
      <trkpt lat="39.980317" lon="-6.377817">
        <ele>2195.0</ele>
        <time>2015-06-06T17:33:15Z</time>
      </trkpt>
      <trkpt lat="39.980383" lon="-6.378167">
        <ele>2193.0</ele>
        <time>2015-06-06T17:33:17Z</time>
      </trkpt>
      <trkpt lat="39.980417" lon="-6.378533">
        <ele>2192.0</ele>
        <time>2015-06-06T17:33:19Z</time>
      </trkpt>
      <trkpt lat="39.980433" lon="-6.378883">
        <ele>2192.0</ele>
        <time>2015-06-06T17:33:21Z</time>
      </trkpt>
      <trkpt lat="39.980450" lon="-6.379233">
        <ele>2190.0</ele>
        <time>2015-06-06T17:33:23Z</time>
      </trkpt>
      <trkpt lat="39.980500" lon="-6.379583">
        <ele>2188.0</ele>
        <time>2015-06-06T17:33:25Z</time>
      </trkpt>
      <trkpt lat="39.980550" lon="-6.379917">
        <ele>2186.0</ele>
        <time>2015-06-06T17:33:27Z</time>
      </trkpt>
      <trkpt lat="39.980600" lon="-6.380283">
        <ele>2184.0</ele>
        <time>2015-06-06T17:33:29Z</time>
      </trkpt>
      <trkpt lat="39.980633" lon="-6.380617">
        <ele>2182.0</ele>
        <time>2015-06-06T17:33:31Z</time>
      </trkpt>
      <trkpt lat="39.980683" lon="-6.380983">
        <ele>2178.0</ele>
        <time>2015-06-06T17:33:33Z</time>
      </trkpt>
      <trkpt lat="39.980717" lon="-6.381350">
        <ele>2175.0</ele>
        <time>2015-06-06T17:33:35Z</time>
      </trkpt>
      <trkpt lat="39.980750" lon="-6.381683">
        <ele>2174.0</ele>
        <time>2015-06-06T17:33:37Z</time>
      </trkpt>
      <trkpt lat="39.980817" lon="-6.382017">
        <ele>2172.0</ele>
        <time>2015-06-06T17:33:39Z</time>
      </trkpt>
      <trkpt lat="39.980867" lon="-6.382367">
        <ele>2169.0</ele>
        <time>2015-06-06T17:33:41Z</time>
      </trkpt>
      <trkpt lat="39.980933" lon="-6.382717">
        <ele>2167.0</ele>
        <time>2015-06-06T17:33:43Z</time>
      </trkpt>
      <trkpt lat="39.981000" lon="-6.383067">
        <ele>2165.0</ele>
        <time>2015-06-06T17:33:45Z</time>
      </trkpt>
      <trkpt lat="39.981067" lon="-6.383400">
        <ele>2162.0</ele>
        <time>2015-06-06T17:33:47Z</time>
      </trkpt>
      <trkpt lat="39.981133" lon="-6.383733">
        <ele>2159.0</ele>
        <time>2015-06-06T17:33:49Z</time>
      </trkpt>
      <trkpt lat="39.981200" lon="-6.384083">
        <ele>2156.0</ele>
        <time>2015-06-06T17:33:51Z</time>
      </trkpt>
      <trkpt lat="39.981283" lon="-6.384400">
        <ele>2154.0</ele>
        <time>2015-06-06T17:33:53Z</time>
      </trkpt>
      <trkpt lat="39.981350" lon="-6.384733">
        <ele>2151.0</ele>
        <time>2015-06-06T17:33:55Z</time>
      </trkpt>
      <trkpt lat="39.981417" lon="-6.385083">
        <ele>2149.0</ele>
        <time>2015-06-06T17:33:57Z</time>
      </trkpt>
      <trkpt lat="39.981500" lon="-6.385417">
        <ele>2147.0</ele>
        <time>2015-06-06T17:33:59Z</time>
      </trkpt>
      <trkpt lat="39.981567" lon="-6.385733">
        <ele>2146.0</ele>
        <time>2015-06-06T17:34:01Z</time>
      </trkpt>
      <trkpt lat="39.981633" lon="-6.386067">
        <ele>2143.0</ele>
        <time>2015-06-06T17:34:03Z</time>
      </trkpt>
      <trkpt lat="39.981700" lon="-6.386417">
        <ele>2140.0</ele>
        <time>2015-06-06T17:34:05Z</time>
      </trkpt>
      <trkpt lat="39.981767" lon="-6.386767">
        <ele>2138.0</ele>
        <time>2015-06-06T17:34:07Z</time>
      </trkpt>
      <trkpt lat="39.981833" lon="-6.387100">
        <ele>2137.0</ele>
        <time>2015-06-06T17:34:09Z</time>
      </trkpt>
      <trkpt lat="39.981917" lon="-6.387433">
        <ele>2135.0</ele>
        <time>2015-06-06T17:34:11Z</time>
      </trkpt>
      <trkpt lat="39.982000" lon="-6.387783">
        <ele>2132.0</ele>
        <time>2015-06-06T17:34:13Z</time>
      </trkpt>
      <trkpt lat="39.982083" lon="-6.388150">
        <ele>2130.0</ele>
        <time>2015-06-06T17:34:15Z</time>
      </trkpt>
      <trkpt lat="39.982133" lon="-6.388517">
        <ele>2129.0</ele>
        <time>2015-06-06T17:34:17Z</time>
      </trkpt>
      <trkpt lat="39.982200" lon="-6.388867">
        <ele>2128.0</ele>
        <time>2015-06-06T17:34:19Z</time>
      </trkpt>
      <trkpt lat="39.982250" lon="-6.389250">
        <ele>2126.0</ele>
        <time>2015-06-06T17:34:21Z</time>
      </trkpt>
      <trkpt lat="39.982267" lon="-6.389617">
        <ele>2125.0</ele>
        <time>2015-06-06T17:34:23Z</time>
      </trkpt>
      <trkpt lat="39.982300" lon="-6.389983">
        <ele>2124.0</ele>
        <time>2015-06-06T17:34:25Z</time>
      </trkpt>
      <trkpt lat="39.982317" lon="-6.390350">
        <ele>2123.0</ele>
        <time>2015-06-06T17:34:27Z</time>
      </trkpt>
      <trkpt lat="39.982317" lon="-6.390733">
        <ele>2121.0</ele>
        <time>2015-06-06T17:34:29Z</time>
      </trkpt>
      <trkpt lat="39.982333" lon="-6.391117">
        <ele>2119.0</ele>
        <time>2015-06-06T17:34:31Z</time>
      </trkpt>
      <trkpt lat="39.982350" lon="-6.391517">
        <ele>2117.0</ele>
        <time>2015-06-06T17:34:33Z</time>
      </trkpt>
      <trkpt lat="39.982367" lon="-6.391900">
        <ele>2116.0</ele>
        <time>2015-06-06T17:34:35Z</time>
      </trkpt>
      <trkpt lat="39.982400" lon="-6.392283">
        <ele>2114.0</ele>
        <time>2015-06-06T17:34:37Z</time>
      </trkpt>
      <trkpt lat="39.982400" lon="-6.392667">
        <ele>2112.0</ele>
        <time>2015-06-06T17:34:39Z</time>
      </trkpt>
      <trkpt lat="39.982417" lon="-6.393067">
        <ele>2112.0</ele>
        <time>2015-06-06T17:34:41Z</time>
      </trkpt>
      <trkpt lat="39.982450" lon="-6.393433">
        <ele>2112.0</ele>
        <time>2015-06-06T17:34:43Z</time>
      </trkpt>
      <trkpt lat="39.982467" lon="-6.393800">
        <ele>2112.0</ele>
        <time>2015-06-06T17:34:45Z</time>
      </trkpt>
      <trkpt lat="39.982467" lon="-6.394167">
        <ele>2111.0</ele>
        <time>2015-06-06T17:34:47Z</time>
      </trkpt>
      <trkpt lat="39.982500" lon="-6.394533">
        <ele>2112.0</ele>
        <time>2015-06-06T17:34:49Z</time>
      </trkpt>
      <trkpt lat="39.982517" lon="-6.394867">
        <ele>2111.0</ele>
        <time>2015-06-06T17:34:51Z</time>
      </trkpt>
      <trkpt lat="39.982583" lon="-6.395217">
        <ele>2109.0</ele>
        <time>2015-06-06T17:34:53Z</time>
      </trkpt>
      <trkpt lat="39.982633" lon="-6.395550">
        <ele>2108.0</ele>
        <time>2015-06-06T17:34:55Z</time>
      </trkpt>
      <trkpt lat="39.982683" lon="-6.395883">
        <ele>2108.0</ele>
        <time>2015-06-06T17:34:57Z</time>
      </trkpt>
      <trkpt lat="39.982733" lon="-6.396183">
        <ele>2106.0</ele>
        <time>2015-06-06T17:34:59Z</time>
      </trkpt>
      <trkpt lat="39.982783" lon="-6.396517">
        <ele>2103.0</ele>
        <time>2015-06-06T17:35:01Z</time>
      </trkpt>
      <trkpt lat="39.982833" lon="-6.396900">
        <ele>2101.0</ele>
        <time>2015-06-06T17:35:03Z</time>
      </trkpt>
      <trkpt lat="39.982867" lon="-6.397267">
        <ele>2102.0</ele>
        <time>2015-06-06T17:35:05Z</time>
      </trkpt>
      <trkpt lat="39.982900" lon="-6.397600">
        <ele>2101.0</ele>
        <time>2015-06-06T17:35:07Z</time>
      </trkpt>
      <trkpt lat="39.982900" lon="-6.397967">
        <ele>2100.0</ele>
        <time>2015-06-06T17:35:09Z</time>
      </trkpt>
      <trkpt lat="39.982900" lon="-6.398333">
        <ele>2102.0</ele>
        <time>2015-06-06T17:35:11Z</time>
      </trkpt>
      <trkpt lat="39.982900" lon="-6.398667">
        <ele>2102.0</ele>
        <time>2015-06-06T17:35:13Z</time>
      </trkpt>
      <trkpt lat="39.982917" lon="-6.399000">
        <ele>2101.0</ele>
        <time>2015-06-06T17:35:15Z</time>
      </trkpt>
      <trkpt lat="39.982967" lon="-6.399333">
        <ele>2099.0</ele>
        <time>2015-06-06T17:35:17Z</time>
      </trkpt>
      <trkpt lat="39.983000" lon="-6.399700">
        <ele>2096.0</ele>
        <time>2015-06-06T17:35:19Z</time>
      </trkpt>
      <trkpt lat="39.983017" lon="-6.400050">
        <ele>2094.0</ele>
        <time>2015-06-06T17:35:21Z</time>
      </trkpt>
      <trkpt lat="39.983033" lon="-6.400417">
        <ele>2091.0</ele>
        <time>2015-06-06T17:35:23Z</time>
      </trkpt>
      <trkpt lat="39.983050" lon="-6.400783">
        <ele>2087.0</ele>
        <time>2015-06-06T17:35:25Z</time>
      </trkpt>
      <trkpt lat="39.983067" lon="-6.401167">
        <ele>2084.0</ele>
        <time>2015-06-06T17:35:27Z</time>
      </trkpt>
      <trkpt lat="39.983100" lon="-6.401517">
        <ele>2080.0</ele>
        <time>2015-06-06T17:35:29Z</time>
      </trkpt>
      <trkpt lat="39.983117" lon="-6.401900">
        <ele>2075.0</ele>
        <time>2015-06-06T17:35:31Z</time>
      </trkpt>
      <trkpt lat="39.983133" lon="-6.402300">
        <ele>2072.0</ele>
        <time>2015-06-06T17:35:33Z</time>
      </trkpt>
      <trkpt lat="39.983150" lon="-6.402650">
        <ele>2070.0</ele>
        <time>2015-06-06T17:35:35Z</time>
      </trkpt>
      <trkpt lat="39.983167" lon="-6.403017">
        <ele>2065.0</ele>
        <time>2015-06-06T17:35:37Z</time>
      </trkpt>
      <trkpt lat="39.983183" lon="-6.403400">
        <ele>2060.0</ele>
        <time>2015-06-06T17:35:39Z</time>
      </trkpt>
      <trkpt lat="39.983217" lon="-6.403750">
        <ele>2058.0</ele>
        <time>2015-06-06T17:35:41Z</time>
      </trkpt>
      <trkpt lat="39.983283" lon="-6.404083">
        <ele>2055.0</ele>
        <time>2015-06-06T17:35:43Z</time>
      </trkpt>
      <trkpt lat="39.983350" lon="-6.404450">
        <ele>2051.0</ele>
        <time>2015-06-06T17:35:45Z</time>
      </trkpt>
      <trkpt lat="39.983400" lon="-6.404817">
        <ele>2050.0</ele>
        <time>2015-06-06T17:35:47Z</time>
      </trkpt>
      <trkpt lat="39.983467" lon="-6.405150">
        <ele>2049.0</ele>
        <time>2015-06-06T17:35:49Z</time>
      </trkpt>
      <trkpt lat="39.983517" lon="-6.405483">
        <ele>2045.0</ele>
        <time>2015-06-06T17:35:51Z</time>
      </trkpt>
      <trkpt lat="39.983567" lon="-6.405850">
        <ele>2043.0</ele>
        <time>2015-06-06T17:35:53Z</time>
      </trkpt>
      <trkpt lat="39.983600" lon="-6.406200">
        <ele>2042.0</ele>
        <time>2015-06-06T17:35:55Z</time>
      </trkpt>
      <trkpt lat="39.983633" lon="-6.406517">
        <ele>2040.0</ele>
        <time>2015-06-06T17:35:57Z</time>
      </trkpt>
      <trkpt lat="39.983667" lon="-6.406883">
        <ele>2036.0</ele>
        <time>2015-06-06T17:35:59Z</time>
      </trkpt>
      <trkpt lat="39.983700" lon="-6.407233">
        <ele>2035.0</ele>
        <time>2015-06-06T17:36:01Z</time>
      </trkpt>
      <trkpt lat="39.983750" lon="-6.407550">
        <ele>2034.0</ele>
        <time>2015-06-06T17:36:03Z</time>
      </trkpt>
      <trkpt lat="39.983800" lon="-6.407883">
        <ele>2030.0</ele>
        <time>2015-06-06T17:36:05Z</time>
      </trkpt>
      <trkpt lat="39.983850" lon="-6.408250">
        <ele>2027.0</ele>
        <time>2015-06-06T17:36:07Z</time>
      </trkpt>
      <trkpt lat="39.983917" lon="-6.408600">
        <ele>2026.0</ele>
        <time>2015-06-06T17:36:09Z</time>
      </trkpt>
      <trkpt lat="39.983983" lon="-6.408917">
        <ele>2024.0</ele>
        <time>2015-06-06T17:36:11Z</time>
      </trkpt>
      <trkpt lat="39.984033" lon="-6.409267">
        <ele>2019.0</ele>
        <time>2015-06-06T17:36:13Z</time>
      </trkpt>
      <trkpt lat="39.984100" lon="-6.409617">
        <ele>2017.0</ele>
        <time>2015-06-06T17:36:15Z</time>
      </trkpt>
      <trkpt lat="39.984133" lon="-6.409967">
        <ele>2015.0</ele>
        <time>2015-06-06T17:36:17Z</time>
      </trkpt>
      <trkpt lat="39.984183" lon="-6.410317">
        <ele>2012.0</ele>
        <time>2015-06-06T17:36:19Z</time>
      </trkpt>
      <trkpt lat="39.984233" lon="-6.410667">
        <ele>2011.0</ele>
        <time>2015-06-06T17:36:21Z</time>
      </trkpt>
      <trkpt lat="39.984283" lon="-6.411000">
        <ele>2011.0</ele>
        <time>2015-06-06T17:36:23Z</time>
      </trkpt>
      <trkpt lat="39.984317" lon="-6.411333">
        <ele>2007.0</ele>
        <time>2015-06-06T17:36:25Z</time>
      </trkpt>
      <trkpt lat="39.984333" lon="-6.411683">
        <ele>2004.0</ele>
        <time>2015-06-06T17:36:27Z</time>
      </trkpt>
      <trkpt lat="39.984350" lon="-6.412033">
        <ele>2003.0</ele>
        <time>2015-06-06T17:36:29Z</time>
      </trkpt>
      <trkpt lat="39.984367" lon="-6.412367">
        <ele>2002.0</ele>
        <time>2015-06-06T17:36:31Z</time>
      </trkpt>
      <trkpt lat="39.984400" lon="-6.412700">
        <ele>1999.0</ele>
        <time>2015-06-06T17:36:33Z</time>
      </trkpt>
      <trkpt lat="39.984417" lon="-6.413033">
        <ele>1998.0</ele>
        <time>2015-06-06T17:36:35Z</time>
      </trkpt>
      <trkpt lat="39.984467" lon="-6.413367">
        <ele>1997.0</ele>
        <time>2015-06-06T17:36:37Z</time>
      </trkpt>
      <trkpt lat="39.984500" lon="-6.413683">
        <ele>1995.0</ele>
        <time>2015-06-06T17:36:39Z</time>
      </trkpt>
      <trkpt lat="39.984533" lon="-6.414017">
        <ele>1992.0</ele>
        <time>2015-06-06T17:36:41Z</time>
      </trkpt>
      <trkpt lat="39.984567" lon="-6.414350">
        <ele>1991.0</ele>
        <time>2015-06-06T17:36:43Z</time>
      </trkpt>
      <trkpt lat="39.984600" lon="-6.414667">
        <ele>1990.0</ele>
        <time>2015-06-06T17:36:45Z</time>
      </trkpt>
      <trkpt lat="39.984633" lon="-6.414983">
        <ele>1987.0</ele>
        <time>2015-06-06T17:36:47Z</time>
      </trkpt>
      <trkpt lat="39.984700" lon="-6.415317">
        <ele>1984.0</ele>
        <time>2015-06-06T17:36:49Z</time>
      </trkpt>
      <trkpt lat="39.984733" lon="-6.415650">
        <ele>1983.0</ele>
        <time>2015-06-06T17:36:51Z</time>
      </trkpt>
      <trkpt lat="39.984767" lon="-6.415967">
        <ele>1981.0</ele>
        <time>2015-06-06T17:36:53Z</time>
      </trkpt>
      <trkpt lat="39.984800" lon="-6.416300">
        <ele>1977.0</ele>
        <time>2015-06-06T17:36:55Z</time>
      </trkpt>
      <trkpt lat="39.984817" lon="-6.416650">
        <ele>1975.0</ele>
        <time>2015-06-06T17:36:57Z</time>
      </trkpt>
      <trkpt lat="39.984850" lon="-6.416967">
        <ele>1973.0</ele>
        <time>2015-06-06T17:36:59Z</time>
      </trkpt>
      <trkpt lat="39.984867" lon="-6.417300">
        <ele>1969.0</ele>
        <time>2015-06-06T17:37:01Z</time>
      </trkpt>
      <trkpt lat="39.984867" lon="-6.417633">
        <ele>1967.0</ele>
        <time>2015-06-06T17:37:03Z</time>
      </trkpt>
      <trkpt lat="39.984883" lon="-6.417950">
        <ele>1966.0</ele>
        <time>2015-06-06T17:37:05Z</time>
      </trkpt>
      <trkpt lat="39.984900" lon="-6.418250">
        <ele>1963.0</ele>
        <time>2015-06-06T17:37:07Z</time>
      </trkpt>
      <trkpt lat="39.984933" lon="-6.418583">
        <ele>1958.0</ele>
        <time>2015-06-06T17:37:09Z</time>
      </trkpt>
      <trkpt lat="39.984950" lon="-6.418933">
        <ele>1956.0</ele>
        <time>2015-06-06T17:37:11Z</time>
      </trkpt>
      <trkpt lat="39.984983" lon="-6.419250">
        <ele>1954.0</ele>
        <time>2015-06-06T17:37:13Z</time>
      </trkpt>
      <trkpt lat="39.984983" lon="-6.419567">
        <ele>1950.0</ele>
        <time>2015-06-06T17:37:15Z</time>
      </trkpt>
      <trkpt lat="39.985017" lon="-6.419900">
        <ele>1944.0</ele>
        <time>2015-06-06T17:37:17Z</time>
      </trkpt>
      <trkpt lat="39.985050" lon="-6.420217">
        <ele>1939.0</ele>
        <time>2015-06-06T17:37:19Z</time>
      </trkpt>
      <trkpt lat="39.985050" lon="-6.420567">
        <ele>1934.0</ele>
        <time>2015-06-06T17:37:21Z</time>
      </trkpt>
      <trkpt lat="39.985083" lon="-6.420900">
        <ele>1931.0</ele>
        <time>2015-06-06T17:37:23Z</time>
      </trkpt>
      <trkpt lat="39.985133" lon="-6.421217">
        <ele>1928.0</ele>
        <time>2015-06-06T17:37:25Z</time>
      </trkpt>
      <trkpt lat="39.985183" lon="-6.421517">
        <ele>1925.0</ele>
        <time>2015-06-06T17:37:27Z</time>
      </trkpt>
      <trkpt lat="39.985267" lon="-6.421833">
        <ele>1921.0</ele>
        <time>2015-06-06T17:37:29Z</time>
      </trkpt>
      <trkpt lat="39.985317" lon="-6.422167">
        <ele>1918.0</ele>
        <time>2015-06-06T17:37:31Z</time>
      </trkpt>
      <trkpt lat="39.985350" lon="-6.422483">
        <ele>1916.0</ele>
        <time>2015-06-06T17:37:33Z</time>
      </trkpt>
      <trkpt lat="39.985383" lon="-6.422817">
        <ele>1913.0</ele>
        <time>2015-06-06T17:37:35Z</time>
      </trkpt>
      <trkpt lat="39.985417" lon="-6.423150">
        <ele>1909.0</ele>
        <time>2015-06-06T17:37:37Z</time>
      </trkpt>
      <trkpt lat="39.985467" lon="-6.423483">
        <ele>1906.0</ele>
        <time>2015-06-06T17:37:39Z</time>
      </trkpt>
      <trkpt lat="39.985500" lon="-6.423800">
        <ele>1902.0</ele>
        <time>2015-06-06T17:37:41Z</time>
      </trkpt>
      <trkpt lat="39.985550" lon="-6.424150">
        <ele>1898.0</ele>
        <time>2015-06-06T17:37:43Z</time>
      </trkpt>
      <trkpt lat="39.985617" lon="-6.424483">
        <ele>1894.0</ele>
        <time>2015-06-06T17:37:45Z</time>
      </trkpt>
      <trkpt lat="39.985650" lon="-6.424833">
        <ele>1890.0</ele>
        <time>2015-06-06T17:37:47Z</time>
      </trkpt>
      <trkpt lat="39.985683" lon="-6.425183">
        <ele>1887.0</ele>
        <time>2015-06-06T17:37:49Z</time>
      </trkpt>
      <trkpt lat="39.985717" lon="-6.425533">
        <ele>1884.0</ele>
        <time>2015-06-06T17:37:51Z</time>
      </trkpt>
      <trkpt lat="39.985750" lon="-6.425883">
        <ele>1881.0</ele>
        <time>2015-06-06T17:37:53Z</time>
      </trkpt>
      <trkpt lat="39.985783" lon="-6.426217">
        <ele>1878.0</ele>
        <time>2015-06-06T17:37:55Z</time>
      </trkpt>
      <trkpt lat="39.985817" lon="-6.426567">
        <ele>1874.0</ele>
        <time>2015-06-06T17:37:57Z</time>
      </trkpt>
      <trkpt lat="39.985850" lon="-6.426917">
        <ele>1871.0</ele>
        <time>2015-06-06T17:37:59Z</time>
      </trkpt>
      <trkpt lat="39.985883" lon="-6.427250">
        <ele>1867.0</ele>
        <time>2015-06-06T17:38:01Z</time>
      </trkpt>
      <trkpt lat="39.985900" lon="-6.427600">
        <ele>1864.0</ele>
        <time>2015-06-06T17:38:03Z</time>
      </trkpt>
      <trkpt lat="39.985933" lon="-6.427933">
        <ele>1860.0</ele>
        <time>2015-06-06T17:38:05Z</time>
      </trkpt>
      <trkpt lat="39.985967" lon="-6.428283">
        <ele>1856.0</ele>
        <time>2015-06-06T17:38:07Z</time>
      </trkpt>
      <trkpt lat="39.985983" lon="-6.428650">
        <ele>1853.0</ele>
        <time>2015-06-06T17:38:09Z</time>
      </trkpt>
      <trkpt lat="39.986017" lon="-6.428983">
        <ele>1850.0</ele>
        <time>2015-06-06T17:38:11Z</time>
      </trkpt>
      <trkpt lat="39.986033" lon="-6.429333">
        <ele>1846.0</ele>
        <time>2015-06-06T17:38:13Z</time>
      </trkpt>
      <trkpt lat="39.986050" lon="-6.429700">
        <ele>1842.0</ele>
        <time>2015-06-06T17:38:15Z</time>
      </trkpt>
      <trkpt lat="39.986067" lon="-6.430033">
        <ele>1838.0</ele>
        <time>2015-06-06T17:38:17Z</time>
      </trkpt>
      <trkpt lat="39.986083" lon="-6.430400">
        <ele>1833.0</ele>
        <time>2015-06-06T17:38:19Z</time>
      </trkpt>
      <trkpt lat="39.986083" lon="-6.430767">
        <ele>1830.0</ele>
        <time>2015-06-06T17:38:21Z</time>
      </trkpt>
      <trkpt lat="39.986083" lon="-6.431117">
        <ele>1828.0</ele>
        <time>2015-06-06T17:38:23Z</time>
      </trkpt>
      <trkpt lat="39.986117" lon="-6.431467">
        <ele>1826.0</ele>
        <time>2015-06-06T17:38:25Z</time>
      </trkpt>
      <trkpt lat="39.986150" lon="-6.431817">
        <ele>1822.0</ele>
        <time>2015-06-06T17:38:27Z</time>
      </trkpt>
      <trkpt lat="39.986183" lon="-6.432167">
        <ele>1817.0</ele>
        <time>2015-06-06T17:38:29Z</time>
      </trkpt>
      <trkpt lat="39.986200" lon="-6.432533">
        <ele>1813.0</ele>
        <time>2015-06-06T17:38:31Z</time>
      </trkpt>
      <trkpt lat="39.986250" lon="-6.432900">
        <ele>1809.0</ele>
        <time>2015-06-06T17:38:33Z</time>
      </trkpt>
      <trkpt lat="39.986283" lon="-6.433250">
        <ele>1805.0</ele>
        <time>2015-06-06T17:38:35Z</time>
      </trkpt>
      <trkpt lat="39.986317" lon="-6.433617">
        <ele>1802.0</ele>
        <time>2015-06-06T17:38:37Z</time>
      </trkpt>
      <trkpt lat="39.986333" lon="-6.433983">
        <ele>1798.0</ele>
        <time>2015-06-06T17:38:39Z</time>
      </trkpt>
      <trkpt lat="39.986367" lon="-6.434333">
        <ele>1795.0</ele>
        <time>2015-06-06T17:38:41Z</time>
      </trkpt>
      <trkpt lat="39.986400" lon="-6.434667">
        <ele>1791.0</ele>
        <time>2015-06-06T17:38:43Z</time>
      </trkpt>
      <trkpt lat="39.986417" lon="-6.435017">
        <ele>1786.0</ele>
        <time>2015-06-06T17:38:45Z</time>
      </trkpt>
      <trkpt lat="39.986450" lon="-6.435367">
        <ele>1782.0</ele>
        <time>2015-06-06T17:38:47Z</time>
      </trkpt>
      <trkpt lat="39.986483" lon="-6.435717">
        <ele>1779.0</ele>
        <time>2015-06-06T17:38:49Z</time>
      </trkpt>
      <trkpt lat="39.986533" lon="-6.436067">
        <ele>1774.0</ele>
        <time>2015-06-06T17:38:51Z</time>
      </trkpt>
      <trkpt lat="39.986567" lon="-6.436417">
        <ele>1770.0</ele>
        <time>2015-06-06T17:38:53Z</time>
      </trkpt>
      <trkpt lat="39.986600" lon="-6.436750">
        <ele>1767.0</ele>
        <time>2015-06-06T17:38:55Z</time>
      </trkpt>
      <trkpt lat="39.986617" lon="-6.437083">
        <ele>1762.0</ele>
        <time>2015-06-06T17:38:57Z</time>
      </trkpt>
      <trkpt lat="39.986633" lon="-6.437417">
        <ele>1758.0</ele>
        <time>2015-06-06T17:38:59Z</time>
      </trkpt>
      <trkpt lat="39.986650" lon="-6.437767">
        <ele>1755.0</ele>
        <time>2015-06-06T17:39:01Z</time>
      </trkpt>
      <trkpt lat="39.986683" lon="-6.438100">
        <ele>1752.0</ele>
        <time>2015-06-06T17:39:03Z</time>
      </trkpt>
      <trkpt lat="39.986700" lon="-6.438433">
        <ele>1749.0</ele>
        <time>2015-06-06T17:39:05Z</time>
      </trkpt>
      <trkpt lat="39.986717" lon="-6.438767">
        <ele>1746.0</ele>
        <time>2015-06-06T17:39:07Z</time>
      </trkpt>
      <trkpt lat="39.986733" lon="-6.439100">
        <ele>1743.0</ele>
        <time>2015-06-06T17:39:09Z</time>
      </trkpt>
      <trkpt lat="39.986750" lon="-6.439433">
        <ele>1739.0</ele>
        <time>2015-06-06T17:39:11Z</time>
      </trkpt>
      <trkpt lat="39.986750" lon="-6.439783">
        <ele>1735.0</ele>
        <time>2015-06-06T17:39:13Z</time>
      </trkpt>
      <trkpt lat="39.986767" lon="-6.440133">
        <ele>1732.0</ele>
        <time>2015-06-06T17:39:15Z</time>
      </trkpt>
      <trkpt lat="39.986800" lon="-6.440467">
        <ele>1729.0</ele>
        <time>2015-06-06T17:39:17Z</time>
      </trkpt>
      <trkpt lat="39.986800" lon="-6.440800">
        <ele>1725.0</ele>
        <time>2015-06-06T17:39:19Z</time>
      </trkpt>
      <trkpt lat="39.986800" lon="-6.441150">
        <ele>1722.0</ele>
        <time>2015-06-06T17:39:21Z</time>
      </trkpt>
      <trkpt lat="39.986800" lon="-6.441483">
        <ele>1719.0</ele>
        <time>2015-06-06T17:39:23Z</time>
      </trkpt>
      <trkpt lat="39.986800" lon="-6.441817">
        <ele>1717.0</ele>
        <time>2015-06-06T17:39:25Z</time>
      </trkpt>
      <trkpt lat="39.986783" lon="-6.442150">
        <ele>1714.0</ele>
        <time>2015-06-06T17:39:27Z</time>
      </trkpt>
      <trkpt lat="39.986800" lon="-6.442483">
        <ele>1712.0</ele>
        <time>2015-06-06T17:39:29Z</time>
      </trkpt>
      <trkpt lat="39.986817" lon="-6.442817">
        <ele>1709.0</ele>
        <time>2015-06-06T17:39:31Z</time>
      </trkpt>
      <trkpt lat="39.986833" lon="-6.443150">
        <ele>1706.0</ele>
        <time>2015-06-06T17:39:33Z</time>
      </trkpt>
      <trkpt lat="39.986867" lon="-6.443467">
        <ele>1704.0</ele>
        <time>2015-06-06T17:39:35Z</time>
      </trkpt>
      <trkpt lat="39.986900" lon="-6.443800">
        <ele>1701.0</ele>
        <time>2015-06-06T17:39:37Z</time>
      </trkpt>
      <trkpt lat="39.986917" lon="-6.444133">
        <ele>1698.0</ele>
        <time>2015-06-06T17:39:39Z</time>
      </trkpt>
      <trkpt lat="39.986950" lon="-6.444467">
        <ele>1696.0</ele>
        <time>2015-06-06T17:39:41Z</time>
      </trkpt>
      <trkpt lat="39.986967" lon="-6.444800">
        <ele>1694.0</ele>
        <time>2015-06-06T17:39:43Z</time>
      </trkpt>
      <trkpt lat="39.986950" lon="-6.445150">
        <ele>1691.0</ele>
        <time>2015-06-06T17:39:45Z</time>
      </trkpt>
      <trkpt lat="39.986933" lon="-6.445500">
        <ele>1691.0</ele>
        <time>2015-06-06T17:39:47Z</time>
      </trkpt>
      <trkpt lat="39.986917" lon="-6.445817">
        <ele>1688.0</ele>
        <time>2015-06-06T17:39:49Z</time>
      </trkpt>
      <trkpt lat="39.986883" lon="-6.446167">
        <ele>1686.0</ele>
        <time>2015-06-06T17:39:51Z</time>
      </trkpt>
      <trkpt lat="39.986850" lon="-6.446517">
        <ele>1685.0</ele>
        <time>2015-06-06T17:39:53Z</time>
      </trkpt>
      <trkpt lat="39.986833" lon="-6.446850">
        <ele>1683.0</ele>
        <time>2015-06-06T17:39:55Z</time>
      </trkpt>
      <trkpt lat="39.986833" lon="-6.447183">
        <ele>1680.0</ele>
        <time>2015-06-06T17:39:57Z</time>
      </trkpt>
      <trkpt lat="39.986850" lon="-6.447517">
        <ele>1676.0</ele>
        <time>2015-06-06T17:39:59Z</time>
      </trkpt>
      <trkpt lat="39.986850" lon="-6.447850">
        <ele>1673.0</ele>
        <time>2015-06-06T17:40:01Z</time>
      </trkpt>
      <trkpt lat="39.986867" lon="-6.448167">
        <ele>1669.0</ele>
        <time>2015-06-06T17:40:03Z</time>
      </trkpt>
      <trkpt lat="39.986883" lon="-6.448500">
        <ele>1663.0</ele>
        <time>2015-06-06T17:40:05Z</time>
      </trkpt>
      <trkpt lat="39.986883" lon="-6.448833">
        <ele>1659.0</ele>
        <time>2015-06-06T17:40:07Z</time>
      </trkpt>
      <trkpt lat="39.986900" lon="-6.449167">
        <ele>1655.0</ele>
        <time>2015-06-06T17:40:09Z</time>
      </trkpt>
      <trkpt lat="39.986900" lon="-6.449517">
        <ele>1651.0</ele>
        <time>2015-06-06T17:40:11Z</time>
      </trkpt>
      <trkpt lat="39.986933" lon="-6.449850">
        <ele>1647.0</ele>
        <time>2015-06-06T17:40:13Z</time>
      </trkpt>
      <trkpt lat="39.986967" lon="-6.450167">
        <ele>1643.0</ele>
        <time>2015-06-06T17:40:15Z</time>
      </trkpt>
      <trkpt lat="39.987000" lon="-6.450500">
        <ele>1639.0</ele>
        <time>2015-06-06T17:40:17Z</time>
      </trkpt>
      <trkpt lat="39.987033" lon="-6.450817">
        <ele>1636.0</ele>
        <time>2015-06-06T17:40:19Z</time>
      </trkpt>
      <trkpt lat="39.987083" lon="-6.451117">
        <ele>1632.0</ele>
        <time>2015-06-06T17:40:21Z</time>
      </trkpt>
      <trkpt lat="39.987133" lon="-6.451450">
        <ele>1628.0</ele>
        <time>2015-06-06T17:40:23Z</time>
      </trkpt>
      <trkpt lat="39.987183" lon="-6.451767">
        <ele>1625.0</ele>
        <time>2015-06-06T17:40:25Z</time>
      </trkpt>
      <trkpt lat="39.987217" lon="-6.452100">
        <ele>1621.0</ele>
        <time>2015-06-06T17:40:27Z</time>
      </trkpt>
      <trkpt lat="39.987250" lon="-6.452433">
        <ele>1618.0</ele>
        <time>2015-06-06T17:40:29Z</time>
      </trkpt>
      <trkpt lat="39.987267" lon="-6.452733">
        <ele>1615.0</ele>
        <time>2015-06-06T17:40:31Z</time>
      </trkpt>
      <trkpt lat="39.987267" lon="-6.453050">
        <ele>1610.0</ele>
        <time>2015-06-06T17:40:33Z</time>
      </trkpt>
      <trkpt lat="39.987283" lon="-6.453383">
        <ele>1606.0</ele>
        <time>2015-06-06T17:40:35Z</time>
      </trkpt>
      <trkpt lat="39.987300" lon="-6.453700">
        <ele>1603.0</ele>
        <time>2015-06-06T17:40:37Z</time>
      </trkpt>
      <trkpt lat="39.987317" lon="-6.454017">
        <ele>1600.0</ele>
        <time>2015-06-06T17:40:39Z</time>
      </trkpt>
      <trkpt lat="39.987333" lon="-6.454317">
        <ele>1597.0</ele>
        <time>2015-06-06T17:40:41Z</time>
      </trkpt>
      <trkpt lat="39.987350" lon="-6.454633">
        <ele>1593.0</ele>
        <time>2015-06-06T17:40:43Z</time>
      </trkpt>
      <trkpt lat="39.987383" lon="-6.454967">
        <ele>1589.0</ele>
        <time>2015-06-06T17:40:45Z</time>
      </trkpt>
      <trkpt lat="39.987417" lon="-6.455267">
        <ele>1586.0</ele>
        <time>2015-06-06T17:40:47Z</time>
      </trkpt>
      <trkpt lat="39.987450" lon="-6.455600">
        <ele>1583.0</ele>
        <time>2015-06-06T17:40:49Z</time>
      </trkpt>
      <trkpt lat="39.987500" lon="-6.455917">
        <ele>1579.0</ele>
        <time>2015-06-06T17:40:51Z</time>
      </trkpt>
      <trkpt lat="39.987517" lon="-6.456233">
        <ele>1575.0</ele>
        <time>2015-06-06T17:40:53Z</time>
      </trkpt>
      <trkpt lat="39.987550" lon="-6.456550">
        <ele>1570.0</ele>
        <time>2015-06-06T17:40:55Z</time>
      </trkpt>
      <trkpt lat="39.987550" lon="-6.456867">
        <ele>1567.0</ele>
        <time>2015-06-06T17:40:57Z</time>
      </trkpt>
      <trkpt lat="39.987550" lon="-6.457183">
        <ele>1563.0</ele>
        <time>2015-06-06T17:40:59Z</time>
      </trkpt>
      <trkpt lat="39.987567" lon="-6.457517">
        <ele>1560.0</ele>
        <time>2015-06-06T17:41:01Z</time>
      </trkpt>
      <trkpt lat="39.987567" lon="-6.457833">
        <ele>1557.0</ele>
        <time>2015-06-06T17:41:03Z</time>
      </trkpt>
      <trkpt lat="39.987567" lon="-6.458133">
        <ele>1553.0</ele>
        <time>2015-06-06T17:41:05Z</time>
      </trkpt>
      <trkpt lat="39.987600" lon="-6.458450">
        <ele>1548.0</ele>
        <time>2015-06-06T17:41:07Z</time>
      </trkpt>
      <trkpt lat="39.987617" lon="-6.458783">
        <ele>1545.0</ele>
        <time>2015-06-06T17:41:09Z</time>
      </trkpt>
      <trkpt lat="39.987633" lon="-6.459083">
        <ele>1541.0</ele>
        <time>2015-06-06T17:41:11Z</time>
      </trkpt>
      <trkpt lat="39.987667" lon="-6.459400">
        <ele>1536.0</ele>
        <time>2015-06-06T17:41:13Z</time>
      </trkpt>
      <trkpt lat="39.987667" lon="-6.459733">
        <ele>1531.0</ele>
        <time>2015-06-06T17:41:15Z</time>
      </trkpt>
      <trkpt lat="39.987683" lon="-6.460067">
        <ele>1528.0</ele>
        <time>2015-06-06T17:41:17Z</time>
      </trkpt>
      <trkpt lat="39.987700" lon="-6.460383">
        <ele>1524.0</ele>
        <time>2015-06-06T17:41:19Z</time>
      </trkpt>
      <trkpt lat="39.987700" lon="-6.460700">
        <ele>1520.0</ele>
        <time>2015-06-06T17:41:21Z</time>
      </trkpt>
      <trkpt lat="39.987700" lon="-6.461033">
        <ele>1516.0</ele>
        <time>2015-06-06T17:41:23Z</time>
      </trkpt>
      <trkpt lat="39.987717" lon="-6.461350">
        <ele>1512.0</ele>
        <time>2015-06-06T17:41:25Z</time>
      </trkpt>
      <trkpt lat="39.987717" lon="-6.461667">
        <ele>1507.0</ele>
        <time>2015-06-06T17:41:27Z</time>
      </trkpt>
      <trkpt lat="39.987700" lon="-6.462000">
        <ele>1502.0</ele>
        <time>2015-06-06T17:41:29Z</time>
      </trkpt>
      <trkpt lat="39.987700" lon="-6.462333">
        <ele>1499.0</ele>
        <time>2015-06-06T17:41:31Z</time>
      </trkpt>
      <trkpt lat="39.987683" lon="-6.462633">
        <ele>1495.0</ele>
        <time>2015-06-06T17:41:33Z</time>
      </trkpt>
      <trkpt lat="39.987667" lon="-6.462967">
        <ele>1490.0</ele>
        <time>2015-06-06T17:41:35Z</time>
      </trkpt>
      <trkpt lat="39.987650" lon="-6.463300">
        <ele>1485.0</ele>
        <time>2015-06-06T17:41:37Z</time>
      </trkpt>
      <trkpt lat="39.987633" lon="-6.463633">
        <ele>1481.0</ele>
        <time>2015-06-06T17:41:39Z</time>
      </trkpt>
      <trkpt lat="39.987617" lon="-6.463967">
        <ele>1477.0</ele>
        <time>2015-06-06T17:41:41Z</time>
      </trkpt>
      <trkpt lat="39.987600" lon="-6.464300">
        <ele>1473.0</ele>
        <time>2015-06-06T17:41:43Z</time>
      </trkpt>
      <trkpt lat="39.987583" lon="-6.464600">
        <ele>1469.0</ele>
        <time>2015-06-06T17:41:45Z</time>
      </trkpt>
      <trkpt lat="39.987583" lon="-6.464917">
        <ele>1465.0</ele>
        <time>2015-06-06T17:41:47Z</time>
      </trkpt>
      <trkpt lat="39.987583" lon="-6.465250">
        <ele>1460.0</ele>
        <time>2015-06-06T17:41:49Z</time>
      </trkpt>
      <trkpt lat="39.987583" lon="-6.465600">
        <ele>1456.0</ele>
        <time>2015-06-06T17:41:51Z</time>
      </trkpt>
      <trkpt lat="39.987600" lon="-6.465917">
        <ele>1453.0</ele>
        <time>2015-06-06T17:41:53Z</time>
      </trkpt>
      <trkpt lat="39.987600" lon="-6.466267">
        <ele>1448.0</ele>
        <time>2015-06-06T17:41:55Z</time>
      </trkpt>
      <trkpt lat="39.987600" lon="-6.466617">
        <ele>1444.0</ele>
        <time>2015-06-06T17:41:57Z</time>
      </trkpt>
      <trkpt lat="39.987617" lon="-6.466967">
        <ele>1442.0</ele>
        <time>2015-06-06T17:41:59Z</time>
      </trkpt>
      <trkpt lat="39.987617" lon="-6.467300">
        <ele>1438.0</ele>
        <time>2015-06-06T17:42:01Z</time>
      </trkpt>
      <trkpt lat="39.987600" lon="-6.467650">
        <ele>1435.0</ele>
        <time>2015-06-06T17:42:03Z</time>
      </trkpt>
      <trkpt lat="39.987583" lon="-6.468000">
        <ele>1433.0</ele>
        <time>2015-06-06T17:42:05Z</time>
      </trkpt>
      <trkpt lat="39.987567" lon="-6.468350">
        <ele>1430.0</ele>
        <time>2015-06-06T17:42:07Z</time>
      </trkpt>
      <trkpt lat="39.987550" lon="-6.468700">
        <ele>1427.0</ele>
        <time>2015-06-06T17:42:09Z</time>
      </trkpt>
      <trkpt lat="39.987533" lon="-6.469050">
        <ele>1426.0</ele>
        <time>2015-06-06T17:42:11Z</time>
      </trkpt>
      <trkpt lat="39.987533" lon="-6.469383">
        <ele>1424.0</ele>
        <time>2015-06-06T17:42:13Z</time>
      </trkpt>
      <trkpt lat="39.987517" lon="-6.469717">
        <ele>1421.0</ele>
        <time>2015-06-06T17:42:15Z</time>
      </trkpt>
      <trkpt lat="39.987500" lon="-6.470050">
        <ele>1418.0</ele>
        <time>2015-06-06T17:42:17Z</time>
      </trkpt>
      <trkpt lat="39.987500" lon="-6.470383">
        <ele>1415.0</ele>
        <time>2015-06-06T17:42:19Z</time>
      </trkpt>
      <trkpt lat="39.987517" lon="-6.470717">
        <ele>1412.0</ele>
        <time>2015-06-06T17:42:21Z</time>
      </trkpt>
      <trkpt lat="39.987500" lon="-6.471050">
        <ele>1408.0</ele>
        <time>2015-06-06T17:42:23Z</time>
      </trkpt>
      <trkpt lat="39.987500" lon="-6.471400">
        <ele>1405.0</ele>
        <time>2015-06-06T17:42:25Z</time>
      </trkpt>
      <trkpt lat="39.987500" lon="-6.471717">
        <ele>1402.0</ele>
        <time>2015-06-06T17:42:27Z</time>
      </trkpt>
      <trkpt lat="39.987483" lon="-6.472050">
        <ele>1399.0</ele>
        <time>2015-06-06T17:42:29Z</time>
      </trkpt>
      <trkpt lat="39.987483" lon="-6.472383">
        <ele>1396.0</ele>
        <time>2015-06-06T17:42:31Z</time>
      </trkpt>
      <trkpt lat="39.987500" lon="-6.472700">
        <ele>1392.0</ele>
        <time>2015-06-06T17:42:33Z</time>
      </trkpt>
      <trkpt lat="39.987517" lon="-6.473033">
        <ele>1388.0</ele>
        <time>2015-06-06T17:42:35Z</time>
      </trkpt>
      <trkpt lat="39.987533" lon="-6.473350">
        <ele>1385.0</ele>
        <time>2015-06-06T17:42:37Z</time>
      </trkpt>
      <trkpt lat="39.987550" lon="-6.473667">
        <ele>1381.0</ele>
        <time>2015-06-06T17:42:39Z</time>
      </trkpt>
      <trkpt lat="39.987550" lon="-6.474000">
        <ele>1376.0</ele>
        <time>2015-06-06T17:42:41Z</time>
      </trkpt>
      <trkpt lat="39.987567" lon="-6.474333">
        <ele>1373.0</ele>
        <time>2015-06-06T17:42:43Z</time>
      </trkpt>
      <trkpt lat="39.987583" lon="-6.474667">
        <ele>1370.0</ele>
        <time>2015-06-06T17:42:45Z</time>
      </trkpt>
      <trkpt lat="39.987600" lon="-6.475000">
        <ele>1366.0</ele>
        <time>2015-06-06T17:42:47Z</time>
      </trkpt>
      <trkpt lat="39.987633" lon="-6.475333">
        <ele>1363.0</ele>
        <time>2015-06-06T17:42:49Z</time>
      </trkpt>
      <trkpt lat="39.987650" lon="-6.475667">
        <ele>1361.0</ele>
        <time>2015-06-06T17:42:51Z</time>
      </trkpt>
      <trkpt lat="39.987683" lon="-6.476000">
        <ele>1357.0</ele>
        <time>2015-06-06T17:42:53Z</time>
      </trkpt>
      <trkpt lat="39.987717" lon="-6.476350">
        <ele>1354.0</ele>
        <time>2015-06-06T17:42:55Z</time>
      </trkpt>
      <trkpt lat="39.987717" lon="-6.476683">
        <ele>1352.0</ele>
        <time>2015-06-06T17:42:57Z</time>
      </trkpt>
      <trkpt lat="39.987733" lon="-6.477000">
        <ele>1349.0</ele>
        <time>2015-06-06T17:42:59Z</time>
      </trkpt>
      <trkpt lat="39.987733" lon="-6.477333">
        <ele>1346.0</ele>
        <time>2015-06-06T17:43:01Z</time>
      </trkpt>
      <trkpt lat="39.987733" lon="-6.477650">
        <ele>1344.0</ele>
        <time>2015-06-06T17:43:03Z</time>
      </trkpt>
      <trkpt lat="39.987733" lon="-6.477967">
        <ele>1341.0</ele>
        <time>2015-06-06T17:43:05Z</time>
      </trkpt>
      <trkpt lat="39.987750" lon="-6.478283">
        <ele>1338.0</ele>
        <time>2015-06-06T17:43:07Z</time>
      </trkpt>
      <trkpt lat="39.987733" lon="-6.478600">
        <ele>1337.0</ele>
        <time>2015-06-06T17:43:09Z</time>
      </trkpt>
      <trkpt lat="39.987733" lon="-6.478900">
        <ele>1334.0</ele>
        <time>2015-06-06T17:43:11Z</time>
      </trkpt>
      <trkpt lat="39.987750" lon="-6.479217">
        <ele>1331.0</ele>
        <time>2015-06-06T17:43:13Z</time>
      </trkpt>
      <trkpt lat="39.987750" lon="-6.479550">
        <ele>1328.0</ele>
        <time>2015-06-06T17:43:15Z</time>
      </trkpt>
      <trkpt lat="39.987767" lon="-6.479867">
        <ele>1326.0</ele>
        <time>2015-06-06T17:43:17Z</time>
      </trkpt>
      <trkpt lat="39.987767" lon="-6.480167">
        <ele>1325.0</ele>
        <time>2015-06-06T17:43:19Z</time>
      </trkpt>
      <trkpt lat="39.987800" lon="-6.480467">
        <ele>1321.0</ele>
        <time>2015-06-06T17:43:21Z</time>
      </trkpt>
      <trkpt lat="39.987800" lon="-6.480817">
        <ele>1318.0</ele>
        <time>2015-06-06T17:43:23Z</time>
      </trkpt>
      <trkpt lat="39.987800" lon="-6.481133">
        <ele>1317.0</ele>
        <time>2015-06-06T17:43:25Z</time>
      </trkpt>
      <trkpt lat="39.987817" lon="-6.481433">
        <ele>1314.0</ele>
        <time>2015-06-06T17:43:27Z</time>
      </trkpt>
      <trkpt lat="39.987817" lon="-6.481750">
        <ele>1310.0</ele>
        <time>2015-06-06T17:43:29Z</time>
      </trkpt>
      <trkpt lat="39.987817" lon="-6.482067">
        <ele>1308.0</ele>
        <time>2015-06-06T17:43:31Z</time>
      </trkpt>
      <trkpt lat="39.987833" lon="-6.482383">
        <ele>1306.0</ele>
        <time>2015-06-06T17:43:33Z</time>
      </trkpt>
      <trkpt lat="39.987850" lon="-6.482700">
        <ele>1302.0</ele>
        <time>2015-06-06T17:43:35Z</time>
      </trkpt>
      <trkpt lat="39.987867" lon="-6.483033">
        <ele>1298.0</ele>
        <time>2015-06-06T17:43:37Z</time>
      </trkpt>
      <trkpt lat="39.987867" lon="-6.483350">
        <ele>1296.0</ele>
        <time>2015-06-06T17:43:39Z</time>
      </trkpt>
      <trkpt lat="39.987883" lon="-6.483667">
        <ele>1293.0</ele>
        <time>2015-06-06T17:43:41Z</time>
      </trkpt>
      <trkpt lat="39.987883" lon="-6.484000">
        <ele>1289.0</ele>
        <time>2015-06-06T17:43:43Z</time>
      </trkpt>
      <trkpt lat="39.987900" lon="-6.484333">
        <ele>1286.0</ele>
        <time>2015-06-06T17:43:45Z</time>
      </trkpt>
      <trkpt lat="39.987900" lon="-6.484650">
        <ele>1283.0</ele>
        <time>2015-06-06T17:43:47Z</time>
      </trkpt>
      <trkpt lat="39.987917" lon="-6.484967">
        <ele>1281.0</ele>
        <time>2015-06-06T17:43:49Z</time>
      </trkpt>
      <trkpt lat="39.987933" lon="-6.485283">
        <ele>1278.0</ele>
        <time>2015-06-06T17:43:51Z</time>
      </trkpt>
      <trkpt lat="39.987950" lon="-6.485617">
        <ele>1275.0</ele>
        <time>2015-06-06T17:43:53Z</time>
      </trkpt>
      <trkpt lat="39.987983" lon="-6.485933">
        <ele>1272.0</ele>
        <time>2015-06-06T17:43:55Z</time>
      </trkpt>
      <trkpt lat="39.988017" lon="-6.486250">
        <ele>1269.0</ele>
        <time>2015-06-06T17:43:57Z</time>
      </trkpt>
      <trkpt lat="39.988050" lon="-6.486567">
        <ele>1266.0</ele>
        <time>2015-06-06T17:43:59Z</time>
      </trkpt>
      <trkpt lat="39.988100" lon="-6.486883">
        <ele>1263.0</ele>
        <time>2015-06-06T17:44:01Z</time>
      </trkpt>
      <trkpt lat="39.988133" lon="-6.487200">
        <ele>1260.0</ele>
        <time>2015-06-06T17:44:03Z</time>
      </trkpt>
      <trkpt lat="39.988183" lon="-6.487500">
        <ele>1256.0</ele>
        <time>2015-06-06T17:44:05Z</time>
      </trkpt>
      <trkpt lat="39.988217" lon="-6.487833">
        <ele>1253.0</ele>
        <time>2015-06-06T17:44:07Z</time>
      </trkpt>
      <trkpt lat="39.988233" lon="-6.488150">
        <ele>1250.0</ele>
        <time>2015-06-06T17:44:09Z</time>
      </trkpt>
      <trkpt lat="39.988267" lon="-6.488467">
        <ele>1247.0</ele>
        <time>2015-06-06T17:44:11Z</time>
      </trkpt>
      <trkpt lat="39.988317" lon="-6.488783">
        <ele>1244.0</ele>
        <time>2015-06-06T17:44:13Z</time>
      </trkpt>
      <trkpt lat="39.988333" lon="-6.489117">
        <ele>1242.0</ele>
        <time>2015-06-06T17:44:15Z</time>
      </trkpt>
      <trkpt lat="39.988333" lon="-6.489433">
        <ele>1239.0</ele>
        <time>2015-06-06T17:44:17Z</time>
      </trkpt>
      <trkpt lat="39.988333" lon="-6.489750">
        <ele>1236.0</ele>
        <time>2015-06-06T17:44:19Z</time>
      </trkpt>
      <trkpt lat="39.988333" lon="-6.490067">
        <ele>1234.0</ele>
        <time>2015-06-06T17:44:21Z</time>
      </trkpt>
      <trkpt lat="39.988367" lon="-6.490367">
        <ele>1231.0</ele>
        <time>2015-06-06T17:44:23Z</time>
      </trkpt>
      <trkpt lat="39.988417" lon="-6.490683">
        <ele>1227.0</ele>
        <time>2015-06-06T17:44:25Z</time>
      </trkpt>
      <trkpt lat="39.988467" lon="-6.491000">
        <ele>1223.0</ele>
        <time>2015-06-06T17:44:27Z</time>
      </trkpt>
      <trkpt lat="39.988517" lon="-6.491317">
        <ele>1220.0</ele>
        <time>2015-06-06T17:44:29Z</time>
      </trkpt>
      <trkpt lat="39.988550" lon="-6.491633">
        <ele>1216.0</ele>
        <time>2015-06-06T17:44:31Z</time>
      </trkpt>
      <trkpt lat="39.988583" lon="-6.491950">
        <ele>1213.0</ele>
        <time>2015-06-06T17:44:33Z</time>
      </trkpt>
      <trkpt lat="39.988617" lon="-6.492250">
        <ele>1209.0</ele>
        <time>2015-06-06T17:44:35Z</time>
      </trkpt>
      <trkpt lat="39.988650" lon="-6.492567">
        <ele>1205.0</ele>
        <time>2015-06-06T17:44:37Z</time>
      </trkpt>
      <trkpt lat="39.988667" lon="-6.492900">
        <ele>1202.0</ele>
        <time>2015-06-06T17:44:39Z</time>
      </trkpt>
      <trkpt lat="39.988700" lon="-6.493217">
        <ele>1199.0</ele>
        <time>2015-06-06T17:44:41Z</time>
      </trkpt>
      <trkpt lat="39.988717" lon="-6.493550">
        <ele>1195.0</ele>
        <time>2015-06-06T17:44:43Z</time>
      </trkpt>
      <trkpt lat="39.988733" lon="-6.493867">
        <ele>1193.0</ele>
        <time>2015-06-06T17:44:45Z</time>
      </trkpt>
      <trkpt lat="39.988750" lon="-6.494183">
        <ele>1190.0</ele>
        <time>2015-06-06T17:44:47Z</time>
      </trkpt>
      <trkpt lat="39.988750" lon="-6.494500">
        <ele>1186.0</ele>
        <time>2015-06-06T17:44:49Z</time>
      </trkpt>
      <trkpt lat="39.988767" lon="-6.494817">
        <ele>1182.0</ele>
        <time>2015-06-06T17:44:51Z</time>
      </trkpt>
      <trkpt lat="39.988767" lon="-6.495117">
        <ele>1178.0</ele>
        <time>2015-06-06T17:44:53Z</time>
      </trkpt>
      <trkpt lat="39.988783" lon="-6.495417">
        <ele>1175.0</ele>
        <time>2015-06-06T17:44:55Z</time>
      </trkpt>
      <trkpt lat="39.988817" lon="-6.495700">
        <ele>1170.0</ele>
        <time>2015-06-06T17:44:57Z</time>
      </trkpt>
      <trkpt lat="39.988833" lon="-6.496000">
        <ele>1165.0</ele>
        <time>2015-06-06T17:44:59Z</time>
      </trkpt>
      <trkpt lat="39.988850" lon="-6.496300">
        <ele>1160.0</ele>
        <time>2015-06-06T17:45:01Z</time>
      </trkpt>
      <trkpt lat="39.988867" lon="-6.496600">
        <ele>1156.0</ele>
        <time>2015-06-06T17:45:03Z</time>
      </trkpt>
      <trkpt lat="39.988883" lon="-6.496917">
        <ele>1151.0</ele>
        <time>2015-06-06T17:45:05Z</time>
      </trkpt>
      <trkpt lat="39.988900" lon="-6.497250">
        <ele>1147.0</ele>
        <time>2015-06-06T17:45:07Z</time>
      </trkpt>
      <trkpt lat="39.988917" lon="-6.497583">
        <ele>1147.0</ele>
        <time>2015-06-06T17:45:09Z</time>
      </trkpt>
      <trkpt lat="39.988917" lon="-6.497883">
        <ele>1147.0</ele>
        <time>2015-06-06T17:45:11Z</time>
      </trkpt>
      <trkpt lat="39.988917" lon="-6.498183">
        <ele>1148.0</ele>
        <time>2015-06-06T17:45:13Z</time>
      </trkpt>
      <trkpt lat="39.988933" lon="-6.498467">
        <ele>1146.0</ele>
        <time>2015-06-06T17:45:15Z</time>
      </trkpt>
      <trkpt lat="39.988950" lon="-6.498767">
        <ele>1144.0</ele>
        <time>2015-06-06T17:45:17Z</time>
      </trkpt>
      <trkpt lat="39.988950" lon="-6.499083">
        <ele>1142.0</ele>
        <time>2015-06-06T17:45:19Z</time>
      </trkpt>
      <trkpt lat="39.988967" lon="-6.499400">
        <ele>1141.0</ele>
        <time>2015-06-06T17:45:21Z</time>
      </trkpt>
      <trkpt lat="39.988983" lon="-6.499700">
        <ele>1140.0</ele>
        <time>2015-06-06T17:45:23Z</time>
      </trkpt>
      <trkpt lat="39.988983" lon="-6.500017">
        <ele>1139.0</ele>
        <time>2015-06-06T17:45:25Z</time>
      </trkpt>
      <trkpt lat="39.988983" lon="-6.500333">
        <ele>1138.0</ele>
        <time>2015-06-06T17:45:27Z</time>
      </trkpt>
      <trkpt lat="39.989000" lon="-6.500650">
        <ele>1137.0</ele>
        <time>2015-06-06T17:45:29Z</time>
      </trkpt>
      <trkpt lat="39.989033" lon="-6.500983">
        <ele>1136.0</ele>
        <time>2015-06-06T17:45:31Z</time>
      </trkpt>
      <trkpt lat="39.989067" lon="-6.501317">
        <ele>1135.0</ele>
        <time>2015-06-06T17:45:33Z</time>
      </trkpt>
      <trkpt lat="39.989067" lon="-6.501633">
        <ele>1134.0</ele>
        <time>2015-06-06T17:45:35Z</time>
      </trkpt>
      <trkpt lat="39.989067" lon="-6.501967">
        <ele>1132.0</ele>
        <time>2015-06-06T17:45:37Z</time>
      </trkpt>
      <trkpt lat="39.989100" lon="-6.502317">
        <ele>1131.0</ele>
        <time>2015-06-06T17:45:39Z</time>
      </trkpt>
      <trkpt lat="39.989133" lon="-6.502633">
        <ele>1131.0</ele>
        <time>2015-06-06T17:45:41Z</time>
      </trkpt>
      <trkpt lat="39.989150" lon="-6.502967">
        <ele>1128.0</ele>
        <time>2015-06-06T17:45:43Z</time>
      </trkpt>
      <trkpt lat="39.989167" lon="-6.503317">
        <ele>1126.0</ele>
        <time>2015-06-06T17:45:45Z</time>
      </trkpt>
      <trkpt lat="39.989183" lon="-6.503633">
        <ele>1125.0</ele>
        <time>2015-06-06T17:45:47Z</time>
      </trkpt>
      <trkpt lat="39.989217" lon="-6.503967">
        <ele>1122.0</ele>
        <time>2015-06-06T17:45:49Z</time>
      </trkpt>
      <trkpt lat="39.989250" lon="-6.504300">
        <ele>1120.0</ele>
        <time>2015-06-06T17:45:51Z</time>
      </trkpt>
      <trkpt lat="39.989283" lon="-6.504617">
        <ele>1118.0</ele>
        <time>2015-06-06T17:45:53Z</time>
      </trkpt>
      <trkpt lat="39.989350" lon="-6.504933">
        <ele>1115.0</ele>
        <time>2015-06-06T17:45:55Z</time>
      </trkpt>
      <trkpt lat="39.989400" lon="-6.505233">
        <ele>1112.0</ele>
        <time>2015-06-06T17:45:57Z</time>
      </trkpt>
      <trkpt lat="39.989450" lon="-6.505550">
        <ele>1108.0</ele>
        <time>2015-06-06T17:45:59Z</time>
      </trkpt>
      <trkpt lat="39.989500" lon="-6.505883">
        <ele>1104.0</ele>
        <time>2015-06-06T17:46:01Z</time>
      </trkpt>
      <trkpt lat="39.989550" lon="-6.506217">
        <ele>1101.0</ele>
        <time>2015-06-06T17:46:03Z</time>
      </trkpt>
      <trkpt lat="39.989583" lon="-6.506550">
        <ele>1097.0</ele>
        <time>2015-06-06T17:46:05Z</time>
      </trkpt>
      <trkpt lat="39.989633" lon="-6.506900">
        <ele>1093.0</ele>
        <time>2015-06-06T17:46:07Z</time>
      </trkpt>
      <trkpt lat="39.989683" lon="-6.507267">
        <ele>1089.0</ele>
        <time>2015-06-06T17:46:09Z</time>
      </trkpt>
      <trkpt lat="39.989717" lon="-6.507600">
        <ele>1086.0</ele>
        <time>2015-06-06T17:46:11Z</time>
      </trkpt>
      <trkpt lat="39.989767" lon="-6.507950">
        <ele>1082.0</ele>
        <time>2015-06-06T17:46:13Z</time>
      </trkpt>
      <trkpt lat="39.989833" lon="-6.508300">
        <ele>1079.0</ele>
        <time>2015-06-06T17:46:15Z</time>
      </trkpt>
      <trkpt lat="39.989883" lon="-6.508633">
        <ele>1076.0</ele>
        <time>2015-06-06T17:46:17Z</time>
      </trkpt>
      <trkpt lat="39.989933" lon="-6.508983">
        <ele>1072.0</ele>
        <time>2015-06-06T17:46:19Z</time>
      </trkpt>
      <trkpt lat="39.989983" lon="-6.509333">
        <ele>1068.0</ele>
        <time>2015-06-06T17:46:21Z</time>
      </trkpt>
      <trkpt lat="39.990050" lon="-6.509667">
        <ele>1065.0</ele>
        <time>2015-06-06T17:46:23Z</time>
      </trkpt>
      <trkpt lat="39.990100" lon="-6.510000">
        <ele>1062.0</ele>
        <time>2015-06-06T17:46:25Z</time>
      </trkpt>
      <trkpt lat="39.990167" lon="-6.510350">
        <ele>1058.0</ele>
        <time>2015-06-06T17:46:27Z</time>
      </trkpt>
      <trkpt lat="39.990217" lon="-6.510700">
        <ele>1056.0</ele>
        <time>2015-06-06T17:46:29Z</time>
      </trkpt>
      <trkpt lat="39.990267" lon="-6.511033">
        <ele>1055.0</ele>
        <time>2015-06-06T17:46:31Z</time>
      </trkpt>
      <trkpt lat="39.990300" lon="-6.511367">
        <ele>1053.0</ele>
        <time>2015-06-06T17:46:33Z</time>
      </trkpt>
      <trkpt lat="39.990367" lon="-6.511700">
        <ele>1052.0</ele>
        <time>2015-06-06T17:46:35Z</time>
      </trkpt>
      <trkpt lat="39.990400" lon="-6.512033">
        <ele>1050.0</ele>
        <time>2015-06-06T17:46:37Z</time>
      </trkpt>
      <trkpt lat="39.990433" lon="-6.512383">
        <ele>1047.0</ele>
        <time>2015-06-06T17:46:39Z</time>
      </trkpt>
      <trkpt lat="39.990467" lon="-6.512733">
        <ele>1045.0</ele>
        <time>2015-06-06T17:46:41Z</time>
      </trkpt>
      <trkpt lat="39.990517" lon="-6.513067">
        <ele>1044.0</ele>
        <time>2015-06-06T17:46:43Z</time>
      </trkpt>
      <trkpt lat="39.990550" lon="-6.513400">
        <ele>1042.0</ele>
        <time>2015-06-06T17:46:45Z</time>
      </trkpt>
      <trkpt lat="39.990583" lon="-6.513717">
        <ele>1040.0</ele>
        <time>2015-06-06T17:46:47Z</time>
      </trkpt>
      <trkpt lat="39.990633" lon="-6.514050">
        <ele>1036.0</ele>
        <time>2015-06-06T17:46:49Z</time>
      </trkpt>
      <trkpt lat="39.990683" lon="-6.514400">
        <ele>1034.0</ele>
        <time>2015-06-06T17:46:51Z</time>
      </trkpt>
      <trkpt lat="39.990750" lon="-6.514733">
        <ele>1033.0</ele>
        <time>2015-06-06T17:46:53Z</time>
      </trkpt>
      <trkpt lat="39.990800" lon="-6.515033">
        <ele>1032.0</ele>
        <time>2015-06-06T17:46:55Z</time>
      </trkpt>
      <trkpt lat="39.990833" lon="-6.515333">
        <ele>1030.0</ele>
        <time>2015-06-06T17:46:57Z</time>
      </trkpt>
      <trkpt lat="39.990867" lon="-6.515667">
        <ele>1026.0</ele>
        <time>2015-06-06T17:46:59Z</time>
      </trkpt>
      <trkpt lat="39.990933" lon="-6.516000">
        <ele>1023.0</ele>
        <time>2015-06-06T17:47:01Z</time>
      </trkpt>
      <trkpt lat="39.990983" lon="-6.516317">
        <ele>1020.0</ele>
        <time>2015-06-06T17:47:03Z</time>
      </trkpt>
      <trkpt lat="39.991050" lon="-6.516633">
        <ele>1016.0</ele>
        <time>2015-06-06T17:47:05Z</time>
      </trkpt>
      <trkpt lat="39.991117" lon="-6.516967">
        <ele>1013.0</ele>
        <time>2015-06-06T17:47:07Z</time>
      </trkpt>
      <trkpt lat="39.991167" lon="-6.517300">
        <ele>1011.0</ele>
        <time>2015-06-06T17:47:09Z</time>
      </trkpt>
      <trkpt lat="39.991200" lon="-6.517633">
        <ele>1009.0</ele>
        <time>2015-06-06T17:47:11Z</time>
      </trkpt>
      <trkpt lat="39.991250" lon="-6.517967">
        <ele>1006.0</ele>
        <time>2015-06-06T17:47:13Z</time>
      </trkpt>
      <trkpt lat="39.991300" lon="-6.518283">
        <ele>1004.0</ele>
        <time>2015-06-06T17:47:15Z</time>
      </trkpt>
      <trkpt lat="39.991383" lon="-6.518583">
        <ele>1003.0</ele>
        <time>2015-06-06T17:47:17Z</time>
      </trkpt>
      <trkpt lat="39.991467" lon="-6.518883">
        <ele>1000.0</ele>
        <time>2015-06-06T17:47:19Z</time>
      </trkpt>
      <trkpt lat="39.991517" lon="-6.519183">
        <ele>999.0</ele>
        <time>2015-06-06T17:47:21Z</time>
      </trkpt>
      <trkpt lat="39.991583" lon="-6.519483">
        <ele>996.0</ele>
        <time>2015-06-06T17:47:23Z</time>
      </trkpt>
      <trkpt lat="39.991650" lon="-6.519783">
        <ele>993.0</ele>
        <time>2015-06-06T17:47:25Z</time>
      </trkpt>
      <trkpt lat="39.991700" lon="-6.520100">
        <ele>990.0</ele>
        <time>2015-06-06T17:47:27Z</time>
      </trkpt>
      <trkpt lat="39.991750" lon="-6.520383">
        <ele>987.0</ele>
        <time>2015-06-06T17:47:29Z</time>
      </trkpt>
      <trkpt lat="39.991817" lon="-6.520683">
        <ele>985.0</ele>
        <time>2015-06-06T17:47:31Z</time>
      </trkpt>
      <trkpt lat="39.991867" lon="-6.520983">
        <ele>981.0</ele>
        <time>2015-06-06T17:47:33Z</time>
      </trkpt>
      <trkpt lat="39.991933" lon="-6.521283">
        <ele>978.0</ele>
        <time>2015-06-06T17:47:35Z</time>
      </trkpt>
      <trkpt lat="39.992000" lon="-6.521583">
        <ele>975.0</ele>
        <time>2015-06-06T17:47:37Z</time>
      </trkpt>
      <trkpt lat="39.992083" lon="-6.521883">
        <ele>972.0</ele>
        <time>2015-06-06T17:47:39Z</time>
      </trkpt>
      <trkpt lat="39.992167" lon="-6.522183">
        <ele>970.0</ele>
        <time>2015-06-06T17:47:41Z</time>
      </trkpt>
      <trkpt lat="39.992233" lon="-6.522500">
        <ele>967.0</ele>
        <time>2015-06-06T17:47:43Z</time>
      </trkpt>
      <trkpt lat="39.992283" lon="-6.522817">
        <ele>966.0</ele>
        <time>2015-06-06T17:47:45Z</time>
      </trkpt>
      <trkpt lat="39.992350" lon="-6.523117">
        <ele>964.0</ele>
        <time>2015-06-06T17:47:47Z</time>
      </trkpt>
      <trkpt lat="39.992400" lon="-6.523417">
        <ele>961.0</ele>
        <time>2015-06-06T17:47:49Z</time>
      </trkpt>
      <trkpt lat="39.992467" lon="-6.523750">
        <ele>958.0</ele>
        <time>2015-06-06T17:47:51Z</time>
      </trkpt>
      <trkpt lat="39.992550" lon="-6.524050">
        <ele>955.0</ele>
        <time>2015-06-06T17:47:53Z</time>
      </trkpt>
      <trkpt lat="39.992617" lon="-6.524367">
        <ele>951.0</ele>
        <time>2015-06-06T17:47:55Z</time>
      </trkpt>
      <trkpt lat="39.992683" lon="-6.524683">
        <ele>947.0</ele>
        <time>2015-06-06T17:47:57Z</time>
      </trkpt>
      <trkpt lat="39.992750" lon="-6.525000">
        <ele>943.0</ele>
        <time>2015-06-06T17:47:59Z</time>
      </trkpt>
      <trkpt lat="39.992800" lon="-6.525317">
        <ele>939.0</ele>
        <time>2015-06-06T17:48:01Z</time>
      </trkpt>
      <trkpt lat="39.992867" lon="-6.525650">
        <ele>935.0</ele>
        <time>2015-06-06T17:48:03Z</time>
      </trkpt>
      <trkpt lat="39.992917" lon="-6.525967">
        <ele>931.0</ele>
        <time>2015-06-06T17:48:05Z</time>
      </trkpt>
      <trkpt lat="39.992983" lon="-6.526283">
        <ele>928.0</ele>
        <time>2015-06-06T17:48:07Z</time>
      </trkpt>
      <trkpt lat="39.993050" lon="-6.526600">
        <ele>925.0</ele>
        <time>2015-06-06T17:48:09Z</time>
      </trkpt>
      <trkpt lat="39.993100" lon="-6.526917">
        <ele>921.0</ele>
        <time>2015-06-06T17:48:11Z</time>
      </trkpt>
      <trkpt lat="39.993167" lon="-6.527233">
        <ele>918.0</ele>
        <time>2015-06-06T17:48:13Z</time>
      </trkpt>
      <trkpt lat="39.993233" lon="-6.527533">
        <ele>915.0</ele>
        <time>2015-06-06T17:48:15Z</time>
      </trkpt>
      <trkpt lat="39.993300" lon="-6.527833">
        <ele>911.0</ele>
        <time>2015-06-06T17:48:17Z</time>
      </trkpt>
      <trkpt lat="39.993367" lon="-6.528133">
        <ele>908.0</ele>
        <time>2015-06-06T17:48:19Z</time>
      </trkpt>
      <trkpt lat="39.993433" lon="-6.528433">
        <ele>906.0</ele>
        <time>2015-06-06T17:48:21Z</time>
      </trkpt>
      <trkpt lat="39.993500" lon="-6.528700">
        <ele>903.0</ele>
        <time>2015-06-06T17:48:23Z</time>
      </trkpt>
      <trkpt lat="39.993583" lon="-6.529000">
        <ele>899.0</ele>
        <time>2015-06-06T17:48:25Z</time>
      </trkpt>
      <trkpt lat="39.993650" lon="-6.529317">
        <ele>896.0</ele>
        <time>2015-06-06T17:48:27Z</time>
      </trkpt>
      <trkpt lat="39.993717" lon="-6.529600">
        <ele>893.0</ele>
        <time>2015-06-06T17:48:29Z</time>
      </trkpt>
      <trkpt lat="39.993800" lon="-6.529900">
        <ele>890.0</ele>
        <time>2015-06-06T17:48:31Z</time>
      </trkpt>
      <trkpt lat="39.993850" lon="-6.530217">
        <ele>886.0</ele>
        <time>2015-06-06T17:48:33Z</time>
      </trkpt>
      <trkpt lat="39.993917" lon="-6.530517">
        <ele>882.0</ele>
        <time>2015-06-06T17:48:35Z</time>
      </trkpt>
      <trkpt lat="39.994000" lon="-6.530817">
        <ele>879.0</ele>
        <time>2015-06-06T17:48:37Z</time>
      </trkpt>
      <trkpt lat="39.994067" lon="-6.531117">
        <ele>875.0</ele>
        <time>2015-06-06T17:48:39Z</time>
      </trkpt>
      <trkpt lat="39.994150" lon="-6.531417">
        <ele>871.0</ele>
        <time>2015-06-06T17:48:41Z</time>
      </trkpt>
      <trkpt lat="39.994233" lon="-6.531700">
        <ele>867.0</ele>
        <time>2015-06-06T17:48:43Z</time>
      </trkpt>
      <trkpt lat="39.994317" lon="-6.532000">
        <ele>864.0</ele>
        <time>2015-06-06T17:48:45Z</time>
      </trkpt>
      <trkpt lat="39.994400" lon="-6.532300">
        <ele>860.0</ele>
        <time>2015-06-06T17:48:47Z</time>
      </trkpt>
      <trkpt lat="39.994483" lon="-6.532583">
        <ele>857.0</ele>
        <time>2015-06-06T17:48:49Z</time>
      </trkpt>
      <trkpt lat="39.994567" lon="-6.532883">
        <ele>853.0</ele>
        <time>2015-06-06T17:48:51Z</time>
      </trkpt>
      <trkpt lat="39.994650" lon="-6.533200">
        <ele>849.0</ele>
        <time>2015-06-06T17:48:53Z</time>
      </trkpt>
      <trkpt lat="39.994717" lon="-6.533517">
        <ele>847.0</ele>
        <time>2015-06-06T17:48:55Z</time>
      </trkpt>
      <trkpt lat="39.994783" lon="-6.533817">
        <ele>844.0</ele>
        <time>2015-06-06T17:48:57Z</time>
      </trkpt>
      <trkpt lat="39.994850" lon="-6.534133">
        <ele>840.0</ele>
        <time>2015-06-06T17:48:59Z</time>
      </trkpt>
      <trkpt lat="39.994933" lon="-6.534450">
        <ele>836.0</ele>
        <time>2015-06-06T17:49:01Z</time>
      </trkpt>
      <trkpt lat="39.995017" lon="-6.534767">
        <ele>832.0</ele>
        <time>2015-06-06T17:49:03Z</time>
      </trkpt>
      <trkpt lat="39.995100" lon="-6.535067">
        <ele>829.0</ele>
        <time>2015-06-06T17:49:05Z</time>
      </trkpt>
      <trkpt lat="39.995183" lon="-6.535383">
        <ele>825.0</ele>
        <time>2015-06-06T17:49:07Z</time>
      </trkpt>
      <trkpt lat="39.995250" lon="-6.535717">
        <ele>822.0</ele>
        <time>2015-06-06T17:49:09Z</time>
      </trkpt>
      <trkpt lat="39.995317" lon="-6.536050">
        <ele>819.0</ele>
        <time>2015-06-06T17:49:11Z</time>
      </trkpt>
      <trkpt lat="39.995383" lon="-6.536383">
        <ele>815.0</ele>
        <time>2015-06-06T17:49:13Z</time>
      </trkpt>
      <trkpt lat="39.995450" lon="-6.536733">
        <ele>812.0</ele>
        <time>2015-06-06T17:49:15Z</time>
      </trkpt>
      <trkpt lat="39.995500" lon="-6.537050">
        <ele>809.0</ele>
        <time>2015-06-06T17:49:17Z</time>
      </trkpt>
      <trkpt lat="39.995567" lon="-6.537367">
        <ele>805.0</ele>
        <time>2015-06-06T17:49:19Z</time>
      </trkpt>
      <trkpt lat="39.995633" lon="-6.537700">
        <ele>803.0</ele>
        <time>2015-06-06T17:49:21Z</time>
      </trkpt>
      <trkpt lat="39.995683" lon="-6.538017">
        <ele>801.0</ele>
        <time>2015-06-06T17:49:23Z</time>
      </trkpt>
      <trkpt lat="39.995750" lon="-6.538317">
        <ele>797.0</ele>
        <time>2015-06-06T17:49:25Z</time>
      </trkpt>
      <trkpt lat="39.995833" lon="-6.538650">
        <ele>793.0</ele>
        <time>2015-06-06T17:49:27Z</time>
      </trkpt>
      <trkpt lat="39.995883" lon="-6.538983">
        <ele>792.0</ele>
        <time>2015-06-06T17:49:29Z</time>
      </trkpt>
      <trkpt lat="39.995950" lon="-6.539283">
        <ele>789.0</ele>
        <time>2015-06-06T17:49:31Z</time>
      </trkpt>
      <trkpt lat="39.996017" lon="-6.539617">
        <ele>785.0</ele>
        <time>2015-06-06T17:49:33Z</time>
      </trkpt>
      <trkpt lat="39.996067" lon="-6.539950">
        <ele>783.0</ele>
        <time>2015-06-06T17:49:35Z</time>
      </trkpt>
      <trkpt lat="39.996117" lon="-6.540267">
        <ele>780.0</ele>
        <time>2015-06-06T17:49:37Z</time>
      </trkpt>
      <trkpt lat="39.996183" lon="-6.540583">
        <ele>777.0</ele>
        <time>2015-06-06T17:49:39Z</time>
      </trkpt>
      <trkpt lat="39.996250" lon="-6.540867">
        <ele>774.0</ele>
        <time>2015-06-06T17:49:41Z</time>
      </trkpt>
      <trkpt lat="39.996317" lon="-6.541167">
        <ele>770.0</ele>
        <time>2015-06-06T17:49:43Z</time>
      </trkpt>
      <trkpt lat="39.996383" lon="-6.541467">
        <ele>766.0</ele>
        <time>2015-06-06T17:49:45Z</time>
      </trkpt>
      <trkpt lat="39.996433" lon="-6.541767">
        <ele>763.0</ele>
        <time>2015-06-06T17:49:47Z</time>
      </trkpt>
      <trkpt lat="39.996483" lon="-6.542067">
        <ele>759.0</ele>
        <time>2015-06-06T17:49:49Z</time>
      </trkpt>
      <trkpt lat="39.996550" lon="-6.542383">
        <ele>755.0</ele>
        <time>2015-06-06T17:49:51Z</time>
      </trkpt>
      <trkpt lat="39.996600" lon="-6.542717">
        <ele>752.0</ele>
        <time>2015-06-06T17:49:53Z</time>
      </trkpt>
      <trkpt lat="39.996650" lon="-6.543017">
        <ele>750.0</ele>
        <time>2015-06-06T17:49:55Z</time>
      </trkpt>
      <trkpt lat="39.996717" lon="-6.543333">
        <ele>747.0</ele>
        <time>2015-06-06T17:49:57Z</time>
      </trkpt>
      <trkpt lat="39.996767" lon="-6.543667">
        <ele>745.0</ele>
        <time>2015-06-06T17:49:59Z</time>
      </trkpt>
      <trkpt lat="39.996817" lon="-6.543967">
        <ele>744.0</ele>
        <time>2015-06-06T17:50:01Z</time>
      </trkpt>
      <trkpt lat="39.996900" lon="-6.544267">
        <ele>741.0</ele>
        <time>2015-06-06T17:50:03Z</time>
      </trkpt>
      <trkpt lat="39.996967" lon="-6.544550">
        <ele>739.0</ele>
        <time>2015-06-06T17:50:05Z</time>
      </trkpt>
      <trkpt lat="39.997050" lon="-6.544867">
        <ele>737.0</ele>
        <time>2015-06-06T17:50:07Z</time>
      </trkpt>
      <trkpt lat="39.997117" lon="-6.545167">
        <ele>735.0</ele>
        <time>2015-06-06T17:50:09Z</time>
      </trkpt>
      <trkpt lat="39.997200" lon="-6.545467">
        <ele>733.0</ele>
        <time>2015-06-06T17:50:11Z</time>
      </trkpt>
      <trkpt lat="39.997283" lon="-6.545767">
        <ele>730.0</ele>
        <time>2015-06-06T17:50:13Z</time>
      </trkpt>
      <trkpt lat="39.997367" lon="-6.546067">
        <ele>728.0</ele>
        <time>2015-06-06T17:50:15Z</time>
      </trkpt>
      <trkpt lat="39.997433" lon="-6.546367">
        <ele>725.0</ele>
        <time>2015-06-06T17:50:17Z</time>
      </trkpt>
      <trkpt lat="39.997517" lon="-6.546683">
        <ele>722.0</ele>
        <time>2015-06-06T17:50:19Z</time>
      </trkpt>
      <trkpt lat="39.997600" lon="-6.547000">
        <ele>720.0</ele>
        <time>2015-06-06T17:50:21Z</time>
      </trkpt>
      <trkpt lat="39.997650" lon="-6.547317">
        <ele>717.0</ele>
        <time>2015-06-06T17:50:23Z</time>
      </trkpt>
      <trkpt lat="39.997717" lon="-6.547650">
        <ele>713.0</ele>
        <time>2015-06-06T17:50:25Z</time>
      </trkpt>
      <trkpt lat="39.997800" lon="-6.547950">
        <ele>710.0</ele>
        <time>2015-06-06T17:50:27Z</time>
      </trkpt>
      <trkpt lat="39.997900" lon="-6.548217">
        <ele>708.0</ele>
        <time>2015-06-06T17:50:29Z</time>
      </trkpt>
      <trkpt lat="39.998000" lon="-6.548517">
        <ele>704.0</ele>
        <time>2015-06-06T17:50:31Z</time>
      </trkpt>
      <trkpt lat="39.998083" lon="-6.548817">
        <ele>702.0</ele>
        <time>2015-06-06T17:50:33Z</time>
      </trkpt>
      <trkpt lat="39.998150" lon="-6.549117">
        <ele>699.0</ele>
        <time>2015-06-06T17:50:35Z</time>
      </trkpt>
      <trkpt lat="39.998233" lon="-6.549417">
        <ele>695.0</ele>
        <time>2015-06-06T17:50:37Z</time>
      </trkpt>
      <trkpt lat="39.998317" lon="-6.549717">
        <ele>692.0</ele>
        <time>2015-06-06T17:50:39Z</time>
      </trkpt>
      <trkpt lat="39.998400" lon="-6.550033">
        <ele>689.0</ele>
        <time>2015-06-06T17:50:41Z</time>
      </trkpt>
      <trkpt lat="39.998467" lon="-6.550333">
        <ele>687.0</ele>
        <time>2015-06-06T17:50:43Z</time>
      </trkpt>
      <trkpt lat="39.998533" lon="-6.550650">
        <ele>684.0</ele>
        <time>2015-06-06T17:50:45Z</time>
      </trkpt>
      <trkpt lat="39.998600" lon="-6.550983">
        <ele>681.0</ele>
        <time>2015-06-06T17:50:47Z</time>
      </trkpt>
      <trkpt lat="39.998667" lon="-6.551300">
        <ele>678.0</ele>
        <time>2015-06-06T17:50:49Z</time>
      </trkpt>
      <trkpt lat="39.998717" lon="-6.551617">
        <ele>676.0</ele>
        <time>2015-06-06T17:50:51Z</time>
      </trkpt>
      <trkpt lat="39.998767" lon="-6.551933">
        <ele>674.0</ele>
        <time>2015-06-06T17:50:53Z</time>
      </trkpt>
      <trkpt lat="39.998833" lon="-6.552233">
        <ele>671.0</ele>
        <time>2015-06-06T17:50:55Z</time>
      </trkpt>
      <trkpt lat="39.998900" lon="-6.552550">
        <ele>667.0</ele>
        <time>2015-06-06T17:50:57Z</time>
      </trkpt>
      <trkpt lat="39.998950" lon="-6.552883">
        <ele>664.0</ele>
        <time>2015-06-06T17:50:59Z</time>
      </trkpt>
      <trkpt lat="39.999017" lon="-6.553217">
        <ele>661.0</ele>
        <time>2015-06-06T17:51:01Z</time>
      </trkpt>
      <trkpt lat="39.999083" lon="-6.553533">
        <ele>660.0</ele>
        <time>2015-06-06T17:51:03Z</time>
      </trkpt>
      <trkpt lat="39.999150" lon="-6.553833">
        <ele>658.0</ele>
        <time>2015-06-06T17:51:05Z</time>
      </trkpt>
      <trkpt lat="39.999233" lon="-6.554167">
        <ele>656.0</ele>
        <time>2015-06-06T17:51:07Z</time>
      </trkpt>
      <trkpt lat="39.999283" lon="-6.554500">
        <ele>658.0</ele>
        <time>2015-06-06T17:51:09Z</time>
      </trkpt>
      <trkpt lat="39.999350" lon="-6.554767">
        <ele>658.0</ele>
        <time>2015-06-06T17:51:11Z</time>
      </trkpt>
      <trkpt lat="39.999433" lon="-6.555050">
        <ele>656.0</ele>
        <time>2015-06-06T17:51:13Z</time>
      </trkpt>
      <trkpt lat="39.999533" lon="-6.555333">
        <ele>656.0</ele>
        <time>2015-06-06T17:51:15Z</time>
      </trkpt>
      <trkpt lat="39.999583" lon="-6.555600">
        <ele>657.0</ele>
        <time>2015-06-06T17:51:17Z</time>
      </trkpt>
      <trkpt lat="39.999633" lon="-6.555867">
        <ele>655.0</ele>
        <time>2015-06-06T17:51:19Z</time>
      </trkpt>
      <trkpt lat="39.999683" lon="-6.556150">
        <ele>652.0</ele>
        <time>2015-06-06T17:51:21Z</time>
      </trkpt>
      <trkpt lat="39.999733" lon="-6.556450">
        <ele>649.0</ele>
        <time>2015-06-06T17:51:23Z</time>
      </trkpt>
      <trkpt lat="39.999783" lon="-6.556767">
        <ele>646.0</ele>
        <time>2015-06-06T17:51:25Z</time>
      </trkpt>
      <trkpt lat="39.999867" lon="-6.557067">
        <ele>643.0</ele>
        <time>2015-06-06T17:51:27Z</time>
      </trkpt>
      <trkpt lat="39.999950" lon="-6.557350">
        <ele>642.0</ele>
        <time>2015-06-06T17:51:29Z</time>
      </trkpt>
      <trkpt lat="40.000033" lon="-6.557633">
        <ele>642.0</ele>
        <time>2015-06-06T17:51:31Z</time>
      </trkpt>
      <trkpt lat="40.000083" lon="-6.557933">
        <ele>641.0</ele>
        <time>2015-06-06T17:51:33Z</time>
      </trkpt>
      <trkpt lat="40.000117" lon="-6.558250">
        <ele>637.0</ele>
        <time>2015-06-06T17:51:35Z</time>
      </trkpt>
      <trkpt lat="40.000150" lon="-6.558600">
        <ele>634.0</ele>
        <time>2015-06-06T17:51:37Z</time>
      </trkpt>
      <trkpt lat="40.000200" lon="-6.558950">
        <ele>633.0</ele>
        <time>2015-06-06T17:51:39Z</time>
      </trkpt>
      <trkpt lat="40.000233" lon="-6.559300">
        <ele>632.0</ele>
        <time>2015-06-06T17:51:41Z</time>
      </trkpt>
      <trkpt lat="40.000283" lon="-6.559617">
        <ele>631.0</ele>
        <time>2015-06-06T17:51:43Z</time>
      </trkpt>
      <trkpt lat="40.000333" lon="-6.559883">
        <ele>630.0</ele>
        <time>2015-06-06T17:51:45Z</time>
      </trkpt>
      <trkpt lat="40.000383" lon="-6.560167">
        <ele>626.0</ele>
        <time>2015-06-06T17:51:47Z</time>
      </trkpt>
      <trkpt lat="40.000450" lon="-6.560467">
        <ele>623.0</ele>
        <time>2015-06-06T17:51:49Z</time>
      </trkpt>
      <trkpt lat="40.000517" lon="-6.560750">
        <ele>620.0</ele>
        <time>2015-06-06T17:51:51Z</time>
      </trkpt>
      <trkpt lat="40.000567" lon="-6.561033">
        <ele>617.0</ele>
        <time>2015-06-06T17:51:53Z</time>
      </trkpt>
      <trkpt lat="40.000617" lon="-6.561317">
        <ele>614.0</ele>
        <time>2015-06-06T17:51:55Z</time>
      </trkpt>
      <trkpt lat="40.000667" lon="-6.561600">
        <ele>610.0</ele>
        <time>2015-06-06T17:51:57Z</time>
      </trkpt>
      <trkpt lat="40.000717" lon="-6.561900">
        <ele>606.0</ele>
        <time>2015-06-06T17:51:59Z</time>
      </trkpt>
      <trkpt lat="40.000767" lon="-6.562217">
        <ele>601.0</ele>
        <time>2015-06-06T17:52:01Z</time>
      </trkpt>
      <trkpt lat="40.000817" lon="-6.562533">
        <ele>597.0</ele>
        <time>2015-06-06T17:52:03Z</time>
      </trkpt>
      <trkpt lat="40.000867" lon="-6.562850">
        <ele>593.0</ele>
        <time>2015-06-06T17:52:05Z</time>
      </trkpt>
      <trkpt lat="40.000950" lon="-6.563133">
        <ele>588.0</ele>
        <time>2015-06-06T17:52:07Z</time>
      </trkpt>
      <trkpt lat="40.001033" lon="-6.563417">
        <ele>586.0</ele>
        <time>2015-06-06T17:52:09Z</time>
      </trkpt>
      <trkpt lat="40.001117" lon="-6.563667">
        <ele>585.0</ele>
        <time>2015-06-06T17:52:11Z</time>
      </trkpt>
      <trkpt lat="40.001200" lon="-6.563950">
        <ele>581.0</ele>
        <time>2015-06-06T17:52:13Z</time>
      </trkpt>
      <trkpt lat="40.001300" lon="-6.564217">
        <ele>579.0</ele>
        <time>2015-06-06T17:52:15Z</time>
      </trkpt>
      <trkpt lat="40.001383" lon="-6.564500">
        <ele>577.0</ele>
        <time>2015-06-06T17:52:17Z</time>
      </trkpt>
      <trkpt lat="40.001467" lon="-6.564750">
        <ele>573.0</ele>
        <time>2015-06-06T17:52:19Z</time>
      </trkpt>
      <trkpt lat="40.001600" lon="-6.564917">
        <ele>568.0</ele>
        <time>2015-06-06T17:52:21Z</time>
      </trkpt>
      <trkpt lat="40.001733" lon="-6.564967">
        <ele>562.0</ele>
        <time>2015-06-06T17:52:23Z</time>
      </trkpt>
      <trkpt lat="40.001833" lon="-6.564900">
        <ele>559.0</ele>
        <time>2015-06-06T17:52:25Z</time>
      </trkpt>
      <trkpt lat="40.001850" lon="-6.564817">
        <ele>557.0</ele>
        <time>2015-06-06T17:52:27Z</time>
      </trkpt>
      <trkpt lat="40.001867" lon="-6.564750">
        <ele>554.0</ele>
        <time>2015-06-06T17:52:29Z</time>
      </trkpt>
      <trkpt lat="40.001917" lon="-6.564667">
        <ele>549.0</ele>
        <time>2015-06-06T17:52:31Z</time>
      </trkpt>
      <trkpt lat="40.001967" lon="-6.564583">
        <ele>545.0</ele>
        <time>2015-06-06T17:52:33Z</time>
      </trkpt>
      <trkpt lat="40.002050" lon="-6.564533">
        <ele>542.0</ele>
        <time>2015-06-06T17:52:35Z</time>
      </trkpt>
      <trkpt lat="40.002150" lon="-6.564533">
        <ele>536.0</ele>
        <time>2015-06-06T17:52:37Z</time>
      </trkpt>
      <trkpt lat="40.002283" lon="-6.564533">
        <ele>532.0</ele>
        <time>2015-06-06T17:52:39Z</time>
      </trkpt>
      <trkpt lat="40.002417" lon="-6.564567">
        <ele>530.0</ele>
        <time>2015-06-06T17:52:41Z</time>
      </trkpt>
      <trkpt lat="40.002550" lon="-6.564567">
        <ele>527.0</ele>
        <time>2015-06-06T17:52:43Z</time>
      </trkpt>
      <trkpt lat="40.002683" lon="-6.564567">
        <ele>524.0</ele>
        <time>2015-06-06T17:52:45Z</time>
      </trkpt>
      <trkpt lat="40.002783" lon="-6.564533">
        <ele>522.0</ele>
        <time>2015-06-06T17:52:47Z</time>
      </trkpt>
      <trkpt lat="40.002867" lon="-6.564483">
        <ele>519.0</ele>
        <time>2015-06-06T17:52:49Z</time>
      </trkpt>
      <trkpt lat="40.002933" lon="-6.564400">
        <ele>515.0</ele>
        <time>2015-06-06T17:52:51Z</time>
      </trkpt>
      <trkpt lat="40.002983" lon="-6.564317">
        <ele>511.0</ele>
        <time>2015-06-06T17:52:53Z</time>
      </trkpt>
      <trkpt lat="40.003050" lon="-6.564233">
        <ele>507.0</ele>
        <time>2015-06-06T17:52:55Z</time>
      </trkpt>
      <trkpt lat="40.003100" lon="-6.564133">
        <ele>504.0</ele>
        <time>2015-06-06T17:52:57Z</time>
      </trkpt>
      <trkpt lat="40.003150" lon="-6.564033">
        <ele>502.0</ele>
        <time>2015-06-06T17:52:59Z</time>
      </trkpt>
      <trkpt lat="40.003200" lon="-6.563950">
        <ele>499.0</ele>
        <time>2015-06-06T17:53:01Z</time>
      </trkpt>
      <trkpt lat="40.003233" lon="-6.563833">
        <ele>495.0</ele>
        <time>2015-06-06T17:53:03Z</time>
      </trkpt>
      <trkpt lat="40.003267" lon="-6.563717">
        <ele>492.0</ele>
        <time>2015-06-06T17:53:05Z</time>
      </trkpt>
      <trkpt lat="40.003333" lon="-6.563617">
        <ele>489.0</ele>
        <time>2015-06-06T17:53:07Z</time>
      </trkpt>
      <trkpt lat="40.003417" lon="-6.563550">
        <ele>486.0</ele>
        <time>2015-06-06T17:53:09Z</time>
      </trkpt>
      <trkpt lat="40.003533" lon="-6.563567">
        <ele>483.0</ele>
        <time>2015-06-06T17:53:11Z</time>
      </trkpt>
      <trkpt lat="40.003667" lon="-6.563617">
        <ele>479.0</ele>
        <time>2015-06-06T17:53:13Z</time>
      </trkpt>
      <trkpt lat="40.003800" lon="-6.563667">
        <ele>476.0</ele>
        <time>2015-06-06T17:53:15Z</time>
      </trkpt>
      <trkpt lat="40.003917" lon="-6.563700">
        <ele>474.0</ele>
        <time>2015-06-06T17:53:17Z</time>
      </trkpt>
      <trkpt lat="40.004000" lon="-6.563683">
        <ele>471.0</ele>
        <time>2015-06-06T17:53:19Z</time>
      </trkpt>
      <trkpt lat="40.004100" lon="-6.563650">
        <ele>467.0</ele>
        <time>2015-06-06T17:53:21Z</time>
      </trkpt>
      <trkpt lat="40.004200" lon="-6.563633">
        <ele>465.0</ele>
        <time>2015-06-06T17:53:23Z</time>
      </trkpt>
      <trkpt lat="40.004317" lon="-6.563633">
        <ele>462.0</ele>
        <time>2015-06-06T17:53:25Z</time>
      </trkpt>
      <trkpt lat="40.004433" lon="-6.563633">
        <ele>458.0</ele>
        <time>2015-06-06T17:53:27Z</time>
      </trkpt>
      <trkpt lat="40.004533" lon="-6.563617">
        <ele>456.0</ele>
        <time>2015-06-06T17:53:29Z</time>
      </trkpt>
      <trkpt lat="40.004633" lon="-6.563567">
        <ele>452.0</ele>
        <time>2015-06-06T17:53:31Z</time>
      </trkpt>
      <trkpt lat="40.004750" lon="-6.563533">
        <ele>449.0</ele>
        <time>2015-06-06T17:53:33Z</time>
      </trkpt>
      <trkpt lat="40.004850" lon="-6.563500">
        <ele>446.0</ele>
        <time>2015-06-06T17:53:35Z</time>
      </trkpt>
      <trkpt lat="40.004950" lon="-6.563450">
        <ele>442.0</ele>
        <time>2015-06-06T17:53:37Z</time>
      </trkpt>
      <trkpt lat="40.005067" lon="-6.563400">
        <ele>441.0</ele>
        <time>2015-06-06T17:53:39Z</time>
      </trkpt>
      <trkpt lat="40.005167" lon="-6.563383">
        <ele>438.0</ele>
        <time>2015-06-06T17:53:41Z</time>
      </trkpt>
      <trkpt lat="40.005283" lon="-6.563367">
        <ele>435.0</ele>
        <time>2015-06-06T17:53:43Z</time>
      </trkpt>
      <trkpt lat="40.005417" lon="-6.563350">
        <ele>431.0</ele>
        <time>2015-06-06T17:53:45Z</time>
      </trkpt>
      <trkpt lat="40.005550" lon="-6.563350">
        <ele>427.0</ele>
        <time>2015-06-06T17:53:47Z</time>
      </trkpt>
      <trkpt lat="40.005683" lon="-6.563317">
        <ele>424.0</ele>
        <time>2015-06-06T17:53:49Z</time>
      </trkpt>
      <trkpt lat="40.005817" lon="-6.563317">
        <ele>422.0</ele>
        <time>2015-06-06T17:53:51Z</time>
      </trkpt>
      <trkpt lat="40.005950" lon="-6.563333">
        <ele>417.0</ele>
        <time>2015-06-06T17:53:53Z</time>
      </trkpt>
      <trkpt lat="40.006100" lon="-6.563367">
        <ele>414.0</ele>
        <time>2015-06-06T17:53:55Z</time>
      </trkpt>
      <trkpt lat="40.006217" lon="-6.563367">
        <ele>412.0</ele>
        <time>2015-06-06T17:53:57Z</time>
      </trkpt>
      <trkpt lat="40.006317" lon="-6.563333">
        <ele>408.0</ele>
        <time>2015-06-06T17:53:59Z</time>
      </trkpt>
      <trkpt lat="40.006433" lon="-6.563250">
        <ele>405.0</ele>
        <time>2015-06-06T17:54:01Z</time>
      </trkpt>
      <trkpt lat="40.006500" lon="-6.563167">
        <ele>404.0</ele>
        <time>2015-06-06T17:54:03Z</time>
      </trkpt>
      <trkpt lat="40.006517" lon="-6.563050">
        <ele>400.0</ele>
        <time>2015-06-06T17:54:05Z</time>
      </trkpt>
      <trkpt lat="40.006600" lon="-6.562950">
        <ele>397.0</ele>
        <time>2015-06-06T17:54:07Z</time>
      </trkpt>
      <trkpt lat="40.006733" lon="-6.562950">
        <ele>394.0</ele>
        <time>2015-06-06T17:54:09Z</time>
      </trkpt>
      <trkpt lat="40.006800" lon="-6.562900">
        <ele>391.0</ele>
        <time>2015-06-06T17:54:11Z</time>
      </trkpt>
      <trkpt lat="40.006800" lon="-6.562733">
        <ele>385.0</ele>
        <time>2015-06-06T17:54:13Z</time>
      </trkpt>
      <trkpt lat="40.006800" lon="-6.562583">
        <ele>385.0</ele>
        <time>2015-06-06T17:54:15Z</time>
      </trkpt>
      <trkpt lat="40.006900" lon="-6.562567">
        <ele>381.0</ele>
        <time>2015-06-06T17:54:17Z</time>
      </trkpt>
      <trkpt lat="40.007017" lon="-6.562567">
        <ele>376.0</ele>
        <time>2015-06-06T17:54:19Z</time>
      </trkpt>
      <trkpt lat="40.007050" lon="-6.562450">
        <ele>372.0</ele>
        <time>2015-06-06T17:54:21Z</time>
      </trkpt>
      <trkpt lat="40.006967" lon="-6.562317">
        <ele>368.0</ele>
        <time>2015-06-06T17:54:23Z</time>
      </trkpt>
      <trkpt lat="40.006817" lon="-6.562250">
        <ele>366.0</ele>
        <time>2015-06-06T17:54:25Z</time>
      </trkpt>
      <trkpt lat="40.006750" lon="-6.562150">
        <ele>361.0</ele>
        <time>2015-06-06T17:54:27Z</time>
      </trkpt>
      <trkpt lat="40.006767" lon="-6.562000">
        <ele>356.0</ele>
        <time>2015-06-06T17:54:29Z</time>
      </trkpt>
      <trkpt lat="40.006817" lon="-6.561917">
        <ele>355.0</ele>
        <time>2015-06-06T17:54:31Z</time>
      </trkpt>
      <trkpt lat="40.006867" lon="-6.561833">
        <ele>352.0</ele>
        <time>2015-06-06T17:54:33Z</time>
      </trkpt>
      <trkpt lat="40.006917" lon="-6.561733">
        <ele>348.0</ele>
        <time>2015-06-06T17:54:35Z</time>
      </trkpt>
      <trkpt lat="40.006933" lon="-6.561617">
        <ele>345.0</ele>
        <time>2015-06-06T17:54:37Z</time>
      </trkpt>
      <trkpt lat="40.006917" lon="-6.561483">
        <ele>342.0</ele>
        <time>2015-06-06T17:54:39Z</time>
      </trkpt>
      <trkpt lat="40.006933" lon="-6.561350">
        <ele>339.0</ele>
        <time>2015-06-06T17:54:41Z</time>
      </trkpt>
      <trkpt lat="40.006917" lon="-6.561200">
        <ele>335.0</ele>
        <time>2015-06-06T17:54:43Z</time>
      </trkpt>
      <trkpt lat="40.006900" lon="-6.561050">
        <ele>332.0</ele>
        <time>2015-06-06T17:54:45Z</time>
      </trkpt>
      <trkpt lat="40.006900" lon="-6.560950">
        <ele>328.0</ele>
        <time>2015-06-06T17:54:47Z</time>
      </trkpt>
      <trkpt lat="40.006883" lon="-6.560800">
        <ele>324.0</ele>
        <time>2015-06-06T17:54:49Z</time>
      </trkpt>
      <trkpt lat="40.006867" lon="-6.560683">
        <ele>322.0</ele>
        <time>2015-06-06T17:54:51Z</time>
      </trkpt>
      <trkpt lat="40.006867" lon="-6.560617">
        <ele>320.0</ele>
        <time>2015-06-06T17:54:53Z</time>
      </trkpt>
      <trkpt lat="40.006867" lon="-6.560617">
        <ele>319.0</ele>
        <time>2015-06-06T17:54:55Z</time>
      </trkpt>
      <trkpt lat="40.006850" lon="-6.560600">
        <ele>318.0</ele>
        <time>2015-06-06T17:54:57Z</time>
      </trkpt>
      <trkpt lat="40.006833" lon="-6.560617">
        <ele>318.0</ele>
        <time>2015-06-06T17:54:59Z</time>
      </trkpt>
      <trkpt lat="40.006833" lon="-6.560617">
        <ele>317.0</ele>
        <time>2015-06-06T17:55:01Z</time>
      </trkpt>
      <trkpt lat="40.006833" lon="-6.560617">
        <ele>317.0</ele>
        <time>2015-06-06T17:55:03Z</time>
      </trkpt>
      <trkpt lat="40.006833" lon="-6.560617">
        <ele>317.0</ele>
        <time>2015-06-06T17:55:05Z</time>
      </trkpt>
      <trkpt lat="40.006817" lon="-6.560617">
        <ele>318.0</ele>
        <time>2015-06-06T17:55:07Z</time>
      </trkpt>
      <trkpt lat="40.006817" lon="-6.560600">
        <ele>318.0</ele>
        <time>2015-06-06T17:55:09Z</time>
      </trkpt>
      <trkpt lat="40.006817" lon="-6.560600">
        <ele>318.0</ele>
        <time>2015-06-06T17:55:11Z</time>
      </trkpt>
      <trkpt lat="40.006817" lon="-6.560600">
        <ele>318.0</ele>
        <time>2015-06-06T17:55:13Z</time>
      </trkpt>
      <trkpt lat="40.006817" lon="-6.560600">
        <ele>318.0</ele>
        <time>2015-06-06T17:55:15Z</time>
      </trkpt>
      <trkpt lat="40.006817" lon="-6.560600">
        <ele>318.0</ele>
        <time>2015-06-06T17:55:17Z</time>
      </trkpt>
      <trkpt lat="40.006817" lon="-6.560600">
        <ele>318.0</ele>
        <time>2015-06-06T17:55:19Z</time>
      </trkpt>
      <trkpt lat="40.006817" lon="-6.560600">
        <ele>318.0</ele>
        <time>2015-06-06T17:55:21Z</time>
      </trkpt>
      <trkpt lat="40.006817" lon="-6.560583">
        <ele>318.0</ele>
        <time>2015-06-06T17:55:23Z</time>
      </trkpt>
      <trkpt lat="40.006817" lon="-6.560600">
        <ele>318.0</ele>
        <time>2015-06-06T17:55:25Z</time>
      </trkpt>
    </trkseg>
  </trk>
</gpx>
